<?xml version="1.0" encoding="UTF-8" standalone="no" ?>
<gpx xmlns="http://www.topografix.com/GPX/1/1" xmlns:xsi="http://www.w3.org/2001/XMLSchema-instance" xsi:schemaLocation="http://www.topografix.com/GPX/1/1 http://www.topografix.com/GPX/1/1/gpx.xsd" version="1.1" creator="VisuGPX - https://www.visugpx.com">
  <metadata>
    <name>col de la Pigiere Montfroc Sisteron</name>
    <desc><![CDATA[Au départ de Laragne nous avons effectué une boucle de 95 km.
Voici la liste des villages et sites traversés : Châteuneuf de Châbre ; les Gorges de la Méouge ; Barret ; Séderon ; col de la Pigière(968 m) ; Les Omergues ; Montfroc ; Curel ;St Vincent sur Jabron ; Noyers sur Jabbron ; Bevons ; Sisteron ; Ribiers ; Châteuneuf de Châbre et enfin Laragne.
]]></desc>
  </metadata>
  <trk>
    <name><![CDATA[col de la Pigiere Montfroc Sisteron]]></name>
    <trkseg>
      <trkpt lat="44.31605" lon="5.82971">
        <ele>573</ele>
        <time>2019-06-04T06:53:57Z</time>
      </trkpt>
      <trkpt lat="44.31588" lon="5.82936">
        <ele>574</ele>
        <time>2019-06-04T06:55:29Z</time>
      </trkpt>
      <trkpt lat="44.31585" lon="5.82934">
        <ele>574</ele>
        <time>2019-06-04T06:55:30Z</time>
      </trkpt>
      <trkpt lat="44.31582" lon="5.82932">
        <ele>574</ele>
        <time>2019-06-04T06:55:31Z</time>
      </trkpt>
      <trkpt lat="44.31578" lon="5.8293">
        <ele>574</ele>
        <time>2019-06-04T06:55:32Z</time>
      </trkpt>
      <trkpt lat="44.31575" lon="5.82928">
        <ele>574</ele>
        <time>2019-06-04T06:55:33Z</time>
      </trkpt>
      <trkpt lat="44.3157" lon="5.82926">
        <ele>574</ele>
        <time>2019-06-04T06:55:34Z</time>
      </trkpt>
      <trkpt lat="44.31566" lon="5.82923">
        <ele>574</ele>
        <time>2019-06-04T06:55:35Z</time>
      </trkpt>
      <trkpt lat="44.31562" lon="5.82921">
        <ele>574</ele>
        <time>2019-06-04T06:55:36Z</time>
      </trkpt>
      <trkpt lat="44.31558" lon="5.82918">
        <ele>574</ele>
        <time>2019-06-04T06:55:37Z</time>
      </trkpt>
      <trkpt lat="44.31555" lon="5.82915">
        <ele>574</ele>
        <time>2019-06-04T06:55:38Z</time>
      </trkpt>
      <trkpt lat="44.31552" lon="5.82913">
        <ele>574</ele>
        <time>2019-06-04T06:55:39Z</time>
      </trkpt>
      <trkpt lat="44.31549" lon="5.82912">
        <ele>574</ele>
        <time>2019-06-04T06:55:40Z</time>
      </trkpt>
      <trkpt lat="44.31546" lon="5.8291">
        <ele>574</ele>
        <time>2019-06-04T06:55:41Z</time>
      </trkpt>
      <trkpt lat="44.31543" lon="5.82908">
        <ele>574</ele>
        <time>2019-06-04T06:55:42Z</time>
      </trkpt>
      <trkpt lat="44.3154" lon="5.82905">
        <ele>574</ele>
        <time>2019-06-04T06:55:43Z</time>
      </trkpt>
      <trkpt lat="44.31537" lon="5.82901">
        <ele>574</ele>
        <time>2019-06-04T06:55:44Z</time>
      </trkpt>
      <trkpt lat="44.31534" lon="5.82898">
        <ele>574</ele>
        <time>2019-06-04T06:55:45Z</time>
      </trkpt>
      <trkpt lat="44.31531" lon="5.82896">
        <ele>574</ele>
        <time>2019-06-04T06:55:46Z</time>
      </trkpt>
      <trkpt lat="44.31527" lon="5.82893">
        <ele>574</ele>
        <time>2019-06-04T06:55:47Z</time>
      </trkpt>
      <trkpt lat="44.31524" lon="5.82891">
        <ele>574</ele>
        <time>2019-06-04T06:55:48Z</time>
      </trkpt>
      <trkpt lat="44.31522" lon="5.82888">
        <ele>574</ele>
        <time>2019-06-04T06:55:49Z</time>
      </trkpt>
      <trkpt lat="44.31519" lon="5.82885">
        <ele>574</ele>
        <time>2019-06-04T06:55:50Z</time>
      </trkpt>
      <trkpt lat="44.31516" lon="5.82882">
        <ele>574</ele>
        <time>2019-06-04T06:55:51Z</time>
      </trkpt>
      <trkpt lat="44.31513" lon="5.82879">
        <ele>574</ele>
        <time>2019-06-04T06:55:52Z</time>
      </trkpt>
      <trkpt lat="44.31509" lon="5.82875">
        <ele>574</ele>
        <time>2019-06-04T06:55:53Z</time>
      </trkpt>
      <trkpt lat="44.31506" lon="5.82873">
        <ele>574</ele>
        <time>2019-06-04T06:55:54Z</time>
      </trkpt>
      <trkpt lat="44.31502" lon="5.82873">
        <ele>574</ele>
        <time>2019-06-04T06:55:55Z</time>
      </trkpt>
      <trkpt lat="44.31499" lon="5.82875">
        <ele>574</ele>
        <time>2019-06-04T06:55:56Z</time>
      </trkpt>
      <trkpt lat="44.31496" lon="5.82878">
        <ele>574</ele>
        <time>2019-06-04T06:55:58Z</time>
      </trkpt>
      <trkpt lat="44.31493" lon="5.82881">
        <ele>574</ele>
        <time>2019-06-04T06:55:58Z</time>
      </trkpt>
      <trkpt lat="44.31491" lon="5.82885">
        <ele>574</ele>
        <time>2019-06-04T06:55:59Z</time>
      </trkpt>
      <trkpt lat="44.31489" lon="5.82889">
        <ele>574</ele>
        <time>2019-06-04T06:56:00Z</time>
      </trkpt>
      <trkpt lat="44.31487" lon="5.82893">
        <ele>574</ele>
        <time>2019-06-04T06:56:01Z</time>
      </trkpt>
      <trkpt lat="44.31485" lon="5.82897">
        <ele>574</ele>
        <time>2019-06-04T06:56:02Z</time>
      </trkpt>
      <trkpt lat="44.31482" lon="5.82902">
        <ele>574</ele>
        <time>2019-06-04T06:56:03Z</time>
      </trkpt>
      <trkpt lat="44.3148" lon="5.82906">
        <ele>574</ele>
        <time>2019-06-04T06:56:04Z</time>
      </trkpt>
      <trkpt lat="44.31477" lon="5.82911">
        <ele>574</ele>
        <time>2019-06-04T06:56:05Z</time>
      </trkpt>
      <trkpt lat="44.31474" lon="5.82915">
        <ele>574</ele>
        <time>2019-06-04T06:56:06Z</time>
      </trkpt>
      <trkpt lat="44.3147" lon="5.82919">
        <ele>574</ele>
        <time>2019-06-04T06:56:07Z</time>
      </trkpt>
      <trkpt lat="44.31467" lon="5.82924">
        <ele>574</ele>
        <time>2019-06-04T06:56:08Z</time>
      </trkpt>
      <trkpt lat="44.31464" lon="5.82928">
        <ele>574</ele>
        <time>2019-06-04T06:56:09Z</time>
      </trkpt>
      <trkpt lat="44.31461" lon="5.82933">
        <ele>574</ele>
        <time>2019-06-04T06:56:10Z</time>
      </trkpt>
      <trkpt lat="44.31458" lon="5.82938">
        <ele>574</ele>
        <time>2019-06-04T06:56:11Z</time>
      </trkpt>
      <trkpt lat="44.31454" lon="5.82943">
        <ele>574</ele>
        <time>2019-06-04T06:56:12Z</time>
      </trkpt>
      <trkpt lat="44.31451" lon="5.82948">
        <ele>574</ele>
        <time>2019-06-04T06:56:13Z</time>
      </trkpt>
      <trkpt lat="44.31447" lon="5.82953">
        <ele>574</ele>
        <time>2019-06-04T06:56:14Z</time>
      </trkpt>
      <trkpt lat="44.31443" lon="5.82959">
        <ele>574</ele>
        <time>2019-06-04T06:56:15Z</time>
      </trkpt>
      <trkpt lat="44.31439" lon="5.82964">
        <ele>574</ele>
        <time>2019-06-04T06:56:16Z</time>
      </trkpt>
      <trkpt lat="44.31435" lon="5.82969">
        <ele>574</ele>
        <time>2019-06-04T06:56:17Z</time>
      </trkpt>
      <trkpt lat="44.31432" lon="5.82974">
        <ele>574</ele>
        <time>2019-06-04T06:56:18Z</time>
      </trkpt>
      <trkpt lat="44.31428" lon="5.82979">
        <ele>574</ele>
        <time>2019-06-04T06:56:19Z</time>
      </trkpt>
      <trkpt lat="44.31425" lon="5.82984">
        <ele>574</ele>
        <time>2019-06-04T06:56:20Z</time>
      </trkpt>
      <trkpt lat="44.31421" lon="5.82989">
        <ele>574</ele>
        <time>2019-06-04T06:56:21Z</time>
      </trkpt>
      <trkpt lat="44.31418" lon="5.82994">
        <ele>574</ele>
        <time>2019-06-04T06:56:22Z</time>
      </trkpt>
      <trkpt lat="44.31414" lon="5.83">
        <ele>574</ele>
        <time>2019-06-04T06:56:23Z</time>
      </trkpt>
      <trkpt lat="44.31411" lon="5.83005">
        <ele>574</ele>
        <time>2019-06-04T06:56:24Z</time>
      </trkpt>
      <trkpt lat="44.31407" lon="5.8301">
        <ele>574</ele>
        <time>2019-06-04T06:56:25Z</time>
      </trkpt>
      <trkpt lat="44.31403" lon="5.83015">
        <ele>574</ele>
        <time>2019-06-04T06:56:26Z</time>
      </trkpt>
      <trkpt lat="44.314" lon="5.8302">
        <ele>574</ele>
        <time>2019-06-04T06:56:27Z</time>
      </trkpt>
      <trkpt lat="44.31396" lon="5.83026">
        <ele>574</ele>
        <time>2019-06-04T06:56:28Z</time>
      </trkpt>
      <trkpt lat="44.31393" lon="5.83031">
        <ele>574</ele>
        <time>2019-06-04T06:56:29Z</time>
      </trkpt>
      <trkpt lat="44.3139" lon="5.83035">
        <ele>574</ele>
        <time>2019-06-04T06:56:30Z</time>
      </trkpt>
      <trkpt lat="44.31387" lon="5.8304">
        <ele>574</ele>
        <time>2019-06-04T06:56:31Z</time>
      </trkpt>
      <trkpt lat="44.31383" lon="5.83044">
        <ele>574</ele>
        <time>2019-06-04T06:56:32Z</time>
      </trkpt>
      <trkpt lat="44.3138" lon="5.83049">
        <ele>574</ele>
        <time>2019-06-04T06:56:33Z</time>
      </trkpt>
      <trkpt lat="44.31378" lon="5.83054">
        <ele>574</ele>
        <time>2019-06-04T06:56:34Z</time>
      </trkpt>
      <trkpt lat="44.31376" lon="5.83059">
        <ele>574</ele>
        <time>2019-06-04T06:56:35Z</time>
      </trkpt>
      <trkpt lat="44.31374" lon="5.83064">
        <ele>574</ele>
        <time>2019-06-04T06:56:36Z</time>
      </trkpt>
      <trkpt lat="44.31371" lon="5.83069">
        <ele>574</ele>
        <time>2019-06-04T06:56:37Z</time>
      </trkpt>
      <trkpt lat="44.31369" lon="5.83074">
        <ele>573</ele>
        <time>2019-06-04T06:56:38Z</time>
      </trkpt>
      <trkpt lat="44.31366" lon="5.83079">
        <ele>573</ele>
        <time>2019-06-04T06:56:39Z</time>
      </trkpt>
      <trkpt lat="44.31364" lon="5.83085">
        <ele>573</ele>
        <time>2019-06-04T06:56:40Z</time>
      </trkpt>
      <trkpt lat="44.31362" lon="5.83091">
        <ele>573</ele>
        <time>2019-06-04T06:56:41Z</time>
      </trkpt>
      <trkpt lat="44.3136" lon="5.83095">
        <ele>573</ele>
        <time>2019-06-04T06:56:42Z</time>
      </trkpt>
      <trkpt lat="44.31358" lon="5.83098">
        <ele>573</ele>
        <time>2019-06-04T06:56:43Z</time>
      </trkpt>
      <trkpt lat="44.31356" lon="5.83101">
        <ele>573</ele>
        <time>2019-06-04T06:56:44Z</time>
      </trkpt>
      <trkpt lat="44.31354" lon="5.83103">
        <ele>573</ele>
        <time>2019-06-04T06:56:45Z</time>
      </trkpt>
      <trkpt lat="44.31352" lon="5.83104">
        <ele>573</ele>
        <time>2019-06-04T06:56:46Z</time>
      </trkpt>
      <trkpt lat="44.31351" lon="5.83104">
        <ele>573</ele>
        <time>2019-06-04T06:56:47Z</time>
      </trkpt>
      <trkpt lat="44.3135" lon="5.83104">
        <ele>573</ele>
        <time>2019-06-04T06:56:48Z</time>
      </trkpt>
      <trkpt lat="44.31348" lon="5.83103">
        <ele>573</ele>
        <time>2019-06-04T06:56:50Z</time>
      </trkpt>
      <trkpt lat="44.31347" lon="5.83101">
        <ele>574</ele>
        <time>2019-06-04T06:56:52Z</time>
      </trkpt>
      <trkpt lat="44.31345" lon="5.831">
        <ele>574</ele>
        <time>2019-06-04T06:56:53Z</time>
      </trkpt>
      <trkpt lat="44.31344" lon="5.83096">
        <ele>574</ele>
        <time>2019-06-04T06:56:54Z</time>
      </trkpt>
      <trkpt lat="44.31344" lon="5.83092">
        <ele>574</ele>
        <time>2019-06-04T06:56:55Z</time>
      </trkpt>
      <trkpt lat="44.31344" lon="5.83087">
        <ele>574</ele>
        <time>2019-06-04T06:56:56Z</time>
      </trkpt>
      <trkpt lat="44.31345" lon="5.83081">
        <ele>574</ele>
        <time>2019-06-04T06:56:58Z</time>
      </trkpt>
      <trkpt lat="44.31345" lon="5.83076">
        <ele>574</ele>
        <time>2019-06-04T06:56:58Z</time>
      </trkpt>
      <trkpt lat="44.31346" lon="5.8307">
        <ele>574</ele>
        <time>2019-06-04T06:56:59Z</time>
      </trkpt>
      <trkpt lat="44.31348" lon="5.83063">
        <ele>574</ele>
        <time>2019-06-04T06:57:00Z</time>
      </trkpt>
      <trkpt lat="44.3135" lon="5.83056">
        <ele>574</ele>
        <time>2019-06-04T06:57:01Z</time>
      </trkpt>
      <trkpt lat="44.31351" lon="5.8305">
        <ele>574</ele>
        <time>2019-06-04T06:57:02Z</time>
      </trkpt>
      <trkpt lat="44.31353" lon="5.83043">
        <ele>574</ele>
        <time>2019-06-04T06:57:03Z</time>
      </trkpt>
      <trkpt lat="44.31354" lon="5.83035">
        <ele>574</ele>
        <time>2019-06-04T06:57:04Z</time>
      </trkpt>
      <trkpt lat="44.31355" lon="5.83028">
        <ele>574</ele>
        <time>2019-06-04T06:57:05Z</time>
      </trkpt>
      <trkpt lat="44.31355" lon="5.8302">
        <ele>574</ele>
        <time>2019-06-04T06:57:06Z</time>
      </trkpt>
      <trkpt lat="44.31356" lon="5.83011">
        <ele>574</ele>
        <time>2019-06-04T06:57:07Z</time>
      </trkpt>
      <trkpt lat="44.31357" lon="5.83003">
        <ele>574</ele>
        <time>2019-06-04T06:57:08Z</time>
      </trkpt>
      <trkpt lat="44.31358" lon="5.82994">
        <ele>574</ele>
        <time>2019-06-04T06:57:09Z</time>
      </trkpt>
      <trkpt lat="44.31359" lon="5.82985">
        <ele>574</ele>
        <time>2019-06-04T06:57:10Z</time>
      </trkpt>
      <trkpt lat="44.31361" lon="5.82975">
        <ele>573</ele>
        <time>2019-06-04T06:57:11Z</time>
      </trkpt>
      <trkpt lat="44.31362" lon="5.82966">
        <ele>573</ele>
        <time>2019-06-04T06:57:12Z</time>
      </trkpt>
      <trkpt lat="44.31363" lon="5.82956">
        <ele>572</ele>
        <time>2019-06-04T06:57:13Z</time>
      </trkpt>
      <trkpt lat="44.31364" lon="5.82946">
        <ele>572</ele>
        <time>2019-06-04T06:57:14Z</time>
      </trkpt>
      <trkpt lat="44.31366" lon="5.82936">
        <ele>572</ele>
        <time>2019-06-04T06:57:15Z</time>
      </trkpt>
      <trkpt lat="44.31367" lon="5.82926">
        <ele>571</ele>
        <time>2019-06-04T06:57:16Z</time>
      </trkpt>
      <trkpt lat="44.31368" lon="5.82916">
        <ele>571</ele>
        <time>2019-06-04T06:57:18Z</time>
      </trkpt>
      <trkpt lat="44.31368" lon="5.82906">
        <ele>570</ele>
        <time>2019-06-04T06:57:18Z</time>
      </trkpt>
      <trkpt lat="44.31369" lon="5.82897">
        <ele>570</ele>
        <time>2019-06-04T06:57:19Z</time>
      </trkpt>
      <trkpt lat="44.3137" lon="5.82887">
        <ele>570</ele>
        <time>2019-06-04T06:57:20Z</time>
      </trkpt>
      <trkpt lat="44.31371" lon="5.82878">
        <ele>569</ele>
        <time>2019-06-04T06:57:21Z</time>
      </trkpt>
      <trkpt lat="44.31372" lon="5.82868">
        <ele>569</ele>
        <time>2019-06-04T06:57:22Z</time>
      </trkpt>
      <trkpt lat="44.31373" lon="5.82859">
        <ele>569</ele>
        <time>2019-06-04T06:57:23Z</time>
      </trkpt>
      <trkpt lat="44.31374" lon="5.82849">
        <ele>568</ele>
        <time>2019-06-04T06:57:24Z</time>
      </trkpt>
      <trkpt lat="44.31374" lon="5.82839">
        <ele>568</ele>
        <time>2019-06-04T06:57:25Z</time>
      </trkpt>
      <trkpt lat="44.31375" lon="5.82829">
        <ele>567</ele>
        <time>2019-06-04T06:57:26Z</time>
      </trkpt>
      <trkpt lat="44.31375" lon="5.82819">
        <ele>566</ele>
        <time>2019-06-04T06:57:27Z</time>
      </trkpt>
      <trkpt lat="44.31376" lon="5.8281">
        <ele>566</ele>
        <time>2019-06-04T06:57:28Z</time>
      </trkpt>
      <trkpt lat="44.31377" lon="5.828">
        <ele>565</ele>
        <time>2019-06-04T06:57:29Z</time>
      </trkpt>
      <trkpt lat="44.31378" lon="5.82791">
        <ele>565</ele>
        <time>2019-06-04T06:57:30Z</time>
      </trkpt>
      <trkpt lat="44.31378" lon="5.82782">
        <ele>565</ele>
        <time>2019-06-04T06:57:31Z</time>
      </trkpt>
      <trkpt lat="44.31378" lon="5.82773">
        <ele>565</ele>
        <time>2019-06-04T06:57:32Z</time>
      </trkpt>
      <trkpt lat="44.31379" lon="5.82764">
        <ele>565</ele>
        <time>2019-06-04T06:57:33Z</time>
      </trkpt>
      <trkpt lat="44.31379" lon="5.82756">
        <ele>565</ele>
        <time>2019-06-04T06:57:34Z</time>
      </trkpt>
      <trkpt lat="44.31378" lon="5.82747">
        <ele>565</ele>
        <time>2019-06-04T06:57:35Z</time>
      </trkpt>
      <trkpt lat="44.31378" lon="5.82738">
        <ele>565</ele>
        <time>2019-06-04T06:57:36Z</time>
      </trkpt>
      <trkpt lat="44.31377" lon="5.82729">
        <ele>565</ele>
        <time>2019-06-04T06:57:37Z</time>
      </trkpt>
      <trkpt lat="44.31376" lon="5.82722">
        <ele>565</ele>
        <time>2019-06-04T06:57:38Z</time>
      </trkpt>
      <trkpt lat="44.31376" lon="5.82714">
        <ele>565</ele>
        <time>2019-06-04T06:57:39Z</time>
      </trkpt>
      <trkpt lat="44.31375" lon="5.82706">
        <ele>565</ele>
        <time>2019-06-04T06:57:40Z</time>
      </trkpt>
      <trkpt lat="44.31374" lon="5.82699">
        <ele>565</ele>
        <time>2019-06-04T06:57:41Z</time>
      </trkpt>
      <trkpt lat="44.31372" lon="5.82692">
        <ele>565</ele>
        <time>2019-06-04T06:57:42Z</time>
      </trkpt>
      <trkpt lat="44.31369" lon="5.82686">
        <ele>565</ele>
        <time>2019-06-04T06:57:43Z</time>
      </trkpt>
      <trkpt lat="44.31364" lon="5.82682">
        <ele>565</ele>
        <time>2019-06-04T06:57:44Z</time>
      </trkpt>
      <trkpt lat="44.31358" lon="5.82678">
        <ele>565</ele>
        <time>2019-06-04T06:57:45Z</time>
      </trkpt>
      <trkpt lat="44.31352" lon="5.82675">
        <ele>565</ele>
        <time>2019-06-04T06:57:46Z</time>
      </trkpt>
      <trkpt lat="44.31346" lon="5.82672">
        <ele>565</ele>
        <time>2019-06-04T06:57:47Z</time>
      </trkpt>
      <trkpt lat="44.3134" lon="5.82669">
        <ele>565</ele>
        <time>2019-06-04T06:57:48Z</time>
      </trkpt>
      <trkpt lat="44.31334" lon="5.82667">
        <ele>565</ele>
        <time>2019-06-04T06:57:49Z</time>
      </trkpt>
      <trkpt lat="44.31327" lon="5.82663">
        <ele>565</ele>
        <time>2019-06-04T06:57:50Z</time>
      </trkpt>
      <trkpt lat="44.31321" lon="5.8266">
        <ele>565</ele>
        <time>2019-06-04T06:57:51Z</time>
      </trkpt>
      <trkpt lat="44.31314" lon="5.82655">
        <ele>565</ele>
        <time>2019-06-04T06:57:52Z</time>
      </trkpt>
      <trkpt lat="44.31306" lon="5.82651">
        <ele>565</ele>
        <time>2019-06-04T06:57:53Z</time>
      </trkpt>
      <trkpt lat="44.31299" lon="5.82646">
        <ele>565</ele>
        <time>2019-06-04T06:57:54Z</time>
      </trkpt>
      <trkpt lat="44.3129" lon="5.8264">
        <ele>565</ele>
        <time>2019-06-04T06:57:55Z</time>
      </trkpt>
      <trkpt lat="44.31282" lon="5.82635">
        <ele>565</ele>
        <time>2019-06-04T06:57:56Z</time>
      </trkpt>
      <trkpt lat="44.31274" lon="5.8263">
        <ele>565</ele>
        <time>2019-06-04T06:57:58Z</time>
      </trkpt>
      <trkpt lat="44.31265" lon="5.82624">
        <ele>565</ele>
        <time>2019-06-04T06:57:58Z</time>
      </trkpt>
      <trkpt lat="44.31256" lon="5.82619">
        <ele>565</ele>
        <time>2019-06-04T06:57:59Z</time>
      </trkpt>
      <trkpt lat="44.31248" lon="5.82615">
        <ele>565</ele>
        <time>2019-06-04T06:58:00Z</time>
      </trkpt>
      <trkpt lat="44.31239" lon="5.8261">
        <ele>565</ele>
        <time>2019-06-04T06:58:01Z</time>
      </trkpt>
      <trkpt lat="44.31231" lon="5.82605">
        <ele>565</ele>
        <time>2019-06-04T06:58:02Z</time>
      </trkpt>
      <trkpt lat="44.31223" lon="5.826">
        <ele>564</ele>
        <time>2019-06-04T06:58:03Z</time>
      </trkpt>
      <trkpt lat="44.31215" lon="5.82595">
        <ele>564</ele>
        <time>2019-06-04T06:58:04Z</time>
      </trkpt>
      <trkpt lat="44.31207" lon="5.8259">
        <ele>564</ele>
        <time>2019-06-04T06:58:05Z</time>
      </trkpt>
      <trkpt lat="44.31199" lon="5.82586">
        <ele>564</ele>
        <time>2019-06-04T06:58:06Z</time>
      </trkpt>
      <trkpt lat="44.31191" lon="5.82582">
        <ele>564</ele>
        <time>2019-06-04T06:58:08Z</time>
      </trkpt>
      <trkpt lat="44.31184" lon="5.82578">
        <ele>564</ele>
        <time>2019-06-04T06:58:08Z</time>
      </trkpt>
      <trkpt lat="44.31176" lon="5.82574">
        <ele>564</ele>
        <time>2019-06-04T06:58:09Z</time>
      </trkpt>
      <trkpt lat="44.3117" lon="5.82571">
        <ele>563</ele>
        <time>2019-06-04T06:58:10Z</time>
      </trkpt>
      <trkpt lat="44.31163" lon="5.82567">
        <ele>563</ele>
        <time>2019-06-04T06:58:11Z</time>
      </trkpt>
      <trkpt lat="44.31156" lon="5.82564">
        <ele>563</ele>
        <time>2019-06-04T06:58:12Z</time>
      </trkpt>
      <trkpt lat="44.31149" lon="5.8256">
        <ele>563</ele>
        <time>2019-06-04T06:58:13Z</time>
      </trkpt>
      <trkpt lat="44.31143" lon="5.82556">
        <ele>563</ele>
        <time>2019-06-04T06:58:14Z</time>
      </trkpt>
      <trkpt lat="44.31136" lon="5.82553">
        <ele>563</ele>
        <time>2019-06-04T06:58:15Z</time>
      </trkpt>
      <trkpt lat="44.3113" lon="5.82549">
        <ele>563</ele>
        <time>2019-06-04T06:58:16Z</time>
      </trkpt>
      <trkpt lat="44.31124" lon="5.82546">
        <ele>562</ele>
        <time>2019-06-04T06:58:17Z</time>
      </trkpt>
      <trkpt lat="44.31118" lon="5.82542">
        <ele>562</ele>
        <time>2019-06-04T06:58:18Z</time>
      </trkpt>
      <trkpt lat="44.31112" lon="5.82538">
        <ele>562</ele>
        <time>2019-06-04T06:58:19Z</time>
      </trkpt>
      <trkpt lat="44.31106" lon="5.82535">
        <ele>562</ele>
        <time>2019-06-04T06:58:20Z</time>
      </trkpt>
      <trkpt lat="44.311" lon="5.82531">
        <ele>562</ele>
        <time>2019-06-04T06:58:21Z</time>
      </trkpt>
      <trkpt lat="44.31094" lon="5.82528">
        <ele>562</ele>
        <time>2019-06-04T06:58:22Z</time>
      </trkpt>
      <trkpt lat="44.31088" lon="5.82523">
        <ele>562</ele>
        <time>2019-06-04T06:58:23Z</time>
      </trkpt>
      <trkpt lat="44.31084" lon="5.82518">
        <ele>562</ele>
        <time>2019-06-04T06:58:24Z</time>
      </trkpt>
      <trkpt lat="44.3108" lon="5.82511">
        <ele>562</ele>
        <time>2019-06-04T06:58:25Z</time>
      </trkpt>
      <trkpt lat="44.31077" lon="5.82503">
        <ele>562</ele>
        <time>2019-06-04T06:58:26Z</time>
      </trkpt>
      <trkpt lat="44.31076" lon="5.82495">
        <ele>562</ele>
        <time>2019-06-04T06:58:27Z</time>
      </trkpt>
      <trkpt lat="44.31077" lon="5.82486">
        <ele>562</ele>
        <time>2019-06-04T06:58:28Z</time>
      </trkpt>
      <trkpt lat="44.31079" lon="5.82479">
        <ele>562</ele>
        <time>2019-06-04T06:58:29Z</time>
      </trkpt>
      <trkpt lat="44.31082" lon="5.82471">
        <ele>562</ele>
        <time>2019-06-04T06:58:30Z</time>
      </trkpt>
      <trkpt lat="44.31084" lon="5.82464">
        <ele>562</ele>
        <time>2019-06-04T06:58:31Z</time>
      </trkpt>
      <trkpt lat="44.31087" lon="5.82457">
        <ele>562</ele>
        <time>2019-06-04T06:58:32Z</time>
      </trkpt>
      <trkpt lat="44.3109" lon="5.8245">
        <ele>562</ele>
        <time>2019-06-04T06:58:33Z</time>
      </trkpt>
      <trkpt lat="44.31093" lon="5.82443">
        <ele>562</ele>
        <time>2019-06-04T06:58:34Z</time>
      </trkpt>
      <trkpt lat="44.31096" lon="5.82436">
        <ele>562</ele>
        <time>2019-06-04T06:58:35Z</time>
      </trkpt>
      <trkpt lat="44.311" lon="5.82428">
        <ele>562</ele>
        <time>2019-06-04T06:58:36Z</time>
      </trkpt>
      <trkpt lat="44.31104" lon="5.8242">
        <ele>562</ele>
        <time>2019-06-04T06:58:37Z</time>
      </trkpt>
      <trkpt lat="44.31107" lon="5.82411">
        <ele>562</ele>
        <time>2019-06-04T06:58:38Z</time>
      </trkpt>
      <trkpt lat="44.31109" lon="5.82402">
        <ele>562</ele>
        <time>2019-06-04T06:58:39Z</time>
      </trkpt>
      <trkpt lat="44.3111" lon="5.82391">
        <ele>562</ele>
        <time>2019-06-04T06:58:40Z</time>
      </trkpt>
      <trkpt lat="44.31111" lon="5.82381">
        <ele>562</ele>
        <time>2019-06-04T06:58:41Z</time>
      </trkpt>
      <trkpt lat="44.31111" lon="5.82371">
        <ele>562</ele>
        <time>2019-06-04T06:58:42Z</time>
      </trkpt>
      <trkpt lat="44.31113" lon="5.82361">
        <ele>562</ele>
        <time>2019-06-04T06:58:43Z</time>
      </trkpt>
      <trkpt lat="44.31115" lon="5.82351">
        <ele>562</ele>
        <time>2019-06-04T06:58:44Z</time>
      </trkpt>
      <trkpt lat="44.3112" lon="5.82344">
        <ele>562</ele>
        <time>2019-06-04T06:58:45Z</time>
      </trkpt>
      <trkpt lat="44.31124" lon="5.82336">
        <ele>562</ele>
        <time>2019-06-04T06:58:46Z</time>
      </trkpt>
      <trkpt lat="44.31128" lon="5.82329">
        <ele>562</ele>
        <time>2019-06-04T06:58:47Z</time>
      </trkpt>
      <trkpt lat="44.31133" lon="5.82323">
        <ele>562</ele>
        <time>2019-06-04T06:58:48Z</time>
      </trkpt>
      <trkpt lat="44.31137" lon="5.82316">
        <ele>562</ele>
        <time>2019-06-04T06:58:49Z</time>
      </trkpt>
      <trkpt lat="44.31141" lon="5.8231">
        <ele>562</ele>
        <time>2019-06-04T06:58:50Z</time>
      </trkpt>
      <trkpt lat="44.31145" lon="5.82304">
        <ele>562</ele>
        <time>2019-06-04T06:58:51Z</time>
      </trkpt>
      <trkpt lat="44.31147" lon="5.82299">
        <ele>562</ele>
        <time>2019-06-04T06:58:52Z</time>
      </trkpt>
      <trkpt lat="44.31148" lon="5.82294">
        <ele>562</ele>
        <time>2019-06-04T06:58:53Z</time>
      </trkpt>
      <trkpt lat="44.31149" lon="5.8229">
        <ele>562</ele>
        <time>2019-06-04T06:58:54Z</time>
      </trkpt>
      <trkpt lat="44.3115" lon="5.82287">
        <ele>562</ele>
        <time>2019-06-04T06:58:55Z</time>
      </trkpt>
      <trkpt lat="44.3115" lon="5.82284">
        <ele>562</ele>
        <time>2019-06-04T06:58:56Z</time>
      </trkpt>
      <trkpt lat="44.3115" lon="5.82282">
        <ele>562</ele>
        <time>2019-06-04T06:58:58Z</time>
      </trkpt>
      <trkpt lat="44.31149" lon="5.82281">
        <ele>562</ele>
        <time>2019-06-04T06:59:07Z</time>
      </trkpt>
      <trkpt lat="44.31148" lon="5.82283">
        <ele>562</ele>
        <time>2019-06-04T06:59:23Z</time>
      </trkpt>
      <trkpt lat="44.31149" lon="5.82284">
        <ele>560</ele>
        <time>2019-06-04T06:59:44Z</time>
      </trkpt>
      <trkpt lat="44.31149" lon="5.82283">
        <ele>560</ele>
        <time>2019-06-04T06:59:59Z</time>
      </trkpt>
      <trkpt lat="44.3115" lon="5.82283">
        <ele>560</ele>
        <time>2019-06-04T07:00:12Z</time>
      </trkpt>
      <trkpt lat="44.31151" lon="5.82283">
        <ele>560</ele>
        <time>2019-06-04T07:00:19Z</time>
      </trkpt>
      <trkpt lat="44.3115" lon="5.82285">
        <ele>558</ele>
        <time>2019-06-04T07:00:28Z</time>
      </trkpt>
      <trkpt lat="44.3115" lon="5.82286">
        <ele>555</ele>
        <time>2019-06-04T07:00:35Z</time>
      </trkpt>
      <trkpt lat="44.3115" lon="5.82288">
        <ele>555</ele>
        <time>2019-06-04T07:00:41Z</time>
      </trkpt>
      <trkpt lat="44.3115" lon="5.82289">
        <ele>556</ele>
        <time>2019-06-04T07:00:51Z</time>
      </trkpt>
      <trkpt lat="44.31151" lon="5.82289">
        <ele>558</ele>
        <time>2019-06-04T07:01:37Z</time>
      </trkpt>
      <trkpt lat="44.31151" lon="5.82286">
        <ele>558</ele>
        <time>2019-06-04T07:01:39Z</time>
      </trkpt>
      <trkpt lat="44.31151" lon="5.82284">
        <ele>558</ele>
        <time>2019-06-04T07:01:40Z</time>
      </trkpt>
      <trkpt lat="44.31151" lon="5.82282">
        <ele>558</ele>
        <time>2019-06-04T07:01:41Z</time>
      </trkpt>
      <trkpt lat="44.31151" lon="5.82279">
        <ele>558</ele>
        <time>2019-06-04T07:01:42Z</time>
      </trkpt>
      <trkpt lat="44.31151" lon="5.82277">
        <ele>558</ele>
        <time>2019-06-04T07:01:43Z</time>
      </trkpt>
      <trkpt lat="44.3115" lon="5.82274">
        <ele>558</ele>
        <time>2019-06-04T07:01:44Z</time>
      </trkpt>
      <trkpt lat="44.31149" lon="5.82272">
        <ele>558</ele>
        <time>2019-06-04T07:01:45Z</time>
      </trkpt>
      <trkpt lat="44.31147" lon="5.82269">
        <ele>558</ele>
        <time>2019-06-04T07:01:46Z</time>
      </trkpt>
      <trkpt lat="44.31145" lon="5.82267">
        <ele>557</ele>
        <time>2019-06-04T07:01:47Z</time>
      </trkpt>
      <trkpt lat="44.31143" lon="5.82264">
        <ele>557</ele>
        <time>2019-06-04T07:01:48Z</time>
      </trkpt>
      <trkpt lat="44.3114" lon="5.8226">
        <ele>557</ele>
        <time>2019-06-04T07:01:49Z</time>
      </trkpt>
      <trkpt lat="44.31136" lon="5.82256">
        <ele>557</ele>
        <time>2019-06-04T07:01:50Z</time>
      </trkpt>
      <trkpt lat="44.31133" lon="5.82252">
        <ele>557</ele>
        <time>2019-06-04T07:01:51Z</time>
      </trkpt>
      <trkpt lat="44.3113" lon="5.82248">
        <ele>557</ele>
        <time>2019-06-04T07:01:52Z</time>
      </trkpt>
      <trkpt lat="44.31126" lon="5.82244">
        <ele>557</ele>
        <time>2019-06-04T07:01:53Z</time>
      </trkpt>
      <trkpt lat="44.31123" lon="5.82239">
        <ele>557</ele>
        <time>2019-06-04T07:01:54Z</time>
      </trkpt>
      <trkpt lat="44.3112" lon="5.82234">
        <ele>557</ele>
        <time>2019-06-04T07:01:55Z</time>
      </trkpt>
      <trkpt lat="44.31116" lon="5.8223">
        <ele>557</ele>
        <time>2019-06-04T07:01:56Z</time>
      </trkpt>
      <trkpt lat="44.31113" lon="5.82225">
        <ele>557</ele>
        <time>2019-06-04T07:01:58Z</time>
      </trkpt>
      <trkpt lat="44.31109" lon="5.82221">
        <ele>556</ele>
        <time>2019-06-04T07:01:58Z</time>
      </trkpt>
      <trkpt lat="44.31106" lon="5.82216">
        <ele>556</ele>
        <time>2019-06-04T07:01:59Z</time>
      </trkpt>
      <trkpt lat="44.31102" lon="5.82212">
        <ele>556</ele>
        <time>2019-06-04T07:02:00Z</time>
      </trkpt>
      <trkpt lat="44.31098" lon="5.82206">
        <ele>555</ele>
        <time>2019-06-04T07:02:01Z</time>
      </trkpt>
      <trkpt lat="44.31094" lon="5.82202">
        <ele>555</ele>
        <time>2019-06-04T07:02:02Z</time>
      </trkpt>
      <trkpt lat="44.3109" lon="5.82197">
        <ele>555</ele>
        <time>2019-06-04T07:02:03Z</time>
      </trkpt>
      <trkpt lat="44.31086" lon="5.82192">
        <ele>555</ele>
        <time>2019-06-04T07:02:04Z</time>
      </trkpt>
      <trkpt lat="44.31083" lon="5.82186">
        <ele>555</ele>
        <time>2019-06-04T07:02:05Z</time>
      </trkpt>
      <trkpt lat="44.31078" lon="5.82181">
        <ele>555</ele>
        <time>2019-06-04T07:02:06Z</time>
      </trkpt>
      <trkpt lat="44.31074" lon="5.82176">
        <ele>555</ele>
        <time>2019-06-04T07:02:07Z</time>
      </trkpt>
      <trkpt lat="44.3107" lon="5.82171">
        <ele>555</ele>
        <time>2019-06-04T07:02:08Z</time>
      </trkpt>
      <trkpt lat="44.31066" lon="5.82166">
        <ele>555</ele>
        <time>2019-06-04T07:02:09Z</time>
      </trkpt>
      <trkpt lat="44.31062" lon="5.82161">
        <ele>555</ele>
        <time>2019-06-04T07:02:10Z</time>
      </trkpt>
      <trkpt lat="44.31057" lon="5.82155">
        <ele>555</ele>
        <time>2019-06-04T07:02:11Z</time>
      </trkpt>
      <trkpt lat="44.31053" lon="5.8215">
        <ele>555</ele>
        <time>2019-06-04T07:02:12Z</time>
      </trkpt>
      <trkpt lat="44.31049" lon="5.82144">
        <ele>555</ele>
        <time>2019-06-04T07:02:13Z</time>
      </trkpt>
      <trkpt lat="44.31045" lon="5.82139">
        <ele>555</ele>
        <time>2019-06-04T07:02:14Z</time>
      </trkpt>
      <trkpt lat="44.3104" lon="5.82134">
        <ele>555</ele>
        <time>2019-06-04T07:02:15Z</time>
      </trkpt>
      <trkpt lat="44.31036" lon="5.82128">
        <ele>555</ele>
        <time>2019-06-04T07:02:16Z</time>
      </trkpt>
      <trkpt lat="44.31033" lon="5.82122">
        <ele>555</ele>
        <time>2019-06-04T07:02:17Z</time>
      </trkpt>
      <trkpt lat="44.31029" lon="5.82116">
        <ele>555</ele>
        <time>2019-06-04T07:02:18Z</time>
      </trkpt>
      <trkpt lat="44.31025" lon="5.82111">
        <ele>555</ele>
        <time>2019-06-04T07:02:19Z</time>
      </trkpt>
      <trkpt lat="44.31021" lon="5.82105">
        <ele>555</ele>
        <time>2019-06-04T07:02:20Z</time>
      </trkpt>
      <trkpt lat="44.31017" lon="5.821">
        <ele>555</ele>
        <time>2019-06-04T07:02:21Z</time>
      </trkpt>
      <trkpt lat="44.31013" lon="5.82095">
        <ele>555</ele>
        <time>2019-06-04T07:02:22Z</time>
      </trkpt>
      <trkpt lat="44.31009" lon="5.8209">
        <ele>555</ele>
        <time>2019-06-04T07:02:23Z</time>
      </trkpt>
      <trkpt lat="44.31004" lon="5.82085">
        <ele>555</ele>
        <time>2019-06-04T07:02:24Z</time>
      </trkpt>
      <trkpt lat="44.31" lon="5.8208">
        <ele>555</ele>
        <time>2019-06-04T07:02:25Z</time>
      </trkpt>
      <trkpt lat="44.30996" lon="5.82076">
        <ele>555</ele>
        <time>2019-06-04T07:02:26Z</time>
      </trkpt>
      <trkpt lat="44.30992" lon="5.82071">
        <ele>555</ele>
        <time>2019-06-04T07:02:27Z</time>
      </trkpt>
      <trkpt lat="44.30987" lon="5.82066">
        <ele>555</ele>
        <time>2019-06-04T07:02:29Z</time>
      </trkpt>
      <trkpt lat="44.30983" lon="5.82062">
        <ele>555</ele>
        <time>2019-06-04T07:02:29Z</time>
      </trkpt>
      <trkpt lat="44.30978" lon="5.82058">
        <ele>555</ele>
        <time>2019-06-04T07:02:30Z</time>
      </trkpt>
      <trkpt lat="44.30973" lon="5.82055">
        <ele>555</ele>
        <time>2019-06-04T07:02:31Z</time>
      </trkpt>
      <trkpt lat="44.30968" lon="5.82051">
        <ele>555</ele>
        <time>2019-06-04T07:02:32Z</time>
      </trkpt>
      <trkpt lat="44.30963" lon="5.82048">
        <ele>555</ele>
        <time>2019-06-04T07:02:33Z</time>
      </trkpt>
      <trkpt lat="44.30958" lon="5.82045">
        <ele>555</ele>
        <time>2019-06-04T07:02:34Z</time>
      </trkpt>
      <trkpt lat="44.30952" lon="5.82042">
        <ele>555</ele>
        <time>2019-06-04T07:02:35Z</time>
      </trkpt>
      <trkpt lat="44.30946" lon="5.82039">
        <ele>555</ele>
        <time>2019-06-04T07:02:36Z</time>
      </trkpt>
      <trkpt lat="44.30941" lon="5.82038">
        <ele>555</ele>
        <time>2019-06-04T07:02:37Z</time>
      </trkpt>
      <trkpt lat="44.30935" lon="5.82036">
        <ele>555</ele>
        <time>2019-06-04T07:02:38Z</time>
      </trkpt>
      <trkpt lat="44.3093" lon="5.82035">
        <ele>555</ele>
        <time>2019-06-04T07:02:39Z</time>
      </trkpt>
      <trkpt lat="44.30925" lon="5.82035">
        <ele>555</ele>
        <time>2019-06-04T07:02:40Z</time>
      </trkpt>
      <trkpt lat="44.3092" lon="5.82035">
        <ele>555</ele>
        <time>2019-06-04T07:02:41Z</time>
      </trkpt>
      <trkpt lat="44.30915" lon="5.82036">
        <ele>555</ele>
        <time>2019-06-04T07:02:42Z</time>
      </trkpt>
      <trkpt lat="44.3091" lon="5.82036">
        <ele>555</ele>
        <time>2019-06-04T07:02:43Z</time>
      </trkpt>
      <trkpt lat="44.30905" lon="5.82037">
        <ele>555</ele>
        <time>2019-06-04T07:02:44Z</time>
      </trkpt>
      <trkpt lat="44.30901" lon="5.82038">
        <ele>555</ele>
        <time>2019-06-04T07:02:45Z</time>
      </trkpt>
      <trkpt lat="44.30896" lon="5.8204">
        <ele>555</ele>
        <time>2019-06-04T07:02:46Z</time>
      </trkpt>
      <trkpt lat="44.30892" lon="5.82042">
        <ele>555</ele>
        <time>2019-06-04T07:02:47Z</time>
      </trkpt>
      <trkpt lat="44.30888" lon="5.82043">
        <ele>555</ele>
        <time>2019-06-04T07:02:48Z</time>
      </trkpt>
      <trkpt lat="44.30883" lon="5.82045">
        <ele>555</ele>
        <time>2019-06-04T07:02:49Z</time>
      </trkpt>
      <trkpt lat="44.30879" lon="5.82046">
        <ele>555</ele>
        <time>2019-06-04T07:02:50Z</time>
      </trkpt>
      <trkpt lat="44.30875" lon="5.82048">
        <ele>555</ele>
        <time>2019-06-04T07:02:51Z</time>
      </trkpt>
      <trkpt lat="44.3087" lon="5.8205">
        <ele>555</ele>
        <time>2019-06-04T07:02:52Z</time>
      </trkpt>
      <trkpt lat="44.30866" lon="5.82051">
        <ele>555</ele>
        <time>2019-06-04T07:02:53Z</time>
      </trkpt>
      <trkpt lat="44.30861" lon="5.82053">
        <ele>555</ele>
        <time>2019-06-04T07:02:54Z</time>
      </trkpt>
      <trkpt lat="44.30857" lon="5.82054">
        <ele>555</ele>
        <time>2019-06-04T07:02:55Z</time>
      </trkpt>
      <trkpt lat="44.30852" lon="5.82056">
        <ele>555</ele>
        <time>2019-06-04T07:02:56Z</time>
      </trkpt>
      <trkpt lat="44.30848" lon="5.82057">
        <ele>555</ele>
        <time>2019-06-04T07:02:58Z</time>
      </trkpt>
      <trkpt lat="44.30843" lon="5.82058">
        <ele>555</ele>
        <time>2019-06-04T07:02:58Z</time>
      </trkpt>
      <trkpt lat="44.30839" lon="5.82059">
        <ele>555</ele>
        <time>2019-06-04T07:02:59Z</time>
      </trkpt>
      <trkpt lat="44.30834" lon="5.82061">
        <ele>555</ele>
        <time>2019-06-04T07:03:00Z</time>
      </trkpt>
      <trkpt lat="44.3083" lon="5.82062">
        <ele>555</ele>
        <time>2019-06-04T07:03:01Z</time>
      </trkpt>
      <trkpt lat="44.30825" lon="5.82064">
        <ele>555</ele>
        <time>2019-06-04T07:03:02Z</time>
      </trkpt>
      <trkpt lat="44.3082" lon="5.82065">
        <ele>555</ele>
        <time>2019-06-04T07:03:03Z</time>
      </trkpt>
      <trkpt lat="44.30816" lon="5.82066">
        <ele>555</ele>
        <time>2019-06-04T07:03:04Z</time>
      </trkpt>
      <trkpt lat="44.30811" lon="5.82067">
        <ele>556</ele>
        <time>2019-06-04T07:03:05Z</time>
      </trkpt>
      <trkpt lat="44.30806" lon="5.82068">
        <ele>556</ele>
        <time>2019-06-04T07:03:06Z</time>
      </trkpt>
      <trkpt lat="44.30801" lon="5.8207">
        <ele>556</ele>
        <time>2019-06-04T07:03:07Z</time>
      </trkpt>
      <trkpt lat="44.30796" lon="5.82071">
        <ele>556</ele>
        <time>2019-06-04T07:03:08Z</time>
      </trkpt>
      <trkpt lat="44.30791" lon="5.82072">
        <ele>556</ele>
        <time>2019-06-04T07:03:09Z</time>
      </trkpt>
      <trkpt lat="44.30786" lon="5.82074">
        <ele>557</ele>
        <time>2019-06-04T07:03:10Z</time>
      </trkpt>
      <trkpt lat="44.30782" lon="5.82075">
        <ele>557</ele>
        <time>2019-06-04T07:03:11Z</time>
      </trkpt>
      <trkpt lat="44.30777" lon="5.82077">
        <ele>557</ele>
        <time>2019-06-04T07:03:12Z</time>
      </trkpt>
      <trkpt lat="44.30772" lon="5.8208">
        <ele>557</ele>
        <time>2019-06-04T07:03:13Z</time>
      </trkpt>
      <trkpt lat="44.30768" lon="5.82082">
        <ele>557</ele>
        <time>2019-06-04T07:03:14Z</time>
      </trkpt>
      <trkpt lat="44.30764" lon="5.82086">
        <ele>557</ele>
        <time>2019-06-04T07:03:15Z</time>
      </trkpt>
      <trkpt lat="44.30759" lon="5.82091">
        <ele>557</ele>
        <time>2019-06-04T07:03:16Z</time>
      </trkpt>
      <trkpt lat="44.30756" lon="5.82095">
        <ele>557</ele>
        <time>2019-06-04T07:03:17Z</time>
      </trkpt>
      <trkpt lat="44.30752" lon="5.821">
        <ele>558</ele>
        <time>2019-06-04T07:03:18Z</time>
      </trkpt>
      <trkpt lat="44.30749" lon="5.82106">
        <ele>558</ele>
        <time>2019-06-04T07:03:19Z</time>
      </trkpt>
      <trkpt lat="44.30746" lon="5.82112">
        <ele>558</ele>
        <time>2019-06-04T07:03:20Z</time>
      </trkpt>
      <trkpt lat="44.30743" lon="5.82118">
        <ele>558</ele>
        <time>2019-06-04T07:03:21Z</time>
      </trkpt>
      <trkpt lat="44.3074" lon="5.82125">
        <ele>558</ele>
        <time>2019-06-04T07:03:22Z</time>
      </trkpt>
      <trkpt lat="44.30738" lon="5.82131">
        <ele>558</ele>
        <time>2019-06-04T07:03:23Z</time>
      </trkpt>
      <trkpt lat="44.30735" lon="5.82138">
        <ele>558</ele>
        <time>2019-06-04T07:03:24Z</time>
      </trkpt>
      <trkpt lat="44.30733" lon="5.82144">
        <ele>558</ele>
        <time>2019-06-04T07:03:25Z</time>
      </trkpt>
      <trkpt lat="44.3073" lon="5.82151">
        <ele>558</ele>
        <time>2019-06-04T07:03:26Z</time>
      </trkpt>
      <trkpt lat="44.30729" lon="5.82158">
        <ele>558</ele>
        <time>2019-06-04T07:03:27Z</time>
      </trkpt>
      <trkpt lat="44.30727" lon="5.82164">
        <ele>558</ele>
        <time>2019-06-04T07:03:28Z</time>
      </trkpt>
      <trkpt lat="44.30724" lon="5.8217">
        <ele>559</ele>
        <time>2019-06-04T07:03:29Z</time>
      </trkpt>
      <trkpt lat="44.30722" lon="5.82177">
        <ele>560</ele>
        <time>2019-06-04T07:03:30Z</time>
      </trkpt>
      <trkpt lat="44.30719" lon="5.82183">
        <ele>560</ele>
        <time>2019-06-04T07:03:31Z</time>
      </trkpt>
      <trkpt lat="44.30717" lon="5.8219">
        <ele>561</ele>
        <time>2019-06-04T07:03:32Z</time>
      </trkpt>
      <trkpt lat="44.30714" lon="5.82197">
        <ele>561</ele>
        <time>2019-06-04T07:03:33Z</time>
      </trkpt>
      <trkpt lat="44.3071" lon="5.82203">
        <ele>561</ele>
        <time>2019-06-04T07:03:34Z</time>
      </trkpt>
      <trkpt lat="44.30707" lon="5.82209">
        <ele>561</ele>
        <time>2019-06-04T07:03:35Z</time>
      </trkpt>
      <trkpt lat="44.30704" lon="5.82214">
        <ele>562</ele>
        <time>2019-06-04T07:03:36Z</time>
      </trkpt>
      <trkpt lat="44.30701" lon="5.82219">
        <ele>562</ele>
        <time>2019-06-04T07:03:37Z</time>
      </trkpt>
      <trkpt lat="44.30697" lon="5.82224">
        <ele>562</ele>
        <time>2019-06-04T07:03:38Z</time>
      </trkpt>
      <trkpt lat="44.30694" lon="5.8223">
        <ele>562</ele>
        <time>2019-06-04T07:03:39Z</time>
      </trkpt>
      <trkpt lat="44.3069" lon="5.82235">
        <ele>562</ele>
        <time>2019-06-04T07:03:40Z</time>
      </trkpt>
      <trkpt lat="44.30686" lon="5.8224">
        <ele>562</ele>
        <time>2019-06-04T07:03:41Z</time>
      </trkpt>
      <trkpt lat="44.30682" lon="5.82244">
        <ele>562</ele>
        <time>2019-06-04T07:03:42Z</time>
      </trkpt>
      <trkpt lat="44.30679" lon="5.82249">
        <ele>562</ele>
        <time>2019-06-04T07:03:43Z</time>
      </trkpt>
      <trkpt lat="44.30674" lon="5.82254">
        <ele>562</ele>
        <time>2019-06-04T07:03:44Z</time>
      </trkpt>
      <trkpt lat="44.3067" lon="5.82258">
        <ele>562</ele>
        <time>2019-06-04T07:03:45Z</time>
      </trkpt>
      <trkpt lat="44.30666" lon="5.82263">
        <ele>562</ele>
        <time>2019-06-04T07:03:46Z</time>
      </trkpt>
      <trkpt lat="44.30661" lon="5.82267">
        <ele>562</ele>
        <time>2019-06-04T07:03:47Z</time>
      </trkpt>
      <trkpt lat="44.30656" lon="5.8227">
        <ele>562</ele>
        <time>2019-06-04T07:03:48Z</time>
      </trkpt>
      <trkpt lat="44.30652" lon="5.82274">
        <ele>562</ele>
        <time>2019-06-04T07:03:49Z</time>
      </trkpt>
      <trkpt lat="44.30647" lon="5.82278">
        <ele>562</ele>
        <time>2019-06-04T07:03:50Z</time>
      </trkpt>
      <trkpt lat="44.30642" lon="5.82281">
        <ele>562</ele>
        <time>2019-06-04T07:03:51Z</time>
      </trkpt>
      <trkpt lat="44.30636" lon="5.82284">
        <ele>562</ele>
        <time>2019-06-04T07:03:52Z</time>
      </trkpt>
      <trkpt lat="44.30631" lon="5.82288">
        <ele>562</ele>
        <time>2019-06-04T07:03:53Z</time>
      </trkpt>
      <trkpt lat="44.30626" lon="5.82291">
        <ele>562</ele>
        <time>2019-06-04T07:03:54Z</time>
      </trkpt>
      <trkpt lat="44.3062" lon="5.82294">
        <ele>562</ele>
        <time>2019-06-04T07:03:55Z</time>
      </trkpt>
      <trkpt lat="44.30614" lon="5.82297">
        <ele>562</ele>
        <time>2019-06-04T07:03:56Z</time>
      </trkpt>
      <trkpt lat="44.30608" lon="5.82299">
        <ele>562</ele>
        <time>2019-06-04T07:03:58Z</time>
      </trkpt>
      <trkpt lat="44.30602" lon="5.82301">
        <ele>562</ele>
        <time>2019-06-04T07:03:58Z</time>
      </trkpt>
      <trkpt lat="44.30596" lon="5.82303">
        <ele>562</ele>
        <time>2019-06-04T07:03:59Z</time>
      </trkpt>
      <trkpt lat="44.3059" lon="5.82305">
        <ele>562</ele>
        <time>2019-06-04T07:04:00Z</time>
      </trkpt>
      <trkpt lat="44.30584" lon="5.82306">
        <ele>562</ele>
        <time>2019-06-04T07:04:01Z</time>
      </trkpt>
      <trkpt lat="44.30578" lon="5.82308">
        <ele>562</ele>
        <time>2019-06-04T07:04:02Z</time>
      </trkpt>
      <trkpt lat="44.30571" lon="5.8231">
        <ele>562</ele>
        <time>2019-06-04T07:04:03Z</time>
      </trkpt>
      <trkpt lat="44.30566" lon="5.82311">
        <ele>562</ele>
        <time>2019-06-04T07:04:04Z</time>
      </trkpt>
      <trkpt lat="44.3056" lon="5.82312">
        <ele>562</ele>
        <time>2019-06-04T07:04:05Z</time>
      </trkpt>
      <trkpt lat="44.30554" lon="5.82312">
        <ele>563</ele>
        <time>2019-06-04T07:04:06Z</time>
      </trkpt>
      <trkpt lat="44.30549" lon="5.82313">
        <ele>563</ele>
        <time>2019-06-04T07:04:07Z</time>
      </trkpt>
      <trkpt lat="44.30543" lon="5.82314">
        <ele>563</ele>
        <time>2019-06-04T07:04:08Z</time>
      </trkpt>
      <trkpt lat="44.30537" lon="5.82315">
        <ele>563</ele>
        <time>2019-06-04T07:04:09Z</time>
      </trkpt>
      <trkpt lat="44.30532" lon="5.82315">
        <ele>563</ele>
        <time>2019-06-04T07:04:10Z</time>
      </trkpt>
      <trkpt lat="44.30526" lon="5.82316">
        <ele>563</ele>
        <time>2019-06-04T07:04:11Z</time>
      </trkpt>
      <trkpt lat="44.30521" lon="5.82317">
        <ele>563</ele>
        <time>2019-06-04T07:04:12Z</time>
      </trkpt>
      <trkpt lat="44.30515" lon="5.82317">
        <ele>563</ele>
        <time>2019-06-04T07:04:13Z</time>
      </trkpt>
      <trkpt lat="44.3051" lon="5.82318">
        <ele>563</ele>
        <time>2019-06-04T07:04:14Z</time>
      </trkpt>
      <trkpt lat="44.30504" lon="5.82318">
        <ele>563</ele>
        <time>2019-06-04T07:04:15Z</time>
      </trkpt>
      <trkpt lat="44.30498" lon="5.82319">
        <ele>563</ele>
        <time>2019-06-04T07:04:16Z</time>
      </trkpt>
      <trkpt lat="44.30492" lon="5.82319">
        <ele>563</ele>
        <time>2019-06-04T07:04:17Z</time>
      </trkpt>
      <trkpt lat="44.30487" lon="5.82319">
        <ele>563</ele>
        <time>2019-06-04T07:04:18Z</time>
      </trkpt>
      <trkpt lat="44.30481" lon="5.8232">
        <ele>563</ele>
        <time>2019-06-04T07:04:19Z</time>
      </trkpt>
      <trkpt lat="44.30476" lon="5.8232">
        <ele>563</ele>
        <time>2019-06-04T07:04:20Z</time>
      </trkpt>
      <trkpt lat="44.3047" lon="5.8232">
        <ele>564</ele>
        <time>2019-06-04T07:04:21Z</time>
      </trkpt>
      <trkpt lat="44.30465" lon="5.8232">
        <ele>564</ele>
        <time>2019-06-04T07:04:22Z</time>
      </trkpt>
      <trkpt lat="44.30459" lon="5.8232">
        <ele>564</ele>
        <time>2019-06-04T07:04:23Z</time>
      </trkpt>
      <trkpt lat="44.30453" lon="5.8232">
        <ele>564</ele>
        <time>2019-06-04T07:04:24Z</time>
      </trkpt>
      <trkpt lat="44.30448" lon="5.8232">
        <ele>564</ele>
        <time>2019-06-04T07:04:25Z</time>
      </trkpt>
      <trkpt lat="44.30442" lon="5.8232">
        <ele>564</ele>
        <time>2019-06-04T07:04:26Z</time>
      </trkpt>
      <trkpt lat="44.30437" lon="5.8232">
        <ele>564</ele>
        <time>2019-06-04T07:04:27Z</time>
      </trkpt>
      <trkpt lat="44.30431" lon="5.8232">
        <ele>564</ele>
        <time>2019-06-04T07:04:28Z</time>
      </trkpt>
      <trkpt lat="44.30426" lon="5.8232">
        <ele>564</ele>
        <time>2019-06-04T07:04:29Z</time>
      </trkpt>
      <trkpt lat="44.3042" lon="5.82321">
        <ele>564</ele>
        <time>2019-06-04T07:04:30Z</time>
      </trkpt>
      <trkpt lat="44.30414" lon="5.82321">
        <ele>564</ele>
        <time>2019-06-04T07:04:31Z</time>
      </trkpt>
      <trkpt lat="44.30409" lon="5.82321">
        <ele>564</ele>
        <time>2019-06-04T07:04:32Z</time>
      </trkpt>
      <trkpt lat="44.30403" lon="5.82322">
        <ele>564</ele>
        <time>2019-06-04T07:04:33Z</time>
      </trkpt>
      <trkpt lat="44.30397" lon="5.82323">
        <ele>564</ele>
        <time>2019-06-04T07:04:34Z</time>
      </trkpt>
      <trkpt lat="44.30391" lon="5.82323">
        <ele>564</ele>
        <time>2019-06-04T07:04:35Z</time>
      </trkpt>
      <trkpt lat="44.30386" lon="5.82324">
        <ele>564</ele>
        <time>2019-06-04T07:04:36Z</time>
      </trkpt>
      <trkpt lat="44.3038" lon="5.82325">
        <ele>564</ele>
        <time>2019-06-04T07:04:37Z</time>
      </trkpt>
      <trkpt lat="44.30374" lon="5.82326">
        <ele>564</ele>
        <time>2019-06-04T07:04:38Z</time>
      </trkpt>
      <trkpt lat="44.30368" lon="5.82327">
        <ele>564</ele>
        <time>2019-06-04T07:04:39Z</time>
      </trkpt>
      <trkpt lat="44.30363" lon="5.82329">
        <ele>564</ele>
        <time>2019-06-04T07:04:40Z</time>
      </trkpt>
      <trkpt lat="44.30357" lon="5.8233">
        <ele>564</ele>
        <time>2019-06-04T07:04:41Z</time>
      </trkpt>
      <trkpt lat="44.30352" lon="5.8233">
        <ele>564</ele>
        <time>2019-06-04T07:04:42Z</time>
      </trkpt>
      <trkpt lat="44.30347" lon="5.82329">
        <ele>564</ele>
        <time>2019-06-04T07:04:43Z</time>
      </trkpt>
      <trkpt lat="44.30341" lon="5.82331">
        <ele>564</ele>
        <time>2019-06-04T07:04:44Z</time>
      </trkpt>
      <trkpt lat="44.30335" lon="5.82332">
        <ele>564</ele>
        <time>2019-06-04T07:04:45Z</time>
      </trkpt>
      <trkpt lat="44.3033" lon="5.82334">
        <ele>564</ele>
        <time>2019-06-04T07:04:46Z</time>
      </trkpt>
      <trkpt lat="44.30324" lon="5.82335">
        <ele>564</ele>
        <time>2019-06-04T07:04:47Z</time>
      </trkpt>
      <trkpt lat="44.30318" lon="5.82337">
        <ele>564</ele>
        <time>2019-06-04T07:04:48Z</time>
      </trkpt>
      <trkpt lat="44.30313" lon="5.82338">
        <ele>564</ele>
        <time>2019-06-04T07:04:49Z</time>
      </trkpt>
      <trkpt lat="44.30308" lon="5.82339">
        <ele>564</ele>
        <time>2019-06-04T07:04:50Z</time>
      </trkpt>
      <trkpt lat="44.30302" lon="5.8234">
        <ele>564</ele>
        <time>2019-06-04T07:04:51Z</time>
      </trkpt>
      <trkpt lat="44.30296" lon="5.82341">
        <ele>564</ele>
        <time>2019-06-04T07:04:52Z</time>
      </trkpt>
      <trkpt lat="44.30291" lon="5.82342">
        <ele>564</ele>
        <time>2019-06-04T07:04:53Z</time>
      </trkpt>
      <trkpt lat="44.30285" lon="5.82343">
        <ele>564</ele>
        <time>2019-06-04T07:04:54Z</time>
      </trkpt>
      <trkpt lat="44.3028" lon="5.82344">
        <ele>564</ele>
        <time>2019-06-04T07:04:55Z</time>
      </trkpt>
      <trkpt lat="44.30274" lon="5.82345">
        <ele>564</ele>
        <time>2019-06-04T07:04:56Z</time>
      </trkpt>
      <trkpt lat="44.30268" lon="5.82347">
        <ele>564</ele>
        <time>2019-06-04T07:04:58Z</time>
      </trkpt>
      <trkpt lat="44.30263" lon="5.82347">
        <ele>564</ele>
        <time>2019-06-04T07:04:58Z</time>
      </trkpt>
      <trkpt lat="44.30257" lon="5.82348">
        <ele>564</ele>
        <time>2019-06-04T07:04:59Z</time>
      </trkpt>
      <trkpt lat="44.30252" lon="5.82349">
        <ele>564</ele>
        <time>2019-06-04T07:05:00Z</time>
      </trkpt>
      <trkpt lat="44.30246" lon="5.8235">
        <ele>564</ele>
        <time>2019-06-04T07:05:01Z</time>
      </trkpt>
      <trkpt lat="44.30241" lon="5.82351">
        <ele>564</ele>
        <time>2019-06-04T07:05:02Z</time>
      </trkpt>
      <trkpt lat="44.30235" lon="5.82351">
        <ele>564</ele>
        <time>2019-06-04T07:05:03Z</time>
      </trkpt>
      <trkpt lat="44.30229" lon="5.82352">
        <ele>564</ele>
        <time>2019-06-04T07:05:04Z</time>
      </trkpt>
      <trkpt lat="44.30223" lon="5.82352">
        <ele>564</ele>
        <time>2019-06-04T07:05:05Z</time>
      </trkpt>
      <trkpt lat="44.30218" lon="5.82352">
        <ele>564</ele>
        <time>2019-06-04T07:05:06Z</time>
      </trkpt>
      <trkpt lat="44.30212" lon="5.82353">
        <ele>564</ele>
        <time>2019-06-04T07:05:07Z</time>
      </trkpt>
      <trkpt lat="44.30206" lon="5.82352">
        <ele>564</ele>
        <time>2019-06-04T07:05:08Z</time>
      </trkpt>
      <trkpt lat="44.30201" lon="5.82352">
        <ele>564</ele>
        <time>2019-06-04T07:05:09Z</time>
      </trkpt>
      <trkpt lat="44.30195" lon="5.82352">
        <ele>564</ele>
        <time>2019-06-04T07:05:10Z</time>
      </trkpt>
      <trkpt lat="44.3019" lon="5.82351">
        <ele>564</ele>
        <time>2019-06-04T07:05:11Z</time>
      </trkpt>
      <trkpt lat="44.30184" lon="5.82351">
        <ele>564</ele>
        <time>2019-06-04T07:05:12Z</time>
      </trkpt>
      <trkpt lat="44.30178" lon="5.8235">
        <ele>564</ele>
        <time>2019-06-04T07:05:13Z</time>
      </trkpt>
      <trkpt lat="44.30173" lon="5.8235">
        <ele>564</ele>
        <time>2019-06-04T07:05:14Z</time>
      </trkpt>
      <trkpt lat="44.30167" lon="5.82349">
        <ele>564</ele>
        <time>2019-06-04T07:05:15Z</time>
      </trkpt>
      <trkpt lat="44.30161" lon="5.82349">
        <ele>564</ele>
        <time>2019-06-04T07:05:16Z</time>
      </trkpt>
      <trkpt lat="44.30155" lon="5.82348">
        <ele>564</ele>
        <time>2019-06-04T07:05:17Z</time>
      </trkpt>
      <trkpt lat="44.30149" lon="5.82348">
        <ele>564</ele>
        <time>2019-06-04T07:05:18Z</time>
      </trkpt>
      <trkpt lat="44.30144" lon="5.82348">
        <ele>564</ele>
        <time>2019-06-04T07:05:19Z</time>
      </trkpt>
      <trkpt lat="44.30138" lon="5.82348">
        <ele>565</ele>
        <time>2019-06-04T07:05:20Z</time>
      </trkpt>
      <trkpt lat="44.30132" lon="5.82348">
        <ele>565</ele>
        <time>2019-06-04T07:05:21Z</time>
      </trkpt>
      <trkpt lat="44.30126" lon="5.82348">
        <ele>566</ele>
        <time>2019-06-04T07:05:22Z</time>
      </trkpt>
      <trkpt lat="44.3012" lon="5.82348">
        <ele>567</ele>
        <time>2019-06-04T07:05:23Z</time>
      </trkpt>
      <trkpt lat="44.30114" lon="5.82348">
        <ele>567</ele>
        <time>2019-06-04T07:05:24Z</time>
      </trkpt>
      <trkpt lat="44.30109" lon="5.82347">
        <ele>568</ele>
        <time>2019-06-04T07:05:25Z</time>
      </trkpt>
      <trkpt lat="44.30103" lon="5.82347">
        <ele>568</ele>
        <time>2019-06-04T07:05:26Z</time>
      </trkpt>
      <trkpt lat="44.30097" lon="5.82348">
        <ele>569</ele>
        <time>2019-06-04T07:05:27Z</time>
      </trkpt>
      <trkpt lat="44.30091" lon="5.82347">
        <ele>569</ele>
        <time>2019-06-04T07:05:28Z</time>
      </trkpt>
      <trkpt lat="44.30086" lon="5.82347">
        <ele>569</ele>
        <time>2019-06-04T07:05:29Z</time>
      </trkpt>
      <trkpt lat="44.3008" lon="5.82347">
        <ele>569</ele>
        <time>2019-06-04T07:05:30Z</time>
      </trkpt>
      <trkpt lat="44.30074" lon="5.82346">
        <ele>570</ele>
        <time>2019-06-04T07:05:31Z</time>
      </trkpt>
      <trkpt lat="44.30069" lon="5.82346">
        <ele>570</ele>
        <time>2019-06-04T07:05:32Z</time>
      </trkpt>
      <trkpt lat="44.30063" lon="5.82345">
        <ele>570</ele>
        <time>2019-06-04T07:05:33Z</time>
      </trkpt>
      <trkpt lat="44.30058" lon="5.82344">
        <ele>570</ele>
        <time>2019-06-04T07:05:34Z</time>
      </trkpt>
      <trkpt lat="44.30052" lon="5.82344">
        <ele>570</ele>
        <time>2019-06-04T07:05:35Z</time>
      </trkpt>
      <trkpt lat="44.30046" lon="5.82343">
        <ele>570</ele>
        <time>2019-06-04T07:05:36Z</time>
      </trkpt>
      <trkpt lat="44.30041" lon="5.82342">
        <ele>570</ele>
        <time>2019-06-04T07:05:37Z</time>
      </trkpt>
      <trkpt lat="44.30035" lon="5.82341">
        <ele>570</ele>
        <time>2019-06-04T07:05:38Z</time>
      </trkpt>
      <trkpt lat="44.30029" lon="5.8234">
        <ele>570</ele>
        <time>2019-06-04T07:05:40Z</time>
      </trkpt>
      <trkpt lat="44.30024" lon="5.82338">
        <ele>570</ele>
        <time>2019-06-04T07:05:40Z</time>
      </trkpt>
      <trkpt lat="44.30018" lon="5.82337">
        <ele>570</ele>
        <time>2019-06-04T07:05:41Z</time>
      </trkpt>
      <trkpt lat="44.30012" lon="5.82336">
        <ele>570</ele>
        <time>2019-06-04T07:05:42Z</time>
      </trkpt>
      <trkpt lat="44.30006" lon="5.82334">
        <ele>570</ele>
        <time>2019-06-04T07:05:43Z</time>
      </trkpt>
      <trkpt lat="44.30001" lon="5.82333">
        <ele>570</ele>
        <time>2019-06-04T07:05:44Z</time>
      </trkpt>
      <trkpt lat="44.29995" lon="5.82331">
        <ele>570</ele>
        <time>2019-06-04T07:05:45Z</time>
      </trkpt>
      <trkpt lat="44.29989" lon="5.8233">
        <ele>570</ele>
        <time>2019-06-04T07:05:46Z</time>
      </trkpt>
      <trkpt lat="44.29983" lon="5.82328">
        <ele>570</ele>
        <time>2019-06-04T07:05:47Z</time>
      </trkpt>
      <trkpt lat="44.29977" lon="5.82326">
        <ele>570</ele>
        <time>2019-06-04T07:05:48Z</time>
      </trkpt>
      <trkpt lat="44.29972" lon="5.82323">
        <ele>570</ele>
        <time>2019-06-04T07:05:49Z</time>
      </trkpt>
      <trkpt lat="44.29966" lon="5.82321">
        <ele>570</ele>
        <time>2019-06-04T07:05:50Z</time>
      </trkpt>
      <trkpt lat="44.2996" lon="5.82319">
        <ele>570</ele>
        <time>2019-06-04T07:05:51Z</time>
      </trkpt>
      <trkpt lat="44.29954" lon="5.82317">
        <ele>570</ele>
        <time>2019-06-04T07:05:52Z</time>
      </trkpt>
      <trkpt lat="44.29948" lon="5.82315">
        <ele>570</ele>
        <time>2019-06-04T07:05:53Z</time>
      </trkpt>
      <trkpt lat="44.29942" lon="5.82312">
        <ele>570</ele>
        <time>2019-06-04T07:05:54Z</time>
      </trkpt>
      <trkpt lat="44.29937" lon="5.8231">
        <ele>570</ele>
        <time>2019-06-04T07:05:55Z</time>
      </trkpt>
      <trkpt lat="44.29931" lon="5.82307">
        <ele>570</ele>
        <time>2019-06-04T07:05:56Z</time>
      </trkpt>
      <trkpt lat="44.29925" lon="5.82304">
        <ele>570</ele>
        <time>2019-06-04T07:05:57Z</time>
      </trkpt>
      <trkpt lat="44.2992" lon="5.82301">
        <ele>570</ele>
        <time>2019-06-04T07:05:58Z</time>
      </trkpt>
      <trkpt lat="44.29914" lon="5.82298">
        <ele>570</ele>
        <time>2019-06-04T07:05:59Z</time>
      </trkpt>
      <trkpt lat="44.29908" lon="5.82295">
        <ele>570</ele>
        <time>2019-06-04T07:06:00Z</time>
      </trkpt>
      <trkpt lat="44.29903" lon="5.82292">
        <ele>570</ele>
        <time>2019-06-04T07:06:01Z</time>
      </trkpt>
      <trkpt lat="44.29897" lon="5.82288">
        <ele>570</ele>
        <time>2019-06-04T07:06:02Z</time>
      </trkpt>
      <trkpt lat="44.29892" lon="5.82285">
        <ele>570</ele>
        <time>2019-06-04T07:06:03Z</time>
      </trkpt>
      <trkpt lat="44.29886" lon="5.82282">
        <ele>570</ele>
        <time>2019-06-04T07:06:04Z</time>
      </trkpt>
      <trkpt lat="44.2988" lon="5.82278">
        <ele>570</ele>
        <time>2019-06-04T07:06:05Z</time>
      </trkpt>
      <trkpt lat="44.29875" lon="5.82275">
        <ele>570</ele>
        <time>2019-06-04T07:06:06Z</time>
      </trkpt>
      <trkpt lat="44.2987" lon="5.82272">
        <ele>570</ele>
        <time>2019-06-04T07:06:07Z</time>
      </trkpt>
      <trkpt lat="44.29864" lon="5.8227">
        <ele>570</ele>
        <time>2019-06-04T07:06:08Z</time>
      </trkpt>
      <trkpt lat="44.29858" lon="5.82267">
        <ele>570</ele>
        <time>2019-06-04T07:06:09Z</time>
      </trkpt>
      <trkpt lat="44.29853" lon="5.82265">
        <ele>570</ele>
        <time>2019-06-04T07:06:10Z</time>
      </trkpt>
      <trkpt lat="44.29847" lon="5.82263">
        <ele>570</ele>
        <time>2019-06-04T07:06:11Z</time>
      </trkpt>
      <trkpt lat="44.29842" lon="5.82261">
        <ele>570</ele>
        <time>2019-06-04T07:06:12Z</time>
      </trkpt>
      <trkpt lat="44.29836" lon="5.82259">
        <ele>570</ele>
        <time>2019-06-04T07:06:13Z</time>
      </trkpt>
      <trkpt lat="44.2983" lon="5.82258">
        <ele>570</ele>
        <time>2019-06-04T07:06:14Z</time>
      </trkpt>
      <trkpt lat="44.29824" lon="5.82256">
        <ele>570</ele>
        <time>2019-06-04T07:06:15Z</time>
      </trkpt>
      <trkpt lat="44.29818" lon="5.82255">
        <ele>570</ele>
        <time>2019-06-04T07:06:16Z</time>
      </trkpt>
      <trkpt lat="44.29813" lon="5.82254">
        <ele>570</ele>
        <time>2019-06-04T07:06:17Z</time>
      </trkpt>
      <trkpt lat="44.29807" lon="5.82253">
        <ele>570</ele>
        <time>2019-06-04T07:06:18Z</time>
      </trkpt>
      <trkpt lat="44.29802" lon="5.82252">
        <ele>570</ele>
        <time>2019-06-04T07:06:19Z</time>
      </trkpt>
      <trkpt lat="44.29796" lon="5.82251">
        <ele>570</ele>
        <time>2019-06-04T07:06:20Z</time>
      </trkpt>
      <trkpt lat="44.29791" lon="5.8225">
        <ele>570</ele>
        <time>2019-06-04T07:06:21Z</time>
      </trkpt>
      <trkpt lat="44.29785" lon="5.82249">
        <ele>570</ele>
        <time>2019-06-04T07:06:22Z</time>
      </trkpt>
      <trkpt lat="44.2978" lon="5.82248">
        <ele>570</ele>
        <time>2019-06-04T07:06:23Z</time>
      </trkpt>
      <trkpt lat="44.29774" lon="5.82247">
        <ele>570</ele>
        <time>2019-06-04T07:06:24Z</time>
      </trkpt>
      <trkpt lat="44.29769" lon="5.82246">
        <ele>570</ele>
        <time>2019-06-04T07:06:25Z</time>
      </trkpt>
      <trkpt lat="44.29763" lon="5.82244">
        <ele>570</ele>
        <time>2019-06-04T07:06:26Z</time>
      </trkpt>
      <trkpt lat="44.29758" lon="5.82242">
        <ele>570</ele>
        <time>2019-06-04T07:06:27Z</time>
      </trkpt>
      <trkpt lat="44.29752" lon="5.82241">
        <ele>570</ele>
        <time>2019-06-04T07:06:28Z</time>
      </trkpt>
      <trkpt lat="44.29747" lon="5.82239">
        <ele>570</ele>
        <time>2019-06-04T07:06:29Z</time>
      </trkpt>
      <trkpt lat="44.29742" lon="5.82237">
        <ele>570</ele>
        <time>2019-06-04T07:06:30Z</time>
      </trkpt>
      <trkpt lat="44.29736" lon="5.82234">
        <ele>570</ele>
        <time>2019-06-04T07:06:31Z</time>
      </trkpt>
      <trkpt lat="44.29731" lon="5.82232">
        <ele>570</ele>
        <time>2019-06-04T07:06:32Z</time>
      </trkpt>
      <trkpt lat="44.29726" lon="5.82229">
        <ele>570</ele>
        <time>2019-06-04T07:06:33Z</time>
      </trkpt>
      <trkpt lat="44.29721" lon="5.82226">
        <ele>570</ele>
        <time>2019-06-04T07:06:34Z</time>
      </trkpt>
      <trkpt lat="44.29715" lon="5.82223">
        <ele>570</ele>
        <time>2019-06-04T07:06:35Z</time>
      </trkpt>
      <trkpt lat="44.2971" lon="5.82219">
        <ele>570</ele>
        <time>2019-06-04T07:06:36Z</time>
      </trkpt>
      <trkpt lat="44.29705" lon="5.82216">
        <ele>570</ele>
        <time>2019-06-04T07:06:37Z</time>
      </trkpt>
      <trkpt lat="44.297" lon="5.82212">
        <ele>570</ele>
        <time>2019-06-04T07:06:38Z</time>
      </trkpt>
      <trkpt lat="44.29695" lon="5.82207">
        <ele>570</ele>
        <time>2019-06-04T07:06:39Z</time>
      </trkpt>
      <trkpt lat="44.2969" lon="5.82203">
        <ele>570</ele>
        <time>2019-06-04T07:06:40Z</time>
      </trkpt>
      <trkpt lat="44.29685" lon="5.82198">
        <ele>569</ele>
        <time>2019-06-04T07:06:41Z</time>
      </trkpt>
      <trkpt lat="44.2968" lon="5.82194">
        <ele>569</ele>
        <time>2019-06-04T07:06:42Z</time>
      </trkpt>
      <trkpt lat="44.29676" lon="5.82189">
        <ele>569</ele>
        <time>2019-06-04T07:06:43Z</time>
      </trkpt>
      <trkpt lat="44.29671" lon="5.82184">
        <ele>569</ele>
        <time>2019-06-04T07:06:44Z</time>
      </trkpt>
      <trkpt lat="44.29666" lon="5.82179">
        <ele>569</ele>
        <time>2019-06-04T07:06:45Z</time>
      </trkpt>
      <trkpt lat="44.29662" lon="5.82174">
        <ele>569</ele>
        <time>2019-06-04T07:06:46Z</time>
      </trkpt>
      <trkpt lat="44.29657" lon="5.82168">
        <ele>569</ele>
        <time>2019-06-04T07:06:47Z</time>
      </trkpt>
      <trkpt lat="44.29653" lon="5.82164">
        <ele>569</ele>
        <time>2019-06-04T07:06:48Z</time>
      </trkpt>
      <trkpt lat="44.29648" lon="5.82159">
        <ele>569</ele>
        <time>2019-06-04T07:06:49Z</time>
      </trkpt>
      <trkpt lat="44.29644" lon="5.82154">
        <ele>568</ele>
        <time>2019-06-04T07:06:50Z</time>
      </trkpt>
      <trkpt lat="44.29639" lon="5.8215">
        <ele>568</ele>
        <time>2019-06-04T07:06:51Z</time>
      </trkpt>
      <trkpt lat="44.29634" lon="5.82146">
        <ele>568</ele>
        <time>2019-06-04T07:06:52Z</time>
      </trkpt>
      <trkpt lat="44.29629" lon="5.82142">
        <ele>568</ele>
        <time>2019-06-04T07:06:53Z</time>
      </trkpt>
      <trkpt lat="44.29624" lon="5.82138">
        <ele>568</ele>
        <time>2019-06-04T07:06:54Z</time>
      </trkpt>
      <trkpt lat="44.29619" lon="5.82135">
        <ele>568</ele>
        <time>2019-06-04T07:06:55Z</time>
      </trkpt>
      <trkpt lat="44.29614" lon="5.82131">
        <ele>568</ele>
        <time>2019-06-04T07:06:56Z</time>
      </trkpt>
      <trkpt lat="44.29609" lon="5.82128">
        <ele>568</ele>
        <time>2019-06-04T07:06:58Z</time>
      </trkpt>
      <trkpt lat="44.29604" lon="5.82125">
        <ele>568</ele>
        <time>2019-06-04T07:06:58Z</time>
      </trkpt>
      <trkpt lat="44.29599" lon="5.82122">
        <ele>568</ele>
        <time>2019-06-04T07:06:59Z</time>
      </trkpt>
      <trkpt lat="44.29594" lon="5.8212">
        <ele>568</ele>
        <time>2019-06-04T07:07:00Z</time>
      </trkpt>
      <trkpt lat="44.29589" lon="5.82118">
        <ele>568</ele>
        <time>2019-06-04T07:07:01Z</time>
      </trkpt>
      <trkpt lat="44.29584" lon="5.82116">
        <ele>568</ele>
        <time>2019-06-04T07:07:02Z</time>
      </trkpt>
      <trkpt lat="44.29579" lon="5.82114">
        <ele>568</ele>
        <time>2019-06-04T07:07:03Z</time>
      </trkpt>
      <trkpt lat="44.29573" lon="5.82112">
        <ele>568</ele>
        <time>2019-06-04T07:07:04Z</time>
      </trkpt>
      <trkpt lat="44.29568" lon="5.8211">
        <ele>568</ele>
        <time>2019-06-04T07:07:05Z</time>
      </trkpt>
      <trkpt lat="44.29563" lon="5.82108">
        <ele>568</ele>
        <time>2019-06-04T07:07:06Z</time>
      </trkpt>
      <trkpt lat="44.29558" lon="5.82107">
        <ele>568</ele>
        <time>2019-06-04T07:07:07Z</time>
      </trkpt>
      <trkpt lat="44.29553" lon="5.82106">
        <ele>568</ele>
        <time>2019-06-04T07:07:08Z</time>
      </trkpt>
      <trkpt lat="44.29548" lon="5.82105">
        <ele>568</ele>
        <time>2019-06-04T07:07:09Z</time>
      </trkpt>
      <trkpt lat="44.29542" lon="5.82104">
        <ele>568</ele>
        <time>2019-06-04T07:07:10Z</time>
      </trkpt>
      <trkpt lat="44.29537" lon="5.82103">
        <ele>568</ele>
        <time>2019-06-04T07:07:11Z</time>
      </trkpt>
      <trkpt lat="44.29532" lon="5.82102">
        <ele>568</ele>
        <time>2019-06-04T07:07:12Z</time>
      </trkpt>
      <trkpt lat="44.29527" lon="5.82101">
        <ele>568</ele>
        <time>2019-06-04T07:07:13Z</time>
      </trkpt>
      <trkpt lat="44.29522" lon="5.82101">
        <ele>568</ele>
        <time>2019-06-04T07:07:14Z</time>
      </trkpt>
      <trkpt lat="44.29517" lon="5.821">
        <ele>568</ele>
        <time>2019-06-04T07:07:15Z</time>
      </trkpt>
      <trkpt lat="44.29512" lon="5.821">
        <ele>568</ele>
        <time>2019-06-04T07:07:16Z</time>
      </trkpt>
      <trkpt lat="44.29507" lon="5.82099">
        <ele>568</ele>
        <time>2019-06-04T07:07:17Z</time>
      </trkpt>
      <trkpt lat="44.29501" lon="5.82099">
        <ele>568</ele>
        <time>2019-06-04T07:07:18Z</time>
      </trkpt>
      <trkpt lat="44.29496" lon="5.82099">
        <ele>568</ele>
        <time>2019-06-04T07:07:19Z</time>
      </trkpt>
      <trkpt lat="44.29491" lon="5.82099">
        <ele>568</ele>
        <time>2019-06-04T07:07:20Z</time>
      </trkpt>
      <trkpt lat="44.29485" lon="5.821">
        <ele>568</ele>
        <time>2019-06-04T07:07:21Z</time>
      </trkpt>
      <trkpt lat="44.2948" lon="5.82101">
        <ele>568</ele>
        <time>2019-06-04T07:07:22Z</time>
      </trkpt>
      <trkpt lat="44.29475" lon="5.82103">
        <ele>568</ele>
        <time>2019-06-04T07:07:23Z</time>
      </trkpt>
      <trkpt lat="44.29469" lon="5.82105">
        <ele>568</ele>
        <time>2019-06-04T07:07:24Z</time>
      </trkpt>
      <trkpt lat="44.29464" lon="5.82108">
        <ele>568</ele>
        <time>2019-06-04T07:07:25Z</time>
      </trkpt>
      <trkpt lat="44.29459" lon="5.82111">
        <ele>568</ele>
        <time>2019-06-04T07:07:26Z</time>
      </trkpt>
      <trkpt lat="44.29453" lon="5.82114">
        <ele>568</ele>
        <time>2019-06-04T07:07:27Z</time>
      </trkpt>
      <trkpt lat="44.29448" lon="5.82118">
        <ele>568</ele>
        <time>2019-06-04T07:07:28Z</time>
      </trkpt>
      <trkpt lat="44.29443" lon="5.82122">
        <ele>568</ele>
        <time>2019-06-04T07:07:29Z</time>
      </trkpt>
      <trkpt lat="44.29438" lon="5.82126">
        <ele>568</ele>
        <time>2019-06-04T07:07:30Z</time>
      </trkpt>
      <trkpt lat="44.29433" lon="5.82131">
        <ele>568</ele>
        <time>2019-06-04T07:07:31Z</time>
      </trkpt>
      <trkpt lat="44.29429" lon="5.82135">
        <ele>568</ele>
        <time>2019-06-04T07:07:32Z</time>
      </trkpt>
      <trkpt lat="44.29424" lon="5.8214">
        <ele>568</ele>
        <time>2019-06-04T07:07:33Z</time>
      </trkpt>
      <trkpt lat="44.2942" lon="5.82145">
        <ele>568</ele>
        <time>2019-06-04T07:07:34Z</time>
      </trkpt>
      <trkpt lat="44.29415" lon="5.8215">
        <ele>568</ele>
        <time>2019-06-04T07:07:35Z</time>
      </trkpt>
      <trkpt lat="44.29411" lon="5.82155">
        <ele>568</ele>
        <time>2019-06-04T07:07:36Z</time>
      </trkpt>
      <trkpt lat="44.29407" lon="5.82158">
        <ele>568</ele>
        <time>2019-06-04T07:07:37Z</time>
      </trkpt>
      <trkpt lat="44.29403" lon="5.82163">
        <ele>568</ele>
        <time>2019-06-04T07:07:38Z</time>
      </trkpt>
      <trkpt lat="44.29399" lon="5.82167">
        <ele>568</ele>
        <time>2019-06-04T07:07:39Z</time>
      </trkpt>
      <trkpt lat="44.29395" lon="5.82172">
        <ele>568</ele>
        <time>2019-06-04T07:07:40Z</time>
      </trkpt>
      <trkpt lat="44.29391" lon="5.82176">
        <ele>568</ele>
        <time>2019-06-04T07:07:41Z</time>
      </trkpt>
      <trkpt lat="44.29387" lon="5.82182">
        <ele>568</ele>
        <time>2019-06-04T07:07:42Z</time>
      </trkpt>
      <trkpt lat="44.29383" lon="5.82185">
        <ele>568</ele>
        <time>2019-06-04T07:07:43Z</time>
      </trkpt>
      <trkpt lat="44.29379" lon="5.82189">
        <ele>568</ele>
        <time>2019-06-04T07:07:44Z</time>
      </trkpt>
      <trkpt lat="44.29375" lon="5.82193">
        <ele>568</ele>
        <time>2019-06-04T07:07:45Z</time>
      </trkpt>
      <trkpt lat="44.29371" lon="5.82197">
        <ele>568</ele>
        <time>2019-06-04T07:07:46Z</time>
      </trkpt>
      <trkpt lat="44.29367" lon="5.82201">
        <ele>568</ele>
        <time>2019-06-04T07:07:47Z</time>
      </trkpt>
      <trkpt lat="44.29362" lon="5.82205">
        <ele>568</ele>
        <time>2019-06-04T07:07:48Z</time>
      </trkpt>
      <trkpt lat="44.29358" lon="5.82209">
        <ele>568</ele>
        <time>2019-06-04T07:07:49Z</time>
      </trkpt>
      <trkpt lat="44.29353" lon="5.82211">
        <ele>568</ele>
        <time>2019-06-04T07:07:50Z</time>
      </trkpt>
      <trkpt lat="44.29348" lon="5.82213">
        <ele>568</ele>
        <time>2019-06-04T07:07:51Z</time>
      </trkpt>
      <trkpt lat="44.29343" lon="5.82216">
        <ele>568</ele>
        <time>2019-06-04T07:07:52Z</time>
      </trkpt>
      <trkpt lat="44.29338" lon="5.82218">
        <ele>568</ele>
        <time>2019-06-04T07:07:53Z</time>
      </trkpt>
      <trkpt lat="44.29332" lon="5.8222">
        <ele>568</ele>
        <time>2019-06-04T07:07:54Z</time>
      </trkpt>
      <trkpt lat="44.29327" lon="5.82223">
        <ele>568</ele>
        <time>2019-06-04T07:07:55Z</time>
      </trkpt>
      <trkpt lat="44.29322" lon="5.82225">
        <ele>568</ele>
        <time>2019-06-04T07:07:56Z</time>
      </trkpt>
      <trkpt lat="44.29316" lon="5.82227">
        <ele>568</ele>
        <time>2019-06-04T07:07:58Z</time>
      </trkpt>
      <trkpt lat="44.2931" lon="5.82229">
        <ele>568</ele>
        <time>2019-06-04T07:07:58Z</time>
      </trkpt>
      <trkpt lat="44.29304" lon="5.82232">
        <ele>568</ele>
        <time>2019-06-04T07:07:59Z</time>
      </trkpt>
      <trkpt lat="44.29299" lon="5.82235">
        <ele>568</ele>
        <time>2019-06-04T07:08:00Z</time>
      </trkpt>
      <trkpt lat="44.29293" lon="5.82237">
        <ele>568</ele>
        <time>2019-06-04T07:08:01Z</time>
      </trkpt>
      <trkpt lat="44.29287" lon="5.8224">
        <ele>568</ele>
        <time>2019-06-04T07:08:02Z</time>
      </trkpt>
      <trkpt lat="44.29281" lon="5.82242">
        <ele>568</ele>
        <time>2019-06-04T07:08:03Z</time>
      </trkpt>
      <trkpt lat="44.29275" lon="5.82245">
        <ele>568</ele>
        <time>2019-06-04T07:08:04Z</time>
      </trkpt>
      <trkpt lat="44.29269" lon="5.82247">
        <ele>568</ele>
        <time>2019-06-04T07:08:05Z</time>
      </trkpt>
      <trkpt lat="44.29263" lon="5.82249">
        <ele>568</ele>
        <time>2019-06-04T07:08:06Z</time>
      </trkpt>
      <trkpt lat="44.29257" lon="5.8225">
        <ele>568</ele>
        <time>2019-06-04T07:08:07Z</time>
      </trkpt>
      <trkpt lat="44.29251" lon="5.82252">
        <ele>568</ele>
        <time>2019-06-04T07:08:08Z</time>
      </trkpt>
      <trkpt lat="44.29245" lon="5.82253">
        <ele>568</ele>
        <time>2019-06-04T07:08:09Z</time>
      </trkpt>
      <trkpt lat="44.29239" lon="5.82254">
        <ele>568</ele>
        <time>2019-06-04T07:08:10Z</time>
      </trkpt>
      <trkpt lat="44.29232" lon="5.82255">
        <ele>568</ele>
        <time>2019-06-04T07:08:11Z</time>
      </trkpt>
      <trkpt lat="44.29226" lon="5.82255">
        <ele>568</ele>
        <time>2019-06-04T07:08:12Z</time>
      </trkpt>
      <trkpt lat="44.2922" lon="5.82257">
        <ele>568</ele>
        <time>2019-06-04T07:08:13Z</time>
      </trkpt>
      <trkpt lat="44.29213" lon="5.82258">
        <ele>568</ele>
        <time>2019-06-04T07:08:14Z</time>
      </trkpt>
      <trkpt lat="44.29207" lon="5.82258">
        <ele>568</ele>
        <time>2019-06-04T07:08:15Z</time>
      </trkpt>
      <trkpt lat="44.29201" lon="5.8226">
        <ele>568</ele>
        <time>2019-06-04T07:08:16Z</time>
      </trkpt>
      <trkpt lat="44.29195" lon="5.82261">
        <ele>568</ele>
        <time>2019-06-04T07:08:17Z</time>
      </trkpt>
      <trkpt lat="44.29189" lon="5.82261">
        <ele>568</ele>
        <time>2019-06-04T07:08:18Z</time>
      </trkpt>
      <trkpt lat="44.29183" lon="5.82262">
        <ele>568</ele>
        <time>2019-06-04T07:08:19Z</time>
      </trkpt>
      <trkpt lat="44.29177" lon="5.82263">
        <ele>568</ele>
        <time>2019-06-04T07:08:20Z</time>
      </trkpt>
      <trkpt lat="44.29171" lon="5.82263">
        <ele>568</ele>
        <time>2019-06-04T07:08:21Z</time>
      </trkpt>
      <trkpt lat="44.29165" lon="5.82264">
        <ele>568</ele>
        <time>2019-06-04T07:08:22Z</time>
      </trkpt>
      <trkpt lat="44.29159" lon="5.82264">
        <ele>568</ele>
        <time>2019-06-04T07:08:23Z</time>
      </trkpt>
      <trkpt lat="44.29153" lon="5.82265">
        <ele>568</ele>
        <time>2019-06-04T07:08:24Z</time>
      </trkpt>
      <trkpt lat="44.29147" lon="5.82265">
        <ele>568</ele>
        <time>2019-06-04T07:08:25Z</time>
      </trkpt>
      <trkpt lat="44.29141" lon="5.82266">
        <ele>568</ele>
        <time>2019-06-04T07:08:26Z</time>
      </trkpt>
      <trkpt lat="44.29135" lon="5.82267">
        <ele>568</ele>
        <time>2019-06-04T07:08:27Z</time>
      </trkpt>
      <trkpt lat="44.29129" lon="5.82268">
        <ele>568</ele>
        <time>2019-06-04T07:08:28Z</time>
      </trkpt>
      <trkpt lat="44.29123" lon="5.82269">
        <ele>568</ele>
        <time>2019-06-04T07:08:29Z</time>
      </trkpt>
      <trkpt lat="44.29117" lon="5.8227">
        <ele>568</ele>
        <time>2019-06-04T07:08:30Z</time>
      </trkpt>
      <trkpt lat="44.29111" lon="5.82271">
        <ele>568</ele>
        <time>2019-06-04T07:08:31Z</time>
      </trkpt>
      <trkpt lat="44.29105" lon="5.82271">
        <ele>568</ele>
        <time>2019-06-04T07:08:32Z</time>
      </trkpt>
      <trkpt lat="44.29099" lon="5.82272">
        <ele>568</ele>
        <time>2019-06-04T07:08:33Z</time>
      </trkpt>
      <trkpt lat="44.29093" lon="5.82273">
        <ele>568</ele>
        <time>2019-06-04T07:08:34Z</time>
      </trkpt>
      <trkpt lat="44.29087" lon="5.82274">
        <ele>568</ele>
        <time>2019-06-04T07:08:35Z</time>
      </trkpt>
      <trkpt lat="44.29081" lon="5.82275">
        <ele>568</ele>
        <time>2019-06-04T07:08:36Z</time>
      </trkpt>
      <trkpt lat="44.29076" lon="5.82275">
        <ele>568</ele>
        <time>2019-06-04T07:08:37Z</time>
      </trkpt>
      <trkpt lat="44.2907" lon="5.82276">
        <ele>568</ele>
        <time>2019-06-04T07:08:38Z</time>
      </trkpt>
      <trkpt lat="44.29064" lon="5.82276">
        <ele>568</ele>
        <time>2019-06-04T07:08:39Z</time>
      </trkpt>
      <trkpt lat="44.29059" lon="5.82277">
        <ele>568</ele>
        <time>2019-06-04T07:08:40Z</time>
      </trkpt>
      <trkpt lat="44.29053" lon="5.82277">
        <ele>568</ele>
        <time>2019-06-04T07:08:41Z</time>
      </trkpt>
      <trkpt lat="44.29048" lon="5.82277">
        <ele>568</ele>
        <time>2019-06-04T07:08:42Z</time>
      </trkpt>
      <trkpt lat="44.29043" lon="5.82278">
        <ele>568</ele>
        <time>2019-06-04T07:08:43Z</time>
      </trkpt>
      <trkpt lat="44.29037" lon="5.82278">
        <ele>568</ele>
        <time>2019-06-04T07:08:44Z</time>
      </trkpt>
      <trkpt lat="44.29032" lon="5.82279">
        <ele>568</ele>
        <time>2019-06-04T07:08:45Z</time>
      </trkpt>
      <trkpt lat="44.29027" lon="5.82279">
        <ele>568</ele>
        <time>2019-06-04T07:08:46Z</time>
      </trkpt>
      <trkpt lat="44.29022" lon="5.82279">
        <ele>568</ele>
        <time>2019-06-04T07:08:47Z</time>
      </trkpt>
      <trkpt lat="44.29017" lon="5.8228">
        <ele>568</ele>
        <time>2019-06-04T07:08:48Z</time>
      </trkpt>
      <trkpt lat="44.29012" lon="5.8228">
        <ele>568</ele>
        <time>2019-06-04T07:08:49Z</time>
      </trkpt>
      <trkpt lat="44.29007" lon="5.82281">
        <ele>568</ele>
        <time>2019-06-04T07:08:50Z</time>
      </trkpt>
      <trkpt lat="44.29002" lon="5.82281">
        <ele>568</ele>
        <time>2019-06-04T07:08:51Z</time>
      </trkpt>
      <trkpt lat="44.28997" lon="5.82281">
        <ele>568</ele>
        <time>2019-06-04T07:08:52Z</time>
      </trkpt>
      <trkpt lat="44.28992" lon="5.82282">
        <ele>568</ele>
        <time>2019-06-04T07:08:53Z</time>
      </trkpt>
      <trkpt lat="44.28987" lon="5.82282">
        <ele>568</ele>
        <time>2019-06-04T07:08:54Z</time>
      </trkpt>
      <trkpt lat="44.28982" lon="5.82283">
        <ele>568</ele>
        <time>2019-06-04T07:08:55Z</time>
      </trkpt>
      <trkpt lat="44.28977" lon="5.82283">
        <ele>568</ele>
        <time>2019-06-04T07:08:56Z</time>
      </trkpt>
      <trkpt lat="44.28972" lon="5.82283">
        <ele>568</ele>
        <time>2019-06-04T07:08:57Z</time>
      </trkpt>
      <trkpt lat="44.28967" lon="5.82283">
        <ele>568</ele>
        <time>2019-06-04T07:08:58Z</time>
      </trkpt>
      <trkpt lat="44.28963" lon="5.82284">
        <ele>568</ele>
        <time>2019-06-04T07:08:59Z</time>
      </trkpt>
      <trkpt lat="44.28958" lon="5.82284">
        <ele>568</ele>
        <time>2019-06-04T07:09:00Z</time>
      </trkpt>
      <trkpt lat="44.28953" lon="5.82284">
        <ele>568</ele>
        <time>2019-06-04T07:09:01Z</time>
      </trkpt>
      <trkpt lat="44.28948" lon="5.82284">
        <ele>568</ele>
        <time>2019-06-04T07:09:02Z</time>
      </trkpt>
      <trkpt lat="44.28944" lon="5.82285">
        <ele>568</ele>
        <time>2019-06-04T07:09:03Z</time>
      </trkpt>
      <trkpt lat="44.28939" lon="5.82285">
        <ele>568</ele>
        <time>2019-06-04T07:09:04Z</time>
      </trkpt>
      <trkpt lat="44.28934" lon="5.82285">
        <ele>568</ele>
        <time>2019-06-04T07:09:05Z</time>
      </trkpt>
      <trkpt lat="44.28929" lon="5.82285">
        <ele>568</ele>
        <time>2019-06-04T07:09:06Z</time>
      </trkpt>
      <trkpt lat="44.28924" lon="5.82285">
        <ele>569</ele>
        <time>2019-06-04T07:09:07Z</time>
      </trkpt>
      <trkpt lat="44.28919" lon="5.82284">
        <ele>569</ele>
        <time>2019-06-04T07:09:08Z</time>
      </trkpt>
      <trkpt lat="44.28915" lon="5.82283">
        <ele>569</ele>
        <time>2019-06-04T07:09:09Z</time>
      </trkpt>
      <trkpt lat="44.2891" lon="5.82282">
        <ele>569</ele>
        <time>2019-06-04T07:09:10Z</time>
      </trkpt>
      <trkpt lat="44.28905" lon="5.8228">
        <ele>569</ele>
        <time>2019-06-04T07:09:11Z</time>
      </trkpt>
      <trkpt lat="44.28901" lon="5.82278">
        <ele>569</ele>
        <time>2019-06-04T07:09:12Z</time>
      </trkpt>
      <trkpt lat="44.28897" lon="5.82276">
        <ele>569</ele>
        <time>2019-06-04T07:09:13Z</time>
      </trkpt>
      <trkpt lat="44.28892" lon="5.82273">
        <ele>569</ele>
        <time>2019-06-04T07:09:14Z</time>
      </trkpt>
      <trkpt lat="44.28888" lon="5.8227">
        <ele>570</ele>
        <time>2019-06-04T07:09:15Z</time>
      </trkpt>
      <trkpt lat="44.28883" lon="5.82268">
        <ele>570</ele>
        <time>2019-06-04T07:09:16Z</time>
      </trkpt>
      <trkpt lat="44.28879" lon="5.82264">
        <ele>570</ele>
        <time>2019-06-04T07:09:17Z</time>
      </trkpt>
      <trkpt lat="44.28874" lon="5.82261">
        <ele>570</ele>
        <time>2019-06-04T07:09:18Z</time>
      </trkpt>
      <trkpt lat="44.2887" lon="5.82257">
        <ele>570</ele>
        <time>2019-06-04T07:09:19Z</time>
      </trkpt>
      <trkpt lat="44.28865" lon="5.82253">
        <ele>570</ele>
        <time>2019-06-04T07:09:20Z</time>
      </trkpt>
      <trkpt lat="44.28861" lon="5.82249">
        <ele>571</ele>
        <time>2019-06-04T07:09:21Z</time>
      </trkpt>
      <trkpt lat="44.28856" lon="5.82244">
        <ele>571</ele>
        <time>2019-06-04T07:09:22Z</time>
      </trkpt>
      <trkpt lat="44.28852" lon="5.8224">
        <ele>571</ele>
        <time>2019-06-04T07:09:23Z</time>
      </trkpt>
      <trkpt lat="44.28848" lon="5.82236">
        <ele>572</ele>
        <time>2019-06-04T07:09:24Z</time>
      </trkpt>
      <trkpt lat="44.28843" lon="5.82231">
        <ele>572</ele>
        <time>2019-06-04T07:09:25Z</time>
      </trkpt>
      <trkpt lat="44.28838" lon="5.82226">
        <ele>572</ele>
        <time>2019-06-04T07:09:26Z</time>
      </trkpt>
      <trkpt lat="44.28834" lon="5.82222">
        <ele>572</ele>
        <time>2019-06-04T07:09:27Z</time>
      </trkpt>
      <trkpt lat="44.2883" lon="5.82218">
        <ele>572</ele>
        <time>2019-06-04T07:09:28Z</time>
      </trkpt>
      <trkpt lat="44.28825" lon="5.82213">
        <ele>572</ele>
        <time>2019-06-04T07:09:29Z</time>
      </trkpt>
      <trkpt lat="44.2882" lon="5.8221">
        <ele>572</ele>
        <time>2019-06-04T07:09:30Z</time>
      </trkpt>
      <trkpt lat="44.28815" lon="5.82206">
        <ele>572</ele>
        <time>2019-06-04T07:09:31Z</time>
      </trkpt>
      <trkpt lat="44.2881" lon="5.82202">
        <ele>572</ele>
        <time>2019-06-04T07:09:32Z</time>
      </trkpt>
      <trkpt lat="44.28805" lon="5.82198">
        <ele>572</ele>
        <time>2019-06-04T07:09:33Z</time>
      </trkpt>
      <trkpt lat="44.28799" lon="5.82194">
        <ele>572</ele>
        <time>2019-06-04T07:09:34Z</time>
      </trkpt>
      <trkpt lat="44.28794" lon="5.8219">
        <ele>572</ele>
        <time>2019-06-04T07:09:35Z</time>
      </trkpt>
      <trkpt lat="44.28788" lon="5.82186">
        <ele>572</ele>
        <time>2019-06-04T07:09:36Z</time>
      </trkpt>
      <trkpt lat="44.28782" lon="5.82182">
        <ele>572</ele>
        <time>2019-06-04T07:09:37Z</time>
      </trkpt>
      <trkpt lat="44.28777" lon="5.82178">
        <ele>572</ele>
        <time>2019-06-04T07:09:38Z</time>
      </trkpt>
      <trkpt lat="44.28771" lon="5.82174">
        <ele>572</ele>
        <time>2019-06-04T07:09:39Z</time>
      </trkpt>
      <trkpt lat="44.28765" lon="5.8217">
        <ele>572</ele>
        <time>2019-06-04T07:09:40Z</time>
      </trkpt>
      <trkpt lat="44.28759" lon="5.82166">
        <ele>572</ele>
        <time>2019-06-04T07:09:41Z</time>
      </trkpt>
      <trkpt lat="44.28753" lon="5.82163">
        <ele>572</ele>
        <time>2019-06-04T07:09:42Z</time>
      </trkpt>
      <trkpt lat="44.28746" lon="5.8216">
        <ele>572</ele>
        <time>2019-06-04T07:09:43Z</time>
      </trkpt>
      <trkpt lat="44.2874" lon="5.82157">
        <ele>572</ele>
        <time>2019-06-04T07:09:44Z</time>
      </trkpt>
      <trkpt lat="44.28733" lon="5.82153">
        <ele>572</ele>
        <time>2019-06-04T07:09:45Z</time>
      </trkpt>
      <trkpt lat="44.28727" lon="5.8215">
        <ele>572</ele>
        <time>2019-06-04T07:09:46Z</time>
      </trkpt>
      <trkpt lat="44.28719" lon="5.82147">
        <ele>571</ele>
        <time>2019-06-04T07:09:47Z</time>
      </trkpt>
      <trkpt lat="44.28712" lon="5.82144">
        <ele>571</ele>
        <time>2019-06-04T07:09:48Z</time>
      </trkpt>
      <trkpt lat="44.28705" lon="5.82142">
        <ele>570</ele>
        <time>2019-06-04T07:09:49Z</time>
      </trkpt>
      <trkpt lat="44.28697" lon="5.82139">
        <ele>570</ele>
        <time>2019-06-04T07:09:50Z</time>
      </trkpt>
      <trkpt lat="44.28689" lon="5.82136">
        <ele>569</ele>
        <time>2019-06-04T07:09:51Z</time>
      </trkpt>
      <trkpt lat="44.28682" lon="5.82133">
        <ele>569</ele>
        <time>2019-06-04T07:09:52Z</time>
      </trkpt>
      <trkpt lat="44.28674" lon="5.82131">
        <ele>568</ele>
        <time>2019-06-04T07:09:53Z</time>
      </trkpt>
      <trkpt lat="44.28666" lon="5.82128">
        <ele>568</ele>
        <time>2019-06-04T07:09:54Z</time>
      </trkpt>
      <trkpt lat="44.28658" lon="5.82126">
        <ele>567</ele>
        <time>2019-06-04T07:09:55Z</time>
      </trkpt>
      <trkpt lat="44.2865" lon="5.82124">
        <ele>567</ele>
        <time>2019-06-04T07:09:56Z</time>
      </trkpt>
      <trkpt lat="44.28642" lon="5.82121">
        <ele>567</ele>
        <time>2019-06-04T07:09:57Z</time>
      </trkpt>
      <trkpt lat="44.28633" lon="5.8212">
        <ele>567</ele>
        <time>2019-06-04T07:09:58Z</time>
      </trkpt>
      <trkpt lat="44.28625" lon="5.82118">
        <ele>567</ele>
        <time>2019-06-04T07:09:59Z</time>
      </trkpt>
      <trkpt lat="44.28617" lon="5.82115">
        <ele>567</ele>
        <time>2019-06-04T07:10:00Z</time>
      </trkpt>
      <trkpt lat="44.28609" lon="5.82113">
        <ele>566</ele>
        <time>2019-06-04T07:10:01Z</time>
      </trkpt>
      <trkpt lat="44.28601" lon="5.82109">
        <ele>566</ele>
        <time>2019-06-04T07:10:02Z</time>
      </trkpt>
      <trkpt lat="44.28592" lon="5.82106">
        <ele>566</ele>
        <time>2019-06-04T07:10:03Z</time>
      </trkpt>
      <trkpt lat="44.28584" lon="5.82102">
        <ele>566</ele>
        <time>2019-06-04T07:10:04Z</time>
      </trkpt>
      <trkpt lat="44.28575" lon="5.82098">
        <ele>565</ele>
        <time>2019-06-04T07:10:05Z</time>
      </trkpt>
      <trkpt lat="44.28566" lon="5.82094">
        <ele>565</ele>
        <time>2019-06-04T07:10:06Z</time>
      </trkpt>
      <trkpt lat="44.28558" lon="5.82089">
        <ele>565</ele>
        <time>2019-06-04T07:10:07Z</time>
      </trkpt>
      <trkpt lat="44.28549" lon="5.82085">
        <ele>564</ele>
        <time>2019-06-04T07:10:08Z</time>
      </trkpt>
      <trkpt lat="44.2854" lon="5.82081">
        <ele>564</ele>
        <time>2019-06-04T07:10:09Z</time>
      </trkpt>
      <trkpt lat="44.28532" lon="5.82076">
        <ele>563</ele>
        <time>2019-06-04T07:10:10Z</time>
      </trkpt>
      <trkpt lat="44.28523" lon="5.82072">
        <ele>563</ele>
        <time>2019-06-04T07:10:11Z</time>
      </trkpt>
      <trkpt lat="44.28515" lon="5.82067">
        <ele>563</ele>
        <time>2019-06-04T07:10:12Z</time>
      </trkpt>
      <trkpt lat="44.28506" lon="5.82063">
        <ele>562</ele>
        <time>2019-06-04T07:10:13Z</time>
      </trkpt>
      <trkpt lat="44.28497" lon="5.82059">
        <ele>562</ele>
        <time>2019-06-04T07:10:14Z</time>
      </trkpt>
      <trkpt lat="44.28488" lon="5.82055">
        <ele>562</ele>
        <time>2019-06-04T07:10:15Z</time>
      </trkpt>
      <trkpt lat="44.28479" lon="5.82051">
        <ele>562</ele>
        <time>2019-06-04T07:10:16Z</time>
      </trkpt>
      <trkpt lat="44.28471" lon="5.82046">
        <ele>561</ele>
        <time>2019-06-04T07:10:17Z</time>
      </trkpt>
      <trkpt lat="44.28463" lon="5.82042">
        <ele>561</ele>
        <time>2019-06-04T07:10:18Z</time>
      </trkpt>
      <trkpt lat="44.28455" lon="5.82039">
        <ele>561</ele>
        <time>2019-06-04T07:10:19Z</time>
      </trkpt>
      <trkpt lat="44.28447" lon="5.82036">
        <ele>561</ele>
        <time>2019-06-04T07:10:20Z</time>
      </trkpt>
      <trkpt lat="44.28439" lon="5.82033">
        <ele>561</ele>
        <time>2019-06-04T07:10:21Z</time>
      </trkpt>
      <trkpt lat="44.28432" lon="5.82031">
        <ele>561</ele>
        <time>2019-06-04T07:10:22Z</time>
      </trkpt>
      <trkpt lat="44.28424" lon="5.82028">
        <ele>560</ele>
        <time>2019-06-04T07:10:23Z</time>
      </trkpt>
      <trkpt lat="44.28416" lon="5.82026">
        <ele>560</ele>
        <time>2019-06-04T07:10:24Z</time>
      </trkpt>
      <trkpt lat="44.28409" lon="5.82024">
        <ele>560</ele>
        <time>2019-06-04T07:10:25Z</time>
      </trkpt>
      <trkpt lat="44.28402" lon="5.82023">
        <ele>560</ele>
        <time>2019-06-04T07:10:26Z</time>
      </trkpt>
      <trkpt lat="44.28394" lon="5.82022">
        <ele>559</ele>
        <time>2019-06-04T07:10:27Z</time>
      </trkpt>
      <trkpt lat="44.28387" lon="5.82021">
        <ele>559</ele>
        <time>2019-06-04T07:10:28Z</time>
      </trkpt>
      <trkpt lat="44.28379" lon="5.82021">
        <ele>559</ele>
        <time>2019-06-04T07:10:29Z</time>
      </trkpt>
      <trkpt lat="44.28372" lon="5.8202">
        <ele>559</ele>
        <time>2019-06-04T07:10:30Z</time>
      </trkpt>
      <trkpt lat="44.28365" lon="5.8202">
        <ele>558</ele>
        <time>2019-06-04T07:10:31Z</time>
      </trkpt>
      <trkpt lat="44.28358" lon="5.82019">
        <ele>558</ele>
        <time>2019-06-04T07:10:32Z</time>
      </trkpt>
      <trkpt lat="44.2835" lon="5.82019">
        <ele>558</ele>
        <time>2019-06-04T07:10:33Z</time>
      </trkpt>
      <trkpt lat="44.28343" lon="5.82019">
        <ele>558</ele>
        <time>2019-06-04T07:10:34Z</time>
      </trkpt>
      <trkpt lat="44.28336" lon="5.82019">
        <ele>558</ele>
        <time>2019-06-04T07:10:35Z</time>
      </trkpt>
      <trkpt lat="44.28329" lon="5.82019">
        <ele>558</ele>
        <time>2019-06-04T07:10:36Z</time>
      </trkpt>
      <trkpt lat="44.28321" lon="5.82019">
        <ele>558</ele>
        <time>2019-06-04T07:10:37Z</time>
      </trkpt>
      <trkpt lat="44.28314" lon="5.82019">
        <ele>557</ele>
        <time>2019-06-04T07:10:38Z</time>
      </trkpt>
      <trkpt lat="44.28307" lon="5.82019">
        <ele>557</ele>
        <time>2019-06-04T07:10:39Z</time>
      </trkpt>
      <trkpt lat="44.283" lon="5.82019">
        <ele>557</ele>
        <time>2019-06-04T07:10:40Z</time>
      </trkpt>
      <trkpt lat="44.28293" lon="5.82019">
        <ele>557</ele>
        <time>2019-06-04T07:10:41Z</time>
      </trkpt>
      <trkpt lat="44.28286" lon="5.82019">
        <ele>557</ele>
        <time>2019-06-04T07:10:42Z</time>
      </trkpt>
      <trkpt lat="44.28279" lon="5.82018">
        <ele>557</ele>
        <time>2019-06-04T07:10:43Z</time>
      </trkpt>
      <trkpt lat="44.28271" lon="5.82019">
        <ele>557</ele>
        <time>2019-06-04T07:10:44Z</time>
      </trkpt>
      <trkpt lat="44.28264" lon="5.82019">
        <ele>557</ele>
        <time>2019-06-04T07:10:45Z</time>
      </trkpt>
      <trkpt lat="44.28257" lon="5.82018">
        <ele>557</ele>
        <time>2019-06-04T07:10:46Z</time>
      </trkpt>
      <trkpt lat="44.2825" lon="5.82017">
        <ele>557</ele>
        <time>2019-06-04T07:10:47Z</time>
      </trkpt>
      <trkpt lat="44.28243" lon="5.82015">
        <ele>557</ele>
        <time>2019-06-04T07:10:48Z</time>
      </trkpt>
      <trkpt lat="44.28236" lon="5.82013">
        <ele>557</ele>
        <time>2019-06-04T07:10:49Z</time>
      </trkpt>
      <trkpt lat="44.28229" lon="5.8201">
        <ele>557</ele>
        <time>2019-06-04T07:10:50Z</time>
      </trkpt>
      <trkpt lat="44.28222" lon="5.82007">
        <ele>557</ele>
        <time>2019-06-04T07:10:51Z</time>
      </trkpt>
      <trkpt lat="44.28215" lon="5.82004">
        <ele>556</ele>
        <time>2019-06-04T07:10:52Z</time>
      </trkpt>
      <trkpt lat="44.28209" lon="5.82">
        <ele>556</ele>
        <time>2019-06-04T07:10:53Z</time>
      </trkpt>
      <trkpt lat="44.28202" lon="5.81996">
        <ele>556</ele>
        <time>2019-06-04T07:10:54Z</time>
      </trkpt>
      <trkpt lat="44.28195" lon="5.81992">
        <ele>556</ele>
        <time>2019-06-04T07:10:55Z</time>
      </trkpt>
      <trkpt lat="44.28189" lon="5.81988">
        <ele>556</ele>
        <time>2019-06-04T07:10:57Z</time>
      </trkpt>
      <trkpt lat="44.28183" lon="5.81984">
        <ele>556</ele>
        <time>2019-06-04T07:10:57Z</time>
      </trkpt>
      <trkpt lat="44.28176" lon="5.8198">
        <ele>556</ele>
        <time>2019-06-04T07:10:58Z</time>
      </trkpt>
      <trkpt lat="44.2817" lon="5.81975">
        <ele>556</ele>
        <time>2019-06-04T07:10:59Z</time>
      </trkpt>
      <trkpt lat="44.28164" lon="5.81971">
        <ele>556</ele>
        <time>2019-06-04T07:11:00Z</time>
      </trkpt>
      <trkpt lat="44.28157" lon="5.81967">
        <ele>556</ele>
        <time>2019-06-04T07:11:01Z</time>
      </trkpt>
      <trkpt lat="44.28151" lon="5.81963">
        <ele>556</ele>
        <time>2019-06-04T07:11:02Z</time>
      </trkpt>
      <trkpt lat="44.28145" lon="5.81959">
        <ele>556</ele>
        <time>2019-06-04T07:11:03Z</time>
      </trkpt>
      <trkpt lat="44.28139" lon="5.81955">
        <ele>556</ele>
        <time>2019-06-04T07:11:04Z</time>
      </trkpt>
      <trkpt lat="44.28133" lon="5.81952">
        <ele>556</ele>
        <time>2019-06-04T07:11:05Z</time>
      </trkpt>
      <trkpt lat="44.28127" lon="5.81948">
        <ele>556</ele>
        <time>2019-06-04T07:11:06Z</time>
      </trkpt>
      <trkpt lat="44.28121" lon="5.81944">
        <ele>556</ele>
        <time>2019-06-04T07:11:07Z</time>
      </trkpt>
      <trkpt lat="44.28115" lon="5.8194">
        <ele>556</ele>
        <time>2019-06-04T07:11:08Z</time>
      </trkpt>
      <trkpt lat="44.28109" lon="5.81936">
        <ele>556</ele>
        <time>2019-06-04T07:11:09Z</time>
      </trkpt>
      <trkpt lat="44.28102" lon="5.81932">
        <ele>556</ele>
        <time>2019-06-04T07:11:10Z</time>
      </trkpt>
      <trkpt lat="44.28096" lon="5.81928">
        <ele>556</ele>
        <time>2019-06-04T07:11:11Z</time>
      </trkpt>
      <trkpt lat="44.2809" lon="5.81925">
        <ele>556</ele>
        <time>2019-06-04T07:11:12Z</time>
      </trkpt>
      <trkpt lat="44.28083" lon="5.81921">
        <ele>556</ele>
        <time>2019-06-04T07:11:13Z</time>
      </trkpt>
      <trkpt lat="44.28077" lon="5.81917">
        <ele>556</ele>
        <time>2019-06-04T07:11:14Z</time>
      </trkpt>
      <trkpt lat="44.28071" lon="5.81913">
        <ele>556</ele>
        <time>2019-06-04T07:11:15Z</time>
      </trkpt>
      <trkpt lat="44.28065" lon="5.81909">
        <ele>556</ele>
        <time>2019-06-04T07:11:16Z</time>
      </trkpt>
      <trkpt lat="44.28059" lon="5.81905">
        <ele>556</ele>
        <time>2019-06-04T07:11:17Z</time>
      </trkpt>
      <trkpt lat="44.28052" lon="5.81901">
        <ele>556</ele>
        <time>2019-06-04T07:11:18Z</time>
      </trkpt>
      <trkpt lat="44.28046" lon="5.81897">
        <ele>556</ele>
        <time>2019-06-04T07:11:19Z</time>
      </trkpt>
      <trkpt lat="44.2804" lon="5.81893">
        <ele>556</ele>
        <time>2019-06-04T07:11:20Z</time>
      </trkpt>
      <trkpt lat="44.28035" lon="5.81889">
        <ele>556</ele>
        <time>2019-06-04T07:11:21Z</time>
      </trkpt>
      <trkpt lat="44.28028" lon="5.81885">
        <ele>556</ele>
        <time>2019-06-04T07:11:22Z</time>
      </trkpt>
      <trkpt lat="44.28022" lon="5.81881">
        <ele>556</ele>
        <time>2019-06-04T07:11:23Z</time>
      </trkpt>
      <trkpt lat="44.28016" lon="5.81877">
        <ele>556</ele>
        <time>2019-06-04T07:11:24Z</time>
      </trkpt>
      <trkpt lat="44.2801" lon="5.81873">
        <ele>556</ele>
        <time>2019-06-04T07:11:25Z</time>
      </trkpt>
      <trkpt lat="44.28004" lon="5.81869">
        <ele>556</ele>
        <time>2019-06-04T07:11:26Z</time>
      </trkpt>
      <trkpt lat="44.27998" lon="5.81865">
        <ele>556</ele>
        <time>2019-06-04T07:11:27Z</time>
      </trkpt>
      <trkpt lat="44.27993" lon="5.81861">
        <ele>556</ele>
        <time>2019-06-04T07:11:28Z</time>
      </trkpt>
      <trkpt lat="44.27987" lon="5.81857">
        <ele>556</ele>
        <time>2019-06-04T07:11:29Z</time>
      </trkpt>
      <trkpt lat="44.27981" lon="5.81854">
        <ele>556</ele>
        <time>2019-06-04T07:11:30Z</time>
      </trkpt>
      <trkpt lat="44.27975" lon="5.8185">
        <ele>556</ele>
        <time>2019-06-04T07:11:31Z</time>
      </trkpt>
      <trkpt lat="44.27969" lon="5.81847">
        <ele>556</ele>
        <time>2019-06-04T07:11:32Z</time>
      </trkpt>
      <trkpt lat="44.27964" lon="5.81843">
        <ele>556</ele>
        <time>2019-06-04T07:11:33Z</time>
      </trkpt>
      <trkpt lat="44.27958" lon="5.81839">
        <ele>556</ele>
        <time>2019-06-04T07:11:34Z</time>
      </trkpt>
      <trkpt lat="44.27952" lon="5.81836">
        <ele>556</ele>
        <time>2019-06-04T07:11:35Z</time>
      </trkpt>
      <trkpt lat="44.27946" lon="5.81832">
        <ele>556</ele>
        <time>2019-06-04T07:11:36Z</time>
      </trkpt>
      <trkpt lat="44.2794" lon="5.81828">
        <ele>556</ele>
        <time>2019-06-04T07:11:37Z</time>
      </trkpt>
      <trkpt lat="44.27934" lon="5.81824">
        <ele>556</ele>
        <time>2019-06-04T07:11:38Z</time>
      </trkpt>
      <trkpt lat="44.27928" lon="5.8182">
        <ele>556</ele>
        <time>2019-06-04T07:11:39Z</time>
      </trkpt>
      <trkpt lat="44.27922" lon="5.81816">
        <ele>556</ele>
        <time>2019-06-04T07:11:40Z</time>
      </trkpt>
      <trkpt lat="44.27917" lon="5.81813">
        <ele>556</ele>
        <time>2019-06-04T07:11:41Z</time>
      </trkpt>
      <trkpt lat="44.27911" lon="5.81809">
        <ele>556</ele>
        <time>2019-06-04T07:11:42Z</time>
      </trkpt>
      <trkpt lat="44.27905" lon="5.81805">
        <ele>555</ele>
        <time>2019-06-04T07:11:43Z</time>
      </trkpt>
      <trkpt lat="44.27899" lon="5.81801">
        <ele>555</ele>
        <time>2019-06-04T07:11:44Z</time>
      </trkpt>
      <trkpt lat="44.27893" lon="5.81798">
        <ele>555</ele>
        <time>2019-06-04T07:11:45Z</time>
      </trkpt>
      <trkpt lat="44.27887" lon="5.81794">
        <ele>555</ele>
        <time>2019-06-04T07:11:46Z</time>
      </trkpt>
      <trkpt lat="44.27881" lon="5.8179">
        <ele>555</ele>
        <time>2019-06-04T07:11:47Z</time>
      </trkpt>
      <trkpt lat="44.27875" lon="5.81787">
        <ele>555</ele>
        <time>2019-06-04T07:11:48Z</time>
      </trkpt>
      <trkpt lat="44.27869" lon="5.81783">
        <ele>555</ele>
        <time>2019-06-04T07:11:49Z</time>
      </trkpt>
      <trkpt lat="44.27863" lon="5.81779">
        <ele>555</ele>
        <time>2019-06-04T07:11:50Z</time>
      </trkpt>
      <trkpt lat="44.27856" lon="5.81776">
        <ele>555</ele>
        <time>2019-06-04T07:11:51Z</time>
      </trkpt>
      <trkpt lat="44.2785" lon="5.81772">
        <ele>555</ele>
        <time>2019-06-04T07:11:52Z</time>
      </trkpt>
      <trkpt lat="44.27844" lon="5.81768">
        <ele>555</ele>
        <time>2019-06-04T07:11:53Z</time>
      </trkpt>
      <trkpt lat="44.27838" lon="5.81764">
        <ele>555</ele>
        <time>2019-06-04T07:11:54Z</time>
      </trkpt>
      <trkpt lat="44.27832" lon="5.8176">
        <ele>555</ele>
        <time>2019-06-04T07:11:55Z</time>
      </trkpt>
      <trkpt lat="44.27826" lon="5.81756">
        <ele>555</ele>
        <time>2019-06-04T07:11:56Z</time>
      </trkpt>
      <trkpt lat="44.27819" lon="5.81752">
        <ele>555</ele>
        <time>2019-06-04T07:11:57Z</time>
      </trkpt>
      <trkpt lat="44.27813" lon="5.81747">
        <ele>555</ele>
        <time>2019-06-04T07:11:58Z</time>
      </trkpt>
      <trkpt lat="44.27807" lon="5.81743">
        <ele>554</ele>
        <time>2019-06-04T07:11:59Z</time>
      </trkpt>
      <trkpt lat="44.27801" lon="5.81738">
        <ele>554</ele>
        <time>2019-06-04T07:12:00Z</time>
      </trkpt>
      <trkpt lat="44.27794" lon="5.81734">
        <ele>553</ele>
        <time>2019-06-04T07:12:01Z</time>
      </trkpt>
      <trkpt lat="44.27788" lon="5.81729">
        <ele>553</ele>
        <time>2019-06-04T07:12:02Z</time>
      </trkpt>
      <trkpt lat="44.27782" lon="5.81725">
        <ele>552</ele>
        <time>2019-06-04T07:12:03Z</time>
      </trkpt>
      <trkpt lat="44.27775" lon="5.8172">
        <ele>552</ele>
        <time>2019-06-04T07:12:04Z</time>
      </trkpt>
      <trkpt lat="44.27768" lon="5.81716">
        <ele>552</ele>
        <time>2019-06-04T07:12:05Z</time>
      </trkpt>
      <trkpt lat="44.27762" lon="5.81711">
        <ele>551</ele>
        <time>2019-06-04T07:12:06Z</time>
      </trkpt>
      <trkpt lat="44.27755" lon="5.81707">
        <ele>551</ele>
        <time>2019-06-04T07:12:07Z</time>
      </trkpt>
      <trkpt lat="44.27748" lon="5.81702">
        <ele>551</ele>
        <time>2019-06-04T07:12:08Z</time>
      </trkpt>
      <trkpt lat="44.27742" lon="5.81697">
        <ele>551</ele>
        <time>2019-06-04T07:12:09Z</time>
      </trkpt>
      <trkpt lat="44.27736" lon="5.81691">
        <ele>550</ele>
        <time>2019-06-04T07:12:10Z</time>
      </trkpt>
      <trkpt lat="44.27729" lon="5.81685">
        <ele>550</ele>
        <time>2019-06-04T07:12:11Z</time>
      </trkpt>
      <trkpt lat="44.27723" lon="5.81679">
        <ele>550</ele>
        <time>2019-06-04T07:12:12Z</time>
      </trkpt>
      <trkpt lat="44.27717" lon="5.81673">
        <ele>550</ele>
        <time>2019-06-04T07:12:13Z</time>
      </trkpt>
      <trkpt lat="44.27711" lon="5.81666">
        <ele>549</ele>
        <time>2019-06-04T07:12:14Z</time>
      </trkpt>
      <trkpt lat="44.27705" lon="5.8166">
        <ele>549</ele>
        <time>2019-06-04T07:12:15Z</time>
      </trkpt>
      <trkpt lat="44.277" lon="5.81653">
        <ele>549</ele>
        <time>2019-06-04T07:12:16Z</time>
      </trkpt>
      <trkpt lat="44.27694" lon="5.81646">
        <ele>549</ele>
        <time>2019-06-04T07:12:17Z</time>
      </trkpt>
      <trkpt lat="44.27688" lon="5.8164">
        <ele>549</ele>
        <time>2019-06-04T07:12:18Z</time>
      </trkpt>
      <trkpt lat="44.27683" lon="5.81633">
        <ele>549</ele>
        <time>2019-06-04T07:12:19Z</time>
      </trkpt>
      <trkpt lat="44.27677" lon="5.81627">
        <ele>549</ele>
        <time>2019-06-04T07:12:20Z</time>
      </trkpt>
      <trkpt lat="44.27672" lon="5.8162">
        <ele>548</ele>
        <time>2019-06-04T07:12:21Z</time>
      </trkpt>
      <trkpt lat="44.27667" lon="5.81613">
        <ele>548</ele>
        <time>2019-06-04T07:12:22Z</time>
      </trkpt>
      <trkpt lat="44.27662" lon="5.81607">
        <ele>548</ele>
        <time>2019-06-04T07:12:23Z</time>
      </trkpt>
      <trkpt lat="44.27656" lon="5.81601">
        <ele>548</ele>
        <time>2019-06-04T07:12:24Z</time>
      </trkpt>
      <trkpt lat="44.27651" lon="5.81594">
        <ele>547</ele>
        <time>2019-06-04T07:12:25Z</time>
      </trkpt>
      <trkpt lat="44.27646" lon="5.81588">
        <ele>547</ele>
        <time>2019-06-04T07:12:26Z</time>
      </trkpt>
      <trkpt lat="44.27641" lon="5.81582">
        <ele>546</ele>
        <time>2019-06-04T07:12:27Z</time>
      </trkpt>
      <trkpt lat="44.27636" lon="5.81577">
        <ele>546</ele>
        <time>2019-06-04T07:12:28Z</time>
      </trkpt>
      <trkpt lat="44.27631" lon="5.8157">
        <ele>546</ele>
        <time>2019-06-04T07:12:29Z</time>
      </trkpt>
      <trkpt lat="44.27626" lon="5.81564">
        <ele>545</ele>
        <time>2019-06-04T07:12:30Z</time>
      </trkpt>
      <trkpt lat="44.27621" lon="5.81558">
        <ele>545</ele>
        <time>2019-06-04T07:12:31Z</time>
      </trkpt>
      <trkpt lat="44.27616" lon="5.81552">
        <ele>545</ele>
        <time>2019-06-04T07:12:32Z</time>
      </trkpt>
      <trkpt lat="44.2761" lon="5.81545">
        <ele>545</ele>
        <time>2019-06-04T07:12:33Z</time>
      </trkpt>
      <trkpt lat="44.27605" lon="5.81538">
        <ele>544</ele>
        <time>2019-06-04T07:12:34Z</time>
      </trkpt>
      <trkpt lat="44.276" lon="5.81532">
        <ele>544</ele>
        <time>2019-06-04T07:12:35Z</time>
      </trkpt>
      <trkpt lat="44.27594" lon="5.81525">
        <ele>544</ele>
        <time>2019-06-04T07:12:36Z</time>
      </trkpt>
      <trkpt lat="44.27589" lon="5.81519">
        <ele>544</ele>
        <time>2019-06-04T07:12:37Z</time>
      </trkpt>
      <trkpt lat="44.27583" lon="5.81512">
        <ele>544</ele>
        <time>2019-06-04T07:12:38Z</time>
      </trkpt>
      <trkpt lat="44.27578" lon="5.81506">
        <ele>544</ele>
        <time>2019-06-04T07:12:39Z</time>
      </trkpt>
      <trkpt lat="44.27572" lon="5.815">
        <ele>544</ele>
        <time>2019-06-04T07:12:40Z</time>
      </trkpt>
      <trkpt lat="44.27566" lon="5.81495">
        <ele>544</ele>
        <time>2019-06-04T07:12:41Z</time>
      </trkpt>
      <trkpt lat="44.2756" lon="5.81488">
        <ele>544</ele>
        <time>2019-06-04T07:12:42Z</time>
      </trkpt>
      <trkpt lat="44.27555" lon="5.81481">
        <ele>544</ele>
        <time>2019-06-04T07:12:43Z</time>
      </trkpt>
      <trkpt lat="44.27549" lon="5.81473">
        <ele>544</ele>
        <time>2019-06-04T07:12:44Z</time>
      </trkpt>
      <trkpt lat="44.27543" lon="5.81466">
        <ele>544</ele>
        <time>2019-06-04T07:12:45Z</time>
      </trkpt>
      <trkpt lat="44.27537" lon="5.81459">
        <ele>544</ele>
        <time>2019-06-04T07:12:46Z</time>
      </trkpt>
      <trkpt lat="44.27531" lon="5.81452">
        <ele>544</ele>
        <time>2019-06-04T07:12:47Z</time>
      </trkpt>
      <trkpt lat="44.27525" lon="5.81445">
        <ele>544</ele>
        <time>2019-06-04T07:12:48Z</time>
      </trkpt>
      <trkpt lat="44.2752" lon="5.81438">
        <ele>544</ele>
        <time>2019-06-04T07:12:49Z</time>
      </trkpt>
      <trkpt lat="44.27514" lon="5.81431">
        <ele>544</ele>
        <time>2019-06-04T07:12:50Z</time>
      </trkpt>
      <trkpt lat="44.27508" lon="5.81424">
        <ele>544</ele>
        <time>2019-06-04T07:12:51Z</time>
      </trkpt>
      <trkpt lat="44.27503" lon="5.81417">
        <ele>544</ele>
        <time>2019-06-04T07:12:52Z</time>
      </trkpt>
      <trkpt lat="44.27497" lon="5.81411">
        <ele>544</ele>
        <time>2019-06-04T07:12:53Z</time>
      </trkpt>
      <trkpt lat="44.27491" lon="5.81404">
        <ele>544</ele>
        <time>2019-06-04T07:12:54Z</time>
      </trkpt>
      <trkpt lat="44.27486" lon="5.81398">
        <ele>544</ele>
        <time>2019-06-04T07:12:55Z</time>
      </trkpt>
      <trkpt lat="44.2748" lon="5.81391">
        <ele>544</ele>
        <time>2019-06-04T07:12:56Z</time>
      </trkpt>
      <trkpt lat="44.27474" lon="5.81386">
        <ele>544</ele>
        <time>2019-06-04T07:12:58Z</time>
      </trkpt>
      <trkpt lat="44.27468" lon="5.81381">
        <ele>544</ele>
        <time>2019-06-04T07:12:58Z</time>
      </trkpt>
      <trkpt lat="44.27462" lon="5.81376">
        <ele>544</ele>
        <time>2019-06-04T07:12:59Z</time>
      </trkpt>
      <trkpt lat="44.27456" lon="5.81372">
        <ele>544</ele>
        <time>2019-06-04T07:13:00Z</time>
      </trkpt>
      <trkpt lat="44.2745" lon="5.81367">
        <ele>544</ele>
        <time>2019-06-04T07:13:01Z</time>
      </trkpt>
      <trkpt lat="44.27444" lon="5.81363">
        <ele>544</ele>
        <time>2019-06-04T07:13:02Z</time>
      </trkpt>
      <trkpt lat="44.27438" lon="5.8136">
        <ele>544</ele>
        <time>2019-06-04T07:13:03Z</time>
      </trkpt>
      <trkpt lat="44.27432" lon="5.81356">
        <ele>544</ele>
        <time>2019-06-04T07:13:04Z</time>
      </trkpt>
      <trkpt lat="44.27426" lon="5.81352">
        <ele>544</ele>
        <time>2019-06-04T07:13:05Z</time>
      </trkpt>
      <trkpt lat="44.2742" lon="5.81349">
        <ele>544</ele>
        <time>2019-06-04T07:13:06Z</time>
      </trkpt>
      <trkpt lat="44.27414" lon="5.81346">
        <ele>544</ele>
        <time>2019-06-04T07:13:07Z</time>
      </trkpt>
      <trkpt lat="44.27409" lon="5.81342">
        <ele>544</ele>
        <time>2019-06-04T07:13:08Z</time>
      </trkpt>
      <trkpt lat="44.27403" lon="5.81339">
        <ele>544</ele>
        <time>2019-06-04T07:13:09Z</time>
      </trkpt>
      <trkpt lat="44.27398" lon="5.81335">
        <ele>544</ele>
        <time>2019-06-04T07:13:10Z</time>
      </trkpt>
      <trkpt lat="44.27392" lon="5.81332">
        <ele>544</ele>
        <time>2019-06-04T07:13:11Z</time>
      </trkpt>
      <trkpt lat="44.27387" lon="5.81329">
        <ele>544</ele>
        <time>2019-06-04T07:13:12Z</time>
      </trkpt>
      <trkpt lat="44.27382" lon="5.81325">
        <ele>544</ele>
        <time>2019-06-04T07:13:13Z</time>
      </trkpt>
      <trkpt lat="44.27376" lon="5.81322">
        <ele>544</ele>
        <time>2019-06-04T07:13:14Z</time>
      </trkpt>
      <trkpt lat="44.27371" lon="5.81318">
        <ele>544</ele>
        <time>2019-06-04T07:13:15Z</time>
      </trkpt>
      <trkpt lat="44.27366" lon="5.81315">
        <ele>544</ele>
        <time>2019-06-04T07:13:16Z</time>
      </trkpt>
      <trkpt lat="44.27361" lon="5.81311">
        <ele>544</ele>
        <time>2019-06-04T07:13:17Z</time>
      </trkpt>
      <trkpt lat="44.27356" lon="5.81308">
        <ele>544</ele>
        <time>2019-06-04T07:13:18Z</time>
      </trkpt>
      <trkpt lat="44.27351" lon="5.81304">
        <ele>544</ele>
        <time>2019-06-04T07:13:19Z</time>
      </trkpt>
      <trkpt lat="44.27346" lon="5.813">
        <ele>544</ele>
        <time>2019-06-04T07:13:20Z</time>
      </trkpt>
      <trkpt lat="44.27341" lon="5.81295">
        <ele>544</ele>
        <time>2019-06-04T07:13:21Z</time>
      </trkpt>
      <trkpt lat="44.27337" lon="5.81291">
        <ele>544</ele>
        <time>2019-06-04T07:13:22Z</time>
      </trkpt>
      <trkpt lat="44.27333" lon="5.81286">
        <ele>544</ele>
        <time>2019-06-04T07:13:23Z</time>
      </trkpt>
      <trkpt lat="44.2733" lon="5.81281">
        <ele>544</ele>
        <time>2019-06-04T07:13:24Z</time>
      </trkpt>
      <trkpt lat="44.27326" lon="5.81276">
        <ele>544</ele>
        <time>2019-06-04T07:13:25Z</time>
      </trkpt>
      <trkpt lat="44.27322" lon="5.81271">
        <ele>544</ele>
        <time>2019-06-04T07:13:26Z</time>
      </trkpt>
      <trkpt lat="44.27318" lon="5.81265">
        <ele>544</ele>
        <time>2019-06-04T07:13:27Z</time>
      </trkpt>
      <trkpt lat="44.27315" lon="5.8126">
        <ele>544</ele>
        <time>2019-06-04T07:13:28Z</time>
      </trkpt>
      <trkpt lat="44.27311" lon="5.81254">
        <ele>544</ele>
        <time>2019-06-04T07:13:29Z</time>
      </trkpt>
      <trkpt lat="44.27308" lon="5.81249">
        <ele>544</ele>
        <time>2019-06-04T07:13:30Z</time>
      </trkpt>
      <trkpt lat="44.27304" lon="5.81243">
        <ele>544</ele>
        <time>2019-06-04T07:13:31Z</time>
      </trkpt>
      <trkpt lat="44.27301" lon="5.81237">
        <ele>544</ele>
        <time>2019-06-04T07:13:32Z</time>
      </trkpt>
      <trkpt lat="44.27297" lon="5.81232">
        <ele>544</ele>
        <time>2019-06-04T07:13:33Z</time>
      </trkpt>
      <trkpt lat="44.27293" lon="5.81227">
        <ele>544</ele>
        <time>2019-06-04T07:13:34Z</time>
      </trkpt>
      <trkpt lat="44.2729" lon="5.81222">
        <ele>544</ele>
        <time>2019-06-04T07:13:35Z</time>
      </trkpt>
      <trkpt lat="44.27286" lon="5.81216">
        <ele>544</ele>
        <time>2019-06-04T07:13:36Z</time>
      </trkpt>
      <trkpt lat="44.27282" lon="5.81211">
        <ele>544</ele>
        <time>2019-06-04T07:13:37Z</time>
      </trkpt>
      <trkpt lat="44.27278" lon="5.81207">
        <ele>544</ele>
        <time>2019-06-04T07:13:38Z</time>
      </trkpt>
      <trkpt lat="44.27274" lon="5.81202">
        <ele>544</ele>
        <time>2019-06-04T07:13:39Z</time>
      </trkpt>
      <trkpt lat="44.2727" lon="5.81197">
        <ele>544</ele>
        <time>2019-06-04T07:13:40Z</time>
      </trkpt>
      <trkpt lat="44.27266" lon="5.81193">
        <ele>544</ele>
        <time>2019-06-04T07:13:41Z</time>
      </trkpt>
      <trkpt lat="44.27262" lon="5.8119">
        <ele>544</ele>
        <time>2019-06-04T07:13:42Z</time>
      </trkpt>
      <trkpt lat="44.27258" lon="5.81186">
        <ele>544</ele>
        <time>2019-06-04T07:13:43Z</time>
      </trkpt>
      <trkpt lat="44.27253" lon="5.81181">
        <ele>544</ele>
        <time>2019-06-04T07:13:44Z</time>
      </trkpt>
      <trkpt lat="44.27249" lon="5.81178">
        <ele>544</ele>
        <time>2019-06-04T07:13:45Z</time>
      </trkpt>
      <trkpt lat="44.27245" lon="5.81174">
        <ele>544</ele>
        <time>2019-06-04T07:13:46Z</time>
      </trkpt>
      <trkpt lat="44.27241" lon="5.81171">
        <ele>544</ele>
        <time>2019-06-04T07:13:47Z</time>
      </trkpt>
      <trkpt lat="44.27237" lon="5.81167">
        <ele>544</ele>
        <time>2019-06-04T07:13:48Z</time>
      </trkpt>
      <trkpt lat="44.27234" lon="5.81164">
        <ele>544</ele>
        <time>2019-06-04T07:13:49Z</time>
      </trkpt>
      <trkpt lat="44.27231" lon="5.8116">
        <ele>544</ele>
        <time>2019-06-04T07:13:50Z</time>
      </trkpt>
      <trkpt lat="44.27227" lon="5.81156">
        <ele>544</ele>
        <time>2019-06-04T07:13:51Z</time>
      </trkpt>
      <trkpt lat="44.27225" lon="5.81151">
        <ele>544</ele>
        <time>2019-06-04T07:13:52Z</time>
      </trkpt>
      <trkpt lat="44.27224" lon="5.81145">
        <ele>544</ele>
        <time>2019-06-04T07:13:53Z</time>
      </trkpt>
      <trkpt lat="44.27223" lon="5.81138">
        <ele>544</ele>
        <time>2019-06-04T07:13:54Z</time>
      </trkpt>
      <trkpt lat="44.27222" lon="5.8113">
        <ele>544</ele>
        <time>2019-06-04T07:13:55Z</time>
      </trkpt>
      <trkpt lat="44.27222" lon="5.81122">
        <ele>544</ele>
        <time>2019-06-04T07:13:56Z</time>
      </trkpt>
      <trkpt lat="44.27222" lon="5.81113">
        <ele>544</ele>
        <time>2019-06-04T07:13:58Z</time>
      </trkpt>
      <trkpt lat="44.27222" lon="5.81105">
        <ele>544</ele>
        <time>2019-06-04T07:13:58Z</time>
      </trkpt>
      <trkpt lat="44.27222" lon="5.81095">
        <ele>544</ele>
        <time>2019-06-04T07:13:59Z</time>
      </trkpt>
      <trkpt lat="44.27223" lon="5.81086">
        <ele>543</ele>
        <time>2019-06-04T07:14:00Z</time>
      </trkpt>
      <trkpt lat="44.27222" lon="5.81076">
        <ele>543</ele>
        <time>2019-06-04T07:14:01Z</time>
      </trkpt>
      <trkpt lat="44.27223" lon="5.81067">
        <ele>543</ele>
        <time>2019-06-04T07:14:02Z</time>
      </trkpt>
      <trkpt lat="44.27224" lon="5.81057">
        <ele>543</ele>
        <time>2019-06-04T07:14:03Z</time>
      </trkpt>
      <trkpt lat="44.27224" lon="5.81048">
        <ele>543</ele>
        <time>2019-06-04T07:14:04Z</time>
      </trkpt>
      <trkpt lat="44.27226" lon="5.81039">
        <ele>542</ele>
        <time>2019-06-04T07:14:05Z</time>
      </trkpt>
      <trkpt lat="44.27227" lon="5.8103">
        <ele>542</ele>
        <time>2019-06-04T07:14:06Z</time>
      </trkpt>
      <trkpt lat="44.27229" lon="5.8102">
        <ele>542</ele>
        <time>2019-06-04T07:14:07Z</time>
      </trkpt>
      <trkpt lat="44.2723" lon="5.81011">
        <ele>542</ele>
        <time>2019-06-04T07:14:08Z</time>
      </trkpt>
      <trkpt lat="44.27231" lon="5.81002">
        <ele>542</ele>
        <time>2019-06-04T07:14:09Z</time>
      </trkpt>
      <trkpt lat="44.27233" lon="5.80994">
        <ele>542</ele>
        <time>2019-06-04T07:14:10Z</time>
      </trkpt>
      <trkpt lat="44.27234" lon="5.80985">
        <ele>542</ele>
        <time>2019-06-04T07:14:11Z</time>
      </trkpt>
      <trkpt lat="44.27236" lon="5.80976">
        <ele>542</ele>
        <time>2019-06-04T07:14:12Z</time>
      </trkpt>
      <trkpt lat="44.27238" lon="5.80968">
        <ele>542</ele>
        <time>2019-06-04T07:14:13Z</time>
      </trkpt>
      <trkpt lat="44.2724" lon="5.8096">
        <ele>542</ele>
        <time>2019-06-04T07:14:14Z</time>
      </trkpt>
      <trkpt lat="44.27242" lon="5.80951">
        <ele>542</ele>
        <time>2019-06-04T07:14:15Z</time>
      </trkpt>
      <trkpt lat="44.27244" lon="5.80944">
        <ele>542</ele>
        <time>2019-06-04T07:14:16Z</time>
      </trkpt>
      <trkpt lat="44.27246" lon="5.80935">
        <ele>542</ele>
        <time>2019-06-04T07:14:17Z</time>
      </trkpt>
      <trkpt lat="44.27248" lon="5.80927">
        <ele>542</ele>
        <time>2019-06-04T07:14:18Z</time>
      </trkpt>
      <trkpt lat="44.2725" lon="5.80919">
        <ele>542</ele>
        <time>2019-06-04T07:14:19Z</time>
      </trkpt>
      <trkpt lat="44.27251" lon="5.80912">
        <ele>542</ele>
        <time>2019-06-04T07:14:20Z</time>
      </trkpt>
      <trkpt lat="44.27253" lon="5.80904">
        <ele>542</ele>
        <time>2019-06-04T07:14:21Z</time>
      </trkpt>
      <trkpt lat="44.27255" lon="5.80896">
        <ele>542</ele>
        <time>2019-06-04T07:14:22Z</time>
      </trkpt>
      <trkpt lat="44.27256" lon="5.80888">
        <ele>542</ele>
        <time>2019-06-04T07:14:23Z</time>
      </trkpt>
      <trkpt lat="44.27258" lon="5.8088">
        <ele>542</ele>
        <time>2019-06-04T07:14:24Z</time>
      </trkpt>
      <trkpt lat="44.2726" lon="5.80873">
        <ele>542</ele>
        <time>2019-06-04T07:14:25Z</time>
      </trkpt>
      <trkpt lat="44.27261" lon="5.80865">
        <ele>542</ele>
        <time>2019-06-04T07:14:26Z</time>
      </trkpt>
      <trkpt lat="44.27263" lon="5.80858">
        <ele>542</ele>
        <time>2019-06-04T07:14:27Z</time>
      </trkpt>
      <trkpt lat="44.27265" lon="5.8085">
        <ele>542</ele>
        <time>2019-06-04T07:14:28Z</time>
      </trkpt>
      <trkpt lat="44.27267" lon="5.80843">
        <ele>542</ele>
        <time>2019-06-04T07:14:29Z</time>
      </trkpt>
      <trkpt lat="44.27269" lon="5.80836">
        <ele>542</ele>
        <time>2019-06-04T07:14:30Z</time>
      </trkpt>
      <trkpt lat="44.27271" lon="5.80829">
        <ele>542</ele>
        <time>2019-06-04T07:14:31Z</time>
      </trkpt>
      <trkpt lat="44.27272" lon="5.80822">
        <ele>542</ele>
        <time>2019-06-04T07:14:32Z</time>
      </trkpt>
      <trkpt lat="44.27274" lon="5.80815">
        <ele>542</ele>
        <time>2019-06-04T07:14:33Z</time>
      </trkpt>
      <trkpt lat="44.27276" lon="5.80808">
        <ele>542</ele>
        <time>2019-06-04T07:14:34Z</time>
      </trkpt>
      <trkpt lat="44.27279" lon="5.80801">
        <ele>542</ele>
        <time>2019-06-04T07:14:35Z</time>
      </trkpt>
      <trkpt lat="44.27281" lon="5.80794">
        <ele>542</ele>
        <time>2019-06-04T07:14:36Z</time>
      </trkpt>
      <trkpt lat="44.27283" lon="5.80787">
        <ele>542</ele>
        <time>2019-06-04T07:14:37Z</time>
      </trkpt>
      <trkpt lat="44.27285" lon="5.8078">
        <ele>542</ele>
        <time>2019-06-04T07:14:38Z</time>
      </trkpt>
      <trkpt lat="44.27287" lon="5.80772">
        <ele>542</ele>
        <time>2019-06-04T07:14:39Z</time>
      </trkpt>
      <trkpt lat="44.2729" lon="5.80765">
        <ele>542</ele>
        <time>2019-06-04T07:14:40Z</time>
      </trkpt>
      <trkpt lat="44.27291" lon="5.80758">
        <ele>542</ele>
        <time>2019-06-04T07:14:41Z</time>
      </trkpt>
      <trkpt lat="44.27294" lon="5.80751">
        <ele>542</ele>
        <time>2019-06-04T07:14:42Z</time>
      </trkpt>
      <trkpt lat="44.27296" lon="5.80744">
        <ele>542</ele>
        <time>2019-06-04T07:14:43Z</time>
      </trkpt>
      <trkpt lat="44.27298" lon="5.80737">
        <ele>542</ele>
        <time>2019-06-04T07:14:44Z</time>
      </trkpt>
      <trkpt lat="44.27301" lon="5.8073">
        <ele>542</ele>
        <time>2019-06-04T07:14:45Z</time>
      </trkpt>
      <trkpt lat="44.27303" lon="5.80724">
        <ele>542</ele>
        <time>2019-06-04T07:14:46Z</time>
      </trkpt>
      <trkpt lat="44.27306" lon="5.80718">
        <ele>542</ele>
        <time>2019-06-04T07:14:47Z</time>
      </trkpt>
      <trkpt lat="44.27309" lon="5.80712">
        <ele>542</ele>
        <time>2019-06-04T07:14:48Z</time>
      </trkpt>
      <trkpt lat="44.27313" lon="5.80707">
        <ele>542</ele>
        <time>2019-06-04T07:14:49Z</time>
      </trkpt>
      <trkpt lat="44.27316" lon="5.80702">
        <ele>542</ele>
        <time>2019-06-04T07:14:50Z</time>
      </trkpt>
      <trkpt lat="44.27319" lon="5.80697">
        <ele>542</ele>
        <time>2019-06-04T07:14:51Z</time>
      </trkpt>
      <trkpt lat="44.27322" lon="5.80692">
        <ele>542</ele>
        <time>2019-06-04T07:14:52Z</time>
      </trkpt>
      <trkpt lat="44.27325" lon="5.80687">
        <ele>542</ele>
        <time>2019-06-04T07:14:53Z</time>
      </trkpt>
      <trkpt lat="44.27327" lon="5.80681">
        <ele>542</ele>
        <time>2019-06-04T07:14:54Z</time>
      </trkpt>
      <trkpt lat="44.27329" lon="5.80675">
        <ele>542</ele>
        <time>2019-06-04T07:14:55Z</time>
      </trkpt>
      <trkpt lat="44.27331" lon="5.80668">
        <ele>543</ele>
        <time>2019-06-04T07:14:56Z</time>
      </trkpt>
      <trkpt lat="44.27332" lon="5.80662">
        <ele>543</ele>
        <time>2019-06-04T07:14:57Z</time>
      </trkpt>
      <trkpt lat="44.27333" lon="5.80655">
        <ele>544</ele>
        <time>2019-06-04T07:14:58Z</time>
      </trkpt>
      <trkpt lat="44.27333" lon="5.80649">
        <ele>544</ele>
        <time>2019-06-04T07:14:59Z</time>
      </trkpt>
      <trkpt lat="44.27333" lon="5.80642">
        <ele>544</ele>
        <time>2019-06-04T07:15:00Z</time>
      </trkpt>
      <trkpt lat="44.27333" lon="5.80635">
        <ele>544</ele>
        <time>2019-06-04T07:15:01Z</time>
      </trkpt>
      <trkpt lat="44.27333" lon="5.80628">
        <ele>545</ele>
        <time>2019-06-04T07:15:02Z</time>
      </trkpt>
      <trkpt lat="44.27333" lon="5.80622">
        <ele>545</ele>
        <time>2019-06-04T07:15:03Z</time>
      </trkpt>
      <trkpt lat="44.27333" lon="5.80615">
        <ele>545</ele>
        <time>2019-06-04T07:15:04Z</time>
      </trkpt>
      <trkpt lat="44.27333" lon="5.80608">
        <ele>545</ele>
        <time>2019-06-04T07:15:05Z</time>
      </trkpt>
      <trkpt lat="44.27335" lon="5.80601">
        <ele>545</ele>
        <time>2019-06-04T07:15:06Z</time>
      </trkpt>
      <trkpt lat="44.27336" lon="5.80593">
        <ele>545</ele>
        <time>2019-06-04T07:15:07Z</time>
      </trkpt>
      <trkpt lat="44.27338" lon="5.80586">
        <ele>545</ele>
        <time>2019-06-04T07:15:08Z</time>
      </trkpt>
      <trkpt lat="44.2734" lon="5.8058">
        <ele>545</ele>
        <time>2019-06-04T07:15:09Z</time>
      </trkpt>
      <trkpt lat="44.27342" lon="5.80573">
        <ele>545</ele>
        <time>2019-06-04T07:15:10Z</time>
      </trkpt>
      <trkpt lat="44.27345" lon="5.80567">
        <ele>545</ele>
        <time>2019-06-04T07:15:11Z</time>
      </trkpt>
      <trkpt lat="44.27348" lon="5.80561">
        <ele>545</ele>
        <time>2019-06-04T07:15:12Z</time>
      </trkpt>
      <trkpt lat="44.27351" lon="5.80556">
        <ele>545</ele>
        <time>2019-06-04T07:15:13Z</time>
      </trkpt>
      <trkpt lat="44.27354" lon="5.8055">
        <ele>546</ele>
        <time>2019-06-04T07:15:14Z</time>
      </trkpt>
      <trkpt lat="44.27358" lon="5.80545">
        <ele>546</ele>
        <time>2019-06-04T07:15:15Z</time>
      </trkpt>
      <trkpt lat="44.27362" lon="5.80539">
        <ele>546</ele>
        <time>2019-06-04T07:15:16Z</time>
      </trkpt>
      <trkpt lat="44.27365" lon="5.80534">
        <ele>546</ele>
        <time>2019-06-04T07:15:17Z</time>
      </trkpt>
      <trkpt lat="44.27368" lon="5.80528">
        <ele>546</ele>
        <time>2019-06-04T07:15:18Z</time>
      </trkpt>
      <trkpt lat="44.27372" lon="5.80522">
        <ele>546</ele>
        <time>2019-06-04T07:15:19Z</time>
      </trkpt>
      <trkpt lat="44.27375" lon="5.80516">
        <ele>546</ele>
        <time>2019-06-04T07:15:20Z</time>
      </trkpt>
      <trkpt lat="44.27378" lon="5.80509">
        <ele>546</ele>
        <time>2019-06-04T07:15:21Z</time>
      </trkpt>
      <trkpt lat="44.27382" lon="5.80503">
        <ele>546</ele>
        <time>2019-06-04T07:15:22Z</time>
      </trkpt>
      <trkpt lat="44.27385" lon="5.80497">
        <ele>546</ele>
        <time>2019-06-04T07:15:23Z</time>
      </trkpt>
      <trkpt lat="44.27388" lon="5.8049">
        <ele>546</ele>
        <time>2019-06-04T07:15:24Z</time>
      </trkpt>
      <trkpt lat="44.27391" lon="5.80484">
        <ele>546</ele>
        <time>2019-06-04T07:15:25Z</time>
      </trkpt>
      <trkpt lat="44.27394" lon="5.80477">
        <ele>546</ele>
        <time>2019-06-04T07:15:26Z</time>
      </trkpt>
      <trkpt lat="44.27397" lon="5.80471">
        <ele>546</ele>
        <time>2019-06-04T07:15:27Z</time>
      </trkpt>
      <trkpt lat="44.27399" lon="5.80463">
        <ele>546</ele>
        <time>2019-06-04T07:15:28Z</time>
      </trkpt>
      <trkpt lat="44.27402" lon="5.80457">
        <ele>546</ele>
        <time>2019-06-04T07:15:29Z</time>
      </trkpt>
      <trkpt lat="44.27405" lon="5.8045">
        <ele>546</ele>
        <time>2019-06-04T07:15:30Z</time>
      </trkpt>
      <trkpt lat="44.27407" lon="5.80443">
        <ele>546</ele>
        <time>2019-06-04T07:15:31Z</time>
      </trkpt>
      <trkpt lat="44.2741" lon="5.80437">
        <ele>547</ele>
        <time>2019-06-04T07:15:32Z</time>
      </trkpt>
      <trkpt lat="44.27413" lon="5.8043">
        <ele>547</ele>
        <time>2019-06-04T07:15:33Z</time>
      </trkpt>
      <trkpt lat="44.27415" lon="5.80422">
        <ele>547</ele>
        <time>2019-06-04T07:15:34Z</time>
      </trkpt>
      <trkpt lat="44.27418" lon="5.80415">
        <ele>547</ele>
        <time>2019-06-04T07:15:35Z</time>
      </trkpt>
      <trkpt lat="44.2742" lon="5.80407">
        <ele>547</ele>
        <time>2019-06-04T07:15:36Z</time>
      </trkpt>
      <trkpt lat="44.27423" lon="5.804">
        <ele>547</ele>
        <time>2019-06-04T07:15:37Z</time>
      </trkpt>
      <trkpt lat="44.27425" lon="5.80392">
        <ele>547</ele>
        <time>2019-06-04T07:15:38Z</time>
      </trkpt>
      <trkpt lat="44.27428" lon="5.80384">
        <ele>547</ele>
        <time>2019-06-04T07:15:39Z</time>
      </trkpt>
      <trkpt lat="44.2743" lon="5.80376">
        <ele>547</ele>
        <time>2019-06-04T07:15:40Z</time>
      </trkpt>
      <trkpt lat="44.27432" lon="5.80369">
        <ele>547</ele>
        <time>2019-06-04T07:15:41Z</time>
      </trkpt>
      <trkpt lat="44.27435" lon="5.80361">
        <ele>547</ele>
        <time>2019-06-04T07:15:42Z</time>
      </trkpt>
      <trkpt lat="44.27437" lon="5.80353">
        <ele>547</ele>
        <time>2019-06-04T07:15:43Z</time>
      </trkpt>
      <trkpt lat="44.27439" lon="5.80346">
        <ele>547</ele>
        <time>2019-06-04T07:15:44Z</time>
      </trkpt>
      <trkpt lat="44.27441" lon="5.80339">
        <ele>547</ele>
        <time>2019-06-04T07:15:45Z</time>
      </trkpt>
      <trkpt lat="44.27443" lon="5.80332">
        <ele>547</ele>
        <time>2019-06-04T07:15:46Z</time>
      </trkpt>
      <trkpt lat="44.27446" lon="5.80325">
        <ele>548</ele>
        <time>2019-06-04T07:15:47Z</time>
      </trkpt>
      <trkpt lat="44.27448" lon="5.80317">
        <ele>548</ele>
        <time>2019-06-04T07:15:48Z</time>
      </trkpt>
      <trkpt lat="44.2745" lon="5.80311">
        <ele>548</ele>
        <time>2019-06-04T07:15:49Z</time>
      </trkpt>
      <trkpt lat="44.27452" lon="5.80304">
        <ele>548</ele>
        <time>2019-06-04T07:15:50Z</time>
      </trkpt>
      <trkpt lat="44.27454" lon="5.80299">
        <ele>549</ele>
        <time>2019-06-04T07:15:51Z</time>
      </trkpt>
      <trkpt lat="44.27457" lon="5.80293">
        <ele>549</ele>
        <time>2019-06-04T07:15:52Z</time>
      </trkpt>
      <trkpt lat="44.27459" lon="5.80287">
        <ele>550</ele>
        <time>2019-06-04T07:15:53Z</time>
      </trkpt>
      <trkpt lat="44.27461" lon="5.80281">
        <ele>550</ele>
        <time>2019-06-04T07:15:54Z</time>
      </trkpt>
      <trkpt lat="44.27463" lon="5.80275">
        <ele>550</ele>
        <time>2019-06-04T07:15:55Z</time>
      </trkpt>
      <trkpt lat="44.27465" lon="5.80269">
        <ele>551</ele>
        <time>2019-06-04T07:15:56Z</time>
      </trkpt>
      <trkpt lat="44.27467" lon="5.80264">
        <ele>551</ele>
        <time>2019-06-04T07:15:57Z</time>
      </trkpt>
      <trkpt lat="44.2747" lon="5.80258">
        <ele>551</ele>
        <time>2019-06-04T07:15:58Z</time>
      </trkpt>
      <trkpt lat="44.27471" lon="5.80252">
        <ele>552</ele>
        <time>2019-06-04T07:15:59Z</time>
      </trkpt>
      <trkpt lat="44.27474" lon="5.80247">
        <ele>552</ele>
        <time>2019-06-04T07:16:00Z</time>
      </trkpt>
      <trkpt lat="44.27476" lon="5.80241">
        <ele>552</ele>
        <time>2019-06-04T07:16:01Z</time>
      </trkpt>
      <trkpt lat="44.27479" lon="5.80236">
        <ele>552</ele>
        <time>2019-06-04T07:16:02Z</time>
      </trkpt>
      <trkpt lat="44.27482" lon="5.80231">
        <ele>553</ele>
        <time>2019-06-04T07:16:03Z</time>
      </trkpt>
      <trkpt lat="44.27485" lon="5.80224">
        <ele>553</ele>
        <time>2019-06-04T07:16:04Z</time>
      </trkpt>
      <trkpt lat="44.27487" lon="5.80218">
        <ele>553</ele>
        <time>2019-06-04T07:16:05Z</time>
      </trkpt>
      <trkpt lat="44.2749" lon="5.80212">
        <ele>553</ele>
        <time>2019-06-04T07:16:06Z</time>
      </trkpt>
      <trkpt lat="44.27494" lon="5.80207">
        <ele>553</ele>
        <time>2019-06-04T07:16:07Z</time>
      </trkpt>
      <trkpt lat="44.27497" lon="5.80202">
        <ele>553</ele>
        <time>2019-06-04T07:16:08Z</time>
      </trkpt>
      <trkpt lat="44.275" lon="5.80196">
        <ele>554</ele>
        <time>2019-06-04T07:16:09Z</time>
      </trkpt>
      <trkpt lat="44.27503" lon="5.8019">
        <ele>554</ele>
        <time>2019-06-04T07:16:10Z</time>
      </trkpt>
      <trkpt lat="44.27506" lon="5.80184">
        <ele>554</ele>
        <time>2019-06-04T07:16:11Z</time>
      </trkpt>
      <trkpt lat="44.27509" lon="5.80177">
        <ele>554</ele>
        <time>2019-06-04T07:16:12Z</time>
      </trkpt>
      <trkpt lat="44.27512" lon="5.80172">
        <ele>554</ele>
        <time>2019-06-04T07:16:13Z</time>
      </trkpt>
      <trkpt lat="44.27515" lon="5.80166">
        <ele>554</ele>
        <time>2019-06-04T07:16:14Z</time>
      </trkpt>
      <trkpt lat="44.27519" lon="5.80161">
        <ele>555</ele>
        <time>2019-06-04T07:16:15Z</time>
      </trkpt>
      <trkpt lat="44.27522" lon="5.80155">
        <ele>555</ele>
        <time>2019-06-04T07:16:16Z</time>
      </trkpt>
      <trkpt lat="44.27525" lon="5.80149">
        <ele>555</ele>
        <time>2019-06-04T07:16:17Z</time>
      </trkpt>
      <trkpt lat="44.27528" lon="5.80144">
        <ele>555</ele>
        <time>2019-06-04T07:16:18Z</time>
      </trkpt>
      <trkpt lat="44.27532" lon="5.80139">
        <ele>555</ele>
        <time>2019-06-04T07:16:19Z</time>
      </trkpt>
      <trkpt lat="44.27535" lon="5.80133">
        <ele>556</ele>
        <time>2019-06-04T07:16:20Z</time>
      </trkpt>
      <trkpt lat="44.27539" lon="5.80127">
        <ele>556</ele>
        <time>2019-06-04T07:16:21Z</time>
      </trkpt>
      <trkpt lat="44.27542" lon="5.80122">
        <ele>556</ele>
        <time>2019-06-04T07:16:22Z</time>
      </trkpt>
      <trkpt lat="44.27546" lon="5.80117">
        <ele>556</ele>
        <time>2019-06-04T07:16:23Z</time>
      </trkpt>
      <trkpt lat="44.2755" lon="5.80111">
        <ele>556</ele>
        <time>2019-06-04T07:16:24Z</time>
      </trkpt>
      <trkpt lat="44.27553" lon="5.80105">
        <ele>556</ele>
        <time>2019-06-04T07:16:25Z</time>
      </trkpt>
      <trkpt lat="44.27556" lon="5.80098">
        <ele>556</ele>
        <time>2019-06-04T07:16:26Z</time>
      </trkpt>
      <trkpt lat="44.2756" lon="5.80092">
        <ele>556</ele>
        <time>2019-06-04T07:16:27Z</time>
      </trkpt>
      <trkpt lat="44.27563" lon="5.80086">
        <ele>556</ele>
        <time>2019-06-04T07:16:28Z</time>
      </trkpt>
      <trkpt lat="44.27566" lon="5.80079">
        <ele>556</ele>
        <time>2019-06-04T07:16:29Z</time>
      </trkpt>
      <trkpt lat="44.27569" lon="5.80073">
        <ele>556</ele>
        <time>2019-06-04T07:16:30Z</time>
      </trkpt>
      <trkpt lat="44.27572" lon="5.80066">
        <ele>556</ele>
        <time>2019-06-04T07:16:31Z</time>
      </trkpt>
      <trkpt lat="44.27575" lon="5.80059">
        <ele>556</ele>
        <time>2019-06-04T07:16:32Z</time>
      </trkpt>
      <trkpt lat="44.27578" lon="5.80053">
        <ele>556</ele>
        <time>2019-06-04T07:16:33Z</time>
      </trkpt>
      <trkpt lat="44.27581" lon="5.80046">
        <ele>556</ele>
        <time>2019-06-04T07:16:34Z</time>
      </trkpt>
      <trkpt lat="44.27584" lon="5.80039">
        <ele>556</ele>
        <time>2019-06-04T07:16:35Z</time>
      </trkpt>
      <trkpt lat="44.27588" lon="5.80033">
        <ele>556</ele>
        <time>2019-06-04T07:16:36Z</time>
      </trkpt>
      <trkpt lat="44.27591" lon="5.80027">
        <ele>556</ele>
        <time>2019-06-04T07:16:37Z</time>
      </trkpt>
      <trkpt lat="44.27594" lon="5.8002">
        <ele>556</ele>
        <time>2019-06-04T07:16:38Z</time>
      </trkpt>
      <trkpt lat="44.27597" lon="5.80014">
        <ele>556</ele>
        <time>2019-06-04T07:16:39Z</time>
      </trkpt>
      <trkpt lat="44.276" lon="5.80007">
        <ele>556</ele>
        <time>2019-06-04T07:16:40Z</time>
      </trkpt>
      <trkpt lat="44.27603" lon="5.8">
        <ele>556</ele>
        <time>2019-06-04T07:16:41Z</time>
      </trkpt>
      <trkpt lat="44.27605" lon="5.79993">
        <ele>556</ele>
        <time>2019-06-04T07:16:42Z</time>
      </trkpt>
      <trkpt lat="44.27607" lon="5.79985">
        <ele>556</ele>
        <time>2019-06-04T07:16:43Z</time>
      </trkpt>
      <trkpt lat="44.27609" lon="5.79978">
        <ele>556</ele>
        <time>2019-06-04T07:16:44Z</time>
      </trkpt>
      <trkpt lat="44.27611" lon="5.79971">
        <ele>556</ele>
        <time>2019-06-04T07:16:45Z</time>
      </trkpt>
      <trkpt lat="44.27613" lon="5.79963">
        <ele>556</ele>
        <time>2019-06-04T07:16:46Z</time>
      </trkpt>
      <trkpt lat="44.27616" lon="5.79956">
        <ele>556</ele>
        <time>2019-06-04T07:16:47Z</time>
      </trkpt>
      <trkpt lat="44.27618" lon="5.79949">
        <ele>556</ele>
        <time>2019-06-04T07:16:48Z</time>
      </trkpt>
      <trkpt lat="44.27619" lon="5.79941">
        <ele>556</ele>
        <time>2019-06-04T07:16:49Z</time>
      </trkpt>
      <trkpt lat="44.27621" lon="5.79934">
        <ele>557</ele>
        <time>2019-06-04T07:16:50Z</time>
      </trkpt>
      <trkpt lat="44.27622" lon="5.79925">
        <ele>557</ele>
        <time>2019-06-04T07:16:51Z</time>
      </trkpt>
      <trkpt lat="44.27623" lon="5.79917">
        <ele>558</ele>
        <time>2019-06-04T07:16:52Z</time>
      </trkpt>
      <trkpt lat="44.27625" lon="5.79909">
        <ele>558</ele>
        <time>2019-06-04T07:16:53Z</time>
      </trkpt>
      <trkpt lat="44.27626" lon="5.79901">
        <ele>559</ele>
        <time>2019-06-04T07:16:54Z</time>
      </trkpt>
      <trkpt lat="44.27627" lon="5.79893">
        <ele>560</ele>
        <time>2019-06-04T07:16:55Z</time>
      </trkpt>
      <trkpt lat="44.27628" lon="5.79885">
        <ele>561</ele>
        <time>2019-06-04T07:16:56Z</time>
      </trkpt>
      <trkpt lat="44.27629" lon="5.79876">
        <ele>562</ele>
        <time>2019-06-04T07:16:57Z</time>
      </trkpt>
      <trkpt lat="44.2763" lon="5.79868">
        <ele>563</ele>
        <time>2019-06-04T07:16:58Z</time>
      </trkpt>
      <trkpt lat="44.27632" lon="5.7986">
        <ele>564</ele>
        <time>2019-06-04T07:16:59Z</time>
      </trkpt>
      <trkpt lat="44.27634" lon="5.79852">
        <ele>565</ele>
        <time>2019-06-04T07:17:00Z</time>
      </trkpt>
      <trkpt lat="44.27636" lon="5.79844">
        <ele>566</ele>
        <time>2019-06-04T07:17:01Z</time>
      </trkpt>
      <trkpt lat="44.27639" lon="5.79837">
        <ele>566</ele>
        <time>2019-06-04T07:17:02Z</time>
      </trkpt>
      <trkpt lat="44.27641" lon="5.79829">
        <ele>567</ele>
        <time>2019-06-04T07:17:03Z</time>
      </trkpt>
      <trkpt lat="44.27644" lon="5.79822">
        <ele>567</ele>
        <time>2019-06-04T07:17:04Z</time>
      </trkpt>
      <trkpt lat="44.27646" lon="5.79814">
        <ele>567</ele>
        <time>2019-06-04T07:17:05Z</time>
      </trkpt>
      <trkpt lat="44.27649" lon="5.79807">
        <ele>568</ele>
        <time>2019-06-04T07:17:06Z</time>
      </trkpt>
      <trkpt lat="44.27652" lon="5.798">
        <ele>568</ele>
        <time>2019-06-04T07:17:07Z</time>
      </trkpt>
      <trkpt lat="44.27655" lon="5.79792">
        <ele>568</ele>
        <time>2019-06-04T07:17:08Z</time>
      </trkpt>
      <trkpt lat="44.27657" lon="5.79785">
        <ele>568</ele>
        <time>2019-06-04T07:17:09Z</time>
      </trkpt>
      <trkpt lat="44.27659" lon="5.79777">
        <ele>568</ele>
        <time>2019-06-04T07:17:10Z</time>
      </trkpt>
      <trkpt lat="44.27661" lon="5.79769">
        <ele>568</ele>
        <time>2019-06-04T07:17:11Z</time>
      </trkpt>
      <trkpt lat="44.27663" lon="5.79761">
        <ele>568</ele>
        <time>2019-06-04T07:17:12Z</time>
      </trkpt>
      <trkpt lat="44.27664" lon="5.79753">
        <ele>568</ele>
        <time>2019-06-04T07:17:13Z</time>
      </trkpt>
      <trkpt lat="44.27666" lon="5.79745">
        <ele>568</ele>
        <time>2019-06-04T07:17:14Z</time>
      </trkpt>
      <trkpt lat="44.27669" lon="5.79738">
        <ele>568</ele>
        <time>2019-06-04T07:17:15Z</time>
      </trkpt>
      <trkpt lat="44.27671" lon="5.79732">
        <ele>568</ele>
        <time>2019-06-04T07:17:16Z</time>
      </trkpt>
      <trkpt lat="44.27671" lon="5.79725">
        <ele>568</ele>
        <time>2019-06-04T07:17:17Z</time>
      </trkpt>
      <trkpt lat="44.27671" lon="5.79718">
        <ele>568</ele>
        <time>2019-06-04T07:17:18Z</time>
      </trkpt>
      <trkpt lat="44.27673" lon="5.7971">
        <ele>568</ele>
        <time>2019-06-04T07:17:19Z</time>
      </trkpt>
      <trkpt lat="44.27673" lon="5.79702">
        <ele>568</ele>
        <time>2019-06-04T07:17:20Z</time>
      </trkpt>
      <trkpt lat="44.27672" lon="5.79693">
        <ele>568</ele>
        <time>2019-06-04T07:17:21Z</time>
      </trkpt>
      <trkpt lat="44.27671" lon="5.79685">
        <ele>568</ele>
        <time>2019-06-04T07:17:22Z</time>
      </trkpt>
      <trkpt lat="44.27671" lon="5.79678">
        <ele>568</ele>
        <time>2019-06-04T07:17:23Z</time>
      </trkpt>
      <trkpt lat="44.27671" lon="5.79669">
        <ele>568</ele>
        <time>2019-06-04T07:17:24Z</time>
      </trkpt>
      <trkpt lat="44.27671" lon="5.7966">
        <ele>568</ele>
        <time>2019-06-04T07:17:25Z</time>
      </trkpt>
      <trkpt lat="44.27672" lon="5.79652">
        <ele>568</ele>
        <time>2019-06-04T07:17:26Z</time>
      </trkpt>
      <trkpt lat="44.27673" lon="5.79645">
        <ele>568</ele>
        <time>2019-06-04T07:17:27Z</time>
      </trkpt>
      <trkpt lat="44.27674" lon="5.79638">
        <ele>568</ele>
        <time>2019-06-04T07:17:28Z</time>
      </trkpt>
      <trkpt lat="44.27677" lon="5.79629">
        <ele>568</ele>
        <time>2019-06-04T07:17:29Z</time>
      </trkpt>
      <trkpt lat="44.27677" lon="5.7962">
        <ele>568</ele>
        <time>2019-06-04T07:17:30Z</time>
      </trkpt>
      <trkpt lat="44.27677" lon="5.79612">
        <ele>568</ele>
        <time>2019-06-04T07:17:31Z</time>
      </trkpt>
      <trkpt lat="44.27676" lon="5.79603">
        <ele>568</ele>
        <time>2019-06-04T07:17:32Z</time>
      </trkpt>
      <trkpt lat="44.27677" lon="5.79594">
        <ele>568</ele>
        <time>2019-06-04T07:17:33Z</time>
      </trkpt>
      <trkpt lat="44.27678" lon="5.79586">
        <ele>568</ele>
        <time>2019-06-04T07:17:34Z</time>
      </trkpt>
      <trkpt lat="44.27676" lon="5.79575">
        <ele>569</ele>
        <time>2019-06-04T07:17:35Z</time>
      </trkpt>
      <trkpt lat="44.27679" lon="5.7957">
        <ele>570</ele>
        <time>2019-06-04T07:17:36Z</time>
      </trkpt>
      <trkpt lat="44.2768" lon="5.79565">
        <ele>570</ele>
        <time>2019-06-04T07:17:37Z</time>
      </trkpt>
      <trkpt lat="44.27682" lon="5.7956">
        <ele>570</ele>
        <time>2019-06-04T07:17:38Z</time>
      </trkpt>
      <trkpt lat="44.27683" lon="5.79554">
        <ele>570</ele>
        <time>2019-06-04T07:17:39Z</time>
      </trkpt>
      <trkpt lat="44.27684" lon="5.79548">
        <ele>570</ele>
        <time>2019-06-04T07:17:40Z</time>
      </trkpt>
      <trkpt lat="44.27685" lon="5.79541">
        <ele>570</ele>
        <time>2019-06-04T07:17:41Z</time>
      </trkpt>
      <trkpt lat="44.27686" lon="5.79536">
        <ele>570</ele>
        <time>2019-06-04T07:17:42Z</time>
      </trkpt>
      <trkpt lat="44.27686" lon="5.7953">
        <ele>570</ele>
        <time>2019-06-04T07:17:43Z</time>
      </trkpt>
      <trkpt lat="44.27687" lon="5.79524">
        <ele>570</ele>
        <time>2019-06-04T07:17:44Z</time>
      </trkpt>
      <trkpt lat="44.27688" lon="5.79519">
        <ele>570</ele>
        <time>2019-06-04T07:17:45Z</time>
      </trkpt>
      <trkpt lat="44.27689" lon="5.79513">
        <ele>569</ele>
        <time>2019-06-04T07:17:46Z</time>
      </trkpt>
      <trkpt lat="44.2769" lon="5.79506">
        <ele>568</ele>
        <time>2019-06-04T07:17:47Z</time>
      </trkpt>
      <trkpt lat="44.27691" lon="5.795">
        <ele>567</ele>
        <time>2019-06-04T07:17:48Z</time>
      </trkpt>
      <trkpt lat="44.27692" lon="5.79493">
        <ele>566</ele>
        <time>2019-06-04T07:17:49Z</time>
      </trkpt>
      <trkpt lat="44.27692" lon="5.79486">
        <ele>565</ele>
        <time>2019-06-04T07:17:50Z</time>
      </trkpt>
      <trkpt lat="44.27693" lon="5.79479">
        <ele>565</ele>
        <time>2019-06-04T07:17:51Z</time>
      </trkpt>
      <trkpt lat="44.27694" lon="5.79472">
        <ele>564</ele>
        <time>2019-06-04T07:17:52Z</time>
      </trkpt>
      <trkpt lat="44.27695" lon="5.79465">
        <ele>563</ele>
        <time>2019-06-04T07:17:53Z</time>
      </trkpt>
      <trkpt lat="44.27696" lon="5.79458">
        <ele>563</ele>
        <time>2019-06-04T07:17:54Z</time>
      </trkpt>
      <trkpt lat="44.27697" lon="5.79451">
        <ele>563</ele>
        <time>2019-06-04T07:17:55Z</time>
      </trkpt>
      <trkpt lat="44.27699" lon="5.79444">
        <ele>563</ele>
        <time>2019-06-04T07:17:56Z</time>
      </trkpt>
      <trkpt lat="44.27701" lon="5.79437">
        <ele>563</ele>
        <time>2019-06-04T07:17:57Z</time>
      </trkpt>
      <trkpt lat="44.27703" lon="5.79429">
        <ele>563</ele>
        <time>2019-06-04T07:17:58Z</time>
      </trkpt>
      <trkpt lat="44.27706" lon="5.79423">
        <ele>563</ele>
        <time>2019-06-04T07:17:59Z</time>
      </trkpt>
      <trkpt lat="44.27709" lon="5.79416">
        <ele>563</ele>
        <time>2019-06-04T07:18:00Z</time>
      </trkpt>
      <trkpt lat="44.27712" lon="5.7941">
        <ele>563</ele>
        <time>2019-06-04T07:18:01Z</time>
      </trkpt>
      <trkpt lat="44.27715" lon="5.79403">
        <ele>563</ele>
        <time>2019-06-04T07:18:02Z</time>
      </trkpt>
      <trkpt lat="44.27718" lon="5.79397">
        <ele>563</ele>
        <time>2019-06-04T07:18:03Z</time>
      </trkpt>
      <trkpt lat="44.27721" lon="5.7939">
        <ele>563</ele>
        <time>2019-06-04T07:18:04Z</time>
      </trkpt>
      <trkpt lat="44.27723" lon="5.79384">
        <ele>563</ele>
        <time>2019-06-04T07:18:05Z</time>
      </trkpt>
      <trkpt lat="44.27726" lon="5.79379">
        <ele>563</ele>
        <time>2019-06-04T07:18:06Z</time>
      </trkpt>
      <trkpt lat="44.27729" lon="5.79373">
        <ele>563</ele>
        <time>2019-06-04T07:18:07Z</time>
      </trkpt>
      <trkpt lat="44.27732" lon="5.79367">
        <ele>563</ele>
        <time>2019-06-04T07:18:08Z</time>
      </trkpt>
      <trkpt lat="44.27736" lon="5.79361">
        <ele>563</ele>
        <time>2019-06-04T07:18:09Z</time>
      </trkpt>
      <trkpt lat="44.27739" lon="5.79357">
        <ele>563</ele>
        <time>2019-06-04T07:18:10Z</time>
      </trkpt>
      <trkpt lat="44.27743" lon="5.79352">
        <ele>563</ele>
        <time>2019-06-04T07:18:11Z</time>
      </trkpt>
      <trkpt lat="44.27748" lon="5.79348">
        <ele>563</ele>
        <time>2019-06-04T07:18:12Z</time>
      </trkpt>
      <trkpt lat="44.27752" lon="5.79345">
        <ele>563</ele>
        <time>2019-06-04T07:18:13Z</time>
      </trkpt>
      <trkpt lat="44.27756" lon="5.79341">
        <ele>563</ele>
        <time>2019-06-04T07:18:14Z</time>
      </trkpt>
      <trkpt lat="44.2776" lon="5.79338">
        <ele>563</ele>
        <time>2019-06-04T07:18:15Z</time>
      </trkpt>
      <trkpt lat="44.27765" lon="5.79334">
        <ele>563</ele>
        <time>2019-06-04T07:18:16Z</time>
      </trkpt>
      <trkpt lat="44.27771" lon="5.79332">
        <ele>563</ele>
        <time>2019-06-04T07:18:17Z</time>
      </trkpt>
      <trkpt lat="44.27777" lon="5.7933">
        <ele>564</ele>
        <time>2019-06-04T07:18:18Z</time>
      </trkpt>
      <trkpt lat="44.27782" lon="5.79329">
        <ele>564</ele>
        <time>2019-06-04T07:18:19Z</time>
      </trkpt>
      <trkpt lat="44.27787" lon="5.79329">
        <ele>564</ele>
        <time>2019-06-04T07:18:20Z</time>
      </trkpt>
      <trkpt lat="44.27792" lon="5.79329">
        <ele>565</ele>
        <time>2019-06-04T07:18:21Z</time>
      </trkpt>
      <trkpt lat="44.27797" lon="5.79328">
        <ele>565</ele>
        <time>2019-06-04T07:18:22Z</time>
      </trkpt>
      <trkpt lat="44.27802" lon="5.79326">
        <ele>565</ele>
        <time>2019-06-04T07:18:23Z</time>
      </trkpt>
      <trkpt lat="44.27807" lon="5.79324">
        <ele>565</ele>
        <time>2019-06-04T07:18:24Z</time>
      </trkpt>
      <trkpt lat="44.27811" lon="5.7932">
        <ele>566</ele>
        <time>2019-06-04T07:18:25Z</time>
      </trkpt>
      <trkpt lat="44.27815" lon="5.79317">
        <ele>566</ele>
        <time>2019-06-04T07:18:26Z</time>
      </trkpt>
      <trkpt lat="44.27819" lon="5.79313">
        <ele>566</ele>
        <time>2019-06-04T07:18:27Z</time>
      </trkpt>
      <trkpt lat="44.27822" lon="5.79307">
        <ele>566</ele>
        <time>2019-06-04T07:18:28Z</time>
      </trkpt>
      <trkpt lat="44.27824" lon="5.79301">
        <ele>566</ele>
        <time>2019-06-04T07:18:29Z</time>
      </trkpt>
      <trkpt lat="44.27825" lon="5.79293">
        <ele>567</ele>
        <time>2019-06-04T07:18:30Z</time>
      </trkpt>
      <trkpt lat="44.27827" lon="5.79286">
        <ele>568</ele>
        <time>2019-06-04T07:18:31Z</time>
      </trkpt>
      <trkpt lat="44.27829" lon="5.79281">
        <ele>569</ele>
        <time>2019-06-04T07:18:32Z</time>
      </trkpt>
      <trkpt lat="44.27833" lon="5.79277">
        <ele>570</ele>
        <time>2019-06-04T07:18:33Z</time>
      </trkpt>
      <trkpt lat="44.27836" lon="5.79272">
        <ele>571</ele>
        <time>2019-06-04T07:18:34Z</time>
      </trkpt>
      <trkpt lat="44.27838" lon="5.79266">
        <ele>572</ele>
        <time>2019-06-04T07:18:35Z</time>
      </trkpt>
      <trkpt lat="44.27841" lon="5.79261">
        <ele>573</ele>
        <time>2019-06-04T07:18:36Z</time>
      </trkpt>
      <trkpt lat="44.27843" lon="5.79255">
        <ele>574</ele>
        <time>2019-06-04T07:18:37Z</time>
      </trkpt>
      <trkpt lat="44.27846" lon="5.7925">
        <ele>574</ele>
        <time>2019-06-04T07:18:38Z</time>
      </trkpt>
      <trkpt lat="44.27849" lon="5.79245">
        <ele>574</ele>
        <time>2019-06-04T07:18:39Z</time>
      </trkpt>
      <trkpt lat="44.27852" lon="5.7924">
        <ele>574</ele>
        <time>2019-06-04T07:18:40Z</time>
      </trkpt>
      <trkpt lat="44.27855" lon="5.79236">
        <ele>574</ele>
        <time>2019-06-04T07:18:41Z</time>
      </trkpt>
      <trkpt lat="44.27857" lon="5.79231">
        <ele>574</ele>
        <time>2019-06-04T07:18:42Z</time>
      </trkpt>
      <trkpt lat="44.27858" lon="5.79225">
        <ele>574</ele>
        <time>2019-06-04T07:18:43Z</time>
      </trkpt>
      <trkpt lat="44.27859" lon="5.79218">
        <ele>574</ele>
        <time>2019-06-04T07:18:44Z</time>
      </trkpt>
      <trkpt lat="44.27861" lon="5.79212">
        <ele>575</ele>
        <time>2019-06-04T07:18:45Z</time>
      </trkpt>
      <trkpt lat="44.27862" lon="5.79206">
        <ele>575</ele>
        <time>2019-06-04T07:18:46Z</time>
      </trkpt>
      <trkpt lat="44.27863" lon="5.792">
        <ele>576</ele>
        <time>2019-06-04T07:18:47Z</time>
      </trkpt>
      <trkpt lat="44.27864" lon="5.79193">
        <ele>577</ele>
        <time>2019-06-04T07:18:48Z</time>
      </trkpt>
      <trkpt lat="44.27864" lon="5.79187">
        <ele>577</ele>
        <time>2019-06-04T07:18:49Z</time>
      </trkpt>
      <trkpt lat="44.27864" lon="5.7918">
        <ele>577</ele>
        <time>2019-06-04T07:18:50Z</time>
      </trkpt>
      <trkpt lat="44.27864" lon="5.79173">
        <ele>578</ele>
        <time>2019-06-04T07:18:51Z</time>
      </trkpt>
      <trkpt lat="44.27864" lon="5.79167">
        <ele>579</ele>
        <time>2019-06-04T07:18:52Z</time>
      </trkpt>
      <trkpt lat="44.27864" lon="5.7916">
        <ele>579</ele>
        <time>2019-06-04T07:18:53Z</time>
      </trkpt>
      <trkpt lat="44.27863" lon="5.79154">
        <ele>579</ele>
        <time>2019-06-04T07:18:54Z</time>
      </trkpt>
      <trkpt lat="44.27862" lon="5.79149">
        <ele>579</ele>
        <time>2019-06-04T07:18:55Z</time>
      </trkpt>
      <trkpt lat="44.2786" lon="5.79144">
        <ele>579</ele>
        <time>2019-06-04T07:18:56Z</time>
      </trkpt>
      <trkpt lat="44.27858" lon="5.7914">
        <ele>579</ele>
        <time>2019-06-04T07:18:57Z</time>
      </trkpt>
      <trkpt lat="44.27855" lon="5.79136">
        <ele>579</ele>
        <time>2019-06-04T07:18:58Z</time>
      </trkpt>
      <trkpt lat="44.27852" lon="5.79133">
        <ele>579</ele>
        <time>2019-06-04T07:18:59Z</time>
      </trkpt>
      <trkpt lat="44.2785" lon="5.79128">
        <ele>580</ele>
        <time>2019-06-04T07:19:00Z</time>
      </trkpt>
      <trkpt lat="44.27847" lon="5.79122">
        <ele>580</ele>
        <time>2019-06-04T07:19:01Z</time>
      </trkpt>
      <trkpt lat="44.27845" lon="5.79116">
        <ele>581</ele>
        <time>2019-06-04T07:19:02Z</time>
      </trkpt>
      <trkpt lat="44.27843" lon="5.7911">
        <ele>581</ele>
        <time>2019-06-04T07:19:03Z</time>
      </trkpt>
      <trkpt lat="44.27842" lon="5.79104">
        <ele>582</ele>
        <time>2019-06-04T07:19:04Z</time>
      </trkpt>
      <trkpt lat="44.27839" lon="5.79096">
        <ele>583</ele>
        <time>2019-06-04T07:19:05Z</time>
      </trkpt>
      <trkpt lat="44.27838" lon="5.7909">
        <ele>584</ele>
        <time>2019-06-04T07:19:06Z</time>
      </trkpt>
      <trkpt lat="44.27835" lon="5.79085">
        <ele>584</ele>
        <time>2019-06-04T07:19:07Z</time>
      </trkpt>
      <trkpt lat="44.27832" lon="5.79081">
        <ele>584</ele>
        <time>2019-06-04T07:19:08Z</time>
      </trkpt>
      <trkpt lat="44.27828" lon="5.79077">
        <ele>584</ele>
        <time>2019-06-04T07:19:09Z</time>
      </trkpt>
      <trkpt lat="44.27824" lon="5.79073">
        <ele>584</ele>
        <time>2019-06-04T07:19:10Z</time>
      </trkpt>
      <trkpt lat="44.2782" lon="5.7907">
        <ele>584</ele>
        <time>2019-06-04T07:19:11Z</time>
      </trkpt>
      <trkpt lat="44.27816" lon="5.79066">
        <ele>584</ele>
        <time>2019-06-04T07:19:12Z</time>
      </trkpt>
      <trkpt lat="44.27813" lon="5.79062">
        <ele>585</ele>
        <time>2019-06-04T07:19:13Z</time>
      </trkpt>
      <trkpt lat="44.27809" lon="5.79056">
        <ele>585</ele>
        <time>2019-06-04T07:19:14Z</time>
      </trkpt>
      <trkpt lat="44.27807" lon="5.79051">
        <ele>586</ele>
        <time>2019-06-04T07:19:15Z</time>
      </trkpt>
      <trkpt lat="44.27804" lon="5.79045">
        <ele>586</ele>
        <time>2019-06-04T07:19:16Z</time>
      </trkpt>
      <trkpt lat="44.27803" lon="5.79038">
        <ele>586</ele>
        <time>2019-06-04T07:19:17Z</time>
      </trkpt>
      <trkpt lat="44.27803" lon="5.79032">
        <ele>586</ele>
        <time>2019-06-04T07:19:18Z</time>
      </trkpt>
      <trkpt lat="44.27815" lon="5.78988">
        <ele>586</ele>
        <time>2019-06-04T07:19:25Z</time>
      </trkpt>
      <trkpt lat="44.27824" lon="5.78995">
        <ele>586</ele>
        <time>2019-06-04T07:19:26Z</time>
      </trkpt>
      <trkpt lat="44.27832" lon="5.79001">
        <ele>586</ele>
        <time>2019-06-04T07:19:27Z</time>
      </trkpt>
      <trkpt lat="44.2784" lon="5.79005">
        <ele>586</ele>
        <time>2019-06-04T07:19:28Z</time>
      </trkpt>
      <trkpt lat="44.27847" lon="5.79008">
        <ele>586</ele>
        <time>2019-06-04T07:19:29Z</time>
      </trkpt>
      <trkpt lat="44.27854" lon="5.79012">
        <ele>586</ele>
        <time>2019-06-04T07:19:30Z</time>
      </trkpt>
      <trkpt lat="44.2786" lon="5.79013">
        <ele>586</ele>
        <time>2019-06-04T07:19:31Z</time>
      </trkpt>
      <trkpt lat="44.27867" lon="5.79015">
        <ele>586</ele>
        <time>2019-06-04T07:19:32Z</time>
      </trkpt>
      <trkpt lat="44.27874" lon="5.79015">
        <ele>586</ele>
        <time>2019-06-04T07:19:33Z</time>
      </trkpt>
      <trkpt lat="44.27881" lon="5.79016">
        <ele>586</ele>
        <time>2019-06-04T07:19:34Z</time>
      </trkpt>
      <trkpt lat="44.27887" lon="5.79017">
        <ele>586</ele>
        <time>2019-06-04T07:19:35Z</time>
      </trkpt>
      <trkpt lat="44.27894" lon="5.79018">
        <ele>586</ele>
        <time>2019-06-04T07:19:36Z</time>
      </trkpt>
      <trkpt lat="44.27905" lon="5.79013">
        <ele>586</ele>
        <time>2019-06-04T07:19:37Z</time>
      </trkpt>
      <trkpt lat="44.27914" lon="5.79009">
        <ele>586</ele>
        <time>2019-06-04T07:19:38Z</time>
      </trkpt>
      <trkpt lat="44.27919" lon="5.79008">
        <ele>586</ele>
        <time>2019-06-04T07:19:39Z</time>
      </trkpt>
      <trkpt lat="44.27923" lon="5.79005">
        <ele>586</ele>
        <time>2019-06-04T07:19:40Z</time>
      </trkpt>
      <trkpt lat="44.27928" lon="5.79003">
        <ele>586</ele>
        <time>2019-06-04T07:19:41Z</time>
      </trkpt>
      <trkpt lat="44.27934" lon="5.78999">
        <ele>586</ele>
        <time>2019-06-04T07:19:42Z</time>
      </trkpt>
      <trkpt lat="44.27939" lon="5.78996">
        <ele>585</ele>
        <time>2019-06-04T07:19:43Z</time>
      </trkpt>
      <trkpt lat="44.27944" lon="5.78992">
        <ele>584</ele>
        <time>2019-06-04T07:19:44Z</time>
      </trkpt>
      <trkpt lat="44.27948" lon="5.78985">
        <ele>584</ele>
        <time>2019-06-04T07:19:45Z</time>
      </trkpt>
      <trkpt lat="44.27953" lon="5.78978">
        <ele>583</ele>
        <time>2019-06-04T07:19:46Z</time>
      </trkpt>
      <trkpt lat="44.27956" lon="5.7897">
        <ele>583</ele>
        <time>2019-06-04T07:19:47Z</time>
      </trkpt>
      <trkpt lat="44.2796" lon="5.78961">
        <ele>583</ele>
        <time>2019-06-04T07:19:48Z</time>
      </trkpt>
      <trkpt lat="44.27962" lon="5.78952">
        <ele>583</ele>
        <time>2019-06-04T07:19:49Z</time>
      </trkpt>
      <trkpt lat="44.27964" lon="5.78942">
        <ele>583</ele>
        <time>2019-06-04T07:19:50Z</time>
      </trkpt>
      <trkpt lat="44.27965" lon="5.78931">
        <ele>583</ele>
        <time>2019-06-04T07:19:51Z</time>
      </trkpt>
      <trkpt lat="44.27965" lon="5.78921">
        <ele>583</ele>
        <time>2019-06-04T07:19:52Z</time>
      </trkpt>
      <trkpt lat="44.27966" lon="5.78911">
        <ele>583</ele>
        <time>2019-06-04T07:19:53Z</time>
      </trkpt>
      <trkpt lat="44.27967" lon="5.78904">
        <ele>583</ele>
        <time>2019-06-04T07:19:54Z</time>
      </trkpt>
      <trkpt lat="44.27969" lon="5.78896">
        <ele>583</ele>
        <time>2019-06-04T07:19:55Z</time>
      </trkpt>
      <trkpt lat="44.27968" lon="5.78887">
        <ele>583</ele>
        <time>2019-06-04T07:19:56Z</time>
      </trkpt>
      <trkpt lat="44.27967" lon="5.78877">
        <ele>583</ele>
        <time>2019-06-04T07:19:57Z</time>
      </trkpt>
      <trkpt lat="44.27967" lon="5.78869">
        <ele>583</ele>
        <time>2019-06-04T07:19:58Z</time>
      </trkpt>
      <trkpt lat="44.27967" lon="5.78861">
        <ele>583</ele>
        <time>2019-06-04T07:19:59Z</time>
      </trkpt>
      <trkpt lat="44.27965" lon="5.78851">
        <ele>583</ele>
        <time>2019-06-04T07:20:00Z</time>
      </trkpt>
      <trkpt lat="44.27964" lon="5.78841">
        <ele>583</ele>
        <time>2019-06-04T07:20:01Z</time>
      </trkpt>
      <trkpt lat="44.27962" lon="5.78832">
        <ele>583</ele>
        <time>2019-06-04T07:20:02Z</time>
      </trkpt>
      <trkpt lat="44.2796" lon="5.78823">
        <ele>583</ele>
        <time>2019-06-04T07:20:03Z</time>
      </trkpt>
      <trkpt lat="44.27958" lon="5.78814">
        <ele>583</ele>
        <time>2019-06-04T07:20:04Z</time>
      </trkpt>
      <trkpt lat="44.27956" lon="5.78805">
        <ele>583</ele>
        <time>2019-06-04T07:20:05Z</time>
      </trkpt>
      <trkpt lat="44.27953" lon="5.78795">
        <ele>583</ele>
        <time>2019-06-04T07:20:06Z</time>
      </trkpt>
      <trkpt lat="44.2795" lon="5.78785">
        <ele>583</ele>
        <time>2019-06-04T07:20:07Z</time>
      </trkpt>
      <trkpt lat="44.27948" lon="5.78777">
        <ele>583</ele>
        <time>2019-06-04T07:20:08Z</time>
      </trkpt>
      <trkpt lat="44.27945" lon="5.78768">
        <ele>583</ele>
        <time>2019-06-04T07:20:09Z</time>
      </trkpt>
      <trkpt lat="44.27942" lon="5.78759">
        <ele>583</ele>
        <time>2019-06-04T07:20:10Z</time>
      </trkpt>
      <trkpt lat="44.27939" lon="5.7875">
        <ele>583</ele>
        <time>2019-06-04T07:20:11Z</time>
      </trkpt>
      <trkpt lat="44.27936" lon="5.78741">
        <ele>583</ele>
        <time>2019-06-04T07:20:12Z</time>
      </trkpt>
      <trkpt lat="44.27934" lon="5.78731">
        <ele>583</ele>
        <time>2019-06-04T07:20:13Z</time>
      </trkpt>
      <trkpt lat="44.27931" lon="5.78721">
        <ele>583</ele>
        <time>2019-06-04T07:20:14Z</time>
      </trkpt>
      <trkpt lat="44.2793" lon="5.78711">
        <ele>583</ele>
        <time>2019-06-04T07:20:15Z</time>
      </trkpt>
      <trkpt lat="44.2793" lon="5.78701">
        <ele>583</ele>
        <time>2019-06-04T07:20:16Z</time>
      </trkpt>
      <trkpt lat="44.2793" lon="5.78691">
        <ele>583</ele>
        <time>2019-06-04T07:20:17Z</time>
      </trkpt>
      <trkpt lat="44.27931" lon="5.78682">
        <ele>583</ele>
        <time>2019-06-04T07:20:18Z</time>
      </trkpt>
      <trkpt lat="44.27931" lon="5.78673">
        <ele>583</ele>
        <time>2019-06-04T07:20:19Z</time>
      </trkpt>
      <trkpt lat="44.27933" lon="5.78662">
        <ele>583</ele>
        <time>2019-06-04T07:20:20Z</time>
      </trkpt>
      <trkpt lat="44.27937" lon="5.78652">
        <ele>583</ele>
        <time>2019-06-04T07:20:21Z</time>
      </trkpt>
      <trkpt lat="44.27942" lon="5.78642">
        <ele>583</ele>
        <time>2019-06-04T07:20:22Z</time>
      </trkpt>
      <trkpt lat="44.27946" lon="5.78634">
        <ele>582</ele>
        <time>2019-06-04T07:20:23Z</time>
      </trkpt>
      <trkpt lat="44.2795" lon="5.78626">
        <ele>582</ele>
        <time>2019-06-04T07:20:24Z</time>
      </trkpt>
      <trkpt lat="44.27953" lon="5.78617">
        <ele>582</ele>
        <time>2019-06-04T07:20:25Z</time>
      </trkpt>
      <trkpt lat="44.27957" lon="5.78608">
        <ele>581</ele>
        <time>2019-06-04T07:20:26Z</time>
      </trkpt>
      <trkpt lat="44.2796" lon="5.786">
        <ele>580</ele>
        <time>2019-06-04T07:20:27Z</time>
      </trkpt>
      <trkpt lat="44.27962" lon="5.7859">
        <ele>579</ele>
        <time>2019-06-04T07:20:28Z</time>
      </trkpt>
      <trkpt lat="44.27963" lon="5.7858">
        <ele>578</ele>
        <time>2019-06-04T07:20:29Z</time>
      </trkpt>
      <trkpt lat="44.27964" lon="5.7857">
        <ele>577</ele>
        <time>2019-06-04T07:20:30Z</time>
      </trkpt>
      <trkpt lat="44.27964" lon="5.78559">
        <ele>576</ele>
        <time>2019-06-04T07:20:31Z</time>
      </trkpt>
      <trkpt lat="44.27964" lon="5.7855">
        <ele>576</ele>
        <time>2019-06-04T07:20:32Z</time>
      </trkpt>
      <trkpt lat="44.27965" lon="5.78541">
        <ele>576</ele>
        <time>2019-06-04T07:20:33Z</time>
      </trkpt>
      <trkpt lat="44.27966" lon="5.78532">
        <ele>576</ele>
        <time>2019-06-04T07:20:34Z</time>
      </trkpt>
      <trkpt lat="44.27966" lon="5.78523">
        <ele>576</ele>
        <time>2019-06-04T07:20:35Z</time>
      </trkpt>
      <trkpt lat="44.27966" lon="5.78514">
        <ele>576</ele>
        <time>2019-06-04T07:20:36Z</time>
      </trkpt>
      <trkpt lat="44.27965" lon="5.78505">
        <ele>575</ele>
        <time>2019-06-04T07:20:37Z</time>
      </trkpt>
      <trkpt lat="44.27965" lon="5.78497">
        <ele>574</ele>
        <time>2019-06-04T07:20:38Z</time>
      </trkpt>
      <trkpt lat="44.27965" lon="5.78489">
        <ele>574</ele>
        <time>2019-06-04T07:20:39Z</time>
      </trkpt>
      <trkpt lat="44.27964" lon="5.78481">
        <ele>573</ele>
        <time>2019-06-04T07:20:40Z</time>
      </trkpt>
      <trkpt lat="44.27964" lon="5.78472">
        <ele>572</ele>
        <time>2019-06-04T07:20:41Z</time>
      </trkpt>
      <trkpt lat="44.27963" lon="5.78464">
        <ele>571</ele>
        <time>2019-06-04T07:20:42Z</time>
      </trkpt>
      <trkpt lat="44.27963" lon="5.78456">
        <ele>570</ele>
        <time>2019-06-04T07:20:43Z</time>
      </trkpt>
      <trkpt lat="44.27961" lon="5.78448">
        <ele>569</ele>
        <time>2019-06-04T07:20:44Z</time>
      </trkpt>
      <trkpt lat="44.27961" lon="5.7844">
        <ele>568</ele>
        <time>2019-06-04T07:20:45Z</time>
      </trkpt>
      <trkpt lat="44.27959" lon="5.78432">
        <ele>567</ele>
        <time>2019-06-04T07:20:46Z</time>
      </trkpt>
      <trkpt lat="44.27958" lon="5.78424">
        <ele>567</ele>
        <time>2019-06-04T07:20:47Z</time>
      </trkpt>
      <trkpt lat="44.27957" lon="5.78415">
        <ele>567</ele>
        <time>2019-06-04T07:20:48Z</time>
      </trkpt>
      <trkpt lat="44.27956" lon="5.78407">
        <ele>567</ele>
        <time>2019-06-04T07:20:49Z</time>
      </trkpt>
      <trkpt lat="44.27954" lon="5.78399">
        <ele>567</ele>
        <time>2019-06-04T07:20:50Z</time>
      </trkpt>
      <trkpt lat="44.27952" lon="5.7839">
        <ele>567</ele>
        <time>2019-06-04T07:20:51Z</time>
      </trkpt>
      <trkpt lat="44.27951" lon="5.78382">
        <ele>567</ele>
        <time>2019-06-04T07:20:52Z</time>
      </trkpt>
      <trkpt lat="44.27948" lon="5.78374">
        <ele>567</ele>
        <time>2019-06-04T07:20:53Z</time>
      </trkpt>
      <trkpt lat="44.27946" lon="5.78365">
        <ele>567</ele>
        <time>2019-06-04T07:20:54Z</time>
      </trkpt>
      <trkpt lat="44.27945" lon="5.78357">
        <ele>567</ele>
        <time>2019-06-04T07:20:55Z</time>
      </trkpt>
      <trkpt lat="44.27943" lon="5.78348">
        <ele>567</ele>
        <time>2019-06-04T07:20:56Z</time>
      </trkpt>
      <trkpt lat="44.27941" lon="5.7834">
        <ele>567</ele>
        <time>2019-06-04T07:20:57Z</time>
      </trkpt>
      <trkpt lat="44.2794" lon="5.78332">
        <ele>567</ele>
        <time>2019-06-04T07:20:58Z</time>
      </trkpt>
      <trkpt lat="44.27939" lon="5.78324">
        <ele>567</ele>
        <time>2019-06-04T07:20:59Z</time>
      </trkpt>
      <trkpt lat="44.27937" lon="5.78316">
        <ele>567</ele>
        <time>2019-06-04T07:21:00Z</time>
      </trkpt>
      <trkpt lat="44.27936" lon="5.78308">
        <ele>567</ele>
        <time>2019-06-04T07:21:01Z</time>
      </trkpt>
      <trkpt lat="44.27934" lon="5.783">
        <ele>567</ele>
        <time>2019-06-04T07:21:02Z</time>
      </trkpt>
      <trkpt lat="44.27932" lon="5.78292">
        <ele>567</ele>
        <time>2019-06-04T07:21:03Z</time>
      </trkpt>
      <trkpt lat="44.2793" lon="5.78284">
        <ele>567</ele>
        <time>2019-06-04T07:21:04Z</time>
      </trkpt>
      <trkpt lat="44.27927" lon="5.78275">
        <ele>567</ele>
        <time>2019-06-04T07:21:05Z</time>
      </trkpt>
      <trkpt lat="44.27924" lon="5.78268">
        <ele>567</ele>
        <time>2019-06-04T07:21:06Z</time>
      </trkpt>
      <trkpt lat="44.2792" lon="5.78261">
        <ele>568</ele>
        <time>2019-06-04T07:21:07Z</time>
      </trkpt>
      <trkpt lat="44.27916" lon="5.78254">
        <ele>568</ele>
        <time>2019-06-04T07:21:08Z</time>
      </trkpt>
      <trkpt lat="44.27911" lon="5.78247">
        <ele>569</ele>
        <time>2019-06-04T07:21:09Z</time>
      </trkpt>
      <trkpt lat="44.27906" lon="5.7824">
        <ele>570</ele>
        <time>2019-06-04T07:21:10Z</time>
      </trkpt>
      <trkpt lat="44.27902" lon="5.78233">
        <ele>571</ele>
        <time>2019-06-04T07:21:11Z</time>
      </trkpt>
      <trkpt lat="44.27898" lon="5.78227">
        <ele>572</ele>
        <time>2019-06-04T07:21:12Z</time>
      </trkpt>
      <trkpt lat="44.27894" lon="5.7822">
        <ele>573</ele>
        <time>2019-06-04T07:21:13Z</time>
      </trkpt>
      <trkpt lat="44.2789" lon="5.78213">
        <ele>573</ele>
        <time>2019-06-04T07:21:14Z</time>
      </trkpt>
      <trkpt lat="44.27887" lon="5.78206">
        <ele>573</ele>
        <time>2019-06-04T07:21:15Z</time>
      </trkpt>
      <trkpt lat="44.27883" lon="5.782">
        <ele>573</ele>
        <time>2019-06-04T07:21:16Z</time>
      </trkpt>
      <trkpt lat="44.27879" lon="5.78194">
        <ele>573</ele>
        <time>2019-06-04T07:21:17Z</time>
      </trkpt>
      <trkpt lat="44.27874" lon="5.7819">
        <ele>573</ele>
        <time>2019-06-04T07:21:18Z</time>
      </trkpt>
      <trkpt lat="44.27868" lon="5.78186">
        <ele>573</ele>
        <time>2019-06-04T07:21:19Z</time>
      </trkpt>
      <trkpt lat="44.27863" lon="5.78183">
        <ele>573</ele>
        <time>2019-06-04T07:21:21Z</time>
      </trkpt>
      <trkpt lat="44.27857" lon="5.78181">
        <ele>573</ele>
        <time>2019-06-04T07:21:21Z</time>
      </trkpt>
      <trkpt lat="44.27851" lon="5.78179">
        <ele>573</ele>
        <time>2019-06-04T07:21:22Z</time>
      </trkpt>
      <trkpt lat="44.27845" lon="5.78179">
        <ele>573</ele>
        <time>2019-06-04T07:21:23Z</time>
      </trkpt>
      <trkpt lat="44.27839" lon="5.78179">
        <ele>573</ele>
        <time>2019-06-04T07:21:24Z</time>
      </trkpt>
      <trkpt lat="44.27833" lon="5.78181">
        <ele>573</ele>
        <time>2019-06-04T07:21:25Z</time>
      </trkpt>
      <trkpt lat="44.27827" lon="5.78183">
        <ele>573</ele>
        <time>2019-06-04T07:21:26Z</time>
      </trkpt>
      <trkpt lat="44.27821" lon="5.78186">
        <ele>573</ele>
        <time>2019-06-04T07:21:27Z</time>
      </trkpt>
      <trkpt lat="44.27815" lon="5.7819">
        <ele>573</ele>
        <time>2019-06-04T07:21:28Z</time>
      </trkpt>
      <trkpt lat="44.2781" lon="5.78194">
        <ele>573</ele>
        <time>2019-06-04T07:21:29Z</time>
      </trkpt>
      <trkpt lat="44.27804" lon="5.78197">
        <ele>574</ele>
        <time>2019-06-04T07:21:30Z</time>
      </trkpt>
      <trkpt lat="44.27798" lon="5.78201">
        <ele>574</ele>
        <time>2019-06-04T07:21:31Z</time>
      </trkpt>
      <trkpt lat="44.27794" lon="5.78206">
        <ele>574</ele>
        <time>2019-06-04T07:21:32Z</time>
      </trkpt>
      <trkpt lat="44.27789" lon="5.7821">
        <ele>575</ele>
        <time>2019-06-04T07:21:33Z</time>
      </trkpt>
      <trkpt lat="44.27784" lon="5.78216">
        <ele>575</ele>
        <time>2019-06-04T07:21:34Z</time>
      </trkpt>
      <trkpt lat="44.27779" lon="5.7822">
        <ele>575</ele>
        <time>2019-06-04T07:21:35Z</time>
      </trkpt>
      <trkpt lat="44.27774" lon="5.78226">
        <ele>576</ele>
        <time>2019-06-04T07:21:36Z</time>
      </trkpt>
      <trkpt lat="44.27769" lon="5.78231">
        <ele>576</ele>
        <time>2019-06-04T07:21:37Z</time>
      </trkpt>
      <trkpt lat="44.27764" lon="5.78236">
        <ele>577</ele>
        <time>2019-06-04T07:21:38Z</time>
      </trkpt>
      <trkpt lat="44.2776" lon="5.78242">
        <ele>577</ele>
        <time>2019-06-04T07:21:39Z</time>
      </trkpt>
      <trkpt lat="44.27755" lon="5.78248">
        <ele>577</ele>
        <time>2019-06-04T07:21:40Z</time>
      </trkpt>
      <trkpt lat="44.27751" lon="5.78254">
        <ele>578</ele>
        <time>2019-06-04T07:21:41Z</time>
      </trkpt>
      <trkpt lat="44.27747" lon="5.78259">
        <ele>578</ele>
        <time>2019-06-04T07:21:42Z</time>
      </trkpt>
      <trkpt lat="44.27742" lon="5.78265">
        <ele>579</ele>
        <time>2019-06-04T07:21:43Z</time>
      </trkpt>
      <trkpt lat="44.27737" lon="5.78271">
        <ele>579</ele>
        <time>2019-06-04T07:21:44Z</time>
      </trkpt>
      <trkpt lat="44.27732" lon="5.78277">
        <ele>579</ele>
        <time>2019-06-04T07:21:45Z</time>
      </trkpt>
      <trkpt lat="44.27727" lon="5.78282">
        <ele>580</ele>
        <time>2019-06-04T07:21:46Z</time>
      </trkpt>
      <trkpt lat="44.27722" lon="5.78288">
        <ele>580</ele>
        <time>2019-06-04T07:21:47Z</time>
      </trkpt>
      <trkpt lat="44.27717" lon="5.78293">
        <ele>580</ele>
        <time>2019-06-04T07:21:48Z</time>
      </trkpt>
      <trkpt lat="44.27713" lon="5.78299">
        <ele>580</ele>
        <time>2019-06-04T07:21:49Z</time>
      </trkpt>
      <trkpt lat="44.27708" lon="5.78304">
        <ele>580</ele>
        <time>2019-06-04T07:21:50Z</time>
      </trkpt>
      <trkpt lat="44.27703" lon="5.7831">
        <ele>580</ele>
        <time>2019-06-04T07:21:51Z</time>
      </trkpt>
      <trkpt lat="44.27699" lon="5.78315">
        <ele>581</ele>
        <time>2019-06-04T07:21:52Z</time>
      </trkpt>
      <trkpt lat="44.27694" lon="5.7832">
        <ele>581</ele>
        <time>2019-06-04T07:21:53Z</time>
      </trkpt>
      <trkpt lat="44.27689" lon="5.78325">
        <ele>581</ele>
        <time>2019-06-04T07:21:54Z</time>
      </trkpt>
      <trkpt lat="44.27685" lon="5.7833">
        <ele>582</ele>
        <time>2019-06-04T07:21:55Z</time>
      </trkpt>
      <trkpt lat="44.27682" lon="5.78333">
        <ele>582</ele>
        <time>2019-06-04T07:21:56Z</time>
      </trkpt>
      <trkpt lat="44.27676" lon="5.78338">
        <ele>582</ele>
        <time>2019-06-04T07:21:57Z</time>
      </trkpt>
      <trkpt lat="44.27672" lon="5.7834">
        <ele>582</ele>
        <time>2019-06-04T07:21:58Z</time>
      </trkpt>
      <trkpt lat="44.27666" lon="5.78344">
        <ele>583</ele>
        <time>2019-06-04T07:21:59Z</time>
      </trkpt>
      <trkpt lat="44.27657" lon="5.7835">
        <ele>583</ele>
        <time>2019-06-04T07:22:00Z</time>
      </trkpt>
      <trkpt lat="44.2765" lon="5.78355">
        <ele>583</ele>
        <time>2019-06-04T07:22:01Z</time>
      </trkpt>
      <trkpt lat="44.27647" lon="5.78358">
        <ele>583</ele>
        <time>2019-06-04T07:22:02Z</time>
      </trkpt>
      <trkpt lat="44.27644" lon="5.78361">
        <ele>583</ele>
        <time>2019-06-04T07:22:03Z</time>
      </trkpt>
      <trkpt lat="44.27639" lon="5.78364">
        <ele>583</ele>
        <time>2019-06-04T07:22:04Z</time>
      </trkpt>
      <trkpt lat="44.27636" lon="5.78366">
        <ele>583</ele>
        <time>2019-06-04T07:22:05Z</time>
      </trkpt>
      <trkpt lat="44.27632" lon="5.78369">
        <ele>584</ele>
        <time>2019-06-04T07:22:06Z</time>
      </trkpt>
      <trkpt lat="44.27628" lon="5.78373">
        <ele>585</ele>
        <time>2019-06-04T07:22:07Z</time>
      </trkpt>
      <trkpt lat="44.27624" lon="5.78377">
        <ele>585</ele>
        <time>2019-06-04T07:22:08Z</time>
      </trkpt>
      <trkpt lat="44.2762" lon="5.78381">
        <ele>586</ele>
        <time>2019-06-04T07:22:09Z</time>
      </trkpt>
      <trkpt lat="44.27617" lon="5.78383">
        <ele>587</ele>
        <time>2019-06-04T07:22:10Z</time>
      </trkpt>
      <trkpt lat="44.27615" lon="5.78384">
        <ele>588</ele>
        <time>2019-06-04T07:22:11Z</time>
      </trkpt>
      <trkpt lat="44.2761" lon="5.78387">
        <ele>589</ele>
        <time>2019-06-04T07:22:12Z</time>
      </trkpt>
      <trkpt lat="44.27603" lon="5.78392">
        <ele>590</ele>
        <time>2019-06-04T07:22:13Z</time>
      </trkpt>
      <trkpt lat="44.27597" lon="5.78396">
        <ele>590</ele>
        <time>2019-06-04T07:22:14Z</time>
      </trkpt>
      <trkpt lat="44.2759" lon="5.784">
        <ele>590</ele>
        <time>2019-06-04T07:22:15Z</time>
      </trkpt>
      <trkpt lat="44.27583" lon="5.78405">
        <ele>590</ele>
        <time>2019-06-04T07:22:16Z</time>
      </trkpt>
      <trkpt lat="44.27576" lon="5.78409">
        <ele>591</ele>
        <time>2019-06-04T07:22:17Z</time>
      </trkpt>
      <trkpt lat="44.27569" lon="5.78413">
        <ele>591</ele>
        <time>2019-06-04T07:22:18Z</time>
      </trkpt>
      <trkpt lat="44.27563" lon="5.78416">
        <ele>591</ele>
        <time>2019-06-04T07:22:19Z</time>
      </trkpt>
      <trkpt lat="44.27556" lon="5.78418">
        <ele>591</ele>
        <time>2019-06-04T07:22:20Z</time>
      </trkpt>
      <trkpt lat="44.27551" lon="5.78418">
        <ele>591</ele>
        <time>2019-06-04T07:22:21Z</time>
      </trkpt>
      <trkpt lat="44.27545" lon="5.78416">
        <ele>591</ele>
        <time>2019-06-04T07:22:22Z</time>
      </trkpt>
      <trkpt lat="44.27539" lon="5.78415">
        <ele>591</ele>
        <time>2019-06-04T07:22:23Z</time>
      </trkpt>
      <trkpt lat="44.27534" lon="5.78411">
        <ele>591</ele>
        <time>2019-06-04T07:22:24Z</time>
      </trkpt>
      <trkpt lat="44.27529" lon="5.78409">
        <ele>591</ele>
        <time>2019-06-04T07:22:25Z</time>
      </trkpt>
      <trkpt lat="44.27523" lon="5.78407">
        <ele>591</ele>
        <time>2019-06-04T07:22:26Z</time>
      </trkpt>
      <trkpt lat="44.27518" lon="5.78404">
        <ele>591</ele>
        <time>2019-06-04T07:22:27Z</time>
      </trkpt>
      <trkpt lat="44.27512" lon="5.78401">
        <ele>591</ele>
        <time>2019-06-04T07:22:28Z</time>
      </trkpt>
      <trkpt lat="44.27507" lon="5.78398">
        <ele>591</ele>
        <time>2019-06-04T07:22:29Z</time>
      </trkpt>
      <trkpt lat="44.27502" lon="5.78394">
        <ele>591</ele>
        <time>2019-06-04T07:22:30Z</time>
      </trkpt>
      <trkpt lat="44.27497" lon="5.78389">
        <ele>591</ele>
        <time>2019-06-04T07:22:31Z</time>
      </trkpt>
      <trkpt lat="44.27492" lon="5.78385">
        <ele>591</ele>
        <time>2019-06-04T07:22:32Z</time>
      </trkpt>
      <trkpt lat="44.27488" lon="5.7838">
        <ele>591</ele>
        <time>2019-06-04T07:22:33Z</time>
      </trkpt>
      <trkpt lat="44.27483" lon="5.78374">
        <ele>591</ele>
        <time>2019-06-04T07:22:34Z</time>
      </trkpt>
      <trkpt lat="44.27479" lon="5.78368">
        <ele>591</ele>
        <time>2019-06-04T07:22:35Z</time>
      </trkpt>
      <trkpt lat="44.27475" lon="5.78362">
        <ele>591</ele>
        <time>2019-06-04T07:22:36Z</time>
      </trkpt>
      <trkpt lat="44.27473" lon="5.78356">
        <ele>591</ele>
        <time>2019-06-04T07:22:37Z</time>
      </trkpt>
      <trkpt lat="44.27469" lon="5.78354">
        <ele>592</ele>
        <time>2019-06-04T07:22:38Z</time>
      </trkpt>
      <trkpt lat="44.27468" lon="5.78348">
        <ele>593</ele>
        <time>2019-06-04T07:22:39Z</time>
      </trkpt>
      <trkpt lat="44.2747" lon="5.78343">
        <ele>594</ele>
        <time>2019-06-04T07:22:40Z</time>
      </trkpt>
      <trkpt lat="44.27473" lon="5.78337">
        <ele>595</ele>
        <time>2019-06-04T07:22:41Z</time>
      </trkpt>
      <trkpt lat="44.27475" lon="5.78332">
        <ele>596</ele>
        <time>2019-06-04T07:22:42Z</time>
      </trkpt>
      <trkpt lat="44.27478" lon="5.78328">
        <ele>597</ele>
        <time>2019-06-04T07:22:43Z</time>
      </trkpt>
      <trkpt lat="44.27482" lon="5.78323">
        <ele>598</ele>
        <time>2019-06-04T07:22:44Z</time>
      </trkpt>
      <trkpt lat="44.2749" lon="5.78313">
        <ele>599</ele>
        <time>2019-06-04T07:22:46Z</time>
      </trkpt>
      <trkpt lat="44.27494" lon="5.78307">
        <ele>600</ele>
        <time>2019-06-04T07:22:47Z</time>
      </trkpt>
      <trkpt lat="44.27499" lon="5.78303">
        <ele>601</ele>
        <time>2019-06-04T07:22:48Z</time>
      </trkpt>
      <trkpt lat="44.27504" lon="5.78298">
        <ele>602</ele>
        <time>2019-06-04T07:22:49Z</time>
      </trkpt>
      <trkpt lat="44.2751" lon="5.78293">
        <ele>603</ele>
        <time>2019-06-04T07:22:50Z</time>
      </trkpt>
      <trkpt lat="44.27515" lon="5.78288">
        <ele>604</ele>
        <time>2019-06-04T07:22:51Z</time>
      </trkpt>
      <trkpt lat="44.2752" lon="5.78283">
        <ele>605</ele>
        <time>2019-06-04T07:22:52Z</time>
      </trkpt>
      <trkpt lat="44.27524" lon="5.78278">
        <ele>606</ele>
        <time>2019-06-04T07:22:53Z</time>
      </trkpt>
      <trkpt lat="44.27528" lon="5.78273">
        <ele>607</ele>
        <time>2019-06-04T07:22:54Z</time>
      </trkpt>
      <trkpt lat="44.27535" lon="5.78258">
        <ele>608</ele>
        <time>2019-06-04T07:22:56Z</time>
      </trkpt>
      <trkpt lat="44.27537" lon="5.78249">
        <ele>609</ele>
        <time>2019-06-04T07:22:57Z</time>
      </trkpt>
      <trkpt lat="44.27541" lon="5.78242">
        <ele>609</ele>
        <time>2019-06-04T07:22:58Z</time>
      </trkpt>
      <trkpt lat="44.27546" lon="5.78237">
        <ele>609</ele>
        <time>2019-06-04T07:22:59Z</time>
      </trkpt>
      <trkpt lat="44.27548" lon="5.78229">
        <ele>609</ele>
        <time>2019-06-04T07:23:00Z</time>
      </trkpt>
      <trkpt lat="44.27548" lon="5.7822">
        <ele>609</ele>
        <time>2019-06-04T07:23:01Z</time>
      </trkpt>
      <trkpt lat="44.27548" lon="5.78211">
        <ele>608</ele>
        <time>2019-06-04T07:23:02Z</time>
      </trkpt>
      <trkpt lat="44.27546" lon="5.78203">
        <ele>607</ele>
        <time>2019-06-04T07:23:03Z</time>
      </trkpt>
      <trkpt lat="44.27544" lon="5.78195">
        <ele>606</ele>
        <time>2019-06-04T07:23:04Z</time>
      </trkpt>
      <trkpt lat="44.27542" lon="5.78187">
        <ele>605</ele>
        <time>2019-06-04T07:23:05Z</time>
      </trkpt>
      <trkpt lat="44.27538" lon="5.7818">
        <ele>604</ele>
        <time>2019-06-04T07:23:06Z</time>
      </trkpt>
      <trkpt lat="44.27534" lon="5.78172">
        <ele>603</ele>
        <time>2019-06-04T07:23:07Z</time>
      </trkpt>
      <trkpt lat="44.2753" lon="5.78165">
        <ele>602</ele>
        <time>2019-06-04T07:23:08Z</time>
      </trkpt>
      <trkpt lat="44.27525" lon="5.78159">
        <ele>601</ele>
        <time>2019-06-04T07:23:09Z</time>
      </trkpt>
      <trkpt lat="44.2752" lon="5.78153">
        <ele>601</ele>
        <time>2019-06-04T07:23:10Z</time>
      </trkpt>
      <trkpt lat="44.27516" lon="5.78147">
        <ele>601</ele>
        <time>2019-06-04T07:23:11Z</time>
      </trkpt>
      <trkpt lat="44.27512" lon="5.78141">
        <ele>601</ele>
        <time>2019-06-04T07:23:12Z</time>
      </trkpt>
      <trkpt lat="44.27507" lon="5.78135">
        <ele>601</ele>
        <time>2019-06-04T07:23:13Z</time>
      </trkpt>
      <trkpt lat="44.27502" lon="5.7813">
        <ele>600</ele>
        <time>2019-06-04T07:23:14Z</time>
      </trkpt>
      <trkpt lat="44.27497" lon="5.78124">
        <ele>600</ele>
        <time>2019-06-04T07:23:15Z</time>
      </trkpt>
      <trkpt lat="44.27493" lon="5.78119">
        <ele>600</ele>
        <time>2019-06-04T07:23:16Z</time>
      </trkpt>
      <trkpt lat="44.27488" lon="5.78113">
        <ele>600</ele>
        <time>2019-06-04T07:23:17Z</time>
      </trkpt>
      <trkpt lat="44.27483" lon="5.78107">
        <ele>600</ele>
        <time>2019-06-04T07:23:18Z</time>
      </trkpt>
      <trkpt lat="44.27478" lon="5.78101">
        <ele>600</ele>
        <time>2019-06-04T07:23:19Z</time>
      </trkpt>
      <trkpt lat="44.27473" lon="5.78096">
        <ele>600</ele>
        <time>2019-06-04T07:23:20Z</time>
      </trkpt>
      <trkpt lat="44.27468" lon="5.7809">
        <ele>600</ele>
        <time>2019-06-04T07:23:21Z</time>
      </trkpt>
      <trkpt lat="44.27463" lon="5.78085">
        <ele>600</ele>
        <time>2019-06-04T07:23:22Z</time>
      </trkpt>
      <trkpt lat="44.27458" lon="5.7808">
        <ele>600</ele>
        <time>2019-06-04T07:23:23Z</time>
      </trkpt>
      <trkpt lat="44.27453" lon="5.78074">
        <ele>600</ele>
        <time>2019-06-04T07:23:24Z</time>
      </trkpt>
      <trkpt lat="44.27448" lon="5.78069">
        <ele>600</ele>
        <time>2019-06-04T07:23:25Z</time>
      </trkpt>
      <trkpt lat="44.27443" lon="5.78064">
        <ele>600</ele>
        <time>2019-06-04T07:23:26Z</time>
      </trkpt>
      <trkpt lat="44.27437" lon="5.78058">
        <ele>600</ele>
        <time>2019-06-04T07:23:27Z</time>
      </trkpt>
      <trkpt lat="44.27432" lon="5.78052">
        <ele>600</ele>
        <time>2019-06-04T07:23:28Z</time>
      </trkpt>
      <trkpt lat="44.27428" lon="5.78045">
        <ele>600</ele>
        <time>2019-06-04T07:23:29Z</time>
      </trkpt>
      <trkpt lat="44.27423" lon="5.78038">
        <ele>600</ele>
        <time>2019-06-04T07:23:30Z</time>
      </trkpt>
      <trkpt lat="44.27419" lon="5.78031">
        <ele>600</ele>
        <time>2019-06-04T07:23:31Z</time>
      </trkpt>
      <trkpt lat="44.27415" lon="5.78023">
        <ele>600</ele>
        <time>2019-06-04T07:23:32Z</time>
      </trkpt>
      <trkpt lat="44.27413" lon="5.78015">
        <ele>600</ele>
        <time>2019-06-04T07:23:33Z</time>
      </trkpt>
      <trkpt lat="44.27411" lon="5.78007">
        <ele>600</ele>
        <time>2019-06-04T07:23:34Z</time>
      </trkpt>
      <trkpt lat="44.27409" lon="5.77998">
        <ele>600</ele>
        <time>2019-06-04T07:23:35Z</time>
      </trkpt>
      <trkpt lat="44.27409" lon="5.7799">
        <ele>600</ele>
        <time>2019-06-04T07:23:36Z</time>
      </trkpt>
      <trkpt lat="44.27408" lon="5.77981">
        <ele>600</ele>
        <time>2019-06-04T07:23:37Z</time>
      </trkpt>
      <trkpt lat="44.27409" lon="5.77972">
        <ele>600</ele>
        <time>2019-06-04T07:23:38Z</time>
      </trkpt>
      <trkpt lat="44.27409" lon="5.77963">
        <ele>600</ele>
        <time>2019-06-04T07:23:39Z</time>
      </trkpt>
      <trkpt lat="44.27409" lon="5.77953">
        <ele>600</ele>
        <time>2019-06-04T07:23:40Z</time>
      </trkpt>
      <trkpt lat="44.27408" lon="5.77944">
        <ele>600</ele>
        <time>2019-06-04T07:23:41Z</time>
      </trkpt>
      <trkpt lat="44.27407" lon="5.77935">
        <ele>600</ele>
        <time>2019-06-04T07:23:42Z</time>
      </trkpt>
      <trkpt lat="44.27406" lon="5.77928">
        <ele>600</ele>
        <time>2019-06-04T07:23:43Z</time>
      </trkpt>
      <trkpt lat="44.27404" lon="5.77921">
        <ele>600</ele>
        <time>2019-06-04T07:23:44Z</time>
      </trkpt>
      <trkpt lat="44.27401" lon="5.77914">
        <ele>599</ele>
        <time>2019-06-04T07:23:45Z</time>
      </trkpt>
      <trkpt lat="44.27397" lon="5.77907">
        <ele>598</ele>
        <time>2019-06-04T07:23:46Z</time>
      </trkpt>
      <trkpt lat="44.27393" lon="5.779">
        <ele>598</ele>
        <time>2019-06-04T07:23:47Z</time>
      </trkpt>
      <trkpt lat="44.27388" lon="5.77894">
        <ele>598</ele>
        <time>2019-06-04T07:23:48Z</time>
      </trkpt>
      <trkpt lat="44.27383" lon="5.77888">
        <ele>598</ele>
        <time>2019-06-04T07:23:49Z</time>
      </trkpt>
      <trkpt lat="44.27378" lon="5.77881">
        <ele>598</ele>
        <time>2019-06-04T07:23:50Z</time>
      </trkpt>
      <trkpt lat="44.27373" lon="5.77876">
        <ele>598</ele>
        <time>2019-06-04T07:23:51Z</time>
      </trkpt>
      <trkpt lat="44.27367" lon="5.7787">
        <ele>598</ele>
        <time>2019-06-04T07:23:52Z</time>
      </trkpt>
      <trkpt lat="44.27362" lon="5.77863">
        <ele>598</ele>
        <time>2019-06-04T07:23:53Z</time>
      </trkpt>
      <trkpt lat="44.27357" lon="5.77856">
        <ele>598</ele>
        <time>2019-06-04T07:23:54Z</time>
      </trkpt>
      <trkpt lat="44.27352" lon="5.7785">
        <ele>598</ele>
        <time>2019-06-04T07:23:55Z</time>
      </trkpt>
      <trkpt lat="44.27347" lon="5.77844">
        <ele>598</ele>
        <time>2019-06-04T07:23:56Z</time>
      </trkpt>
      <trkpt lat="44.27342" lon="5.7784">
        <ele>598</ele>
        <time>2019-06-04T07:23:57Z</time>
      </trkpt>
      <trkpt lat="44.27337" lon="5.77836">
        <ele>598</ele>
        <time>2019-06-04T07:23:58Z</time>
      </trkpt>
      <trkpt lat="44.27331" lon="5.77831">
        <ele>598</ele>
        <time>2019-06-04T07:23:59Z</time>
      </trkpt>
      <trkpt lat="44.27326" lon="5.77826">
        <ele>598</ele>
        <time>2019-06-04T07:24:00Z</time>
      </trkpt>
      <trkpt lat="44.2732" lon="5.77823">
        <ele>599</ele>
        <time>2019-06-04T07:24:01Z</time>
      </trkpt>
      <trkpt lat="44.27314" lon="5.77819">
        <ele>599</ele>
        <time>2019-06-04T07:24:02Z</time>
      </trkpt>
      <trkpt lat="44.27309" lon="5.77814">
        <ele>600</ele>
        <time>2019-06-04T07:24:03Z</time>
      </trkpt>
      <trkpt lat="44.27304" lon="5.77808">
        <ele>600</ele>
        <time>2019-06-04T07:24:04Z</time>
      </trkpt>
      <trkpt lat="44.273" lon="5.77801">
        <ele>600</ele>
        <time>2019-06-04T07:24:05Z</time>
      </trkpt>
      <trkpt lat="44.27297" lon="5.77793">
        <ele>600</ele>
        <time>2019-06-04T07:24:06Z</time>
      </trkpt>
      <trkpt lat="44.27296" lon="5.77783">
        <ele>600</ele>
        <time>2019-06-04T07:24:07Z</time>
      </trkpt>
      <trkpt lat="44.27296" lon="5.77773">
        <ele>600</ele>
        <time>2019-06-04T07:24:08Z</time>
      </trkpt>
      <trkpt lat="44.27297" lon="5.77762">
        <ele>600</ele>
        <time>2019-06-04T07:24:09Z</time>
      </trkpt>
      <trkpt lat="44.27296" lon="5.77752">
        <ele>600</ele>
        <time>2019-06-04T07:24:10Z</time>
      </trkpt>
      <trkpt lat="44.27293" lon="5.77743">
        <ele>600</ele>
        <time>2019-06-04T07:24:11Z</time>
      </trkpt>
      <trkpt lat="44.2729" lon="5.77735">
        <ele>600</ele>
        <time>2019-06-04T07:24:12Z</time>
      </trkpt>
      <trkpt lat="44.27284" lon="5.7773">
        <ele>600</ele>
        <time>2019-06-04T07:24:13Z</time>
      </trkpt>
      <trkpt lat="44.27279" lon="5.77726">
        <ele>600</ele>
        <time>2019-06-04T07:24:14Z</time>
      </trkpt>
      <trkpt lat="44.27273" lon="5.77723">
        <ele>599</ele>
        <time>2019-06-04T07:24:15Z</time>
      </trkpt>
      <trkpt lat="44.27267" lon="5.77724">
        <ele>598</ele>
        <time>2019-06-04T07:24:16Z</time>
      </trkpt>
      <trkpt lat="44.27261" lon="5.77726">
        <ele>598</ele>
        <time>2019-06-04T07:24:17Z</time>
      </trkpt>
      <trkpt lat="44.27255" lon="5.77727">
        <ele>598</ele>
        <time>2019-06-04T07:24:18Z</time>
      </trkpt>
      <trkpt lat="44.2725" lon="5.7773">
        <ele>598</ele>
        <time>2019-06-04T07:24:19Z</time>
      </trkpt>
      <trkpt lat="44.27243" lon="5.77734">
        <ele>598</ele>
        <time>2019-06-04T07:24:20Z</time>
      </trkpt>
      <trkpt lat="44.27237" lon="5.77737">
        <ele>598</ele>
        <time>2019-06-04T07:24:21Z</time>
      </trkpt>
      <trkpt lat="44.2723" lon="5.77738">
        <ele>598</ele>
        <time>2019-06-04T07:24:22Z</time>
      </trkpt>
      <trkpt lat="44.27224" lon="5.77738">
        <ele>598</ele>
        <time>2019-06-04T07:24:23Z</time>
      </trkpt>
      <trkpt lat="44.27217" lon="5.77736">
        <ele>598</ele>
        <time>2019-06-04T07:24:24Z</time>
      </trkpt>
      <trkpt lat="44.27211" lon="5.77733">
        <ele>598</ele>
        <time>2019-06-04T07:24:25Z</time>
      </trkpt>
      <trkpt lat="44.27206" lon="5.77729">
        <ele>598</ele>
        <time>2019-06-04T07:24:26Z</time>
      </trkpt>
      <trkpt lat="44.272" lon="5.77725">
        <ele>598</ele>
        <time>2019-06-04T07:24:27Z</time>
      </trkpt>
      <trkpt lat="44.27195" lon="5.77721">
        <ele>598</ele>
        <time>2019-06-04T07:24:28Z</time>
      </trkpt>
      <trkpt lat="44.27189" lon="5.77717">
        <ele>598</ele>
        <time>2019-06-04T07:24:29Z</time>
      </trkpt>
      <trkpt lat="44.27184" lon="5.77713">
        <ele>598</ele>
        <time>2019-06-04T07:24:30Z</time>
      </trkpt>
      <trkpt lat="44.27178" lon="5.77709">
        <ele>598</ele>
        <time>2019-06-04T07:24:31Z</time>
      </trkpt>
      <trkpt lat="44.27172" lon="5.77704">
        <ele>598</ele>
        <time>2019-06-04T07:24:32Z</time>
      </trkpt>
      <trkpt lat="44.27167" lon="5.777">
        <ele>598</ele>
        <time>2019-06-04T07:24:33Z</time>
      </trkpt>
      <trkpt lat="44.27161" lon="5.77696">
        <ele>598</ele>
        <time>2019-06-04T07:24:34Z</time>
      </trkpt>
      <trkpt lat="44.27156" lon="5.77692">
        <ele>598</ele>
        <time>2019-06-04T07:24:35Z</time>
      </trkpt>
      <trkpt lat="44.27151" lon="5.77686">
        <ele>598</ele>
        <time>2019-06-04T07:24:36Z</time>
      </trkpt>
      <trkpt lat="44.27145" lon="5.77683">
        <ele>598</ele>
        <time>2019-06-04T07:24:37Z</time>
      </trkpt>
      <trkpt lat="44.2714" lon="5.7768">
        <ele>598</ele>
        <time>2019-06-04T07:24:38Z</time>
      </trkpt>
      <trkpt lat="44.27135" lon="5.77674">
        <ele>598</ele>
        <time>2019-06-04T07:24:39Z</time>
      </trkpt>
      <trkpt lat="44.27132" lon="5.77667">
        <ele>598</ele>
        <time>2019-06-04T07:24:40Z</time>
      </trkpt>
      <trkpt lat="44.27129" lon="5.7766">
        <ele>598</ele>
        <time>2019-06-04T07:24:41Z</time>
      </trkpt>
      <trkpt lat="44.27126" lon="5.77652">
        <ele>599</ele>
        <time>2019-06-04T07:24:42Z</time>
      </trkpt>
      <trkpt lat="44.27124" lon="5.77643">
        <ele>600</ele>
        <time>2019-06-04T07:24:43Z</time>
      </trkpt>
      <trkpt lat="44.27122" lon="5.77635">
        <ele>601</ele>
        <time>2019-06-04T07:24:44Z</time>
      </trkpt>
      <trkpt lat="44.27121" lon="5.77626">
        <ele>602</ele>
        <time>2019-06-04T07:24:45Z</time>
      </trkpt>
      <trkpt lat="44.2712" lon="5.77618">
        <ele>603</ele>
        <time>2019-06-04T07:24:46Z</time>
      </trkpt>
      <trkpt lat="44.27118" lon="5.77609">
        <ele>603</ele>
        <time>2019-06-04T07:24:47Z</time>
      </trkpt>
      <trkpt lat="44.27117" lon="5.77601">
        <ele>603</ele>
        <time>2019-06-04T07:24:48Z</time>
      </trkpt>
      <trkpt lat="44.27116" lon="5.77592">
        <ele>604</ele>
        <time>2019-06-04T07:24:49Z</time>
      </trkpt>
      <trkpt lat="44.27115" lon="5.77583">
        <ele>604</ele>
        <time>2019-06-04T07:24:50Z</time>
      </trkpt>
      <trkpt lat="44.27114" lon="5.77574">
        <ele>604</ele>
        <time>2019-06-04T07:24:51Z</time>
      </trkpt>
      <trkpt lat="44.27114" lon="5.77566">
        <ele>604</ele>
        <time>2019-06-04T07:24:52Z</time>
      </trkpt>
      <trkpt lat="44.27113" lon="5.77559">
        <ele>604</ele>
        <time>2019-06-04T07:24:53Z</time>
      </trkpt>
      <trkpt lat="44.27111" lon="5.77551">
        <ele>604</ele>
        <time>2019-06-04T07:24:54Z</time>
      </trkpt>
      <trkpt lat="44.27108" lon="5.77544">
        <ele>604</ele>
        <time>2019-06-04T07:24:55Z</time>
      </trkpt>
      <trkpt lat="44.27104" lon="5.77539">
        <ele>604</ele>
        <time>2019-06-04T07:24:56Z</time>
      </trkpt>
      <trkpt lat="44.271" lon="5.77534">
        <ele>604</ele>
        <time>2019-06-04T07:24:57Z</time>
      </trkpt>
      <trkpt lat="44.27096" lon="5.77528">
        <ele>604</ele>
        <time>2019-06-04T07:24:58Z</time>
      </trkpt>
      <trkpt lat="44.27092" lon="5.77522">
        <ele>605</ele>
        <time>2019-06-04T07:24:59Z</time>
      </trkpt>
      <trkpt lat="44.27089" lon="5.77516">
        <ele>606</ele>
        <time>2019-06-04T07:25:00Z</time>
      </trkpt>
      <trkpt lat="44.27085" lon="5.77509">
        <ele>607</ele>
        <time>2019-06-04T07:25:01Z</time>
      </trkpt>
      <trkpt lat="44.27081" lon="5.77503">
        <ele>608</ele>
        <time>2019-06-04T07:25:02Z</time>
      </trkpt>
      <trkpt lat="44.27076" lon="5.77497">
        <ele>609</ele>
        <time>2019-06-04T07:25:03Z</time>
      </trkpt>
      <trkpt lat="44.27071" lon="5.77493">
        <ele>610</ele>
        <time>2019-06-04T07:25:04Z</time>
      </trkpt>
      <trkpt lat="44.27066" lon="5.77491">
        <ele>611</ele>
        <time>2019-06-04T07:25:05Z</time>
      </trkpt>
      <trkpt lat="44.27061" lon="5.77489">
        <ele>612</ele>
        <time>2019-06-04T07:25:06Z</time>
      </trkpt>
      <trkpt lat="44.27055" lon="5.77488">
        <ele>612</ele>
        <time>2019-06-04T07:25:07Z</time>
      </trkpt>
      <trkpt lat="44.27049" lon="5.77489">
        <ele>612</ele>
        <time>2019-06-04T07:25:08Z</time>
      </trkpt>
      <trkpt lat="44.27043" lon="5.7749">
        <ele>612</ele>
        <time>2019-06-04T07:25:09Z</time>
      </trkpt>
      <trkpt lat="44.27036" lon="5.77492">
        <ele>612</ele>
        <time>2019-06-04T07:25:10Z</time>
      </trkpt>
      <trkpt lat="44.27032" lon="5.77489">
        <ele>613</ele>
        <time>2019-06-04T07:25:11Z</time>
      </trkpt>
      <trkpt lat="44.27029" lon="5.77484">
        <ele>613</ele>
        <time>2019-06-04T07:25:12Z</time>
      </trkpt>
      <trkpt lat="44.27026" lon="5.77476">
        <ele>613</ele>
        <time>2019-06-04T07:25:13Z</time>
      </trkpt>
      <trkpt lat="44.27022" lon="5.77468">
        <ele>613</ele>
        <time>2019-06-04T07:25:14Z</time>
      </trkpt>
      <trkpt lat="44.27018" lon="5.77461">
        <ele>613</ele>
        <time>2019-06-04T07:25:15Z</time>
      </trkpt>
      <trkpt lat="44.27013" lon="5.77457">
        <ele>613</ele>
        <time>2019-06-04T07:25:16Z</time>
      </trkpt>
      <trkpt lat="44.27007" lon="5.77454">
        <ele>613</ele>
        <time>2019-06-04T07:25:17Z</time>
      </trkpt>
      <trkpt lat="44.27001" lon="5.77451">
        <ele>613</ele>
        <time>2019-06-04T07:25:18Z</time>
      </trkpt>
      <trkpt lat="44.26996" lon="5.77444">
        <ele>613</ele>
        <time>2019-06-04T07:25:19Z</time>
      </trkpt>
      <trkpt lat="44.2699" lon="5.77443">
        <ele>613</ele>
        <time>2019-06-04T07:25:20Z</time>
      </trkpt>
      <trkpt lat="44.26984" lon="5.77443">
        <ele>613</ele>
        <time>2019-06-04T07:25:21Z</time>
      </trkpt>
      <trkpt lat="44.26978" lon="5.77443">
        <ele>613</ele>
        <time>2019-06-04T07:25:22Z</time>
      </trkpt>
      <trkpt lat="44.26972" lon="5.77445">
        <ele>613</ele>
        <time>2019-06-04T07:25:23Z</time>
      </trkpt>
      <trkpt lat="44.26966" lon="5.77448">
        <ele>613</ele>
        <time>2019-06-04T07:25:24Z</time>
      </trkpt>
      <trkpt lat="44.26961" lon="5.77452">
        <ele>613</ele>
        <time>2019-06-04T07:25:25Z</time>
      </trkpt>
      <trkpt lat="44.26956" lon="5.77456">
        <ele>613</ele>
        <time>2019-06-04T07:25:26Z</time>
      </trkpt>
      <trkpt lat="44.26949" lon="5.77459">
        <ele>613</ele>
        <time>2019-06-04T07:25:27Z</time>
      </trkpt>
      <trkpt lat="44.26944" lon="5.7746">
        <ele>613</ele>
        <time>2019-06-04T07:25:28Z</time>
      </trkpt>
      <trkpt lat="44.26937" lon="5.77462">
        <ele>613</ele>
        <time>2019-06-04T07:25:29Z</time>
      </trkpt>
      <trkpt lat="44.26931" lon="5.77464">
        <ele>613</ele>
        <time>2019-06-04T07:25:30Z</time>
      </trkpt>
      <trkpt lat="44.26927" lon="5.77467">
        <ele>613</ele>
        <time>2019-06-04T07:25:31Z</time>
      </trkpt>
      <trkpt lat="44.26922" lon="5.77471">
        <ele>613</ele>
        <time>2019-06-04T07:25:32Z</time>
      </trkpt>
      <trkpt lat="44.26918" lon="5.77473">
        <ele>613</ele>
        <time>2019-06-04T07:25:33Z</time>
      </trkpt>
      <trkpt lat="44.26913" lon="5.77478">
        <ele>613</ele>
        <time>2019-06-04T07:25:34Z</time>
      </trkpt>
      <trkpt lat="44.26908" lon="5.77483">
        <ele>613</ele>
        <time>2019-06-04T07:25:35Z</time>
      </trkpt>
      <trkpt lat="44.26903" lon="5.77487">
        <ele>613</ele>
        <time>2019-06-04T07:25:36Z</time>
      </trkpt>
      <trkpt lat="44.26897" lon="5.77492">
        <ele>613</ele>
        <time>2019-06-04T07:25:37Z</time>
      </trkpt>
      <trkpt lat="44.26891" lon="5.77498">
        <ele>613</ele>
        <time>2019-06-04T07:25:38Z</time>
      </trkpt>
      <trkpt lat="44.26885" lon="5.77504">
        <ele>613</ele>
        <time>2019-06-04T07:25:39Z</time>
      </trkpt>
      <trkpt lat="44.26879" lon="5.77509">
        <ele>613</ele>
        <time>2019-06-04T07:25:40Z</time>
      </trkpt>
      <trkpt lat="44.26872" lon="5.77514">
        <ele>613</ele>
        <time>2019-06-04T07:25:41Z</time>
      </trkpt>
      <trkpt lat="44.26866" lon="5.77519">
        <ele>613</ele>
        <time>2019-06-04T07:25:42Z</time>
      </trkpt>
      <trkpt lat="44.2686" lon="5.77524">
        <ele>613</ele>
        <time>2019-06-04T07:25:43Z</time>
      </trkpt>
      <trkpt lat="44.26853" lon="5.77528">
        <ele>613</ele>
        <time>2019-06-04T07:25:44Z</time>
      </trkpt>
      <trkpt lat="44.26846" lon="5.77533">
        <ele>613</ele>
        <time>2019-06-04T07:25:45Z</time>
      </trkpt>
      <trkpt lat="44.2684" lon="5.77537">
        <ele>613</ele>
        <time>2019-06-04T07:25:46Z</time>
      </trkpt>
      <trkpt lat="44.26834" lon="5.7754">
        <ele>613</ele>
        <time>2019-06-04T07:25:47Z</time>
      </trkpt>
      <trkpt lat="44.26828" lon="5.77543">
        <ele>613</ele>
        <time>2019-06-04T07:25:48Z</time>
      </trkpt>
      <trkpt lat="44.26823" lon="5.77547">
        <ele>613</ele>
        <time>2019-06-04T07:25:49Z</time>
      </trkpt>
      <trkpt lat="44.26817" lon="5.7755">
        <ele>613</ele>
        <time>2019-06-04T07:25:50Z</time>
      </trkpt>
      <trkpt lat="44.26812" lon="5.77553">
        <ele>613</ele>
        <time>2019-06-04T07:25:51Z</time>
      </trkpt>
      <trkpt lat="44.26808" lon="5.77555">
        <ele>614</ele>
        <time>2019-06-04T07:25:52Z</time>
      </trkpt>
      <trkpt lat="44.26801" lon="5.77555">
        <ele>614</ele>
        <time>2019-06-04T07:25:53Z</time>
      </trkpt>
      <trkpt lat="44.26794" lon="5.77554">
        <ele>614</ele>
        <time>2019-06-04T07:25:54Z</time>
      </trkpt>
      <trkpt lat="44.26785" lon="5.77554">
        <ele>614</ele>
        <time>2019-06-04T07:25:55Z</time>
      </trkpt>
      <trkpt lat="44.26778" lon="5.7755">
        <ele>614</ele>
        <time>2019-06-04T07:25:56Z</time>
      </trkpt>
      <trkpt lat="44.26772" lon="5.77543">
        <ele>614</ele>
        <time>2019-06-04T07:25:57Z</time>
      </trkpt>
      <trkpt lat="44.26767" lon="5.77536">
        <ele>614</ele>
        <time>2019-06-04T07:25:58Z</time>
      </trkpt>
      <trkpt lat="44.26762" lon="5.77528">
        <ele>614</ele>
        <time>2019-06-04T07:25:59Z</time>
      </trkpt>
      <trkpt lat="44.26757" lon="5.7752">
        <ele>614</ele>
        <time>2019-06-04T07:26:00Z</time>
      </trkpt>
      <trkpt lat="44.26753" lon="5.77512">
        <ele>614</ele>
        <time>2019-06-04T07:26:01Z</time>
      </trkpt>
      <trkpt lat="44.26749" lon="5.77504">
        <ele>614</ele>
        <time>2019-06-04T07:26:02Z</time>
      </trkpt>
      <trkpt lat="44.26744" lon="5.77497">
        <ele>614</ele>
        <time>2019-06-04T07:26:03Z</time>
      </trkpt>
      <trkpt lat="44.26739" lon="5.77489">
        <ele>613</ele>
        <time>2019-06-04T07:26:04Z</time>
      </trkpt>
      <trkpt lat="44.26733" lon="5.77482">
        <ele>613</ele>
        <time>2019-06-04T07:26:05Z</time>
      </trkpt>
      <trkpt lat="44.26728" lon="5.77473">
        <ele>613</ele>
        <time>2019-06-04T07:26:06Z</time>
      </trkpt>
      <trkpt lat="44.26723" lon="5.77465">
        <ele>613</ele>
        <time>2019-06-04T07:26:07Z</time>
      </trkpt>
      <trkpt lat="44.26718" lon="5.77457">
        <ele>613</ele>
        <time>2019-06-04T07:26:08Z</time>
      </trkpt>
      <trkpt lat="44.26712" lon="5.77449">
        <ele>613</ele>
        <time>2019-06-04T07:26:09Z</time>
      </trkpt>
      <trkpt lat="44.26708" lon="5.77441">
        <ele>613</ele>
        <time>2019-06-04T07:26:10Z</time>
      </trkpt>
      <trkpt lat="44.26704" lon="5.77432">
        <ele>613</ele>
        <time>2019-06-04T07:26:11Z</time>
      </trkpt>
      <trkpt lat="44.26699" lon="5.77423">
        <ele>613</ele>
        <time>2019-06-04T07:26:12Z</time>
      </trkpt>
      <trkpt lat="44.26696" lon="5.77414">
        <ele>613</ele>
        <time>2019-06-04T07:26:13Z</time>
      </trkpt>
      <trkpt lat="44.2669" lon="5.77407">
        <ele>613</ele>
        <time>2019-06-04T07:26:14Z</time>
      </trkpt>
      <trkpt lat="44.26685" lon="5.774">
        <ele>613</ele>
        <time>2019-06-04T07:26:15Z</time>
      </trkpt>
      <trkpt lat="44.26682" lon="5.77394">
        <ele>613</ele>
        <time>2019-06-04T07:26:16Z</time>
      </trkpt>
      <trkpt lat="44.26678" lon="5.77386">
        <ele>613</ele>
        <time>2019-06-04T07:26:17Z</time>
      </trkpt>
      <trkpt lat="44.26675" lon="5.77377">
        <ele>613</ele>
        <time>2019-06-04T07:26:18Z</time>
      </trkpt>
      <trkpt lat="44.26673" lon="5.77367">
        <ele>613</ele>
        <time>2019-06-04T07:26:19Z</time>
      </trkpt>
      <trkpt lat="44.26672" lon="5.77357">
        <ele>613</ele>
        <time>2019-06-04T07:26:20Z</time>
      </trkpt>
      <trkpt lat="44.26669" lon="5.77349">
        <ele>613</ele>
        <time>2019-06-04T07:26:21Z</time>
      </trkpt>
      <trkpt lat="44.26667" lon="5.7734">
        <ele>613</ele>
        <time>2019-06-04T07:26:22Z</time>
      </trkpt>
      <trkpt lat="44.26664" lon="5.77333">
        <ele>613</ele>
        <time>2019-06-04T07:26:23Z</time>
      </trkpt>
      <trkpt lat="44.26658" lon="5.77325">
        <ele>613</ele>
        <time>2019-06-04T07:26:24Z</time>
      </trkpt>
      <trkpt lat="44.26653" lon="5.77317">
        <ele>613</ele>
        <time>2019-06-04T07:26:25Z</time>
      </trkpt>
      <trkpt lat="44.26647" lon="5.7731">
        <ele>613</ele>
        <time>2019-06-04T07:26:26Z</time>
      </trkpt>
      <trkpt lat="44.26643" lon="5.77304">
        <ele>614</ele>
        <time>2019-06-04T07:26:27Z</time>
      </trkpt>
      <trkpt lat="44.26639" lon="5.77298">
        <ele>615</ele>
        <time>2019-06-04T07:26:28Z</time>
      </trkpt>
      <trkpt lat="44.26636" lon="5.77292">
        <ele>616</ele>
        <time>2019-06-04T07:26:29Z</time>
      </trkpt>
      <trkpt lat="44.26633" lon="5.77285">
        <ele>617</ele>
        <time>2019-06-04T07:26:30Z</time>
      </trkpt>
      <trkpt lat="44.26627" lon="5.77279">
        <ele>617</ele>
        <time>2019-06-04T07:26:31Z</time>
      </trkpt>
      <trkpt lat="44.26622" lon="5.77274">
        <ele>617</ele>
        <time>2019-06-04T07:26:32Z</time>
      </trkpt>
      <trkpt lat="44.26618" lon="5.77267">
        <ele>617</ele>
        <time>2019-06-04T07:26:33Z</time>
      </trkpt>
      <trkpt lat="44.26612" lon="5.77261">
        <ele>617</ele>
        <time>2019-06-04T07:26:34Z</time>
      </trkpt>
      <trkpt lat="44.26607" lon="5.77255">
        <ele>617</ele>
        <time>2019-06-04T07:26:35Z</time>
      </trkpt>
      <trkpt lat="44.26603" lon="5.77247">
        <ele>617</ele>
        <time>2019-06-04T07:26:36Z</time>
      </trkpt>
      <trkpt lat="44.266" lon="5.77238">
        <ele>617</ele>
        <time>2019-06-04T07:26:37Z</time>
      </trkpt>
      <trkpt lat="44.26596" lon="5.77229">
        <ele>617</ele>
        <time>2019-06-04T07:26:38Z</time>
      </trkpt>
      <trkpt lat="44.26593" lon="5.77222">
        <ele>617</ele>
        <time>2019-06-04T07:26:39Z</time>
      </trkpt>
      <trkpt lat="44.2659" lon="5.77216">
        <ele>617</ele>
        <time>2019-06-04T07:26:40Z</time>
      </trkpt>
      <trkpt lat="44.26588" lon="5.77212">
        <ele>617</ele>
        <time>2019-06-04T07:26:41Z</time>
      </trkpt>
      <trkpt lat="44.2659" lon="5.77208">
        <ele>617</ele>
        <time>2019-06-04T07:26:42Z</time>
      </trkpt>
      <trkpt lat="44.26594" lon="5.77203">
        <ele>617</ele>
        <time>2019-06-04T07:26:43Z</time>
      </trkpt>
      <trkpt lat="44.266" lon="5.77197">
        <ele>617</ele>
        <time>2019-06-04T07:26:44Z</time>
      </trkpt>
      <trkpt lat="44.26604" lon="5.77192">
        <ele>617</ele>
        <time>2019-06-04T07:26:45Z</time>
      </trkpt>
      <trkpt lat="44.26611" lon="5.77185">
        <ele>617</ele>
        <time>2019-06-04T07:26:46Z</time>
      </trkpt>
      <trkpt lat="44.26618" lon="5.77177">
        <ele>617</ele>
        <time>2019-06-04T07:26:47Z</time>
      </trkpt>
      <trkpt lat="44.26626" lon="5.77169">
        <ele>617</ele>
        <time>2019-06-04T07:26:48Z</time>
      </trkpt>
      <trkpt lat="44.26633" lon="5.7716">
        <ele>617</ele>
        <time>2019-06-04T07:26:49Z</time>
      </trkpt>
      <trkpt lat="44.26642" lon="5.77151">
        <ele>617</ele>
        <time>2019-06-04T07:26:50Z</time>
      </trkpt>
      <trkpt lat="44.26647" lon="5.77145">
        <ele>617</ele>
        <time>2019-06-04T07:26:51Z</time>
      </trkpt>
      <trkpt lat="44.26671" lon="5.77117">
        <ele>617</ele>
        <time>2019-06-04T07:26:55Z</time>
      </trkpt>
      <trkpt lat="44.26678" lon="5.77108">
        <ele>617</ele>
        <time>2019-06-04T07:26:56Z</time>
      </trkpt>
      <trkpt lat="44.26684" lon="5.771">
        <ele>617</ele>
        <time>2019-06-04T07:26:57Z</time>
      </trkpt>
      <trkpt lat="44.26689" lon="5.77092">
        <ele>617</ele>
        <time>2019-06-04T07:26:58Z</time>
      </trkpt>
      <trkpt lat="44.26692" lon="5.77084">
        <ele>617</ele>
        <time>2019-06-04T07:26:59Z</time>
      </trkpt>
      <trkpt lat="44.26695" lon="5.77075">
        <ele>617</ele>
        <time>2019-06-04T07:27:00Z</time>
      </trkpt>
      <trkpt lat="44.26699" lon="5.77067">
        <ele>617</ele>
        <time>2019-06-04T07:27:01Z</time>
      </trkpt>
      <trkpt lat="44.26703" lon="5.77059">
        <ele>617</ele>
        <time>2019-06-04T07:27:02Z</time>
      </trkpt>
      <trkpt lat="44.26706" lon="5.7705">
        <ele>617</ele>
        <time>2019-06-04T07:27:03Z</time>
      </trkpt>
      <trkpt lat="44.26708" lon="5.77042">
        <ele>617</ele>
        <time>2019-06-04T07:27:04Z</time>
      </trkpt>
      <trkpt lat="44.2671" lon="5.77034">
        <ele>617</ele>
        <time>2019-06-04T07:27:05Z</time>
      </trkpt>
      <trkpt lat="44.2671" lon="5.77024">
        <ele>617</ele>
        <time>2019-06-04T07:27:06Z</time>
      </trkpt>
      <trkpt lat="44.2671" lon="5.77014">
        <ele>617</ele>
        <time>2019-06-04T07:27:07Z</time>
      </trkpt>
      <trkpt lat="44.2671" lon="5.77006">
        <ele>617</ele>
        <time>2019-06-04T07:27:08Z</time>
      </trkpt>
      <trkpt lat="44.26709" lon="5.76998">
        <ele>617</ele>
        <time>2019-06-04T07:27:09Z</time>
      </trkpt>
      <trkpt lat="44.2669" lon="5.76951">
        <ele>617</ele>
        <time>2019-06-04T07:27:15Z</time>
      </trkpt>
      <trkpt lat="44.26683" lon="5.76944">
        <ele>617</ele>
        <time>2019-06-04T07:27:16Z</time>
      </trkpt>
      <trkpt lat="44.26678" lon="5.7694">
        <ele>617</ele>
        <time>2019-06-04T07:27:17Z</time>
      </trkpt>
      <trkpt lat="44.26673" lon="5.76935">
        <ele>617</ele>
        <time>2019-06-04T07:27:18Z</time>
      </trkpt>
      <trkpt lat="44.26667" lon="5.76932">
        <ele>617</ele>
        <time>2019-06-04T07:27:19Z</time>
      </trkpt>
      <trkpt lat="44.26661" lon="5.76929">
        <ele>617</ele>
        <time>2019-06-04T07:27:20Z</time>
      </trkpt>
      <trkpt lat="44.26654" lon="5.76925">
        <ele>616</ele>
        <time>2019-06-04T07:27:21Z</time>
      </trkpt>
      <trkpt lat="44.26648" lon="5.76922">
        <ele>615</ele>
        <time>2019-06-04T07:27:22Z</time>
      </trkpt>
      <trkpt lat="44.26641" lon="5.7692">
        <ele>614</ele>
        <time>2019-06-04T07:27:23Z</time>
      </trkpt>
      <trkpt lat="44.26635" lon="5.76918">
        <ele>614</ele>
        <time>2019-06-04T07:27:24Z</time>
      </trkpt>
      <trkpt lat="44.26628" lon="5.76915">
        <ele>613</ele>
        <time>2019-06-04T07:27:25Z</time>
      </trkpt>
      <trkpt lat="44.26622" lon="5.76915">
        <ele>613</ele>
        <time>2019-06-04T07:27:26Z</time>
      </trkpt>
      <trkpt lat="44.26615" lon="5.76914">
        <ele>612</ele>
        <time>2019-06-04T07:27:27Z</time>
      </trkpt>
      <trkpt lat="44.26608" lon="5.76914">
        <ele>612</ele>
        <time>2019-06-04T07:27:28Z</time>
      </trkpt>
      <trkpt lat="44.266" lon="5.76915">
        <ele>612</ele>
        <time>2019-06-04T07:27:29Z</time>
      </trkpt>
      <trkpt lat="44.26593" lon="5.76916">
        <ele>612</ele>
        <time>2019-06-04T07:27:30Z</time>
      </trkpt>
      <trkpt lat="44.26586" lon="5.76917">
        <ele>612</ele>
        <time>2019-06-04T07:27:31Z</time>
      </trkpt>
      <trkpt lat="44.26579" lon="5.76917">
        <ele>612</ele>
        <time>2019-06-04T07:27:32Z</time>
      </trkpt>
      <trkpt lat="44.26572" lon="5.76916">
        <ele>612</ele>
        <time>2019-06-04T07:27:33Z</time>
      </trkpt>
      <trkpt lat="44.26566" lon="5.76915">
        <ele>612</ele>
        <time>2019-06-04T07:27:34Z</time>
      </trkpt>
      <trkpt lat="44.2656" lon="5.76913">
        <ele>612</ele>
        <time>2019-06-04T07:27:35Z</time>
      </trkpt>
      <trkpt lat="44.26554" lon="5.76912">
        <ele>612</ele>
        <time>2019-06-04T07:27:36Z</time>
      </trkpt>
      <trkpt lat="44.26548" lon="5.7691">
        <ele>612</ele>
        <time>2019-06-04T07:27:37Z</time>
      </trkpt>
      <trkpt lat="44.26542" lon="5.76908">
        <ele>612</ele>
        <time>2019-06-04T07:27:38Z</time>
      </trkpt>
      <trkpt lat="44.26536" lon="5.76907">
        <ele>612</ele>
        <time>2019-06-04T07:27:39Z</time>
      </trkpt>
      <trkpt lat="44.26529" lon="5.76908">
        <ele>612</ele>
        <time>2019-06-04T07:27:40Z</time>
      </trkpt>
      <trkpt lat="44.26523" lon="5.76908">
        <ele>612</ele>
        <time>2019-06-04T07:27:41Z</time>
      </trkpt>
      <trkpt lat="44.26517" lon="5.76908">
        <ele>612</ele>
        <time>2019-06-04T07:27:42Z</time>
      </trkpt>
      <trkpt lat="44.26512" lon="5.76907">
        <ele>612</ele>
        <time>2019-06-04T07:27:43Z</time>
      </trkpt>
      <trkpt lat="44.26507" lon="5.76906">
        <ele>612</ele>
        <time>2019-06-04T07:27:44Z</time>
      </trkpt>
      <trkpt lat="44.26505" lon="5.76903">
        <ele>612</ele>
        <time>2019-06-04T07:27:45Z</time>
      </trkpt>
      <trkpt lat="44.26501" lon="5.76902">
        <ele>612</ele>
        <time>2019-06-04T07:27:46Z</time>
      </trkpt>
      <trkpt lat="44.26497" lon="5.76902">
        <ele>612</ele>
        <time>2019-06-04T07:27:47Z</time>
      </trkpt>
      <trkpt lat="44.2649" lon="5.76898">
        <ele>612</ele>
        <time>2019-06-04T07:27:49Z</time>
      </trkpt>
      <trkpt lat="44.26485" lon="5.76897">
        <ele>613</ele>
        <time>2019-06-04T07:27:50Z</time>
      </trkpt>
      <trkpt lat="44.26479" lon="5.769">
        <ele>614</ele>
        <time>2019-06-04T07:27:51Z</time>
      </trkpt>
      <trkpt lat="44.26475" lon="5.76894">
        <ele>615</ele>
        <time>2019-06-04T07:27:52Z</time>
      </trkpt>
      <trkpt lat="44.26472" lon="5.76888">
        <ele>616</ele>
        <time>2019-06-04T07:27:53Z</time>
      </trkpt>
      <trkpt lat="44.26469" lon="5.7688">
        <ele>616</ele>
        <time>2019-06-04T07:27:54Z</time>
      </trkpt>
      <trkpt lat="44.26467" lon="5.76871">
        <ele>616</ele>
        <time>2019-06-04T07:27:55Z</time>
      </trkpt>
      <trkpt lat="44.26464" lon="5.76864">
        <ele>616</ele>
        <time>2019-06-04T07:27:56Z</time>
      </trkpt>
      <trkpt lat="44.26462" lon="5.76858">
        <ele>616</ele>
        <time>2019-06-04T07:27:57Z</time>
      </trkpt>
      <trkpt lat="44.26466" lon="5.76833">
        <ele>617</ele>
        <time>2019-06-04T07:28:09Z</time>
      </trkpt>
      <trkpt lat="44.26484" lon="5.76822">
        <ele>618</ele>
        <time>2019-06-04T07:28:10Z</time>
      </trkpt>
      <trkpt lat="44.26491" lon="5.76816">
        <ele>619</ele>
        <time>2019-06-04T07:28:11Z</time>
      </trkpt>
      <trkpt lat="44.26498" lon="5.76811">
        <ele>620</ele>
        <time>2019-06-04T07:28:12Z</time>
      </trkpt>
      <trkpt lat="44.26504" lon="5.76805">
        <ele>621</ele>
        <time>2019-06-04T07:28:13Z</time>
      </trkpt>
      <trkpt lat="44.26509" lon="5.76799">
        <ele>622</ele>
        <time>2019-06-04T07:28:14Z</time>
      </trkpt>
      <trkpt lat="44.26514" lon="5.76793">
        <ele>623</ele>
        <time>2019-06-04T07:28:15Z</time>
      </trkpt>
      <trkpt lat="44.26523" lon="5.76784">
        <ele>624</ele>
        <time>2019-06-04T07:28:16Z</time>
      </trkpt>
      <trkpt lat="44.26529" lon="5.76776">
        <ele>625</ele>
        <time>2019-06-04T07:28:17Z</time>
      </trkpt>
      <trkpt lat="44.26533" lon="5.76768">
        <ele>625</ele>
        <time>2019-06-04T07:28:18Z</time>
      </trkpt>
      <trkpt lat="44.26537" lon="5.76761">
        <ele>625</ele>
        <time>2019-06-04T07:28:19Z</time>
      </trkpt>
      <trkpt lat="44.2654" lon="5.76755">
        <ele>625</ele>
        <time>2019-06-04T07:28:20Z</time>
      </trkpt>
      <trkpt lat="44.26542" lon="5.76748">
        <ele>626</ele>
        <time>2019-06-04T07:28:21Z</time>
      </trkpt>
      <trkpt lat="44.26546" lon="5.76743">
        <ele>626</ele>
        <time>2019-06-04T07:28:22Z</time>
      </trkpt>
      <trkpt lat="44.26551" lon="5.76738">
        <ele>626</ele>
        <time>2019-06-04T07:28:23Z</time>
      </trkpt>
      <trkpt lat="44.26555" lon="5.76734">
        <ele>626</ele>
        <time>2019-06-04T07:28:24Z</time>
      </trkpt>
      <trkpt lat="44.26558" lon="5.76729">
        <ele>626</ele>
        <time>2019-06-04T07:28:25Z</time>
      </trkpt>
      <trkpt lat="44.26561" lon="5.76725">
        <ele>626</ele>
        <time>2019-06-04T07:28:26Z</time>
      </trkpt>
      <trkpt lat="44.26566" lon="5.7672">
        <ele>626</ele>
        <time>2019-06-04T07:28:27Z</time>
      </trkpt>
      <trkpt lat="44.26569" lon="5.76715">
        <ele>626</ele>
        <time>2019-06-04T07:28:28Z</time>
      </trkpt>
      <trkpt lat="44.26573" lon="5.7671">
        <ele>626</ele>
        <time>2019-06-04T07:28:29Z</time>
      </trkpt>
      <trkpt lat="44.26577" lon="5.76706">
        <ele>627</ele>
        <time>2019-06-04T07:28:30Z</time>
      </trkpt>
      <trkpt lat="44.26581" lon="5.76702">
        <ele>627</ele>
        <time>2019-06-04T07:28:31Z</time>
      </trkpt>
      <trkpt lat="44.26586" lon="5.76699">
        <ele>627</ele>
        <time>2019-06-04T07:28:32Z</time>
      </trkpt>
      <trkpt lat="44.2659" lon="5.76695">
        <ele>627</ele>
        <time>2019-06-04T07:28:33Z</time>
      </trkpt>
      <trkpt lat="44.26595" lon="5.76692">
        <ele>627</ele>
        <time>2019-06-04T07:28:34Z</time>
      </trkpt>
      <trkpt lat="44.26599" lon="5.76689">
        <ele>627</ele>
        <time>2019-06-04T07:28:35Z</time>
      </trkpt>
      <trkpt lat="44.26603" lon="5.76685">
        <ele>627</ele>
        <time>2019-06-04T07:28:36Z</time>
      </trkpt>
      <trkpt lat="44.26607" lon="5.76682">
        <ele>627</ele>
        <time>2019-06-04T07:28:37Z</time>
      </trkpt>
      <trkpt lat="44.2661" lon="5.76677">
        <ele>627</ele>
        <time>2019-06-04T07:28:38Z</time>
      </trkpt>
      <trkpt lat="44.26612" lon="5.76672">
        <ele>627</ele>
        <time>2019-06-04T07:28:39Z</time>
      </trkpt>
      <trkpt lat="44.26615" lon="5.76667">
        <ele>627</ele>
        <time>2019-06-04T07:28:40Z</time>
      </trkpt>
      <trkpt lat="44.26617" lon="5.76661">
        <ele>627</ele>
        <time>2019-06-04T07:28:41Z</time>
      </trkpt>
      <trkpt lat="44.26619" lon="5.76656">
        <ele>627</ele>
        <time>2019-06-04T07:28:42Z</time>
      </trkpt>
      <trkpt lat="44.26621" lon="5.7665">
        <ele>627</ele>
        <time>2019-06-04T07:28:43Z</time>
      </trkpt>
      <trkpt lat="44.26633" lon="5.76602">
        <ele>627</ele>
        <time>2019-06-04T07:28:51Z</time>
      </trkpt>
      <trkpt lat="44.26633" lon="5.76595">
        <ele>627</ele>
        <time>2019-06-04T07:28:52Z</time>
      </trkpt>
      <trkpt lat="44.26632" lon="5.7659">
        <ele>626</ele>
        <time>2019-06-04T07:28:53Z</time>
      </trkpt>
      <trkpt lat="44.2663" lon="5.76585">
        <ele>625</ele>
        <time>2019-06-04T07:28:54Z</time>
      </trkpt>
      <trkpt lat="44.26623" lon="5.76575">
        <ele>624</ele>
        <time>2019-06-04T07:28:56Z</time>
      </trkpt>
      <trkpt lat="44.26619" lon="5.76569">
        <ele>624</ele>
        <time>2019-06-04T07:28:57Z</time>
      </trkpt>
      <trkpt lat="44.26614" lon="5.7656">
        <ele>624</ele>
        <time>2019-06-04T07:28:58Z</time>
      </trkpt>
      <trkpt lat="44.26613" lon="5.76554">
        <ele>624</ele>
        <time>2019-06-04T07:28:59Z</time>
      </trkpt>
      <trkpt lat="44.26611" lon="5.76548">
        <ele>624</ele>
        <time>2019-06-04T07:29:00Z</time>
      </trkpt>
      <trkpt lat="44.26608" lon="5.76542">
        <ele>624</ele>
        <time>2019-06-04T07:29:01Z</time>
      </trkpt>
      <trkpt lat="44.26605" lon="5.76536">
        <ele>624</ele>
        <time>2019-06-04T07:29:02Z</time>
      </trkpt>
      <trkpt lat="44.26602" lon="5.7653">
        <ele>624</ele>
        <time>2019-06-04T07:29:03Z</time>
      </trkpt>
      <trkpt lat="44.26599" lon="5.76523">
        <ele>624</ele>
        <time>2019-06-04T07:29:04Z</time>
      </trkpt>
      <trkpt lat="44.26595" lon="5.76518">
        <ele>624</ele>
        <time>2019-06-04T07:29:05Z</time>
      </trkpt>
      <trkpt lat="44.26591" lon="5.76512">
        <ele>624</ele>
        <time>2019-06-04T07:29:06Z</time>
      </trkpt>
      <trkpt lat="44.26587" lon="5.76509">
        <ele>624</ele>
        <time>2019-06-04T07:29:07Z</time>
      </trkpt>
      <trkpt lat="44.26583" lon="5.76504">
        <ele>624</ele>
        <time>2019-06-04T07:29:08Z</time>
      </trkpt>
      <trkpt lat="44.26578" lon="5.76499">
        <ele>625</ele>
        <time>2019-06-04T07:29:09Z</time>
      </trkpt>
      <trkpt lat="44.26573" lon="5.76495">
        <ele>626</ele>
        <time>2019-06-04T07:29:10Z</time>
      </trkpt>
      <trkpt lat="44.26568" lon="5.76491">
        <ele>626</ele>
        <time>2019-06-04T07:29:11Z</time>
      </trkpt>
      <trkpt lat="44.26563" lon="5.76488">
        <ele>627</ele>
        <time>2019-06-04T07:29:12Z</time>
      </trkpt>
      <trkpt lat="44.26558" lon="5.76485">
        <ele>628</ele>
        <time>2019-06-04T07:29:13Z</time>
      </trkpt>
      <trkpt lat="44.26552" lon="5.76484">
        <ele>628</ele>
        <time>2019-06-04T07:29:14Z</time>
      </trkpt>
      <trkpt lat="44.26548" lon="5.7648">
        <ele>629</ele>
        <time>2019-06-04T07:29:15Z</time>
      </trkpt>
      <trkpt lat="44.26545" lon="5.76474">
        <ele>629</ele>
        <time>2019-06-04T07:29:16Z</time>
      </trkpt>
      <trkpt lat="44.26542" lon="5.76468">
        <ele>629</ele>
        <time>2019-06-04T07:29:17Z</time>
      </trkpt>
      <trkpt lat="44.2654" lon="5.76461">
        <ele>629</ele>
        <time>2019-06-04T07:29:18Z</time>
      </trkpt>
      <trkpt lat="44.26539" lon="5.76454">
        <ele>629</ele>
        <time>2019-06-04T07:29:19Z</time>
      </trkpt>
      <trkpt lat="44.26543" lon="5.76445">
        <ele>629</ele>
        <time>2019-06-04T07:29:20Z</time>
      </trkpt>
      <trkpt lat="44.26546" lon="5.76436">
        <ele>629</ele>
        <time>2019-06-04T07:29:21Z</time>
      </trkpt>
      <trkpt lat="44.26551" lon="5.76428">
        <ele>629</ele>
        <time>2019-06-04T07:29:22Z</time>
      </trkpt>
      <trkpt lat="44.26554" lon="5.76421">
        <ele>629</ele>
        <time>2019-06-04T07:29:23Z</time>
      </trkpt>
      <trkpt lat="44.26557" lon="5.76413">
        <ele>629</ele>
        <time>2019-06-04T07:29:24Z</time>
      </trkpt>
      <trkpt lat="44.26561" lon="5.76406">
        <ele>629</ele>
        <time>2019-06-04T07:29:25Z</time>
      </trkpt>
      <trkpt lat="44.26565" lon="5.76399">
        <ele>629</ele>
        <time>2019-06-04T07:29:26Z</time>
      </trkpt>
      <trkpt lat="44.2657" lon="5.76393">
        <ele>629</ele>
        <time>2019-06-04T07:29:27Z</time>
      </trkpt>
      <trkpt lat="44.26575" lon="5.76388">
        <ele>629</ele>
        <time>2019-06-04T07:29:28Z</time>
      </trkpt>
      <trkpt lat="44.26581" lon="5.76384">
        <ele>629</ele>
        <time>2019-06-04T07:29:29Z</time>
      </trkpt>
      <trkpt lat="44.26587" lon="5.7638">
        <ele>629</ele>
        <time>2019-06-04T07:29:30Z</time>
      </trkpt>
      <trkpt lat="44.26594" lon="5.76378">
        <ele>628</ele>
        <time>2019-06-04T07:29:31Z</time>
      </trkpt>
      <trkpt lat="44.26601" lon="5.76375">
        <ele>628</ele>
        <time>2019-06-04T07:29:32Z</time>
      </trkpt>
      <trkpt lat="44.26606" lon="5.76372">
        <ele>628</ele>
        <time>2019-06-04T07:29:33Z</time>
      </trkpt>
      <trkpt lat="44.26612" lon="5.7637">
        <ele>628</ele>
        <time>2019-06-04T07:29:34Z</time>
      </trkpt>
      <trkpt lat="44.26617" lon="5.76367">
        <ele>628</ele>
        <time>2019-06-04T07:29:35Z</time>
      </trkpt>
      <trkpt lat="44.26622" lon="5.76364">
        <ele>628</ele>
        <time>2019-06-04T07:29:36Z</time>
      </trkpt>
      <trkpt lat="44.26628" lon="5.76362">
        <ele>628</ele>
        <time>2019-06-04T07:29:37Z</time>
      </trkpt>
      <trkpt lat="44.26635" lon="5.7636">
        <ele>628</ele>
        <time>2019-06-04T07:29:38Z</time>
      </trkpt>
      <trkpt lat="44.26642" lon="5.76358">
        <ele>628</ele>
        <time>2019-06-04T07:29:39Z</time>
      </trkpt>
      <trkpt lat="44.26649" lon="5.76356">
        <ele>628</ele>
        <time>2019-06-04T07:29:40Z</time>
      </trkpt>
      <trkpt lat="44.26655" lon="5.76353">
        <ele>628</ele>
        <time>2019-06-04T07:29:41Z</time>
      </trkpt>
      <trkpt lat="44.2666" lon="5.7635">
        <ele>628</ele>
        <time>2019-06-04T07:29:42Z</time>
      </trkpt>
      <trkpt lat="44.26666" lon="5.76348">
        <ele>628</ele>
        <time>2019-06-04T07:29:43Z</time>
      </trkpt>
      <trkpt lat="44.26672" lon="5.76345">
        <ele>628</ele>
        <time>2019-06-04T07:29:44Z</time>
      </trkpt>
      <trkpt lat="44.26678" lon="5.76343">
        <ele>628</ele>
        <time>2019-06-04T07:29:45Z</time>
      </trkpt>
      <trkpt lat="44.26683" lon="5.76339">
        <ele>628</ele>
        <time>2019-06-04T07:29:46Z</time>
      </trkpt>
      <trkpt lat="44.26689" lon="5.76336">
        <ele>628</ele>
        <time>2019-06-04T07:29:47Z</time>
      </trkpt>
      <trkpt lat="44.26695" lon="5.76333">
        <ele>628</ele>
        <time>2019-06-04T07:29:48Z</time>
      </trkpt>
      <trkpt lat="44.26701" lon="5.76329">
        <ele>628</ele>
        <time>2019-06-04T07:29:49Z</time>
      </trkpt>
      <trkpt lat="44.26707" lon="5.76326">
        <ele>628</ele>
        <time>2019-06-04T07:29:50Z</time>
      </trkpt>
      <trkpt lat="44.26714" lon="5.76323">
        <ele>628</ele>
        <time>2019-06-04T07:29:51Z</time>
      </trkpt>
      <trkpt lat="44.2672" lon="5.76319">
        <ele>628</ele>
        <time>2019-06-04T07:29:52Z</time>
      </trkpt>
      <trkpt lat="44.26727" lon="5.76316">
        <ele>628</ele>
        <time>2019-06-04T07:29:53Z</time>
      </trkpt>
      <trkpt lat="44.26733" lon="5.76312">
        <ele>628</ele>
        <time>2019-06-04T07:29:54Z</time>
      </trkpt>
      <trkpt lat="44.2674" lon="5.76309">
        <ele>628</ele>
        <time>2019-06-04T07:29:55Z</time>
      </trkpt>
      <trkpt lat="44.26746" lon="5.76306">
        <ele>628</ele>
        <time>2019-06-04T07:29:56Z</time>
      </trkpt>
      <trkpt lat="44.26752" lon="5.76303">
        <ele>628</ele>
        <time>2019-06-04T07:29:57Z</time>
      </trkpt>
      <trkpt lat="44.26759" lon="5.763">
        <ele>628</ele>
        <time>2019-06-04T07:29:58Z</time>
      </trkpt>
      <trkpt lat="44.26765" lon="5.76298">
        <ele>628</ele>
        <time>2019-06-04T07:29:59Z</time>
      </trkpt>
      <trkpt lat="44.26772" lon="5.76297">
        <ele>628</ele>
        <time>2019-06-04T07:30:00Z</time>
      </trkpt>
      <trkpt lat="44.26778" lon="5.76295">
        <ele>628</ele>
        <time>2019-06-04T07:30:01Z</time>
      </trkpt>
      <trkpt lat="44.26785" lon="5.76293">
        <ele>628</ele>
        <time>2019-06-04T07:30:02Z</time>
      </trkpt>
      <trkpt lat="44.26791" lon="5.76291">
        <ele>628</ele>
        <time>2019-06-04T07:30:03Z</time>
      </trkpt>
      <trkpt lat="44.26797" lon="5.7629">
        <ele>628</ele>
        <time>2019-06-04T07:30:04Z</time>
      </trkpt>
      <trkpt lat="44.26804" lon="5.76288">
        <ele>628</ele>
        <time>2019-06-04T07:30:05Z</time>
      </trkpt>
      <trkpt lat="44.2681" lon="5.76285">
        <ele>628</ele>
        <time>2019-06-04T07:30:06Z</time>
      </trkpt>
      <trkpt lat="44.26816" lon="5.76282">
        <ele>628</ele>
        <time>2019-06-04T07:30:07Z</time>
      </trkpt>
      <trkpt lat="44.26822" lon="5.76279">
        <ele>628</ele>
        <time>2019-06-04T07:30:08Z</time>
      </trkpt>
      <trkpt lat="44.26828" lon="5.76276">
        <ele>628</ele>
        <time>2019-06-04T07:30:09Z</time>
      </trkpt>
      <trkpt lat="44.26834" lon="5.76273">
        <ele>628</ele>
        <time>2019-06-04T07:30:10Z</time>
      </trkpt>
      <trkpt lat="44.26839" lon="5.76268">
        <ele>628</ele>
        <time>2019-06-04T07:30:11Z</time>
      </trkpt>
      <trkpt lat="44.26845" lon="5.76262">
        <ele>628</ele>
        <time>2019-06-04T07:30:12Z</time>
      </trkpt>
      <trkpt lat="44.26849" lon="5.76256">
        <ele>628</ele>
        <time>2019-06-04T07:30:13Z</time>
      </trkpt>
      <trkpt lat="44.26854" lon="5.7625">
        <ele>628</ele>
        <time>2019-06-04T07:30:14Z</time>
      </trkpt>
      <trkpt lat="44.26858" lon="5.76243">
        <ele>628</ele>
        <time>2019-06-04T07:30:15Z</time>
      </trkpt>
      <trkpt lat="44.26862" lon="5.76235">
        <ele>628</ele>
        <time>2019-06-04T07:30:16Z</time>
      </trkpt>
      <trkpt lat="44.26864" lon="5.76226">
        <ele>628</ele>
        <time>2019-06-04T07:30:17Z</time>
      </trkpt>
      <trkpt lat="44.26866" lon="5.76218">
        <ele>628</ele>
        <time>2019-06-04T07:30:18Z</time>
      </trkpt>
      <trkpt lat="44.26867" lon="5.76208">
        <ele>628</ele>
        <time>2019-06-04T07:30:19Z</time>
      </trkpt>
      <trkpt lat="44.26868" lon="5.76199">
        <ele>628</ele>
        <time>2019-06-04T07:30:20Z</time>
      </trkpt>
      <trkpt lat="44.26866" lon="5.76187">
        <ele>628</ele>
        <time>2019-06-04T07:30:21Z</time>
      </trkpt>
      <trkpt lat="44.26866" lon="5.76178">
        <ele>628</ele>
        <time>2019-06-04T07:30:22Z</time>
      </trkpt>
      <trkpt lat="44.26865" lon="5.76169">
        <ele>628</ele>
        <time>2019-06-04T07:30:23Z</time>
      </trkpt>
      <trkpt lat="44.26865" lon="5.76161">
        <ele>628</ele>
        <time>2019-06-04T07:30:24Z</time>
      </trkpt>
      <trkpt lat="44.26863" lon="5.76153">
        <ele>628</ele>
        <time>2019-06-04T07:30:25Z</time>
      </trkpt>
      <trkpt lat="44.26862" lon="5.76145">
        <ele>628</ele>
        <time>2019-06-04T07:30:26Z</time>
      </trkpt>
      <trkpt lat="44.2686" lon="5.76136">
        <ele>628</ele>
        <time>2019-06-04T07:30:27Z</time>
      </trkpt>
      <trkpt lat="44.26857" lon="5.76128">
        <ele>628</ele>
        <time>2019-06-04T07:30:28Z</time>
      </trkpt>
      <trkpt lat="44.26854" lon="5.76121">
        <ele>628</ele>
        <time>2019-06-04T07:30:29Z</time>
      </trkpt>
      <trkpt lat="44.26851" lon="5.76113">
        <ele>628</ele>
        <time>2019-06-04T07:30:30Z</time>
      </trkpt>
      <trkpt lat="44.26847" lon="5.76106">
        <ele>628</ele>
        <time>2019-06-04T07:30:31Z</time>
      </trkpt>
      <trkpt lat="44.26843" lon="5.76098">
        <ele>628</ele>
        <time>2019-06-04T07:30:32Z</time>
      </trkpt>
      <trkpt lat="44.26839" lon="5.7609">
        <ele>628</ele>
        <time>2019-06-04T07:30:33Z</time>
      </trkpt>
      <trkpt lat="44.26835" lon="5.76084">
        <ele>628</ele>
        <time>2019-06-04T07:30:34Z</time>
      </trkpt>
      <trkpt lat="44.2683" lon="5.76077">
        <ele>628</ele>
        <time>2019-06-04T07:30:35Z</time>
      </trkpt>
      <trkpt lat="44.26825" lon="5.7607">
        <ele>629</ele>
        <time>2019-06-04T07:30:36Z</time>
      </trkpt>
      <trkpt lat="44.2682" lon="5.76064">
        <ele>629</ele>
        <time>2019-06-04T07:30:37Z</time>
      </trkpt>
      <trkpt lat="44.26815" lon="5.76058">
        <ele>629</ele>
        <time>2019-06-04T07:30:38Z</time>
      </trkpt>
      <trkpt lat="44.2681" lon="5.76053">
        <ele>629</ele>
        <time>2019-06-04T07:30:39Z</time>
      </trkpt>
      <trkpt lat="44.26805" lon="5.76047">
        <ele>630</ele>
        <time>2019-06-04T07:30:40Z</time>
      </trkpt>
      <trkpt lat="44.26799" lon="5.76041">
        <ele>630</ele>
        <time>2019-06-04T07:30:41Z</time>
      </trkpt>
      <trkpt lat="44.26794" lon="5.76035">
        <ele>631</ele>
        <time>2019-06-04T07:30:42Z</time>
      </trkpt>
      <trkpt lat="44.26789" lon="5.7603">
        <ele>631</ele>
        <time>2019-06-04T07:30:43Z</time>
      </trkpt>
      <trkpt lat="44.26785" lon="5.76024">
        <ele>631</ele>
        <time>2019-06-04T07:30:44Z</time>
      </trkpt>
      <trkpt lat="44.26779" lon="5.76018">
        <ele>631</ele>
        <time>2019-06-04T07:30:45Z</time>
      </trkpt>
      <trkpt lat="44.26775" lon="5.76012">
        <ele>631</ele>
        <time>2019-06-04T07:30:46Z</time>
      </trkpt>
      <trkpt lat="44.2677" lon="5.76007">
        <ele>631</ele>
        <time>2019-06-04T07:30:47Z</time>
      </trkpt>
      <trkpt lat="44.26765" lon="5.76">
        <ele>631</ele>
        <time>2019-06-04T07:30:48Z</time>
      </trkpt>
      <trkpt lat="44.2676" lon="5.75994">
        <ele>631</ele>
        <time>2019-06-04T07:30:49Z</time>
      </trkpt>
      <trkpt lat="44.26755" lon="5.75988">
        <ele>631</ele>
        <time>2019-06-04T07:30:50Z</time>
      </trkpt>
      <trkpt lat="44.26751" lon="5.75981">
        <ele>631</ele>
        <time>2019-06-04T07:30:51Z</time>
      </trkpt>
      <trkpt lat="44.26746" lon="5.75974">
        <ele>631</ele>
        <time>2019-06-04T07:30:52Z</time>
      </trkpt>
      <trkpt lat="44.26742" lon="5.75967">
        <ele>631</ele>
        <time>2019-06-04T07:30:53Z</time>
      </trkpt>
      <trkpt lat="44.26738" lon="5.75959">
        <ele>631</ele>
        <time>2019-06-04T07:30:54Z</time>
      </trkpt>
      <trkpt lat="44.26734" lon="5.75952">
        <ele>631</ele>
        <time>2019-06-04T07:30:55Z</time>
      </trkpt>
      <trkpt lat="44.2673" lon="5.75944">
        <ele>631</ele>
        <time>2019-06-04T07:30:56Z</time>
      </trkpt>
      <trkpt lat="44.26726" lon="5.75936">
        <ele>631</ele>
        <time>2019-06-04T07:30:57Z</time>
      </trkpt>
      <trkpt lat="44.26722" lon="5.75928">
        <ele>631</ele>
        <time>2019-06-04T07:30:58Z</time>
      </trkpt>
      <trkpt lat="44.26719" lon="5.75921">
        <ele>631</ele>
        <time>2019-06-04T07:30:59Z</time>
      </trkpt>
      <trkpt lat="44.26716" lon="5.75913">
        <ele>631</ele>
        <time>2019-06-04T07:31:00Z</time>
      </trkpt>
      <trkpt lat="44.26713" lon="5.75905">
        <ele>631</ele>
        <time>2019-06-04T07:31:01Z</time>
      </trkpt>
      <trkpt lat="44.2671" lon="5.75896">
        <ele>631</ele>
        <time>2019-06-04T07:31:02Z</time>
      </trkpt>
      <trkpt lat="44.26708" lon="5.75888">
        <ele>631</ele>
        <time>2019-06-04T07:31:03Z</time>
      </trkpt>
      <trkpt lat="44.26706" lon="5.75879">
        <ele>631</ele>
        <time>2019-06-04T07:31:04Z</time>
      </trkpt>
      <trkpt lat="44.26704" lon="5.75871">
        <ele>631</ele>
        <time>2019-06-04T07:31:05Z</time>
      </trkpt>
      <trkpt lat="44.26701" lon="5.75862">
        <ele>631</ele>
        <time>2019-06-04T07:31:06Z</time>
      </trkpt>
      <trkpt lat="44.26699" lon="5.75853">
        <ele>631</ele>
        <time>2019-06-04T07:31:07Z</time>
      </trkpt>
      <trkpt lat="44.26697" lon="5.75844">
        <ele>631</ele>
        <time>2019-06-04T07:31:08Z</time>
      </trkpt>
      <trkpt lat="44.26695" lon="5.75836">
        <ele>631</ele>
        <time>2019-06-04T07:31:09Z</time>
      </trkpt>
      <trkpt lat="44.26694" lon="5.75827">
        <ele>631</ele>
        <time>2019-06-04T07:31:10Z</time>
      </trkpt>
      <trkpt lat="44.26693" lon="5.75817">
        <ele>631</ele>
        <time>2019-06-04T07:31:11Z</time>
      </trkpt>
      <trkpt lat="44.26692" lon="5.75808">
        <ele>631</ele>
        <time>2019-06-04T07:31:12Z</time>
      </trkpt>
      <trkpt lat="44.26691" lon="5.75799">
        <ele>631</ele>
        <time>2019-06-04T07:31:13Z</time>
      </trkpt>
      <trkpt lat="44.26691" lon="5.7579">
        <ele>630</ele>
        <time>2019-06-04T07:31:14Z</time>
      </trkpt>
      <trkpt lat="44.26691" lon="5.75781">
        <ele>630</ele>
        <time>2019-06-04T07:31:15Z</time>
      </trkpt>
      <trkpt lat="44.2669" lon="5.75772">
        <ele>630</ele>
        <time>2019-06-04T07:31:16Z</time>
      </trkpt>
      <trkpt lat="44.2669" lon="5.75763">
        <ele>630</ele>
        <time>2019-06-04T07:31:17Z</time>
      </trkpt>
      <trkpt lat="44.2669" lon="5.75754">
        <ele>630</ele>
        <time>2019-06-04T07:31:18Z</time>
      </trkpt>
      <trkpt lat="44.26691" lon="5.75746">
        <ele>630</ele>
        <time>2019-06-04T07:31:19Z</time>
      </trkpt>
      <trkpt lat="44.26693" lon="5.75737">
        <ele>630</ele>
        <time>2019-06-04T07:31:20Z</time>
      </trkpt>
      <trkpt lat="44.26694" lon="5.75729">
        <ele>630</ele>
        <time>2019-06-04T07:31:21Z</time>
      </trkpt>
      <trkpt lat="44.26696" lon="5.75722">
        <ele>630</ele>
        <time>2019-06-04T07:31:22Z</time>
      </trkpt>
      <trkpt lat="44.26699" lon="5.75714">
        <ele>630</ele>
        <time>2019-06-04T07:31:23Z</time>
      </trkpt>
      <trkpt lat="44.26703" lon="5.75707">
        <ele>630</ele>
        <time>2019-06-04T07:31:24Z</time>
      </trkpt>
      <trkpt lat="44.26707" lon="5.75701">
        <ele>630</ele>
        <time>2019-06-04T07:31:25Z</time>
      </trkpt>
      <trkpt lat="44.26711" lon="5.75695">
        <ele>630</ele>
        <time>2019-06-04T07:31:26Z</time>
      </trkpt>
      <trkpt lat="44.26715" lon="5.75689">
        <ele>630</ele>
        <time>2019-06-04T07:31:27Z</time>
      </trkpt>
      <trkpt lat="44.26718" lon="5.75682">
        <ele>630</ele>
        <time>2019-06-04T07:31:28Z</time>
      </trkpt>
      <trkpt lat="44.26721" lon="5.75676">
        <ele>630</ele>
        <time>2019-06-04T07:31:29Z</time>
      </trkpt>
      <trkpt lat="44.26722" lon="5.75668">
        <ele>630</ele>
        <time>2019-06-04T07:31:30Z</time>
      </trkpt>
      <trkpt lat="44.26721" lon="5.75661">
        <ele>630</ele>
        <time>2019-06-04T07:31:31Z</time>
      </trkpt>
      <trkpt lat="44.26719" lon="5.75654">
        <ele>630</ele>
        <time>2019-06-04T07:31:32Z</time>
      </trkpt>
      <trkpt lat="44.26715" lon="5.75647">
        <ele>630</ele>
        <time>2019-06-04T07:31:33Z</time>
      </trkpt>
      <trkpt lat="44.26711" lon="5.75641">
        <ele>630</ele>
        <time>2019-06-04T07:31:34Z</time>
      </trkpt>
      <trkpt lat="44.26706" lon="5.75636">
        <ele>630</ele>
        <time>2019-06-04T07:31:35Z</time>
      </trkpt>
      <trkpt lat="44.26701" lon="5.7563">
        <ele>630</ele>
        <time>2019-06-04T07:31:36Z</time>
      </trkpt>
      <trkpt lat="44.26696" lon="5.75624">
        <ele>630</ele>
        <time>2019-06-04T07:31:37Z</time>
      </trkpt>
      <trkpt lat="44.26692" lon="5.75618">
        <ele>630</ele>
        <time>2019-06-04T07:31:38Z</time>
      </trkpt>
      <trkpt lat="44.26689" lon="5.7561">
        <ele>630</ele>
        <time>2019-06-04T07:31:39Z</time>
      </trkpt>
      <trkpt lat="44.26685" lon="5.75601">
        <ele>630</ele>
        <time>2019-06-04T07:31:40Z</time>
      </trkpt>
      <trkpt lat="44.26683" lon="5.75591">
        <ele>630</ele>
        <time>2019-06-04T07:31:41Z</time>
      </trkpt>
      <trkpt lat="44.26682" lon="5.75581">
        <ele>630</ele>
        <time>2019-06-04T07:31:42Z</time>
      </trkpt>
      <trkpt lat="44.2668" lon="5.75571">
        <ele>630</ele>
        <time>2019-06-04T07:31:43Z</time>
      </trkpt>
      <trkpt lat="44.26679" lon="5.7556">
        <ele>630</ele>
        <time>2019-06-04T07:31:44Z</time>
      </trkpt>
      <trkpt lat="44.26679" lon="5.7555">
        <ele>630</ele>
        <time>2019-06-04T07:31:45Z</time>
      </trkpt>
      <trkpt lat="44.26678" lon="5.7554">
        <ele>630</ele>
        <time>2019-06-04T07:31:46Z</time>
      </trkpt>
      <trkpt lat="44.26676" lon="5.7553">
        <ele>630</ele>
        <time>2019-06-04T07:31:47Z</time>
      </trkpt>
      <trkpt lat="44.26675" lon="5.75521">
        <ele>630</ele>
        <time>2019-06-04T07:31:48Z</time>
      </trkpt>
      <trkpt lat="44.26673" lon="5.75511">
        <ele>630</ele>
        <time>2019-06-04T07:31:49Z</time>
      </trkpt>
      <trkpt lat="44.26671" lon="5.75501">
        <ele>630</ele>
        <time>2019-06-04T07:31:50Z</time>
      </trkpt>
      <trkpt lat="44.2667" lon="5.75492">
        <ele>630</ele>
        <time>2019-06-04T07:31:51Z</time>
      </trkpt>
      <trkpt lat="44.26669" lon="5.75482">
        <ele>630</ele>
        <time>2019-06-04T07:31:52Z</time>
      </trkpt>
      <trkpt lat="44.26667" lon="5.75473">
        <ele>630</ele>
        <time>2019-06-04T07:31:53Z</time>
      </trkpt>
      <trkpt lat="44.26665" lon="5.75464">
        <ele>630</ele>
        <time>2019-06-04T07:31:54Z</time>
      </trkpt>
      <trkpt lat="44.26662" lon="5.75454">
        <ele>630</ele>
        <time>2019-06-04T07:31:55Z</time>
      </trkpt>
      <trkpt lat="44.2666" lon="5.75445">
        <ele>630</ele>
        <time>2019-06-04T07:31:56Z</time>
      </trkpt>
      <trkpt lat="44.26657" lon="5.75436">
        <ele>630</ele>
        <time>2019-06-04T07:31:57Z</time>
      </trkpt>
      <trkpt lat="44.26654" lon="5.75427">
        <ele>630</ele>
        <time>2019-06-04T07:31:58Z</time>
      </trkpt>
      <trkpt lat="44.26651" lon="5.75419">
        <ele>630</ele>
        <time>2019-06-04T07:31:59Z</time>
      </trkpt>
      <trkpt lat="44.26647" lon="5.75411">
        <ele>630</ele>
        <time>2019-06-04T07:32:00Z</time>
      </trkpt>
      <trkpt lat="44.26643" lon="5.75403">
        <ele>630</ele>
        <time>2019-06-04T07:32:01Z</time>
      </trkpt>
      <trkpt lat="44.26639" lon="5.75395">
        <ele>630</ele>
        <time>2019-06-04T07:32:02Z</time>
      </trkpt>
      <trkpt lat="44.26634" lon="5.75388">
        <ele>630</ele>
        <time>2019-06-04T07:32:03Z</time>
      </trkpt>
      <trkpt lat="44.2663" lon="5.75381">
        <ele>630</ele>
        <time>2019-06-04T07:32:04Z</time>
      </trkpt>
      <trkpt lat="44.26626" lon="5.75374">
        <ele>630</ele>
        <time>2019-06-04T07:32:05Z</time>
      </trkpt>
      <trkpt lat="44.26622" lon="5.75366">
        <ele>630</ele>
        <time>2019-06-04T07:32:06Z</time>
      </trkpt>
      <trkpt lat="44.26617" lon="5.75358">
        <ele>630</ele>
        <time>2019-06-04T07:32:07Z</time>
      </trkpt>
      <trkpt lat="44.26613" lon="5.75351">
        <ele>630</ele>
        <time>2019-06-04T07:32:08Z</time>
      </trkpt>
      <trkpt lat="44.2661" lon="5.75344">
        <ele>631</ele>
        <time>2019-06-04T07:32:09Z</time>
      </trkpt>
      <trkpt lat="44.26608" lon="5.75336">
        <ele>631</ele>
        <time>2019-06-04T07:32:10Z</time>
      </trkpt>
      <trkpt lat="44.26605" lon="5.75328">
        <ele>631</ele>
        <time>2019-06-04T07:32:11Z</time>
      </trkpt>
      <trkpt lat="44.26603" lon="5.75321">
        <ele>631</ele>
        <time>2019-06-04T07:32:12Z</time>
      </trkpt>
      <trkpt lat="44.26601" lon="5.75314">
        <ele>631</ele>
        <time>2019-06-04T07:32:13Z</time>
      </trkpt>
      <trkpt lat="44.26598" lon="5.75306">
        <ele>631</ele>
        <time>2019-06-04T07:32:14Z</time>
      </trkpt>
      <trkpt lat="44.26595" lon="5.75299">
        <ele>631</ele>
        <time>2019-06-04T07:32:15Z</time>
      </trkpt>
      <trkpt lat="44.26593" lon="5.75291">
        <ele>631</ele>
        <time>2019-06-04T07:32:16Z</time>
      </trkpt>
      <trkpt lat="44.2659" lon="5.75283">
        <ele>631</ele>
        <time>2019-06-04T07:32:17Z</time>
      </trkpt>
      <trkpt lat="44.26588" lon="5.75275">
        <ele>631</ele>
        <time>2019-06-04T07:32:18Z</time>
      </trkpt>
      <trkpt lat="44.26586" lon="5.75268">
        <ele>631</ele>
        <time>2019-06-04T07:32:19Z</time>
      </trkpt>
      <trkpt lat="44.26583" lon="5.75261">
        <ele>631</ele>
        <time>2019-06-04T07:32:20Z</time>
      </trkpt>
      <trkpt lat="44.2658" lon="5.75253">
        <ele>631</ele>
        <time>2019-06-04T07:32:21Z</time>
      </trkpt>
      <trkpt lat="44.26577" lon="5.75245">
        <ele>631</ele>
        <time>2019-06-04T07:32:22Z</time>
      </trkpt>
      <trkpt lat="44.26574" lon="5.75238">
        <ele>631</ele>
        <time>2019-06-04T07:32:23Z</time>
      </trkpt>
      <trkpt lat="44.2657" lon="5.75231">
        <ele>631</ele>
        <time>2019-06-04T07:32:24Z</time>
      </trkpt>
      <trkpt lat="44.26566" lon="5.75223">
        <ele>631</ele>
        <time>2019-06-04T07:32:25Z</time>
      </trkpt>
      <trkpt lat="44.26562" lon="5.75216">
        <ele>631</ele>
        <time>2019-06-04T07:32:26Z</time>
      </trkpt>
      <trkpt lat="44.26558" lon="5.75209">
        <ele>631</ele>
        <time>2019-06-04T07:32:27Z</time>
      </trkpt>
      <trkpt lat="44.26554" lon="5.75203">
        <ele>631</ele>
        <time>2019-06-04T07:32:28Z</time>
      </trkpt>
      <trkpt lat="44.2655" lon="5.75196">
        <ele>631</ele>
        <time>2019-06-04T07:32:29Z</time>
      </trkpt>
      <trkpt lat="44.26546" lon="5.75189">
        <ele>631</ele>
        <time>2019-06-04T07:32:30Z</time>
      </trkpt>
      <trkpt lat="44.26542" lon="5.75183">
        <ele>631</ele>
        <time>2019-06-04T07:32:31Z</time>
      </trkpt>
      <trkpt lat="44.26538" lon="5.75176">
        <ele>631</ele>
        <time>2019-06-04T07:32:32Z</time>
      </trkpt>
      <trkpt lat="44.26535" lon="5.7517">
        <ele>631</ele>
        <time>2019-06-04T07:32:33Z</time>
      </trkpt>
      <trkpt lat="44.26531" lon="5.75164">
        <ele>631</ele>
        <time>2019-06-04T07:32:34Z</time>
      </trkpt>
      <trkpt lat="44.26527" lon="5.75158">
        <ele>631</ele>
        <time>2019-06-04T07:32:35Z</time>
      </trkpt>
      <trkpt lat="44.26522" lon="5.75151">
        <ele>631</ele>
        <time>2019-06-04T07:32:36Z</time>
      </trkpt>
      <trkpt lat="44.26518" lon="5.75145">
        <ele>631</ele>
        <time>2019-06-04T07:32:37Z</time>
      </trkpt>
      <trkpt lat="44.26514" lon="5.75139">
        <ele>631</ele>
        <time>2019-06-04T07:32:38Z</time>
      </trkpt>
      <trkpt lat="44.2651" lon="5.75132">
        <ele>631</ele>
        <time>2019-06-04T07:32:39Z</time>
      </trkpt>
      <trkpt lat="44.26506" lon="5.75126">
        <ele>632</ele>
        <time>2019-06-04T07:32:40Z</time>
      </trkpt>
      <trkpt lat="44.26502" lon="5.75119">
        <ele>632</ele>
        <time>2019-06-04T07:32:41Z</time>
      </trkpt>
      <trkpt lat="44.26498" lon="5.75113">
        <ele>632</ele>
        <time>2019-06-04T07:32:42Z</time>
      </trkpt>
      <trkpt lat="44.26493" lon="5.75106">
        <ele>632</ele>
        <time>2019-06-04T07:32:43Z</time>
      </trkpt>
      <trkpt lat="44.26489" lon="5.751">
        <ele>632</ele>
        <time>2019-06-04T07:32:44Z</time>
      </trkpt>
      <trkpt lat="44.26485" lon="5.75093">
        <ele>632</ele>
        <time>2019-06-04T07:32:45Z</time>
      </trkpt>
      <trkpt lat="44.26481" lon="5.75086">
        <ele>632</ele>
        <time>2019-06-04T07:32:46Z</time>
      </trkpt>
      <trkpt lat="44.26477" lon="5.75079">
        <ele>632</ele>
        <time>2019-06-04T07:32:47Z</time>
      </trkpt>
      <trkpt lat="44.26472" lon="5.75072">
        <ele>632</ele>
        <time>2019-06-04T07:32:48Z</time>
      </trkpt>
      <trkpt lat="44.26469" lon="5.75065">
        <ele>632</ele>
        <time>2019-06-04T07:32:49Z</time>
      </trkpt>
      <trkpt lat="44.26464" lon="5.75058">
        <ele>632</ele>
        <time>2019-06-04T07:32:50Z</time>
      </trkpt>
      <trkpt lat="44.26461" lon="5.7505">
        <ele>632</ele>
        <time>2019-06-04T07:32:51Z</time>
      </trkpt>
      <trkpt lat="44.26457" lon="5.75043">
        <ele>632</ele>
        <time>2019-06-04T07:32:52Z</time>
      </trkpt>
      <trkpt lat="44.26453" lon="5.75036">
        <ele>632</ele>
        <time>2019-06-04T07:32:53Z</time>
      </trkpt>
      <trkpt lat="44.26449" lon="5.75029">
        <ele>632</ele>
        <time>2019-06-04T07:32:54Z</time>
      </trkpt>
      <trkpt lat="44.26445" lon="5.75022">
        <ele>632</ele>
        <time>2019-06-04T07:32:55Z</time>
      </trkpt>
      <trkpt lat="44.26441" lon="5.75015">
        <ele>632</ele>
        <time>2019-06-04T07:32:56Z</time>
      </trkpt>
      <trkpt lat="44.26437" lon="5.75008">
        <ele>632</ele>
        <time>2019-06-04T07:32:57Z</time>
      </trkpt>
      <trkpt lat="44.26433" lon="5.75">
        <ele>632</ele>
        <time>2019-06-04T07:32:58Z</time>
      </trkpt>
      <trkpt lat="44.26429" lon="5.74993">
        <ele>632</ele>
        <time>2019-06-04T07:32:59Z</time>
      </trkpt>
      <trkpt lat="44.26424" lon="5.74987">
        <ele>633</ele>
        <time>2019-06-04T07:33:00Z</time>
      </trkpt>
      <trkpt lat="44.2642" lon="5.74979">
        <ele>633</ele>
        <time>2019-06-04T07:33:01Z</time>
      </trkpt>
      <trkpt lat="44.26417" lon="5.74972">
        <ele>633</ele>
        <time>2019-06-04T07:33:02Z</time>
      </trkpt>
      <trkpt lat="44.26413" lon="5.74965">
        <ele>634</ele>
        <time>2019-06-04T07:33:03Z</time>
      </trkpt>
      <trkpt lat="44.26411" lon="5.74958">
        <ele>634</ele>
        <time>2019-06-04T07:33:04Z</time>
      </trkpt>
      <trkpt lat="44.26407" lon="5.74951">
        <ele>634</ele>
        <time>2019-06-04T07:33:05Z</time>
      </trkpt>
      <trkpt lat="44.26405" lon="5.74945">
        <ele>634</ele>
        <time>2019-06-04T07:33:06Z</time>
      </trkpt>
      <trkpt lat="44.26401" lon="5.74938">
        <ele>634</ele>
        <time>2019-06-04T07:33:07Z</time>
      </trkpt>
      <trkpt lat="44.26399" lon="5.74931">
        <ele>634</ele>
        <time>2019-06-04T07:33:08Z</time>
      </trkpt>
      <trkpt lat="44.26397" lon="5.74924">
        <ele>635</ele>
        <time>2019-06-04T07:33:09Z</time>
      </trkpt>
      <trkpt lat="44.26396" lon="5.74917">
        <ele>635</ele>
        <time>2019-06-04T07:33:10Z</time>
      </trkpt>
      <trkpt lat="44.26395" lon="5.74909">
        <ele>635</ele>
        <time>2019-06-04T07:33:11Z</time>
      </trkpt>
      <trkpt lat="44.26393" lon="5.74902">
        <ele>635</ele>
        <time>2019-06-04T07:33:12Z</time>
      </trkpt>
      <trkpt lat="44.26392" lon="5.74895">
        <ele>635</ele>
        <time>2019-06-04T07:33:13Z</time>
      </trkpt>
      <trkpt lat="44.26391" lon="5.74888">
        <ele>635</ele>
        <time>2019-06-04T07:33:14Z</time>
      </trkpt>
      <trkpt lat="44.26389" lon="5.74881">
        <ele>635</ele>
        <time>2019-06-04T07:33:15Z</time>
      </trkpt>
      <trkpt lat="44.26387" lon="5.74874">
        <ele>635</ele>
        <time>2019-06-04T07:33:16Z</time>
      </trkpt>
      <trkpt lat="44.26386" lon="5.74867">
        <ele>635</ele>
        <time>2019-06-04T07:33:17Z</time>
      </trkpt>
      <trkpt lat="44.26384" lon="5.7486">
        <ele>635</ele>
        <time>2019-06-04T07:33:18Z</time>
      </trkpt>
      <trkpt lat="44.26381" lon="5.74854">
        <ele>636</ele>
        <time>2019-06-04T07:33:19Z</time>
      </trkpt>
      <trkpt lat="44.26379" lon="5.74848">
        <ele>636</ele>
        <time>2019-06-04T07:33:20Z</time>
      </trkpt>
      <trkpt lat="44.26376" lon="5.74842">
        <ele>636</ele>
        <time>2019-06-04T07:33:21Z</time>
      </trkpt>
      <trkpt lat="44.26372" lon="5.74836">
        <ele>636</ele>
        <time>2019-06-04T07:33:22Z</time>
      </trkpt>
      <trkpt lat="44.26369" lon="5.7483">
        <ele>637</ele>
        <time>2019-06-04T07:33:23Z</time>
      </trkpt>
      <trkpt lat="44.26366" lon="5.74825">
        <ele>637</ele>
        <time>2019-06-04T07:33:24Z</time>
      </trkpt>
      <trkpt lat="44.26362" lon="5.7482">
        <ele>637</ele>
        <time>2019-06-04T07:33:25Z</time>
      </trkpt>
      <trkpt lat="44.26359" lon="5.74815">
        <ele>637</ele>
        <time>2019-06-04T07:33:26Z</time>
      </trkpt>
      <trkpt lat="44.26355" lon="5.74809">
        <ele>638</ele>
        <time>2019-06-04T07:33:27Z</time>
      </trkpt>
      <trkpt lat="44.26352" lon="5.74804">
        <ele>638</ele>
        <time>2019-06-04T07:33:28Z</time>
      </trkpt>
      <trkpt lat="44.26348" lon="5.74798">
        <ele>638</ele>
        <time>2019-06-04T07:33:29Z</time>
      </trkpt>
      <trkpt lat="44.26345" lon="5.74793">
        <ele>638</ele>
        <time>2019-06-04T07:33:30Z</time>
      </trkpt>
      <trkpt lat="44.26342" lon="5.74787">
        <ele>638</ele>
        <time>2019-06-04T07:33:31Z</time>
      </trkpt>
      <trkpt lat="44.26339" lon="5.74782">
        <ele>638</ele>
        <time>2019-06-04T07:33:32Z</time>
      </trkpt>
      <trkpt lat="44.26336" lon="5.74776">
        <ele>638</ele>
        <time>2019-06-04T07:33:33Z</time>
      </trkpt>
      <trkpt lat="44.26333" lon="5.7477">
        <ele>638</ele>
        <time>2019-06-04T07:33:34Z</time>
      </trkpt>
      <trkpt lat="44.26331" lon="5.74764">
        <ele>638</ele>
        <time>2019-06-04T07:33:35Z</time>
      </trkpt>
      <trkpt lat="44.26329" lon="5.74758">
        <ele>638</ele>
        <time>2019-06-04T07:33:36Z</time>
      </trkpt>
      <trkpt lat="44.26326" lon="5.74752">
        <ele>638</ele>
        <time>2019-06-04T07:33:37Z</time>
      </trkpt>
      <trkpt lat="44.26323" lon="5.74746">
        <ele>638</ele>
        <time>2019-06-04T07:33:38Z</time>
      </trkpt>
      <trkpt lat="44.26321" lon="5.74739">
        <ele>638</ele>
        <time>2019-06-04T07:33:39Z</time>
      </trkpt>
      <trkpt lat="44.26318" lon="5.74733">
        <ele>638</ele>
        <time>2019-06-04T07:33:40Z</time>
      </trkpt>
      <trkpt lat="44.26315" lon="5.74727">
        <ele>638</ele>
        <time>2019-06-04T07:33:41Z</time>
      </trkpt>
      <trkpt lat="44.26313" lon="5.74721">
        <ele>638</ele>
        <time>2019-06-04T07:33:42Z</time>
      </trkpt>
      <trkpt lat="44.2631" lon="5.74715">
        <ele>638</ele>
        <time>2019-06-04T07:33:43Z</time>
      </trkpt>
      <trkpt lat="44.26308" lon="5.74708">
        <ele>638</ele>
        <time>2019-06-04T07:33:44Z</time>
      </trkpt>
      <trkpt lat="44.26305" lon="5.74702">
        <ele>639</ele>
        <time>2019-06-04T07:33:45Z</time>
      </trkpt>
      <trkpt lat="44.26303" lon="5.74696">
        <ele>639</ele>
        <time>2019-06-04T07:33:46Z</time>
      </trkpt>
      <trkpt lat="44.263" lon="5.7469">
        <ele>639</ele>
        <time>2019-06-04T07:33:47Z</time>
      </trkpt>
      <trkpt lat="44.26298" lon="5.74684">
        <ele>639</ele>
        <time>2019-06-04T07:33:48Z</time>
      </trkpt>
      <trkpt lat="44.26295" lon="5.74678">
        <ele>639</ele>
        <time>2019-06-04T07:33:49Z</time>
      </trkpt>
      <trkpt lat="44.26292" lon="5.74672">
        <ele>640</ele>
        <time>2019-06-04T07:33:50Z</time>
      </trkpt>
      <trkpt lat="44.2629" lon="5.74666">
        <ele>640</ele>
        <time>2019-06-04T07:33:51Z</time>
      </trkpt>
      <trkpt lat="44.26288" lon="5.74659">
        <ele>640</ele>
        <time>2019-06-04T07:33:52Z</time>
      </trkpt>
      <trkpt lat="44.26286" lon="5.74653">
        <ele>640</ele>
        <time>2019-06-04T07:33:53Z</time>
      </trkpt>
      <trkpt lat="44.26284" lon="5.74646">
        <ele>640</ele>
        <time>2019-06-04T07:33:54Z</time>
      </trkpt>
      <trkpt lat="44.26283" lon="5.74639">
        <ele>640</ele>
        <time>2019-06-04T07:33:55Z</time>
      </trkpt>
      <trkpt lat="44.26281" lon="5.74632">
        <ele>640</ele>
        <time>2019-06-04T07:33:56Z</time>
      </trkpt>
      <trkpt lat="44.26281" lon="5.74624">
        <ele>640</ele>
        <time>2019-06-04T07:33:57Z</time>
      </trkpt>
      <trkpt lat="44.26282" lon="5.74617">
        <ele>640</ele>
        <time>2019-06-04T07:33:58Z</time>
      </trkpt>
      <trkpt lat="44.26283" lon="5.7461">
        <ele>641</ele>
        <time>2019-06-04T07:33:59Z</time>
      </trkpt>
      <trkpt lat="44.26284" lon="5.74603">
        <ele>641</ele>
        <time>2019-06-04T07:34:00Z</time>
      </trkpt>
      <trkpt lat="44.26286" lon="5.74596">
        <ele>641</ele>
        <time>2019-06-04T07:34:01Z</time>
      </trkpt>
      <trkpt lat="44.26289" lon="5.74589">
        <ele>641</ele>
        <time>2019-06-04T07:34:02Z</time>
      </trkpt>
      <trkpt lat="44.26292" lon="5.74583">
        <ele>641</ele>
        <time>2019-06-04T07:34:03Z</time>
      </trkpt>
      <trkpt lat="44.26295" lon="5.74576">
        <ele>641</ele>
        <time>2019-06-04T07:34:04Z</time>
      </trkpt>
      <trkpt lat="44.26298" lon="5.7457">
        <ele>641</ele>
        <time>2019-06-04T07:34:05Z</time>
      </trkpt>
      <trkpt lat="44.26302" lon="5.74563">
        <ele>641</ele>
        <time>2019-06-04T07:34:06Z</time>
      </trkpt>
      <trkpt lat="44.26305" lon="5.74556">
        <ele>641</ele>
        <time>2019-06-04T07:34:07Z</time>
      </trkpt>
      <trkpt lat="44.26308" lon="5.74549">
        <ele>641</ele>
        <time>2019-06-04T07:34:08Z</time>
      </trkpt>
      <trkpt lat="44.26311" lon="5.74543">
        <ele>641</ele>
        <time>2019-06-04T07:34:09Z</time>
      </trkpt>
      <trkpt lat="44.26314" lon="5.74537">
        <ele>641</ele>
        <time>2019-06-04T07:34:10Z</time>
      </trkpt>
      <trkpt lat="44.26317" lon="5.7453">
        <ele>641</ele>
        <time>2019-06-04T07:34:11Z</time>
      </trkpt>
      <trkpt lat="44.26321" lon="5.74524">
        <ele>641</ele>
        <time>2019-06-04T07:34:12Z</time>
      </trkpt>
      <trkpt lat="44.26324" lon="5.74517">
        <ele>641</ele>
        <time>2019-06-04T07:34:13Z</time>
      </trkpt>
      <trkpt lat="44.26327" lon="5.7451">
        <ele>641</ele>
        <time>2019-06-04T07:34:14Z</time>
      </trkpt>
      <trkpt lat="44.26329" lon="5.74503">
        <ele>641</ele>
        <time>2019-06-04T07:34:15Z</time>
      </trkpt>
      <trkpt lat="44.26333" lon="5.74496">
        <ele>641</ele>
        <time>2019-06-04T07:34:16Z</time>
      </trkpt>
      <trkpt lat="44.26337" lon="5.7449">
        <ele>641</ele>
        <time>2019-06-04T07:34:17Z</time>
      </trkpt>
      <trkpt lat="44.2634" lon="5.74484">
        <ele>641</ele>
        <time>2019-06-04T07:34:18Z</time>
      </trkpt>
      <trkpt lat="44.26344" lon="5.74478">
        <ele>641</ele>
        <time>2019-06-04T07:34:19Z</time>
      </trkpt>
      <trkpt lat="44.26348" lon="5.74472">
        <ele>641</ele>
        <time>2019-06-04T07:34:20Z</time>
      </trkpt>
      <trkpt lat="44.26352" lon="5.74466">
        <ele>641</ele>
        <time>2019-06-04T07:34:21Z</time>
      </trkpt>
      <trkpt lat="44.26356" lon="5.7446">
        <ele>641</ele>
        <time>2019-06-04T07:34:22Z</time>
      </trkpt>
      <trkpt lat="44.2636" lon="5.74453">
        <ele>641</ele>
        <time>2019-06-04T07:34:23Z</time>
      </trkpt>
      <trkpt lat="44.26362" lon="5.74445">
        <ele>641</ele>
        <time>2019-06-04T07:34:24Z</time>
      </trkpt>
      <trkpt lat="44.26364" lon="5.74437">
        <ele>641</ele>
        <time>2019-06-04T07:34:25Z</time>
      </trkpt>
      <trkpt lat="44.26365" lon="5.74429">
        <ele>641</ele>
        <time>2019-06-04T07:34:26Z</time>
      </trkpt>
      <trkpt lat="44.26365" lon="5.74421">
        <ele>641</ele>
        <time>2019-06-04T07:34:27Z</time>
      </trkpt>
      <trkpt lat="44.26365" lon="5.74413">
        <ele>641</ele>
        <time>2019-06-04T07:34:28Z</time>
      </trkpt>
      <trkpt lat="44.26364" lon="5.74405">
        <ele>641</ele>
        <time>2019-06-04T07:34:29Z</time>
      </trkpt>
      <trkpt lat="44.26363" lon="5.74398">
        <ele>641</ele>
        <time>2019-06-04T07:34:30Z</time>
      </trkpt>
      <trkpt lat="44.26362" lon="5.74391">
        <ele>642</ele>
        <time>2019-06-04T07:34:31Z</time>
      </trkpt>
      <trkpt lat="44.2636" lon="5.74384">
        <ele>642</ele>
        <time>2019-06-04T07:34:32Z</time>
      </trkpt>
      <trkpt lat="44.26359" lon="5.74377">
        <ele>642</ele>
        <time>2019-06-04T07:34:33Z</time>
      </trkpt>
      <trkpt lat="44.26358" lon="5.7437">
        <ele>642</ele>
        <time>2019-06-04T07:34:34Z</time>
      </trkpt>
      <trkpt lat="44.26356" lon="5.74363">
        <ele>642</ele>
        <time>2019-06-04T07:34:35Z</time>
      </trkpt>
      <trkpt lat="44.26354" lon="5.74356">
        <ele>643</ele>
        <time>2019-06-04T07:34:36Z</time>
      </trkpt>
      <trkpt lat="44.26353" lon="5.74348">
        <ele>643</ele>
        <time>2019-06-04T07:34:37Z</time>
      </trkpt>
      <trkpt lat="44.26351" lon="5.74341">
        <ele>643</ele>
        <time>2019-06-04T07:34:38Z</time>
      </trkpt>
      <trkpt lat="44.2635" lon="5.74335">
        <ele>643</ele>
        <time>2019-06-04T07:34:39Z</time>
      </trkpt>
      <trkpt lat="44.26349" lon="5.74328">
        <ele>644</ele>
        <time>2019-06-04T07:34:40Z</time>
      </trkpt>
      <trkpt lat="44.26348" lon="5.74321">
        <ele>644</ele>
        <time>2019-06-04T07:34:41Z</time>
      </trkpt>
      <trkpt lat="44.26347" lon="5.74314">
        <ele>644</ele>
        <time>2019-06-04T07:34:42Z</time>
      </trkpt>
      <trkpt lat="44.26347" lon="5.74307">
        <ele>644</ele>
        <time>2019-06-04T07:34:43Z</time>
      </trkpt>
      <trkpt lat="44.26346" lon="5.743">
        <ele>645</ele>
        <time>2019-06-04T07:34:44Z</time>
      </trkpt>
      <trkpt lat="44.26345" lon="5.74293">
        <ele>645</ele>
        <time>2019-06-04T07:34:45Z</time>
      </trkpt>
      <trkpt lat="44.26345" lon="5.74285">
        <ele>645</ele>
        <time>2019-06-04T07:34:46Z</time>
      </trkpt>
      <trkpt lat="44.26344" lon="5.74278">
        <ele>645</ele>
        <time>2019-06-04T07:34:47Z</time>
      </trkpt>
      <trkpt lat="44.26344" lon="5.7427">
        <ele>645</ele>
        <time>2019-06-04T07:34:48Z</time>
      </trkpt>
      <trkpt lat="44.26343" lon="5.74262">
        <ele>645</ele>
        <time>2019-06-04T07:34:49Z</time>
      </trkpt>
      <trkpt lat="44.26343" lon="5.74255">
        <ele>645</ele>
        <time>2019-06-04T07:34:50Z</time>
      </trkpt>
      <trkpt lat="44.26342" lon="5.74247">
        <ele>645</ele>
        <time>2019-06-04T07:34:51Z</time>
      </trkpt>
      <trkpt lat="44.26342" lon="5.74239">
        <ele>645</ele>
        <time>2019-06-04T07:34:52Z</time>
      </trkpt>
      <trkpt lat="44.26341" lon="5.74231">
        <ele>645</ele>
        <time>2019-06-04T07:34:53Z</time>
      </trkpt>
      <trkpt lat="44.2634" lon="5.74224">
        <ele>645</ele>
        <time>2019-06-04T07:34:54Z</time>
      </trkpt>
      <trkpt lat="44.2634" lon="5.74216">
        <ele>645</ele>
        <time>2019-06-04T07:34:55Z</time>
      </trkpt>
      <trkpt lat="44.26339" lon="5.74208">
        <ele>645</ele>
        <time>2019-06-04T07:34:56Z</time>
      </trkpt>
      <trkpt lat="44.26339" lon="5.742">
        <ele>645</ele>
        <time>2019-06-04T07:34:57Z</time>
      </trkpt>
      <trkpt lat="44.26338" lon="5.74192">
        <ele>645</ele>
        <time>2019-06-04T07:34:58Z</time>
      </trkpt>
      <trkpt lat="44.26337" lon="5.74184">
        <ele>645</ele>
        <time>2019-06-04T07:34:59Z</time>
      </trkpt>
      <trkpt lat="44.26337" lon="5.74176">
        <ele>645</ele>
        <time>2019-06-04T07:35:00Z</time>
      </trkpt>
      <trkpt lat="44.26337" lon="5.74168">
        <ele>645</ele>
        <time>2019-06-04T07:35:01Z</time>
      </trkpt>
      <trkpt lat="44.26336" lon="5.7416">
        <ele>645</ele>
        <time>2019-06-04T07:35:02Z</time>
      </trkpt>
      <trkpt lat="44.26336" lon="5.74153">
        <ele>645</ele>
        <time>2019-06-04T07:35:03Z</time>
      </trkpt>
      <trkpt lat="44.26335" lon="5.74145">
        <ele>645</ele>
        <time>2019-06-04T07:35:04Z</time>
      </trkpt>
      <trkpt lat="44.26334" lon="5.74137">
        <ele>645</ele>
        <time>2019-06-04T07:35:05Z</time>
      </trkpt>
      <trkpt lat="44.26334" lon="5.74128">
        <ele>645</ele>
        <time>2019-06-04T07:35:06Z</time>
      </trkpt>
      <trkpt lat="44.26334" lon="5.74121">
        <ele>645</ele>
        <time>2019-06-04T07:35:07Z</time>
      </trkpt>
      <trkpt lat="44.26333" lon="5.74113">
        <ele>645</ele>
        <time>2019-06-04T07:35:08Z</time>
      </trkpt>
      <trkpt lat="44.26333" lon="5.74104">
        <ele>645</ele>
        <time>2019-06-04T07:35:09Z</time>
      </trkpt>
      <trkpt lat="44.26332" lon="5.74096">
        <ele>645</ele>
        <time>2019-06-04T07:35:10Z</time>
      </trkpt>
      <trkpt lat="44.26331" lon="5.74089">
        <ele>645</ele>
        <time>2019-06-04T07:35:11Z</time>
      </trkpt>
      <trkpt lat="44.26331" lon="5.74081">
        <ele>645</ele>
        <time>2019-06-04T07:35:12Z</time>
      </trkpt>
      <trkpt lat="44.2633" lon="5.74073">
        <ele>645</ele>
        <time>2019-06-04T07:35:13Z</time>
      </trkpt>
      <trkpt lat="44.26329" lon="5.74065">
        <ele>645</ele>
        <time>2019-06-04T07:35:14Z</time>
      </trkpt>
      <trkpt lat="44.26329" lon="5.74057">
        <ele>645</ele>
        <time>2019-06-04T07:35:15Z</time>
      </trkpt>
      <trkpt lat="44.26329" lon="5.74049">
        <ele>645</ele>
        <time>2019-06-04T07:35:16Z</time>
      </trkpt>
      <trkpt lat="44.26329" lon="5.74041">
        <ele>645</ele>
        <time>2019-06-04T07:35:17Z</time>
      </trkpt>
      <trkpt lat="44.26328" lon="5.74033">
        <ele>645</ele>
        <time>2019-06-04T07:35:18Z</time>
      </trkpt>
      <trkpt lat="44.26328" lon="5.74025">
        <ele>645</ele>
        <time>2019-06-04T07:35:19Z</time>
      </trkpt>
      <trkpt lat="44.26327" lon="5.74017">
        <ele>645</ele>
        <time>2019-06-04T07:35:20Z</time>
      </trkpt>
      <trkpt lat="44.26327" lon="5.7401">
        <ele>645</ele>
        <time>2019-06-04T07:35:21Z</time>
      </trkpt>
      <trkpt lat="44.26326" lon="5.74002">
        <ele>645</ele>
        <time>2019-06-04T07:35:22Z</time>
      </trkpt>
      <trkpt lat="44.26325" lon="5.73994">
        <ele>645</ele>
        <time>2019-06-04T07:35:23Z</time>
      </trkpt>
      <trkpt lat="44.26325" lon="5.73986">
        <ele>645</ele>
        <time>2019-06-04T07:35:24Z</time>
      </trkpt>
      <trkpt lat="44.26325" lon="5.73978">
        <ele>645</ele>
        <time>2019-06-04T07:35:25Z</time>
      </trkpt>
      <trkpt lat="44.26325" lon="5.7397">
        <ele>645</ele>
        <time>2019-06-04T07:35:26Z</time>
      </trkpt>
      <trkpt lat="44.26325" lon="5.73962">
        <ele>645</ele>
        <time>2019-06-04T07:35:27Z</time>
      </trkpt>
      <trkpt lat="44.26324" lon="5.73954">
        <ele>645</ele>
        <time>2019-06-04T07:35:28Z</time>
      </trkpt>
      <trkpt lat="44.26324" lon="5.73945">
        <ele>645</ele>
        <time>2019-06-04T07:35:29Z</time>
      </trkpt>
      <trkpt lat="44.26324" lon="5.73937">
        <ele>646</ele>
        <time>2019-06-04T07:35:30Z</time>
      </trkpt>
      <trkpt lat="44.26323" lon="5.73928">
        <ele>646</ele>
        <time>2019-06-04T07:35:31Z</time>
      </trkpt>
      <trkpt lat="44.26323" lon="5.73919">
        <ele>646</ele>
        <time>2019-06-04T07:35:32Z</time>
      </trkpt>
      <trkpt lat="44.26322" lon="5.7391">
        <ele>646</ele>
        <time>2019-06-04T07:35:33Z</time>
      </trkpt>
      <trkpt lat="44.26321" lon="5.73901">
        <ele>646</ele>
        <time>2019-06-04T07:35:34Z</time>
      </trkpt>
      <trkpt lat="44.26321" lon="5.73892">
        <ele>646</ele>
        <time>2019-06-04T07:35:35Z</time>
      </trkpt>
      <trkpt lat="44.2632" lon="5.73882">
        <ele>646</ele>
        <time>2019-06-04T07:35:36Z</time>
      </trkpt>
      <trkpt lat="44.26319" lon="5.73873">
        <ele>646</ele>
        <time>2019-06-04T07:35:37Z</time>
      </trkpt>
      <trkpt lat="44.26319" lon="5.73863">
        <ele>646</ele>
        <time>2019-06-04T07:35:38Z</time>
      </trkpt>
      <trkpt lat="44.26318" lon="5.73853">
        <ele>646</ele>
        <time>2019-06-04T07:35:39Z</time>
      </trkpt>
      <trkpt lat="44.26318" lon="5.73843">
        <ele>646</ele>
        <time>2019-06-04T07:35:40Z</time>
      </trkpt>
      <trkpt lat="44.26317" lon="5.73833">
        <ele>646</ele>
        <time>2019-06-04T07:35:41Z</time>
      </trkpt>
      <trkpt lat="44.26316" lon="5.73823">
        <ele>646</ele>
        <time>2019-06-04T07:35:42Z</time>
      </trkpt>
      <trkpt lat="44.26315" lon="5.73813">
        <ele>646</ele>
        <time>2019-06-04T07:35:43Z</time>
      </trkpt>
      <trkpt lat="44.26314" lon="5.73803">
        <ele>646</ele>
        <time>2019-06-04T07:35:44Z</time>
      </trkpt>
      <trkpt lat="44.26313" lon="5.73793">
        <ele>646</ele>
        <time>2019-06-04T07:35:45Z</time>
      </trkpt>
      <trkpt lat="44.26311" lon="5.73784">
        <ele>646</ele>
        <time>2019-06-04T07:35:46Z</time>
      </trkpt>
      <trkpt lat="44.2631" lon="5.73774">
        <ele>646</ele>
        <time>2019-06-04T07:35:47Z</time>
      </trkpt>
      <trkpt lat="44.26309" lon="5.73765">
        <ele>646</ele>
        <time>2019-06-04T07:35:48Z</time>
      </trkpt>
      <trkpt lat="44.26308" lon="5.73756">
        <ele>646</ele>
        <time>2019-06-04T07:35:49Z</time>
      </trkpt>
      <trkpt lat="44.26307" lon="5.73747">
        <ele>646</ele>
        <time>2019-06-04T07:35:50Z</time>
      </trkpt>
      <trkpt lat="44.26306" lon="5.73737">
        <ele>646</ele>
        <time>2019-06-04T07:35:51Z</time>
      </trkpt>
      <trkpt lat="44.26305" lon="5.73728">
        <ele>646</ele>
        <time>2019-06-04T07:35:52Z</time>
      </trkpt>
      <trkpt lat="44.26304" lon="5.73718">
        <ele>646</ele>
        <time>2019-06-04T07:35:53Z</time>
      </trkpt>
      <trkpt lat="44.26303" lon="5.73709">
        <ele>646</ele>
        <time>2019-06-04T07:35:54Z</time>
      </trkpt>
      <trkpt lat="44.26301" lon="5.73699">
        <ele>647</ele>
        <time>2019-06-04T07:35:55Z</time>
      </trkpt>
      <trkpt lat="44.26299" lon="5.7369">
        <ele>647</ele>
        <time>2019-06-04T07:35:56Z</time>
      </trkpt>
      <trkpt lat="44.26297" lon="5.7368">
        <ele>647</ele>
        <time>2019-06-04T07:35:57Z</time>
      </trkpt>
      <trkpt lat="44.26295" lon="5.73671">
        <ele>647</ele>
        <time>2019-06-04T07:35:58Z</time>
      </trkpt>
      <trkpt lat="44.26294" lon="5.73662">
        <ele>647</ele>
        <time>2019-06-04T07:35:59Z</time>
      </trkpt>
      <trkpt lat="44.26293" lon="5.73652">
        <ele>647</ele>
        <time>2019-06-04T07:36:00Z</time>
      </trkpt>
      <trkpt lat="44.26292" lon="5.73643">
        <ele>647</ele>
        <time>2019-06-04T07:36:01Z</time>
      </trkpt>
      <trkpt lat="44.26291" lon="5.73635">
        <ele>647</ele>
        <time>2019-06-04T07:36:02Z</time>
      </trkpt>
      <trkpt lat="44.2629" lon="5.73626">
        <ele>647</ele>
        <time>2019-06-04T07:36:03Z</time>
      </trkpt>
      <trkpt lat="44.26289" lon="5.73618">
        <ele>647</ele>
        <time>2019-06-04T07:36:04Z</time>
      </trkpt>
      <trkpt lat="44.26288" lon="5.73609">
        <ele>647</ele>
        <time>2019-06-04T07:36:05Z</time>
      </trkpt>
      <trkpt lat="44.26287" lon="5.73601">
        <ele>647</ele>
        <time>2019-06-04T07:36:06Z</time>
      </trkpt>
      <trkpt lat="44.26286" lon="5.73593">
        <ele>647</ele>
        <time>2019-06-04T07:36:07Z</time>
      </trkpt>
      <trkpt lat="44.26284" lon="5.73584">
        <ele>647</ele>
        <time>2019-06-04T07:36:08Z</time>
      </trkpt>
      <trkpt lat="44.26283" lon="5.73576">
        <ele>647</ele>
        <time>2019-06-04T07:36:09Z</time>
      </trkpt>
      <trkpt lat="44.26282" lon="5.73567">
        <ele>647</ele>
        <time>2019-06-04T07:36:10Z</time>
      </trkpt>
      <trkpt lat="44.26281" lon="5.73559">
        <ele>647</ele>
        <time>2019-06-04T07:36:11Z</time>
      </trkpt>
      <trkpt lat="44.2628" lon="5.73551">
        <ele>647</ele>
        <time>2019-06-04T07:36:12Z</time>
      </trkpt>
      <trkpt lat="44.26279" lon="5.73542">
        <ele>647</ele>
        <time>2019-06-04T07:36:13Z</time>
      </trkpt>
      <trkpt lat="44.26278" lon="5.73534">
        <ele>648</ele>
        <time>2019-06-04T07:36:14Z</time>
      </trkpt>
      <trkpt lat="44.26276" lon="5.73525">
        <ele>648</ele>
        <time>2019-06-04T07:36:15Z</time>
      </trkpt>
      <trkpt lat="44.26275" lon="5.73518">
        <ele>648</ele>
        <time>2019-06-04T07:36:16Z</time>
      </trkpt>
      <trkpt lat="44.26274" lon="5.7351">
        <ele>648</ele>
        <time>2019-06-04T07:36:17Z</time>
      </trkpt>
      <trkpt lat="44.26273" lon="5.73502">
        <ele>648</ele>
        <time>2019-06-04T07:36:18Z</time>
      </trkpt>
      <trkpt lat="44.26271" lon="5.73493">
        <ele>648</ele>
        <time>2019-06-04T07:36:19Z</time>
      </trkpt>
      <trkpt lat="44.2627" lon="5.73485">
        <ele>648</ele>
        <time>2019-06-04T07:36:20Z</time>
      </trkpt>
      <trkpt lat="44.26268" lon="5.73477">
        <ele>649</ele>
        <time>2019-06-04T07:36:21Z</time>
      </trkpt>
      <trkpt lat="44.26267" lon="5.7347">
        <ele>649</ele>
        <time>2019-06-04T07:36:22Z</time>
      </trkpt>
      <trkpt lat="44.26266" lon="5.73462">
        <ele>649</ele>
        <time>2019-06-04T07:36:23Z</time>
      </trkpt>
      <trkpt lat="44.26265" lon="5.73455">
        <ele>649</ele>
        <time>2019-06-04T07:36:24Z</time>
      </trkpt>
      <trkpt lat="44.26264" lon="5.73448">
        <ele>650</ele>
        <time>2019-06-04T07:36:25Z</time>
      </trkpt>
      <trkpt lat="44.26263" lon="5.73441">
        <ele>650</ele>
        <time>2019-06-04T07:36:26Z</time>
      </trkpt>
      <trkpt lat="44.26261" lon="5.73433">
        <ele>650</ele>
        <time>2019-06-04T07:36:27Z</time>
      </trkpt>
      <trkpt lat="44.26259" lon="5.73426">
        <ele>650</ele>
        <time>2019-06-04T07:36:28Z</time>
      </trkpt>
      <trkpt lat="44.26257" lon="5.73419">
        <ele>650</ele>
        <time>2019-06-04T07:36:29Z</time>
      </trkpt>
      <trkpt lat="44.26255" lon="5.73412">
        <ele>650</ele>
        <time>2019-06-04T07:36:30Z</time>
      </trkpt>
      <trkpt lat="44.26254" lon="5.73405">
        <ele>651</ele>
        <time>2019-06-04T07:36:31Z</time>
      </trkpt>
      <trkpt lat="44.26252" lon="5.73398">
        <ele>651</ele>
        <time>2019-06-04T07:36:32Z</time>
      </trkpt>
      <trkpt lat="44.2625" lon="5.73392">
        <ele>651</ele>
        <time>2019-06-04T07:36:33Z</time>
      </trkpt>
      <trkpt lat="44.26248" lon="5.73385">
        <ele>651</ele>
        <time>2019-06-04T07:36:34Z</time>
      </trkpt>
      <trkpt lat="44.26247" lon="5.73379">
        <ele>651</ele>
        <time>2019-06-04T07:36:35Z</time>
      </trkpt>
      <trkpt lat="44.26245" lon="5.73373">
        <ele>651</ele>
        <time>2019-06-04T07:36:36Z</time>
      </trkpt>
      <trkpt lat="44.26243" lon="5.73367">
        <ele>651</ele>
        <time>2019-06-04T07:36:37Z</time>
      </trkpt>
      <trkpt lat="44.26241" lon="5.73361">
        <ele>651</ele>
        <time>2019-06-04T07:36:38Z</time>
      </trkpt>
      <trkpt lat="44.26238" lon="5.73354">
        <ele>651</ele>
        <time>2019-06-04T07:36:39Z</time>
      </trkpt>
      <trkpt lat="44.26236" lon="5.73347">
        <ele>651</ele>
        <time>2019-06-04T07:36:40Z</time>
      </trkpt>
      <trkpt lat="44.26233" lon="5.7334">
        <ele>651</ele>
        <time>2019-06-04T07:36:41Z</time>
      </trkpt>
      <trkpt lat="44.26231" lon="5.73333">
        <ele>651</ele>
        <time>2019-06-04T07:36:42Z</time>
      </trkpt>
      <trkpt lat="44.26229" lon="5.73326">
        <ele>651</ele>
        <time>2019-06-04T07:36:43Z</time>
      </trkpt>
      <trkpt lat="44.26227" lon="5.73319">
        <ele>651</ele>
        <time>2019-06-04T07:36:44Z</time>
      </trkpt>
      <trkpt lat="44.26224" lon="5.73312">
        <ele>651</ele>
        <time>2019-06-04T07:36:45Z</time>
      </trkpt>
      <trkpt lat="44.26222" lon="5.73305">
        <ele>651</ele>
        <time>2019-06-04T07:36:46Z</time>
      </trkpt>
      <trkpt lat="44.2622" lon="5.73299">
        <ele>652</ele>
        <time>2019-06-04T07:36:47Z</time>
      </trkpt>
      <trkpt lat="44.26217" lon="5.73292">
        <ele>652</ele>
        <time>2019-06-04T07:36:48Z</time>
      </trkpt>
      <trkpt lat="44.26214" lon="5.73285">
        <ele>652</ele>
        <time>2019-06-04T07:36:49Z</time>
      </trkpt>
      <trkpt lat="44.26212" lon="5.73279">
        <ele>652</ele>
        <time>2019-06-04T07:36:50Z</time>
      </trkpt>
      <trkpt lat="44.2621" lon="5.73273">
        <ele>652</ele>
        <time>2019-06-04T07:36:51Z</time>
      </trkpt>
      <trkpt lat="44.26208" lon="5.73266">
        <ele>652</ele>
        <time>2019-06-04T07:36:52Z</time>
      </trkpt>
      <trkpt lat="44.26207" lon="5.73259">
        <ele>652</ele>
        <time>2019-06-04T07:36:53Z</time>
      </trkpt>
      <trkpt lat="44.26204" lon="5.73253">
        <ele>652</ele>
        <time>2019-06-04T07:36:54Z</time>
      </trkpt>
      <trkpt lat="44.26201" lon="5.73246">
        <ele>652</ele>
        <time>2019-06-04T07:36:55Z</time>
      </trkpt>
      <trkpt lat="44.26199" lon="5.73239">
        <ele>652</ele>
        <time>2019-06-04T07:36:56Z</time>
      </trkpt>
      <trkpt lat="44.26197" lon="5.73232">
        <ele>653</ele>
        <time>2019-06-04T07:36:57Z</time>
      </trkpt>
      <trkpt lat="44.26195" lon="5.73224">
        <ele>654</ele>
        <time>2019-06-04T07:36:58Z</time>
      </trkpt>
      <trkpt lat="44.26193" lon="5.73218">
        <ele>654</ele>
        <time>2019-06-04T07:36:59Z</time>
      </trkpt>
      <trkpt lat="44.26192" lon="5.7321">
        <ele>654</ele>
        <time>2019-06-04T07:37:00Z</time>
      </trkpt>
      <trkpt lat="44.26191" lon="5.73203">
        <ele>655</ele>
        <time>2019-06-04T07:37:01Z</time>
      </trkpt>
      <trkpt lat="44.26189" lon="5.73195">
        <ele>655</ele>
        <time>2019-06-04T07:37:02Z</time>
      </trkpt>
      <trkpt lat="44.26189" lon="5.73187">
        <ele>655</ele>
        <time>2019-06-04T07:37:03Z</time>
      </trkpt>
      <trkpt lat="44.26187" lon="5.73179">
        <ele>655</ele>
        <time>2019-06-04T07:37:04Z</time>
      </trkpt>
      <trkpt lat="44.26184" lon="5.73172">
        <ele>655</ele>
        <time>2019-06-04T07:37:05Z</time>
      </trkpt>
      <trkpt lat="44.26181" lon="5.73165">
        <ele>656</ele>
        <time>2019-06-04T07:37:06Z</time>
      </trkpt>
      <trkpt lat="44.26178" lon="5.73158">
        <ele>656</ele>
        <time>2019-06-04T07:37:07Z</time>
      </trkpt>
      <trkpt lat="44.26176" lon="5.73151">
        <ele>656</ele>
        <time>2019-06-04T07:37:08Z</time>
      </trkpt>
      <trkpt lat="44.26173" lon="5.73143">
        <ele>656</ele>
        <time>2019-06-04T07:37:09Z</time>
      </trkpt>
      <trkpt lat="44.2617" lon="5.73136">
        <ele>656</ele>
        <time>2019-06-04T07:37:10Z</time>
      </trkpt>
      <trkpt lat="44.26168" lon="5.73128">
        <ele>656</ele>
        <time>2019-06-04T07:37:11Z</time>
      </trkpt>
      <trkpt lat="44.26166" lon="5.73121">
        <ele>656</ele>
        <time>2019-06-04T07:37:12Z</time>
      </trkpt>
      <trkpt lat="44.26163" lon="5.73113">
        <ele>656</ele>
        <time>2019-06-04T07:37:13Z</time>
      </trkpt>
      <trkpt lat="44.26161" lon="5.73105">
        <ele>656</ele>
        <time>2019-06-04T07:37:14Z</time>
      </trkpt>
      <trkpt lat="44.2616" lon="5.73098">
        <ele>656</ele>
        <time>2019-06-04T07:37:15Z</time>
      </trkpt>
      <trkpt lat="44.26158" lon="5.7309">
        <ele>656</ele>
        <time>2019-06-04T07:37:16Z</time>
      </trkpt>
      <trkpt lat="44.26157" lon="5.73082">
        <ele>656</ele>
        <time>2019-06-04T07:37:17Z</time>
      </trkpt>
      <trkpt lat="44.26156" lon="5.73075">
        <ele>656</ele>
        <time>2019-06-04T07:37:18Z</time>
      </trkpt>
      <trkpt lat="44.26157" lon="5.73067">
        <ele>656</ele>
        <time>2019-06-04T07:37:19Z</time>
      </trkpt>
      <trkpt lat="44.26157" lon="5.7306">
        <ele>656</ele>
        <time>2019-06-04T07:37:20Z</time>
      </trkpt>
      <trkpt lat="44.26157" lon="5.73053">
        <ele>656</ele>
        <time>2019-06-04T07:37:21Z</time>
      </trkpt>
      <trkpt lat="44.26157" lon="5.73046">
        <ele>656</ele>
        <time>2019-06-04T07:37:22Z</time>
      </trkpt>
      <trkpt lat="44.26157" lon="5.73038">
        <ele>656</ele>
        <time>2019-06-04T07:37:23Z</time>
      </trkpt>
      <trkpt lat="44.26157" lon="5.73031">
        <ele>656</ele>
        <time>2019-06-04T07:37:24Z</time>
      </trkpt>
      <trkpt lat="44.26157" lon="5.73024">
        <ele>656</ele>
        <time>2019-06-04T07:37:25Z</time>
      </trkpt>
      <trkpt lat="44.26157" lon="5.73016">
        <ele>656</ele>
        <time>2019-06-04T07:37:26Z</time>
      </trkpt>
      <trkpt lat="44.26157" lon="5.73009">
        <ele>657</ele>
        <time>2019-06-04T07:37:27Z</time>
      </trkpt>
      <trkpt lat="44.26157" lon="5.73002">
        <ele>657</ele>
        <time>2019-06-04T07:37:28Z</time>
      </trkpt>
      <trkpt lat="44.26157" lon="5.72995">
        <ele>657</ele>
        <time>2019-06-04T07:37:29Z</time>
      </trkpt>
      <trkpt lat="44.26157" lon="5.72988">
        <ele>657</ele>
        <time>2019-06-04T07:37:30Z</time>
      </trkpt>
      <trkpt lat="44.26157" lon="5.72982">
        <ele>658</ele>
        <time>2019-06-04T07:37:31Z</time>
      </trkpt>
      <trkpt lat="44.26157" lon="5.72975">
        <ele>658</ele>
        <time>2019-06-04T07:37:32Z</time>
      </trkpt>
      <trkpt lat="44.26157" lon="5.72968">
        <ele>658</ele>
        <time>2019-06-04T07:37:33Z</time>
      </trkpt>
      <trkpt lat="44.26156" lon="5.72961">
        <ele>659</ele>
        <time>2019-06-04T07:37:34Z</time>
      </trkpt>
      <trkpt lat="44.26156" lon="5.72954">
        <ele>660</ele>
        <time>2019-06-04T07:37:35Z</time>
      </trkpt>
      <trkpt lat="44.26156" lon="5.72948">
        <ele>660</ele>
        <time>2019-06-04T07:37:36Z</time>
      </trkpt>
      <trkpt lat="44.26156" lon="5.72941">
        <ele>661</ele>
        <time>2019-06-04T07:37:37Z</time>
      </trkpt>
      <trkpt lat="44.26156" lon="5.72935">
        <ele>661</ele>
        <time>2019-06-04T07:37:38Z</time>
      </trkpt>
      <trkpt lat="44.26157" lon="5.72928">
        <ele>661</ele>
        <time>2019-06-04T07:37:39Z</time>
      </trkpt>
      <trkpt lat="44.26157" lon="5.72922">
        <ele>662</ele>
        <time>2019-06-04T07:37:40Z</time>
      </trkpt>
      <trkpt lat="44.26158" lon="5.72916">
        <ele>662</ele>
        <time>2019-06-04T07:37:41Z</time>
      </trkpt>
      <trkpt lat="44.26159" lon="5.72909">
        <ele>662</ele>
        <time>2019-06-04T07:37:42Z</time>
      </trkpt>
      <trkpt lat="44.26159" lon="5.72903">
        <ele>662</ele>
        <time>2019-06-04T07:37:43Z</time>
      </trkpt>
      <trkpt lat="44.2616" lon="5.72897">
        <ele>662</ele>
        <time>2019-06-04T07:37:44Z</time>
      </trkpt>
      <trkpt lat="44.2616" lon="5.7289">
        <ele>662</ele>
        <time>2019-06-04T07:37:45Z</time>
      </trkpt>
      <trkpt lat="44.2616" lon="5.72884">
        <ele>662</ele>
        <time>2019-06-04T07:37:46Z</time>
      </trkpt>
      <trkpt lat="44.2616" lon="5.72877">
        <ele>662</ele>
        <time>2019-06-04T07:37:47Z</time>
      </trkpt>
      <trkpt lat="44.26161" lon="5.7287">
        <ele>662</ele>
        <time>2019-06-04T07:37:48Z</time>
      </trkpt>
      <trkpt lat="44.26162" lon="5.72863">
        <ele>662</ele>
        <time>2019-06-04T07:37:49Z</time>
      </trkpt>
      <trkpt lat="44.26162" lon="5.72857">
        <ele>662</ele>
        <time>2019-06-04T07:37:50Z</time>
      </trkpt>
      <trkpt lat="44.26162" lon="5.72851">
        <ele>662</ele>
        <time>2019-06-04T07:37:51Z</time>
      </trkpt>
      <trkpt lat="44.26162" lon="5.72845">
        <ele>662</ele>
        <time>2019-06-04T07:37:52Z</time>
      </trkpt>
      <trkpt lat="44.26163" lon="5.72838">
        <ele>662</ele>
        <time>2019-06-04T07:37:53Z</time>
      </trkpt>
      <trkpt lat="44.26163" lon="5.72832">
        <ele>662</ele>
        <time>2019-06-04T07:37:54Z</time>
      </trkpt>
      <trkpt lat="44.26163" lon="5.72825">
        <ele>662</ele>
        <time>2019-06-04T07:37:55Z</time>
      </trkpt>
      <trkpt lat="44.26163" lon="5.72819">
        <ele>662</ele>
        <time>2019-06-04T07:37:56Z</time>
      </trkpt>
      <trkpt lat="44.26163" lon="5.72812">
        <ele>662</ele>
        <time>2019-06-04T07:37:57Z</time>
      </trkpt>
      <trkpt lat="44.26164" lon="5.72805">
        <ele>662</ele>
        <time>2019-06-04T07:37:58Z</time>
      </trkpt>
      <trkpt lat="44.26164" lon="5.72798">
        <ele>662</ele>
        <time>2019-06-04T07:37:59Z</time>
      </trkpt>
      <trkpt lat="44.26163" lon="5.72792">
        <ele>662</ele>
        <time>2019-06-04T07:38:00Z</time>
      </trkpt>
      <trkpt lat="44.26163" lon="5.72785">
        <ele>662</ele>
        <time>2019-06-04T07:38:01Z</time>
      </trkpt>
      <trkpt lat="44.26162" lon="5.72778">
        <ele>662</ele>
        <time>2019-06-04T07:38:02Z</time>
      </trkpt>
      <trkpt lat="44.26161" lon="5.72771">
        <ele>662</ele>
        <time>2019-06-04T07:38:03Z</time>
      </trkpt>
      <trkpt lat="44.2616" lon="5.72764">
        <ele>662</ele>
        <time>2019-06-04T07:38:04Z</time>
      </trkpt>
      <trkpt lat="44.26159" lon="5.72757">
        <ele>662</ele>
        <time>2019-06-04T07:38:05Z</time>
      </trkpt>
      <trkpt lat="44.26158" lon="5.7275">
        <ele>662</ele>
        <time>2019-06-04T07:38:06Z</time>
      </trkpt>
      <trkpt lat="44.26157" lon="5.72744">
        <ele>662</ele>
        <time>2019-06-04T07:38:07Z</time>
      </trkpt>
      <trkpt lat="44.26155" lon="5.72737">
        <ele>662</ele>
        <time>2019-06-04T07:38:08Z</time>
      </trkpt>
      <trkpt lat="44.26153" lon="5.7273">
        <ele>663</ele>
        <time>2019-06-04T07:38:09Z</time>
      </trkpt>
      <trkpt lat="44.26152" lon="5.72724">
        <ele>663</ele>
        <time>2019-06-04T07:38:10Z</time>
      </trkpt>
      <trkpt lat="44.2615" lon="5.72717">
        <ele>663</ele>
        <time>2019-06-04T07:38:11Z</time>
      </trkpt>
      <trkpt lat="44.26149" lon="5.7271">
        <ele>663</ele>
        <time>2019-06-04T07:38:12Z</time>
      </trkpt>
      <trkpt lat="44.26147" lon="5.72703">
        <ele>663</ele>
        <time>2019-06-04T07:38:13Z</time>
      </trkpt>
      <trkpt lat="44.26146" lon="5.72696">
        <ele>664</ele>
        <time>2019-06-04T07:38:14Z</time>
      </trkpt>
      <trkpt lat="44.26144" lon="5.72689">
        <ele>664</ele>
        <time>2019-06-04T07:38:15Z</time>
      </trkpt>
      <trkpt lat="44.26143" lon="5.72683">
        <ele>664</ele>
        <time>2019-06-04T07:38:16Z</time>
      </trkpt>
      <trkpt lat="44.26141" lon="5.72676">
        <ele>664</ele>
        <time>2019-06-04T07:38:17Z</time>
      </trkpt>
      <trkpt lat="44.26139" lon="5.7267">
        <ele>665</ele>
        <time>2019-06-04T07:38:18Z</time>
      </trkpt>
      <trkpt lat="44.26137" lon="5.72663">
        <ele>665</ele>
        <time>2019-06-04T07:38:19Z</time>
      </trkpt>
      <trkpt lat="44.26136" lon="5.72657">
        <ele>665</ele>
        <time>2019-06-04T07:38:20Z</time>
      </trkpt>
      <trkpt lat="44.26134" lon="5.72651">
        <ele>665</ele>
        <time>2019-06-04T07:38:21Z</time>
      </trkpt>
      <trkpt lat="44.26133" lon="5.72645">
        <ele>665</ele>
        <time>2019-06-04T07:38:22Z</time>
      </trkpt>
      <trkpt lat="44.26132" lon="5.72638">
        <ele>666</ele>
        <time>2019-06-04T07:38:23Z</time>
      </trkpt>
      <trkpt lat="44.2613" lon="5.72632">
        <ele>666</ele>
        <time>2019-06-04T07:38:24Z</time>
      </trkpt>
      <trkpt lat="44.26128" lon="5.72626">
        <ele>666</ele>
        <time>2019-06-04T07:38:25Z</time>
      </trkpt>
      <trkpt lat="44.26127" lon="5.7262">
        <ele>666</ele>
        <time>2019-06-04T07:38:26Z</time>
      </trkpt>
      <trkpt lat="44.26126" lon="5.72614">
        <ele>666</ele>
        <time>2019-06-04T07:38:27Z</time>
      </trkpt>
      <trkpt lat="44.26125" lon="5.72607">
        <ele>666</ele>
        <time>2019-06-04T07:38:28Z</time>
      </trkpt>
      <trkpt lat="44.26123" lon="5.726">
        <ele>666</ele>
        <time>2019-06-04T07:38:29Z</time>
      </trkpt>
      <trkpt lat="44.26121" lon="5.72593">
        <ele>666</ele>
        <time>2019-06-04T07:38:30Z</time>
      </trkpt>
      <trkpt lat="44.26119" lon="5.72586">
        <ele>666</ele>
        <time>2019-06-04T07:38:31Z</time>
      </trkpt>
      <trkpt lat="44.26117" lon="5.72578">
        <ele>666</ele>
        <time>2019-06-04T07:38:32Z</time>
      </trkpt>
      <trkpt lat="44.26115" lon="5.7257">
        <ele>666</ele>
        <time>2019-06-04T07:38:33Z</time>
      </trkpt>
      <trkpt lat="44.26113" lon="5.72562">
        <ele>666</ele>
        <time>2019-06-04T07:38:34Z</time>
      </trkpt>
      <trkpt lat="44.2611" lon="5.72553">
        <ele>666</ele>
        <time>2019-06-04T07:38:35Z</time>
      </trkpt>
      <trkpt lat="44.26108" lon="5.72545">
        <ele>666</ele>
        <time>2019-06-04T07:38:36Z</time>
      </trkpt>
      <trkpt lat="44.26106" lon="5.72536">
        <ele>666</ele>
        <time>2019-06-04T07:38:37Z</time>
      </trkpt>
      <trkpt lat="44.26103" lon="5.72527">
        <ele>666</ele>
        <time>2019-06-04T07:38:38Z</time>
      </trkpt>
      <trkpt lat="44.26101" lon="5.72517">
        <ele>666</ele>
        <time>2019-06-04T07:38:39Z</time>
      </trkpt>
      <trkpt lat="44.26099" lon="5.72507">
        <ele>666</ele>
        <time>2019-06-04T07:38:40Z</time>
      </trkpt>
      <trkpt lat="44.26097" lon="5.72498">
        <ele>666</ele>
        <time>2019-06-04T07:38:41Z</time>
      </trkpt>
      <trkpt lat="44.26095" lon="5.72488">
        <ele>666</ele>
        <time>2019-06-04T07:38:42Z</time>
      </trkpt>
      <trkpt lat="44.26093" lon="5.72478">
        <ele>666</ele>
        <time>2019-06-04T07:38:43Z</time>
      </trkpt>
      <trkpt lat="44.26091" lon="5.72468">
        <ele>666</ele>
        <time>2019-06-04T07:38:44Z</time>
      </trkpt>
      <trkpt lat="44.26089" lon="5.72459">
        <ele>666</ele>
        <time>2019-06-04T07:38:45Z</time>
      </trkpt>
      <trkpt lat="44.26087" lon="5.72449">
        <ele>666</ele>
        <time>2019-06-04T07:38:46Z</time>
      </trkpt>
      <trkpt lat="44.26085" lon="5.72439">
        <ele>666</ele>
        <time>2019-06-04T07:38:47Z</time>
      </trkpt>
      <trkpt lat="44.26083" lon="5.72429">
        <ele>666</ele>
        <time>2019-06-04T07:38:48Z</time>
      </trkpt>
      <trkpt lat="44.26081" lon="5.7242">
        <ele>666</ele>
        <time>2019-06-04T07:38:49Z</time>
      </trkpt>
      <trkpt lat="44.26078" lon="5.72411">
        <ele>666</ele>
        <time>2019-06-04T07:38:50Z</time>
      </trkpt>
      <trkpt lat="44.26075" lon="5.72403">
        <ele>666</ele>
        <time>2019-06-04T07:38:51Z</time>
      </trkpt>
      <trkpt lat="44.26071" lon="5.72394">
        <ele>666</ele>
        <time>2019-06-04T07:38:52Z</time>
      </trkpt>
      <trkpt lat="44.26067" lon="5.72386">
        <ele>666</ele>
        <time>2019-06-04T07:38:53Z</time>
      </trkpt>
      <trkpt lat="44.26064" lon="5.72379">
        <ele>666</ele>
        <time>2019-06-04T07:38:54Z</time>
      </trkpt>
      <trkpt lat="44.2606" lon="5.72371">
        <ele>666</ele>
        <time>2019-06-04T07:38:55Z</time>
      </trkpt>
      <trkpt lat="44.26056" lon="5.72364">
        <ele>666</ele>
        <time>2019-06-04T07:38:56Z</time>
      </trkpt>
      <trkpt lat="44.26052" lon="5.72356">
        <ele>666</ele>
        <time>2019-06-04T07:38:57Z</time>
      </trkpt>
      <trkpt lat="44.26049" lon="5.72348">
        <ele>666</ele>
        <time>2019-06-04T07:38:58Z</time>
      </trkpt>
      <trkpt lat="44.26045" lon="5.72341">
        <ele>666</ele>
        <time>2019-06-04T07:38:59Z</time>
      </trkpt>
      <trkpt lat="44.26041" lon="5.72333">
        <ele>666</ele>
        <time>2019-06-04T07:39:00Z</time>
      </trkpt>
      <trkpt lat="44.26037" lon="5.72326">
        <ele>666</ele>
        <time>2019-06-04T07:39:01Z</time>
      </trkpt>
      <trkpt lat="44.26033" lon="5.72318">
        <ele>666</ele>
        <time>2019-06-04T07:39:02Z</time>
      </trkpt>
      <trkpt lat="44.2603" lon="5.72311">
        <ele>666</ele>
        <time>2019-06-04T07:39:03Z</time>
      </trkpt>
      <trkpt lat="44.26025" lon="5.72303">
        <ele>666</ele>
        <time>2019-06-04T07:39:04Z</time>
      </trkpt>
      <trkpt lat="44.26022" lon="5.72295">
        <ele>666</ele>
        <time>2019-06-04T07:39:05Z</time>
      </trkpt>
      <trkpt lat="44.26017" lon="5.72288">
        <ele>666</ele>
        <time>2019-06-04T07:39:06Z</time>
      </trkpt>
      <trkpt lat="44.26014" lon="5.7228">
        <ele>666</ele>
        <time>2019-06-04T07:39:07Z</time>
      </trkpt>
      <trkpt lat="44.2601" lon="5.72272">
        <ele>666</ele>
        <time>2019-06-04T07:39:08Z</time>
      </trkpt>
      <trkpt lat="44.26006" lon="5.72264">
        <ele>666</ele>
        <time>2019-06-04T07:39:09Z</time>
      </trkpt>
      <trkpt lat="44.26002" lon="5.72256">
        <ele>666</ele>
        <time>2019-06-04T07:39:10Z</time>
      </trkpt>
      <trkpt lat="44.25999" lon="5.72249">
        <ele>666</ele>
        <time>2019-06-04T07:39:11Z</time>
      </trkpt>
      <trkpt lat="44.25994" lon="5.72241">
        <ele>666</ele>
        <time>2019-06-04T07:39:12Z</time>
      </trkpt>
      <trkpt lat="44.2599" lon="5.72233">
        <ele>666</ele>
        <time>2019-06-04T07:39:13Z</time>
      </trkpt>
      <trkpt lat="44.25986" lon="5.72225">
        <ele>666</ele>
        <time>2019-06-04T07:39:14Z</time>
      </trkpt>
      <trkpt lat="44.25983" lon="5.72218">
        <ele>666</ele>
        <time>2019-06-04T07:39:15Z</time>
      </trkpt>
      <trkpt lat="44.2598" lon="5.72211">
        <ele>666</ele>
        <time>2019-06-04T07:39:16Z</time>
      </trkpt>
      <trkpt lat="44.25976" lon="5.72203">
        <ele>666</ele>
        <time>2019-06-04T07:39:17Z</time>
      </trkpt>
      <trkpt lat="44.25974" lon="5.72196">
        <ele>666</ele>
        <time>2019-06-04T07:39:18Z</time>
      </trkpt>
      <trkpt lat="44.2597" lon="5.7219">
        <ele>666</ele>
        <time>2019-06-04T07:39:19Z</time>
      </trkpt>
      <trkpt lat="44.25966" lon="5.72182">
        <ele>666</ele>
        <time>2019-06-04T07:39:20Z</time>
      </trkpt>
      <trkpt lat="44.25962" lon="5.72175">
        <ele>666</ele>
        <time>2019-06-04T07:39:21Z</time>
      </trkpt>
      <trkpt lat="44.25957" lon="5.72166">
        <ele>666</ele>
        <time>2019-06-04T07:39:22Z</time>
      </trkpt>
      <trkpt lat="44.25954" lon="5.72158">
        <ele>666</ele>
        <time>2019-06-04T07:39:23Z</time>
      </trkpt>
      <trkpt lat="44.25949" lon="5.7215">
        <ele>666</ele>
        <time>2019-06-04T07:39:24Z</time>
      </trkpt>
      <trkpt lat="44.25945" lon="5.72142">
        <ele>666</ele>
        <time>2019-06-04T07:39:25Z</time>
      </trkpt>
      <trkpt lat="44.2594" lon="5.72134">
        <ele>666</ele>
        <time>2019-06-04T07:39:26Z</time>
      </trkpt>
      <trkpt lat="44.25935" lon="5.72126">
        <ele>666</ele>
        <time>2019-06-04T07:39:27Z</time>
      </trkpt>
      <trkpt lat="44.2593" lon="5.72118">
        <ele>666</ele>
        <time>2019-06-04T07:39:28Z</time>
      </trkpt>
      <trkpt lat="44.25925" lon="5.72111">
        <ele>666</ele>
        <time>2019-06-04T07:39:29Z</time>
      </trkpt>
      <trkpt lat="44.2592" lon="5.72103">
        <ele>666</ele>
        <time>2019-06-04T07:39:30Z</time>
      </trkpt>
      <trkpt lat="44.25915" lon="5.72095">
        <ele>666</ele>
        <time>2019-06-04T07:39:31Z</time>
      </trkpt>
      <trkpt lat="44.2591" lon="5.72087">
        <ele>666</ele>
        <time>2019-06-04T07:39:32Z</time>
      </trkpt>
      <trkpt lat="44.25904" lon="5.72079">
        <ele>666</ele>
        <time>2019-06-04T07:39:33Z</time>
      </trkpt>
      <trkpt lat="44.25898" lon="5.72072">
        <ele>666</ele>
        <time>2019-06-04T07:39:34Z</time>
      </trkpt>
      <trkpt lat="44.25892" lon="5.72066">
        <ele>666</ele>
        <time>2019-06-04T07:39:35Z</time>
      </trkpt>
      <trkpt lat="44.25885" lon="5.7206">
        <ele>666</ele>
        <time>2019-06-04T07:39:36Z</time>
      </trkpt>
      <trkpt lat="44.25879" lon="5.72055">
        <ele>666</ele>
        <time>2019-06-04T07:39:37Z</time>
      </trkpt>
      <trkpt lat="44.25872" lon="5.7205">
        <ele>666</ele>
        <time>2019-06-04T07:39:38Z</time>
      </trkpt>
      <trkpt lat="44.25866" lon="5.72045">
        <ele>666</ele>
        <time>2019-06-04T07:39:39Z</time>
      </trkpt>
      <trkpt lat="44.25859" lon="5.72041">
        <ele>666</ele>
        <time>2019-06-04T07:39:40Z</time>
      </trkpt>
      <trkpt lat="44.25853" lon="5.72036">
        <ele>666</ele>
        <time>2019-06-04T07:39:41Z</time>
      </trkpt>
      <trkpt lat="44.25847" lon="5.72031">
        <ele>666</ele>
        <time>2019-06-04T07:39:42Z</time>
      </trkpt>
      <trkpt lat="44.25841" lon="5.72027">
        <ele>666</ele>
        <time>2019-06-04T07:39:43Z</time>
      </trkpt>
      <trkpt lat="44.25834" lon="5.72023">
        <ele>666</ele>
        <time>2019-06-04T07:39:44Z</time>
      </trkpt>
      <trkpt lat="44.25828" lon="5.72018">
        <ele>666</ele>
        <time>2019-06-04T07:39:45Z</time>
      </trkpt>
      <trkpt lat="44.25822" lon="5.72014">
        <ele>666</ele>
        <time>2019-06-04T07:39:46Z</time>
      </trkpt>
      <trkpt lat="44.25816" lon="5.7201">
        <ele>666</ele>
        <time>2019-06-04T07:39:47Z</time>
      </trkpt>
      <trkpt lat="44.2581" lon="5.72006">
        <ele>666</ele>
        <time>2019-06-04T07:39:48Z</time>
      </trkpt>
      <trkpt lat="44.25804" lon="5.72002">
        <ele>666</ele>
        <time>2019-06-04T07:39:49Z</time>
      </trkpt>
      <trkpt lat="44.25798" lon="5.71997">
        <ele>666</ele>
        <time>2019-06-04T07:39:50Z</time>
      </trkpt>
      <trkpt lat="44.25792" lon="5.71993">
        <ele>666</ele>
        <time>2019-06-04T07:39:51Z</time>
      </trkpt>
      <trkpt lat="44.25786" lon="5.71989">
        <ele>666</ele>
        <time>2019-06-04T07:39:52Z</time>
      </trkpt>
      <trkpt lat="44.2578" lon="5.71985">
        <ele>666</ele>
        <time>2019-06-04T07:39:53Z</time>
      </trkpt>
      <trkpt lat="44.25774" lon="5.71981">
        <ele>666</ele>
        <time>2019-06-04T07:39:54Z</time>
      </trkpt>
      <trkpt lat="44.25768" lon="5.71977">
        <ele>666</ele>
        <time>2019-06-04T07:39:55Z</time>
      </trkpt>
      <trkpt lat="44.25762" lon="5.71973">
        <ele>666</ele>
        <time>2019-06-04T07:39:56Z</time>
      </trkpt>
      <trkpt lat="44.25756" lon="5.71968">
        <ele>666</ele>
        <time>2019-06-04T07:39:57Z</time>
      </trkpt>
      <trkpt lat="44.25751" lon="5.71964">
        <ele>666</ele>
        <time>2019-06-04T07:39:58Z</time>
      </trkpt>
      <trkpt lat="44.25745" lon="5.7196">
        <ele>666</ele>
        <time>2019-06-04T07:39:59Z</time>
      </trkpt>
      <trkpt lat="44.2574" lon="5.71955">
        <ele>666</ele>
        <time>2019-06-04T07:40:00Z</time>
      </trkpt>
      <trkpt lat="44.25734" lon="5.7195">
        <ele>666</ele>
        <time>2019-06-04T07:40:01Z</time>
      </trkpt>
      <trkpt lat="44.25729" lon="5.71945">
        <ele>666</ele>
        <time>2019-06-04T07:40:02Z</time>
      </trkpt>
      <trkpt lat="44.25723" lon="5.71941">
        <ele>666</ele>
        <time>2019-06-04T07:40:03Z</time>
      </trkpt>
      <trkpt lat="44.25718" lon="5.71936">
        <ele>666</ele>
        <time>2019-06-04T07:40:04Z</time>
      </trkpt>
      <trkpt lat="44.25712" lon="5.71931">
        <ele>666</ele>
        <time>2019-06-04T07:40:05Z</time>
      </trkpt>
      <trkpt lat="44.25706" lon="5.71926">
        <ele>666</ele>
        <time>2019-06-04T07:40:06Z</time>
      </trkpt>
      <trkpt lat="44.25701" lon="5.71922">
        <ele>666</ele>
        <time>2019-06-04T07:40:07Z</time>
      </trkpt>
      <trkpt lat="44.25695" lon="5.71918">
        <ele>666</ele>
        <time>2019-06-04T07:40:08Z</time>
      </trkpt>
      <trkpt lat="44.25689" lon="5.71914">
        <ele>666</ele>
        <time>2019-06-04T07:40:09Z</time>
      </trkpt>
      <trkpt lat="44.25683" lon="5.71911">
        <ele>666</ele>
        <time>2019-06-04T07:40:10Z</time>
      </trkpt>
      <trkpt lat="44.25677" lon="5.71908">
        <ele>666</ele>
        <time>2019-06-04T07:40:11Z</time>
      </trkpt>
      <trkpt lat="44.25671" lon="5.71906">
        <ele>666</ele>
        <time>2019-06-04T07:40:12Z</time>
      </trkpt>
      <trkpt lat="44.25665" lon="5.71903">
        <ele>666</ele>
        <time>2019-06-04T07:40:13Z</time>
      </trkpt>
      <trkpt lat="44.25659" lon="5.719">
        <ele>666</ele>
        <time>2019-06-04T07:40:14Z</time>
      </trkpt>
      <trkpt lat="44.25653" lon="5.71897">
        <ele>666</ele>
        <time>2019-06-04T07:40:15Z</time>
      </trkpt>
      <trkpt lat="44.25647" lon="5.71893">
        <ele>666</ele>
        <time>2019-06-04T07:40:16Z</time>
      </trkpt>
      <trkpt lat="44.25641" lon="5.71889">
        <ele>666</ele>
        <time>2019-06-04T07:40:17Z</time>
      </trkpt>
      <trkpt lat="44.25635" lon="5.71885">
        <ele>666</ele>
        <time>2019-06-04T07:40:18Z</time>
      </trkpt>
      <trkpt lat="44.25629" lon="5.7188">
        <ele>666</ele>
        <time>2019-06-04T07:40:19Z</time>
      </trkpt>
      <trkpt lat="44.25624" lon="5.71875">
        <ele>666</ele>
        <time>2019-06-04T07:40:20Z</time>
      </trkpt>
      <trkpt lat="44.25618" lon="5.7187">
        <ele>666</ele>
        <time>2019-06-04T07:40:21Z</time>
      </trkpt>
      <trkpt lat="44.25613" lon="5.71865">
        <ele>666</ele>
        <time>2019-06-04T07:40:22Z</time>
      </trkpt>
      <trkpt lat="44.25608" lon="5.7186">
        <ele>666</ele>
        <time>2019-06-04T07:40:23Z</time>
      </trkpt>
      <trkpt lat="44.25602" lon="5.71854">
        <ele>666</ele>
        <time>2019-06-04T07:40:24Z</time>
      </trkpt>
      <trkpt lat="44.25597" lon="5.71849">
        <ele>666</ele>
        <time>2019-06-04T07:40:25Z</time>
      </trkpt>
      <trkpt lat="44.25592" lon="5.71844">
        <ele>666</ele>
        <time>2019-06-04T07:40:26Z</time>
      </trkpt>
      <trkpt lat="44.25587" lon="5.7184">
        <ele>666</ele>
        <time>2019-06-04T07:40:27Z</time>
      </trkpt>
      <trkpt lat="44.25582" lon="5.71834">
        <ele>666</ele>
        <time>2019-06-04T07:40:28Z</time>
      </trkpt>
      <trkpt lat="44.25576" lon="5.71829">
        <ele>666</ele>
        <time>2019-06-04T07:40:29Z</time>
      </trkpt>
      <trkpt lat="44.25571" lon="5.71825">
        <ele>666</ele>
        <time>2019-06-04T07:40:30Z</time>
      </trkpt>
      <trkpt lat="44.25566" lon="5.7182">
        <ele>666</ele>
        <time>2019-06-04T07:40:31Z</time>
      </trkpt>
      <trkpt lat="44.25561" lon="5.71815">
        <ele>666</ele>
        <time>2019-06-04T07:40:32Z</time>
      </trkpt>
      <trkpt lat="44.25556" lon="5.7181">
        <ele>666</ele>
        <time>2019-06-04T07:40:33Z</time>
      </trkpt>
      <trkpt lat="44.25551" lon="5.71805">
        <ele>666</ele>
        <time>2019-06-04T07:40:34Z</time>
      </trkpt>
      <trkpt lat="44.25546" lon="5.71801">
        <ele>666</ele>
        <time>2019-06-04T07:40:35Z</time>
      </trkpt>
      <trkpt lat="44.2554" lon="5.71796">
        <ele>666</ele>
        <time>2019-06-04T07:40:36Z</time>
      </trkpt>
      <trkpt lat="44.25534" lon="5.71792">
        <ele>666</ele>
        <time>2019-06-04T07:40:37Z</time>
      </trkpt>
      <trkpt lat="44.25529" lon="5.71788">
        <ele>666</ele>
        <time>2019-06-04T07:40:38Z</time>
      </trkpt>
      <trkpt lat="44.25523" lon="5.71784">
        <ele>666</ele>
        <time>2019-06-04T07:40:39Z</time>
      </trkpt>
      <trkpt lat="44.25517" lon="5.71781">
        <ele>666</ele>
        <time>2019-06-04T07:40:40Z</time>
      </trkpt>
      <trkpt lat="44.25512" lon="5.71777">
        <ele>666</ele>
        <time>2019-06-04T07:40:41Z</time>
      </trkpt>
      <trkpt lat="44.25506" lon="5.71773">
        <ele>666</ele>
        <time>2019-06-04T07:40:42Z</time>
      </trkpt>
      <trkpt lat="44.255" lon="5.7177">
        <ele>666</ele>
        <time>2019-06-04T07:40:43Z</time>
      </trkpt>
      <trkpt lat="44.25494" lon="5.71766">
        <ele>666</ele>
        <time>2019-06-04T07:40:44Z</time>
      </trkpt>
      <trkpt lat="44.25488" lon="5.71763">
        <ele>666</ele>
        <time>2019-06-04T07:40:45Z</time>
      </trkpt>
      <trkpt lat="44.25483" lon="5.71759">
        <ele>666</ele>
        <time>2019-06-04T07:40:46Z</time>
      </trkpt>
      <trkpt lat="44.25477" lon="5.71755">
        <ele>666</ele>
        <time>2019-06-04T07:40:47Z</time>
      </trkpt>
      <trkpt lat="44.25471" lon="5.71751">
        <ele>666</ele>
        <time>2019-06-04T07:40:48Z</time>
      </trkpt>
      <trkpt lat="44.25465" lon="5.71747">
        <ele>666</ele>
        <time>2019-06-04T07:40:49Z</time>
      </trkpt>
      <trkpt lat="44.25459" lon="5.71743">
        <ele>666</ele>
        <time>2019-06-04T07:40:50Z</time>
      </trkpt>
      <trkpt lat="44.25453" lon="5.71739">
        <ele>666</ele>
        <time>2019-06-04T07:40:51Z</time>
      </trkpt>
      <trkpt lat="44.25447" lon="5.71735">
        <ele>666</ele>
        <time>2019-06-04T07:40:52Z</time>
      </trkpt>
      <trkpt lat="44.25441" lon="5.71731">
        <ele>666</ele>
        <time>2019-06-04T07:40:53Z</time>
      </trkpt>
      <trkpt lat="44.25436" lon="5.71727">
        <ele>666</ele>
        <time>2019-06-04T07:40:54Z</time>
      </trkpt>
      <trkpt lat="44.2543" lon="5.71723">
        <ele>666</ele>
        <time>2019-06-04T07:40:55Z</time>
      </trkpt>
      <trkpt lat="44.25423" lon="5.71719">
        <ele>666</ele>
        <time>2019-06-04T07:40:56Z</time>
      </trkpt>
      <trkpt lat="44.25417" lon="5.71715">
        <ele>666</ele>
        <time>2019-06-04T07:40:57Z</time>
      </trkpt>
      <trkpt lat="44.25412" lon="5.71711">
        <ele>666</ele>
        <time>2019-06-04T07:40:58Z</time>
      </trkpt>
      <trkpt lat="44.25406" lon="5.71708">
        <ele>666</ele>
        <time>2019-06-04T07:40:59Z</time>
      </trkpt>
      <trkpt lat="44.254" lon="5.71705">
        <ele>666</ele>
        <time>2019-06-04T07:41:00Z</time>
      </trkpt>
      <trkpt lat="44.25394" lon="5.71702">
        <ele>666</ele>
        <time>2019-06-04T07:41:01Z</time>
      </trkpt>
      <trkpt lat="44.25388" lon="5.71699">
        <ele>666</ele>
        <time>2019-06-04T07:41:02Z</time>
      </trkpt>
      <trkpt lat="44.25382" lon="5.71696">
        <ele>666</ele>
        <time>2019-06-04T07:41:03Z</time>
      </trkpt>
      <trkpt lat="44.25376" lon="5.71692">
        <ele>666</ele>
        <time>2019-06-04T07:41:04Z</time>
      </trkpt>
      <trkpt lat="44.2537" lon="5.71689">
        <ele>666</ele>
        <time>2019-06-04T07:41:05Z</time>
      </trkpt>
      <trkpt lat="44.25364" lon="5.71685">
        <ele>666</ele>
        <time>2019-06-04T07:41:06Z</time>
      </trkpt>
      <trkpt lat="44.25359" lon="5.7168">
        <ele>666</ele>
        <time>2019-06-04T07:41:07Z</time>
      </trkpt>
      <trkpt lat="44.25353" lon="5.71675">
        <ele>666</ele>
        <time>2019-06-04T07:41:08Z</time>
      </trkpt>
      <trkpt lat="44.25348" lon="5.7167">
        <ele>666</ele>
        <time>2019-06-04T07:41:09Z</time>
      </trkpt>
      <trkpt lat="44.25343" lon="5.71664">
        <ele>666</ele>
        <time>2019-06-04T07:41:10Z</time>
      </trkpt>
      <trkpt lat="44.25337" lon="5.71659">
        <ele>666</ele>
        <time>2019-06-04T07:41:11Z</time>
      </trkpt>
      <trkpt lat="44.25332" lon="5.71653">
        <ele>666</ele>
        <time>2019-06-04T07:41:12Z</time>
      </trkpt>
      <trkpt lat="44.25327" lon="5.71647">
        <ele>666</ele>
        <time>2019-06-04T07:41:13Z</time>
      </trkpt>
      <trkpt lat="44.25322" lon="5.71641">
        <ele>666</ele>
        <time>2019-06-04T07:41:14Z</time>
      </trkpt>
      <trkpt lat="44.25317" lon="5.71635">
        <ele>666</ele>
        <time>2019-06-04T07:41:15Z</time>
      </trkpt>
      <trkpt lat="44.25312" lon="5.71629">
        <ele>666</ele>
        <time>2019-06-04T07:41:16Z</time>
      </trkpt>
      <trkpt lat="44.25306" lon="5.71623">
        <ele>666</ele>
        <time>2019-06-04T07:41:17Z</time>
      </trkpt>
      <trkpt lat="44.25301" lon="5.71617">
        <ele>666</ele>
        <time>2019-06-04T07:41:18Z</time>
      </trkpt>
      <trkpt lat="44.25296" lon="5.71611">
        <ele>666</ele>
        <time>2019-06-04T07:41:19Z</time>
      </trkpt>
      <trkpt lat="44.25291" lon="5.71605">
        <ele>666</ele>
        <time>2019-06-04T07:41:20Z</time>
      </trkpt>
      <trkpt lat="44.25287" lon="5.71599">
        <ele>666</ele>
        <time>2019-06-04T07:41:21Z</time>
      </trkpt>
      <trkpt lat="44.25282" lon="5.71594">
        <ele>666</ele>
        <time>2019-06-04T07:41:22Z</time>
      </trkpt>
      <trkpt lat="44.25277" lon="5.71588">
        <ele>666</ele>
        <time>2019-06-04T07:41:23Z</time>
      </trkpt>
      <trkpt lat="44.25273" lon="5.71582">
        <ele>666</ele>
        <time>2019-06-04T07:41:24Z</time>
      </trkpt>
      <trkpt lat="44.25268" lon="5.71576">
        <ele>666</ele>
        <time>2019-06-04T07:41:25Z</time>
      </trkpt>
      <trkpt lat="44.25263" lon="5.71571">
        <ele>666</ele>
        <time>2019-06-04T07:41:26Z</time>
      </trkpt>
      <trkpt lat="44.25258" lon="5.71566">
        <ele>666</ele>
        <time>2019-06-04T07:41:27Z</time>
      </trkpt>
      <trkpt lat="44.25253" lon="5.7156">
        <ele>666</ele>
        <time>2019-06-04T07:41:28Z</time>
      </trkpt>
      <trkpt lat="44.25248" lon="5.71555">
        <ele>666</ele>
        <time>2019-06-04T07:41:29Z</time>
      </trkpt>
      <trkpt lat="44.25243" lon="5.7155">
        <ele>666</ele>
        <time>2019-06-04T07:41:31Z</time>
      </trkpt>
      <trkpt lat="44.25238" lon="5.71545">
        <ele>666</ele>
        <time>2019-06-04T07:41:31Z</time>
      </trkpt>
      <trkpt lat="44.25233" lon="5.71541">
        <ele>666</ele>
        <time>2019-06-04T07:41:32Z</time>
      </trkpt>
      <trkpt lat="44.25228" lon="5.71535">
        <ele>666</ele>
        <time>2019-06-04T07:41:33Z</time>
      </trkpt>
      <trkpt lat="44.25223" lon="5.7153">
        <ele>666</ele>
        <time>2019-06-04T07:41:34Z</time>
      </trkpt>
      <trkpt lat="44.25219" lon="5.71525">
        <ele>666</ele>
        <time>2019-06-04T07:41:35Z</time>
      </trkpt>
      <trkpt lat="44.25214" lon="5.7152">
        <ele>666</ele>
        <time>2019-06-04T07:41:36Z</time>
      </trkpt>
      <trkpt lat="44.25209" lon="5.71514">
        <ele>666</ele>
        <time>2019-06-04T07:41:37Z</time>
      </trkpt>
      <trkpt lat="44.25204" lon="5.71509">
        <ele>666</ele>
        <time>2019-06-04T07:41:38Z</time>
      </trkpt>
      <trkpt lat="44.25199" lon="5.71504">
        <ele>666</ele>
        <time>2019-06-04T07:41:39Z</time>
      </trkpt>
      <trkpt lat="44.25194" lon="5.71499">
        <ele>666</ele>
        <time>2019-06-04T07:41:40Z</time>
      </trkpt>
      <trkpt lat="44.25188" lon="5.71494">
        <ele>666</ele>
        <time>2019-06-04T07:41:41Z</time>
      </trkpt>
      <trkpt lat="44.25183" lon="5.71489">
        <ele>666</ele>
        <time>2019-06-04T07:41:42Z</time>
      </trkpt>
      <trkpt lat="44.25178" lon="5.71484">
        <ele>666</ele>
        <time>2019-06-04T07:41:43Z</time>
      </trkpt>
      <trkpt lat="44.25173" lon="5.71478">
        <ele>666</ele>
        <time>2019-06-04T07:41:44Z</time>
      </trkpt>
      <trkpt lat="44.25167" lon="5.71473">
        <ele>666</ele>
        <time>2019-06-04T07:41:45Z</time>
      </trkpt>
      <trkpt lat="44.25162" lon="5.71467">
        <ele>666</ele>
        <time>2019-06-04T07:41:46Z</time>
      </trkpt>
      <trkpt lat="44.25156" lon="5.71461">
        <ele>666</ele>
        <time>2019-06-04T07:41:47Z</time>
      </trkpt>
      <trkpt lat="44.25151" lon="5.71456">
        <ele>666</ele>
        <time>2019-06-04T07:41:48Z</time>
      </trkpt>
      <trkpt lat="44.25146" lon="5.71451">
        <ele>666</ele>
        <time>2019-06-04T07:41:49Z</time>
      </trkpt>
      <trkpt lat="44.25142" lon="5.71445">
        <ele>666</ele>
        <time>2019-06-04T07:41:50Z</time>
      </trkpt>
      <trkpt lat="44.25137" lon="5.71439">
        <ele>666</ele>
        <time>2019-06-04T07:41:51Z</time>
      </trkpt>
      <trkpt lat="44.25132" lon="5.71433">
        <ele>666</ele>
        <time>2019-06-04T07:41:52Z</time>
      </trkpt>
      <trkpt lat="44.25127" lon="5.71425">
        <ele>666</ele>
        <time>2019-06-04T07:41:53Z</time>
      </trkpt>
      <trkpt lat="44.25123" lon="5.71418">
        <ele>666</ele>
        <time>2019-06-04T07:41:54Z</time>
      </trkpt>
      <trkpt lat="44.25118" lon="5.7141">
        <ele>666</ele>
        <time>2019-06-04T07:41:55Z</time>
      </trkpt>
      <trkpt lat="44.25114" lon="5.71401">
        <ele>666</ele>
        <time>2019-06-04T07:41:56Z</time>
      </trkpt>
      <trkpt lat="44.2511" lon="5.71391">
        <ele>666</ele>
        <time>2019-06-04T07:41:57Z</time>
      </trkpt>
      <trkpt lat="44.25105" lon="5.71381">
        <ele>666</ele>
        <time>2019-06-04T07:41:58Z</time>
      </trkpt>
      <trkpt lat="44.25101" lon="5.71371">
        <ele>666</ele>
        <time>2019-06-04T07:41:59Z</time>
      </trkpt>
      <trkpt lat="44.25096" lon="5.7136">
        <ele>666</ele>
        <time>2019-06-04T07:42:00Z</time>
      </trkpt>
      <trkpt lat="44.25091" lon="5.71349">
        <ele>666</ele>
        <time>2019-06-04T07:42:01Z</time>
      </trkpt>
      <trkpt lat="44.25087" lon="5.71339">
        <ele>666</ele>
        <time>2019-06-04T07:42:02Z</time>
      </trkpt>
      <trkpt lat="44.25082" lon="5.71329">
        <ele>666</ele>
        <time>2019-06-04T07:42:03Z</time>
      </trkpt>
      <trkpt lat="44.25078" lon="5.71319">
        <ele>666</ele>
        <time>2019-06-04T07:42:04Z</time>
      </trkpt>
      <trkpt lat="44.25074" lon="5.71309">
        <ele>666</ele>
        <time>2019-06-04T07:42:05Z</time>
      </trkpt>
      <trkpt lat="44.25069" lon="5.713">
        <ele>666</ele>
        <time>2019-06-04T07:42:06Z</time>
      </trkpt>
      <trkpt lat="44.25066" lon="5.71291">
        <ele>666</ele>
        <time>2019-06-04T07:42:07Z</time>
      </trkpt>
      <trkpt lat="44.25062" lon="5.71282">
        <ele>666</ele>
        <time>2019-06-04T07:42:08Z</time>
      </trkpt>
      <trkpt lat="44.25058" lon="5.71274">
        <ele>666</ele>
        <time>2019-06-04T07:42:09Z</time>
      </trkpt>
      <trkpt lat="44.25055" lon="5.71265">
        <ele>666</ele>
        <time>2019-06-04T07:42:10Z</time>
      </trkpt>
      <trkpt lat="44.25051" lon="5.71256">
        <ele>666</ele>
        <time>2019-06-04T07:42:11Z</time>
      </trkpt>
      <trkpt lat="44.25048" lon="5.71248">
        <ele>666</ele>
        <time>2019-06-04T07:42:12Z</time>
      </trkpt>
      <trkpt lat="44.25045" lon="5.7124">
        <ele>666</ele>
        <time>2019-06-04T07:42:13Z</time>
      </trkpt>
      <trkpt lat="44.25042" lon="5.71232">
        <ele>666</ele>
        <time>2019-06-04T07:42:14Z</time>
      </trkpt>
      <trkpt lat="44.25039" lon="5.71224">
        <ele>666</ele>
        <time>2019-06-04T07:42:15Z</time>
      </trkpt>
      <trkpt lat="44.25035" lon="5.71216">
        <ele>666</ele>
        <time>2019-06-04T07:42:16Z</time>
      </trkpt>
      <trkpt lat="44.25031" lon="5.71209">
        <ele>666</ele>
        <time>2019-06-04T07:42:17Z</time>
      </trkpt>
      <trkpt lat="44.25027" lon="5.71203">
        <ele>666</ele>
        <time>2019-06-04T07:42:18Z</time>
      </trkpt>
      <trkpt lat="44.25023" lon="5.71196">
        <ele>666</ele>
        <time>2019-06-04T07:42:19Z</time>
      </trkpt>
      <trkpt lat="44.2502" lon="5.71191">
        <ele>666</ele>
        <time>2019-06-04T07:42:20Z</time>
      </trkpt>
      <trkpt lat="44.25016" lon="5.71185">
        <ele>666</ele>
        <time>2019-06-04T07:42:21Z</time>
      </trkpt>
      <trkpt lat="44.25012" lon="5.71179">
        <ele>667</ele>
        <time>2019-06-04T07:42:22Z</time>
      </trkpt>
      <trkpt lat="44.25008" lon="5.71173">
        <ele>667</ele>
        <time>2019-06-04T07:42:23Z</time>
      </trkpt>
      <trkpt lat="44.25004" lon="5.71167">
        <ele>667</ele>
        <time>2019-06-04T07:42:24Z</time>
      </trkpt>
      <trkpt lat="44.25" lon="5.71161">
        <ele>667</ele>
        <time>2019-06-04T07:42:25Z</time>
      </trkpt>
      <trkpt lat="44.24996" lon="5.71156">
        <ele>667</ele>
        <time>2019-06-04T07:42:26Z</time>
      </trkpt>
      <trkpt lat="44.24992" lon="5.7115">
        <ele>667</ele>
        <time>2019-06-04T07:42:27Z</time>
      </trkpt>
      <trkpt lat="44.24988" lon="5.71145">
        <ele>668</ele>
        <time>2019-06-04T07:42:28Z</time>
      </trkpt>
      <trkpt lat="44.24984" lon="5.7114">
        <ele>668</ele>
        <time>2019-06-04T07:42:29Z</time>
      </trkpt>
      <trkpt lat="44.2498" lon="5.71135">
        <ele>668</ele>
        <time>2019-06-04T07:42:30Z</time>
      </trkpt>
      <trkpt lat="44.24976" lon="5.7113">
        <ele>669</ele>
        <time>2019-06-04T07:42:31Z</time>
      </trkpt>
      <trkpt lat="44.24972" lon="5.71125">
        <ele>669</ele>
        <time>2019-06-04T07:42:32Z</time>
      </trkpt>
      <trkpt lat="44.24968" lon="5.7112">
        <ele>669</ele>
        <time>2019-06-04T07:42:33Z</time>
      </trkpt>
      <trkpt lat="44.24964" lon="5.71114">
        <ele>670</ele>
        <time>2019-06-04T07:42:34Z</time>
      </trkpt>
      <trkpt lat="44.2496" lon="5.71109">
        <ele>670</ele>
        <time>2019-06-04T07:42:35Z</time>
      </trkpt>
      <trkpt lat="44.24957" lon="5.71105">
        <ele>670</ele>
        <time>2019-06-04T07:42:36Z</time>
      </trkpt>
      <trkpt lat="44.24953" lon="5.711">
        <ele>670</ele>
        <time>2019-06-04T07:42:37Z</time>
      </trkpt>
      <trkpt lat="44.24949" lon="5.71094">
        <ele>671</ele>
        <time>2019-06-04T07:42:38Z</time>
      </trkpt>
      <trkpt lat="44.24945" lon="5.71089">
        <ele>671</ele>
        <time>2019-06-04T07:42:39Z</time>
      </trkpt>
      <trkpt lat="44.24942" lon="5.71084">
        <ele>671</ele>
        <time>2019-06-04T07:42:40Z</time>
      </trkpt>
      <trkpt lat="44.24938" lon="5.71079">
        <ele>671</ele>
        <time>2019-06-04T07:42:41Z</time>
      </trkpt>
      <trkpt lat="44.24934" lon="5.71074">
        <ele>671</ele>
        <time>2019-06-04T07:42:42Z</time>
      </trkpt>
      <trkpt lat="44.2493" lon="5.71069">
        <ele>671</ele>
        <time>2019-06-04T07:42:43Z</time>
      </trkpt>
      <trkpt lat="44.24927" lon="5.71064">
        <ele>671</ele>
        <time>2019-06-04T07:42:44Z</time>
      </trkpt>
      <trkpt lat="44.24923" lon="5.71058">
        <ele>672</ele>
        <time>2019-06-04T07:42:45Z</time>
      </trkpt>
      <trkpt lat="44.24919" lon="5.71053">
        <ele>672</ele>
        <time>2019-06-04T07:42:46Z</time>
      </trkpt>
      <trkpt lat="44.24916" lon="5.71048">
        <ele>672</ele>
        <time>2019-06-04T07:42:47Z</time>
      </trkpt>
      <trkpt lat="44.24912" lon="5.71044">
        <ele>672</ele>
        <time>2019-06-04T07:42:48Z</time>
      </trkpt>
      <trkpt lat="44.24909" lon="5.71039">
        <ele>672</ele>
        <time>2019-06-04T07:42:49Z</time>
      </trkpt>
      <trkpt lat="44.24905" lon="5.71033">
        <ele>673</ele>
        <time>2019-06-04T07:42:50Z</time>
      </trkpt>
      <trkpt lat="44.24902" lon="5.71029">
        <ele>673</ele>
        <time>2019-06-04T07:42:51Z</time>
      </trkpt>
      <trkpt lat="44.24898" lon="5.71024">
        <ele>673</ele>
        <time>2019-06-04T07:42:52Z</time>
      </trkpt>
      <trkpt lat="44.24895" lon="5.71019">
        <ele>673</ele>
        <time>2019-06-04T07:42:53Z</time>
      </trkpt>
      <trkpt lat="44.24891" lon="5.71014">
        <ele>674</ele>
        <time>2019-06-04T07:42:54Z</time>
      </trkpt>
      <trkpt lat="44.24887" lon="5.71009">
        <ele>674</ele>
        <time>2019-06-04T07:42:55Z</time>
      </trkpt>
      <trkpt lat="44.24883" lon="5.71004">
        <ele>674</ele>
        <time>2019-06-04T07:42:56Z</time>
      </trkpt>
      <trkpt lat="44.24879" lon="5.70999">
        <ele>674</ele>
        <time>2019-06-04T07:42:57Z</time>
      </trkpt>
      <trkpt lat="44.24875" lon="5.70995">
        <ele>674</ele>
        <time>2019-06-04T07:42:58Z</time>
      </trkpt>
      <trkpt lat="44.24871" lon="5.7099">
        <ele>674</ele>
        <time>2019-06-04T07:42:59Z</time>
      </trkpt>
      <trkpt lat="44.24866" lon="5.70986">
        <ele>675</ele>
        <time>2019-06-04T07:43:00Z</time>
      </trkpt>
      <trkpt lat="44.24862" lon="5.70981">
        <ele>675</ele>
        <time>2019-06-04T07:43:01Z</time>
      </trkpt>
      <trkpt lat="44.24858" lon="5.70975">
        <ele>675</ele>
        <time>2019-06-04T07:43:02Z</time>
      </trkpt>
      <trkpt lat="44.24853" lon="5.70971">
        <ele>675</ele>
        <time>2019-06-04T07:43:03Z</time>
      </trkpt>
      <trkpt lat="44.24849" lon="5.70966">
        <ele>675</ele>
        <time>2019-06-04T07:43:04Z</time>
      </trkpt>
      <trkpt lat="44.24844" lon="5.70962">
        <ele>675</ele>
        <time>2019-06-04T07:43:05Z</time>
      </trkpt>
      <trkpt lat="44.24839" lon="5.70957">
        <ele>675</ele>
        <time>2019-06-04T07:43:06Z</time>
      </trkpt>
      <trkpt lat="44.24835" lon="5.70952">
        <ele>675</ele>
        <time>2019-06-04T07:43:07Z</time>
      </trkpt>
      <trkpt lat="44.2483" lon="5.70947">
        <ele>676</ele>
        <time>2019-06-04T07:43:08Z</time>
      </trkpt>
      <trkpt lat="44.24826" lon="5.70942">
        <ele>676</ele>
        <time>2019-06-04T07:43:09Z</time>
      </trkpt>
      <trkpt lat="44.24821" lon="5.70937">
        <ele>676</ele>
        <time>2019-06-04T07:43:10Z</time>
      </trkpt>
      <trkpt lat="44.24817" lon="5.70931">
        <ele>676</ele>
        <time>2019-06-04T07:43:11Z</time>
      </trkpt>
      <trkpt lat="44.24812" lon="5.70926">
        <ele>676</ele>
        <time>2019-06-04T07:43:12Z</time>
      </trkpt>
      <trkpt lat="44.24807" lon="5.70921">
        <ele>676</ele>
        <time>2019-06-04T07:43:13Z</time>
      </trkpt>
      <trkpt lat="44.24803" lon="5.70915">
        <ele>676</ele>
        <time>2019-06-04T07:43:14Z</time>
      </trkpt>
      <trkpt lat="44.24799" lon="5.70909">
        <ele>676</ele>
        <time>2019-06-04T07:43:15Z</time>
      </trkpt>
      <trkpt lat="44.24794" lon="5.70903">
        <ele>676</ele>
        <time>2019-06-04T07:43:16Z</time>
      </trkpt>
      <trkpt lat="44.24789" lon="5.70898">
        <ele>676</ele>
        <time>2019-06-04T07:43:17Z</time>
      </trkpt>
      <trkpt lat="44.24784" lon="5.70892">
        <ele>676</ele>
        <time>2019-06-04T07:43:18Z</time>
      </trkpt>
      <trkpt lat="44.24779" lon="5.70888">
        <ele>676</ele>
        <time>2019-06-04T07:43:19Z</time>
      </trkpt>
      <trkpt lat="44.24774" lon="5.70883">
        <ele>676</ele>
        <time>2019-06-04T07:43:20Z</time>
      </trkpt>
      <trkpt lat="44.24769" lon="5.70878">
        <ele>676</ele>
        <time>2019-06-04T07:43:21Z</time>
      </trkpt>
      <trkpt lat="44.24764" lon="5.70873">
        <ele>676</ele>
        <time>2019-06-04T07:43:22Z</time>
      </trkpt>
      <trkpt lat="44.24759" lon="5.70868">
        <ele>676</ele>
        <time>2019-06-04T07:43:23Z</time>
      </trkpt>
      <trkpt lat="44.24753" lon="5.70863">
        <ele>676</ele>
        <time>2019-06-04T07:43:24Z</time>
      </trkpt>
      <trkpt lat="44.24747" lon="5.70858">
        <ele>676</ele>
        <time>2019-06-04T07:43:25Z</time>
      </trkpt>
      <trkpt lat="44.24741" lon="5.70854">
        <ele>676</ele>
        <time>2019-06-04T07:43:26Z</time>
      </trkpt>
      <trkpt lat="44.24736" lon="5.7085">
        <ele>676</ele>
        <time>2019-06-04T07:43:27Z</time>
      </trkpt>
      <trkpt lat="44.2473" lon="5.70846">
        <ele>676</ele>
        <time>2019-06-04T07:43:28Z</time>
      </trkpt>
      <trkpt lat="44.24724" lon="5.70843">
        <ele>676</ele>
        <time>2019-06-04T07:43:29Z</time>
      </trkpt>
      <trkpt lat="44.24718" lon="5.70839">
        <ele>676</ele>
        <time>2019-06-04T07:43:30Z</time>
      </trkpt>
      <trkpt lat="44.24712" lon="5.70836">
        <ele>676</ele>
        <time>2019-06-04T07:43:31Z</time>
      </trkpt>
      <trkpt lat="44.24707" lon="5.70833">
        <ele>676</ele>
        <time>2019-06-04T07:43:32Z</time>
      </trkpt>
      <trkpt lat="44.24702" lon="5.70829">
        <ele>676</ele>
        <time>2019-06-04T07:43:33Z</time>
      </trkpt>
      <trkpt lat="44.24696" lon="5.70826">
        <ele>676</ele>
        <time>2019-06-04T07:43:34Z</time>
      </trkpt>
      <trkpt lat="44.24691" lon="5.70823">
        <ele>676</ele>
        <time>2019-06-04T07:43:35Z</time>
      </trkpt>
      <trkpt lat="44.24686" lon="5.7082">
        <ele>676</ele>
        <time>2019-06-04T07:43:36Z</time>
      </trkpt>
      <trkpt lat="44.24681" lon="5.70817">
        <ele>676</ele>
        <time>2019-06-04T07:43:37Z</time>
      </trkpt>
      <trkpt lat="44.24677" lon="5.70814">
        <ele>677</ele>
        <time>2019-06-04T07:43:38Z</time>
      </trkpt>
      <trkpt lat="44.24672" lon="5.7081">
        <ele>677</ele>
        <time>2019-06-04T07:43:39Z</time>
      </trkpt>
      <trkpt lat="44.24668" lon="5.70805">
        <ele>677</ele>
        <time>2019-06-04T07:43:40Z</time>
      </trkpt>
      <trkpt lat="44.24664" lon="5.70801">
        <ele>677</ele>
        <time>2019-06-04T07:43:41Z</time>
      </trkpt>
      <trkpt lat="44.24661" lon="5.70796">
        <ele>678</ele>
        <time>2019-06-04T07:43:42Z</time>
      </trkpt>
      <trkpt lat="44.24658" lon="5.70791">
        <ele>678</ele>
        <time>2019-06-04T07:43:43Z</time>
      </trkpt>
      <trkpt lat="44.24655" lon="5.70787">
        <ele>678</ele>
        <time>2019-06-04T07:43:44Z</time>
      </trkpt>
      <trkpt lat="44.24652" lon="5.70782">
        <ele>678</ele>
        <time>2019-06-04T07:43:45Z</time>
      </trkpt>
      <trkpt lat="44.2465" lon="5.70777">
        <ele>679</ele>
        <time>2019-06-04T07:43:46Z</time>
      </trkpt>
      <trkpt lat="44.24648" lon="5.70772">
        <ele>679</ele>
        <time>2019-06-04T07:43:47Z</time>
      </trkpt>
      <trkpt lat="44.24645" lon="5.70767">
        <ele>679</ele>
        <time>2019-06-04T07:43:48Z</time>
      </trkpt>
      <trkpt lat="44.24643" lon="5.70761">
        <ele>679</ele>
        <time>2019-06-04T07:43:49Z</time>
      </trkpt>
      <trkpt lat="44.2464" lon="5.70755">
        <ele>680</ele>
        <time>2019-06-04T07:43:50Z</time>
      </trkpt>
      <trkpt lat="44.24636" lon="5.70749">
        <ele>680</ele>
        <time>2019-06-04T07:43:51Z</time>
      </trkpt>
      <trkpt lat="44.24633" lon="5.70743">
        <ele>680</ele>
        <time>2019-06-04T07:43:52Z</time>
      </trkpt>
      <trkpt lat="44.2463" lon="5.70737">
        <ele>680</ele>
        <time>2019-06-04T07:43:53Z</time>
      </trkpt>
      <trkpt lat="44.24627" lon="5.7073">
        <ele>680</ele>
        <time>2019-06-04T07:43:54Z</time>
      </trkpt>
      <trkpt lat="44.24624" lon="5.70722">
        <ele>680</ele>
        <time>2019-06-04T07:43:55Z</time>
      </trkpt>
      <trkpt lat="44.24622" lon="5.70715">
        <ele>680</ele>
        <time>2019-06-04T07:43:56Z</time>
      </trkpt>
      <trkpt lat="44.24622" lon="5.70708">
        <ele>680</ele>
        <time>2019-06-04T07:43:57Z</time>
      </trkpt>
      <trkpt lat="44.24625" lon="5.70701">
        <ele>680</ele>
        <time>2019-06-04T07:43:58Z</time>
      </trkpt>
      <trkpt lat="44.2463" lon="5.70696">
        <ele>680</ele>
        <time>2019-06-04T07:43:59Z</time>
      </trkpt>
      <trkpt lat="44.24638" lon="5.70693">
        <ele>680</ele>
        <time>2019-06-04T07:44:00Z</time>
      </trkpt>
      <trkpt lat="44.24646" lon="5.70692">
        <ele>680</ele>
        <time>2019-06-04T07:44:01Z</time>
      </trkpt>
      <trkpt lat="44.24654" lon="5.70692">
        <ele>680</ele>
        <time>2019-06-04T07:44:02Z</time>
      </trkpt>
      <trkpt lat="44.24662" lon="5.70691">
        <ele>680</ele>
        <time>2019-06-04T07:44:03Z</time>
      </trkpt>
      <trkpt lat="44.24671" lon="5.7069">
        <ele>679</ele>
        <time>2019-06-04T07:44:04Z</time>
      </trkpt>
      <trkpt lat="44.24679" lon="5.70689">
        <ele>678</ele>
        <time>2019-06-04T07:44:05Z</time>
      </trkpt>
      <trkpt lat="44.24687" lon="5.70689">
        <ele>678</ele>
        <time>2019-06-04T07:44:06Z</time>
      </trkpt>
      <trkpt lat="44.24695" lon="5.70688">
        <ele>677</ele>
        <time>2019-06-04T07:44:07Z</time>
      </trkpt>
      <trkpt lat="44.24704" lon="5.70687">
        <ele>677</ele>
        <time>2019-06-04T07:44:08Z</time>
      </trkpt>
      <trkpt lat="44.24712" lon="5.70685">
        <ele>677</ele>
        <time>2019-06-04T07:44:09Z</time>
      </trkpt>
      <trkpt lat="44.24721" lon="5.70683">
        <ele>677</ele>
        <time>2019-06-04T07:44:10Z</time>
      </trkpt>
      <trkpt lat="44.2473" lon="5.70681">
        <ele>677</ele>
        <time>2019-06-04T07:44:11Z</time>
      </trkpt>
      <trkpt lat="44.24739" lon="5.70679">
        <ele>677</ele>
        <time>2019-06-04T07:44:12Z</time>
      </trkpt>
      <trkpt lat="44.24746" lon="5.70676">
        <ele>676</ele>
        <time>2019-06-04T07:44:13Z</time>
      </trkpt>
      <trkpt lat="44.24751" lon="5.70671">
        <ele>676</ele>
        <time>2019-06-04T07:44:14Z</time>
      </trkpt>
      <trkpt lat="44.24756" lon="5.70664">
        <ele>676</ele>
        <time>2019-06-04T07:44:15Z</time>
      </trkpt>
      <trkpt lat="44.24759" lon="5.70657">
        <ele>675</ele>
        <time>2019-06-04T07:44:16Z</time>
      </trkpt>
      <trkpt lat="44.2476" lon="5.70648">
        <ele>675</ele>
        <time>2019-06-04T07:44:17Z</time>
      </trkpt>
      <trkpt lat="44.24758" lon="5.70639">
        <ele>674</ele>
        <time>2019-06-04T07:44:18Z</time>
      </trkpt>
      <trkpt lat="44.24755" lon="5.70628">
        <ele>674</ele>
        <time>2019-06-04T07:44:19Z</time>
      </trkpt>
      <trkpt lat="44.24752" lon="5.70618">
        <ele>673</ele>
        <time>2019-06-04T07:44:20Z</time>
      </trkpt>
      <trkpt lat="44.24748" lon="5.70611">
        <ele>673</ele>
        <time>2019-06-04T07:44:21Z</time>
      </trkpt>
      <trkpt lat="44.24743" lon="5.70604">
        <ele>672</ele>
        <time>2019-06-04T07:44:22Z</time>
      </trkpt>
      <trkpt lat="44.24736" lon="5.70598">
        <ele>672</ele>
        <time>2019-06-04T07:44:23Z</time>
      </trkpt>
      <trkpt lat="44.24729" lon="5.70593">
        <ele>671</ele>
        <time>2019-06-04T07:44:24Z</time>
      </trkpt>
      <trkpt lat="44.24722" lon="5.70589">
        <ele>671</ele>
        <time>2019-06-04T07:44:25Z</time>
      </trkpt>
      <trkpt lat="44.24715" lon="5.70587">
        <ele>670</ele>
        <time>2019-06-04T07:44:26Z</time>
      </trkpt>
      <trkpt lat="44.24708" lon="5.70584">
        <ele>670</ele>
        <time>2019-06-04T07:44:27Z</time>
      </trkpt>
      <trkpt lat="44.24702" lon="5.7058">
        <ele>670</ele>
        <time>2019-06-04T07:44:28Z</time>
      </trkpt>
      <trkpt lat="44.24696" lon="5.70574">
        <ele>669</ele>
        <time>2019-06-04T07:44:29Z</time>
      </trkpt>
      <trkpt lat="44.24692" lon="5.70565">
        <ele>669</ele>
        <time>2019-06-04T07:44:30Z</time>
      </trkpt>
      <trkpt lat="44.24691" lon="5.70556">
        <ele>669</ele>
        <time>2019-06-04T07:44:31Z</time>
      </trkpt>
      <trkpt lat="44.24691" lon="5.70547">
        <ele>668</ele>
        <time>2019-06-04T07:44:32Z</time>
      </trkpt>
      <trkpt lat="44.24694" lon="5.7054">
        <ele>668</ele>
        <time>2019-06-04T07:44:33Z</time>
      </trkpt>
      <trkpt lat="44.24699" lon="5.70533">
        <ele>668</ele>
        <time>2019-06-04T07:44:34Z</time>
      </trkpt>
      <trkpt lat="44.24705" lon="5.70527">
        <ele>668</ele>
        <time>2019-06-04T07:44:35Z</time>
      </trkpt>
      <trkpt lat="44.24711" lon="5.7052">
        <ele>668</ele>
        <time>2019-06-04T07:44:36Z</time>
      </trkpt>
      <trkpt lat="44.24717" lon="5.70514">
        <ele>668</ele>
        <time>2019-06-04T07:44:37Z</time>
      </trkpt>
      <trkpt lat="44.24725" lon="5.70508">
        <ele>668</ele>
        <time>2019-06-04T07:44:38Z</time>
      </trkpt>
      <trkpt lat="44.24731" lon="5.70502">
        <ele>668</ele>
        <time>2019-06-04T07:44:39Z</time>
      </trkpt>
      <trkpt lat="44.24737" lon="5.70495">
        <ele>668</ele>
        <time>2019-06-04T07:44:40Z</time>
      </trkpt>
      <trkpt lat="44.24744" lon="5.70488">
        <ele>668</ele>
        <time>2019-06-04T07:44:41Z</time>
      </trkpt>
      <trkpt lat="44.2475" lon="5.70481">
        <ele>668</ele>
        <time>2019-06-04T07:44:42Z</time>
      </trkpt>
      <trkpt lat="44.24757" lon="5.70473">
        <ele>668</ele>
        <time>2019-06-04T07:44:43Z</time>
      </trkpt>
      <trkpt lat="44.24762" lon="5.70466">
        <ele>668</ele>
        <time>2019-06-04T07:44:44Z</time>
      </trkpt>
      <trkpt lat="44.24768" lon="5.70459">
        <ele>668</ele>
        <time>2019-06-04T07:44:45Z</time>
      </trkpt>
      <trkpt lat="44.24773" lon="5.70451">
        <ele>668</ele>
        <time>2019-06-04T07:44:46Z</time>
      </trkpt>
      <trkpt lat="44.24778" lon="5.70442">
        <ele>668</ele>
        <time>2019-06-04T07:44:47Z</time>
      </trkpt>
      <trkpt lat="44.24782" lon="5.70433">
        <ele>668</ele>
        <time>2019-06-04T07:44:48Z</time>
      </trkpt>
      <trkpt lat="44.24786" lon="5.70424">
        <ele>668</ele>
        <time>2019-06-04T07:44:49Z</time>
      </trkpt>
      <trkpt lat="44.24789" lon="5.70413">
        <ele>668</ele>
        <time>2019-06-04T07:44:50Z</time>
      </trkpt>
      <trkpt lat="44.24791" lon="5.70402">
        <ele>668</ele>
        <time>2019-06-04T07:44:51Z</time>
      </trkpt>
      <trkpt lat="44.24792" lon="5.70392">
        <ele>668</ele>
        <time>2019-06-04T07:44:52Z</time>
      </trkpt>
      <trkpt lat="44.24794" lon="5.70382">
        <ele>668</ele>
        <time>2019-06-04T07:44:53Z</time>
      </trkpt>
      <trkpt lat="44.24796" lon="5.70372">
        <ele>668</ele>
        <time>2019-06-04T07:44:54Z</time>
      </trkpt>
      <trkpt lat="44.24799" lon="5.70363">
        <ele>668</ele>
        <time>2019-06-04T07:44:55Z</time>
      </trkpt>
      <trkpt lat="44.24803" lon="5.70354">
        <ele>668</ele>
        <time>2019-06-04T07:44:56Z</time>
      </trkpt>
      <trkpt lat="44.24807" lon="5.70346">
        <ele>668</ele>
        <time>2019-06-04T07:44:57Z</time>
      </trkpt>
      <trkpt lat="44.24812" lon="5.70338">
        <ele>668</ele>
        <time>2019-06-04T07:44:58Z</time>
      </trkpt>
      <trkpt lat="44.24817" lon="5.7033">
        <ele>668</ele>
        <time>2019-06-04T07:44:59Z</time>
      </trkpt>
      <trkpt lat="44.24822" lon="5.70322">
        <ele>668</ele>
        <time>2019-06-04T07:45:00Z</time>
      </trkpt>
      <trkpt lat="44.24827" lon="5.70314">
        <ele>668</ele>
        <time>2019-06-04T07:45:01Z</time>
      </trkpt>
      <trkpt lat="44.24831" lon="5.70306">
        <ele>668</ele>
        <time>2019-06-04T07:45:02Z</time>
      </trkpt>
      <trkpt lat="44.24835" lon="5.70297">
        <ele>668</ele>
        <time>2019-06-04T07:45:03Z</time>
      </trkpt>
      <trkpt lat="44.24839" lon="5.70288">
        <ele>668</ele>
        <time>2019-06-04T07:45:04Z</time>
      </trkpt>
      <trkpt lat="44.24841" lon="5.70279">
        <ele>668</ele>
        <time>2019-06-04T07:45:05Z</time>
      </trkpt>
      <trkpt lat="44.24843" lon="5.70267">
        <ele>668</ele>
        <time>2019-06-04T07:45:06Z</time>
      </trkpt>
      <trkpt lat="44.24845" lon="5.70258">
        <ele>668</ele>
        <time>2019-06-04T07:45:07Z</time>
      </trkpt>
      <trkpt lat="44.24847" lon="5.70249">
        <ele>668</ele>
        <time>2019-06-04T07:45:08Z</time>
      </trkpt>
      <trkpt lat="44.24848" lon="5.70239">
        <ele>668</ele>
        <time>2019-06-04T07:45:09Z</time>
      </trkpt>
      <trkpt lat="44.24849" lon="5.7023">
        <ele>668</ele>
        <time>2019-06-04T07:45:10Z</time>
      </trkpt>
      <trkpt lat="44.24851" lon="5.70221">
        <ele>668</ele>
        <time>2019-06-04T07:45:11Z</time>
      </trkpt>
      <trkpt lat="44.24852" lon="5.70213">
        <ele>668</ele>
        <time>2019-06-04T07:45:12Z</time>
      </trkpt>
      <trkpt lat="44.24852" lon="5.70204">
        <ele>668</ele>
        <time>2019-06-04T07:45:13Z</time>
      </trkpt>
      <trkpt lat="44.24852" lon="5.70194">
        <ele>668</ele>
        <time>2019-06-04T07:45:14Z</time>
      </trkpt>
      <trkpt lat="44.24851" lon="5.70184">
        <ele>668</ele>
        <time>2019-06-04T07:45:15Z</time>
      </trkpt>
      <trkpt lat="44.2485" lon="5.70175">
        <ele>668</ele>
        <time>2019-06-04T07:45:16Z</time>
      </trkpt>
      <trkpt lat="44.2485" lon="5.70166">
        <ele>668</ele>
        <time>2019-06-04T07:45:17Z</time>
      </trkpt>
      <trkpt lat="44.2485" lon="5.70157">
        <ele>668</ele>
        <time>2019-06-04T07:45:18Z</time>
      </trkpt>
      <trkpt lat="44.24849" lon="5.70147">
        <ele>668</ele>
        <time>2019-06-04T07:45:19Z</time>
      </trkpt>
      <trkpt lat="44.24849" lon="5.70138">
        <ele>668</ele>
        <time>2019-06-04T07:45:20Z</time>
      </trkpt>
      <trkpt lat="44.24848" lon="5.70129">
        <ele>668</ele>
        <time>2019-06-04T07:45:21Z</time>
      </trkpt>
      <trkpt lat="44.24846" lon="5.7012">
        <ele>668</ele>
        <time>2019-06-04T07:45:22Z</time>
      </trkpt>
      <trkpt lat="44.24843" lon="5.70111">
        <ele>668</ele>
        <time>2019-06-04T07:45:23Z</time>
      </trkpt>
      <trkpt lat="44.24841" lon="5.70103">
        <ele>668</ele>
        <time>2019-06-04T07:45:24Z</time>
      </trkpt>
      <trkpt lat="44.24837" lon="5.70096">
        <ele>668</ele>
        <time>2019-06-04T07:45:25Z</time>
      </trkpt>
      <trkpt lat="44.24834" lon="5.70089">
        <ele>668</ele>
        <time>2019-06-04T07:45:26Z</time>
      </trkpt>
      <trkpt lat="44.24829" lon="5.70083">
        <ele>668</ele>
        <time>2019-06-04T07:45:27Z</time>
      </trkpt>
      <trkpt lat="44.24826" lon="5.70077">
        <ele>668</ele>
        <time>2019-06-04T07:45:28Z</time>
      </trkpt>
      <trkpt lat="44.24821" lon="5.70071">
        <ele>668</ele>
        <time>2019-06-04T07:45:29Z</time>
      </trkpt>
      <trkpt lat="44.24815" lon="5.70064">
        <ele>668</ele>
        <time>2019-06-04T07:45:30Z</time>
      </trkpt>
      <trkpt lat="44.2481" lon="5.70059">
        <ele>668</ele>
        <time>2019-06-04T07:45:31Z</time>
      </trkpt>
      <trkpt lat="44.24805" lon="5.70054">
        <ele>668</ele>
        <time>2019-06-04T07:45:32Z</time>
      </trkpt>
      <trkpt lat="44.248" lon="5.7005">
        <ele>668</ele>
        <time>2019-06-04T07:45:33Z</time>
      </trkpt>
      <trkpt lat="44.24795" lon="5.70045">
        <ele>668</ele>
        <time>2019-06-04T07:45:34Z</time>
      </trkpt>
      <trkpt lat="44.2479" lon="5.70039">
        <ele>668</ele>
        <time>2019-06-04T07:45:35Z</time>
      </trkpt>
      <trkpt lat="44.24785" lon="5.70034">
        <ele>668</ele>
        <time>2019-06-04T07:45:36Z</time>
      </trkpt>
      <trkpt lat="44.24781" lon="5.70027">
        <ele>668</ele>
        <time>2019-06-04T07:45:37Z</time>
      </trkpt>
      <trkpt lat="44.24776" lon="5.70022">
        <ele>668</ele>
        <time>2019-06-04T07:45:38Z</time>
      </trkpt>
      <trkpt lat="44.24772" lon="5.70016">
        <ele>668</ele>
        <time>2019-06-04T07:45:39Z</time>
      </trkpt>
      <trkpt lat="44.24768" lon="5.70009">
        <ele>668</ele>
        <time>2019-06-04T07:45:40Z</time>
      </trkpt>
      <trkpt lat="44.24763" lon="5.70002">
        <ele>668</ele>
        <time>2019-06-04T07:45:41Z</time>
      </trkpt>
      <trkpt lat="44.2476" lon="5.69994">
        <ele>668</ele>
        <time>2019-06-04T07:45:42Z</time>
      </trkpt>
      <trkpt lat="44.24757" lon="5.69988">
        <ele>668</ele>
        <time>2019-06-04T07:45:43Z</time>
      </trkpt>
      <trkpt lat="44.24754" lon="5.6998">
        <ele>668</ele>
        <time>2019-06-04T07:45:44Z</time>
      </trkpt>
      <trkpt lat="44.24751" lon="5.69973">
        <ele>668</ele>
        <time>2019-06-04T07:45:45Z</time>
      </trkpt>
      <trkpt lat="44.24749" lon="5.69967">
        <ele>668</ele>
        <time>2019-06-04T07:45:46Z</time>
      </trkpt>
      <trkpt lat="44.24746" lon="5.6996">
        <ele>668</ele>
        <time>2019-06-04T07:45:47Z</time>
      </trkpt>
      <trkpt lat="44.24743" lon="5.69953">
        <ele>668</ele>
        <time>2019-06-04T07:45:48Z</time>
      </trkpt>
      <trkpt lat="44.24741" lon="5.69946">
        <ele>668</ele>
        <time>2019-06-04T07:45:49Z</time>
      </trkpt>
      <trkpt lat="44.24739" lon="5.6994">
        <ele>668</ele>
        <time>2019-06-04T07:45:50Z</time>
      </trkpt>
      <trkpt lat="44.24736" lon="5.69932">
        <ele>668</ele>
        <time>2019-06-04T07:45:51Z</time>
      </trkpt>
      <trkpt lat="44.24733" lon="5.69925">
        <ele>668</ele>
        <time>2019-06-04T07:45:52Z</time>
      </trkpt>
      <trkpt lat="44.2473" lon="5.69917">
        <ele>668</ele>
        <time>2019-06-04T07:45:53Z</time>
      </trkpt>
      <trkpt lat="44.24727" lon="5.6991">
        <ele>668</ele>
        <time>2019-06-04T07:45:54Z</time>
      </trkpt>
      <trkpt lat="44.24725" lon="5.69903">
        <ele>668</ele>
        <time>2019-06-04T07:45:55Z</time>
      </trkpt>
      <trkpt lat="44.24722" lon="5.69895">
        <ele>668</ele>
        <time>2019-06-04T07:45:56Z</time>
      </trkpt>
      <trkpt lat="44.2472" lon="5.69887">
        <ele>668</ele>
        <time>2019-06-04T07:45:57Z</time>
      </trkpt>
      <trkpt lat="44.24718" lon="5.69878">
        <ele>668</ele>
        <time>2019-06-04T07:45:58Z</time>
      </trkpt>
      <trkpt lat="44.24717" lon="5.69869">
        <ele>668</ele>
        <time>2019-06-04T07:45:59Z</time>
      </trkpt>
      <trkpt lat="44.24717" lon="5.6986">
        <ele>668</ele>
        <time>2019-06-04T07:46:00Z</time>
      </trkpt>
      <trkpt lat="44.24718" lon="5.69851">
        <ele>668</ele>
        <time>2019-06-04T07:46:01Z</time>
      </trkpt>
      <trkpt lat="44.2472" lon="5.69842">
        <ele>668</ele>
        <time>2019-06-04T07:46:02Z</time>
      </trkpt>
      <trkpt lat="44.24721" lon="5.69833">
        <ele>668</ele>
        <time>2019-06-04T07:46:03Z</time>
      </trkpt>
      <trkpt lat="44.24723" lon="5.69824">
        <ele>668</ele>
        <time>2019-06-04T07:46:04Z</time>
      </trkpt>
      <trkpt lat="44.24725" lon="5.69814">
        <ele>668</ele>
        <time>2019-06-04T07:46:05Z</time>
      </trkpt>
      <trkpt lat="44.24725" lon="5.69805">
        <ele>668</ele>
        <time>2019-06-04T07:46:06Z</time>
      </trkpt>
      <trkpt lat="44.24726" lon="5.69797">
        <ele>668</ele>
        <time>2019-06-04T07:46:07Z</time>
      </trkpt>
      <trkpt lat="44.24728" lon="5.69787">
        <ele>668</ele>
        <time>2019-06-04T07:46:08Z</time>
      </trkpt>
      <trkpt lat="44.24729" lon="5.69778">
        <ele>668</ele>
        <time>2019-06-04T07:46:09Z</time>
      </trkpt>
      <trkpt lat="44.2473" lon="5.69769">
        <ele>668</ele>
        <time>2019-06-04T07:46:10Z</time>
      </trkpt>
      <trkpt lat="44.24731" lon="5.6976">
        <ele>668</ele>
        <time>2019-06-04T07:46:11Z</time>
      </trkpt>
      <trkpt lat="44.24733" lon="5.69751">
        <ele>668</ele>
        <time>2019-06-04T07:46:12Z</time>
      </trkpt>
      <trkpt lat="44.24733" lon="5.69742">
        <ele>668</ele>
        <time>2019-06-04T07:46:13Z</time>
      </trkpt>
      <trkpt lat="44.24735" lon="5.69733">
        <ele>668</ele>
        <time>2019-06-04T07:46:14Z</time>
      </trkpt>
      <trkpt lat="44.24738" lon="5.69725">
        <ele>668</ele>
        <time>2019-06-04T07:46:15Z</time>
      </trkpt>
      <trkpt lat="44.2474" lon="5.69716">
        <ele>668</ele>
        <time>2019-06-04T07:46:16Z</time>
      </trkpt>
      <trkpt lat="44.24742" lon="5.69708">
        <ele>668</ele>
        <time>2019-06-04T07:46:17Z</time>
      </trkpt>
      <trkpt lat="44.24744" lon="5.69699">
        <ele>668</ele>
        <time>2019-06-04T07:46:18Z</time>
      </trkpt>
      <trkpt lat="44.24746" lon="5.69691">
        <ele>668</ele>
        <time>2019-06-04T07:46:19Z</time>
      </trkpt>
      <trkpt lat="44.24749" lon="5.69683">
        <ele>668</ele>
        <time>2019-06-04T07:46:20Z</time>
      </trkpt>
      <trkpt lat="44.24753" lon="5.69674">
        <ele>668</ele>
        <time>2019-06-04T07:46:21Z</time>
      </trkpt>
      <trkpt lat="44.24757" lon="5.69665">
        <ele>668</ele>
        <time>2019-06-04T07:46:22Z</time>
      </trkpt>
      <trkpt lat="44.2476" lon="5.69656">
        <ele>668</ele>
        <time>2019-06-04T07:46:23Z</time>
      </trkpt>
      <trkpt lat="44.24763" lon="5.69647">
        <ele>668</ele>
        <time>2019-06-04T07:46:24Z</time>
      </trkpt>
      <trkpt lat="44.24767" lon="5.69639">
        <ele>668</ele>
        <time>2019-06-04T07:46:25Z</time>
      </trkpt>
      <trkpt lat="44.24769" lon="5.6963">
        <ele>668</ele>
        <time>2019-06-04T07:46:26Z</time>
      </trkpt>
      <trkpt lat="44.24772" lon="5.69621">
        <ele>668</ele>
        <time>2019-06-04T07:46:27Z</time>
      </trkpt>
      <trkpt lat="44.24774" lon="5.69613">
        <ele>668</ele>
        <time>2019-06-04T07:46:28Z</time>
      </trkpt>
      <trkpt lat="44.24777" lon="5.69604">
        <ele>668</ele>
        <time>2019-06-04T07:46:29Z</time>
      </trkpt>
      <trkpt lat="44.24779" lon="5.69595">
        <ele>668</ele>
        <time>2019-06-04T07:46:30Z</time>
      </trkpt>
      <trkpt lat="44.24782" lon="5.69587">
        <ele>668</ele>
        <time>2019-06-04T07:46:31Z</time>
      </trkpt>
      <trkpt lat="44.24784" lon="5.69579">
        <ele>668</ele>
        <time>2019-06-04T07:46:32Z</time>
      </trkpt>
      <trkpt lat="44.24787" lon="5.69571">
        <ele>668</ele>
        <time>2019-06-04T07:46:33Z</time>
      </trkpt>
      <trkpt lat="44.24789" lon="5.69562">
        <ele>668</ele>
        <time>2019-06-04T07:46:34Z</time>
      </trkpt>
      <trkpt lat="44.24791" lon="5.69555">
        <ele>668</ele>
        <time>2019-06-04T07:46:35Z</time>
      </trkpt>
      <trkpt lat="44.24794" lon="5.69546">
        <ele>668</ele>
        <time>2019-06-04T07:46:36Z</time>
      </trkpt>
      <trkpt lat="44.24795" lon="5.69538">
        <ele>668</ele>
        <time>2019-06-04T07:46:37Z</time>
      </trkpt>
      <trkpt lat="44.24797" lon="5.6953">
        <ele>668</ele>
        <time>2019-06-04T07:46:38Z</time>
      </trkpt>
      <trkpt lat="44.24798" lon="5.69522">
        <ele>668</ele>
        <time>2019-06-04T07:46:39Z</time>
      </trkpt>
      <trkpt lat="44.24799" lon="5.69514">
        <ele>668</ele>
        <time>2019-06-04T07:46:40Z</time>
      </trkpt>
      <trkpt lat="44.248" lon="5.69505">
        <ele>668</ele>
        <time>2019-06-04T07:46:41Z</time>
      </trkpt>
      <trkpt lat="44.24801" lon="5.69497">
        <ele>668</ele>
        <time>2019-06-04T07:46:42Z</time>
      </trkpt>
      <trkpt lat="44.24802" lon="5.69488">
        <ele>668</ele>
        <time>2019-06-04T07:46:43Z</time>
      </trkpt>
      <trkpt lat="44.24802" lon="5.6948">
        <ele>668</ele>
        <time>2019-06-04T07:46:44Z</time>
      </trkpt>
      <trkpt lat="44.24801" lon="5.69472">
        <ele>668</ele>
        <time>2019-06-04T07:46:45Z</time>
      </trkpt>
      <trkpt lat="44.248" lon="5.69464">
        <ele>668</ele>
        <time>2019-06-04T07:46:46Z</time>
      </trkpt>
      <trkpt lat="44.24799" lon="5.69455">
        <ele>668</ele>
        <time>2019-06-04T07:46:47Z</time>
      </trkpt>
      <trkpt lat="44.24797" lon="5.69447">
        <ele>668</ele>
        <time>2019-06-04T07:46:48Z</time>
      </trkpt>
      <trkpt lat="44.24795" lon="5.69438">
        <ele>668</ele>
        <time>2019-06-04T07:46:49Z</time>
      </trkpt>
      <trkpt lat="44.24794" lon="5.69429">
        <ele>668</ele>
        <time>2019-06-04T07:46:50Z</time>
      </trkpt>
      <trkpt lat="44.24792" lon="5.69421">
        <ele>669</ele>
        <time>2019-06-04T07:46:51Z</time>
      </trkpt>
      <trkpt lat="44.2479" lon="5.69412">
        <ele>669</ele>
        <time>2019-06-04T07:46:52Z</time>
      </trkpt>
      <trkpt lat="44.24788" lon="5.69403">
        <ele>669</ele>
        <time>2019-06-04T07:46:53Z</time>
      </trkpt>
      <trkpt lat="44.24784" lon="5.69393">
        <ele>669</ele>
        <time>2019-06-04T07:46:54Z</time>
      </trkpt>
      <trkpt lat="44.24782" lon="5.69384">
        <ele>670</ele>
        <time>2019-06-04T07:46:55Z</time>
      </trkpt>
      <trkpt lat="44.24779" lon="5.69374">
        <ele>670</ele>
        <time>2019-06-04T07:46:56Z</time>
      </trkpt>
      <trkpt lat="44.24777" lon="5.69366">
        <ele>671</ele>
        <time>2019-06-04T07:46:57Z</time>
      </trkpt>
      <trkpt lat="44.24775" lon="5.69356">
        <ele>671</ele>
        <time>2019-06-04T07:46:58Z</time>
      </trkpt>
      <trkpt lat="44.24772" lon="5.69348">
        <ele>671</ele>
        <time>2019-06-04T07:46:59Z</time>
      </trkpt>
      <trkpt lat="44.24769" lon="5.69339">
        <ele>671</ele>
        <time>2019-06-04T07:47:00Z</time>
      </trkpt>
      <trkpt lat="44.24766" lon="5.6933">
        <ele>671</ele>
        <time>2019-06-04T07:47:01Z</time>
      </trkpt>
      <trkpt lat="44.24763" lon="5.69321">
        <ele>671</ele>
        <time>2019-06-04T07:47:02Z</time>
      </trkpt>
      <trkpt lat="44.24759" lon="5.69313">
        <ele>671</ele>
        <time>2019-06-04T07:47:03Z</time>
      </trkpt>
      <trkpt lat="44.24757" lon="5.69305">
        <ele>671</ele>
        <time>2019-06-04T07:47:04Z</time>
      </trkpt>
      <trkpt lat="44.24754" lon="5.69297">
        <ele>671</ele>
        <time>2019-06-04T07:47:05Z</time>
      </trkpt>
      <trkpt lat="44.24751" lon="5.69288">
        <ele>671</ele>
        <time>2019-06-04T07:47:06Z</time>
      </trkpt>
      <trkpt lat="44.24747" lon="5.6928">
        <ele>671</ele>
        <time>2019-06-04T07:47:07Z</time>
      </trkpt>
      <trkpt lat="44.24743" lon="5.69272">
        <ele>671</ele>
        <time>2019-06-04T07:47:08Z</time>
      </trkpt>
      <trkpt lat="44.2474" lon="5.69264">
        <ele>671</ele>
        <time>2019-06-04T07:47:09Z</time>
      </trkpt>
      <trkpt lat="44.24736" lon="5.69255">
        <ele>671</ele>
        <time>2019-06-04T07:47:10Z</time>
      </trkpt>
      <trkpt lat="44.24733" lon="5.69247">
        <ele>671</ele>
        <time>2019-06-04T07:47:11Z</time>
      </trkpt>
      <trkpt lat="44.24729" lon="5.69239">
        <ele>671</ele>
        <time>2019-06-04T07:47:12Z</time>
      </trkpt>
      <trkpt lat="44.24725" lon="5.69231">
        <ele>671</ele>
        <time>2019-06-04T07:47:13Z</time>
      </trkpt>
      <trkpt lat="44.24721" lon="5.69223">
        <ele>671</ele>
        <time>2019-06-04T07:47:14Z</time>
      </trkpt>
      <trkpt lat="44.24717" lon="5.69215">
        <ele>671</ele>
        <time>2019-06-04T07:47:15Z</time>
      </trkpt>
      <trkpt lat="44.24714" lon="5.69207">
        <ele>671</ele>
        <time>2019-06-04T07:47:16Z</time>
      </trkpt>
      <trkpt lat="44.2471" lon="5.69198">
        <ele>671</ele>
        <time>2019-06-04T07:47:17Z</time>
      </trkpt>
      <trkpt lat="44.24707" lon="5.6919">
        <ele>670</ele>
        <time>2019-06-04T07:47:18Z</time>
      </trkpt>
      <trkpt lat="44.24703" lon="5.69182">
        <ele>670</ele>
        <time>2019-06-04T07:47:19Z</time>
      </trkpt>
      <trkpt lat="44.24699" lon="5.69174">
        <ele>670</ele>
        <time>2019-06-04T07:47:20Z</time>
      </trkpt>
      <trkpt lat="44.24696" lon="5.69165">
        <ele>670</ele>
        <time>2019-06-04T07:47:21Z</time>
      </trkpt>
      <trkpt lat="44.24692" lon="5.69157">
        <ele>670</ele>
        <time>2019-06-04T07:47:22Z</time>
      </trkpt>
      <trkpt lat="44.24689" lon="5.69148">
        <ele>670</ele>
        <time>2019-06-04T07:47:23Z</time>
      </trkpt>
      <trkpt lat="44.24686" lon="5.69138">
        <ele>670</ele>
        <time>2019-06-04T07:47:24Z</time>
      </trkpt>
      <trkpt lat="44.24683" lon="5.69129">
        <ele>670</ele>
        <time>2019-06-04T07:47:25Z</time>
      </trkpt>
      <trkpt lat="44.2468" lon="5.6912">
        <ele>670</ele>
        <time>2019-06-04T07:47:26Z</time>
      </trkpt>
      <trkpt lat="44.24678" lon="5.69111">
        <ele>670</ele>
        <time>2019-06-04T07:47:27Z</time>
      </trkpt>
      <trkpt lat="44.24677" lon="5.69102">
        <ele>670</ele>
        <time>2019-06-04T07:47:28Z</time>
      </trkpt>
      <trkpt lat="44.24675" lon="5.69093">
        <ele>670</ele>
        <time>2019-06-04T07:47:29Z</time>
      </trkpt>
      <trkpt lat="44.24673" lon="5.69084">
        <ele>670</ele>
        <time>2019-06-04T07:47:30Z</time>
      </trkpt>
      <trkpt lat="44.24672" lon="5.69075">
        <ele>670</ele>
        <time>2019-06-04T07:47:31Z</time>
      </trkpt>
      <trkpt lat="44.24671" lon="5.69065">
        <ele>670</ele>
        <time>2019-06-04T07:47:32Z</time>
      </trkpt>
      <trkpt lat="44.2467" lon="5.69056">
        <ele>670</ele>
        <time>2019-06-04T07:47:33Z</time>
      </trkpt>
      <trkpt lat="44.24669" lon="5.69047">
        <ele>670</ele>
        <time>2019-06-04T07:47:34Z</time>
      </trkpt>
      <trkpt lat="44.24667" lon="5.69038">
        <ele>670</ele>
        <time>2019-06-04T07:47:35Z</time>
      </trkpt>
      <trkpt lat="44.24666" lon="5.69029">
        <ele>670</ele>
        <time>2019-06-04T07:47:36Z</time>
      </trkpt>
      <trkpt lat="44.24665" lon="5.69019">
        <ele>670</ele>
        <time>2019-06-04T07:47:37Z</time>
      </trkpt>
      <trkpt lat="44.24664" lon="5.6901">
        <ele>670</ele>
        <time>2019-06-04T07:47:38Z</time>
      </trkpt>
      <trkpt lat="44.24662" lon="5.69001">
        <ele>670</ele>
        <time>2019-06-04T07:47:39Z</time>
      </trkpt>
      <trkpt lat="44.24662" lon="5.68992">
        <ele>670</ele>
        <time>2019-06-04T07:47:40Z</time>
      </trkpt>
      <trkpt lat="44.2466" lon="5.68982">
        <ele>670</ele>
        <time>2019-06-04T07:47:41Z</time>
      </trkpt>
      <trkpt lat="44.24659" lon="5.68973">
        <ele>670</ele>
        <time>2019-06-04T07:47:42Z</time>
      </trkpt>
      <trkpt lat="44.24659" lon="5.68963">
        <ele>670</ele>
        <time>2019-06-04T07:47:43Z</time>
      </trkpt>
      <trkpt lat="44.24658" lon="5.68954">
        <ele>670</ele>
        <time>2019-06-04T07:47:44Z</time>
      </trkpt>
      <trkpt lat="44.24657" lon="5.68945">
        <ele>670</ele>
        <time>2019-06-04T07:47:45Z</time>
      </trkpt>
      <trkpt lat="44.24656" lon="5.68936">
        <ele>670</ele>
        <time>2019-06-04T07:47:46Z</time>
      </trkpt>
      <trkpt lat="44.24655" lon="5.68927">
        <ele>670</ele>
        <time>2019-06-04T07:47:47Z</time>
      </trkpt>
      <trkpt lat="44.24654" lon="5.68918">
        <ele>670</ele>
        <time>2019-06-04T07:47:48Z</time>
      </trkpt>
      <trkpt lat="44.24653" lon="5.68909">
        <ele>670</ele>
        <time>2019-06-04T07:47:49Z</time>
      </trkpt>
      <trkpt lat="44.24652" lon="5.68899">
        <ele>670</ele>
        <time>2019-06-04T07:47:50Z</time>
      </trkpt>
      <trkpt lat="44.24651" lon="5.6889">
        <ele>670</ele>
        <time>2019-06-04T07:47:51Z</time>
      </trkpt>
      <trkpt lat="44.24649" lon="5.68881">
        <ele>670</ele>
        <time>2019-06-04T07:47:52Z</time>
      </trkpt>
      <trkpt lat="44.24648" lon="5.68872">
        <ele>670</ele>
        <time>2019-06-04T07:47:53Z</time>
      </trkpt>
      <trkpt lat="44.24647" lon="5.68863">
        <ele>670</ele>
        <time>2019-06-04T07:47:54Z</time>
      </trkpt>
      <trkpt lat="44.24646" lon="5.68853">
        <ele>670</ele>
        <time>2019-06-04T07:47:55Z</time>
      </trkpt>
      <trkpt lat="44.24645" lon="5.68844">
        <ele>670</ele>
        <time>2019-06-04T07:47:56Z</time>
      </trkpt>
      <trkpt lat="44.24644" lon="5.68834">
        <ele>670</ele>
        <time>2019-06-04T07:47:57Z</time>
      </trkpt>
      <trkpt lat="44.24643" lon="5.68825">
        <ele>670</ele>
        <time>2019-06-04T07:47:58Z</time>
      </trkpt>
      <trkpt lat="44.24642" lon="5.68815">
        <ele>670</ele>
        <time>2019-06-04T07:47:59Z</time>
      </trkpt>
      <trkpt lat="44.24641" lon="5.68805">
        <ele>670</ele>
        <time>2019-06-04T07:48:00Z</time>
      </trkpt>
      <trkpt lat="44.2464" lon="5.68796">
        <ele>670</ele>
        <time>2019-06-04T07:48:01Z</time>
      </trkpt>
      <trkpt lat="44.24639" lon="5.68787">
        <ele>670</ele>
        <time>2019-06-04T07:48:02Z</time>
      </trkpt>
      <trkpt lat="44.24638" lon="5.68778">
        <ele>670</ele>
        <time>2019-06-04T07:48:03Z</time>
      </trkpt>
      <trkpt lat="44.24637" lon="5.68768">
        <ele>670</ele>
        <time>2019-06-04T07:48:04Z</time>
      </trkpt>
      <trkpt lat="44.24636" lon="5.68759">
        <ele>670</ele>
        <time>2019-06-04T07:48:05Z</time>
      </trkpt>
      <trkpt lat="44.24635" lon="5.6875">
        <ele>670</ele>
        <time>2019-06-04T07:48:06Z</time>
      </trkpt>
      <trkpt lat="44.24634" lon="5.68741">
        <ele>670</ele>
        <time>2019-06-04T07:48:07Z</time>
      </trkpt>
      <trkpt lat="44.24633" lon="5.68732">
        <ele>670</ele>
        <time>2019-06-04T07:48:08Z</time>
      </trkpt>
      <trkpt lat="44.24632" lon="5.68723">
        <ele>670</ele>
        <time>2019-06-04T07:48:09Z</time>
      </trkpt>
      <trkpt lat="44.24631" lon="5.68714">
        <ele>670</ele>
        <time>2019-06-04T07:48:10Z</time>
      </trkpt>
      <trkpt lat="44.2463" lon="5.68704">
        <ele>670</ele>
        <time>2019-06-04T07:48:11Z</time>
      </trkpt>
      <trkpt lat="44.24629" lon="5.68695">
        <ele>670</ele>
        <time>2019-06-04T07:48:12Z</time>
      </trkpt>
      <trkpt lat="44.24628" lon="5.68686">
        <ele>670</ele>
        <time>2019-06-04T07:48:13Z</time>
      </trkpt>
      <trkpt lat="44.24628" lon="5.68677">
        <ele>670</ele>
        <time>2019-06-04T07:48:14Z</time>
      </trkpt>
      <trkpt lat="44.24627" lon="5.68667">
        <ele>670</ele>
        <time>2019-06-04T07:48:15Z</time>
      </trkpt>
      <trkpt lat="44.24626" lon="5.68658">
        <ele>670</ele>
        <time>2019-06-04T07:48:16Z</time>
      </trkpt>
      <trkpt lat="44.24625" lon="5.68648">
        <ele>670</ele>
        <time>2019-06-04T07:48:17Z</time>
      </trkpt>
      <trkpt lat="44.24625" lon="5.68639">
        <ele>670</ele>
        <time>2019-06-04T07:48:18Z</time>
      </trkpt>
      <trkpt lat="44.24624" lon="5.6863">
        <ele>670</ele>
        <time>2019-06-04T07:48:19Z</time>
      </trkpt>
      <trkpt lat="44.24623" lon="5.68621">
        <ele>670</ele>
        <time>2019-06-04T07:48:20Z</time>
      </trkpt>
      <trkpt lat="44.24623" lon="5.68611">
        <ele>670</ele>
        <time>2019-06-04T07:48:21Z</time>
      </trkpt>
      <trkpt lat="44.24623" lon="5.68603">
        <ele>670</ele>
        <time>2019-06-04T07:48:22Z</time>
      </trkpt>
      <trkpt lat="44.24623" lon="5.68594">
        <ele>670</ele>
        <time>2019-06-04T07:48:23Z</time>
      </trkpt>
      <trkpt lat="44.24623" lon="5.68585">
        <ele>670</ele>
        <time>2019-06-04T07:48:24Z</time>
      </trkpt>
      <trkpt lat="44.24622" lon="5.68576">
        <ele>670</ele>
        <time>2019-06-04T07:48:25Z</time>
      </trkpt>
      <trkpt lat="44.24622" lon="5.68568">
        <ele>670</ele>
        <time>2019-06-04T07:48:26Z</time>
      </trkpt>
      <trkpt lat="44.24622" lon="5.68559">
        <ele>670</ele>
        <time>2019-06-04T07:48:27Z</time>
      </trkpt>
      <trkpt lat="44.24622" lon="5.6855">
        <ele>670</ele>
        <time>2019-06-04T07:48:28Z</time>
      </trkpt>
      <trkpt lat="44.24622" lon="5.68542">
        <ele>670</ele>
        <time>2019-06-04T07:48:29Z</time>
      </trkpt>
      <trkpt lat="44.24621" lon="5.68533">
        <ele>670</ele>
        <time>2019-06-04T07:48:30Z</time>
      </trkpt>
      <trkpt lat="44.24621" lon="5.68524">
        <ele>670</ele>
        <time>2019-06-04T07:48:31Z</time>
      </trkpt>
      <trkpt lat="44.24621" lon="5.68515">
        <ele>670</ele>
        <time>2019-06-04T07:48:32Z</time>
      </trkpt>
      <trkpt lat="44.24621" lon="5.68507">
        <ele>670</ele>
        <time>2019-06-04T07:48:33Z</time>
      </trkpt>
      <trkpt lat="44.2462" lon="5.68498">
        <ele>670</ele>
        <time>2019-06-04T07:48:34Z</time>
      </trkpt>
      <trkpt lat="44.2462" lon="5.68489">
        <ele>670</ele>
        <time>2019-06-04T07:48:35Z</time>
      </trkpt>
      <trkpt lat="44.24619" lon="5.68481">
        <ele>670</ele>
        <time>2019-06-04T07:48:36Z</time>
      </trkpt>
      <trkpt lat="44.24619" lon="5.68472">
        <ele>670</ele>
        <time>2019-06-04T07:48:37Z</time>
      </trkpt>
      <trkpt lat="44.24617" lon="5.68462">
        <ele>670</ele>
        <time>2019-06-04T07:48:38Z</time>
      </trkpt>
      <trkpt lat="44.24616" lon="5.68452">
        <ele>670</ele>
        <time>2019-06-04T07:48:39Z</time>
      </trkpt>
      <trkpt lat="44.24615" lon="5.68443">
        <ele>670</ele>
        <time>2019-06-04T07:48:40Z</time>
      </trkpt>
      <trkpt lat="44.24613" lon="5.68434">
        <ele>670</ele>
        <time>2019-06-04T07:48:41Z</time>
      </trkpt>
      <trkpt lat="44.24611" lon="5.68425">
        <ele>670</ele>
        <time>2019-06-04T07:48:42Z</time>
      </trkpt>
      <trkpt lat="44.24609" lon="5.68415">
        <ele>670</ele>
        <time>2019-06-04T07:48:43Z</time>
      </trkpt>
      <trkpt lat="44.24606" lon="5.68406">
        <ele>670</ele>
        <time>2019-06-04T07:48:44Z</time>
      </trkpt>
      <trkpt lat="44.24603" lon="5.68398">
        <ele>670</ele>
        <time>2019-06-04T07:48:45Z</time>
      </trkpt>
      <trkpt lat="44.246" lon="5.68389">
        <ele>670</ele>
        <time>2019-06-04T07:48:46Z</time>
      </trkpt>
      <trkpt lat="44.24598" lon="5.6838">
        <ele>670</ele>
        <time>2019-06-04T07:48:47Z</time>
      </trkpt>
      <trkpt lat="44.24595" lon="5.68371">
        <ele>670</ele>
        <time>2019-06-04T07:48:48Z</time>
      </trkpt>
      <trkpt lat="44.24593" lon="5.68362">
        <ele>671</ele>
        <time>2019-06-04T07:48:49Z</time>
      </trkpt>
      <trkpt lat="44.2459" lon="5.68353">
        <ele>672</ele>
        <time>2019-06-04T07:48:50Z</time>
      </trkpt>
      <trkpt lat="44.24588" lon="5.68343">
        <ele>673</ele>
        <time>2019-06-04T07:48:51Z</time>
      </trkpt>
      <trkpt lat="44.24585" lon="5.68334">
        <ele>674</ele>
        <time>2019-06-04T07:48:52Z</time>
      </trkpt>
      <trkpt lat="44.24583" lon="5.68326">
        <ele>675</ele>
        <time>2019-06-04T07:48:53Z</time>
      </trkpt>
      <trkpt lat="44.24582" lon="5.68317">
        <ele>675</ele>
        <time>2019-06-04T07:48:54Z</time>
      </trkpt>
      <trkpt lat="44.2458" lon="5.68308">
        <ele>675</ele>
        <time>2019-06-04T07:48:55Z</time>
      </trkpt>
      <trkpt lat="44.24578" lon="5.683">
        <ele>675</ele>
        <time>2019-06-04T07:48:56Z</time>
      </trkpt>
      <trkpt lat="44.24577" lon="5.68292">
        <ele>675</ele>
        <time>2019-06-04T07:48:57Z</time>
      </trkpt>
      <trkpt lat="44.24575" lon="5.68283">
        <ele>675</ele>
        <time>2019-06-04T07:48:58Z</time>
      </trkpt>
      <trkpt lat="44.24573" lon="5.68274">
        <ele>675</ele>
        <time>2019-06-04T07:48:59Z</time>
      </trkpt>
      <trkpt lat="44.24571" lon="5.68266">
        <ele>675</ele>
        <time>2019-06-04T07:49:00Z</time>
      </trkpt>
      <trkpt lat="44.2457" lon="5.68258">
        <ele>675</ele>
        <time>2019-06-04T07:49:01Z</time>
      </trkpt>
      <trkpt lat="44.24568" lon="5.68249">
        <ele>675</ele>
        <time>2019-06-04T07:49:02Z</time>
      </trkpt>
      <trkpt lat="44.24566" lon="5.6824">
        <ele>675</ele>
        <time>2019-06-04T07:49:03Z</time>
      </trkpt>
      <trkpt lat="44.24564" lon="5.68231">
        <ele>675</ele>
        <time>2019-06-04T07:49:04Z</time>
      </trkpt>
      <trkpt lat="44.24562" lon="5.68224">
        <ele>675</ele>
        <time>2019-06-04T07:49:05Z</time>
      </trkpt>
      <trkpt lat="44.2456" lon="5.68216">
        <ele>675</ele>
        <time>2019-06-04T07:49:06Z</time>
      </trkpt>
      <trkpt lat="44.24558" lon="5.68207">
        <ele>675</ele>
        <time>2019-06-04T07:49:07Z</time>
      </trkpt>
      <trkpt lat="44.24556" lon="5.68199">
        <ele>675</ele>
        <time>2019-06-04T07:49:08Z</time>
      </trkpt>
      <trkpt lat="44.24554" lon="5.6819">
        <ele>675</ele>
        <time>2019-06-04T07:49:09Z</time>
      </trkpt>
      <trkpt lat="44.24552" lon="5.68182">
        <ele>675</ele>
        <time>2019-06-04T07:49:10Z</time>
      </trkpt>
      <trkpt lat="44.24551" lon="5.68174">
        <ele>675</ele>
        <time>2019-06-04T07:49:11Z</time>
      </trkpt>
      <trkpt lat="44.24548" lon="5.68165">
        <ele>675</ele>
        <time>2019-06-04T07:49:12Z</time>
      </trkpt>
      <trkpt lat="44.24546" lon="5.68157">
        <ele>675</ele>
        <time>2019-06-04T07:49:13Z</time>
      </trkpt>
      <trkpt lat="44.24544" lon="5.68149">
        <ele>675</ele>
        <time>2019-06-04T07:49:14Z</time>
      </trkpt>
      <trkpt lat="44.24542" lon="5.68141">
        <ele>675</ele>
        <time>2019-06-04T07:49:15Z</time>
      </trkpt>
      <trkpt lat="44.24541" lon="5.68132">
        <ele>675</ele>
        <time>2019-06-04T07:49:16Z</time>
      </trkpt>
      <trkpt lat="44.24539" lon="5.68124">
        <ele>675</ele>
        <time>2019-06-04T07:49:17Z</time>
      </trkpt>
      <trkpt lat="44.24538" lon="5.68116">
        <ele>675</ele>
        <time>2019-06-04T07:49:18Z</time>
      </trkpt>
      <trkpt lat="44.24535" lon="5.68107">
        <ele>675</ele>
        <time>2019-06-04T07:49:19Z</time>
      </trkpt>
      <trkpt lat="44.24534" lon="5.68099">
        <ele>675</ele>
        <time>2019-06-04T07:49:20Z</time>
      </trkpt>
      <trkpt lat="44.24532" lon="5.6809">
        <ele>675</ele>
        <time>2019-06-04T07:49:21Z</time>
      </trkpt>
      <trkpt lat="44.2453" lon="5.68081">
        <ele>675</ele>
        <time>2019-06-04T07:49:22Z</time>
      </trkpt>
      <trkpt lat="44.24528" lon="5.68072">
        <ele>675</ele>
        <time>2019-06-04T07:49:23Z</time>
      </trkpt>
      <trkpt lat="44.24527" lon="5.68064">
        <ele>675</ele>
        <time>2019-06-04T07:49:24Z</time>
      </trkpt>
      <trkpt lat="44.24526" lon="5.68055">
        <ele>675</ele>
        <time>2019-06-04T07:49:25Z</time>
      </trkpt>
      <trkpt lat="44.24526" lon="5.68046">
        <ele>675</ele>
        <time>2019-06-04T07:49:26Z</time>
      </trkpt>
      <trkpt lat="44.24525" lon="5.68037">
        <ele>675</ele>
        <time>2019-06-04T07:49:27Z</time>
      </trkpt>
      <trkpt lat="44.24525" lon="5.68028">
        <ele>675</ele>
        <time>2019-06-04T07:49:28Z</time>
      </trkpt>
      <trkpt lat="44.24525" lon="5.68019">
        <ele>675</ele>
        <time>2019-06-04T07:49:29Z</time>
      </trkpt>
      <trkpt lat="44.24524" lon="5.68011">
        <ele>675</ele>
        <time>2019-06-04T07:49:30Z</time>
      </trkpt>
      <trkpt lat="44.24524" lon="5.68002">
        <ele>675</ele>
        <time>2019-06-04T07:49:31Z</time>
      </trkpt>
      <trkpt lat="44.24524" lon="5.67993">
        <ele>675</ele>
        <time>2019-06-04T07:49:32Z</time>
      </trkpt>
      <trkpt lat="44.24524" lon="5.67984">
        <ele>675</ele>
        <time>2019-06-04T07:49:33Z</time>
      </trkpt>
      <trkpt lat="44.24524" lon="5.67976">
        <ele>675</ele>
        <time>2019-06-04T07:49:34Z</time>
      </trkpt>
      <trkpt lat="44.24523" lon="5.67967">
        <ele>675</ele>
        <time>2019-06-04T07:49:35Z</time>
      </trkpt>
      <trkpt lat="44.24523" lon="5.67958">
        <ele>675</ele>
        <time>2019-06-04T07:49:36Z</time>
      </trkpt>
      <trkpt lat="44.24523" lon="5.6795">
        <ele>675</ele>
        <time>2019-06-04T07:49:37Z</time>
      </trkpt>
      <trkpt lat="44.24522" lon="5.67941">
        <ele>675</ele>
        <time>2019-06-04T07:49:38Z</time>
      </trkpt>
      <trkpt lat="44.24522" lon="5.67933">
        <ele>675</ele>
        <time>2019-06-04T07:49:39Z</time>
      </trkpt>
      <trkpt lat="44.24522" lon="5.67924">
        <ele>675</ele>
        <time>2019-06-04T07:49:40Z</time>
      </trkpt>
      <trkpt lat="44.24522" lon="5.67916">
        <ele>675</ele>
        <time>2019-06-04T07:49:41Z</time>
      </trkpt>
      <trkpt lat="44.24521" lon="5.67907">
        <ele>675</ele>
        <time>2019-06-04T07:49:42Z</time>
      </trkpt>
      <trkpt lat="44.24521" lon="5.67899">
        <ele>675</ele>
        <time>2019-06-04T07:49:43Z</time>
      </trkpt>
      <trkpt lat="44.24521" lon="5.67891">
        <ele>675</ele>
        <time>2019-06-04T07:49:44Z</time>
      </trkpt>
      <trkpt lat="44.2452" lon="5.67882">
        <ele>675</ele>
        <time>2019-06-04T07:49:45Z</time>
      </trkpt>
      <trkpt lat="44.2452" lon="5.67874">
        <ele>675</ele>
        <time>2019-06-04T07:49:46Z</time>
      </trkpt>
      <trkpt lat="44.2452" lon="5.67865">
        <ele>675</ele>
        <time>2019-06-04T07:49:47Z</time>
      </trkpt>
      <trkpt lat="44.24519" lon="5.67857">
        <ele>675</ele>
        <time>2019-06-04T07:49:48Z</time>
      </trkpt>
      <trkpt lat="44.24519" lon="5.67848">
        <ele>675</ele>
        <time>2019-06-04T07:49:49Z</time>
      </trkpt>
      <trkpt lat="44.24519" lon="5.6784">
        <ele>675</ele>
        <time>2019-06-04T07:49:50Z</time>
      </trkpt>
      <trkpt lat="44.24519" lon="5.67832">
        <ele>675</ele>
        <time>2019-06-04T07:49:51Z</time>
      </trkpt>
      <trkpt lat="44.2452" lon="5.67824">
        <ele>675</ele>
        <time>2019-06-04T07:49:52Z</time>
      </trkpt>
      <trkpt lat="44.2452" lon="5.67816">
        <ele>675</ele>
        <time>2019-06-04T07:49:53Z</time>
      </trkpt>
      <trkpt lat="44.2452" lon="5.67808">
        <ele>675</ele>
        <time>2019-06-04T07:49:54Z</time>
      </trkpt>
      <trkpt lat="44.24521" lon="5.67801">
        <ele>675</ele>
        <time>2019-06-04T07:49:55Z</time>
      </trkpt>
      <trkpt lat="44.24522" lon="5.67792">
        <ele>675</ele>
        <time>2019-06-04T07:49:56Z</time>
      </trkpt>
      <trkpt lat="44.24523" lon="5.67784">
        <ele>675</ele>
        <time>2019-06-04T07:49:57Z</time>
      </trkpt>
      <trkpt lat="44.24524" lon="5.67775">
        <ele>675</ele>
        <time>2019-06-04T07:49:58Z</time>
      </trkpt>
      <trkpt lat="44.24525" lon="5.67767">
        <ele>675</ele>
        <time>2019-06-04T07:49:59Z</time>
      </trkpt>
      <trkpt lat="44.24526" lon="5.67758">
        <ele>675</ele>
        <time>2019-06-04T07:50:00Z</time>
      </trkpt>
      <trkpt lat="44.24527" lon="5.67749">
        <ele>675</ele>
        <time>2019-06-04T07:50:01Z</time>
      </trkpt>
      <trkpt lat="44.24529" lon="5.6774">
        <ele>675</ele>
        <time>2019-06-04T07:50:02Z</time>
      </trkpt>
      <trkpt lat="44.2453" lon="5.67731">
        <ele>675</ele>
        <time>2019-06-04T07:50:03Z</time>
      </trkpt>
      <trkpt lat="44.24532" lon="5.67723">
        <ele>675</ele>
        <time>2019-06-04T07:50:04Z</time>
      </trkpt>
      <trkpt lat="44.24533" lon="5.67713">
        <ele>675</ele>
        <time>2019-06-04T07:50:05Z</time>
      </trkpt>
      <trkpt lat="44.24535" lon="5.67704">
        <ele>675</ele>
        <time>2019-06-04T07:50:06Z</time>
      </trkpt>
      <trkpt lat="44.24537" lon="5.67695">
        <ele>675</ele>
        <time>2019-06-04T07:50:07Z</time>
      </trkpt>
      <trkpt lat="44.24538" lon="5.67687">
        <ele>675</ele>
        <time>2019-06-04T07:50:08Z</time>
      </trkpt>
      <trkpt lat="44.2454" lon="5.67678">
        <ele>675</ele>
        <time>2019-06-04T07:50:09Z</time>
      </trkpt>
      <trkpt lat="44.24542" lon="5.67669">
        <ele>675</ele>
        <time>2019-06-04T07:50:10Z</time>
      </trkpt>
      <trkpt lat="44.24544" lon="5.6766">
        <ele>675</ele>
        <time>2019-06-04T07:50:11Z</time>
      </trkpt>
      <trkpt lat="44.24545" lon="5.6765">
        <ele>675</ele>
        <time>2019-06-04T07:50:12Z</time>
      </trkpt>
      <trkpt lat="44.24546" lon="5.67641">
        <ele>675</ele>
        <time>2019-06-04T07:50:13Z</time>
      </trkpt>
      <trkpt lat="44.24547" lon="5.67632">
        <ele>675</ele>
        <time>2019-06-04T07:50:14Z</time>
      </trkpt>
      <trkpt lat="44.24548" lon="5.67623">
        <ele>675</ele>
        <time>2019-06-04T07:50:15Z</time>
      </trkpt>
      <trkpt lat="44.24548" lon="5.67614">
        <ele>675</ele>
        <time>2019-06-04T07:50:16Z</time>
      </trkpt>
      <trkpt lat="44.24548" lon="5.67605">
        <ele>675</ele>
        <time>2019-06-04T07:50:17Z</time>
      </trkpt>
      <trkpt lat="44.24547" lon="5.67596">
        <ele>675</ele>
        <time>2019-06-04T07:50:18Z</time>
      </trkpt>
      <trkpt lat="44.24546" lon="5.67588">
        <ele>675</ele>
        <time>2019-06-04T07:50:19Z</time>
      </trkpt>
      <trkpt lat="44.24546" lon="5.6758">
        <ele>675</ele>
        <time>2019-06-04T07:50:20Z</time>
      </trkpt>
      <trkpt lat="44.24545" lon="5.67571">
        <ele>675</ele>
        <time>2019-06-04T07:50:21Z</time>
      </trkpt>
      <trkpt lat="44.24543" lon="5.67562">
        <ele>675</ele>
        <time>2019-06-04T07:50:22Z</time>
      </trkpt>
      <trkpt lat="44.24543" lon="5.67554">
        <ele>675</ele>
        <time>2019-06-04T07:50:23Z</time>
      </trkpt>
      <trkpt lat="44.24543" lon="5.67546">
        <ele>675</ele>
        <time>2019-06-04T07:50:24Z</time>
      </trkpt>
      <trkpt lat="44.24544" lon="5.67538">
        <ele>675</ele>
        <time>2019-06-04T07:50:25Z</time>
      </trkpt>
      <trkpt lat="44.24546" lon="5.6753">
        <ele>675</ele>
        <time>2019-06-04T07:50:26Z</time>
      </trkpt>
      <trkpt lat="44.24548" lon="5.67522">
        <ele>675</ele>
        <time>2019-06-04T07:50:27Z</time>
      </trkpt>
      <trkpt lat="44.2455" lon="5.67515">
        <ele>675</ele>
        <time>2019-06-04T07:50:28Z</time>
      </trkpt>
      <trkpt lat="44.24553" lon="5.67507">
        <ele>675</ele>
        <time>2019-06-04T07:50:29Z</time>
      </trkpt>
      <trkpt lat="44.24557" lon="5.675">
        <ele>675</ele>
        <time>2019-06-04T07:50:30Z</time>
      </trkpt>
      <trkpt lat="44.24561" lon="5.67492">
        <ele>675</ele>
        <time>2019-06-04T07:50:31Z</time>
      </trkpt>
      <trkpt lat="44.24564" lon="5.67484">
        <ele>675</ele>
        <time>2019-06-04T07:50:32Z</time>
      </trkpt>
      <trkpt lat="44.24568" lon="5.67476">
        <ele>675</ele>
        <time>2019-06-04T07:50:33Z</time>
      </trkpt>
      <trkpt lat="44.24572" lon="5.67469">
        <ele>675</ele>
        <time>2019-06-04T07:50:34Z</time>
      </trkpt>
      <trkpt lat="44.24576" lon="5.67462">
        <ele>675</ele>
        <time>2019-06-04T07:50:35Z</time>
      </trkpt>
      <trkpt lat="44.24581" lon="5.67455">
        <ele>675</ele>
        <time>2019-06-04T07:50:36Z</time>
      </trkpt>
      <trkpt lat="44.24585" lon="5.67448">
        <ele>675</ele>
        <time>2019-06-04T07:50:37Z</time>
      </trkpt>
      <trkpt lat="44.2459" lon="5.67441">
        <ele>675</ele>
        <time>2019-06-04T07:50:38Z</time>
      </trkpt>
      <trkpt lat="44.24594" lon="5.67434">
        <ele>675</ele>
        <time>2019-06-04T07:50:39Z</time>
      </trkpt>
      <trkpt lat="44.24598" lon="5.67426">
        <ele>675</ele>
        <time>2019-06-04T07:50:40Z</time>
      </trkpt>
      <trkpt lat="44.24603" lon="5.67419">
        <ele>675</ele>
        <time>2019-06-04T07:50:41Z</time>
      </trkpt>
      <trkpt lat="44.24607" lon="5.67412">
        <ele>675</ele>
        <time>2019-06-04T07:50:42Z</time>
      </trkpt>
      <trkpt lat="44.24611" lon="5.67405">
        <ele>675</ele>
        <time>2019-06-04T07:50:43Z</time>
      </trkpt>
      <trkpt lat="44.24616" lon="5.67397">
        <ele>675</ele>
        <time>2019-06-04T07:50:44Z</time>
      </trkpt>
      <trkpt lat="44.2462" lon="5.67389">
        <ele>675</ele>
        <time>2019-06-04T07:50:45Z</time>
      </trkpt>
      <trkpt lat="44.24623" lon="5.67381">
        <ele>675</ele>
        <time>2019-06-04T07:50:46Z</time>
      </trkpt>
      <trkpt lat="44.24626" lon="5.67372">
        <ele>675</ele>
        <time>2019-06-04T07:50:47Z</time>
      </trkpt>
      <trkpt lat="44.24629" lon="5.67362">
        <ele>675</ele>
        <time>2019-06-04T07:50:48Z</time>
      </trkpt>
      <trkpt lat="44.24631" lon="5.67353">
        <ele>675</ele>
        <time>2019-06-04T07:50:49Z</time>
      </trkpt>
      <trkpt lat="44.24633" lon="5.67344">
        <ele>675</ele>
        <time>2019-06-04T07:50:50Z</time>
      </trkpt>
      <trkpt lat="44.24635" lon="5.67335">
        <ele>675</ele>
        <time>2019-06-04T07:50:51Z</time>
      </trkpt>
      <trkpt lat="44.24637" lon="5.67326">
        <ele>676</ele>
        <time>2019-06-04T07:50:52Z</time>
      </trkpt>
      <trkpt lat="44.24638" lon="5.67317">
        <ele>676</ele>
        <time>2019-06-04T07:50:53Z</time>
      </trkpt>
      <trkpt lat="44.2464" lon="5.67308">
        <ele>676</ele>
        <time>2019-06-04T07:50:54Z</time>
      </trkpt>
      <trkpt lat="44.24641" lon="5.673">
        <ele>676</ele>
        <time>2019-06-04T07:50:55Z</time>
      </trkpt>
      <trkpt lat="44.24643" lon="5.67291">
        <ele>676</ele>
        <time>2019-06-04T07:50:56Z</time>
      </trkpt>
      <trkpt lat="44.24645" lon="5.67282">
        <ele>676</ele>
        <time>2019-06-04T07:50:57Z</time>
      </trkpt>
      <trkpt lat="44.24648" lon="5.67273">
        <ele>676</ele>
        <time>2019-06-04T07:50:58Z</time>
      </trkpt>
      <trkpt lat="44.24651" lon="5.67265">
        <ele>676</ele>
        <time>2019-06-04T07:50:59Z</time>
      </trkpt>
      <trkpt lat="44.24653" lon="5.67256">
        <ele>676</ele>
        <time>2019-06-04T07:51:00Z</time>
      </trkpt>
      <trkpt lat="44.24656" lon="5.67247">
        <ele>676</ele>
        <time>2019-06-04T07:51:01Z</time>
      </trkpt>
      <trkpt lat="44.24659" lon="5.67239">
        <ele>676</ele>
        <time>2019-06-04T07:51:02Z</time>
      </trkpt>
      <trkpt lat="44.24662" lon="5.67231">
        <ele>676</ele>
        <time>2019-06-04T07:51:03Z</time>
      </trkpt>
      <trkpt lat="44.24665" lon="5.67224">
        <ele>676</ele>
        <time>2019-06-04T07:51:04Z</time>
      </trkpt>
      <trkpt lat="44.24669" lon="5.67216">
        <ele>676</ele>
        <time>2019-06-04T07:51:05Z</time>
      </trkpt>
      <trkpt lat="44.24673" lon="5.67209">
        <ele>677</ele>
        <time>2019-06-04T07:51:06Z</time>
      </trkpt>
      <trkpt lat="44.24677" lon="5.67201">
        <ele>677</ele>
        <time>2019-06-04T07:51:07Z</time>
      </trkpt>
      <trkpt lat="44.2468" lon="5.67194">
        <ele>678</ele>
        <time>2019-06-04T07:51:08Z</time>
      </trkpt>
      <trkpt lat="44.24684" lon="5.67187">
        <ele>678</ele>
        <time>2019-06-04T07:51:09Z</time>
      </trkpt>
      <trkpt lat="44.24688" lon="5.6718">
        <ele>678</ele>
        <time>2019-06-04T07:51:10Z</time>
      </trkpt>
      <trkpt lat="44.24692" lon="5.67172">
        <ele>678</ele>
        <time>2019-06-04T07:51:11Z</time>
      </trkpt>
      <trkpt lat="44.24696" lon="5.67165">
        <ele>679</ele>
        <time>2019-06-04T07:51:12Z</time>
      </trkpt>
      <trkpt lat="44.24699" lon="5.67157">
        <ele>679</ele>
        <time>2019-06-04T07:51:13Z</time>
      </trkpt>
      <trkpt lat="44.24701" lon="5.67148">
        <ele>679</ele>
        <time>2019-06-04T07:51:14Z</time>
      </trkpt>
      <trkpt lat="44.24703" lon="5.67139">
        <ele>679</ele>
        <time>2019-06-04T07:51:15Z</time>
      </trkpt>
      <trkpt lat="44.24704" lon="5.6713">
        <ele>680</ele>
        <time>2019-06-04T07:51:16Z</time>
      </trkpt>
      <trkpt lat="44.24705" lon="5.67121">
        <ele>680</ele>
        <time>2019-06-04T07:51:17Z</time>
      </trkpt>
      <trkpt lat="44.24706" lon="5.67112">
        <ele>680</ele>
        <time>2019-06-04T07:51:18Z</time>
      </trkpt>
      <trkpt lat="44.24707" lon="5.67103">
        <ele>680</ele>
        <time>2019-06-04T07:51:19Z</time>
      </trkpt>
      <trkpt lat="44.24708" lon="5.67094">
        <ele>680</ele>
        <time>2019-06-04T07:51:20Z</time>
      </trkpt>
      <trkpt lat="44.24708" lon="5.67085">
        <ele>680</ele>
        <time>2019-06-04T07:51:21Z</time>
      </trkpt>
      <trkpt lat="44.24709" lon="5.67077">
        <ele>680</ele>
        <time>2019-06-04T07:51:22Z</time>
      </trkpt>
      <trkpt lat="44.2471" lon="5.67068">
        <ele>680</ele>
        <time>2019-06-04T07:51:23Z</time>
      </trkpt>
      <trkpt lat="44.24712" lon="5.67059">
        <ele>680</ele>
        <time>2019-06-04T07:51:24Z</time>
      </trkpt>
      <trkpt lat="44.24714" lon="5.67051">
        <ele>680</ele>
        <time>2019-06-04T07:51:25Z</time>
      </trkpt>
      <trkpt lat="44.24715" lon="5.67043">
        <ele>680</ele>
        <time>2019-06-04T07:51:26Z</time>
      </trkpt>
      <trkpt lat="44.24715" lon="5.67035">
        <ele>680</ele>
        <time>2019-06-04T07:51:27Z</time>
      </trkpt>
      <trkpt lat="44.24718" lon="5.67026">
        <ele>680</ele>
        <time>2019-06-04T07:51:28Z</time>
      </trkpt>
      <trkpt lat="44.24719" lon="5.67017">
        <ele>680</ele>
        <time>2019-06-04T07:51:29Z</time>
      </trkpt>
      <trkpt lat="44.2472" lon="5.67008">
        <ele>680</ele>
        <time>2019-06-04T07:51:30Z</time>
      </trkpt>
      <trkpt lat="44.24722" lon="5.66999">
        <ele>680</ele>
        <time>2019-06-04T07:51:31Z</time>
      </trkpt>
      <trkpt lat="44.24724" lon="5.66991">
        <ele>680</ele>
        <time>2019-06-04T07:51:32Z</time>
      </trkpt>
      <trkpt lat="44.24727" lon="5.66982">
        <ele>680</ele>
        <time>2019-06-04T07:51:33Z</time>
      </trkpt>
      <trkpt lat="44.2473" lon="5.66974">
        <ele>680</ele>
        <time>2019-06-04T07:51:34Z</time>
      </trkpt>
      <trkpt lat="44.24733" lon="5.66966">
        <ele>680</ele>
        <time>2019-06-04T07:51:35Z</time>
      </trkpt>
      <trkpt lat="44.24736" lon="5.66959">
        <ele>680</ele>
        <time>2019-06-04T07:51:36Z</time>
      </trkpt>
      <trkpt lat="44.2474" lon="5.66951">
        <ele>680</ele>
        <time>2019-06-04T07:51:37Z</time>
      </trkpt>
      <trkpt lat="44.24743" lon="5.66943">
        <ele>680</ele>
        <time>2019-06-04T07:51:38Z</time>
      </trkpt>
      <trkpt lat="44.24746" lon="5.66935">
        <ele>680</ele>
        <time>2019-06-04T07:51:39Z</time>
      </trkpt>
      <trkpt lat="44.24749" lon="5.66928">
        <ele>680</ele>
        <time>2019-06-04T07:51:40Z</time>
      </trkpt>
      <trkpt lat="44.24752" lon="5.6692">
        <ele>680</ele>
        <time>2019-06-04T07:51:41Z</time>
      </trkpt>
      <trkpt lat="44.24755" lon="5.66913">
        <ele>680</ele>
        <time>2019-06-04T07:51:42Z</time>
      </trkpt>
      <trkpt lat="44.24758" lon="5.66906">
        <ele>680</ele>
        <time>2019-06-04T07:51:43Z</time>
      </trkpt>
      <trkpt lat="44.24761" lon="5.66898">
        <ele>680</ele>
        <time>2019-06-04T07:51:44Z</time>
      </trkpt>
      <trkpt lat="44.24764" lon="5.66891">
        <ele>680</ele>
        <time>2019-06-04T07:51:45Z</time>
      </trkpt>
      <trkpt lat="44.24767" lon="5.66884">
        <ele>680</ele>
        <time>2019-06-04T07:51:46Z</time>
      </trkpt>
      <trkpt lat="44.2477" lon="5.66876">
        <ele>680</ele>
        <time>2019-06-04T07:51:47Z</time>
      </trkpt>
      <trkpt lat="44.24773" lon="5.66869">
        <ele>681</ele>
        <time>2019-06-04T07:51:48Z</time>
      </trkpt>
      <trkpt lat="44.24776" lon="5.66862">
        <ele>681</ele>
        <time>2019-06-04T07:51:49Z</time>
      </trkpt>
      <trkpt lat="44.24778" lon="5.66854">
        <ele>681</ele>
        <time>2019-06-04T07:51:50Z</time>
      </trkpt>
      <trkpt lat="44.24781" lon="5.66847">
        <ele>681</ele>
        <time>2019-06-04T07:51:51Z</time>
      </trkpt>
      <trkpt lat="44.24783" lon="5.66839">
        <ele>681</ele>
        <time>2019-06-04T07:51:52Z</time>
      </trkpt>
      <trkpt lat="44.24785" lon="5.66831">
        <ele>682</ele>
        <time>2019-06-04T07:51:53Z</time>
      </trkpt>
      <trkpt lat="44.24788" lon="5.66823">
        <ele>682</ele>
        <time>2019-06-04T07:51:54Z</time>
      </trkpt>
      <trkpt lat="44.24789" lon="5.66815">
        <ele>682</ele>
        <time>2019-06-04T07:51:55Z</time>
      </trkpt>
      <trkpt lat="44.24791" lon="5.66806">
        <ele>682</ele>
        <time>2019-06-04T07:51:56Z</time>
      </trkpt>
      <trkpt lat="44.24791" lon="5.66798">
        <ele>682</ele>
        <time>2019-06-04T07:51:57Z</time>
      </trkpt>
      <trkpt lat="44.24791" lon="5.66789">
        <ele>682</ele>
        <time>2019-06-04T07:51:58Z</time>
      </trkpt>
      <trkpt lat="44.2479" lon="5.6678">
        <ele>683</ele>
        <time>2019-06-04T07:51:59Z</time>
      </trkpt>
      <trkpt lat="44.2479" lon="5.66771">
        <ele>683</ele>
        <time>2019-06-04T07:52:00Z</time>
      </trkpt>
      <trkpt lat="44.24789" lon="5.66762">
        <ele>684</ele>
        <time>2019-06-04T07:52:01Z</time>
      </trkpt>
      <trkpt lat="44.24787" lon="5.66754">
        <ele>685</ele>
        <time>2019-06-04T07:52:02Z</time>
      </trkpt>
      <trkpt lat="44.24786" lon="5.66746">
        <ele>685</ele>
        <time>2019-06-04T07:52:03Z</time>
      </trkpt>
      <trkpt lat="44.24784" lon="5.66738">
        <ele>685</ele>
        <time>2019-06-04T07:52:04Z</time>
      </trkpt>
      <trkpt lat="44.24781" lon="5.6673">
        <ele>686</ele>
        <time>2019-06-04T07:52:05Z</time>
      </trkpt>
      <trkpt lat="44.24778" lon="5.66723">
        <ele>686</ele>
        <time>2019-06-04T07:52:06Z</time>
      </trkpt>
      <trkpt lat="44.24775" lon="5.66716">
        <ele>686</ele>
        <time>2019-06-04T07:52:07Z</time>
      </trkpt>
      <trkpt lat="44.24772" lon="5.66709">
        <ele>686</ele>
        <time>2019-06-04T07:52:08Z</time>
      </trkpt>
      <trkpt lat="44.24768" lon="5.66702">
        <ele>686</ele>
        <time>2019-06-04T07:52:09Z</time>
      </trkpt>
      <trkpt lat="44.24763" lon="5.66697">
        <ele>686</ele>
        <time>2019-06-04T07:52:10Z</time>
      </trkpt>
      <trkpt lat="44.24759" lon="5.66692">
        <ele>686</ele>
        <time>2019-06-04T07:52:11Z</time>
      </trkpt>
      <trkpt lat="44.24754" lon="5.66688">
        <ele>686</ele>
        <time>2019-06-04T07:52:12Z</time>
      </trkpt>
      <trkpt lat="44.24749" lon="5.66684">
        <ele>686</ele>
        <time>2019-06-04T07:52:13Z</time>
      </trkpt>
      <trkpt lat="44.24744" lon="5.6668">
        <ele>686</ele>
        <time>2019-06-04T07:52:14Z</time>
      </trkpt>
      <trkpt lat="44.24739" lon="5.66677">
        <ele>686</ele>
        <time>2019-06-04T07:52:15Z</time>
      </trkpt>
      <trkpt lat="44.24733" lon="5.66675">
        <ele>686</ele>
        <time>2019-06-04T07:52:16Z</time>
      </trkpt>
      <trkpt lat="44.24728" lon="5.66674">
        <ele>686</ele>
        <time>2019-06-04T07:52:17Z</time>
      </trkpt>
      <trkpt lat="44.24722" lon="5.66673">
        <ele>686</ele>
        <time>2019-06-04T07:52:18Z</time>
      </trkpt>
      <trkpt lat="44.24715" lon="5.66673">
        <ele>686</ele>
        <time>2019-06-04T07:52:19Z</time>
      </trkpt>
      <trkpt lat="44.24709" lon="5.66672">
        <ele>686</ele>
        <time>2019-06-04T07:52:20Z</time>
      </trkpt>
      <trkpt lat="44.24702" lon="5.66672">
        <ele>686</ele>
        <time>2019-06-04T07:52:21Z</time>
      </trkpt>
      <trkpt lat="44.24696" lon="5.66672">
        <ele>686</ele>
        <time>2019-06-04T07:52:22Z</time>
      </trkpt>
      <trkpt lat="44.24689" lon="5.66672">
        <ele>686</ele>
        <time>2019-06-04T07:52:23Z</time>
      </trkpt>
      <trkpt lat="44.24682" lon="5.6667">
        <ele>686</ele>
        <time>2019-06-04T07:52:24Z</time>
      </trkpt>
      <trkpt lat="44.24676" lon="5.66669">
        <ele>686</ele>
        <time>2019-06-04T07:52:25Z</time>
      </trkpt>
      <trkpt lat="44.2467" lon="5.66665">
        <ele>686</ele>
        <time>2019-06-04T07:52:26Z</time>
      </trkpt>
      <trkpt lat="44.24663" lon="5.66664">
        <ele>686</ele>
        <time>2019-06-04T07:52:27Z</time>
      </trkpt>
      <trkpt lat="44.24657" lon="5.66661">
        <ele>686</ele>
        <time>2019-06-04T07:52:28Z</time>
      </trkpt>
      <trkpt lat="44.24651" lon="5.66656">
        <ele>686</ele>
        <time>2019-06-04T07:52:29Z</time>
      </trkpt>
      <trkpt lat="44.24646" lon="5.66649">
        <ele>686</ele>
        <time>2019-06-04T07:52:30Z</time>
      </trkpt>
      <trkpt lat="44.24641" lon="5.66641">
        <ele>686</ele>
        <time>2019-06-04T07:52:31Z</time>
      </trkpt>
      <trkpt lat="44.24639" lon="5.66631">
        <ele>686</ele>
        <time>2019-06-04T07:52:32Z</time>
      </trkpt>
      <trkpt lat="44.24639" lon="5.66621">
        <ele>686</ele>
        <time>2019-06-04T07:52:33Z</time>
      </trkpt>
      <trkpt lat="44.24642" lon="5.66612">
        <ele>686</ele>
        <time>2019-06-04T07:52:34Z</time>
      </trkpt>
      <trkpt lat="44.24646" lon="5.66605">
        <ele>686</ele>
        <time>2019-06-04T07:52:35Z</time>
      </trkpt>
      <trkpt lat="44.24651" lon="5.66596">
        <ele>686</ele>
        <time>2019-06-04T07:52:36Z</time>
      </trkpt>
      <trkpt lat="44.24656" lon="5.66588">
        <ele>686</ele>
        <time>2019-06-04T07:52:37Z</time>
      </trkpt>
      <trkpt lat="44.24661" lon="5.66581">
        <ele>686</ele>
        <time>2019-06-04T07:52:38Z</time>
      </trkpt>
      <trkpt lat="44.24666" lon="5.66574">
        <ele>686</ele>
        <time>2019-06-04T07:52:39Z</time>
      </trkpt>
      <trkpt lat="44.24671" lon="5.66568">
        <ele>686</ele>
        <time>2019-06-04T07:52:40Z</time>
      </trkpt>
      <trkpt lat="44.24675" lon="5.66561">
        <ele>686</ele>
        <time>2019-06-04T07:52:41Z</time>
      </trkpt>
      <trkpt lat="44.2468" lon="5.66555">
        <ele>686</ele>
        <time>2019-06-04T07:52:42Z</time>
      </trkpt>
      <trkpt lat="44.24684" lon="5.66548">
        <ele>686</ele>
        <time>2019-06-04T07:52:43Z</time>
      </trkpt>
      <trkpt lat="44.24688" lon="5.66541">
        <ele>686</ele>
        <time>2019-06-04T07:52:44Z</time>
      </trkpt>
      <trkpt lat="44.24691" lon="5.66533">
        <ele>686</ele>
        <time>2019-06-04T07:52:45Z</time>
      </trkpt>
      <trkpt lat="44.24694" lon="5.66526">
        <ele>686</ele>
        <time>2019-06-04T07:52:46Z</time>
      </trkpt>
      <trkpt lat="44.24697" lon="5.66518">
        <ele>686</ele>
        <time>2019-06-04T07:52:47Z</time>
      </trkpt>
      <trkpt lat="44.247" lon="5.6651">
        <ele>686</ele>
        <time>2019-06-04T07:52:48Z</time>
      </trkpt>
      <trkpt lat="44.24703" lon="5.66502">
        <ele>686</ele>
        <time>2019-06-04T07:52:49Z</time>
      </trkpt>
      <trkpt lat="44.24705" lon="5.66494">
        <ele>686</ele>
        <time>2019-06-04T07:52:50Z</time>
      </trkpt>
      <trkpt lat="44.24706" lon="5.66485">
        <ele>686</ele>
        <time>2019-06-04T07:52:51Z</time>
      </trkpt>
      <trkpt lat="44.24708" lon="5.66477">
        <ele>686</ele>
        <time>2019-06-04T07:52:52Z</time>
      </trkpt>
      <trkpt lat="44.24708" lon="5.66468">
        <ele>686</ele>
        <time>2019-06-04T07:52:53Z</time>
      </trkpt>
      <trkpt lat="44.24709" lon="5.6646">
        <ele>686</ele>
        <time>2019-06-04T07:52:54Z</time>
      </trkpt>
      <trkpt lat="44.24708" lon="5.66452">
        <ele>686</ele>
        <time>2019-06-04T07:52:55Z</time>
      </trkpt>
      <trkpt lat="44.24707" lon="5.66443">
        <ele>686</ele>
        <time>2019-06-04T07:52:56Z</time>
      </trkpt>
      <trkpt lat="44.24706" lon="5.66434">
        <ele>686</ele>
        <time>2019-06-04T07:52:57Z</time>
      </trkpt>
      <trkpt lat="44.24705" lon="5.66426">
        <ele>686</ele>
        <time>2019-06-04T07:52:58Z</time>
      </trkpt>
      <trkpt lat="44.24704" lon="5.66418">
        <ele>686</ele>
        <time>2019-06-04T07:52:59Z</time>
      </trkpt>
      <trkpt lat="44.24701" lon="5.6641">
        <ele>686</ele>
        <time>2019-06-04T07:53:00Z</time>
      </trkpt>
      <trkpt lat="44.24698" lon="5.66402">
        <ele>686</ele>
        <time>2019-06-04T07:53:01Z</time>
      </trkpt>
      <trkpt lat="44.24695" lon="5.66396">
        <ele>686</ele>
        <time>2019-06-04T07:53:02Z</time>
      </trkpt>
      <trkpt lat="44.24691" lon="5.66389">
        <ele>686</ele>
        <time>2019-06-04T07:53:03Z</time>
      </trkpt>
      <trkpt lat="44.24686" lon="5.66384">
        <ele>686</ele>
        <time>2019-06-04T07:53:04Z</time>
      </trkpt>
      <trkpt lat="44.24681" lon="5.66378">
        <ele>686</ele>
        <time>2019-06-04T07:53:05Z</time>
      </trkpt>
      <trkpt lat="44.24675" lon="5.66374">
        <ele>686</ele>
        <time>2019-06-04T07:53:06Z</time>
      </trkpt>
      <trkpt lat="44.24669" lon="5.6637">
        <ele>686</ele>
        <time>2019-06-04T07:53:07Z</time>
      </trkpt>
      <trkpt lat="44.24663" lon="5.66368">
        <ele>686</ele>
        <time>2019-06-04T07:53:08Z</time>
      </trkpt>
      <trkpt lat="44.24657" lon="5.66366">
        <ele>686</ele>
        <time>2019-06-04T07:53:09Z</time>
      </trkpt>
      <trkpt lat="44.24651" lon="5.66366">
        <ele>686</ele>
        <time>2019-06-04T07:53:10Z</time>
      </trkpt>
      <trkpt lat="44.24646" lon="5.66366">
        <ele>686</ele>
        <time>2019-06-04T07:53:11Z</time>
      </trkpt>
      <trkpt lat="44.24639" lon="5.66366">
        <ele>686</ele>
        <time>2019-06-04T07:53:12Z</time>
      </trkpt>
      <trkpt lat="44.24633" lon="5.66366">
        <ele>686</ele>
        <time>2019-06-04T07:53:13Z</time>
      </trkpt>
      <trkpt lat="44.24627" lon="5.66367">
        <ele>686</ele>
        <time>2019-06-04T07:53:14Z</time>
      </trkpt>
      <trkpt lat="44.24621" lon="5.66368">
        <ele>686</ele>
        <time>2019-06-04T07:53:15Z</time>
      </trkpt>
      <trkpt lat="44.24615" lon="5.66369">
        <ele>686</ele>
        <time>2019-06-04T07:53:16Z</time>
      </trkpt>
      <trkpt lat="44.24608" lon="5.66369">
        <ele>686</ele>
        <time>2019-06-04T07:53:17Z</time>
      </trkpt>
      <trkpt lat="44.24603" lon="5.66369">
        <ele>686</ele>
        <time>2019-06-04T07:53:18Z</time>
      </trkpt>
      <trkpt lat="44.24596" lon="5.6637">
        <ele>686</ele>
        <time>2019-06-04T07:53:19Z</time>
      </trkpt>
      <trkpt lat="44.2459" lon="5.6637">
        <ele>686</ele>
        <time>2019-06-04T07:53:20Z</time>
      </trkpt>
      <trkpt lat="44.24584" lon="5.66369">
        <ele>686</ele>
        <time>2019-06-04T07:53:21Z</time>
      </trkpt>
      <trkpt lat="44.24578" lon="5.66369">
        <ele>686</ele>
        <time>2019-06-04T07:53:22Z</time>
      </trkpt>
      <trkpt lat="44.24572" lon="5.66369">
        <ele>686</ele>
        <time>2019-06-04T07:53:23Z</time>
      </trkpt>
      <trkpt lat="44.24566" lon="5.6637">
        <ele>686</ele>
        <time>2019-06-04T07:53:24Z</time>
      </trkpt>
      <trkpt lat="44.2456" lon="5.66369">
        <ele>686</ele>
        <time>2019-06-04T07:53:25Z</time>
      </trkpt>
      <trkpt lat="44.24554" lon="5.66367">
        <ele>686</ele>
        <time>2019-06-04T07:53:26Z</time>
      </trkpt>
      <trkpt lat="44.24547" lon="5.66366">
        <ele>686</ele>
        <time>2019-06-04T07:53:27Z</time>
      </trkpt>
      <trkpt lat="44.24541" lon="5.66362">
        <ele>686</ele>
        <time>2019-06-04T07:53:28Z</time>
      </trkpt>
      <trkpt lat="44.24535" lon="5.66359">
        <ele>686</ele>
        <time>2019-06-04T07:53:29Z</time>
      </trkpt>
      <trkpt lat="44.24529" lon="5.66354">
        <ele>686</ele>
        <time>2019-06-04T07:53:30Z</time>
      </trkpt>
      <trkpt lat="44.24524" lon="5.66349">
        <ele>686</ele>
        <time>2019-06-04T07:53:31Z</time>
      </trkpt>
      <trkpt lat="44.24519" lon="5.66343">
        <ele>686</ele>
        <time>2019-06-04T07:53:32Z</time>
      </trkpt>
      <trkpt lat="44.24513" lon="5.66337">
        <ele>686</ele>
        <time>2019-06-04T07:53:33Z</time>
      </trkpt>
      <trkpt lat="44.24509" lon="5.6633">
        <ele>686</ele>
        <time>2019-06-04T07:53:34Z</time>
      </trkpt>
      <trkpt lat="44.24504" lon="5.66324">
        <ele>686</ele>
        <time>2019-06-04T07:53:35Z</time>
      </trkpt>
      <trkpt lat="44.245" lon="5.66316">
        <ele>686</ele>
        <time>2019-06-04T07:53:36Z</time>
      </trkpt>
      <trkpt lat="44.24496" lon="5.66309">
        <ele>686</ele>
        <time>2019-06-04T07:53:37Z</time>
      </trkpt>
      <trkpt lat="44.24492" lon="5.66302">
        <ele>686</ele>
        <time>2019-06-04T07:53:38Z</time>
      </trkpt>
      <trkpt lat="44.24487" lon="5.66296">
        <ele>686</ele>
        <time>2019-06-04T07:53:39Z</time>
      </trkpt>
      <trkpt lat="44.24482" lon="5.6629">
        <ele>686</ele>
        <time>2019-06-04T07:53:40Z</time>
      </trkpt>
      <trkpt lat="44.24477" lon="5.66283">
        <ele>686</ele>
        <time>2019-06-04T07:53:41Z</time>
      </trkpt>
      <trkpt lat="44.24472" lon="5.66276">
        <ele>686</ele>
        <time>2019-06-04T07:53:42Z</time>
      </trkpt>
      <trkpt lat="44.24468" lon="5.66269">
        <ele>686</ele>
        <time>2019-06-04T07:53:43Z</time>
      </trkpt>
      <trkpt lat="44.24462" lon="5.66262">
        <ele>686</ele>
        <time>2019-06-04T07:53:44Z</time>
      </trkpt>
      <trkpt lat="44.24457" lon="5.66254">
        <ele>686</ele>
        <time>2019-06-04T07:53:45Z</time>
      </trkpt>
      <trkpt lat="44.24452" lon="5.66247">
        <ele>686</ele>
        <time>2019-06-04T07:53:46Z</time>
      </trkpt>
      <trkpt lat="44.24449" lon="5.6624">
        <ele>686</ele>
        <time>2019-06-04T07:53:47Z</time>
      </trkpt>
      <trkpt lat="44.24445" lon="5.66232">
        <ele>686</ele>
        <time>2019-06-04T07:53:48Z</time>
      </trkpt>
      <trkpt lat="44.24443" lon="5.66225">
        <ele>686</ele>
        <time>2019-06-04T07:53:49Z</time>
      </trkpt>
      <trkpt lat="44.24439" lon="5.66217">
        <ele>686</ele>
        <time>2019-06-04T07:53:50Z</time>
      </trkpt>
      <trkpt lat="44.24436" lon="5.6621">
        <ele>686</ele>
        <time>2019-06-04T07:53:51Z</time>
      </trkpt>
      <trkpt lat="44.24433" lon="5.66202">
        <ele>686</ele>
        <time>2019-06-04T07:53:52Z</time>
      </trkpt>
      <trkpt lat="44.24428" lon="5.66195">
        <ele>686</ele>
        <time>2019-06-04T07:53:53Z</time>
      </trkpt>
      <trkpt lat="44.24423" lon="5.66187">
        <ele>686</ele>
        <time>2019-06-04T07:53:54Z</time>
      </trkpt>
      <trkpt lat="44.24419" lon="5.66179">
        <ele>686</ele>
        <time>2019-06-04T07:53:55Z</time>
      </trkpt>
      <trkpt lat="44.24417" lon="5.6617">
        <ele>686</ele>
        <time>2019-06-04T07:53:56Z</time>
      </trkpt>
      <trkpt lat="44.24416" lon="5.6616">
        <ele>686</ele>
        <time>2019-06-04T07:53:57Z</time>
      </trkpt>
      <trkpt lat="44.24416" lon="5.66151">
        <ele>686</ele>
        <time>2019-06-04T07:53:58Z</time>
      </trkpt>
      <trkpt lat="44.24416" lon="5.66142">
        <ele>686</ele>
        <time>2019-06-04T07:53:59Z</time>
      </trkpt>
      <trkpt lat="44.24416" lon="5.66132">
        <ele>686</ele>
        <time>2019-06-04T07:54:00Z</time>
      </trkpt>
      <trkpt lat="44.24416" lon="5.66123">
        <ele>685</ele>
        <time>2019-06-04T07:54:01Z</time>
      </trkpt>
      <trkpt lat="44.24416" lon="5.66113">
        <ele>685</ele>
        <time>2019-06-04T07:54:02Z</time>
      </trkpt>
      <trkpt lat="44.24416" lon="5.66104">
        <ele>685</ele>
        <time>2019-06-04T07:54:03Z</time>
      </trkpt>
      <trkpt lat="44.24415" lon="5.66094">
        <ele>685</ele>
        <time>2019-06-04T07:54:04Z</time>
      </trkpt>
      <trkpt lat="44.24415" lon="5.66085">
        <ele>685</ele>
        <time>2019-06-04T07:54:05Z</time>
      </trkpt>
      <trkpt lat="44.24415" lon="5.66076">
        <ele>685</ele>
        <time>2019-06-04T07:54:06Z</time>
      </trkpt>
      <trkpt lat="44.24414" lon="5.66066">
        <ele>685</ele>
        <time>2019-06-04T07:54:07Z</time>
      </trkpt>
      <trkpt lat="44.24413" lon="5.66057">
        <ele>685</ele>
        <time>2019-06-04T07:54:08Z</time>
      </trkpt>
      <trkpt lat="44.2441" lon="5.66048">
        <ele>685</ele>
        <time>2019-06-04T07:54:09Z</time>
      </trkpt>
      <trkpt lat="44.24408" lon="5.6604">
        <ele>685</ele>
        <time>2019-06-04T07:54:10Z</time>
      </trkpt>
      <trkpt lat="44.24405" lon="5.66033">
        <ele>685</ele>
        <time>2019-06-04T07:54:11Z</time>
      </trkpt>
      <trkpt lat="44.24402" lon="5.66025">
        <ele>685</ele>
        <time>2019-06-04T07:54:12Z</time>
      </trkpt>
      <trkpt lat="44.24399" lon="5.66019">
        <ele>685</ele>
        <time>2019-06-04T07:54:13Z</time>
      </trkpt>
      <trkpt lat="44.24396" lon="5.66012">
        <ele>685</ele>
        <time>2019-06-04T07:54:14Z</time>
      </trkpt>
      <trkpt lat="44.24394" lon="5.66006">
        <ele>686</ele>
        <time>2019-06-04T07:54:15Z</time>
      </trkpt>
      <trkpt lat="44.2439" lon="5.65999">
        <ele>687</ele>
        <time>2019-06-04T07:54:16Z</time>
      </trkpt>
      <trkpt lat="44.24385" lon="5.65992">
        <ele>687</ele>
        <time>2019-06-04T07:54:17Z</time>
      </trkpt>
      <trkpt lat="44.24381" lon="5.65986">
        <ele>688</ele>
        <time>2019-06-04T07:54:18Z</time>
      </trkpt>
      <trkpt lat="44.24376" lon="5.65979">
        <ele>688</ele>
        <time>2019-06-04T07:54:19Z</time>
      </trkpt>
      <trkpt lat="44.24372" lon="5.65974">
        <ele>689</ele>
        <time>2019-06-04T07:54:20Z</time>
      </trkpt>
      <trkpt lat="44.24369" lon="5.65967">
        <ele>689</ele>
        <time>2019-06-04T07:54:21Z</time>
      </trkpt>
      <trkpt lat="44.24366" lon="5.6596">
        <ele>690</ele>
        <time>2019-06-04T07:54:22Z</time>
      </trkpt>
      <trkpt lat="44.24363" lon="5.65953">
        <ele>690</ele>
        <time>2019-06-04T07:54:23Z</time>
      </trkpt>
      <trkpt lat="44.24361" lon="5.65945">
        <ele>691</ele>
        <time>2019-06-04T07:54:24Z</time>
      </trkpt>
      <trkpt lat="44.2436" lon="5.65937">
        <ele>691</ele>
        <time>2019-06-04T07:54:25Z</time>
      </trkpt>
      <trkpt lat="44.24358" lon="5.65929">
        <ele>692</ele>
        <time>2019-06-04T07:54:26Z</time>
      </trkpt>
      <trkpt lat="44.24358" lon="5.65922">
        <ele>692</ele>
        <time>2019-06-04T07:54:27Z</time>
      </trkpt>
      <trkpt lat="44.2436" lon="5.65914">
        <ele>692</ele>
        <time>2019-06-04T07:54:28Z</time>
      </trkpt>
      <trkpt lat="44.24361" lon="5.65906">
        <ele>693</ele>
        <time>2019-06-04T07:54:29Z</time>
      </trkpt>
      <trkpt lat="44.24363" lon="5.65897">
        <ele>693</ele>
        <time>2019-06-04T07:54:30Z</time>
      </trkpt>
      <trkpt lat="44.24366" lon="5.65889">
        <ele>693</ele>
        <time>2019-06-04T07:54:31Z</time>
      </trkpt>
      <trkpt lat="44.2437" lon="5.65882">
        <ele>694</ele>
        <time>2019-06-04T07:54:32Z</time>
      </trkpt>
      <trkpt lat="44.24374" lon="5.65875">
        <ele>695</ele>
        <time>2019-06-04T07:54:33Z</time>
      </trkpt>
      <trkpt lat="44.24378" lon="5.65869">
        <ele>695</ele>
        <time>2019-06-04T07:54:34Z</time>
      </trkpt>
      <trkpt lat="44.24382" lon="5.65862">
        <ele>696</ele>
        <time>2019-06-04T07:54:35Z</time>
      </trkpt>
      <trkpt lat="44.24387" lon="5.65857">
        <ele>697</ele>
        <time>2019-06-04T07:54:36Z</time>
      </trkpt>
      <trkpt lat="44.24392" lon="5.65852">
        <ele>697</ele>
        <time>2019-06-04T07:54:37Z</time>
      </trkpt>
      <trkpt lat="44.24398" lon="5.65846">
        <ele>698</ele>
        <time>2019-06-04T07:54:38Z</time>
      </trkpt>
      <trkpt lat="44.24404" lon="5.65841">
        <ele>699</ele>
        <time>2019-06-04T07:54:39Z</time>
      </trkpt>
      <trkpt lat="44.2441" lon="5.65837">
        <ele>699</ele>
        <time>2019-06-04T07:54:40Z</time>
      </trkpt>
      <trkpt lat="44.24416" lon="5.65832">
        <ele>700</ele>
        <time>2019-06-04T07:54:41Z</time>
      </trkpt>
      <trkpt lat="44.24421" lon="5.65827">
        <ele>701</ele>
        <time>2019-06-04T07:54:42Z</time>
      </trkpt>
      <trkpt lat="44.24427" lon="5.65822">
        <ele>702</ele>
        <time>2019-06-04T07:54:43Z</time>
      </trkpt>
      <trkpt lat="44.24431" lon="5.65817">
        <ele>703</ele>
        <time>2019-06-04T07:54:44Z</time>
      </trkpt>
      <trkpt lat="44.24436" lon="5.65813">
        <ele>703</ele>
        <time>2019-06-04T07:54:45Z</time>
      </trkpt>
      <trkpt lat="44.2444" lon="5.65807">
        <ele>703</ele>
        <time>2019-06-04T07:54:46Z</time>
      </trkpt>
      <trkpt lat="44.24445" lon="5.65802">
        <ele>703</ele>
        <time>2019-06-04T07:54:47Z</time>
      </trkpt>
      <trkpt lat="44.24449" lon="5.65796">
        <ele>703</ele>
        <time>2019-06-04T07:54:48Z</time>
      </trkpt>
      <trkpt lat="44.24453" lon="5.65791">
        <ele>703</ele>
        <time>2019-06-04T07:54:49Z</time>
      </trkpt>
      <trkpt lat="44.24458" lon="5.65785">
        <ele>703</ele>
        <time>2019-06-04T07:54:50Z</time>
      </trkpt>
      <trkpt lat="44.24463" lon="5.65778">
        <ele>703</ele>
        <time>2019-06-04T07:54:51Z</time>
      </trkpt>
      <trkpt lat="44.24467" lon="5.65772">
        <ele>703</ele>
        <time>2019-06-04T07:54:52Z</time>
      </trkpt>
      <trkpt lat="44.24471" lon="5.65766">
        <ele>703</ele>
        <time>2019-06-04T07:54:53Z</time>
      </trkpt>
      <trkpt lat="44.24475" lon="5.6576">
        <ele>703</ele>
        <time>2019-06-04T07:54:54Z</time>
      </trkpt>
      <trkpt lat="44.24479" lon="5.65754">
        <ele>703</ele>
        <time>2019-06-04T07:54:55Z</time>
      </trkpt>
      <trkpt lat="44.24482" lon="5.65748">
        <ele>703</ele>
        <time>2019-06-04T07:54:56Z</time>
      </trkpt>
      <trkpt lat="44.24485" lon="5.65741">
        <ele>703</ele>
        <time>2019-06-04T07:54:57Z</time>
      </trkpt>
      <trkpt lat="44.24486" lon="5.65734">
        <ele>703</ele>
        <time>2019-06-04T07:54:58Z</time>
      </trkpt>
      <trkpt lat="44.24487" lon="5.65726">
        <ele>703</ele>
        <time>2019-06-04T07:54:59Z</time>
      </trkpt>
      <trkpt lat="44.24487" lon="5.65718">
        <ele>703</ele>
        <time>2019-06-04T07:55:00Z</time>
      </trkpt>
      <trkpt lat="44.24487" lon="5.6571">
        <ele>703</ele>
        <time>2019-06-04T07:55:01Z</time>
      </trkpt>
      <trkpt lat="44.24485" lon="5.65702">
        <ele>703</ele>
        <time>2019-06-04T07:55:02Z</time>
      </trkpt>
      <trkpt lat="44.24484" lon="5.65695">
        <ele>703</ele>
        <time>2019-06-04T07:55:03Z</time>
      </trkpt>
      <trkpt lat="44.24483" lon="5.65689">
        <ele>703</ele>
        <time>2019-06-04T07:55:04Z</time>
      </trkpt>
      <trkpt lat="44.24482" lon="5.65682">
        <ele>703</ele>
        <time>2019-06-04T07:55:05Z</time>
      </trkpt>
      <trkpt lat="44.24481" lon="5.65675">
        <ele>703</ele>
        <time>2019-06-04T07:55:06Z</time>
      </trkpt>
      <trkpt lat="44.2448" lon="5.65668">
        <ele>703</ele>
        <time>2019-06-04T07:55:07Z</time>
      </trkpt>
      <trkpt lat="44.24479" lon="5.65661">
        <ele>703</ele>
        <time>2019-06-04T07:55:08Z</time>
      </trkpt>
      <trkpt lat="44.24477" lon="5.65654">
        <ele>702</ele>
        <time>2019-06-04T07:55:09Z</time>
      </trkpt>
      <trkpt lat="44.24475" lon="5.65647">
        <ele>702</ele>
        <time>2019-06-04T07:55:10Z</time>
      </trkpt>
      <trkpt lat="44.24473" lon="5.65639">
        <ele>701</ele>
        <time>2019-06-04T07:55:11Z</time>
      </trkpt>
      <trkpt lat="44.24471" lon="5.65632">
        <ele>701</ele>
        <time>2019-06-04T07:55:12Z</time>
      </trkpt>
      <trkpt lat="44.24468" lon="5.65625">
        <ele>701</ele>
        <time>2019-06-04T07:55:13Z</time>
      </trkpt>
      <trkpt lat="44.24465" lon="5.65618">
        <ele>701</ele>
        <time>2019-06-04T07:55:14Z</time>
      </trkpt>
      <trkpt lat="44.24463" lon="5.65611">
        <ele>701</ele>
        <time>2019-06-04T07:55:15Z</time>
      </trkpt>
      <trkpt lat="44.2446" lon="5.65603">
        <ele>701</ele>
        <time>2019-06-04T07:55:16Z</time>
      </trkpt>
      <trkpt lat="44.24457" lon="5.65596">
        <ele>701</ele>
        <time>2019-06-04T07:55:17Z</time>
      </trkpt>
      <trkpt lat="44.24453" lon="5.6559">
        <ele>701</ele>
        <time>2019-06-04T07:55:18Z</time>
      </trkpt>
      <trkpt lat="44.2445" lon="5.65583">
        <ele>701</ele>
        <time>2019-06-04T07:55:19Z</time>
      </trkpt>
      <trkpt lat="44.24447" lon="5.65577">
        <ele>701</ele>
        <time>2019-06-04T07:55:20Z</time>
      </trkpt>
      <trkpt lat="44.24443" lon="5.6557">
        <ele>701</ele>
        <time>2019-06-04T07:55:21Z</time>
      </trkpt>
      <trkpt lat="44.24439" lon="5.65563">
        <ele>701</ele>
        <time>2019-06-04T07:55:22Z</time>
      </trkpt>
      <trkpt lat="44.24435" lon="5.65557">
        <ele>701</ele>
        <time>2019-06-04T07:55:23Z</time>
      </trkpt>
      <trkpt lat="44.24431" lon="5.6555">
        <ele>701</ele>
        <time>2019-06-04T07:55:24Z</time>
      </trkpt>
      <trkpt lat="44.24427" lon="5.65544">
        <ele>701</ele>
        <time>2019-06-04T07:55:25Z</time>
      </trkpt>
      <trkpt lat="44.24424" lon="5.65537">
        <ele>701</ele>
        <time>2019-06-04T07:55:26Z</time>
      </trkpt>
      <trkpt lat="44.24421" lon="5.6553">
        <ele>701</ele>
        <time>2019-06-04T07:55:27Z</time>
      </trkpt>
      <trkpt lat="44.24419" lon="5.65523">
        <ele>701</ele>
        <time>2019-06-04T07:55:28Z</time>
      </trkpt>
      <trkpt lat="44.24416" lon="5.65517">
        <ele>701</ele>
        <time>2019-06-04T07:55:29Z</time>
      </trkpt>
      <trkpt lat="44.24412" lon="5.6551">
        <ele>701</ele>
        <time>2019-06-04T07:55:30Z</time>
      </trkpt>
      <trkpt lat="44.24409" lon="5.65503">
        <ele>701</ele>
        <time>2019-06-04T07:55:31Z</time>
      </trkpt>
      <trkpt lat="44.24406" lon="5.65497">
        <ele>701</ele>
        <time>2019-06-04T07:55:32Z</time>
      </trkpt>
      <trkpt lat="44.24403" lon="5.6549">
        <ele>701</ele>
        <time>2019-06-04T07:55:33Z</time>
      </trkpt>
      <trkpt lat="44.24399" lon="5.65483">
        <ele>701</ele>
        <time>2019-06-04T07:55:34Z</time>
      </trkpt>
      <trkpt lat="44.24396" lon="5.65476">
        <ele>701</ele>
        <time>2019-06-04T07:55:35Z</time>
      </trkpt>
      <trkpt lat="44.24393" lon="5.6547">
        <ele>701</ele>
        <time>2019-06-04T07:55:36Z</time>
      </trkpt>
      <trkpt lat="44.24389" lon="5.65463">
        <ele>701</ele>
        <time>2019-06-04T07:55:37Z</time>
      </trkpt>
      <trkpt lat="44.24386" lon="5.65456">
        <ele>701</ele>
        <time>2019-06-04T07:55:38Z</time>
      </trkpt>
      <trkpt lat="44.24382" lon="5.6545">
        <ele>701</ele>
        <time>2019-06-04T07:55:39Z</time>
      </trkpt>
      <trkpt lat="44.24378" lon="5.65444">
        <ele>701</ele>
        <time>2019-06-04T07:55:40Z</time>
      </trkpt>
      <trkpt lat="44.24375" lon="5.65437">
        <ele>701</ele>
        <time>2019-06-04T07:55:41Z</time>
      </trkpt>
      <trkpt lat="44.24371" lon="5.6543">
        <ele>701</ele>
        <time>2019-06-04T07:55:42Z</time>
      </trkpt>
      <trkpt lat="44.24367" lon="5.65423">
        <ele>701</ele>
        <time>2019-06-04T07:55:43Z</time>
      </trkpt>
      <trkpt lat="44.24364" lon="5.65416">
        <ele>701</ele>
        <time>2019-06-04T07:55:44Z</time>
      </trkpt>
      <trkpt lat="44.24361" lon="5.65409">
        <ele>701</ele>
        <time>2019-06-04T07:55:45Z</time>
      </trkpt>
      <trkpt lat="44.24357" lon="5.65402">
        <ele>701</ele>
        <time>2019-06-04T07:55:46Z</time>
      </trkpt>
      <trkpt lat="44.24354" lon="5.65395">
        <ele>701</ele>
        <time>2019-06-04T07:55:47Z</time>
      </trkpt>
      <trkpt lat="44.2435" lon="5.65388">
        <ele>701</ele>
        <time>2019-06-04T07:55:48Z</time>
      </trkpt>
      <trkpt lat="44.24347" lon="5.65382">
        <ele>701</ele>
        <time>2019-06-04T07:55:49Z</time>
      </trkpt>
      <trkpt lat="44.24343" lon="5.65375">
        <ele>701</ele>
        <time>2019-06-04T07:55:50Z</time>
      </trkpt>
      <trkpt lat="44.2434" lon="5.65368">
        <ele>701</ele>
        <time>2019-06-04T07:55:51Z</time>
      </trkpt>
      <trkpt lat="44.24337" lon="5.6536">
        <ele>701</ele>
        <time>2019-06-04T07:55:52Z</time>
      </trkpt>
      <trkpt lat="44.24334" lon="5.65353">
        <ele>701</ele>
        <time>2019-06-04T07:55:53Z</time>
      </trkpt>
      <trkpt lat="44.24332" lon="5.65345">
        <ele>701</ele>
        <time>2019-06-04T07:55:54Z</time>
      </trkpt>
      <trkpt lat="44.2433" lon="5.65337">
        <ele>701</ele>
        <time>2019-06-04T07:55:55Z</time>
      </trkpt>
      <trkpt lat="44.24328" lon="5.65328">
        <ele>701</ele>
        <time>2019-06-04T07:55:56Z</time>
      </trkpt>
      <trkpt lat="44.24327" lon="5.65319">
        <ele>701</ele>
        <time>2019-06-04T07:55:57Z</time>
      </trkpt>
      <trkpt lat="44.24327" lon="5.65311">
        <ele>701</ele>
        <time>2019-06-04T07:55:58Z</time>
      </trkpt>
      <trkpt lat="44.24327" lon="5.65303">
        <ele>701</ele>
        <time>2019-06-04T07:55:59Z</time>
      </trkpt>
      <trkpt lat="44.24328" lon="5.65294">
        <ele>701</ele>
        <time>2019-06-04T07:56:00Z</time>
      </trkpt>
      <trkpt lat="44.24329" lon="5.65286">
        <ele>701</ele>
        <time>2019-06-04T07:56:01Z</time>
      </trkpt>
      <trkpt lat="44.24329" lon="5.65278">
        <ele>701</ele>
        <time>2019-06-04T07:56:02Z</time>
      </trkpt>
      <trkpt lat="44.24329" lon="5.6527">
        <ele>701</ele>
        <time>2019-06-04T07:56:03Z</time>
      </trkpt>
      <trkpt lat="44.2433" lon="5.65262">
        <ele>701</ele>
        <time>2019-06-04T07:56:04Z</time>
      </trkpt>
      <trkpt lat="44.24331" lon="5.65253">
        <ele>701</ele>
        <time>2019-06-04T07:56:05Z</time>
      </trkpt>
      <trkpt lat="44.24333" lon="5.65245">
        <ele>701</ele>
        <time>2019-06-04T07:56:06Z</time>
      </trkpt>
      <trkpt lat="44.24335" lon="5.65237">
        <ele>701</ele>
        <time>2019-06-04T07:56:07Z</time>
      </trkpt>
      <trkpt lat="44.24337" lon="5.65229">
        <ele>701</ele>
        <time>2019-06-04T07:56:08Z</time>
      </trkpt>
      <trkpt lat="44.24339" lon="5.65221">
        <ele>701</ele>
        <time>2019-06-04T07:56:09Z</time>
      </trkpt>
      <trkpt lat="44.24342" lon="5.65213">
        <ele>701</ele>
        <time>2019-06-04T07:56:10Z</time>
      </trkpt>
      <trkpt lat="44.24343" lon="5.65204">
        <ele>701</ele>
        <time>2019-06-04T07:56:11Z</time>
      </trkpt>
      <trkpt lat="44.24344" lon="5.65196">
        <ele>701</ele>
        <time>2019-06-04T07:56:12Z</time>
      </trkpt>
      <trkpt lat="44.24345" lon="5.65187">
        <ele>701</ele>
        <time>2019-06-04T07:56:13Z</time>
      </trkpt>
      <trkpt lat="44.24346" lon="5.65178">
        <ele>701</ele>
        <time>2019-06-04T07:56:14Z</time>
      </trkpt>
      <trkpt lat="44.24347" lon="5.65169">
        <ele>701</ele>
        <time>2019-06-04T07:56:15Z</time>
      </trkpt>
      <trkpt lat="44.24348" lon="5.6516">
        <ele>702</ele>
        <time>2019-06-04T07:56:16Z</time>
      </trkpt>
      <trkpt lat="44.24348" lon="5.6515">
        <ele>703</ele>
        <time>2019-06-04T07:56:17Z</time>
      </trkpt>
      <trkpt lat="44.24348" lon="5.65141">
        <ele>704</ele>
        <time>2019-06-04T07:56:18Z</time>
      </trkpt>
      <trkpt lat="44.24348" lon="5.65132">
        <ele>705</ele>
        <time>2019-06-04T07:56:19Z</time>
      </trkpt>
      <trkpt lat="44.24348" lon="5.65122">
        <ele>705</ele>
        <time>2019-06-04T07:56:20Z</time>
      </trkpt>
      <trkpt lat="44.24349" lon="5.65113">
        <ele>706</ele>
        <time>2019-06-04T07:56:21Z</time>
      </trkpt>
      <trkpt lat="44.2435" lon="5.65105">
        <ele>706</ele>
        <time>2019-06-04T07:56:22Z</time>
      </trkpt>
      <trkpt lat="44.24351" lon="5.65097">
        <ele>706</ele>
        <time>2019-06-04T07:56:23Z</time>
      </trkpt>
      <trkpt lat="44.24353" lon="5.65089">
        <ele>706</ele>
        <time>2019-06-04T07:56:24Z</time>
      </trkpt>
      <trkpt lat="44.24353" lon="5.6508">
        <ele>706</ele>
        <time>2019-06-04T07:56:25Z</time>
      </trkpt>
      <trkpt lat="44.24353" lon="5.65071">
        <ele>706</ele>
        <time>2019-06-04T07:56:26Z</time>
      </trkpt>
      <trkpt lat="44.24354" lon="5.65063">
        <ele>706</ele>
        <time>2019-06-04T07:56:27Z</time>
      </trkpt>
      <trkpt lat="44.24353" lon="5.65054">
        <ele>705</ele>
        <time>2019-06-04T07:56:28Z</time>
      </trkpt>
      <trkpt lat="44.24353" lon="5.65045">
        <ele>704</ele>
        <time>2019-06-04T07:56:29Z</time>
      </trkpt>
      <trkpt lat="44.24351" lon="5.65036">
        <ele>703</ele>
        <time>2019-06-04T07:56:30Z</time>
      </trkpt>
      <trkpt lat="44.24349" lon="5.65027">
        <ele>702</ele>
        <time>2019-06-04T07:56:31Z</time>
      </trkpt>
      <trkpt lat="44.24347" lon="5.65017">
        <ele>702</ele>
        <time>2019-06-04T07:56:32Z</time>
      </trkpt>
      <trkpt lat="44.24345" lon="5.65008">
        <ele>702</ele>
        <time>2019-06-04T07:56:33Z</time>
      </trkpt>
      <trkpt lat="44.24342" lon="5.64999">
        <ele>702</ele>
        <time>2019-06-04T07:56:34Z</time>
      </trkpt>
      <trkpt lat="44.24339" lon="5.6499">
        <ele>702</ele>
        <time>2019-06-04T07:56:35Z</time>
      </trkpt>
      <trkpt lat="44.24337" lon="5.64981">
        <ele>702</ele>
        <time>2019-06-04T07:56:36Z</time>
      </trkpt>
      <trkpt lat="44.24334" lon="5.64973">
        <ele>702</ele>
        <time>2019-06-04T07:56:37Z</time>
      </trkpt>
      <trkpt lat="44.24331" lon="5.64964">
        <ele>702</ele>
        <time>2019-06-04T07:56:38Z</time>
      </trkpt>
      <trkpt lat="44.24327" lon="5.64956">
        <ele>702</ele>
        <time>2019-06-04T07:56:39Z</time>
      </trkpt>
      <trkpt lat="44.24325" lon="5.64948">
        <ele>702</ele>
        <time>2019-06-04T07:56:40Z</time>
      </trkpt>
      <trkpt lat="44.24324" lon="5.64941">
        <ele>702</ele>
        <time>2019-06-04T07:56:41Z</time>
      </trkpt>
      <trkpt lat="44.24321" lon="5.64932">
        <ele>702</ele>
        <time>2019-06-04T07:56:42Z</time>
      </trkpt>
      <trkpt lat="44.24317" lon="5.64924">
        <ele>702</ele>
        <time>2019-06-04T07:56:43Z</time>
      </trkpt>
      <trkpt lat="44.24314" lon="5.64916">
        <ele>702</ele>
        <time>2019-06-04T07:56:44Z</time>
      </trkpt>
      <trkpt lat="44.24311" lon="5.64907">
        <ele>702</ele>
        <time>2019-06-04T07:56:45Z</time>
      </trkpt>
      <trkpt lat="44.24307" lon="5.64898">
        <ele>702</ele>
        <time>2019-06-04T07:56:46Z</time>
      </trkpt>
      <trkpt lat="44.24304" lon="5.64889">
        <ele>702</ele>
        <time>2019-06-04T07:56:47Z</time>
      </trkpt>
      <trkpt lat="44.243" lon="5.6488">
        <ele>702</ele>
        <time>2019-06-04T07:56:48Z</time>
      </trkpt>
      <trkpt lat="44.24297" lon="5.64871">
        <ele>702</ele>
        <time>2019-06-04T07:56:49Z</time>
      </trkpt>
      <trkpt lat="44.24293" lon="5.64862">
        <ele>702</ele>
        <time>2019-06-04T07:56:50Z</time>
      </trkpt>
      <trkpt lat="44.24289" lon="5.64854">
        <ele>702</ele>
        <time>2019-06-04T07:56:51Z</time>
      </trkpt>
      <trkpt lat="44.24284" lon="5.64847">
        <ele>702</ele>
        <time>2019-06-04T07:56:52Z</time>
      </trkpt>
      <trkpt lat="44.24279" lon="5.6484">
        <ele>702</ele>
        <time>2019-06-04T07:56:53Z</time>
      </trkpt>
      <trkpt lat="44.24274" lon="5.64833">
        <ele>702</ele>
        <time>2019-06-04T07:56:54Z</time>
      </trkpt>
      <trkpt lat="44.24269" lon="5.64826">
        <ele>702</ele>
        <time>2019-06-04T07:56:55Z</time>
      </trkpt>
      <trkpt lat="44.24265" lon="5.64818">
        <ele>702</ele>
        <time>2019-06-04T07:56:56Z</time>
      </trkpt>
      <trkpt lat="44.24262" lon="5.6481">
        <ele>702</ele>
        <time>2019-06-04T07:56:57Z</time>
      </trkpt>
      <trkpt lat="44.24259" lon="5.64802">
        <ele>702</ele>
        <time>2019-06-04T07:56:58Z</time>
      </trkpt>
      <trkpt lat="44.24256" lon="5.64792">
        <ele>702</ele>
        <time>2019-06-04T07:56:59Z</time>
      </trkpt>
      <trkpt lat="44.24254" lon="5.64784">
        <ele>702</ele>
        <time>2019-06-04T07:57:00Z</time>
      </trkpt>
      <trkpt lat="44.24252" lon="5.64774">
        <ele>702</ele>
        <time>2019-06-04T07:57:01Z</time>
      </trkpt>
      <trkpt lat="44.24251" lon="5.64765">
        <ele>702</ele>
        <time>2019-06-04T07:57:02Z</time>
      </trkpt>
      <trkpt lat="44.2425" lon="5.64756">
        <ele>702</ele>
        <time>2019-06-04T07:57:03Z</time>
      </trkpt>
      <trkpt lat="44.24251" lon="5.64746">
        <ele>702</ele>
        <time>2019-06-04T07:57:04Z</time>
      </trkpt>
      <trkpt lat="44.2425" lon="5.64737">
        <ele>702</ele>
        <time>2019-06-04T07:57:05Z</time>
      </trkpt>
      <trkpt lat="44.24249" lon="5.64727">
        <ele>702</ele>
        <time>2019-06-04T07:57:06Z</time>
      </trkpt>
      <trkpt lat="44.24248" lon="5.64718">
        <ele>702</ele>
        <time>2019-06-04T07:57:07Z</time>
      </trkpt>
      <trkpt lat="44.24246" lon="5.6471">
        <ele>702</ele>
        <time>2019-06-04T07:57:08Z</time>
      </trkpt>
      <trkpt lat="44.24245" lon="5.64701">
        <ele>702</ele>
        <time>2019-06-04T07:57:09Z</time>
      </trkpt>
      <trkpt lat="44.24243" lon="5.64692">
        <ele>702</ele>
        <time>2019-06-04T07:57:10Z</time>
      </trkpt>
      <trkpt lat="44.2424" lon="5.64683">
        <ele>702</ele>
        <time>2019-06-04T07:57:11Z</time>
      </trkpt>
      <trkpt lat="44.24237" lon="5.64674">
        <ele>702</ele>
        <time>2019-06-04T07:57:12Z</time>
      </trkpt>
      <trkpt lat="44.24234" lon="5.64665">
        <ele>702</ele>
        <time>2019-06-04T07:57:13Z</time>
      </trkpt>
      <trkpt lat="44.24231" lon="5.64656">
        <ele>702</ele>
        <time>2019-06-04T07:57:14Z</time>
      </trkpt>
      <trkpt lat="44.24228" lon="5.64647">
        <ele>702</ele>
        <time>2019-06-04T07:57:15Z</time>
      </trkpt>
      <trkpt lat="44.24224" lon="5.64639">
        <ele>702</ele>
        <time>2019-06-04T07:57:16Z</time>
      </trkpt>
      <trkpt lat="44.2422" lon="5.6463">
        <ele>702</ele>
        <time>2019-06-04T07:57:17Z</time>
      </trkpt>
      <trkpt lat="44.24216" lon="5.64621">
        <ele>702</ele>
        <time>2019-06-04T07:57:18Z</time>
      </trkpt>
      <trkpt lat="44.24213" lon="5.64613">
        <ele>702</ele>
        <time>2019-06-04T07:57:19Z</time>
      </trkpt>
      <trkpt lat="44.2421" lon="5.64604">
        <ele>702</ele>
        <time>2019-06-04T07:57:20Z</time>
      </trkpt>
      <trkpt lat="44.24207" lon="5.64596">
        <ele>702</ele>
        <time>2019-06-04T07:57:21Z</time>
      </trkpt>
      <trkpt lat="44.24203" lon="5.64587">
        <ele>702</ele>
        <time>2019-06-04T07:57:22Z</time>
      </trkpt>
      <trkpt lat="44.24199" lon="5.64579">
        <ele>702</ele>
        <time>2019-06-04T07:57:23Z</time>
      </trkpt>
      <trkpt lat="44.24195" lon="5.64572">
        <ele>702</ele>
        <time>2019-06-04T07:57:24Z</time>
      </trkpt>
      <trkpt lat="44.2419" lon="5.64565">
        <ele>702</ele>
        <time>2019-06-04T07:57:25Z</time>
      </trkpt>
      <trkpt lat="44.24186" lon="5.64558">
        <ele>702</ele>
        <time>2019-06-04T07:57:26Z</time>
      </trkpt>
      <trkpt lat="44.2418" lon="5.64551">
        <ele>702</ele>
        <time>2019-06-04T07:57:27Z</time>
      </trkpt>
      <trkpt lat="44.24176" lon="5.64544">
        <ele>702</ele>
        <time>2019-06-04T07:57:28Z</time>
      </trkpt>
      <trkpt lat="44.24171" lon="5.64537">
        <ele>702</ele>
        <time>2019-06-04T07:57:29Z</time>
      </trkpt>
      <trkpt lat="44.24165" lon="5.64531">
        <ele>702</ele>
        <time>2019-06-04T07:57:30Z</time>
      </trkpt>
      <trkpt lat="44.2416" lon="5.64524">
        <ele>702</ele>
        <time>2019-06-04T07:57:31Z</time>
      </trkpt>
      <trkpt lat="44.24155" lon="5.64517">
        <ele>702</ele>
        <time>2019-06-04T07:57:32Z</time>
      </trkpt>
      <trkpt lat="44.2415" lon="5.6451">
        <ele>702</ele>
        <time>2019-06-04T07:57:33Z</time>
      </trkpt>
      <trkpt lat="44.24145" lon="5.64503">
        <ele>702</ele>
        <time>2019-06-04T07:57:34Z</time>
      </trkpt>
      <trkpt lat="44.24139" lon="5.64496">
        <ele>702</ele>
        <time>2019-06-04T07:57:35Z</time>
      </trkpt>
      <trkpt lat="44.24134" lon="5.64489">
        <ele>702</ele>
        <time>2019-06-04T07:57:36Z</time>
      </trkpt>
      <trkpt lat="44.24129" lon="5.64482">
        <ele>702</ele>
        <time>2019-06-04T07:57:37Z</time>
      </trkpt>
      <trkpt lat="44.24123" lon="5.64476">
        <ele>702</ele>
        <time>2019-06-04T07:57:38Z</time>
      </trkpt>
      <trkpt lat="44.24118" lon="5.6447">
        <ele>702</ele>
        <time>2019-06-04T07:57:39Z</time>
      </trkpt>
      <trkpt lat="44.24112" lon="5.64465">
        <ele>702</ele>
        <time>2019-06-04T07:57:40Z</time>
      </trkpt>
      <trkpt lat="44.24107" lon="5.64459">
        <ele>702</ele>
        <time>2019-06-04T07:57:41Z</time>
      </trkpt>
      <trkpt lat="44.24102" lon="5.64454">
        <ele>702</ele>
        <time>2019-06-04T07:57:42Z</time>
      </trkpt>
      <trkpt lat="44.24096" lon="5.64448">
        <ele>702</ele>
        <time>2019-06-04T07:57:43Z</time>
      </trkpt>
      <trkpt lat="44.2409" lon="5.64441">
        <ele>702</ele>
        <time>2019-06-04T07:57:44Z</time>
      </trkpt>
      <trkpt lat="44.24085" lon="5.64434">
        <ele>702</ele>
        <time>2019-06-04T07:57:45Z</time>
      </trkpt>
      <trkpt lat="44.2408" lon="5.64427">
        <ele>702</ele>
        <time>2019-06-04T07:57:46Z</time>
      </trkpt>
      <trkpt lat="44.24075" lon="5.6442">
        <ele>702</ele>
        <time>2019-06-04T07:57:47Z</time>
      </trkpt>
      <trkpt lat="44.2407" lon="5.64413">
        <ele>702</ele>
        <time>2019-06-04T07:57:48Z</time>
      </trkpt>
      <trkpt lat="44.24066" lon="5.64406">
        <ele>702</ele>
        <time>2019-06-04T07:57:49Z</time>
      </trkpt>
      <trkpt lat="44.24061" lon="5.64398">
        <ele>702</ele>
        <time>2019-06-04T07:57:50Z</time>
      </trkpt>
      <trkpt lat="44.24057" lon="5.64391">
        <ele>702</ele>
        <time>2019-06-04T07:57:51Z</time>
      </trkpt>
      <trkpt lat="44.24053" lon="5.64382">
        <ele>702</ele>
        <time>2019-06-04T07:57:52Z</time>
      </trkpt>
      <trkpt lat="44.24049" lon="5.64374">
        <ele>702</ele>
        <time>2019-06-04T07:57:53Z</time>
      </trkpt>
      <trkpt lat="44.24046" lon="5.64365">
        <ele>702</ele>
        <time>2019-06-04T07:57:54Z</time>
      </trkpt>
      <trkpt lat="44.24044" lon="5.64356">
        <ele>702</ele>
        <time>2019-06-04T07:57:55Z</time>
      </trkpt>
      <trkpt lat="44.24042" lon="5.64347">
        <ele>702</ele>
        <time>2019-06-04T07:57:56Z</time>
      </trkpt>
      <trkpt lat="44.2404" lon="5.64338">
        <ele>702</ele>
        <time>2019-06-04T07:57:57Z</time>
      </trkpt>
      <trkpt lat="44.24038" lon="5.6433">
        <ele>702</ele>
        <time>2019-06-04T07:57:58Z</time>
      </trkpt>
      <trkpt lat="44.24036" lon="5.64321">
        <ele>702</ele>
        <time>2019-06-04T07:57:59Z</time>
      </trkpt>
      <trkpt lat="44.24033" lon="5.64312">
        <ele>702</ele>
        <time>2019-06-04T07:58:00Z</time>
      </trkpt>
      <trkpt lat="44.24031" lon="5.64303">
        <ele>702</ele>
        <time>2019-06-04T07:58:01Z</time>
      </trkpt>
      <trkpt lat="44.24028" lon="5.64294">
        <ele>702</ele>
        <time>2019-06-04T07:58:02Z</time>
      </trkpt>
      <trkpt lat="44.24026" lon="5.64285">
        <ele>702</ele>
        <time>2019-06-04T07:58:03Z</time>
      </trkpt>
      <trkpt lat="44.24024" lon="5.64275">
        <ele>702</ele>
        <time>2019-06-04T07:58:04Z</time>
      </trkpt>
      <trkpt lat="44.24023" lon="5.64266">
        <ele>702</ele>
        <time>2019-06-04T07:58:05Z</time>
      </trkpt>
      <trkpt lat="44.24023" lon="5.64256">
        <ele>702</ele>
        <time>2019-06-04T07:58:06Z</time>
      </trkpt>
      <trkpt lat="44.24023" lon="5.64246">
        <ele>702</ele>
        <time>2019-06-04T07:58:07Z</time>
      </trkpt>
      <trkpt lat="44.24024" lon="5.64236">
        <ele>702</ele>
        <time>2019-06-04T07:58:08Z</time>
      </trkpt>
      <trkpt lat="44.24026" lon="5.64227">
        <ele>702</ele>
        <time>2019-06-04T07:58:09Z</time>
      </trkpt>
      <trkpt lat="44.24029" lon="5.64218">
        <ele>702</ele>
        <time>2019-06-04T07:58:10Z</time>
      </trkpt>
      <trkpt lat="44.24033" lon="5.64209">
        <ele>702</ele>
        <time>2019-06-04T07:58:11Z</time>
      </trkpt>
      <trkpt lat="44.24037" lon="5.642">
        <ele>702</ele>
        <time>2019-06-04T07:58:12Z</time>
      </trkpt>
      <trkpt lat="44.24041" lon="5.64192">
        <ele>702</ele>
        <time>2019-06-04T07:58:13Z</time>
      </trkpt>
      <trkpt lat="44.24045" lon="5.64184">
        <ele>702</ele>
        <time>2019-06-04T07:58:14Z</time>
      </trkpt>
      <trkpt lat="44.24049" lon="5.64176">
        <ele>702</ele>
        <time>2019-06-04T07:58:15Z</time>
      </trkpt>
      <trkpt lat="44.24053" lon="5.64168">
        <ele>702</ele>
        <time>2019-06-04T07:58:16Z</time>
      </trkpt>
      <trkpt lat="44.24057" lon="5.6416">
        <ele>702</ele>
        <time>2019-06-04T07:58:17Z</time>
      </trkpt>
      <trkpt lat="44.24062" lon="5.64152">
        <ele>702</ele>
        <time>2019-06-04T07:58:18Z</time>
      </trkpt>
      <trkpt lat="44.24065" lon="5.64143">
        <ele>702</ele>
        <time>2019-06-04T07:58:19Z</time>
      </trkpt>
      <trkpt lat="44.24069" lon="5.64134">
        <ele>702</ele>
        <time>2019-06-04T07:58:20Z</time>
      </trkpt>
      <trkpt lat="44.24073" lon="5.64126">
        <ele>702</ele>
        <time>2019-06-04T07:58:21Z</time>
      </trkpt>
      <trkpt lat="44.24075" lon="5.64117">
        <ele>702</ele>
        <time>2019-06-04T07:58:22Z</time>
      </trkpt>
      <trkpt lat="44.24079" lon="5.64108">
        <ele>702</ele>
        <time>2019-06-04T07:58:23Z</time>
      </trkpt>
      <trkpt lat="44.24083" lon="5.64099">
        <ele>702</ele>
        <time>2019-06-04T07:58:24Z</time>
      </trkpt>
      <trkpt lat="44.24087" lon="5.64089">
        <ele>702</ele>
        <time>2019-06-04T07:58:25Z</time>
      </trkpt>
      <trkpt lat="44.24091" lon="5.6408">
        <ele>702</ele>
        <time>2019-06-04T07:58:26Z</time>
      </trkpt>
      <trkpt lat="44.24094" lon="5.64071">
        <ele>702</ele>
        <time>2019-06-04T07:58:27Z</time>
      </trkpt>
      <trkpt lat="44.24098" lon="5.64062">
        <ele>702</ele>
        <time>2019-06-04T07:58:28Z</time>
      </trkpt>
      <trkpt lat="44.24101" lon="5.64053">
        <ele>702</ele>
        <time>2019-06-04T07:58:29Z</time>
      </trkpt>
      <trkpt lat="44.24105" lon="5.64044">
        <ele>702</ele>
        <time>2019-06-04T07:58:30Z</time>
      </trkpt>
      <trkpt lat="44.24108" lon="5.64035">
        <ele>702</ele>
        <time>2019-06-04T07:58:31Z</time>
      </trkpt>
      <trkpt lat="44.24111" lon="5.64026">
        <ele>702</ele>
        <time>2019-06-04T07:58:32Z</time>
      </trkpt>
      <trkpt lat="44.24114" lon="5.64017">
        <ele>702</ele>
        <time>2019-06-04T07:58:33Z</time>
      </trkpt>
      <trkpt lat="44.24118" lon="5.64008">
        <ele>702</ele>
        <time>2019-06-04T07:58:34Z</time>
      </trkpt>
      <trkpt lat="44.24121" lon="5.64">
        <ele>702</ele>
        <time>2019-06-04T07:58:35Z</time>
      </trkpt>
      <trkpt lat="44.24125" lon="5.63992">
        <ele>702</ele>
        <time>2019-06-04T07:58:36Z</time>
      </trkpt>
      <trkpt lat="44.24129" lon="5.63984">
        <ele>702</ele>
        <time>2019-06-04T07:58:37Z</time>
      </trkpt>
      <trkpt lat="44.24134" lon="5.63977">
        <ele>702</ele>
        <time>2019-06-04T07:58:38Z</time>
      </trkpt>
      <trkpt lat="44.24138" lon="5.6397">
        <ele>702</ele>
        <time>2019-06-04T07:58:39Z</time>
      </trkpt>
      <trkpt lat="44.24142" lon="5.63963">
        <ele>702</ele>
        <time>2019-06-04T07:58:40Z</time>
      </trkpt>
      <trkpt lat="44.24147" lon="5.63956">
        <ele>702</ele>
        <time>2019-06-04T07:58:41Z</time>
      </trkpt>
      <trkpt lat="44.2415" lon="5.6395">
        <ele>702</ele>
        <time>2019-06-04T07:58:42Z</time>
      </trkpt>
      <trkpt lat="44.24155" lon="5.63944">
        <ele>702</ele>
        <time>2019-06-04T07:58:43Z</time>
      </trkpt>
      <trkpt lat="44.24159" lon="5.63938">
        <ele>702</ele>
        <time>2019-06-04T07:58:44Z</time>
      </trkpt>
      <trkpt lat="44.24163" lon="5.63932">
        <ele>702</ele>
        <time>2019-06-04T07:58:45Z</time>
      </trkpt>
      <trkpt lat="44.24168" lon="5.63926">
        <ele>702</ele>
        <time>2019-06-04T07:58:46Z</time>
      </trkpt>
      <trkpt lat="44.24172" lon="5.6392">
        <ele>702</ele>
        <time>2019-06-04T07:58:47Z</time>
      </trkpt>
      <trkpt lat="44.24176" lon="5.63914">
        <ele>702</ele>
        <time>2019-06-04T07:58:48Z</time>
      </trkpt>
      <trkpt lat="44.2418" lon="5.63907">
        <ele>702</ele>
        <time>2019-06-04T07:58:49Z</time>
      </trkpt>
      <trkpt lat="44.24184" lon="5.63901">
        <ele>702</ele>
        <time>2019-06-04T07:58:50Z</time>
      </trkpt>
      <trkpt lat="44.24188" lon="5.63895">
        <ele>702</ele>
        <time>2019-06-04T07:58:51Z</time>
      </trkpt>
      <trkpt lat="44.24192" lon="5.63887">
        <ele>702</ele>
        <time>2019-06-04T07:58:52Z</time>
      </trkpt>
      <trkpt lat="44.24195" lon="5.63879">
        <ele>702</ele>
        <time>2019-06-04T07:58:53Z</time>
      </trkpt>
      <trkpt lat="44.24198" lon="5.6387">
        <ele>702</ele>
        <time>2019-06-04T07:58:54Z</time>
      </trkpt>
      <trkpt lat="44.242" lon="5.63862">
        <ele>702</ele>
        <time>2019-06-04T07:58:55Z</time>
      </trkpt>
      <trkpt lat="44.24202" lon="5.63854">
        <ele>702</ele>
        <time>2019-06-04T07:58:56Z</time>
      </trkpt>
      <trkpt lat="44.24202" lon="5.63845">
        <ele>702</ele>
        <time>2019-06-04T07:58:57Z</time>
      </trkpt>
      <trkpt lat="44.24202" lon="5.63836">
        <ele>702</ele>
        <time>2019-06-04T07:58:58Z</time>
      </trkpt>
      <trkpt lat="44.24202" lon="5.63827">
        <ele>702</ele>
        <time>2019-06-04T07:58:59Z</time>
      </trkpt>
      <trkpt lat="44.242" lon="5.63819">
        <ele>702</ele>
        <time>2019-06-04T07:59:00Z</time>
      </trkpt>
      <trkpt lat="44.24198" lon="5.6381">
        <ele>702</ele>
        <time>2019-06-04T07:59:01Z</time>
      </trkpt>
      <trkpt lat="44.24195" lon="5.63801">
        <ele>702</ele>
        <time>2019-06-04T07:59:02Z</time>
      </trkpt>
      <trkpt lat="44.24193" lon="5.63793">
        <ele>702</ele>
        <time>2019-06-04T07:59:03Z</time>
      </trkpt>
      <trkpt lat="44.24191" lon="5.63785">
        <ele>703</ele>
        <time>2019-06-04T07:59:04Z</time>
      </trkpt>
      <trkpt lat="44.24188" lon="5.63776">
        <ele>703</ele>
        <time>2019-06-04T07:59:05Z</time>
      </trkpt>
      <trkpt lat="44.24185" lon="5.63768">
        <ele>704</ele>
        <time>2019-06-04T07:59:06Z</time>
      </trkpt>
      <trkpt lat="44.24182" lon="5.6376">
        <ele>704</ele>
        <time>2019-06-04T07:59:07Z</time>
      </trkpt>
      <trkpt lat="44.24179" lon="5.63751">
        <ele>705</ele>
        <time>2019-06-04T07:59:08Z</time>
      </trkpt>
      <trkpt lat="44.24176" lon="5.63743">
        <ele>705</ele>
        <time>2019-06-04T07:59:09Z</time>
      </trkpt>
      <trkpt lat="44.24173" lon="5.63735">
        <ele>705</ele>
        <time>2019-06-04T07:59:10Z</time>
      </trkpt>
      <trkpt lat="44.2417" lon="5.63727">
        <ele>706</ele>
        <time>2019-06-04T07:59:11Z</time>
      </trkpt>
      <trkpt lat="44.24166" lon="5.63719">
        <ele>706</ele>
        <time>2019-06-04T07:59:12Z</time>
      </trkpt>
      <trkpt lat="44.24164" lon="5.63711">
        <ele>706</ele>
        <time>2019-06-04T07:59:13Z</time>
      </trkpt>
      <trkpt lat="44.24161" lon="5.63703">
        <ele>706</ele>
        <time>2019-06-04T07:59:14Z</time>
      </trkpt>
      <trkpt lat="44.24158" lon="5.63695">
        <ele>706</ele>
        <time>2019-06-04T07:59:15Z</time>
      </trkpt>
      <trkpt lat="44.24156" lon="5.63687">
        <ele>706</ele>
        <time>2019-06-04T07:59:16Z</time>
      </trkpt>
      <trkpt lat="44.24153" lon="5.63679">
        <ele>706</ele>
        <time>2019-06-04T07:59:17Z</time>
      </trkpt>
      <trkpt lat="44.24149" lon="5.63671">
        <ele>707</ele>
        <time>2019-06-04T07:59:18Z</time>
      </trkpt>
      <trkpt lat="44.24146" lon="5.63662">
        <ele>707</ele>
        <time>2019-06-04T07:59:19Z</time>
      </trkpt>
      <trkpt lat="44.24142" lon="5.63654">
        <ele>707</ele>
        <time>2019-06-04T07:59:20Z</time>
      </trkpt>
      <trkpt lat="44.24139" lon="5.63646">
        <ele>707</ele>
        <time>2019-06-04T07:59:21Z</time>
      </trkpt>
      <trkpt lat="44.24135" lon="5.63638">
        <ele>707</ele>
        <time>2019-06-04T07:59:22Z</time>
      </trkpt>
      <trkpt lat="44.24131" lon="5.6363">
        <ele>707</ele>
        <time>2019-06-04T07:59:23Z</time>
      </trkpt>
      <trkpt lat="44.24127" lon="5.63622">
        <ele>707</ele>
        <time>2019-06-04T07:59:24Z</time>
      </trkpt>
      <trkpt lat="44.24122" lon="5.63615">
        <ele>707</ele>
        <time>2019-06-04T07:59:25Z</time>
      </trkpt>
      <trkpt lat="44.24117" lon="5.63608">
        <ele>707</ele>
        <time>2019-06-04T07:59:26Z</time>
      </trkpt>
      <trkpt lat="44.24112" lon="5.63601">
        <ele>707</ele>
        <time>2019-06-04T07:59:27Z</time>
      </trkpt>
      <trkpt lat="44.24107" lon="5.63594">
        <ele>707</ele>
        <time>2019-06-04T07:59:28Z</time>
      </trkpt>
      <trkpt lat="44.24102" lon="5.63587">
        <ele>707</ele>
        <time>2019-06-04T07:59:29Z</time>
      </trkpt>
      <trkpt lat="44.24097" lon="5.63581">
        <ele>707</ele>
        <time>2019-06-04T07:59:30Z</time>
      </trkpt>
      <trkpt lat="44.24091" lon="5.63574">
        <ele>707</ele>
        <time>2019-06-04T07:59:31Z</time>
      </trkpt>
      <trkpt lat="44.24085" lon="5.63568">
        <ele>707</ele>
        <time>2019-06-04T07:59:32Z</time>
      </trkpt>
      <trkpt lat="44.24078" lon="5.63561">
        <ele>707</ele>
        <time>2019-06-04T07:59:33Z</time>
      </trkpt>
      <trkpt lat="44.24073" lon="5.63555">
        <ele>707</ele>
        <time>2019-06-04T07:59:34Z</time>
      </trkpt>
      <trkpt lat="44.24066" lon="5.63548">
        <ele>707</ele>
        <time>2019-06-04T07:59:35Z</time>
      </trkpt>
      <trkpt lat="44.2406" lon="5.63542">
        <ele>707</ele>
        <time>2019-06-04T07:59:36Z</time>
      </trkpt>
      <trkpt lat="44.24054" lon="5.63535">
        <ele>707</ele>
        <time>2019-06-04T07:59:37Z</time>
      </trkpt>
      <trkpt lat="44.24047" lon="5.63529">
        <ele>707</ele>
        <time>2019-06-04T07:59:38Z</time>
      </trkpt>
      <trkpt lat="44.24041" lon="5.63523">
        <ele>707</ele>
        <time>2019-06-04T07:59:39Z</time>
      </trkpt>
      <trkpt lat="44.24035" lon="5.63516">
        <ele>707</ele>
        <time>2019-06-04T07:59:40Z</time>
      </trkpt>
      <trkpt lat="44.24028" lon="5.6351">
        <ele>707</ele>
        <time>2019-06-04T07:59:41Z</time>
      </trkpt>
      <trkpt lat="44.24022" lon="5.63504">
        <ele>707</ele>
        <time>2019-06-04T07:59:42Z</time>
      </trkpt>
      <trkpt lat="44.24017" lon="5.63497">
        <ele>707</ele>
        <time>2019-06-04T07:59:43Z</time>
      </trkpt>
      <trkpt lat="44.24011" lon="5.63491">
        <ele>707</ele>
        <time>2019-06-04T07:59:44Z</time>
      </trkpt>
      <trkpt lat="44.24005" lon="5.63485">
        <ele>707</ele>
        <time>2019-06-04T07:59:45Z</time>
      </trkpt>
      <trkpt lat="44.23999" lon="5.63479">
        <ele>707</ele>
        <time>2019-06-04T07:59:46Z</time>
      </trkpt>
      <trkpt lat="44.23994" lon="5.63474">
        <ele>707</ele>
        <time>2019-06-04T07:59:47Z</time>
      </trkpt>
      <trkpt lat="44.23988" lon="5.63468">
        <ele>707</ele>
        <time>2019-06-04T07:59:48Z</time>
      </trkpt>
      <trkpt lat="44.23982" lon="5.63462">
        <ele>707</ele>
        <time>2019-06-04T07:59:49Z</time>
      </trkpt>
      <trkpt lat="44.23976" lon="5.63456">
        <ele>707</ele>
        <time>2019-06-04T07:59:50Z</time>
      </trkpt>
      <trkpt lat="44.2397" lon="5.6345">
        <ele>707</ele>
        <time>2019-06-04T07:59:51Z</time>
      </trkpt>
      <trkpt lat="44.23965" lon="5.63444">
        <ele>707</ele>
        <time>2019-06-04T07:59:52Z</time>
      </trkpt>
      <trkpt lat="44.23959" lon="5.63438">
        <ele>707</ele>
        <time>2019-06-04T07:59:53Z</time>
      </trkpt>
      <trkpt lat="44.23954" lon="5.63432">
        <ele>707</ele>
        <time>2019-06-04T07:59:54Z</time>
      </trkpt>
      <trkpt lat="44.23948" lon="5.63426">
        <ele>707</ele>
        <time>2019-06-04T07:59:55Z</time>
      </trkpt>
      <trkpt lat="44.23942" lon="5.63421">
        <ele>707</ele>
        <time>2019-06-04T07:59:56Z</time>
      </trkpt>
      <trkpt lat="44.23936" lon="5.63415">
        <ele>707</ele>
        <time>2019-06-04T07:59:57Z</time>
      </trkpt>
      <trkpt lat="44.23931" lon="5.63409">
        <ele>707</ele>
        <time>2019-06-04T07:59:58Z</time>
      </trkpt>
      <trkpt lat="44.23925" lon="5.63403">
        <ele>707</ele>
        <time>2019-06-04T07:59:59Z</time>
      </trkpt>
      <trkpt lat="44.23919" lon="5.63398">
        <ele>707</ele>
        <time>2019-06-04T08:00:00Z</time>
      </trkpt>
      <trkpt lat="44.23914" lon="5.63392">
        <ele>707</ele>
        <time>2019-06-04T08:00:01Z</time>
      </trkpt>
      <trkpt lat="44.23908" lon="5.63386">
        <ele>707</ele>
        <time>2019-06-04T08:00:02Z</time>
      </trkpt>
      <trkpt lat="44.23902" lon="5.63381">
        <ele>707</ele>
        <time>2019-06-04T08:00:03Z</time>
      </trkpt>
      <trkpt lat="44.23896" lon="5.63375">
        <ele>707</ele>
        <time>2019-06-04T08:00:04Z</time>
      </trkpt>
      <trkpt lat="44.2389" lon="5.63369">
        <ele>707</ele>
        <time>2019-06-04T08:00:05Z</time>
      </trkpt>
      <trkpt lat="44.23885" lon="5.63363">
        <ele>707</ele>
        <time>2019-06-04T08:00:06Z</time>
      </trkpt>
      <trkpt lat="44.23879" lon="5.63358">
        <ele>707</ele>
        <time>2019-06-04T08:00:07Z</time>
      </trkpt>
      <trkpt lat="44.23874" lon="5.63352">
        <ele>707</ele>
        <time>2019-06-04T08:00:08Z</time>
      </trkpt>
      <trkpt lat="44.23868" lon="5.63346">
        <ele>707</ele>
        <time>2019-06-04T08:00:09Z</time>
      </trkpt>
      <trkpt lat="44.23862" lon="5.63341">
        <ele>707</ele>
        <time>2019-06-04T08:00:10Z</time>
      </trkpt>
      <trkpt lat="44.23857" lon="5.63335">
        <ele>707</ele>
        <time>2019-06-04T08:00:11Z</time>
      </trkpt>
      <trkpt lat="44.23852" lon="5.63329">
        <ele>707</ele>
        <time>2019-06-04T08:00:12Z</time>
      </trkpt>
      <trkpt lat="44.23846" lon="5.63323">
        <ele>707</ele>
        <time>2019-06-04T08:00:13Z</time>
      </trkpt>
      <trkpt lat="44.2384" lon="5.63318">
        <ele>707</ele>
        <time>2019-06-04T08:00:14Z</time>
      </trkpt>
      <trkpt lat="44.23835" lon="5.63312">
        <ele>707</ele>
        <time>2019-06-04T08:00:15Z</time>
      </trkpt>
      <trkpt lat="44.23829" lon="5.63307">
        <ele>707</ele>
        <time>2019-06-04T08:00:16Z</time>
      </trkpt>
      <trkpt lat="44.23824" lon="5.63301">
        <ele>707</ele>
        <time>2019-06-04T08:00:17Z</time>
      </trkpt>
      <trkpt lat="44.23818" lon="5.63295">
        <ele>707</ele>
        <time>2019-06-04T08:00:18Z</time>
      </trkpt>
      <trkpt lat="44.23812" lon="5.63289">
        <ele>707</ele>
        <time>2019-06-04T08:00:19Z</time>
      </trkpt>
      <trkpt lat="44.23807" lon="5.63283">
        <ele>707</ele>
        <time>2019-06-04T08:00:20Z</time>
      </trkpt>
      <trkpt lat="44.23801" lon="5.63278">
        <ele>707</ele>
        <time>2019-06-04T08:00:21Z</time>
      </trkpt>
      <trkpt lat="44.23795" lon="5.63272">
        <ele>707</ele>
        <time>2019-06-04T08:00:22Z</time>
      </trkpt>
      <trkpt lat="44.23789" lon="5.63267">
        <ele>707</ele>
        <time>2019-06-04T08:00:23Z</time>
      </trkpt>
      <trkpt lat="44.23783" lon="5.63262">
        <ele>707</ele>
        <time>2019-06-04T08:00:24Z</time>
      </trkpt>
      <trkpt lat="44.23777" lon="5.63257">
        <ele>707</ele>
        <time>2019-06-04T08:00:25Z</time>
      </trkpt>
      <trkpt lat="44.23771" lon="5.63252">
        <ele>707</ele>
        <time>2019-06-04T08:00:26Z</time>
      </trkpt>
      <trkpt lat="44.23766" lon="5.63247">
        <ele>707</ele>
        <time>2019-06-04T08:00:27Z</time>
      </trkpt>
      <trkpt lat="44.2376" lon="5.63243">
        <ele>707</ele>
        <time>2019-06-04T08:00:28Z</time>
      </trkpt>
      <trkpt lat="44.23754" lon="5.6324">
        <ele>707</ele>
        <time>2019-06-04T08:00:29Z</time>
      </trkpt>
      <trkpt lat="44.23748" lon="5.63236">
        <ele>707</ele>
        <time>2019-06-04T08:00:30Z</time>
      </trkpt>
      <trkpt lat="44.23742" lon="5.63233">
        <ele>707</ele>
        <time>2019-06-04T08:00:31Z</time>
      </trkpt>
      <trkpt lat="44.23736" lon="5.6323">
        <ele>708</ele>
        <time>2019-06-04T08:00:32Z</time>
      </trkpt>
      <trkpt lat="44.2373" lon="5.63227">
        <ele>708</ele>
        <time>2019-06-04T08:00:33Z</time>
      </trkpt>
      <trkpt lat="44.23724" lon="5.63224">
        <ele>709</ele>
        <time>2019-06-04T08:00:34Z</time>
      </trkpt>
      <trkpt lat="44.23718" lon="5.63221">
        <ele>709</ele>
        <time>2019-06-04T08:00:35Z</time>
      </trkpt>
      <trkpt lat="44.23712" lon="5.63218">
        <ele>709</ele>
        <time>2019-06-04T08:00:36Z</time>
      </trkpt>
      <trkpt lat="44.23706" lon="5.63216">
        <ele>709</ele>
        <time>2019-06-04T08:00:37Z</time>
      </trkpt>
      <trkpt lat="44.237" lon="5.63214">
        <ele>710</ele>
        <time>2019-06-04T08:00:38Z</time>
      </trkpt>
      <trkpt lat="44.23693" lon="5.63211">
        <ele>710</ele>
        <time>2019-06-04T08:00:39Z</time>
      </trkpt>
      <trkpt lat="44.23687" lon="5.6321">
        <ele>710</ele>
        <time>2019-06-04T08:00:40Z</time>
      </trkpt>
      <trkpt lat="44.2368" lon="5.63208">
        <ele>710</ele>
        <time>2019-06-04T08:00:41Z</time>
      </trkpt>
      <trkpt lat="44.23674" lon="5.63206">
        <ele>710</ele>
        <time>2019-06-04T08:00:42Z</time>
      </trkpt>
      <trkpt lat="44.23667" lon="5.63204">
        <ele>710</ele>
        <time>2019-06-04T08:00:43Z</time>
      </trkpt>
      <trkpt lat="44.2366" lon="5.63202">
        <ele>710</ele>
        <time>2019-06-04T08:00:44Z</time>
      </trkpt>
      <trkpt lat="44.23653" lon="5.63201">
        <ele>710</ele>
        <time>2019-06-04T08:00:45Z</time>
      </trkpt>
      <trkpt lat="44.23645" lon="5.632">
        <ele>710</ele>
        <time>2019-06-04T08:00:46Z</time>
      </trkpt>
      <trkpt lat="44.23638" lon="5.63198">
        <ele>710</ele>
        <time>2019-06-04T08:00:47Z</time>
      </trkpt>
      <trkpt lat="44.23631" lon="5.63197">
        <ele>710</ele>
        <time>2019-06-04T08:00:48Z</time>
      </trkpt>
      <trkpt lat="44.23623" lon="5.63195">
        <ele>710</ele>
        <time>2019-06-04T08:00:49Z</time>
      </trkpt>
      <trkpt lat="44.23616" lon="5.63194">
        <ele>710</ele>
        <time>2019-06-04T08:00:50Z</time>
      </trkpt>
      <trkpt lat="44.23608" lon="5.63192">
        <ele>710</ele>
        <time>2019-06-04T08:00:51Z</time>
      </trkpt>
      <trkpt lat="44.23602" lon="5.6319">
        <ele>710</ele>
        <time>2019-06-04T08:00:52Z</time>
      </trkpt>
      <trkpt lat="44.23595" lon="5.63189">
        <ele>710</ele>
        <time>2019-06-04T08:00:53Z</time>
      </trkpt>
      <trkpt lat="44.23588" lon="5.63187">
        <ele>710</ele>
        <time>2019-06-04T08:00:54Z</time>
      </trkpt>
      <trkpt lat="44.23581" lon="5.63185">
        <ele>710</ele>
        <time>2019-06-04T08:00:55Z</time>
      </trkpt>
      <trkpt lat="44.23574" lon="5.63184">
        <ele>710</ele>
        <time>2019-06-04T08:00:56Z</time>
      </trkpt>
      <trkpt lat="44.23568" lon="5.63182">
        <ele>710</ele>
        <time>2019-06-04T08:00:57Z</time>
      </trkpt>
      <trkpt lat="44.23561" lon="5.6318">
        <ele>710</ele>
        <time>2019-06-04T08:00:58Z</time>
      </trkpt>
      <trkpt lat="44.23555" lon="5.63179">
        <ele>710</ele>
        <time>2019-06-04T08:00:59Z</time>
      </trkpt>
      <trkpt lat="44.23548" lon="5.63178">
        <ele>710</ele>
        <time>2019-06-04T08:01:00Z</time>
      </trkpt>
      <trkpt lat="44.23542" lon="5.63177">
        <ele>710</ele>
        <time>2019-06-04T08:01:01Z</time>
      </trkpt>
      <trkpt lat="44.23535" lon="5.63175">
        <ele>710</ele>
        <time>2019-06-04T08:01:02Z</time>
      </trkpt>
      <trkpt lat="44.23529" lon="5.63174">
        <ele>710</ele>
        <time>2019-06-04T08:01:03Z</time>
      </trkpt>
      <trkpt lat="44.23523" lon="5.63173">
        <ele>710</ele>
        <time>2019-06-04T08:01:04Z</time>
      </trkpt>
      <trkpt lat="44.23517" lon="5.63171">
        <ele>710</ele>
        <time>2019-06-04T08:01:05Z</time>
      </trkpt>
      <trkpt lat="44.2351" lon="5.6317">
        <ele>710</ele>
        <time>2019-06-04T08:01:06Z</time>
      </trkpt>
      <trkpt lat="44.23504" lon="5.63168">
        <ele>710</ele>
        <time>2019-06-04T08:01:07Z</time>
      </trkpt>
      <trkpt lat="44.23497" lon="5.63167">
        <ele>710</ele>
        <time>2019-06-04T08:01:08Z</time>
      </trkpt>
      <trkpt lat="44.2349" lon="5.63165">
        <ele>710</ele>
        <time>2019-06-04T08:01:09Z</time>
      </trkpt>
      <trkpt lat="44.23483" lon="5.63164">
        <ele>710</ele>
        <time>2019-06-04T08:01:10Z</time>
      </trkpt>
      <trkpt lat="44.23475" lon="5.63162">
        <ele>710</ele>
        <time>2019-06-04T08:01:11Z</time>
      </trkpt>
      <trkpt lat="44.23468" lon="5.6316">
        <ele>710</ele>
        <time>2019-06-04T08:01:12Z</time>
      </trkpt>
      <trkpt lat="44.2346" lon="5.63158">
        <ele>710</ele>
        <time>2019-06-04T08:01:13Z</time>
      </trkpt>
      <trkpt lat="44.23453" lon="5.63156">
        <ele>710</ele>
        <time>2019-06-04T08:01:14Z</time>
      </trkpt>
      <trkpt lat="44.23446" lon="5.63154">
        <ele>710</ele>
        <time>2019-06-04T08:01:15Z</time>
      </trkpt>
      <trkpt lat="44.23438" lon="5.63152">
        <ele>710</ele>
        <time>2019-06-04T08:01:16Z</time>
      </trkpt>
      <trkpt lat="44.2343" lon="5.6315">
        <ele>710</ele>
        <time>2019-06-04T08:01:17Z</time>
      </trkpt>
      <trkpt lat="44.23422" lon="5.63148">
        <ele>710</ele>
        <time>2019-06-04T08:01:18Z</time>
      </trkpt>
      <trkpt lat="44.23415" lon="5.63146">
        <ele>710</ele>
        <time>2019-06-04T08:01:19Z</time>
      </trkpt>
      <trkpt lat="44.23407" lon="5.63144">
        <ele>710</ele>
        <time>2019-06-04T08:01:20Z</time>
      </trkpt>
      <trkpt lat="44.23399" lon="5.63142">
        <ele>710</ele>
        <time>2019-06-04T08:01:21Z</time>
      </trkpt>
      <trkpt lat="44.23391" lon="5.63141">
        <ele>710</ele>
        <time>2019-06-04T08:01:22Z</time>
      </trkpt>
      <trkpt lat="44.23384" lon="5.63139">
        <ele>710</ele>
        <time>2019-06-04T08:01:23Z</time>
      </trkpt>
      <trkpt lat="44.23376" lon="5.63138">
        <ele>710</ele>
        <time>2019-06-04T08:01:24Z</time>
      </trkpt>
      <trkpt lat="44.23369" lon="5.63137">
        <ele>710</ele>
        <time>2019-06-04T08:01:25Z</time>
      </trkpt>
      <trkpt lat="44.23362" lon="5.63135">
        <ele>710</ele>
        <time>2019-06-04T08:01:26Z</time>
      </trkpt>
      <trkpt lat="44.23355" lon="5.63132">
        <ele>710</ele>
        <time>2019-06-04T08:01:27Z</time>
      </trkpt>
      <trkpt lat="44.23347" lon="5.63131">
        <ele>710</ele>
        <time>2019-06-04T08:01:28Z</time>
      </trkpt>
      <trkpt lat="44.23341" lon="5.63129">
        <ele>710</ele>
        <time>2019-06-04T08:01:29Z</time>
      </trkpt>
      <trkpt lat="44.23333" lon="5.63128">
        <ele>710</ele>
        <time>2019-06-04T08:01:30Z</time>
      </trkpt>
      <trkpt lat="44.23326" lon="5.63126">
        <ele>710</ele>
        <time>2019-06-04T08:01:31Z</time>
      </trkpt>
      <trkpt lat="44.23319" lon="5.63124">
        <ele>710</ele>
        <time>2019-06-04T08:01:32Z</time>
      </trkpt>
      <trkpt lat="44.23312" lon="5.63123">
        <ele>710</ele>
        <time>2019-06-04T08:01:33Z</time>
      </trkpt>
      <trkpt lat="44.23306" lon="5.63121">
        <ele>711</ele>
        <time>2019-06-04T08:01:34Z</time>
      </trkpt>
      <trkpt lat="44.23299" lon="5.63119">
        <ele>711</ele>
        <time>2019-06-04T08:01:35Z</time>
      </trkpt>
      <trkpt lat="44.23292" lon="5.63117">
        <ele>711</ele>
        <time>2019-06-04T08:01:36Z</time>
      </trkpt>
      <trkpt lat="44.23285" lon="5.63115">
        <ele>711</ele>
        <time>2019-06-04T08:01:37Z</time>
      </trkpt>
      <trkpt lat="44.23278" lon="5.63113">
        <ele>712</ele>
        <time>2019-06-04T08:01:38Z</time>
      </trkpt>
      <trkpt lat="44.23271" lon="5.63112">
        <ele>712</ele>
        <time>2019-06-04T08:01:39Z</time>
      </trkpt>
      <trkpt lat="44.23264" lon="5.6311">
        <ele>712</ele>
        <time>2019-06-04T08:01:40Z</time>
      </trkpt>
      <trkpt lat="44.23257" lon="5.63108">
        <ele>712</ele>
        <time>2019-06-04T08:01:41Z</time>
      </trkpt>
      <trkpt lat="44.2325" lon="5.63106">
        <ele>712</ele>
        <time>2019-06-04T08:01:42Z</time>
      </trkpt>
      <trkpt lat="44.23243" lon="5.63104">
        <ele>713</ele>
        <time>2019-06-04T08:01:43Z</time>
      </trkpt>
      <trkpt lat="44.23236" lon="5.63102">
        <ele>713</ele>
        <time>2019-06-04T08:01:44Z</time>
      </trkpt>
      <trkpt lat="44.2323" lon="5.631">
        <ele>713</ele>
        <time>2019-06-04T08:01:45Z</time>
      </trkpt>
      <trkpt lat="44.23223" lon="5.63098">
        <ele>713</ele>
        <time>2019-06-04T08:01:46Z</time>
      </trkpt>
      <trkpt lat="44.23216" lon="5.63097">
        <ele>713</ele>
        <time>2019-06-04T08:01:47Z</time>
      </trkpt>
      <trkpt lat="44.23209" lon="5.63094">
        <ele>713</ele>
        <time>2019-06-04T08:01:48Z</time>
      </trkpt>
      <trkpt lat="44.23203" lon="5.63091">
        <ele>713</ele>
        <time>2019-06-04T08:01:49Z</time>
      </trkpt>
      <trkpt lat="44.23196" lon="5.6309">
        <ele>714</ele>
        <time>2019-06-04T08:01:50Z</time>
      </trkpt>
      <trkpt lat="44.23189" lon="5.63088">
        <ele>714</ele>
        <time>2019-06-04T08:01:51Z</time>
      </trkpt>
      <trkpt lat="44.23182" lon="5.63087">
        <ele>714</ele>
        <time>2019-06-04T08:01:52Z</time>
      </trkpt>
      <trkpt lat="44.23175" lon="5.63085">
        <ele>714</ele>
        <time>2019-06-04T08:01:53Z</time>
      </trkpt>
      <trkpt lat="44.23168" lon="5.63084">
        <ele>714</ele>
        <time>2019-06-04T08:01:54Z</time>
      </trkpt>
      <trkpt lat="44.23161" lon="5.63082">
        <ele>714</ele>
        <time>2019-06-04T08:01:55Z</time>
      </trkpt>
      <trkpt lat="44.23154" lon="5.6308">
        <ele>714</ele>
        <time>2019-06-04T08:01:56Z</time>
      </trkpt>
      <trkpt lat="44.23147" lon="5.63078">
        <ele>714</ele>
        <time>2019-06-04T08:01:57Z</time>
      </trkpt>
      <trkpt lat="44.2314" lon="5.63076">
        <ele>714</ele>
        <time>2019-06-04T08:01:58Z</time>
      </trkpt>
      <trkpt lat="44.23133" lon="5.63075">
        <ele>715</ele>
        <time>2019-06-04T08:01:59Z</time>
      </trkpt>
      <trkpt lat="44.23127" lon="5.63073">
        <ele>715</ele>
        <time>2019-06-04T08:02:00Z</time>
      </trkpt>
      <trkpt lat="44.2312" lon="5.63072">
        <ele>715</ele>
        <time>2019-06-04T08:02:01Z</time>
      </trkpt>
      <trkpt lat="44.23114" lon="5.6307">
        <ele>715</ele>
        <time>2019-06-04T08:02:02Z</time>
      </trkpt>
      <trkpt lat="44.23108" lon="5.63068">
        <ele>716</ele>
        <time>2019-06-04T08:02:03Z</time>
      </trkpt>
      <trkpt lat="44.23101" lon="5.63067">
        <ele>716</ele>
        <time>2019-06-04T08:02:04Z</time>
      </trkpt>
      <trkpt lat="44.23095" lon="5.63065">
        <ele>716</ele>
        <time>2019-06-04T08:02:05Z</time>
      </trkpt>
      <trkpt lat="44.23088" lon="5.63063">
        <ele>716</ele>
        <time>2019-06-04T08:02:06Z</time>
      </trkpt>
      <trkpt lat="44.23082" lon="5.63061">
        <ele>716</ele>
        <time>2019-06-04T08:02:07Z</time>
      </trkpt>
      <trkpt lat="44.23076" lon="5.63057">
        <ele>717</ele>
        <time>2019-06-04T08:02:08Z</time>
      </trkpt>
      <trkpt lat="44.23071" lon="5.63054">
        <ele>717</ele>
        <time>2019-06-04T08:02:09Z</time>
      </trkpt>
      <trkpt lat="44.23065" lon="5.6305">
        <ele>717</ele>
        <time>2019-06-04T08:02:10Z</time>
      </trkpt>
      <trkpt lat="44.23059" lon="5.63045">
        <ele>718</ele>
        <time>2019-06-04T08:02:11Z</time>
      </trkpt>
      <trkpt lat="44.23054" lon="5.63041">
        <ele>718</ele>
        <time>2019-06-04T08:02:12Z</time>
      </trkpt>
      <trkpt lat="44.23048" lon="5.63036">
        <ele>718</ele>
        <time>2019-06-04T08:02:13Z</time>
      </trkpt>
      <trkpt lat="44.23043" lon="5.6303">
        <ele>719</ele>
        <time>2019-06-04T08:02:14Z</time>
      </trkpt>
      <trkpt lat="44.23038" lon="5.63024">
        <ele>719</ele>
        <time>2019-06-04T08:02:15Z</time>
      </trkpt>
      <trkpt lat="44.23034" lon="5.63019">
        <ele>719</ele>
        <time>2019-06-04T08:02:16Z</time>
      </trkpt>
      <trkpt lat="44.23029" lon="5.63013">
        <ele>719</ele>
        <time>2019-06-04T08:02:17Z</time>
      </trkpt>
      <trkpt lat="44.23024" lon="5.63007">
        <ele>720</ele>
        <time>2019-06-04T08:02:18Z</time>
      </trkpt>
      <trkpt lat="44.23019" lon="5.63001">
        <ele>720</ele>
        <time>2019-06-04T08:02:19Z</time>
      </trkpt>
      <trkpt lat="44.23015" lon="5.62995">
        <ele>720</ele>
        <time>2019-06-04T08:02:20Z</time>
      </trkpt>
      <trkpt lat="44.2301" lon="5.6299">
        <ele>720</ele>
        <time>2019-06-04T08:02:21Z</time>
      </trkpt>
      <trkpt lat="44.23005" lon="5.62985">
        <ele>720</ele>
        <time>2019-06-04T08:02:22Z</time>
      </trkpt>
      <trkpt lat="44.23" lon="5.6298">
        <ele>721</ele>
        <time>2019-06-04T08:02:23Z</time>
      </trkpt>
      <trkpt lat="44.22995" lon="5.62976">
        <ele>721</ele>
        <time>2019-06-04T08:02:24Z</time>
      </trkpt>
      <trkpt lat="44.2299" lon="5.62971">
        <ele>721</ele>
        <time>2019-06-04T08:02:25Z</time>
      </trkpt>
      <trkpt lat="44.22984" lon="5.62967">
        <ele>721</ele>
        <time>2019-06-04T08:02:26Z</time>
      </trkpt>
      <trkpt lat="44.22979" lon="5.62963">
        <ele>722</ele>
        <time>2019-06-04T08:02:27Z</time>
      </trkpt>
      <trkpt lat="44.22974" lon="5.6296">
        <ele>722</ele>
        <time>2019-06-04T08:02:28Z</time>
      </trkpt>
      <trkpt lat="44.22968" lon="5.62957">
        <ele>722</ele>
        <time>2019-06-04T08:02:29Z</time>
      </trkpt>
      <trkpt lat="44.22963" lon="5.62954">
        <ele>722</ele>
        <time>2019-06-04T08:02:30Z</time>
      </trkpt>
      <trkpt lat="44.22957" lon="5.62951">
        <ele>723</ele>
        <time>2019-06-04T08:02:31Z</time>
      </trkpt>
      <trkpt lat="44.22952" lon="5.62948">
        <ele>723</ele>
        <time>2019-06-04T08:02:32Z</time>
      </trkpt>
      <trkpt lat="44.22947" lon="5.62944">
        <ele>723</ele>
        <time>2019-06-04T08:02:33Z</time>
      </trkpt>
      <trkpt lat="44.22942" lon="5.62941">
        <ele>723</ele>
        <time>2019-06-04T08:02:34Z</time>
      </trkpt>
      <trkpt lat="44.22937" lon="5.62936">
        <ele>723</ele>
        <time>2019-06-04T08:02:35Z</time>
      </trkpt>
      <trkpt lat="44.22932" lon="5.62931">
        <ele>724</ele>
        <time>2019-06-04T08:02:36Z</time>
      </trkpt>
      <trkpt lat="44.22928" lon="5.62927">
        <ele>724</ele>
        <time>2019-06-04T08:02:37Z</time>
      </trkpt>
      <trkpt lat="44.22924" lon="5.62922">
        <ele>724</ele>
        <time>2019-06-04T08:02:38Z</time>
      </trkpt>
      <trkpt lat="44.22919" lon="5.62918">
        <ele>724</ele>
        <time>2019-06-04T08:02:39Z</time>
      </trkpt>
      <trkpt lat="44.22915" lon="5.62913">
        <ele>725</ele>
        <time>2019-06-04T08:02:40Z</time>
      </trkpt>
      <trkpt lat="44.22911" lon="5.62908">
        <ele>725</ele>
        <time>2019-06-04T08:02:41Z</time>
      </trkpt>
      <trkpt lat="44.22907" lon="5.62903">
        <ele>725</ele>
        <time>2019-06-04T08:02:42Z</time>
      </trkpt>
      <trkpt lat="44.22903" lon="5.62898">
        <ele>725</ele>
        <time>2019-06-04T08:02:43Z</time>
      </trkpt>
      <trkpt lat="44.22899" lon="5.62894">
        <ele>725</ele>
        <time>2019-06-04T08:02:44Z</time>
      </trkpt>
      <trkpt lat="44.22895" lon="5.62889">
        <ele>725</ele>
        <time>2019-06-04T08:02:45Z</time>
      </trkpt>
      <trkpt lat="44.22891" lon="5.62884">
        <ele>725</ele>
        <time>2019-06-04T08:02:46Z</time>
      </trkpt>
      <trkpt lat="44.22887" lon="5.62879">
        <ele>726</ele>
        <time>2019-06-04T08:02:47Z</time>
      </trkpt>
      <trkpt lat="44.22883" lon="5.62874">
        <ele>726</ele>
        <time>2019-06-04T08:02:48Z</time>
      </trkpt>
      <trkpt lat="44.22879" lon="5.62868">
        <ele>726</ele>
        <time>2019-06-04T08:02:49Z</time>
      </trkpt>
      <trkpt lat="44.22875" lon="5.62863">
        <ele>726</ele>
        <time>2019-06-04T08:02:50Z</time>
      </trkpt>
      <trkpt lat="44.22871" lon="5.62858">
        <ele>726</ele>
        <time>2019-06-04T08:02:51Z</time>
      </trkpt>
      <trkpt lat="44.22867" lon="5.62853">
        <ele>726</ele>
        <time>2019-06-04T08:02:52Z</time>
      </trkpt>
      <trkpt lat="44.22863" lon="5.62848">
        <ele>726</ele>
        <time>2019-06-04T08:02:53Z</time>
      </trkpt>
      <trkpt lat="44.22859" lon="5.62843">
        <ele>726</ele>
        <time>2019-06-04T08:02:54Z</time>
      </trkpt>
      <trkpt lat="44.22855" lon="5.62838">
        <ele>726</ele>
        <time>2019-06-04T08:02:55Z</time>
      </trkpt>
      <trkpt lat="44.22851" lon="5.62832">
        <ele>726</ele>
        <time>2019-06-04T08:02:56Z</time>
      </trkpt>
      <trkpt lat="44.22847" lon="5.62827">
        <ele>726</ele>
        <time>2019-06-04T08:02:57Z</time>
      </trkpt>
      <trkpt lat="44.22843" lon="5.62822">
        <ele>726</ele>
        <time>2019-06-04T08:02:58Z</time>
      </trkpt>
      <trkpt lat="44.22839" lon="5.62817">
        <ele>726</ele>
        <time>2019-06-04T08:02:59Z</time>
      </trkpt>
      <trkpt lat="44.22834" lon="5.62812">
        <ele>726</ele>
        <time>2019-06-04T08:03:00Z</time>
      </trkpt>
      <trkpt lat="44.2283" lon="5.62807">
        <ele>726</ele>
        <time>2019-06-04T08:03:01Z</time>
      </trkpt>
      <trkpt lat="44.22826" lon="5.62802">
        <ele>726</ele>
        <time>2019-06-04T08:03:02Z</time>
      </trkpt>
      <trkpt lat="44.22822" lon="5.62797">
        <ele>726</ele>
        <time>2019-06-04T08:03:03Z</time>
      </trkpt>
      <trkpt lat="44.22818" lon="5.62792">
        <ele>726</ele>
        <time>2019-06-04T08:03:04Z</time>
      </trkpt>
      <trkpt lat="44.22813" lon="5.62787">
        <ele>726</ele>
        <time>2019-06-04T08:03:05Z</time>
      </trkpt>
      <trkpt lat="44.22808" lon="5.62782">
        <ele>726</ele>
        <time>2019-06-04T08:03:06Z</time>
      </trkpt>
      <trkpt lat="44.22804" lon="5.62778">
        <ele>726</ele>
        <time>2019-06-04T08:03:07Z</time>
      </trkpt>
      <trkpt lat="44.22799" lon="5.62772">
        <ele>726</ele>
        <time>2019-06-04T08:03:08Z</time>
      </trkpt>
      <trkpt lat="44.22794" lon="5.62767">
        <ele>726</ele>
        <time>2019-06-04T08:03:09Z</time>
      </trkpt>
      <trkpt lat="44.22789" lon="5.62762">
        <ele>726</ele>
        <time>2019-06-04T08:03:10Z</time>
      </trkpt>
      <trkpt lat="44.22784" lon="5.62757">
        <ele>726</ele>
        <time>2019-06-04T08:03:11Z</time>
      </trkpt>
      <trkpt lat="44.22779" lon="5.62752">
        <ele>726</ele>
        <time>2019-06-04T08:03:12Z</time>
      </trkpt>
      <trkpt lat="44.22773" lon="5.62747">
        <ele>726</ele>
        <time>2019-06-04T08:03:13Z</time>
      </trkpt>
      <trkpt lat="44.22769" lon="5.62742">
        <ele>726</ele>
        <time>2019-06-04T08:03:14Z</time>
      </trkpt>
      <trkpt lat="44.22764" lon="5.62736">
        <ele>726</ele>
        <time>2019-06-04T08:03:15Z</time>
      </trkpt>
      <trkpt lat="44.22759" lon="5.6273">
        <ele>726</ele>
        <time>2019-06-04T08:03:16Z</time>
      </trkpt>
      <trkpt lat="44.22754" lon="5.62724">
        <ele>726</ele>
        <time>2019-06-04T08:03:17Z</time>
      </trkpt>
      <trkpt lat="44.2275" lon="5.62718">
        <ele>726</ele>
        <time>2019-06-04T08:03:18Z</time>
      </trkpt>
      <trkpt lat="44.22745" lon="5.62711">
        <ele>726</ele>
        <time>2019-06-04T08:03:19Z</time>
      </trkpt>
      <trkpt lat="44.22741" lon="5.62705">
        <ele>726</ele>
        <time>2019-06-04T08:03:20Z</time>
      </trkpt>
      <trkpt lat="44.22737" lon="5.62698">
        <ele>726</ele>
        <time>2019-06-04T08:03:21Z</time>
      </trkpt>
      <trkpt lat="44.22733" lon="5.62691">
        <ele>726</ele>
        <time>2019-06-04T08:03:22Z</time>
      </trkpt>
      <trkpt lat="44.22728" lon="5.62683">
        <ele>726</ele>
        <time>2019-06-04T08:03:23Z</time>
      </trkpt>
      <trkpt lat="44.22725" lon="5.62676">
        <ele>726</ele>
        <time>2019-06-04T08:03:24Z</time>
      </trkpt>
      <trkpt lat="44.2272" lon="5.62669">
        <ele>726</ele>
        <time>2019-06-04T08:03:25Z</time>
      </trkpt>
      <trkpt lat="44.22716" lon="5.62662">
        <ele>726</ele>
        <time>2019-06-04T08:03:26Z</time>
      </trkpt>
      <trkpt lat="44.22712" lon="5.62654">
        <ele>726</ele>
        <time>2019-06-04T08:03:27Z</time>
      </trkpt>
      <trkpt lat="44.22707" lon="5.62647">
        <ele>726</ele>
        <time>2019-06-04T08:03:28Z</time>
      </trkpt>
      <trkpt lat="44.22703" lon="5.6264">
        <ele>726</ele>
        <time>2019-06-04T08:03:29Z</time>
      </trkpt>
      <trkpt lat="44.22698" lon="5.62633">
        <ele>726</ele>
        <time>2019-06-04T08:03:30Z</time>
      </trkpt>
      <trkpt lat="44.22694" lon="5.62625">
        <ele>726</ele>
        <time>2019-06-04T08:03:31Z</time>
      </trkpt>
      <trkpt lat="44.2269" lon="5.62617">
        <ele>726</ele>
        <time>2019-06-04T08:03:32Z</time>
      </trkpt>
      <trkpt lat="44.22685" lon="5.6261">
        <ele>726</ele>
        <time>2019-06-04T08:03:33Z</time>
      </trkpt>
      <trkpt lat="44.22681" lon="5.62602">
        <ele>726</ele>
        <time>2019-06-04T08:03:34Z</time>
      </trkpt>
      <trkpt lat="44.22676" lon="5.62594">
        <ele>726</ele>
        <time>2019-06-04T08:03:35Z</time>
      </trkpt>
      <trkpt lat="44.22672" lon="5.62586">
        <ele>726</ele>
        <time>2019-06-04T08:03:36Z</time>
      </trkpt>
      <trkpt lat="44.22667" lon="5.62578">
        <ele>726</ele>
        <time>2019-06-04T08:03:37Z</time>
      </trkpt>
      <trkpt lat="44.22663" lon="5.6257">
        <ele>726</ele>
        <time>2019-06-04T08:03:38Z</time>
      </trkpt>
      <trkpt lat="44.22658" lon="5.62562">
        <ele>726</ele>
        <time>2019-06-04T08:03:39Z</time>
      </trkpt>
      <trkpt lat="44.22653" lon="5.62555">
        <ele>726</ele>
        <time>2019-06-04T08:03:40Z</time>
      </trkpt>
      <trkpt lat="44.22648" lon="5.62547">
        <ele>726</ele>
        <time>2019-06-04T08:03:41Z</time>
      </trkpt>
      <trkpt lat="44.22643" lon="5.62539">
        <ele>726</ele>
        <time>2019-06-04T08:03:42Z</time>
      </trkpt>
      <trkpt lat="44.22638" lon="5.62532">
        <ele>726</ele>
        <time>2019-06-04T08:03:43Z</time>
      </trkpt>
      <trkpt lat="44.22633" lon="5.62524">
        <ele>726</ele>
        <time>2019-06-04T08:03:44Z</time>
      </trkpt>
      <trkpt lat="44.22628" lon="5.62516">
        <ele>726</ele>
        <time>2019-06-04T08:03:45Z</time>
      </trkpt>
      <trkpt lat="44.22623" lon="5.62508">
        <ele>726</ele>
        <time>2019-06-04T08:03:46Z</time>
      </trkpt>
      <trkpt lat="44.22619" lon="5.625">
        <ele>726</ele>
        <time>2019-06-04T08:03:47Z</time>
      </trkpt>
      <trkpt lat="44.22614" lon="5.62492">
        <ele>726</ele>
        <time>2019-06-04T08:03:48Z</time>
      </trkpt>
      <trkpt lat="44.22609" lon="5.62484">
        <ele>726</ele>
        <time>2019-06-04T08:03:49Z</time>
      </trkpt>
      <trkpt lat="44.22605" lon="5.62476">
        <ele>726</ele>
        <time>2019-06-04T08:03:50Z</time>
      </trkpt>
      <trkpt lat="44.226" lon="5.62468">
        <ele>726</ele>
        <time>2019-06-04T08:03:51Z</time>
      </trkpt>
      <trkpt lat="44.22596" lon="5.62459">
        <ele>726</ele>
        <time>2019-06-04T08:03:52Z</time>
      </trkpt>
      <trkpt lat="44.22591" lon="5.6245">
        <ele>726</ele>
        <time>2019-06-04T08:03:53Z</time>
      </trkpt>
      <trkpt lat="44.22587" lon="5.62441">
        <ele>726</ele>
        <time>2019-06-04T08:03:54Z</time>
      </trkpt>
      <trkpt lat="44.22583" lon="5.62433">
        <ele>726</ele>
        <time>2019-06-04T08:03:55Z</time>
      </trkpt>
      <trkpt lat="44.22578" lon="5.62424">
        <ele>726</ele>
        <time>2019-06-04T08:03:56Z</time>
      </trkpt>
      <trkpt lat="44.22574" lon="5.62414">
        <ele>726</ele>
        <time>2019-06-04T08:03:57Z</time>
      </trkpt>
      <trkpt lat="44.2257" lon="5.62405">
        <ele>726</ele>
        <time>2019-06-04T08:03:58Z</time>
      </trkpt>
      <trkpt lat="44.22566" lon="5.62396">
        <ele>726</ele>
        <time>2019-06-04T08:03:59Z</time>
      </trkpt>
      <trkpt lat="44.22562" lon="5.62387">
        <ele>727</ele>
        <time>2019-06-04T08:04:00Z</time>
      </trkpt>
      <trkpt lat="44.22557" lon="5.62377">
        <ele>727</ele>
        <time>2019-06-04T08:04:01Z</time>
      </trkpt>
      <trkpt lat="44.22553" lon="5.62368">
        <ele>728</ele>
        <time>2019-06-04T08:04:02Z</time>
      </trkpt>
      <trkpt lat="44.2255" lon="5.62358">
        <ele>728</ele>
        <time>2019-06-04T08:04:03Z</time>
      </trkpt>
      <trkpt lat="44.22546" lon="5.62348">
        <ele>729</ele>
        <time>2019-06-04T08:04:04Z</time>
      </trkpt>
      <trkpt lat="44.22543" lon="5.62338">
        <ele>729</ele>
        <time>2019-06-04T08:04:05Z</time>
      </trkpt>
      <trkpt lat="44.22541" lon="5.62328">
        <ele>729</ele>
        <time>2019-06-04T08:04:06Z</time>
      </trkpt>
      <trkpt lat="44.22539" lon="5.62318">
        <ele>729</ele>
        <time>2019-06-04T08:04:07Z</time>
      </trkpt>
      <trkpt lat="44.22537" lon="5.62307">
        <ele>729</ele>
        <time>2019-06-04T08:04:08Z</time>
      </trkpt>
      <trkpt lat="44.22535" lon="5.62296">
        <ele>729</ele>
        <time>2019-06-04T08:04:09Z</time>
      </trkpt>
      <trkpt lat="44.22533" lon="5.62285">
        <ele>729</ele>
        <time>2019-06-04T08:04:10Z</time>
      </trkpt>
      <trkpt lat="44.22532" lon="5.62275">
        <ele>729</ele>
        <time>2019-06-04T08:04:11Z</time>
      </trkpt>
      <trkpt lat="44.22531" lon="5.62263">
        <ele>729</ele>
        <time>2019-06-04T08:04:12Z</time>
      </trkpt>
      <trkpt lat="44.2253" lon="5.62253">
        <ele>729</ele>
        <time>2019-06-04T08:04:13Z</time>
      </trkpt>
      <trkpt lat="44.22529" lon="5.62242">
        <ele>729</ele>
        <time>2019-06-04T08:04:14Z</time>
      </trkpt>
      <trkpt lat="44.22528" lon="5.62232">
        <ele>729</ele>
        <time>2019-06-04T08:04:15Z</time>
      </trkpt>
      <trkpt lat="44.22528" lon="5.62221">
        <ele>729</ele>
        <time>2019-06-04T08:04:16Z</time>
      </trkpt>
      <trkpt lat="44.22528" lon="5.62211">
        <ele>729</ele>
        <time>2019-06-04T08:04:17Z</time>
      </trkpt>
      <trkpt lat="44.22527" lon="5.622">
        <ele>729</ele>
        <time>2019-06-04T08:04:18Z</time>
      </trkpt>
      <trkpt lat="44.22526" lon="5.6219">
        <ele>729</ele>
        <time>2019-06-04T08:04:19Z</time>
      </trkpt>
      <trkpt lat="44.22525" lon="5.62179">
        <ele>729</ele>
        <time>2019-06-04T08:04:20Z</time>
      </trkpt>
      <trkpt lat="44.22523" lon="5.62168">
        <ele>729</ele>
        <time>2019-06-04T08:04:21Z</time>
      </trkpt>
      <trkpt lat="44.22521" lon="5.62158">
        <ele>729</ele>
        <time>2019-06-04T08:04:22Z</time>
      </trkpt>
      <trkpt lat="44.22519" lon="5.62148">
        <ele>729</ele>
        <time>2019-06-04T08:04:23Z</time>
      </trkpt>
      <trkpt lat="44.22516" lon="5.62138">
        <ele>729</ele>
        <time>2019-06-04T08:04:24Z</time>
      </trkpt>
      <trkpt lat="44.22512" lon="5.62128">
        <ele>729</ele>
        <time>2019-06-04T08:04:25Z</time>
      </trkpt>
      <trkpt lat="44.22509" lon="5.62119">
        <ele>729</ele>
        <time>2019-06-04T08:04:26Z</time>
      </trkpt>
      <trkpt lat="44.22505" lon="5.6211">
        <ele>729</ele>
        <time>2019-06-04T08:04:27Z</time>
      </trkpt>
      <trkpt lat="44.225" lon="5.62101">
        <ele>729</ele>
        <time>2019-06-04T08:04:28Z</time>
      </trkpt>
      <trkpt lat="44.22496" lon="5.62092">
        <ele>729</ele>
        <time>2019-06-04T08:04:29Z</time>
      </trkpt>
      <trkpt lat="44.22491" lon="5.62083">
        <ele>729</ele>
        <time>2019-06-04T08:04:30Z</time>
      </trkpt>
      <trkpt lat="44.22488" lon="5.62074">
        <ele>729</ele>
        <time>2019-06-04T08:04:31Z</time>
      </trkpt>
      <trkpt lat="44.22484" lon="5.62065">
        <ele>729</ele>
        <time>2019-06-04T08:04:32Z</time>
      </trkpt>
      <trkpt lat="44.2248" lon="5.62056">
        <ele>729</ele>
        <time>2019-06-04T08:04:33Z</time>
      </trkpt>
      <trkpt lat="44.22476" lon="5.62047">
        <ele>729</ele>
        <time>2019-06-04T08:04:34Z</time>
      </trkpt>
      <trkpt lat="44.22472" lon="5.62038">
        <ele>729</ele>
        <time>2019-06-04T08:04:35Z</time>
      </trkpt>
      <trkpt lat="44.22467" lon="5.62029">
        <ele>729</ele>
        <time>2019-06-04T08:04:36Z</time>
      </trkpt>
      <trkpt lat="44.22463" lon="5.62019">
        <ele>729</ele>
        <time>2019-06-04T08:04:37Z</time>
      </trkpt>
      <trkpt lat="44.22459" lon="5.6201">
        <ele>729</ele>
        <time>2019-06-04T08:04:38Z</time>
      </trkpt>
      <trkpt lat="44.22455" lon="5.62001">
        <ele>729</ele>
        <time>2019-06-04T08:04:39Z</time>
      </trkpt>
      <trkpt lat="44.22451" lon="5.61992">
        <ele>729</ele>
        <time>2019-06-04T08:04:40Z</time>
      </trkpt>
      <trkpt lat="44.22447" lon="5.61982">
        <ele>729</ele>
        <time>2019-06-04T08:04:41Z</time>
      </trkpt>
      <trkpt lat="44.22442" lon="5.61974">
        <ele>729</ele>
        <time>2019-06-04T08:04:42Z</time>
      </trkpt>
      <trkpt lat="44.22438" lon="5.61965">
        <ele>729</ele>
        <time>2019-06-04T08:04:43Z</time>
      </trkpt>
      <trkpt lat="44.22434" lon="5.61956">
        <ele>729</ele>
        <time>2019-06-04T08:04:44Z</time>
      </trkpt>
      <trkpt lat="44.2243" lon="5.61948">
        <ele>729</ele>
        <time>2019-06-04T08:04:45Z</time>
      </trkpt>
      <trkpt lat="44.22425" lon="5.61939">
        <ele>729</ele>
        <time>2019-06-04T08:04:46Z</time>
      </trkpt>
      <trkpt lat="44.22421" lon="5.61931">
        <ele>729</ele>
        <time>2019-06-04T08:04:47Z</time>
      </trkpt>
      <trkpt lat="44.22417" lon="5.61922">
        <ele>729</ele>
        <time>2019-06-04T08:04:48Z</time>
      </trkpt>
      <trkpt lat="44.22413" lon="5.61913">
        <ele>729</ele>
        <time>2019-06-04T08:04:49Z</time>
      </trkpt>
      <trkpt lat="44.22409" lon="5.61904">
        <ele>729</ele>
        <time>2019-06-04T08:04:50Z</time>
      </trkpt>
      <trkpt lat="44.22406" lon="5.61895">
        <ele>729</ele>
        <time>2019-06-04T08:04:51Z</time>
      </trkpt>
      <trkpt lat="44.22403" lon="5.61885">
        <ele>729</ele>
        <time>2019-06-04T08:04:52Z</time>
      </trkpt>
      <trkpt lat="44.22401" lon="5.61875">
        <ele>729</ele>
        <time>2019-06-04T08:04:53Z</time>
      </trkpt>
      <trkpt lat="44.22399" lon="5.61865">
        <ele>729</ele>
        <time>2019-06-04T08:04:54Z</time>
      </trkpt>
      <trkpt lat="44.22397" lon="5.61855">
        <ele>729</ele>
        <time>2019-06-04T08:04:55Z</time>
      </trkpt>
      <trkpt lat="44.22394" lon="5.61845">
        <ele>729</ele>
        <time>2019-06-04T08:04:56Z</time>
      </trkpt>
      <trkpt lat="44.22392" lon="5.61835">
        <ele>729</ele>
        <time>2019-06-04T08:04:57Z</time>
      </trkpt>
      <trkpt lat="44.2239" lon="5.61825">
        <ele>729</ele>
        <time>2019-06-04T08:04:58Z</time>
      </trkpt>
      <trkpt lat="44.22387" lon="5.61816">
        <ele>729</ele>
        <time>2019-06-04T08:04:59Z</time>
      </trkpt>
      <trkpt lat="44.22385" lon="5.61806">
        <ele>729</ele>
        <time>2019-06-04T08:05:00Z</time>
      </trkpt>
      <trkpt lat="44.22382" lon="5.61797">
        <ele>729</ele>
        <time>2019-06-04T08:05:01Z</time>
      </trkpt>
      <trkpt lat="44.22379" lon="5.61788">
        <ele>728</ele>
        <time>2019-06-04T08:05:02Z</time>
      </trkpt>
      <trkpt lat="44.22375" lon="5.61779">
        <ele>728</ele>
        <time>2019-06-04T08:05:03Z</time>
      </trkpt>
      <trkpt lat="44.22372" lon="5.6177">
        <ele>728</ele>
        <time>2019-06-04T08:05:04Z</time>
      </trkpt>
      <trkpt lat="44.22368" lon="5.61761">
        <ele>728</ele>
        <time>2019-06-04T08:05:05Z</time>
      </trkpt>
      <trkpt lat="44.22365" lon="5.61752">
        <ele>728</ele>
        <time>2019-06-04T08:05:06Z</time>
      </trkpt>
      <trkpt lat="44.22361" lon="5.61743">
        <ele>728</ele>
        <time>2019-06-04T08:05:07Z</time>
      </trkpt>
      <trkpt lat="44.22358" lon="5.61735">
        <ele>728</ele>
        <time>2019-06-04T08:05:08Z</time>
      </trkpt>
      <trkpt lat="44.22355" lon="5.61727">
        <ele>728</ele>
        <time>2019-06-04T08:05:09Z</time>
      </trkpt>
      <trkpt lat="44.22351" lon="5.61718">
        <ele>728</ele>
        <time>2019-06-04T08:05:10Z</time>
      </trkpt>
      <trkpt lat="44.22347" lon="5.6171">
        <ele>728</ele>
        <time>2019-06-04T08:05:11Z</time>
      </trkpt>
      <trkpt lat="44.22343" lon="5.61702">
        <ele>728</ele>
        <time>2019-06-04T08:05:12Z</time>
      </trkpt>
      <trkpt lat="44.22339" lon="5.61693">
        <ele>728</ele>
        <time>2019-06-04T08:05:13Z</time>
      </trkpt>
      <trkpt lat="44.22336" lon="5.61685">
        <ele>728</ele>
        <time>2019-06-04T08:05:14Z</time>
      </trkpt>
      <trkpt lat="44.22332" lon="5.61677">
        <ele>728</ele>
        <time>2019-06-04T08:05:15Z</time>
      </trkpt>
      <trkpt lat="44.22329" lon="5.61669">
        <ele>728</ele>
        <time>2019-06-04T08:05:16Z</time>
      </trkpt>
      <trkpt lat="44.22325" lon="5.61661">
        <ele>728</ele>
        <time>2019-06-04T08:05:17Z</time>
      </trkpt>
      <trkpt lat="44.22321" lon="5.61653">
        <ele>728</ele>
        <time>2019-06-04T08:05:18Z</time>
      </trkpt>
      <trkpt lat="44.22318" lon="5.61645">
        <ele>728</ele>
        <time>2019-06-04T08:05:19Z</time>
      </trkpt>
      <trkpt lat="44.22315" lon="5.61636">
        <ele>728</ele>
        <time>2019-06-04T08:05:20Z</time>
      </trkpt>
      <trkpt lat="44.22312" lon="5.61628">
        <ele>728</ele>
        <time>2019-06-04T08:05:21Z</time>
      </trkpt>
      <trkpt lat="44.22308" lon="5.6162">
        <ele>728</ele>
        <time>2019-06-04T08:05:22Z</time>
      </trkpt>
      <trkpt lat="44.22305" lon="5.61612">
        <ele>728</ele>
        <time>2019-06-04T08:05:23Z</time>
      </trkpt>
      <trkpt lat="44.22302" lon="5.61603">
        <ele>728</ele>
        <time>2019-06-04T08:05:24Z</time>
      </trkpt>
      <trkpt lat="44.22299" lon="5.61595">
        <ele>728</ele>
        <time>2019-06-04T08:05:25Z</time>
      </trkpt>
      <trkpt lat="44.22295" lon="5.61587">
        <ele>728</ele>
        <time>2019-06-04T08:05:26Z</time>
      </trkpt>
      <trkpt lat="44.22292" lon="5.61579">
        <ele>728</ele>
        <time>2019-06-04T08:05:27Z</time>
      </trkpt>
      <trkpt lat="44.22289" lon="5.6157">
        <ele>728</ele>
        <time>2019-06-04T08:05:28Z</time>
      </trkpt>
      <trkpt lat="44.22286" lon="5.61562">
        <ele>728</ele>
        <time>2019-06-04T08:05:29Z</time>
      </trkpt>
      <trkpt lat="44.22283" lon="5.61553">
        <ele>728</ele>
        <time>2019-06-04T08:05:30Z</time>
      </trkpt>
      <trkpt lat="44.2228" lon="5.61545">
        <ele>728</ele>
        <time>2019-06-04T08:05:31Z</time>
      </trkpt>
      <trkpt lat="44.22277" lon="5.61536">
        <ele>728</ele>
        <time>2019-06-04T08:05:32Z</time>
      </trkpt>
      <trkpt lat="44.22274" lon="5.61527">
        <ele>728</ele>
        <time>2019-06-04T08:05:33Z</time>
      </trkpt>
      <trkpt lat="44.22271" lon="5.61518">
        <ele>728</ele>
        <time>2019-06-04T08:05:34Z</time>
      </trkpt>
      <trkpt lat="44.22269" lon="5.61509">
        <ele>728</ele>
        <time>2019-06-04T08:05:35Z</time>
      </trkpt>
      <trkpt lat="44.22266" lon="5.61499">
        <ele>728</ele>
        <time>2019-06-04T08:05:36Z</time>
      </trkpt>
      <trkpt lat="44.22263" lon="5.6149">
        <ele>728</ele>
        <time>2019-06-04T08:05:37Z</time>
      </trkpt>
      <trkpt lat="44.22261" lon="5.6148">
        <ele>728</ele>
        <time>2019-06-04T08:05:38Z</time>
      </trkpt>
      <trkpt lat="44.22259" lon="5.6147">
        <ele>728</ele>
        <time>2019-06-04T08:05:39Z</time>
      </trkpt>
      <trkpt lat="44.22256" lon="5.6146">
        <ele>728</ele>
        <time>2019-06-04T08:05:40Z</time>
      </trkpt>
      <trkpt lat="44.22254" lon="5.6145">
        <ele>728</ele>
        <time>2019-06-04T08:05:41Z</time>
      </trkpt>
      <trkpt lat="44.22252" lon="5.6144">
        <ele>728</ele>
        <time>2019-06-04T08:05:42Z</time>
      </trkpt>
      <trkpt lat="44.22249" lon="5.6143">
        <ele>728</ele>
        <time>2019-06-04T08:05:43Z</time>
      </trkpt>
      <trkpt lat="44.22247" lon="5.6142">
        <ele>728</ele>
        <time>2019-06-04T08:05:44Z</time>
      </trkpt>
      <trkpt lat="44.22245" lon="5.6141">
        <ele>728</ele>
        <time>2019-06-04T08:05:45Z</time>
      </trkpt>
      <trkpt lat="44.22242" lon="5.61399">
        <ele>728</ele>
        <time>2019-06-04T08:05:46Z</time>
      </trkpt>
      <trkpt lat="44.2224" lon="5.61389">
        <ele>728</ele>
        <time>2019-06-04T08:05:47Z</time>
      </trkpt>
      <trkpt lat="44.22238" lon="5.61379">
        <ele>728</ele>
        <time>2019-06-04T08:05:48Z</time>
      </trkpt>
      <trkpt lat="44.22235" lon="5.61369">
        <ele>728</ele>
        <time>2019-06-04T08:05:49Z</time>
      </trkpt>
      <trkpt lat="44.22233" lon="5.61358">
        <ele>728</ele>
        <time>2019-06-04T08:05:50Z</time>
      </trkpt>
      <trkpt lat="44.22231" lon="5.61349">
        <ele>728</ele>
        <time>2019-06-04T08:05:51Z</time>
      </trkpt>
      <trkpt lat="44.22229" lon="5.61339">
        <ele>728</ele>
        <time>2019-06-04T08:05:52Z</time>
      </trkpt>
      <trkpt lat="44.22226" lon="5.61329">
        <ele>728</ele>
        <time>2019-06-04T08:05:53Z</time>
      </trkpt>
      <trkpt lat="44.22224" lon="5.61319">
        <ele>728</ele>
        <time>2019-06-04T08:05:54Z</time>
      </trkpt>
      <trkpt lat="44.22222" lon="5.6131">
        <ele>728</ele>
        <time>2019-06-04T08:05:55Z</time>
      </trkpt>
      <trkpt lat="44.2222" lon="5.61301">
        <ele>728</ele>
        <time>2019-06-04T08:05:56Z</time>
      </trkpt>
      <trkpt lat="44.22218" lon="5.61291">
        <ele>728</ele>
        <time>2019-06-04T08:05:57Z</time>
      </trkpt>
      <trkpt lat="44.22216" lon="5.61282">
        <ele>728</ele>
        <time>2019-06-04T08:05:58Z</time>
      </trkpt>
      <trkpt lat="44.22214" lon="5.61273">
        <ele>728</ele>
        <time>2019-06-04T08:05:59Z</time>
      </trkpt>
      <trkpt lat="44.22211" lon="5.61264">
        <ele>728</ele>
        <time>2019-06-04T08:06:00Z</time>
      </trkpt>
      <trkpt lat="44.22209" lon="5.61254">
        <ele>728</ele>
        <time>2019-06-04T08:06:01Z</time>
      </trkpt>
      <trkpt lat="44.22207" lon="5.61245">
        <ele>728</ele>
        <time>2019-06-04T08:06:02Z</time>
      </trkpt>
      <trkpt lat="44.22205" lon="5.61236">
        <ele>728</ele>
        <time>2019-06-04T08:06:03Z</time>
      </trkpt>
      <trkpt lat="44.22203" lon="5.61227">
        <ele>728</ele>
        <time>2019-06-04T08:06:04Z</time>
      </trkpt>
      <trkpt lat="44.22201" lon="5.61217">
        <ele>728</ele>
        <time>2019-06-04T08:06:05Z</time>
      </trkpt>
      <trkpt lat="44.22199" lon="5.61208">
        <ele>728</ele>
        <time>2019-06-04T08:06:06Z</time>
      </trkpt>
      <trkpt lat="44.22197" lon="5.61199">
        <ele>728</ele>
        <time>2019-06-04T08:06:07Z</time>
      </trkpt>
      <trkpt lat="44.22195" lon="5.6119">
        <ele>728</ele>
        <time>2019-06-04T08:06:08Z</time>
      </trkpt>
      <trkpt lat="44.22193" lon="5.61181">
        <ele>728</ele>
        <time>2019-06-04T08:06:09Z</time>
      </trkpt>
      <trkpt lat="44.22191" lon="5.61172">
        <ele>728</ele>
        <time>2019-06-04T08:06:10Z</time>
      </trkpt>
      <trkpt lat="44.2219" lon="5.61163">
        <ele>728</ele>
        <time>2019-06-04T08:06:11Z</time>
      </trkpt>
      <trkpt lat="44.22188" lon="5.61153">
        <ele>728</ele>
        <time>2019-06-04T08:06:12Z</time>
      </trkpt>
      <trkpt lat="44.22187" lon="5.61144">
        <ele>728</ele>
        <time>2019-06-04T08:06:13Z</time>
      </trkpt>
      <trkpt lat="44.22185" lon="5.61134">
        <ele>728</ele>
        <time>2019-06-04T08:06:14Z</time>
      </trkpt>
      <trkpt lat="44.22184" lon="5.61125">
        <ele>728</ele>
        <time>2019-06-04T08:06:15Z</time>
      </trkpt>
      <trkpt lat="44.22182" lon="5.61115">
        <ele>728</ele>
        <time>2019-06-04T08:06:16Z</time>
      </trkpt>
      <trkpt lat="44.2218" lon="5.61105">
        <ele>728</ele>
        <time>2019-06-04T08:06:17Z</time>
      </trkpt>
      <trkpt lat="44.22179" lon="5.61095">
        <ele>728</ele>
        <time>2019-06-04T08:06:18Z</time>
      </trkpt>
      <trkpt lat="44.22177" lon="5.61084">
        <ele>728</ele>
        <time>2019-06-04T08:06:19Z</time>
      </trkpt>
      <trkpt lat="44.22176" lon="5.61073">
        <ele>728</ele>
        <time>2019-06-04T08:06:20Z</time>
      </trkpt>
      <trkpt lat="44.22174" lon="5.61063">
        <ele>728</ele>
        <time>2019-06-04T08:06:21Z</time>
      </trkpt>
      <trkpt lat="44.22173" lon="5.61052">
        <ele>728</ele>
        <time>2019-06-04T08:06:22Z</time>
      </trkpt>
      <trkpt lat="44.22171" lon="5.61042">
        <ele>728</ele>
        <time>2019-06-04T08:06:23Z</time>
      </trkpt>
      <trkpt lat="44.2217" lon="5.61031">
        <ele>728</ele>
        <time>2019-06-04T08:06:24Z</time>
      </trkpt>
      <trkpt lat="44.22168" lon="5.61021">
        <ele>728</ele>
        <time>2019-06-04T08:06:25Z</time>
      </trkpt>
      <trkpt lat="44.22166" lon="5.61011">
        <ele>728</ele>
        <time>2019-06-04T08:06:26Z</time>
      </trkpt>
      <trkpt lat="44.22165" lon="5.61001">
        <ele>728</ele>
        <time>2019-06-04T08:06:27Z</time>
      </trkpt>
      <trkpt lat="44.22163" lon="5.60991">
        <ele>728</ele>
        <time>2019-06-04T08:06:28Z</time>
      </trkpt>
      <trkpt lat="44.22161" lon="5.60981">
        <ele>728</ele>
        <time>2019-06-04T08:06:29Z</time>
      </trkpt>
      <trkpt lat="44.22159" lon="5.6097">
        <ele>728</ele>
        <time>2019-06-04T08:06:30Z</time>
      </trkpt>
      <trkpt lat="44.22157" lon="5.6096">
        <ele>728</ele>
        <time>2019-06-04T08:06:31Z</time>
      </trkpt>
      <trkpt lat="44.22155" lon="5.6095">
        <ele>728</ele>
        <time>2019-06-04T08:06:32Z</time>
      </trkpt>
      <trkpt lat="44.22153" lon="5.6094">
        <ele>728</ele>
        <time>2019-06-04T08:06:33Z</time>
      </trkpt>
      <trkpt lat="44.22151" lon="5.60929">
        <ele>728</ele>
        <time>2019-06-04T08:06:34Z</time>
      </trkpt>
      <trkpt lat="44.22149" lon="5.60919">
        <ele>728</ele>
        <time>2019-06-04T08:06:35Z</time>
      </trkpt>
      <trkpt lat="44.22147" lon="5.60909">
        <ele>728</ele>
        <time>2019-06-04T08:06:36Z</time>
      </trkpt>
      <trkpt lat="44.22144" lon="5.60899">
        <ele>728</ele>
        <time>2019-06-04T08:06:37Z</time>
      </trkpt>
      <trkpt lat="44.22142" lon="5.60889">
        <ele>728</ele>
        <time>2019-06-04T08:06:38Z</time>
      </trkpt>
      <trkpt lat="44.2214" lon="5.60879">
        <ele>728</ele>
        <time>2019-06-04T08:06:39Z</time>
      </trkpt>
      <trkpt lat="44.22137" lon="5.6087">
        <ele>728</ele>
        <time>2019-06-04T08:06:40Z</time>
      </trkpt>
      <trkpt lat="44.22133" lon="5.6086">
        <ele>728</ele>
        <time>2019-06-04T08:06:41Z</time>
      </trkpt>
      <trkpt lat="44.2213" lon="5.6085">
        <ele>728</ele>
        <time>2019-06-04T08:06:42Z</time>
      </trkpt>
      <trkpt lat="44.22127" lon="5.6084">
        <ele>728</ele>
        <time>2019-06-04T08:06:43Z</time>
      </trkpt>
      <trkpt lat="44.22124" lon="5.60831">
        <ele>728</ele>
        <time>2019-06-04T08:06:44Z</time>
      </trkpt>
      <trkpt lat="44.22121" lon="5.6082">
        <ele>728</ele>
        <time>2019-06-04T08:06:45Z</time>
      </trkpt>
      <trkpt lat="44.22119" lon="5.60811">
        <ele>728</ele>
        <time>2019-06-04T08:06:46Z</time>
      </trkpt>
      <trkpt lat="44.22117" lon="5.608">
        <ele>728</ele>
        <time>2019-06-04T08:06:47Z</time>
      </trkpt>
      <trkpt lat="44.22116" lon="5.60789">
        <ele>728</ele>
        <time>2019-06-04T08:06:48Z</time>
      </trkpt>
      <trkpt lat="44.22115" lon="5.60779">
        <ele>728</ele>
        <time>2019-06-04T08:06:49Z</time>
      </trkpt>
      <trkpt lat="44.22114" lon="5.60768">
        <ele>728</ele>
        <time>2019-06-04T08:06:50Z</time>
      </trkpt>
      <trkpt lat="44.22115" lon="5.60757">
        <ele>729</ele>
        <time>2019-06-04T08:06:51Z</time>
      </trkpt>
      <trkpt lat="44.22115" lon="5.60747">
        <ele>729</ele>
        <time>2019-06-04T08:06:52Z</time>
      </trkpt>
      <trkpt lat="44.22117" lon="5.60736">
        <ele>729</ele>
        <time>2019-06-04T08:06:53Z</time>
      </trkpt>
      <trkpt lat="44.22118" lon="5.60725">
        <ele>729</ele>
        <time>2019-06-04T08:06:54Z</time>
      </trkpt>
      <trkpt lat="44.2212" lon="5.60715">
        <ele>729</ele>
        <time>2019-06-04T08:06:55Z</time>
      </trkpt>
      <trkpt lat="44.22121" lon="5.60705">
        <ele>730</ele>
        <time>2019-06-04T08:06:56Z</time>
      </trkpt>
      <trkpt lat="44.22123" lon="5.60695">
        <ele>730</ele>
        <time>2019-06-04T08:06:57Z</time>
      </trkpt>
      <trkpt lat="44.22124" lon="5.60685">
        <ele>730</ele>
        <time>2019-06-04T08:06:58Z</time>
      </trkpt>
      <trkpt lat="44.22126" lon="5.60674">
        <ele>731</ele>
        <time>2019-06-04T08:06:59Z</time>
      </trkpt>
      <trkpt lat="44.22127" lon="5.60664">
        <ele>731</ele>
        <time>2019-06-04T08:07:00Z</time>
      </trkpt>
      <trkpt lat="44.22129" lon="5.60654">
        <ele>731</ele>
        <time>2019-06-04T08:07:01Z</time>
      </trkpt>
      <trkpt lat="44.22131" lon="5.60643">
        <ele>731</ele>
        <time>2019-06-04T08:07:02Z</time>
      </trkpt>
      <trkpt lat="44.22132" lon="5.60633">
        <ele>731</ele>
        <time>2019-06-04T08:07:03Z</time>
      </trkpt>
      <trkpt lat="44.22134" lon="5.60623">
        <ele>731</ele>
        <time>2019-06-04T08:07:04Z</time>
      </trkpt>
      <trkpt lat="44.22135" lon="5.60613">
        <ele>732</ele>
        <time>2019-06-04T08:07:05Z</time>
      </trkpt>
      <trkpt lat="44.22136" lon="5.60603">
        <ele>732</ele>
        <time>2019-06-04T08:07:06Z</time>
      </trkpt>
      <trkpt lat="44.22137" lon="5.60593">
        <ele>732</ele>
        <time>2019-06-04T08:07:07Z</time>
      </trkpt>
      <trkpt lat="44.22138" lon="5.60582">
        <ele>732</ele>
        <time>2019-06-04T08:07:08Z</time>
      </trkpt>
      <trkpt lat="44.22139" lon="5.60572">
        <ele>733</ele>
        <time>2019-06-04T08:07:09Z</time>
      </trkpt>
      <trkpt lat="44.2214" lon="5.60562">
        <ele>733</ele>
        <time>2019-06-04T08:07:10Z</time>
      </trkpt>
      <trkpt lat="44.2214" lon="5.60552">
        <ele>733</ele>
        <time>2019-06-04T08:07:11Z</time>
      </trkpt>
      <trkpt lat="44.2214" lon="5.60541">
        <ele>734</ele>
        <time>2019-06-04T08:07:12Z</time>
      </trkpt>
      <trkpt lat="44.2214" lon="5.60531">
        <ele>734</ele>
        <time>2019-06-04T08:07:13Z</time>
      </trkpt>
      <trkpt lat="44.2214" lon="5.6052">
        <ele>734</ele>
        <time>2019-06-04T08:07:14Z</time>
      </trkpt>
      <trkpt lat="44.2214" lon="5.6051">
        <ele>735</ele>
        <time>2019-06-04T08:07:15Z</time>
      </trkpt>
      <trkpt lat="44.22139" lon="5.60501">
        <ele>735</ele>
        <time>2019-06-04T08:07:16Z</time>
      </trkpt>
      <trkpt lat="44.22138" lon="5.60491">
        <ele>736</ele>
        <time>2019-06-04T08:07:17Z</time>
      </trkpt>
      <trkpt lat="44.22138" lon="5.60481">
        <ele>736</ele>
        <time>2019-06-04T08:07:18Z</time>
      </trkpt>
      <trkpt lat="44.22137" lon="5.6047">
        <ele>736</ele>
        <time>2019-06-04T08:07:19Z</time>
      </trkpt>
      <trkpt lat="44.22136" lon="5.60461">
        <ele>736</ele>
        <time>2019-06-04T08:07:20Z</time>
      </trkpt>
      <trkpt lat="44.22134" lon="5.60451">
        <ele>736</ele>
        <time>2019-06-04T08:07:21Z</time>
      </trkpt>
      <trkpt lat="44.22133" lon="5.60441">
        <ele>736</ele>
        <time>2019-06-04T08:07:22Z</time>
      </trkpt>
      <trkpt lat="44.22132" lon="5.60432">
        <ele>736</ele>
        <time>2019-06-04T08:07:23Z</time>
      </trkpt>
      <trkpt lat="44.2213" lon="5.60422">
        <ele>736</ele>
        <time>2019-06-04T08:07:24Z</time>
      </trkpt>
      <trkpt lat="44.22128" lon="5.60413">
        <ele>736</ele>
        <time>2019-06-04T08:07:25Z</time>
      </trkpt>
      <trkpt lat="44.22126" lon="5.60403">
        <ele>736</ele>
        <time>2019-06-04T08:07:26Z</time>
      </trkpt>
      <trkpt lat="44.22124" lon="5.60393">
        <ele>736</ele>
        <time>2019-06-04T08:07:27Z</time>
      </trkpt>
      <trkpt lat="44.22122" lon="5.60384">
        <ele>736</ele>
        <time>2019-06-04T08:07:28Z</time>
      </trkpt>
      <trkpt lat="44.2212" lon="5.60374">
        <ele>736</ele>
        <time>2019-06-04T08:07:29Z</time>
      </trkpt>
      <trkpt lat="44.22119" lon="5.60364">
        <ele>736</ele>
        <time>2019-06-04T08:07:30Z</time>
      </trkpt>
      <trkpt lat="44.22119" lon="5.60355">
        <ele>736</ele>
        <time>2019-06-04T08:07:31Z</time>
      </trkpt>
      <trkpt lat="44.22119" lon="5.60345">
        <ele>736</ele>
        <time>2019-06-04T08:07:32Z</time>
      </trkpt>
      <trkpt lat="44.22119" lon="5.60335">
        <ele>735</ele>
        <time>2019-06-04T08:07:33Z</time>
      </trkpt>
      <trkpt lat="44.2212" lon="5.60325">
        <ele>735</ele>
        <time>2019-06-04T08:07:34Z</time>
      </trkpt>
      <trkpt lat="44.22121" lon="5.60316">
        <ele>735</ele>
        <time>2019-06-04T08:07:35Z</time>
      </trkpt>
      <trkpt lat="44.22122" lon="5.60306">
        <ele>735</ele>
        <time>2019-06-04T08:07:36Z</time>
      </trkpt>
      <trkpt lat="44.22123" lon="5.60297">
        <ele>735</ele>
        <time>2019-06-04T08:07:37Z</time>
      </trkpt>
      <trkpt lat="44.22124" lon="5.60288">
        <ele>735</ele>
        <time>2019-06-04T08:07:38Z</time>
      </trkpt>
      <trkpt lat="44.22126" lon="5.60278">
        <ele>735</ele>
        <time>2019-06-04T08:07:39Z</time>
      </trkpt>
      <trkpt lat="44.22127" lon="5.60268">
        <ele>735</ele>
        <time>2019-06-04T08:07:40Z</time>
      </trkpt>
      <trkpt lat="44.22128" lon="5.60259">
        <ele>735</ele>
        <time>2019-06-04T08:07:41Z</time>
      </trkpt>
      <trkpt lat="44.22129" lon="5.6025">
        <ele>735</ele>
        <time>2019-06-04T08:07:42Z</time>
      </trkpt>
      <trkpt lat="44.2213" lon="5.60241">
        <ele>735</ele>
        <time>2019-06-04T08:07:43Z</time>
      </trkpt>
      <trkpt lat="44.22131" lon="5.60231">
        <ele>735</ele>
        <time>2019-06-04T08:07:44Z</time>
      </trkpt>
      <trkpt lat="44.22132" lon="5.60222">
        <ele>735</ele>
        <time>2019-06-04T08:07:45Z</time>
      </trkpt>
      <trkpt lat="44.22134" lon="5.60214">
        <ele>735</ele>
        <time>2019-06-04T08:07:46Z</time>
      </trkpt>
      <trkpt lat="44.22135" lon="5.60205">
        <ele>735</ele>
        <time>2019-06-04T08:07:47Z</time>
      </trkpt>
      <trkpt lat="44.22137" lon="5.60195">
        <ele>735</ele>
        <time>2019-06-04T08:07:48Z</time>
      </trkpt>
      <trkpt lat="44.22137" lon="5.60186">
        <ele>735</ele>
        <time>2019-06-04T08:07:49Z</time>
      </trkpt>
      <trkpt lat="44.22139" lon="5.60177">
        <ele>734</ele>
        <time>2019-06-04T08:07:50Z</time>
      </trkpt>
      <trkpt lat="44.22139" lon="5.60168">
        <ele>734</ele>
        <time>2019-06-04T08:07:51Z</time>
      </trkpt>
      <trkpt lat="44.22141" lon="5.60158">
        <ele>733</ele>
        <time>2019-06-04T08:07:52Z</time>
      </trkpt>
      <trkpt lat="44.22142" lon="5.60149">
        <ele>733</ele>
        <time>2019-06-04T08:07:53Z</time>
      </trkpt>
      <trkpt lat="44.22142" lon="5.6014">
        <ele>733</ele>
        <time>2019-06-04T08:07:54Z</time>
      </trkpt>
      <trkpt lat="44.22142" lon="5.6013">
        <ele>733</ele>
        <time>2019-06-04T08:07:55Z</time>
      </trkpt>
      <trkpt lat="44.22142" lon="5.60121">
        <ele>733</ele>
        <time>2019-06-04T08:07:56Z</time>
      </trkpt>
      <trkpt lat="44.22142" lon="5.60112">
        <ele>733</ele>
        <time>2019-06-04T08:07:57Z</time>
      </trkpt>
      <trkpt lat="44.22143" lon="5.60103">
        <ele>733</ele>
        <time>2019-06-04T08:07:58Z</time>
      </trkpt>
      <trkpt lat="44.22142" lon="5.60094">
        <ele>733</ele>
        <time>2019-06-04T08:07:59Z</time>
      </trkpt>
      <trkpt lat="44.22142" lon="5.60085">
        <ele>733</ele>
        <time>2019-06-04T08:08:00Z</time>
      </trkpt>
      <trkpt lat="44.22141" lon="5.60076">
        <ele>733</ele>
        <time>2019-06-04T08:08:01Z</time>
      </trkpt>
      <trkpt lat="44.22141" lon="5.60067">
        <ele>733</ele>
        <time>2019-06-04T08:08:02Z</time>
      </trkpt>
      <trkpt lat="44.22142" lon="5.60057">
        <ele>733</ele>
        <time>2019-06-04T08:08:03Z</time>
      </trkpt>
      <trkpt lat="44.22141" lon="5.60048">
        <ele>733</ele>
        <time>2019-06-04T08:08:04Z</time>
      </trkpt>
      <trkpt lat="44.22141" lon="5.60039">
        <ele>734</ele>
        <time>2019-06-04T08:08:05Z</time>
      </trkpt>
      <trkpt lat="44.22141" lon="5.60029">
        <ele>734</ele>
        <time>2019-06-04T08:08:06Z</time>
      </trkpt>
      <trkpt lat="44.22141" lon="5.60019">
        <ele>735</ele>
        <time>2019-06-04T08:08:07Z</time>
      </trkpt>
      <trkpt lat="44.22141" lon="5.6001">
        <ele>735</ele>
        <time>2019-06-04T08:08:08Z</time>
      </trkpt>
      <trkpt lat="44.22142" lon="5.6">
        <ele>735</ele>
        <time>2019-06-04T08:08:09Z</time>
      </trkpt>
      <trkpt lat="44.22141" lon="5.59991">
        <ele>735</ele>
        <time>2019-06-04T08:08:10Z</time>
      </trkpt>
      <trkpt lat="44.22142" lon="5.5998">
        <ele>735</ele>
        <time>2019-06-04T08:08:11Z</time>
      </trkpt>
      <trkpt lat="44.22142" lon="5.5997">
        <ele>735</ele>
        <time>2019-06-04T08:08:12Z</time>
      </trkpt>
      <trkpt lat="44.22143" lon="5.59959">
        <ele>735</ele>
        <time>2019-06-04T08:08:13Z</time>
      </trkpt>
      <trkpt lat="44.22143" lon="5.59948">
        <ele>735</ele>
        <time>2019-06-04T08:08:14Z</time>
      </trkpt>
      <trkpt lat="44.22144" lon="5.59937">
        <ele>735</ele>
        <time>2019-06-04T08:08:15Z</time>
      </trkpt>
      <trkpt lat="44.22144" lon="5.59926">
        <ele>735</ele>
        <time>2019-06-04T08:08:16Z</time>
      </trkpt>
      <trkpt lat="44.22144" lon="5.59915">
        <ele>735</ele>
        <time>2019-06-04T08:08:17Z</time>
      </trkpt>
      <trkpt lat="44.22144" lon="5.59904">
        <ele>735</ele>
        <time>2019-06-04T08:08:18Z</time>
      </trkpt>
      <trkpt lat="44.22143" lon="5.59894">
        <ele>735</ele>
        <time>2019-06-04T08:08:19Z</time>
      </trkpt>
      <trkpt lat="44.22142" lon="5.59883">
        <ele>735</ele>
        <time>2019-06-04T08:08:20Z</time>
      </trkpt>
      <trkpt lat="44.22142" lon="5.59872">
        <ele>735</ele>
        <time>2019-06-04T08:08:21Z</time>
      </trkpt>
      <trkpt lat="44.22142" lon="5.59862">
        <ele>735</ele>
        <time>2019-06-04T08:08:22Z</time>
      </trkpt>
      <trkpt lat="44.22142" lon="5.59852">
        <ele>735</ele>
        <time>2019-06-04T08:08:23Z</time>
      </trkpt>
      <trkpt lat="44.22141" lon="5.59841">
        <ele>735</ele>
        <time>2019-06-04T08:08:24Z</time>
      </trkpt>
      <trkpt lat="44.2214" lon="5.5983">
        <ele>735</ele>
        <time>2019-06-04T08:08:25Z</time>
      </trkpt>
      <trkpt lat="44.2214" lon="5.59819">
        <ele>735</ele>
        <time>2019-06-04T08:08:26Z</time>
      </trkpt>
      <trkpt lat="44.22139" lon="5.59809">
        <ele>735</ele>
        <time>2019-06-04T08:08:27Z</time>
      </trkpt>
      <trkpt lat="44.22139" lon="5.59798">
        <ele>735</ele>
        <time>2019-06-04T08:08:28Z</time>
      </trkpt>
      <trkpt lat="44.2214" lon="5.59788">
        <ele>735</ele>
        <time>2019-06-04T08:08:29Z</time>
      </trkpt>
      <trkpt lat="44.2214" lon="5.59777">
        <ele>735</ele>
        <time>2019-06-04T08:08:30Z</time>
      </trkpt>
      <trkpt lat="44.22141" lon="5.59767">
        <ele>735</ele>
        <time>2019-06-04T08:08:31Z</time>
      </trkpt>
      <trkpt lat="44.22142" lon="5.59757">
        <ele>735</ele>
        <time>2019-06-04T08:08:32Z</time>
      </trkpt>
      <trkpt lat="44.22142" lon="5.59747">
        <ele>735</ele>
        <time>2019-06-04T08:08:33Z</time>
      </trkpt>
      <trkpt lat="44.22144" lon="5.59737">
        <ele>735</ele>
        <time>2019-06-04T08:08:34Z</time>
      </trkpt>
      <trkpt lat="44.22145" lon="5.59728">
        <ele>735</ele>
        <time>2019-06-04T08:08:35Z</time>
      </trkpt>
      <trkpt lat="44.22146" lon="5.59718">
        <ele>735</ele>
        <time>2019-06-04T08:08:36Z</time>
      </trkpt>
      <trkpt lat="44.22147" lon="5.59708">
        <ele>735</ele>
        <time>2019-06-04T08:08:37Z</time>
      </trkpt>
      <trkpt lat="44.22149" lon="5.59697">
        <ele>735</ele>
        <time>2019-06-04T08:08:38Z</time>
      </trkpt>
      <trkpt lat="44.2215" lon="5.59687">
        <ele>735</ele>
        <time>2019-06-04T08:08:39Z</time>
      </trkpt>
      <trkpt lat="44.22151" lon="5.59677">
        <ele>735</ele>
        <time>2019-06-04T08:08:40Z</time>
      </trkpt>
      <trkpt lat="44.22152" lon="5.59667">
        <ele>735</ele>
        <time>2019-06-04T08:08:41Z</time>
      </trkpt>
      <trkpt lat="44.22153" lon="5.59657">
        <ele>735</ele>
        <time>2019-06-04T08:08:42Z</time>
      </trkpt>
      <trkpt lat="44.22153" lon="5.59647">
        <ele>735</ele>
        <time>2019-06-04T08:08:43Z</time>
      </trkpt>
      <trkpt lat="44.22154" lon="5.59636">
        <ele>735</ele>
        <time>2019-06-04T08:08:44Z</time>
      </trkpt>
      <trkpt lat="44.22153" lon="5.59626">
        <ele>735</ele>
        <time>2019-06-04T08:08:45Z</time>
      </trkpt>
      <trkpt lat="44.22152" lon="5.59616">
        <ele>735</ele>
        <time>2019-06-04T08:08:46Z</time>
      </trkpt>
      <trkpt lat="44.22151" lon="5.59607">
        <ele>735</ele>
        <time>2019-06-04T08:08:47Z</time>
      </trkpt>
      <trkpt lat="44.22149" lon="5.59597">
        <ele>735</ele>
        <time>2019-06-04T08:08:48Z</time>
      </trkpt>
      <trkpt lat="44.22147" lon="5.59587">
        <ele>735</ele>
        <time>2019-06-04T08:08:49Z</time>
      </trkpt>
      <trkpt lat="44.22145" lon="5.59578">
        <ele>735</ele>
        <time>2019-06-04T08:08:50Z</time>
      </trkpt>
      <trkpt lat="44.22144" lon="5.59568">
        <ele>735</ele>
        <time>2019-06-04T08:08:51Z</time>
      </trkpt>
      <trkpt lat="44.22142" lon="5.59559">
        <ele>735</ele>
        <time>2019-06-04T08:08:52Z</time>
      </trkpt>
      <trkpt lat="44.2214" lon="5.59549">
        <ele>735</ele>
        <time>2019-06-04T08:08:53Z</time>
      </trkpt>
      <trkpt lat="44.22138" lon="5.59539">
        <ele>735</ele>
        <time>2019-06-04T08:08:54Z</time>
      </trkpt>
      <trkpt lat="44.22136" lon="5.59529">
        <ele>735</ele>
        <time>2019-06-04T08:08:55Z</time>
      </trkpt>
      <trkpt lat="44.22134" lon="5.59519">
        <ele>735</ele>
        <time>2019-06-04T08:08:56Z</time>
      </trkpt>
      <trkpt lat="44.22133" lon="5.5951">
        <ele>735</ele>
        <time>2019-06-04T08:08:57Z</time>
      </trkpt>
      <trkpt lat="44.22131" lon="5.59501">
        <ele>735</ele>
        <time>2019-06-04T08:08:58Z</time>
      </trkpt>
      <trkpt lat="44.2213" lon="5.59492">
        <ele>735</ele>
        <time>2019-06-04T08:08:59Z</time>
      </trkpt>
      <trkpt lat="44.22128" lon="5.59483">
        <ele>735</ele>
        <time>2019-06-04T08:09:00Z</time>
      </trkpt>
      <trkpt lat="44.22126" lon="5.59475">
        <ele>735</ele>
        <time>2019-06-04T08:09:01Z</time>
      </trkpt>
      <trkpt lat="44.22125" lon="5.59467">
        <ele>735</ele>
        <time>2019-06-04T08:09:02Z</time>
      </trkpt>
      <trkpt lat="44.22124" lon="5.59458">
        <ele>735</ele>
        <time>2019-06-04T08:09:03Z</time>
      </trkpt>
      <trkpt lat="44.22122" lon="5.5945">
        <ele>735</ele>
        <time>2019-06-04T08:09:04Z</time>
      </trkpt>
      <trkpt lat="44.22121" lon="5.59442">
        <ele>735</ele>
        <time>2019-06-04T08:09:05Z</time>
      </trkpt>
      <trkpt lat="44.22119" lon="5.59435">
        <ele>735</ele>
        <time>2019-06-04T08:09:06Z</time>
      </trkpt>
      <trkpt lat="44.22118" lon="5.59427">
        <ele>735</ele>
        <time>2019-06-04T08:09:07Z</time>
      </trkpt>
      <trkpt lat="44.22116" lon="5.59419">
        <ele>735</ele>
        <time>2019-06-04T08:09:08Z</time>
      </trkpt>
      <trkpt lat="44.22115" lon="5.59411">
        <ele>735</ele>
        <time>2019-06-04T08:09:09Z</time>
      </trkpt>
      <trkpt lat="44.22114" lon="5.59403">
        <ele>735</ele>
        <time>2019-06-04T08:09:10Z</time>
      </trkpt>
      <trkpt lat="44.22112" lon="5.59395">
        <ele>735</ele>
        <time>2019-06-04T08:09:11Z</time>
      </trkpt>
      <trkpt lat="44.22111" lon="5.59386">
        <ele>735</ele>
        <time>2019-06-04T08:09:12Z</time>
      </trkpt>
      <trkpt lat="44.2211" lon="5.59377">
        <ele>735</ele>
        <time>2019-06-04T08:09:13Z</time>
      </trkpt>
      <trkpt lat="44.22108" lon="5.59369">
        <ele>735</ele>
        <time>2019-06-04T08:09:14Z</time>
      </trkpt>
      <trkpt lat="44.22107" lon="5.5936">
        <ele>735</ele>
        <time>2019-06-04T08:09:15Z</time>
      </trkpt>
      <trkpt lat="44.22105" lon="5.5935">
        <ele>735</ele>
        <time>2019-06-04T08:09:16Z</time>
      </trkpt>
      <trkpt lat="44.22104" lon="5.59341">
        <ele>735</ele>
        <time>2019-06-04T08:09:17Z</time>
      </trkpt>
      <trkpt lat="44.22102" lon="5.59332">
        <ele>735</ele>
        <time>2019-06-04T08:09:18Z</time>
      </trkpt>
      <trkpt lat="44.22101" lon="5.59323">
        <ele>735</ele>
        <time>2019-06-04T08:09:19Z</time>
      </trkpt>
      <trkpt lat="44.22099" lon="5.59314">
        <ele>735</ele>
        <time>2019-06-04T08:09:20Z</time>
      </trkpt>
      <trkpt lat="44.22098" lon="5.59305">
        <ele>735</ele>
        <time>2019-06-04T08:09:21Z</time>
      </trkpt>
      <trkpt lat="44.22097" lon="5.59295">
        <ele>735</ele>
        <time>2019-06-04T08:09:22Z</time>
      </trkpt>
      <trkpt lat="44.22095" lon="5.59286">
        <ele>735</ele>
        <time>2019-06-04T08:09:23Z</time>
      </trkpt>
      <trkpt lat="44.22094" lon="5.59277">
        <ele>735</ele>
        <time>2019-06-04T08:09:24Z</time>
      </trkpt>
      <trkpt lat="44.22092" lon="5.59268">
        <ele>735</ele>
        <time>2019-06-04T08:09:25Z</time>
      </trkpt>
      <trkpt lat="44.22091" lon="5.59259">
        <ele>735</ele>
        <time>2019-06-04T08:09:26Z</time>
      </trkpt>
      <trkpt lat="44.22089" lon="5.5925">
        <ele>735</ele>
        <time>2019-06-04T08:09:27Z</time>
      </trkpt>
      <trkpt lat="44.22088" lon="5.59241">
        <ele>735</ele>
        <time>2019-06-04T08:09:28Z</time>
      </trkpt>
      <trkpt lat="44.22087" lon="5.59233">
        <ele>735</ele>
        <time>2019-06-04T08:09:29Z</time>
      </trkpt>
      <trkpt lat="44.22085" lon="5.59224">
        <ele>735</ele>
        <time>2019-06-04T08:09:30Z</time>
      </trkpt>
      <trkpt lat="44.22084" lon="5.59216">
        <ele>735</ele>
        <time>2019-06-04T08:09:31Z</time>
      </trkpt>
      <trkpt lat="44.22083" lon="5.59207">
        <ele>735</ele>
        <time>2019-06-04T08:09:32Z</time>
      </trkpt>
      <trkpt lat="44.22082" lon="5.59199">
        <ele>735</ele>
        <time>2019-06-04T08:09:33Z</time>
      </trkpt>
      <trkpt lat="44.22081" lon="5.5919">
        <ele>735</ele>
        <time>2019-06-04T08:09:34Z</time>
      </trkpt>
      <trkpt lat="44.22081" lon="5.59181">
        <ele>735</ele>
        <time>2019-06-04T08:09:35Z</time>
      </trkpt>
      <trkpt lat="44.2208" lon="5.59173">
        <ele>735</ele>
        <time>2019-06-04T08:09:36Z</time>
      </trkpt>
      <trkpt lat="44.2208" lon="5.59164">
        <ele>735</ele>
        <time>2019-06-04T08:09:37Z</time>
      </trkpt>
      <trkpt lat="44.2208" lon="5.59156">
        <ele>735</ele>
        <time>2019-06-04T08:09:38Z</time>
      </trkpt>
      <trkpt lat="44.2208" lon="5.59148">
        <ele>735</ele>
        <time>2019-06-04T08:09:39Z</time>
      </trkpt>
      <trkpt lat="44.2208" lon="5.59139">
        <ele>735</ele>
        <time>2019-06-04T08:09:40Z</time>
      </trkpt>
      <trkpt lat="44.22081" lon="5.5913">
        <ele>735</ele>
        <time>2019-06-04T08:09:41Z</time>
      </trkpt>
      <trkpt lat="44.22081" lon="5.59122">
        <ele>735</ele>
        <time>2019-06-04T08:09:42Z</time>
      </trkpt>
      <trkpt lat="44.22082" lon="5.59113">
        <ele>735</ele>
        <time>2019-06-04T08:09:43Z</time>
      </trkpt>
      <trkpt lat="44.22084" lon="5.59104">
        <ele>735</ele>
        <time>2019-06-04T08:09:44Z</time>
      </trkpt>
      <trkpt lat="44.22085" lon="5.59096">
        <ele>735</ele>
        <time>2019-06-04T08:09:45Z</time>
      </trkpt>
      <trkpt lat="44.22087" lon="5.59087">
        <ele>735</ele>
        <time>2019-06-04T08:09:46Z</time>
      </trkpt>
      <trkpt lat="44.22088" lon="5.59079">
        <ele>735</ele>
        <time>2019-06-04T08:09:47Z</time>
      </trkpt>
      <trkpt lat="44.2209" lon="5.5907">
        <ele>735</ele>
        <time>2019-06-04T08:09:48Z</time>
      </trkpt>
      <trkpt lat="44.22092" lon="5.59062">
        <ele>735</ele>
        <time>2019-06-04T08:09:49Z</time>
      </trkpt>
      <trkpt lat="44.22094" lon="5.59054">
        <ele>735</ele>
        <time>2019-06-04T08:09:50Z</time>
      </trkpt>
      <trkpt lat="44.22096" lon="5.59046">
        <ele>735</ele>
        <time>2019-06-04T08:09:51Z</time>
      </trkpt>
      <trkpt lat="44.22098" lon="5.59038">
        <ele>735</ele>
        <time>2019-06-04T08:09:52Z</time>
      </trkpt>
      <trkpt lat="44.221" lon="5.5903">
        <ele>735</ele>
        <time>2019-06-04T08:09:53Z</time>
      </trkpt>
      <trkpt lat="44.22101" lon="5.59022">
        <ele>735</ele>
        <time>2019-06-04T08:09:54Z</time>
      </trkpt>
      <trkpt lat="44.22103" lon="5.59014">
        <ele>735</ele>
        <time>2019-06-04T08:09:55Z</time>
      </trkpt>
      <trkpt lat="44.22105" lon="5.59006">
        <ele>735</ele>
        <time>2019-06-04T08:09:56Z</time>
      </trkpt>
      <trkpt lat="44.22106" lon="5.58998">
        <ele>735</ele>
        <time>2019-06-04T08:09:57Z</time>
      </trkpt>
      <trkpt lat="44.22107" lon="5.5899">
        <ele>735</ele>
        <time>2019-06-04T08:09:58Z</time>
      </trkpt>
      <trkpt lat="44.22107" lon="5.58982">
        <ele>735</ele>
        <time>2019-06-04T08:09:59Z</time>
      </trkpt>
      <trkpt lat="44.22108" lon="5.58973">
        <ele>735</ele>
        <time>2019-06-04T08:10:00Z</time>
      </trkpt>
      <trkpt lat="44.22108" lon="5.58965">
        <ele>736</ele>
        <time>2019-06-04T08:10:01Z</time>
      </trkpt>
      <trkpt lat="44.22109" lon="5.58956">
        <ele>736</ele>
        <time>2019-06-04T08:10:02Z</time>
      </trkpt>
      <trkpt lat="44.22109" lon="5.58948">
        <ele>736</ele>
        <time>2019-06-04T08:10:03Z</time>
      </trkpt>
      <trkpt lat="44.2211" lon="5.5894">
        <ele>736</ele>
        <time>2019-06-04T08:10:04Z</time>
      </trkpt>
      <trkpt lat="44.22109" lon="5.58932">
        <ele>737</ele>
        <time>2019-06-04T08:10:05Z</time>
      </trkpt>
      <trkpt lat="44.22109" lon="5.58923">
        <ele>737</ele>
        <time>2019-06-04T08:10:06Z</time>
      </trkpt>
      <trkpt lat="44.22109" lon="5.58915">
        <ele>737</ele>
        <time>2019-06-04T08:10:07Z</time>
      </trkpt>
      <trkpt lat="44.22109" lon="5.58907">
        <ele>738</ele>
        <time>2019-06-04T08:10:08Z</time>
      </trkpt>
      <trkpt lat="44.22109" lon="5.58899">
        <ele>738</ele>
        <time>2019-06-04T08:10:09Z</time>
      </trkpt>
      <trkpt lat="44.22109" lon="5.58891">
        <ele>738</ele>
        <time>2019-06-04T08:10:10Z</time>
      </trkpt>
      <trkpt lat="44.22109" lon="5.58883">
        <ele>738</ele>
        <time>2019-06-04T08:10:11Z</time>
      </trkpt>
      <trkpt lat="44.2211" lon="5.58874">
        <ele>738</ele>
        <time>2019-06-04T08:10:12Z</time>
      </trkpt>
      <trkpt lat="44.2211" lon="5.58866">
        <ele>738</ele>
        <time>2019-06-04T08:10:13Z</time>
      </trkpt>
      <trkpt lat="44.2211" lon="5.58858">
        <ele>738</ele>
        <time>2019-06-04T08:10:14Z</time>
      </trkpt>
      <trkpt lat="44.22109" lon="5.5885">
        <ele>739</ele>
        <time>2019-06-04T08:10:15Z</time>
      </trkpt>
      <trkpt lat="44.22109" lon="5.58842">
        <ele>739</ele>
        <time>2019-06-04T08:10:16Z</time>
      </trkpt>
      <trkpt lat="44.22109" lon="5.58835">
        <ele>739</ele>
        <time>2019-06-04T08:10:17Z</time>
      </trkpt>
      <trkpt lat="44.22109" lon="5.58827">
        <ele>739</ele>
        <time>2019-06-04T08:10:18Z</time>
      </trkpt>
      <trkpt lat="44.22109" lon="5.58819">
        <ele>739</ele>
        <time>2019-06-04T08:10:19Z</time>
      </trkpt>
      <trkpt lat="44.22109" lon="5.58812">
        <ele>740</ele>
        <time>2019-06-04T08:10:20Z</time>
      </trkpt>
      <trkpt lat="44.22109" lon="5.58804">
        <ele>740</ele>
        <time>2019-06-04T08:10:21Z</time>
      </trkpt>
      <trkpt lat="44.22108" lon="5.58795">
        <ele>740</ele>
        <time>2019-06-04T08:10:22Z</time>
      </trkpt>
      <trkpt lat="44.22108" lon="5.58786">
        <ele>740</ele>
        <time>2019-06-04T08:10:23Z</time>
      </trkpt>
      <trkpt lat="44.22109" lon="5.58778">
        <ele>740</ele>
        <time>2019-06-04T08:10:24Z</time>
      </trkpt>
      <trkpt lat="44.22109" lon="5.58769">
        <ele>740</ele>
        <time>2019-06-04T08:10:25Z</time>
      </trkpt>
      <trkpt lat="44.22108" lon="5.5876">
        <ele>740</ele>
        <time>2019-06-04T08:10:26Z</time>
      </trkpt>
      <trkpt lat="44.22108" lon="5.58751">
        <ele>740</ele>
        <time>2019-06-04T08:10:27Z</time>
      </trkpt>
      <trkpt lat="44.22108" lon="5.58742">
        <ele>740</ele>
        <time>2019-06-04T08:10:28Z</time>
      </trkpt>
      <trkpt lat="44.22108" lon="5.58734">
        <ele>740</ele>
        <time>2019-06-04T08:10:29Z</time>
      </trkpt>
      <trkpt lat="44.22108" lon="5.58725">
        <ele>740</ele>
        <time>2019-06-04T08:10:30Z</time>
      </trkpt>
      <trkpt lat="44.22108" lon="5.58717">
        <ele>740</ele>
        <time>2019-06-04T08:10:31Z</time>
      </trkpt>
      <trkpt lat="44.22107" lon="5.58709">
        <ele>740</ele>
        <time>2019-06-04T08:10:32Z</time>
      </trkpt>
      <trkpt lat="44.22107" lon="5.58701">
        <ele>740</ele>
        <time>2019-06-04T08:10:33Z</time>
      </trkpt>
      <trkpt lat="44.22107" lon="5.58694">
        <ele>740</ele>
        <time>2019-06-04T08:10:34Z</time>
      </trkpt>
      <trkpt lat="44.22107" lon="5.58686">
        <ele>740</ele>
        <time>2019-06-04T08:10:35Z</time>
      </trkpt>
      <trkpt lat="44.22107" lon="5.58679">
        <ele>740</ele>
        <time>2019-06-04T08:10:36Z</time>
      </trkpt>
      <trkpt lat="44.22107" lon="5.58672">
        <ele>740</ele>
        <time>2019-06-04T08:10:37Z</time>
      </trkpt>
      <trkpt lat="44.22107" lon="5.58664">
        <ele>740</ele>
        <time>2019-06-04T08:10:38Z</time>
      </trkpt>
      <trkpt lat="44.22107" lon="5.58657">
        <ele>740</ele>
        <time>2019-06-04T08:10:39Z</time>
      </trkpt>
      <trkpt lat="44.22106" lon="5.58649">
        <ele>741</ele>
        <time>2019-06-04T08:10:40Z</time>
      </trkpt>
      <trkpt lat="44.22106" lon="5.58642">
        <ele>741</ele>
        <time>2019-06-04T08:10:41Z</time>
      </trkpt>
      <trkpt lat="44.22106" lon="5.58636">
        <ele>741</ele>
        <time>2019-06-04T08:10:42Z</time>
      </trkpt>
      <trkpt lat="44.22106" lon="5.58628">
        <ele>741</ele>
        <time>2019-06-04T08:10:43Z</time>
      </trkpt>
      <trkpt lat="44.22106" lon="5.5862">
        <ele>742</ele>
        <time>2019-06-04T08:10:44Z</time>
      </trkpt>
      <trkpt lat="44.22106" lon="5.58612">
        <ele>742</ele>
        <time>2019-06-04T08:10:45Z</time>
      </trkpt>
      <trkpt lat="44.22106" lon="5.58604">
        <ele>742</ele>
        <time>2019-06-04T08:10:46Z</time>
      </trkpt>
      <trkpt lat="44.22105" lon="5.58595">
        <ele>743</ele>
        <time>2019-06-04T08:10:47Z</time>
      </trkpt>
      <trkpt lat="44.22105" lon="5.58587">
        <ele>743</ele>
        <time>2019-06-04T08:10:48Z</time>
      </trkpt>
      <trkpt lat="44.22105" lon="5.58578">
        <ele>743</ele>
        <time>2019-06-04T08:10:49Z</time>
      </trkpt>
      <trkpt lat="44.22105" lon="5.5857">
        <ele>743</ele>
        <time>2019-06-04T08:10:50Z</time>
      </trkpt>
      <trkpt lat="44.22105" lon="5.58563">
        <ele>744</ele>
        <time>2019-06-04T08:10:51Z</time>
      </trkpt>
      <trkpt lat="44.22105" lon="5.58555">
        <ele>744</ele>
        <time>2019-06-04T08:10:52Z</time>
      </trkpt>
      <trkpt lat="44.22105" lon="5.58547">
        <ele>744</ele>
        <time>2019-06-04T08:10:53Z</time>
      </trkpt>
      <trkpt lat="44.22105" lon="5.5854">
        <ele>745</ele>
        <time>2019-06-04T08:10:54Z</time>
      </trkpt>
      <trkpt lat="44.22104" lon="5.58532">
        <ele>745</ele>
        <time>2019-06-04T08:10:55Z</time>
      </trkpt>
      <trkpt lat="44.22104" lon="5.58525">
        <ele>745</ele>
        <time>2019-06-04T08:10:56Z</time>
      </trkpt>
      <trkpt lat="44.22104" lon="5.58517">
        <ele>745</ele>
        <time>2019-06-04T08:10:57Z</time>
      </trkpt>
      <trkpt lat="44.22104" lon="5.58509">
        <ele>746</ele>
        <time>2019-06-04T08:10:58Z</time>
      </trkpt>
      <trkpt lat="44.22104" lon="5.58502">
        <ele>746</ele>
        <time>2019-06-04T08:10:59Z</time>
      </trkpt>
      <trkpt lat="44.22103" lon="5.58494">
        <ele>746</ele>
        <time>2019-06-04T08:11:00Z</time>
      </trkpt>
      <trkpt lat="44.22103" lon="5.58487">
        <ele>746</ele>
        <time>2019-06-04T08:11:01Z</time>
      </trkpt>
      <trkpt lat="44.22103" lon="5.58479">
        <ele>746</ele>
        <time>2019-06-04T08:11:02Z</time>
      </trkpt>
      <trkpt lat="44.22103" lon="5.58471">
        <ele>746</ele>
        <time>2019-06-04T08:11:03Z</time>
      </trkpt>
      <trkpt lat="44.22103" lon="5.58464">
        <ele>746</ele>
        <time>2019-06-04T08:11:04Z</time>
      </trkpt>
      <trkpt lat="44.22103" lon="5.58456">
        <ele>747</ele>
        <time>2019-06-04T08:11:05Z</time>
      </trkpt>
      <trkpt lat="44.22103" lon="5.58449">
        <ele>747</ele>
        <time>2019-06-04T08:11:06Z</time>
      </trkpt>
      <trkpt lat="44.22102" lon="5.58442">
        <ele>747</ele>
        <time>2019-06-04T08:11:07Z</time>
      </trkpt>
      <trkpt lat="44.22102" lon="5.58434">
        <ele>747</ele>
        <time>2019-06-04T08:11:08Z</time>
      </trkpt>
      <trkpt lat="44.22102" lon="5.58427">
        <ele>747</ele>
        <time>2019-06-04T08:11:09Z</time>
      </trkpt>
      <trkpt lat="44.22102" lon="5.5842">
        <ele>747</ele>
        <time>2019-06-04T08:11:10Z</time>
      </trkpt>
      <trkpt lat="44.22102" lon="5.58413">
        <ele>748</ele>
        <time>2019-06-04T08:11:11Z</time>
      </trkpt>
      <trkpt lat="44.22102" lon="5.58405">
        <ele>748</ele>
        <time>2019-06-04T08:11:12Z</time>
      </trkpt>
      <trkpt lat="44.22102" lon="5.58397">
        <ele>748</ele>
        <time>2019-06-04T08:11:13Z</time>
      </trkpt>
      <trkpt lat="44.22102" lon="5.5839">
        <ele>748</ele>
        <time>2019-06-04T08:11:14Z</time>
      </trkpt>
      <trkpt lat="44.22102" lon="5.58382">
        <ele>748</ele>
        <time>2019-06-04T08:11:15Z</time>
      </trkpt>
      <trkpt lat="44.22102" lon="5.58375">
        <ele>748</ele>
        <time>2019-06-04T08:11:16Z</time>
      </trkpt>
      <trkpt lat="44.22102" lon="5.58367">
        <ele>748</ele>
        <time>2019-06-04T08:11:17Z</time>
      </trkpt>
      <trkpt lat="44.22102" lon="5.5836">
        <ele>748</ele>
        <time>2019-06-04T08:11:18Z</time>
      </trkpt>
      <trkpt lat="44.22102" lon="5.58353">
        <ele>748</ele>
        <time>2019-06-04T08:11:19Z</time>
      </trkpt>
      <trkpt lat="44.22102" lon="5.58345">
        <ele>748</ele>
        <time>2019-06-04T08:11:20Z</time>
      </trkpt>
      <trkpt lat="44.22102" lon="5.58338">
        <ele>748</ele>
        <time>2019-06-04T08:11:21Z</time>
      </trkpt>
      <trkpt lat="44.22102" lon="5.5833">
        <ele>748</ele>
        <time>2019-06-04T08:11:22Z</time>
      </trkpt>
      <trkpt lat="44.22102" lon="5.58322">
        <ele>748</ele>
        <time>2019-06-04T08:11:23Z</time>
      </trkpt>
      <trkpt lat="44.22102" lon="5.58314">
        <ele>749</ele>
        <time>2019-06-04T08:11:24Z</time>
      </trkpt>
      <trkpt lat="44.22102" lon="5.58306">
        <ele>749</ele>
        <time>2019-06-04T08:11:25Z</time>
      </trkpt>
      <trkpt lat="44.22101" lon="5.58297">
        <ele>749</ele>
        <time>2019-06-04T08:11:26Z</time>
      </trkpt>
      <trkpt lat="44.22101" lon="5.58289">
        <ele>749</ele>
        <time>2019-06-04T08:11:27Z</time>
      </trkpt>
      <trkpt lat="44.22101" lon="5.5828">
        <ele>749</ele>
        <time>2019-06-04T08:11:28Z</time>
      </trkpt>
      <trkpt lat="44.22101" lon="5.58272">
        <ele>749</ele>
        <time>2019-06-04T08:11:29Z</time>
      </trkpt>
      <trkpt lat="44.22101" lon="5.58263">
        <ele>749</ele>
        <time>2019-06-04T08:11:30Z</time>
      </trkpt>
      <trkpt lat="44.22101" lon="5.58254">
        <ele>749</ele>
        <time>2019-06-04T08:11:31Z</time>
      </trkpt>
      <trkpt lat="44.22102" lon="5.58245">
        <ele>749</ele>
        <time>2019-06-04T08:11:32Z</time>
      </trkpt>
      <trkpt lat="44.22103" lon="5.58236">
        <ele>749</ele>
        <time>2019-06-04T08:11:33Z</time>
      </trkpt>
      <trkpt lat="44.22103" lon="5.58227">
        <ele>749</ele>
        <time>2019-06-04T08:11:34Z</time>
      </trkpt>
      <trkpt lat="44.22104" lon="5.58217">
        <ele>749</ele>
        <time>2019-06-04T08:11:35Z</time>
      </trkpt>
      <trkpt lat="44.22105" lon="5.58208">
        <ele>749</ele>
        <time>2019-06-04T08:11:36Z</time>
      </trkpt>
      <trkpt lat="44.22106" lon="5.58199">
        <ele>749</ele>
        <time>2019-06-04T08:11:37Z</time>
      </trkpt>
      <trkpt lat="44.22107" lon="5.5819">
        <ele>749</ele>
        <time>2019-06-04T08:11:38Z</time>
      </trkpt>
      <trkpt lat="44.22108" lon="5.5818">
        <ele>749</ele>
        <time>2019-06-04T08:11:39Z</time>
      </trkpt>
      <trkpt lat="44.22109" lon="5.58171">
        <ele>749</ele>
        <time>2019-06-04T08:11:40Z</time>
      </trkpt>
      <trkpt lat="44.2211" lon="5.58161">
        <ele>749</ele>
        <time>2019-06-04T08:11:41Z</time>
      </trkpt>
      <trkpt lat="44.22111" lon="5.58151">
        <ele>749</ele>
        <time>2019-06-04T08:11:42Z</time>
      </trkpt>
      <trkpt lat="44.22112" lon="5.58141">
        <ele>749</ele>
        <time>2019-06-04T08:11:43Z</time>
      </trkpt>
      <trkpt lat="44.22113" lon="5.58132">
        <ele>749</ele>
        <time>2019-06-04T08:11:44Z</time>
      </trkpt>
      <trkpt lat="44.22114" lon="5.58122">
        <ele>749</ele>
        <time>2019-06-04T08:11:45Z</time>
      </trkpt>
      <trkpt lat="44.22114" lon="5.58112">
        <ele>749</ele>
        <time>2019-06-04T08:11:46Z</time>
      </trkpt>
      <trkpt lat="44.22115" lon="5.58102">
        <ele>749</ele>
        <time>2019-06-04T08:11:47Z</time>
      </trkpt>
      <trkpt lat="44.22115" lon="5.58092">
        <ele>749</ele>
        <time>2019-06-04T08:11:48Z</time>
      </trkpt>
      <trkpt lat="44.22116" lon="5.58082">
        <ele>749</ele>
        <time>2019-06-04T08:11:49Z</time>
      </trkpt>
      <trkpt lat="44.22118" lon="5.58073">
        <ele>749</ele>
        <time>2019-06-04T08:11:50Z</time>
      </trkpt>
      <trkpt lat="44.22119" lon="5.58062">
        <ele>749</ele>
        <time>2019-06-04T08:11:51Z</time>
      </trkpt>
      <trkpt lat="44.2212" lon="5.58052">
        <ele>749</ele>
        <time>2019-06-04T08:11:52Z</time>
      </trkpt>
      <trkpt lat="44.22121" lon="5.58042">
        <ele>749</ele>
        <time>2019-06-04T08:11:53Z</time>
      </trkpt>
      <trkpt lat="44.22123" lon="5.58032">
        <ele>749</ele>
        <time>2019-06-04T08:11:54Z</time>
      </trkpt>
      <trkpt lat="44.22123" lon="5.58022">
        <ele>749</ele>
        <time>2019-06-04T08:11:55Z</time>
      </trkpt>
      <trkpt lat="44.22124" lon="5.58011">
        <ele>749</ele>
        <time>2019-06-04T08:11:56Z</time>
      </trkpt>
      <trkpt lat="44.22126" lon="5.58001">
        <ele>749</ele>
        <time>2019-06-04T08:11:57Z</time>
      </trkpt>
      <trkpt lat="44.22126" lon="5.57991">
        <ele>749</ele>
        <time>2019-06-04T08:11:58Z</time>
      </trkpt>
      <trkpt lat="44.22127" lon="5.57981">
        <ele>749</ele>
        <time>2019-06-04T08:11:59Z</time>
      </trkpt>
      <trkpt lat="44.22129" lon="5.57971">
        <ele>749</ele>
        <time>2019-06-04T08:12:00Z</time>
      </trkpt>
      <trkpt lat="44.22129" lon="5.57961">
        <ele>749</ele>
        <time>2019-06-04T08:12:01Z</time>
      </trkpt>
      <trkpt lat="44.2213" lon="5.57951">
        <ele>749</ele>
        <time>2019-06-04T08:12:02Z</time>
      </trkpt>
      <trkpt lat="44.22132" lon="5.57941">
        <ele>749</ele>
        <time>2019-06-04T08:12:03Z</time>
      </trkpt>
      <trkpt lat="44.22133" lon="5.57931">
        <ele>749</ele>
        <time>2019-06-04T08:12:04Z</time>
      </trkpt>
      <trkpt lat="44.22134" lon="5.57921">
        <ele>749</ele>
        <time>2019-06-04T08:12:05Z</time>
      </trkpt>
      <trkpt lat="44.22136" lon="5.5791">
        <ele>749</ele>
        <time>2019-06-04T08:12:06Z</time>
      </trkpt>
      <trkpt lat="44.22136" lon="5.579">
        <ele>749</ele>
        <time>2019-06-04T08:12:07Z</time>
      </trkpt>
      <trkpt lat="44.22137" lon="5.5789">
        <ele>749</ele>
        <time>2019-06-04T08:12:08Z</time>
      </trkpt>
      <trkpt lat="44.22138" lon="5.57881">
        <ele>749</ele>
        <time>2019-06-04T08:12:09Z</time>
      </trkpt>
      <trkpt lat="44.22139" lon="5.57871">
        <ele>749</ele>
        <time>2019-06-04T08:12:10Z</time>
      </trkpt>
      <trkpt lat="44.2214" lon="5.57861">
        <ele>749</ele>
        <time>2019-06-04T08:12:11Z</time>
      </trkpt>
      <trkpt lat="44.22141" lon="5.57852">
        <ele>749</ele>
        <time>2019-06-04T08:12:12Z</time>
      </trkpt>
      <trkpt lat="44.22142" lon="5.57842">
        <ele>749</ele>
        <time>2019-06-04T08:12:13Z</time>
      </trkpt>
      <trkpt lat="44.22143" lon="5.57832">
        <ele>749</ele>
        <time>2019-06-04T08:12:14Z</time>
      </trkpt>
      <trkpt lat="44.22144" lon="5.57823">
        <ele>749</ele>
        <time>2019-06-04T08:12:15Z</time>
      </trkpt>
      <trkpt lat="44.22144" lon="5.57814">
        <ele>749</ele>
        <time>2019-06-04T08:12:16Z</time>
      </trkpt>
      <trkpt lat="44.22144" lon="5.57805">
        <ele>749</ele>
        <time>2019-06-04T08:12:17Z</time>
      </trkpt>
      <trkpt lat="44.22145" lon="5.57796">
        <ele>749</ele>
        <time>2019-06-04T08:12:18Z</time>
      </trkpt>
      <trkpt lat="44.22144" lon="5.57787">
        <ele>749</ele>
        <time>2019-06-04T08:12:19Z</time>
      </trkpt>
      <trkpt lat="44.22144" lon="5.57777">
        <ele>749</ele>
        <time>2019-06-04T08:12:20Z</time>
      </trkpt>
      <trkpt lat="44.22144" lon="5.57768">
        <ele>749</ele>
        <time>2019-06-04T08:12:21Z</time>
      </trkpt>
      <trkpt lat="44.22144" lon="5.57758">
        <ele>749</ele>
        <time>2019-06-04T08:12:22Z</time>
      </trkpt>
      <trkpt lat="44.22144" lon="5.57749">
        <ele>749</ele>
        <time>2019-06-04T08:12:23Z</time>
      </trkpt>
      <trkpt lat="44.22144" lon="5.5774">
        <ele>749</ele>
        <time>2019-06-04T08:12:24Z</time>
      </trkpt>
      <trkpt lat="44.22143" lon="5.5773">
        <ele>749</ele>
        <time>2019-06-04T08:12:25Z</time>
      </trkpt>
      <trkpt lat="44.22143" lon="5.57721">
        <ele>749</ele>
        <time>2019-06-04T08:12:26Z</time>
      </trkpt>
      <trkpt lat="44.22142" lon="5.57712">
        <ele>749</ele>
        <time>2019-06-04T08:12:27Z</time>
      </trkpt>
      <trkpt lat="44.22142" lon="5.57702">
        <ele>749</ele>
        <time>2019-06-04T08:12:28Z</time>
      </trkpt>
      <trkpt lat="44.22141" lon="5.57693">
        <ele>749</ele>
        <time>2019-06-04T08:12:29Z</time>
      </trkpt>
      <trkpt lat="44.22141" lon="5.57684">
        <ele>749</ele>
        <time>2019-06-04T08:12:30Z</time>
      </trkpt>
      <trkpt lat="44.22141" lon="5.57674">
        <ele>749</ele>
        <time>2019-06-04T08:12:31Z</time>
      </trkpt>
      <trkpt lat="44.2214" lon="5.57664">
        <ele>749</ele>
        <time>2019-06-04T08:12:32Z</time>
      </trkpt>
      <trkpt lat="44.2214" lon="5.57655">
        <ele>749</ele>
        <time>2019-06-04T08:12:33Z</time>
      </trkpt>
      <trkpt lat="44.22139" lon="5.57646">
        <ele>750</ele>
        <time>2019-06-04T08:12:34Z</time>
      </trkpt>
      <trkpt lat="44.22139" lon="5.57636">
        <ele>750</ele>
        <time>2019-06-04T08:12:35Z</time>
      </trkpt>
      <trkpt lat="44.22139" lon="5.57626">
        <ele>750</ele>
        <time>2019-06-04T08:12:36Z</time>
      </trkpt>
      <trkpt lat="44.22139" lon="5.57617">
        <ele>750</ele>
        <time>2019-06-04T08:12:37Z</time>
      </trkpt>
      <trkpt lat="44.22139" lon="5.57607">
        <ele>750</ele>
        <time>2019-06-04T08:12:38Z</time>
      </trkpt>
      <trkpt lat="44.22139" lon="5.57598">
        <ele>750</ele>
        <time>2019-06-04T08:12:39Z</time>
      </trkpt>
      <trkpt lat="44.22139" lon="5.57588">
        <ele>750</ele>
        <time>2019-06-04T08:12:40Z</time>
      </trkpt>
      <trkpt lat="44.22139" lon="5.57579">
        <ele>751</ele>
        <time>2019-06-04T08:12:41Z</time>
      </trkpt>
      <trkpt lat="44.22139" lon="5.57569">
        <ele>751</ele>
        <time>2019-06-04T08:12:42Z</time>
      </trkpt>
      <trkpt lat="44.22138" lon="5.5756">
        <ele>751</ele>
        <time>2019-06-04T08:12:43Z</time>
      </trkpt>
      <trkpt lat="44.22138" lon="5.5755">
        <ele>751</ele>
        <time>2019-06-04T08:12:44Z</time>
      </trkpt>
      <trkpt lat="44.22138" lon="5.57541">
        <ele>751</ele>
        <time>2019-06-04T08:12:45Z</time>
      </trkpt>
      <trkpt lat="44.22137" lon="5.57531">
        <ele>751</ele>
        <time>2019-06-04T08:12:46Z</time>
      </trkpt>
      <trkpt lat="44.22137" lon="5.57521">
        <ele>751</ele>
        <time>2019-06-04T08:12:47Z</time>
      </trkpt>
      <trkpt lat="44.22137" lon="5.57512">
        <ele>751</ele>
        <time>2019-06-04T08:12:48Z</time>
      </trkpt>
      <trkpt lat="44.22137" lon="5.57503">
        <ele>751</ele>
        <time>2019-06-04T08:12:49Z</time>
      </trkpt>
      <trkpt lat="44.22137" lon="5.57493">
        <ele>751</ele>
        <time>2019-06-04T08:12:50Z</time>
      </trkpt>
      <trkpt lat="44.22137" lon="5.57484">
        <ele>751</ele>
        <time>2019-06-04T08:12:51Z</time>
      </trkpt>
      <trkpt lat="44.22137" lon="5.57475">
        <ele>751</ele>
        <time>2019-06-04T08:12:52Z</time>
      </trkpt>
      <trkpt lat="44.22136" lon="5.57465">
        <ele>752</ele>
        <time>2019-06-04T08:12:53Z</time>
      </trkpt>
      <trkpt lat="44.22136" lon="5.57455">
        <ele>752</ele>
        <time>2019-06-04T08:12:54Z</time>
      </trkpt>
      <trkpt lat="44.22136" lon="5.57446">
        <ele>752</ele>
        <time>2019-06-04T08:12:55Z</time>
      </trkpt>
      <trkpt lat="44.22135" lon="5.57436">
        <ele>752</ele>
        <time>2019-06-04T08:12:56Z</time>
      </trkpt>
      <trkpt lat="44.22135" lon="5.57427">
        <ele>752</ele>
        <time>2019-06-04T08:12:57Z</time>
      </trkpt>
      <trkpt lat="44.22134" lon="5.57417">
        <ele>752</ele>
        <time>2019-06-04T08:12:58Z</time>
      </trkpt>
      <trkpt lat="44.22134" lon="5.57408">
        <ele>752</ele>
        <time>2019-06-04T08:12:59Z</time>
      </trkpt>
      <trkpt lat="44.22134" lon="5.57398">
        <ele>752</ele>
        <time>2019-06-04T08:13:00Z</time>
      </trkpt>
      <trkpt lat="44.22133" lon="5.57389">
        <ele>752</ele>
        <time>2019-06-04T08:13:01Z</time>
      </trkpt>
      <trkpt lat="44.22133" lon="5.57379">
        <ele>752</ele>
        <time>2019-06-04T08:13:02Z</time>
      </trkpt>
      <trkpt lat="44.22133" lon="5.5737">
        <ele>752</ele>
        <time>2019-06-04T08:13:03Z</time>
      </trkpt>
      <trkpt lat="44.22133" lon="5.57361">
        <ele>752</ele>
        <time>2019-06-04T08:13:04Z</time>
      </trkpt>
      <trkpt lat="44.22133" lon="5.57351">
        <ele>752</ele>
        <time>2019-06-04T08:13:05Z</time>
      </trkpt>
      <trkpt lat="44.22132" lon="5.57342">
        <ele>752</ele>
        <time>2019-06-04T08:13:06Z</time>
      </trkpt>
      <trkpt lat="44.22132" lon="5.57333">
        <ele>753</ele>
        <time>2019-06-04T08:13:07Z</time>
      </trkpt>
      <trkpt lat="44.22132" lon="5.57324">
        <ele>753</ele>
        <time>2019-06-04T08:13:08Z</time>
      </trkpt>
      <trkpt lat="44.22131" lon="5.57315">
        <ele>753</ele>
        <time>2019-06-04T08:13:09Z</time>
      </trkpt>
      <trkpt lat="44.22131" lon="5.57306">
        <ele>753</ele>
        <time>2019-06-04T08:13:10Z</time>
      </trkpt>
      <trkpt lat="44.2213" lon="5.57297">
        <ele>753</ele>
        <time>2019-06-04T08:13:11Z</time>
      </trkpt>
      <trkpt lat="44.2213" lon="5.57288">
        <ele>753</ele>
        <time>2019-06-04T08:13:12Z</time>
      </trkpt>
      <trkpt lat="44.22129" lon="5.57278">
        <ele>753</ele>
        <time>2019-06-04T08:13:13Z</time>
      </trkpt>
      <trkpt lat="44.22129" lon="5.57269">
        <ele>753</ele>
        <time>2019-06-04T08:13:14Z</time>
      </trkpt>
      <trkpt lat="44.22129" lon="5.57259">
        <ele>753</ele>
        <time>2019-06-04T08:13:15Z</time>
      </trkpt>
      <trkpt lat="44.22129" lon="5.5725">
        <ele>753</ele>
        <time>2019-06-04T08:13:16Z</time>
      </trkpt>
      <trkpt lat="44.22128" lon="5.5724">
        <ele>753</ele>
        <time>2019-06-04T08:13:17Z</time>
      </trkpt>
      <trkpt lat="44.22128" lon="5.5723">
        <ele>753</ele>
        <time>2019-06-04T08:13:18Z</time>
      </trkpt>
      <trkpt lat="44.22128" lon="5.57221">
        <ele>753</ele>
        <time>2019-06-04T08:13:19Z</time>
      </trkpt>
      <trkpt lat="44.22127" lon="5.57211">
        <ele>753</ele>
        <time>2019-06-04T08:13:20Z</time>
      </trkpt>
      <trkpt lat="44.22127" lon="5.57201">
        <ele>753</ele>
        <time>2019-06-04T08:13:21Z</time>
      </trkpt>
      <trkpt lat="44.22127" lon="5.57191">
        <ele>753</ele>
        <time>2019-06-04T08:13:22Z</time>
      </trkpt>
      <trkpt lat="44.22127" lon="5.57181">
        <ele>753</ele>
        <time>2019-06-04T08:13:23Z</time>
      </trkpt>
      <trkpt lat="44.22126" lon="5.57171">
        <ele>753</ele>
        <time>2019-06-04T08:13:24Z</time>
      </trkpt>
      <trkpt lat="44.22126" lon="5.57162">
        <ele>753</ele>
        <time>2019-06-04T08:13:25Z</time>
      </trkpt>
      <trkpt lat="44.22126" lon="5.57152">
        <ele>753</ele>
        <time>2019-06-04T08:13:26Z</time>
      </trkpt>
      <trkpt lat="44.22126" lon="5.57143">
        <ele>753</ele>
        <time>2019-06-04T08:13:27Z</time>
      </trkpt>
      <trkpt lat="44.22125" lon="5.57134">
        <ele>753</ele>
        <time>2019-06-04T08:13:28Z</time>
      </trkpt>
      <trkpt lat="44.22125" lon="5.57125">
        <ele>753</ele>
        <time>2019-06-04T08:13:29Z</time>
      </trkpt>
      <trkpt lat="44.22125" lon="5.57115">
        <ele>753</ele>
        <time>2019-06-04T08:13:30Z</time>
      </trkpt>
      <trkpt lat="44.22124" lon="5.57106">
        <ele>753</ele>
        <time>2019-06-04T08:13:31Z</time>
      </trkpt>
      <trkpt lat="44.22124" lon="5.57097">
        <ele>753</ele>
        <time>2019-06-04T08:13:32Z</time>
      </trkpt>
      <trkpt lat="44.22124" lon="5.57087">
        <ele>753</ele>
        <time>2019-06-04T08:13:33Z</time>
      </trkpt>
      <trkpt lat="44.22124" lon="5.57078">
        <ele>753</ele>
        <time>2019-06-04T08:13:34Z</time>
      </trkpt>
      <trkpt lat="44.22123" lon="5.57069">
        <ele>753</ele>
        <time>2019-06-04T08:13:35Z</time>
      </trkpt>
      <trkpt lat="44.22123" lon="5.5706">
        <ele>753</ele>
        <time>2019-06-04T08:13:36Z</time>
      </trkpt>
      <trkpt lat="44.22123" lon="5.57051">
        <ele>753</ele>
        <time>2019-06-04T08:13:37Z</time>
      </trkpt>
      <trkpt lat="44.22123" lon="5.57042">
        <ele>753</ele>
        <time>2019-06-04T08:13:38Z</time>
      </trkpt>
      <trkpt lat="44.22123" lon="5.57033">
        <ele>753</ele>
        <time>2019-06-04T08:13:39Z</time>
      </trkpt>
      <trkpt lat="44.22123" lon="5.57024">
        <ele>753</ele>
        <time>2019-06-04T08:13:40Z</time>
      </trkpt>
      <trkpt lat="44.22123" lon="5.57015">
        <ele>753</ele>
        <time>2019-06-04T08:13:41Z</time>
      </trkpt>
      <trkpt lat="44.22123" lon="5.57006">
        <ele>753</ele>
        <time>2019-06-04T08:13:42Z</time>
      </trkpt>
      <trkpt lat="44.22123" lon="5.56997">
        <ele>753</ele>
        <time>2019-06-04T08:13:43Z</time>
      </trkpt>
      <trkpt lat="44.22123" lon="5.56988">
        <ele>753</ele>
        <time>2019-06-04T08:13:44Z</time>
      </trkpt>
      <trkpt lat="44.22123" lon="5.56979">
        <ele>753</ele>
        <time>2019-06-04T08:13:45Z</time>
      </trkpt>
      <trkpt lat="44.22123" lon="5.56969">
        <ele>753</ele>
        <time>2019-06-04T08:13:46Z</time>
      </trkpt>
      <trkpt lat="44.22123" lon="5.5696">
        <ele>753</ele>
        <time>2019-06-04T08:13:47Z</time>
      </trkpt>
      <trkpt lat="44.22122" lon="5.56951">
        <ele>753</ele>
        <time>2019-06-04T08:13:48Z</time>
      </trkpt>
      <trkpt lat="44.22122" lon="5.56942">
        <ele>753</ele>
        <time>2019-06-04T08:13:49Z</time>
      </trkpt>
      <trkpt lat="44.22122" lon="5.56932">
        <ele>753</ele>
        <time>2019-06-04T08:13:50Z</time>
      </trkpt>
      <trkpt lat="44.22122" lon="5.56923">
        <ele>753</ele>
        <time>2019-06-04T08:13:51Z</time>
      </trkpt>
      <trkpt lat="44.22121" lon="5.56914">
        <ele>753</ele>
        <time>2019-06-04T08:13:52Z</time>
      </trkpt>
      <trkpt lat="44.22121" lon="5.56905">
        <ele>753</ele>
        <time>2019-06-04T08:13:53Z</time>
      </trkpt>
      <trkpt lat="44.22121" lon="5.56895">
        <ele>753</ele>
        <time>2019-06-04T08:13:54Z</time>
      </trkpt>
      <trkpt lat="44.2212" lon="5.56886">
        <ele>753</ele>
        <time>2019-06-04T08:13:55Z</time>
      </trkpt>
      <trkpt lat="44.2212" lon="5.56878">
        <ele>753</ele>
        <time>2019-06-04T08:13:56Z</time>
      </trkpt>
      <trkpt lat="44.2212" lon="5.56869">
        <ele>753</ele>
        <time>2019-06-04T08:13:57Z</time>
      </trkpt>
      <trkpt lat="44.22119" lon="5.5686">
        <ele>753</ele>
        <time>2019-06-04T08:13:58Z</time>
      </trkpt>
      <trkpt lat="44.22119" lon="5.56851">
        <ele>753</ele>
        <time>2019-06-04T08:13:59Z</time>
      </trkpt>
      <trkpt lat="44.22119" lon="5.56842">
        <ele>753</ele>
        <time>2019-06-04T08:14:00Z</time>
      </trkpt>
      <trkpt lat="44.22118" lon="5.56834">
        <ele>753</ele>
        <time>2019-06-04T08:14:01Z</time>
      </trkpt>
      <trkpt lat="44.22118" lon="5.56824">
        <ele>753</ele>
        <time>2019-06-04T08:14:02Z</time>
      </trkpt>
      <trkpt lat="44.22118" lon="5.56815">
        <ele>753</ele>
        <time>2019-06-04T08:14:03Z</time>
      </trkpt>
      <trkpt lat="44.22118" lon="5.56807">
        <ele>753</ele>
        <time>2019-06-04T08:14:04Z</time>
      </trkpt>
      <trkpt lat="44.22118" lon="5.56798">
        <ele>753</ele>
        <time>2019-06-04T08:14:05Z</time>
      </trkpt>
      <trkpt lat="44.22118" lon="5.56788">
        <ele>753</ele>
        <time>2019-06-04T08:14:06Z</time>
      </trkpt>
      <trkpt lat="44.22117" lon="5.56779">
        <ele>753</ele>
        <time>2019-06-04T08:14:07Z</time>
      </trkpt>
      <trkpt lat="44.22117" lon="5.56771">
        <ele>753</ele>
        <time>2019-06-04T08:14:08Z</time>
      </trkpt>
      <trkpt lat="44.22117" lon="5.56762">
        <ele>753</ele>
        <time>2019-06-04T08:14:09Z</time>
      </trkpt>
      <trkpt lat="44.22117" lon="5.56753">
        <ele>754</ele>
        <time>2019-06-04T08:14:10Z</time>
      </trkpt>
      <trkpt lat="44.22116" lon="5.56744">
        <ele>754</ele>
        <time>2019-06-04T08:14:11Z</time>
      </trkpt>
      <trkpt lat="44.22116" lon="5.56735">
        <ele>754</ele>
        <time>2019-06-04T08:14:12Z</time>
      </trkpt>
      <trkpt lat="44.22116" lon="5.56726">
        <ele>754</ele>
        <time>2019-06-04T08:14:13Z</time>
      </trkpt>
      <trkpt lat="44.22115" lon="5.56718">
        <ele>754</ele>
        <time>2019-06-04T08:14:14Z</time>
      </trkpt>
      <trkpt lat="44.22116" lon="5.56709">
        <ele>754</ele>
        <time>2019-06-04T08:14:15Z</time>
      </trkpt>
      <trkpt lat="44.22115" lon="5.56701">
        <ele>754</ele>
        <time>2019-06-04T08:14:16Z</time>
      </trkpt>
      <trkpt lat="44.22115" lon="5.56692">
        <ele>755</ele>
        <time>2019-06-04T08:14:17Z</time>
      </trkpt>
      <trkpt lat="44.22115" lon="5.56684">
        <ele>755</ele>
        <time>2019-06-04T08:14:18Z</time>
      </trkpt>
      <trkpt lat="44.22114" lon="5.56675">
        <ele>755</ele>
        <time>2019-06-04T08:14:19Z</time>
      </trkpt>
      <trkpt lat="44.22114" lon="5.56667">
        <ele>755</ele>
        <time>2019-06-04T08:14:20Z</time>
      </trkpt>
      <trkpt lat="44.22114" lon="5.56658">
        <ele>756</ele>
        <time>2019-06-04T08:14:21Z</time>
      </trkpt>
      <trkpt lat="44.22114" lon="5.56649">
        <ele>756</ele>
        <time>2019-06-04T08:14:22Z</time>
      </trkpt>
      <trkpt lat="44.22113" lon="5.5664">
        <ele>756</ele>
        <time>2019-06-04T08:14:23Z</time>
      </trkpt>
      <trkpt lat="44.22114" lon="5.56632">
        <ele>756</ele>
        <time>2019-06-04T08:14:24Z</time>
      </trkpt>
      <trkpt lat="44.22114" lon="5.56622">
        <ele>757</ele>
        <time>2019-06-04T08:14:25Z</time>
      </trkpt>
      <trkpt lat="44.22113" lon="5.56613">
        <ele>757</ele>
        <time>2019-06-04T08:14:26Z</time>
      </trkpt>
      <trkpt lat="44.22113" lon="5.56604">
        <ele>757</ele>
        <time>2019-06-04T08:14:27Z</time>
      </trkpt>
      <trkpt lat="44.22113" lon="5.56595">
        <ele>758</ele>
        <time>2019-06-04T08:14:28Z</time>
      </trkpt>
      <trkpt lat="44.22113" lon="5.56586">
        <ele>758</ele>
        <time>2019-06-04T08:14:29Z</time>
      </trkpt>
      <trkpt lat="44.22113" lon="5.56577">
        <ele>758</ele>
        <time>2019-06-04T08:14:30Z</time>
      </trkpt>
      <trkpt lat="44.22113" lon="5.56568">
        <ele>759</ele>
        <time>2019-06-04T08:14:31Z</time>
      </trkpt>
      <trkpt lat="44.22113" lon="5.5656">
        <ele>759</ele>
        <time>2019-06-04T08:14:32Z</time>
      </trkpt>
      <trkpt lat="44.22113" lon="5.56551">
        <ele>759</ele>
        <time>2019-06-04T08:14:33Z</time>
      </trkpt>
      <trkpt lat="44.22113" lon="5.56543">
        <ele>759</ele>
        <time>2019-06-04T08:14:34Z</time>
      </trkpt>
      <trkpt lat="44.22113" lon="5.56534">
        <ele>760</ele>
        <time>2019-06-04T08:14:35Z</time>
      </trkpt>
      <trkpt lat="44.22112" lon="5.56525">
        <ele>760</ele>
        <time>2019-06-04T08:14:36Z</time>
      </trkpt>
      <trkpt lat="44.22112" lon="5.56517">
        <ele>760</ele>
        <time>2019-06-04T08:14:37Z</time>
      </trkpt>
      <trkpt lat="44.22111" lon="5.56508">
        <ele>760</ele>
        <time>2019-06-04T08:14:38Z</time>
      </trkpt>
      <trkpt lat="44.22111" lon="5.56499">
        <ele>760</ele>
        <time>2019-06-04T08:14:39Z</time>
      </trkpt>
      <trkpt lat="44.2211" lon="5.5649">
        <ele>760</ele>
        <time>2019-06-04T08:14:40Z</time>
      </trkpt>
      <trkpt lat="44.2211" lon="5.56481">
        <ele>760</ele>
        <time>2019-06-04T08:14:41Z</time>
      </trkpt>
      <trkpt lat="44.2211" lon="5.56472">
        <ele>761</ele>
        <time>2019-06-04T08:14:42Z</time>
      </trkpt>
      <trkpt lat="44.22109" lon="5.56462">
        <ele>761</ele>
        <time>2019-06-04T08:14:43Z</time>
      </trkpt>
      <trkpt lat="44.22109" lon="5.56453">
        <ele>761</ele>
        <time>2019-06-04T08:14:44Z</time>
      </trkpt>
      <trkpt lat="44.22108" lon="5.56444">
        <ele>761</ele>
        <time>2019-06-04T08:14:45Z</time>
      </trkpt>
      <trkpt lat="44.22107" lon="5.56435">
        <ele>761</ele>
        <time>2019-06-04T08:14:46Z</time>
      </trkpt>
      <trkpt lat="44.22106" lon="5.56426">
        <ele>761</ele>
        <time>2019-06-04T08:14:47Z</time>
      </trkpt>
      <trkpt lat="44.22105" lon="5.56417">
        <ele>761</ele>
        <time>2019-06-04T08:14:48Z</time>
      </trkpt>
      <trkpt lat="44.22105" lon="5.56408">
        <ele>761</ele>
        <time>2019-06-04T08:14:49Z</time>
      </trkpt>
      <trkpt lat="44.22104" lon="5.56398">
        <ele>761</ele>
        <time>2019-06-04T08:14:50Z</time>
      </trkpt>
      <trkpt lat="44.22103" lon="5.56389">
        <ele>761</ele>
        <time>2019-06-04T08:14:51Z</time>
      </trkpt>
      <trkpt lat="44.22102" lon="5.5638">
        <ele>761</ele>
        <time>2019-06-04T08:14:52Z</time>
      </trkpt>
      <trkpt lat="44.22101" lon="5.56371">
        <ele>761</ele>
        <time>2019-06-04T08:14:53Z</time>
      </trkpt>
      <trkpt lat="44.221" lon="5.56362">
        <ele>761</ele>
        <time>2019-06-04T08:14:54Z</time>
      </trkpt>
      <trkpt lat="44.22099" lon="5.56353">
        <ele>761</ele>
        <time>2019-06-04T08:14:55Z</time>
      </trkpt>
      <trkpt lat="44.22099" lon="5.56344">
        <ele>762</ele>
        <time>2019-06-04T08:14:56Z</time>
      </trkpt>
      <trkpt lat="44.22098" lon="5.56334">
        <ele>762</ele>
        <time>2019-06-04T08:14:57Z</time>
      </trkpt>
      <trkpt lat="44.22097" lon="5.56325">
        <ele>762</ele>
        <time>2019-06-04T08:14:58Z</time>
      </trkpt>
      <trkpt lat="44.22096" lon="5.56315">
        <ele>762</ele>
        <time>2019-06-04T08:14:59Z</time>
      </trkpt>
      <trkpt lat="44.22095" lon="5.56306">
        <ele>762</ele>
        <time>2019-06-04T08:15:00Z</time>
      </trkpt>
      <trkpt lat="44.22094" lon="5.56296">
        <ele>762</ele>
        <time>2019-06-04T08:15:01Z</time>
      </trkpt>
      <trkpt lat="44.22094" lon="5.56287">
        <ele>762</ele>
        <time>2019-06-04T08:15:02Z</time>
      </trkpt>
      <trkpt lat="44.22093" lon="5.56277">
        <ele>762</ele>
        <time>2019-06-04T08:15:03Z</time>
      </trkpt>
      <trkpt lat="44.22092" lon="5.56268">
        <ele>762</ele>
        <time>2019-06-04T08:15:04Z</time>
      </trkpt>
      <trkpt lat="44.22091" lon="5.56258">
        <ele>762</ele>
        <time>2019-06-04T08:15:05Z</time>
      </trkpt>
      <trkpt lat="44.2209" lon="5.56248">
        <ele>762</ele>
        <time>2019-06-04T08:15:06Z</time>
      </trkpt>
      <trkpt lat="44.22089" lon="5.56238">
        <ele>762</ele>
        <time>2019-06-04T08:15:07Z</time>
      </trkpt>
      <trkpt lat="44.22088" lon="5.56228">
        <ele>762</ele>
        <time>2019-06-04T08:15:08Z</time>
      </trkpt>
      <trkpt lat="44.22087" lon="5.56217">
        <ele>762</ele>
        <time>2019-06-04T08:15:09Z</time>
      </trkpt>
      <trkpt lat="44.22086" lon="5.56207">
        <ele>762</ele>
        <time>2019-06-04T08:15:10Z</time>
      </trkpt>
      <trkpt lat="44.22085" lon="5.56196">
        <ele>762</ele>
        <time>2019-06-04T08:15:11Z</time>
      </trkpt>
      <trkpt lat="44.22084" lon="5.56186">
        <ele>762</ele>
        <time>2019-06-04T08:15:12Z</time>
      </trkpt>
      <trkpt lat="44.22083" lon="5.56176">
        <ele>762</ele>
        <time>2019-06-04T08:15:13Z</time>
      </trkpt>
      <trkpt lat="44.22081" lon="5.56166">
        <ele>762</ele>
        <time>2019-06-04T08:15:14Z</time>
      </trkpt>
      <trkpt lat="44.2208" lon="5.56156">
        <ele>762</ele>
        <time>2019-06-04T08:15:15Z</time>
      </trkpt>
      <trkpt lat="44.22079" lon="5.56146">
        <ele>762</ele>
        <time>2019-06-04T08:15:16Z</time>
      </trkpt>
      <trkpt lat="44.22078" lon="5.56136">
        <ele>762</ele>
        <time>2019-06-04T08:15:17Z</time>
      </trkpt>
      <trkpt lat="44.22077" lon="5.56125">
        <ele>762</ele>
        <time>2019-06-04T08:15:18Z</time>
      </trkpt>
      <trkpt lat="44.22076" lon="5.56115">
        <ele>762</ele>
        <time>2019-06-04T08:15:19Z</time>
      </trkpt>
      <trkpt lat="44.22074" lon="5.56104">
        <ele>762</ele>
        <time>2019-06-04T08:15:20Z</time>
      </trkpt>
      <trkpt lat="44.22073" lon="5.56094">
        <ele>762</ele>
        <time>2019-06-04T08:15:21Z</time>
      </trkpt>
      <trkpt lat="44.22072" lon="5.56083">
        <ele>762</ele>
        <time>2019-06-04T08:15:22Z</time>
      </trkpt>
      <trkpt lat="44.22071" lon="5.56072">
        <ele>762</ele>
        <time>2019-06-04T08:15:23Z</time>
      </trkpt>
      <trkpt lat="44.2207" lon="5.56062">
        <ele>762</ele>
        <time>2019-06-04T08:15:24Z</time>
      </trkpt>
      <trkpt lat="44.22069" lon="5.56051">
        <ele>762</ele>
        <time>2019-06-04T08:15:25Z</time>
      </trkpt>
      <trkpt lat="44.22068" lon="5.5604">
        <ele>762</ele>
        <time>2019-06-04T08:15:26Z</time>
      </trkpt>
      <trkpt lat="44.22066" lon="5.56029">
        <ele>762</ele>
        <time>2019-06-04T08:15:27Z</time>
      </trkpt>
      <trkpt lat="44.22065" lon="5.56018">
        <ele>762</ele>
        <time>2019-06-04T08:15:28Z</time>
      </trkpt>
      <trkpt lat="44.22064" lon="5.56008">
        <ele>762</ele>
        <time>2019-06-04T08:15:29Z</time>
      </trkpt>
      <trkpt lat="44.22063" lon="5.55997">
        <ele>762</ele>
        <time>2019-06-04T08:15:30Z</time>
      </trkpt>
      <trkpt lat="44.22063" lon="5.55986">
        <ele>762</ele>
        <time>2019-06-04T08:15:31Z</time>
      </trkpt>
      <trkpt lat="44.22062" lon="5.55976">
        <ele>762</ele>
        <time>2019-06-04T08:15:32Z</time>
      </trkpt>
      <trkpt lat="44.2206" lon="5.55966">
        <ele>762</ele>
        <time>2019-06-04T08:15:33Z</time>
      </trkpt>
      <trkpt lat="44.2206" lon="5.55956">
        <ele>762</ele>
        <time>2019-06-04T08:15:34Z</time>
      </trkpt>
      <trkpt lat="44.22058" lon="5.55945">
        <ele>762</ele>
        <time>2019-06-04T08:15:35Z</time>
      </trkpt>
      <trkpt lat="44.22057" lon="5.55935">
        <ele>762</ele>
        <time>2019-06-04T08:15:36Z</time>
      </trkpt>
      <trkpt lat="44.22056" lon="5.55926">
        <ele>762</ele>
        <time>2019-06-04T08:15:37Z</time>
      </trkpt>
      <trkpt lat="44.22055" lon="5.55916">
        <ele>762</ele>
        <time>2019-06-04T08:15:38Z</time>
      </trkpt>
      <trkpt lat="44.22054" lon="5.55906">
        <ele>762</ele>
        <time>2019-06-04T08:15:39Z</time>
      </trkpt>
      <trkpt lat="44.22053" lon="5.55896">
        <ele>762</ele>
        <time>2019-06-04T08:15:40Z</time>
      </trkpt>
      <trkpt lat="44.22052" lon="5.55887">
        <ele>762</ele>
        <time>2019-06-04T08:15:41Z</time>
      </trkpt>
      <trkpt lat="44.2205" lon="5.55877">
        <ele>762</ele>
        <time>2019-06-04T08:15:42Z</time>
      </trkpt>
      <trkpt lat="44.22049" lon="5.55868">
        <ele>762</ele>
        <time>2019-06-04T08:15:43Z</time>
      </trkpt>
      <trkpt lat="44.22048" lon="5.55858">
        <ele>762</ele>
        <time>2019-06-04T08:15:44Z</time>
      </trkpt>
      <trkpt lat="44.22047" lon="5.55849">
        <ele>762</ele>
        <time>2019-06-04T08:15:45Z</time>
      </trkpt>
      <trkpt lat="44.22046" lon="5.55839">
        <ele>762</ele>
        <time>2019-06-04T08:15:46Z</time>
      </trkpt>
      <trkpt lat="44.22045" lon="5.55829">
        <ele>762</ele>
        <time>2019-06-04T08:15:47Z</time>
      </trkpt>
      <trkpt lat="44.22044" lon="5.5582">
        <ele>762</ele>
        <time>2019-06-04T08:15:48Z</time>
      </trkpt>
      <trkpt lat="44.22043" lon="5.5581">
        <ele>762</ele>
        <time>2019-06-04T08:15:49Z</time>
      </trkpt>
      <trkpt lat="44.22042" lon="5.558">
        <ele>762</ele>
        <time>2019-06-04T08:15:50Z</time>
      </trkpt>
      <trkpt lat="44.22041" lon="5.55791">
        <ele>762</ele>
        <time>2019-06-04T08:15:51Z</time>
      </trkpt>
      <trkpt lat="44.2204" lon="5.55781">
        <ele>762</ele>
        <time>2019-06-04T08:15:52Z</time>
      </trkpt>
      <trkpt lat="44.22039" lon="5.55771">
        <ele>762</ele>
        <time>2019-06-04T08:15:53Z</time>
      </trkpt>
      <trkpt lat="44.22038" lon="5.55761">
        <ele>762</ele>
        <time>2019-06-04T08:15:54Z</time>
      </trkpt>
      <trkpt lat="44.22037" lon="5.55752">
        <ele>762</ele>
        <time>2019-06-04T08:15:55Z</time>
      </trkpt>
      <trkpt lat="44.22036" lon="5.55743">
        <ele>762</ele>
        <time>2019-06-04T08:15:56Z</time>
      </trkpt>
      <trkpt lat="44.22035" lon="5.55733">
        <ele>762</ele>
        <time>2019-06-04T08:15:57Z</time>
      </trkpt>
      <trkpt lat="44.22034" lon="5.55724">
        <ele>762</ele>
        <time>2019-06-04T08:15:58Z</time>
      </trkpt>
      <trkpt lat="44.22033" lon="5.55715">
        <ele>762</ele>
        <time>2019-06-04T08:15:59Z</time>
      </trkpt>
      <trkpt lat="44.22032" lon="5.55705">
        <ele>762</ele>
        <time>2019-06-04T08:16:00Z</time>
      </trkpt>
      <trkpt lat="44.22031" lon="5.55696">
        <ele>762</ele>
        <time>2019-06-04T08:16:01Z</time>
      </trkpt>
      <trkpt lat="44.2203" lon="5.55686">
        <ele>762</ele>
        <time>2019-06-04T08:16:02Z</time>
      </trkpt>
      <trkpt lat="44.22029" lon="5.55677">
        <ele>762</ele>
        <time>2019-06-04T08:16:03Z</time>
      </trkpt>
      <trkpt lat="44.22028" lon="5.55667">
        <ele>762</ele>
        <time>2019-06-04T08:16:04Z</time>
      </trkpt>
      <trkpt lat="44.22027" lon="5.55658">
        <ele>762</ele>
        <time>2019-06-04T08:16:05Z</time>
      </trkpt>
      <trkpt lat="44.22026" lon="5.55649">
        <ele>762</ele>
        <time>2019-06-04T08:16:06Z</time>
      </trkpt>
      <trkpt lat="44.22025" lon="5.55639">
        <ele>762</ele>
        <time>2019-06-04T08:16:07Z</time>
      </trkpt>
      <trkpt lat="44.22024" lon="5.5563">
        <ele>763</ele>
        <time>2019-06-04T08:16:08Z</time>
      </trkpt>
      <trkpt lat="44.22023" lon="5.55621">
        <ele>763</ele>
        <time>2019-06-04T08:16:09Z</time>
      </trkpt>
      <trkpt lat="44.22022" lon="5.55612">
        <ele>763</ele>
        <time>2019-06-04T08:16:10Z</time>
      </trkpt>
      <trkpt lat="44.22021" lon="5.55603">
        <ele>763</ele>
        <time>2019-06-04T08:16:11Z</time>
      </trkpt>
      <trkpt lat="44.2202" lon="5.55593">
        <ele>763</ele>
        <time>2019-06-04T08:16:12Z</time>
      </trkpt>
      <trkpt lat="44.22019" lon="5.55584">
        <ele>764</ele>
        <time>2019-06-04T08:16:13Z</time>
      </trkpt>
      <trkpt lat="44.22018" lon="5.55575">
        <ele>764</ele>
        <time>2019-06-04T08:16:14Z</time>
      </trkpt>
      <trkpt lat="44.22017" lon="5.55566">
        <ele>764</ele>
        <time>2019-06-04T08:16:15Z</time>
      </trkpt>
      <trkpt lat="44.22016" lon="5.55557">
        <ele>764</ele>
        <time>2019-06-04T08:16:16Z</time>
      </trkpt>
      <trkpt lat="44.22015" lon="5.55548">
        <ele>764</ele>
        <time>2019-06-04T08:16:17Z</time>
      </trkpt>
      <trkpt lat="44.22014" lon="5.55539">
        <ele>764</ele>
        <time>2019-06-04T08:16:18Z</time>
      </trkpt>
      <trkpt lat="44.22013" lon="5.55529">
        <ele>764</ele>
        <time>2019-06-04T08:16:19Z</time>
      </trkpt>
      <trkpt lat="44.22012" lon="5.5552">
        <ele>764</ele>
        <time>2019-06-04T08:16:20Z</time>
      </trkpt>
      <trkpt lat="44.22011" lon="5.55511">
        <ele>764</ele>
        <time>2019-06-04T08:16:21Z</time>
      </trkpt>
      <trkpt lat="44.2201" lon="5.55501">
        <ele>764</ele>
        <time>2019-06-04T08:16:22Z</time>
      </trkpt>
      <trkpt lat="44.22009" lon="5.55492">
        <ele>764</ele>
        <time>2019-06-04T08:16:23Z</time>
      </trkpt>
      <trkpt lat="44.22008" lon="5.55483">
        <ele>764</ele>
        <time>2019-06-04T08:16:24Z</time>
      </trkpt>
      <trkpt lat="44.22007" lon="5.55473">
        <ele>764</ele>
        <time>2019-06-04T08:16:25Z</time>
      </trkpt>
      <trkpt lat="44.22006" lon="5.55464">
        <ele>764</ele>
        <time>2019-06-04T08:16:26Z</time>
      </trkpt>
      <trkpt lat="44.22004" lon="5.55454">
        <ele>764</ele>
        <time>2019-06-04T08:16:27Z</time>
      </trkpt>
      <trkpt lat="44.22003" lon="5.55444">
        <ele>764</ele>
        <time>2019-06-04T08:16:28Z</time>
      </trkpt>
      <trkpt lat="44.22002" lon="5.55435">
        <ele>764</ele>
        <time>2019-06-04T08:16:29Z</time>
      </trkpt>
      <trkpt lat="44.22001" lon="5.55426">
        <ele>764</ele>
        <time>2019-06-04T08:16:30Z</time>
      </trkpt>
      <trkpt lat="44.22" lon="5.55416">
        <ele>764</ele>
        <time>2019-06-04T08:16:31Z</time>
      </trkpt>
      <trkpt lat="44.21999" lon="5.55407">
        <ele>764</ele>
        <time>2019-06-04T08:16:32Z</time>
      </trkpt>
      <trkpt lat="44.21999" lon="5.55398">
        <ele>764</ele>
        <time>2019-06-04T08:16:33Z</time>
      </trkpt>
      <trkpt lat="44.21997" lon="5.55388">
        <ele>764</ele>
        <time>2019-06-04T08:16:34Z</time>
      </trkpt>
      <trkpt lat="44.21997" lon="5.55379">
        <ele>764</ele>
        <time>2019-06-04T08:16:35Z</time>
      </trkpt>
      <trkpt lat="44.21996" lon="5.5537">
        <ele>764</ele>
        <time>2019-06-04T08:16:36Z</time>
      </trkpt>
      <trkpt lat="44.21995" lon="5.55361">
        <ele>764</ele>
        <time>2019-06-04T08:16:37Z</time>
      </trkpt>
      <trkpt lat="44.21994" lon="5.55351">
        <ele>764</ele>
        <time>2019-06-04T08:16:38Z</time>
      </trkpt>
      <trkpt lat="44.21993" lon="5.55342">
        <ele>764</ele>
        <time>2019-06-04T08:16:39Z</time>
      </trkpt>
      <trkpt lat="44.21992" lon="5.55333">
        <ele>764</ele>
        <time>2019-06-04T08:16:40Z</time>
      </trkpt>
      <trkpt lat="44.21991" lon="5.55324">
        <ele>764</ele>
        <time>2019-06-04T08:16:41Z</time>
      </trkpt>
      <trkpt lat="44.2199" lon="5.55314">
        <ele>764</ele>
        <time>2019-06-04T08:16:42Z</time>
      </trkpt>
      <trkpt lat="44.21989" lon="5.55305">
        <ele>764</ele>
        <time>2019-06-04T08:16:43Z</time>
      </trkpt>
      <trkpt lat="44.21988" lon="5.55296">
        <ele>764</ele>
        <time>2019-06-04T08:16:44Z</time>
      </trkpt>
      <trkpt lat="44.21987" lon="5.55287">
        <ele>765</ele>
        <time>2019-06-04T08:16:45Z</time>
      </trkpt>
      <trkpt lat="44.21986" lon="5.55278">
        <ele>765</ele>
        <time>2019-06-04T08:16:46Z</time>
      </trkpt>
      <trkpt lat="44.21985" lon="5.55269">
        <ele>765</ele>
        <time>2019-06-04T08:16:47Z</time>
      </trkpt>
      <trkpt lat="44.21984" lon="5.5526">
        <ele>765</ele>
        <time>2019-06-04T08:16:48Z</time>
      </trkpt>
      <trkpt lat="44.21983" lon="5.55251">
        <ele>765</ele>
        <time>2019-06-04T08:16:49Z</time>
      </trkpt>
      <trkpt lat="44.21982" lon="5.55242">
        <ele>766</ele>
        <time>2019-06-04T08:16:50Z</time>
      </trkpt>
      <trkpt lat="44.21981" lon="5.55234">
        <ele>766</ele>
        <time>2019-06-04T08:16:51Z</time>
      </trkpt>
      <trkpt lat="44.2198" lon="5.55225">
        <ele>766</ele>
        <time>2019-06-04T08:16:52Z</time>
      </trkpt>
      <trkpt lat="44.21979" lon="5.55217">
        <ele>766</ele>
        <time>2019-06-04T08:16:53Z</time>
      </trkpt>
      <trkpt lat="44.21978" lon="5.55209">
        <ele>767</ele>
        <time>2019-06-04T08:16:54Z</time>
      </trkpt>
      <trkpt lat="44.21976" lon="5.55201">
        <ele>767</ele>
        <time>2019-06-04T08:16:55Z</time>
      </trkpt>
      <trkpt lat="44.21975" lon="5.55193">
        <ele>767</ele>
        <time>2019-06-04T08:16:56Z</time>
      </trkpt>
      <trkpt lat="44.21973" lon="5.55185">
        <ele>767</ele>
        <time>2019-06-04T08:16:57Z</time>
      </trkpt>
      <trkpt lat="44.21972" lon="5.55177">
        <ele>768</ele>
        <time>2019-06-04T08:16:58Z</time>
      </trkpt>
      <trkpt lat="44.2197" lon="5.55169">
        <ele>768</ele>
        <time>2019-06-04T08:16:59Z</time>
      </trkpt>
      <trkpt lat="44.21968" lon="5.55162">
        <ele>768</ele>
        <time>2019-06-04T08:17:00Z</time>
      </trkpt>
      <trkpt lat="44.21966" lon="5.55155">
        <ele>768</ele>
        <time>2019-06-04T08:17:01Z</time>
      </trkpt>
      <trkpt lat="44.21964" lon="5.55147">
        <ele>769</ele>
        <time>2019-06-04T08:17:02Z</time>
      </trkpt>
      <trkpt lat="44.21962" lon="5.5514">
        <ele>769</ele>
        <time>2019-06-04T08:17:03Z</time>
      </trkpt>
      <trkpt lat="44.2196" lon="5.55132">
        <ele>769</ele>
        <time>2019-06-04T08:17:04Z</time>
      </trkpt>
      <trkpt lat="44.21957" lon="5.55125">
        <ele>769</ele>
        <time>2019-06-04T08:17:05Z</time>
      </trkpt>
      <trkpt lat="44.21955" lon="5.55118">
        <ele>770</ele>
        <time>2019-06-04T08:17:06Z</time>
      </trkpt>
      <trkpt lat="44.21952" lon="5.55111">
        <ele>770</ele>
        <time>2019-06-04T08:17:07Z</time>
      </trkpt>
      <trkpt lat="44.2195" lon="5.55104">
        <ele>771</ele>
        <time>2019-06-04T08:17:08Z</time>
      </trkpt>
      <trkpt lat="44.21947" lon="5.55097">
        <ele>771</ele>
        <time>2019-06-04T08:17:09Z</time>
      </trkpt>
      <trkpt lat="44.21944" lon="5.55089">
        <ele>772</ele>
        <time>2019-06-04T08:17:10Z</time>
      </trkpt>
      <trkpt lat="44.21941" lon="5.55082">
        <ele>772</ele>
        <time>2019-06-04T08:17:11Z</time>
      </trkpt>
      <trkpt lat="44.21939" lon="5.55075">
        <ele>773</ele>
        <time>2019-06-04T08:17:12Z</time>
      </trkpt>
      <trkpt lat="44.21937" lon="5.55068">
        <ele>773</ele>
        <time>2019-06-04T08:17:13Z</time>
      </trkpt>
      <trkpt lat="44.21934" lon="5.5506">
        <ele>773</ele>
        <time>2019-06-04T08:17:14Z</time>
      </trkpt>
      <trkpt lat="44.21931" lon="5.55054">
        <ele>773</ele>
        <time>2019-06-04T08:17:15Z</time>
      </trkpt>
      <trkpt lat="44.21929" lon="5.55047">
        <ele>773</ele>
        <time>2019-06-04T08:17:16Z</time>
      </trkpt>
      <trkpt lat="44.21927" lon="5.55039">
        <ele>773</ele>
        <time>2019-06-04T08:17:17Z</time>
      </trkpt>
      <trkpt lat="44.21925" lon="5.55032">
        <ele>773</ele>
        <time>2019-06-04T08:17:18Z</time>
      </trkpt>
      <trkpt lat="44.21922" lon="5.55024">
        <ele>773</ele>
        <time>2019-06-04T08:17:19Z</time>
      </trkpt>
      <trkpt lat="44.2192" lon="5.55017">
        <ele>773</ele>
        <time>2019-06-04T08:17:20Z</time>
      </trkpt>
      <trkpt lat="44.21917" lon="5.5501">
        <ele>773</ele>
        <time>2019-06-04T08:17:21Z</time>
      </trkpt>
      <trkpt lat="44.21914" lon="5.55002">
        <ele>773</ele>
        <time>2019-06-04T08:17:22Z</time>
      </trkpt>
      <trkpt lat="44.21912" lon="5.54995">
        <ele>773</ele>
        <time>2019-06-04T08:17:23Z</time>
      </trkpt>
      <trkpt lat="44.21909" lon="5.54988">
        <ele>773</ele>
        <time>2019-06-04T08:17:24Z</time>
      </trkpt>
      <trkpt lat="44.21906" lon="5.54981">
        <ele>774</ele>
        <time>2019-06-04T08:17:25Z</time>
      </trkpt>
      <trkpt lat="44.21904" lon="5.54973">
        <ele>774</ele>
        <time>2019-06-04T08:17:26Z</time>
      </trkpt>
      <trkpt lat="44.21901" lon="5.54966">
        <ele>774</ele>
        <time>2019-06-04T08:17:27Z</time>
      </trkpt>
      <trkpt lat="44.21898" lon="5.54959">
        <ele>775</ele>
        <time>2019-06-04T08:17:28Z</time>
      </trkpt>
      <trkpt lat="44.21896" lon="5.54952">
        <ele>775</ele>
        <time>2019-06-04T08:17:29Z</time>
      </trkpt>
      <trkpt lat="44.21893" lon="5.54946">
        <ele>776</ele>
        <time>2019-06-04T08:17:30Z</time>
      </trkpt>
      <trkpt lat="44.2189" lon="5.54938">
        <ele>776</ele>
        <time>2019-06-04T08:17:31Z</time>
      </trkpt>
      <trkpt lat="44.21887" lon="5.54931">
        <ele>777</ele>
        <time>2019-06-04T08:17:32Z</time>
      </trkpt>
      <trkpt lat="44.21885" lon="5.54925">
        <ele>778</ele>
        <time>2019-06-04T08:17:33Z</time>
      </trkpt>
      <trkpt lat="44.21882" lon="5.54918">
        <ele>778</ele>
        <time>2019-06-04T08:17:34Z</time>
      </trkpt>
      <trkpt lat="44.21879" lon="5.54911">
        <ele>779</ele>
        <time>2019-06-04T08:17:35Z</time>
      </trkpt>
      <trkpt lat="44.21877" lon="5.54904">
        <ele>779</ele>
        <time>2019-06-04T08:17:36Z</time>
      </trkpt>
      <trkpt lat="44.21874" lon="5.54897">
        <ele>779</ele>
        <time>2019-06-04T08:17:37Z</time>
      </trkpt>
      <trkpt lat="44.21872" lon="5.5489">
        <ele>780</ele>
        <time>2019-06-04T08:17:38Z</time>
      </trkpt>
      <trkpt lat="44.21869" lon="5.54883">
        <ele>780</ele>
        <time>2019-06-04T08:17:39Z</time>
      </trkpt>
      <trkpt lat="44.21866" lon="5.54876">
        <ele>781</ele>
        <time>2019-06-04T08:17:40Z</time>
      </trkpt>
      <trkpt lat="44.21864" lon="5.54869">
        <ele>781</ele>
        <time>2019-06-04T08:17:41Z</time>
      </trkpt>
      <trkpt lat="44.21861" lon="5.54861">
        <ele>781</ele>
        <time>2019-06-04T08:17:42Z</time>
      </trkpt>
      <trkpt lat="44.21858" lon="5.54854">
        <ele>781</ele>
        <time>2019-06-04T08:17:43Z</time>
      </trkpt>
      <trkpt lat="44.21855" lon="5.54847">
        <ele>782</ele>
        <time>2019-06-04T08:17:44Z</time>
      </trkpt>
      <trkpt lat="44.21852" lon="5.54839">
        <ele>782</ele>
        <time>2019-06-04T08:17:45Z</time>
      </trkpt>
      <trkpt lat="44.2185" lon="5.54832">
        <ele>782</ele>
        <time>2019-06-04T08:17:46Z</time>
      </trkpt>
      <trkpt lat="44.21847" lon="5.54824">
        <ele>782</ele>
        <time>2019-06-04T08:17:47Z</time>
      </trkpt>
      <trkpt lat="44.21844" lon="5.54817">
        <ele>783</ele>
        <time>2019-06-04T08:17:48Z</time>
      </trkpt>
      <trkpt lat="44.21841" lon="5.5481">
        <ele>783</ele>
        <time>2019-06-04T08:17:49Z</time>
      </trkpt>
      <trkpt lat="44.21838" lon="5.54802">
        <ele>783</ele>
        <time>2019-06-04T08:17:50Z</time>
      </trkpt>
      <trkpt lat="44.21836" lon="5.54795">
        <ele>783</ele>
        <time>2019-06-04T08:17:51Z</time>
      </trkpt>
      <trkpt lat="44.21833" lon="5.54788">
        <ele>783</ele>
        <time>2019-06-04T08:17:52Z</time>
      </trkpt>
      <trkpt lat="44.2183" lon="5.5478">
        <ele>783</ele>
        <time>2019-06-04T08:17:53Z</time>
      </trkpt>
      <trkpt lat="44.21827" lon="5.54773">
        <ele>783</ele>
        <time>2019-06-04T08:17:54Z</time>
      </trkpt>
      <trkpt lat="44.21824" lon="5.54765">
        <ele>783</ele>
        <time>2019-06-04T08:17:55Z</time>
      </trkpt>
      <trkpt lat="44.21822" lon="5.54757">
        <ele>783</ele>
        <time>2019-06-04T08:17:56Z</time>
      </trkpt>
      <trkpt lat="44.21819" lon="5.54748">
        <ele>783</ele>
        <time>2019-06-04T08:17:57Z</time>
      </trkpt>
      <trkpt lat="44.21816" lon="5.5474">
        <ele>783</ele>
        <time>2019-06-04T08:17:58Z</time>
      </trkpt>
      <trkpt lat="44.21813" lon="5.54731">
        <ele>783</ele>
        <time>2019-06-04T08:17:59Z</time>
      </trkpt>
      <trkpt lat="44.2181" lon="5.54723">
        <ele>783</ele>
        <time>2019-06-04T08:18:00Z</time>
      </trkpt>
      <trkpt lat="44.21806" lon="5.54714">
        <ele>783</ele>
        <time>2019-06-04T08:18:01Z</time>
      </trkpt>
      <trkpt lat="44.21803" lon="5.54705">
        <ele>783</ele>
        <time>2019-06-04T08:18:02Z</time>
      </trkpt>
      <trkpt lat="44.218" lon="5.54696">
        <ele>783</ele>
        <time>2019-06-04T08:18:03Z</time>
      </trkpt>
      <trkpt lat="44.21796" lon="5.54686">
        <ele>783</ele>
        <time>2019-06-04T08:18:04Z</time>
      </trkpt>
      <trkpt lat="44.21793" lon="5.54677">
        <ele>783</ele>
        <time>2019-06-04T08:18:06Z</time>
      </trkpt>
      <trkpt lat="44.21789" lon="5.54668">
        <ele>783</ele>
        <time>2019-06-04T08:18:06Z</time>
      </trkpt>
      <trkpt lat="44.21786" lon="5.54658">
        <ele>783</ele>
        <time>2019-06-04T08:18:07Z</time>
      </trkpt>
      <trkpt lat="44.21782" lon="5.54649">
        <ele>783</ele>
        <time>2019-06-04T08:18:08Z</time>
      </trkpt>
      <trkpt lat="44.21778" lon="5.54639">
        <ele>783</ele>
        <time>2019-06-04T08:18:09Z</time>
      </trkpt>
      <trkpt lat="44.21775" lon="5.54629">
        <ele>783</ele>
        <time>2019-06-04T08:18:10Z</time>
      </trkpt>
      <trkpt lat="44.21771" lon="5.5462">
        <ele>783</ele>
        <time>2019-06-04T08:18:11Z</time>
      </trkpt>
      <trkpt lat="44.21767" lon="5.5461">
        <ele>783</ele>
        <time>2019-06-04T08:18:12Z</time>
      </trkpt>
      <trkpt lat="44.21763" lon="5.546">
        <ele>783</ele>
        <time>2019-06-04T08:18:13Z</time>
      </trkpt>
      <trkpt lat="44.21759" lon="5.5459">
        <ele>783</ele>
        <time>2019-06-04T08:18:14Z</time>
      </trkpt>
      <trkpt lat="44.21755" lon="5.5458">
        <ele>783</ele>
        <time>2019-06-04T08:18:15Z</time>
      </trkpt>
      <trkpt lat="44.21751" lon="5.54571">
        <ele>783</ele>
        <time>2019-06-04T08:18:16Z</time>
      </trkpt>
      <trkpt lat="44.21748" lon="5.54561">
        <ele>783</ele>
        <time>2019-06-04T08:18:17Z</time>
      </trkpt>
      <trkpt lat="44.21744" lon="5.54552">
        <ele>783</ele>
        <time>2019-06-04T08:18:18Z</time>
      </trkpt>
      <trkpt lat="44.2174" lon="5.54543">
        <ele>783</ele>
        <time>2019-06-04T08:18:19Z</time>
      </trkpt>
      <trkpt lat="44.21736" lon="5.54533">
        <ele>783</ele>
        <time>2019-06-04T08:18:20Z</time>
      </trkpt>
      <trkpt lat="44.21732" lon="5.54524">
        <ele>783</ele>
        <time>2019-06-04T08:18:21Z</time>
      </trkpt>
      <trkpt lat="44.21729" lon="5.54514">
        <ele>783</ele>
        <time>2019-06-04T08:18:22Z</time>
      </trkpt>
      <trkpt lat="44.21725" lon="5.54503">
        <ele>783</ele>
        <time>2019-06-04T08:18:23Z</time>
      </trkpt>
      <trkpt lat="44.21722" lon="5.54494">
        <ele>783</ele>
        <time>2019-06-04T08:18:24Z</time>
      </trkpt>
      <trkpt lat="44.21718" lon="5.54484">
        <ele>783</ele>
        <time>2019-06-04T08:18:25Z</time>
      </trkpt>
      <trkpt lat="44.21714" lon="5.54473">
        <ele>783</ele>
        <time>2019-06-04T08:18:26Z</time>
      </trkpt>
      <trkpt lat="44.21711" lon="5.54463">
        <ele>783</ele>
        <time>2019-06-04T08:18:27Z</time>
      </trkpt>
      <trkpt lat="44.21706" lon="5.54453">
        <ele>783</ele>
        <time>2019-06-04T08:18:28Z</time>
      </trkpt>
      <trkpt lat="44.21703" lon="5.54443">
        <ele>783</ele>
        <time>2019-06-04T08:18:29Z</time>
      </trkpt>
      <trkpt lat="44.21699" lon="5.54434">
        <ele>783</ele>
        <time>2019-06-04T08:18:30Z</time>
      </trkpt>
      <trkpt lat="44.21695" lon="5.54426">
        <ele>783</ele>
        <time>2019-06-04T08:18:31Z</time>
      </trkpt>
      <trkpt lat="44.2169" lon="5.54418">
        <ele>783</ele>
        <time>2019-06-04T08:18:32Z</time>
      </trkpt>
      <trkpt lat="44.21685" lon="5.5441">
        <ele>783</ele>
        <time>2019-06-04T08:18:33Z</time>
      </trkpt>
      <trkpt lat="44.2168" lon="5.54403">
        <ele>783</ele>
        <time>2019-06-04T08:18:34Z</time>
      </trkpt>
      <trkpt lat="44.21674" lon="5.54396">
        <ele>783</ele>
        <time>2019-06-04T08:18:35Z</time>
      </trkpt>
      <trkpt lat="44.21669" lon="5.54389">
        <ele>783</ele>
        <time>2019-06-04T08:18:36Z</time>
      </trkpt>
      <trkpt lat="44.21663" lon="5.54383">
        <ele>783</ele>
        <time>2019-06-04T08:18:37Z</time>
      </trkpt>
      <trkpt lat="44.21657" lon="5.54378">
        <ele>783</ele>
        <time>2019-06-04T08:18:38Z</time>
      </trkpt>
      <trkpt lat="44.2165" lon="5.54373">
        <ele>783</ele>
        <time>2019-06-04T08:18:39Z</time>
      </trkpt>
      <trkpt lat="44.21644" lon="5.54368">
        <ele>783</ele>
        <time>2019-06-04T08:18:40Z</time>
      </trkpt>
      <trkpt lat="44.21638" lon="5.54365">
        <ele>783</ele>
        <time>2019-06-04T08:18:41Z</time>
      </trkpt>
      <trkpt lat="44.21632" lon="5.54361">
        <ele>783</ele>
        <time>2019-06-04T08:18:42Z</time>
      </trkpt>
      <trkpt lat="44.21625" lon="5.54358">
        <ele>783</ele>
        <time>2019-06-04T08:18:43Z</time>
      </trkpt>
      <trkpt lat="44.21619" lon="5.54355">
        <ele>783</ele>
        <time>2019-06-04T08:18:44Z</time>
      </trkpt>
      <trkpt lat="44.21613" lon="5.54353">
        <ele>783</ele>
        <time>2019-06-04T08:18:45Z</time>
      </trkpt>
      <trkpt lat="44.21606" lon="5.54351">
        <ele>783</ele>
        <time>2019-06-04T08:18:46Z</time>
      </trkpt>
      <trkpt lat="44.216" lon="5.54348">
        <ele>783</ele>
        <time>2019-06-04T08:18:47Z</time>
      </trkpt>
      <trkpt lat="44.21595" lon="5.54345">
        <ele>783</ele>
        <time>2019-06-04T08:18:48Z</time>
      </trkpt>
      <trkpt lat="44.21589" lon="5.5434">
        <ele>783</ele>
        <time>2019-06-04T08:18:49Z</time>
      </trkpt>
      <trkpt lat="44.21583" lon="5.54335">
        <ele>783</ele>
        <time>2019-06-04T08:18:50Z</time>
      </trkpt>
      <trkpt lat="44.21578" lon="5.5433">
        <ele>783</ele>
        <time>2019-06-04T08:18:51Z</time>
      </trkpt>
      <trkpt lat="44.21572" lon="5.54326">
        <ele>783</ele>
        <time>2019-06-04T08:18:52Z</time>
      </trkpt>
      <trkpt lat="44.21567" lon="5.54321">
        <ele>783</ele>
        <time>2019-06-04T08:18:53Z</time>
      </trkpt>
      <trkpt lat="44.21561" lon="5.54316">
        <ele>783</ele>
        <time>2019-06-04T08:18:54Z</time>
      </trkpt>
      <trkpt lat="44.21556" lon="5.5431">
        <ele>783</ele>
        <time>2019-06-04T08:18:55Z</time>
      </trkpt>
      <trkpt lat="44.21551" lon="5.54305">
        <ele>783</ele>
        <time>2019-06-04T08:18:56Z</time>
      </trkpt>
      <trkpt lat="44.21546" lon="5.54299">
        <ele>783</ele>
        <time>2019-06-04T08:18:57Z</time>
      </trkpt>
      <trkpt lat="44.21541" lon="5.54294">
        <ele>783</ele>
        <time>2019-06-04T08:18:58Z</time>
      </trkpt>
      <trkpt lat="44.21536" lon="5.54288">
        <ele>783</ele>
        <time>2019-06-04T08:18:59Z</time>
      </trkpt>
      <trkpt lat="44.21531" lon="5.54282">
        <ele>783</ele>
        <time>2019-06-04T08:19:00Z</time>
      </trkpt>
      <trkpt lat="44.21526" lon="5.54277">
        <ele>783</ele>
        <time>2019-06-04T08:19:01Z</time>
      </trkpt>
      <trkpt lat="44.21521" lon="5.54271">
        <ele>783</ele>
        <time>2019-06-04T08:19:02Z</time>
      </trkpt>
      <trkpt lat="44.21516" lon="5.54266">
        <ele>783</ele>
        <time>2019-06-04T08:19:03Z</time>
      </trkpt>
      <trkpt lat="44.21511" lon="5.5426">
        <ele>783</ele>
        <time>2019-06-04T08:19:04Z</time>
      </trkpt>
      <trkpt lat="44.21505" lon="5.54255">
        <ele>783</ele>
        <time>2019-06-04T08:19:05Z</time>
      </trkpt>
      <trkpt lat="44.215" lon="5.54249">
        <ele>783</ele>
        <time>2019-06-04T08:19:06Z</time>
      </trkpt>
      <trkpt lat="44.21495" lon="5.54244">
        <ele>783</ele>
        <time>2019-06-04T08:19:07Z</time>
      </trkpt>
      <trkpt lat="44.2149" lon="5.54239">
        <ele>783</ele>
        <time>2019-06-04T08:19:08Z</time>
      </trkpt>
      <trkpt lat="44.21485" lon="5.54233">
        <ele>783</ele>
        <time>2019-06-04T08:19:09Z</time>
      </trkpt>
      <trkpt lat="44.2148" lon="5.54227">
        <ele>783</ele>
        <time>2019-06-04T08:19:10Z</time>
      </trkpt>
      <trkpt lat="44.21474" lon="5.54222">
        <ele>783</ele>
        <time>2019-06-04T08:19:11Z</time>
      </trkpt>
      <trkpt lat="44.21469" lon="5.54216">
        <ele>783</ele>
        <time>2019-06-04T08:19:12Z</time>
      </trkpt>
      <trkpt lat="44.21464" lon="5.5421">
        <ele>783</ele>
        <time>2019-06-04T08:19:13Z</time>
      </trkpt>
      <trkpt lat="44.21459" lon="5.54204">
        <ele>783</ele>
        <time>2019-06-04T08:19:14Z</time>
      </trkpt>
      <trkpt lat="44.21454" lon="5.54198">
        <ele>783</ele>
        <time>2019-06-04T08:19:15Z</time>
      </trkpt>
      <trkpt lat="44.21449" lon="5.54191">
        <ele>783</ele>
        <time>2019-06-04T08:19:16Z</time>
      </trkpt>
      <trkpt lat="44.21444" lon="5.54186">
        <ele>783</ele>
        <time>2019-06-04T08:19:17Z</time>
      </trkpt>
      <trkpt lat="44.21439" lon="5.5418">
        <ele>783</ele>
        <time>2019-06-04T08:19:18Z</time>
      </trkpt>
      <trkpt lat="44.21434" lon="5.54175">
        <ele>783</ele>
        <time>2019-06-04T08:19:19Z</time>
      </trkpt>
      <trkpt lat="44.21429" lon="5.54169">
        <ele>783</ele>
        <time>2019-06-04T08:19:20Z</time>
      </trkpt>
      <trkpt lat="44.21424" lon="5.54163">
        <ele>783</ele>
        <time>2019-06-04T08:19:21Z</time>
      </trkpt>
      <trkpt lat="44.21419" lon="5.54157">
        <ele>783</ele>
        <time>2019-06-04T08:19:22Z</time>
      </trkpt>
      <trkpt lat="44.21415" lon="5.54152">
        <ele>783</ele>
        <time>2019-06-04T08:19:23Z</time>
      </trkpt>
      <trkpt lat="44.2141" lon="5.54147">
        <ele>783</ele>
        <time>2019-06-04T08:19:24Z</time>
      </trkpt>
      <trkpt lat="44.21405" lon="5.54142">
        <ele>783</ele>
        <time>2019-06-04T08:19:25Z</time>
      </trkpt>
      <trkpt lat="44.21401" lon="5.54136">
        <ele>783</ele>
        <time>2019-06-04T08:19:26Z</time>
      </trkpt>
      <trkpt lat="44.21397" lon="5.54131">
        <ele>783</ele>
        <time>2019-06-04T08:19:27Z</time>
      </trkpt>
      <trkpt lat="44.21392" lon="5.54126">
        <ele>783</ele>
        <time>2019-06-04T08:19:28Z</time>
      </trkpt>
      <trkpt lat="44.21387" lon="5.54121">
        <ele>783</ele>
        <time>2019-06-04T08:19:29Z</time>
      </trkpt>
      <trkpt lat="44.21383" lon="5.54116">
        <ele>783</ele>
        <time>2019-06-04T08:19:30Z</time>
      </trkpt>
      <trkpt lat="44.21378" lon="5.5411">
        <ele>783</ele>
        <time>2019-06-04T08:19:31Z</time>
      </trkpt>
      <trkpt lat="44.21374" lon="5.54105">
        <ele>783</ele>
        <time>2019-06-04T08:19:32Z</time>
      </trkpt>
      <trkpt lat="44.2137" lon="5.541">
        <ele>783</ele>
        <time>2019-06-04T08:19:33Z</time>
      </trkpt>
      <trkpt lat="44.21365" lon="5.54095">
        <ele>783</ele>
        <time>2019-06-04T08:19:34Z</time>
      </trkpt>
      <trkpt lat="44.2136" lon="5.54089">
        <ele>783</ele>
        <time>2019-06-04T08:19:35Z</time>
      </trkpt>
      <trkpt lat="44.21356" lon="5.54084">
        <ele>783</ele>
        <time>2019-06-04T08:19:36Z</time>
      </trkpt>
      <trkpt lat="44.21351" lon="5.54079">
        <ele>784</ele>
        <time>2019-06-04T08:19:37Z</time>
      </trkpt>
      <trkpt lat="44.21347" lon="5.54075">
        <ele>784</ele>
        <time>2019-06-04T08:19:38Z</time>
      </trkpt>
      <trkpt lat="44.21342" lon="5.5407">
        <ele>784</ele>
        <time>2019-06-04T08:19:39Z</time>
      </trkpt>
      <trkpt lat="44.21337" lon="5.54065">
        <ele>784</ele>
        <time>2019-06-04T08:19:40Z</time>
      </trkpt>
      <trkpt lat="44.21333" lon="5.5406">
        <ele>785</ele>
        <time>2019-06-04T08:19:41Z</time>
      </trkpt>
      <trkpt lat="44.21328" lon="5.54056">
        <ele>785</ele>
        <time>2019-06-04T08:19:42Z</time>
      </trkpt>
      <trkpt lat="44.21323" lon="5.54051">
        <ele>785</ele>
        <time>2019-06-04T08:19:43Z</time>
      </trkpt>
      <trkpt lat="44.21318" lon="5.54047">
        <ele>785</ele>
        <time>2019-06-04T08:19:44Z</time>
      </trkpt>
      <trkpt lat="44.21312" lon="5.54043">
        <ele>785</ele>
        <time>2019-06-04T08:19:45Z</time>
      </trkpt>
      <trkpt lat="44.21307" lon="5.54039">
        <ele>786</ele>
        <time>2019-06-04T08:19:46Z</time>
      </trkpt>
      <trkpt lat="44.21302" lon="5.54035">
        <ele>786</ele>
        <time>2019-06-04T08:19:47Z</time>
      </trkpt>
      <trkpt lat="44.21297" lon="5.54031">
        <ele>786</ele>
        <time>2019-06-04T08:19:48Z</time>
      </trkpt>
      <trkpt lat="44.21292" lon="5.54028">
        <ele>786</ele>
        <time>2019-06-04T08:19:49Z</time>
      </trkpt>
      <trkpt lat="44.21287" lon="5.54025">
        <ele>787</ele>
        <time>2019-06-04T08:19:50Z</time>
      </trkpt>
      <trkpt lat="44.21281" lon="5.54021">
        <ele>787</ele>
        <time>2019-06-04T08:19:51Z</time>
      </trkpt>
      <trkpt lat="44.21277" lon="5.54018">
        <ele>787</ele>
        <time>2019-06-04T08:19:52Z</time>
      </trkpt>
      <trkpt lat="44.21272" lon="5.54015">
        <ele>787</ele>
        <time>2019-06-04T08:19:53Z</time>
      </trkpt>
      <trkpt lat="44.21267" lon="5.54011">
        <ele>788</ele>
        <time>2019-06-04T08:19:54Z</time>
      </trkpt>
      <trkpt lat="44.21262" lon="5.54009">
        <ele>788</ele>
        <time>2019-06-04T08:19:55Z</time>
      </trkpt>
      <trkpt lat="44.21257" lon="5.54006">
        <ele>788</ele>
        <time>2019-06-04T08:19:56Z</time>
      </trkpt>
      <trkpt lat="44.21252" lon="5.54003">
        <ele>788</ele>
        <time>2019-06-04T08:19:57Z</time>
      </trkpt>
      <trkpt lat="44.21247" lon="5.54001">
        <ele>789</ele>
        <time>2019-06-04T08:19:58Z</time>
      </trkpt>
      <trkpt lat="44.21242" lon="5.53998">
        <ele>789</ele>
        <time>2019-06-04T08:19:59Z</time>
      </trkpt>
      <trkpt lat="44.21237" lon="5.53995">
        <ele>789</ele>
        <time>2019-06-04T08:20:00Z</time>
      </trkpt>
      <trkpt lat="44.21232" lon="5.53992">
        <ele>789</ele>
        <time>2019-06-04T08:20:01Z</time>
      </trkpt>
      <trkpt lat="44.21227" lon="5.5399">
        <ele>789</ele>
        <time>2019-06-04T08:20:02Z</time>
      </trkpt>
      <trkpt lat="44.21222" lon="5.53987">
        <ele>789</ele>
        <time>2019-06-04T08:20:03Z</time>
      </trkpt>
      <trkpt lat="44.21216" lon="5.53984">
        <ele>790</ele>
        <time>2019-06-04T08:20:04Z</time>
      </trkpt>
      <trkpt lat="44.21211" lon="5.53981">
        <ele>790</ele>
        <time>2019-06-04T08:20:05Z</time>
      </trkpt>
      <trkpt lat="44.21206" lon="5.53979">
        <ele>790</ele>
        <time>2019-06-04T08:20:06Z</time>
      </trkpt>
      <trkpt lat="44.212" lon="5.53976">
        <ele>790</ele>
        <time>2019-06-04T08:20:07Z</time>
      </trkpt>
      <trkpt lat="44.21195" lon="5.53973">
        <ele>790</ele>
        <time>2019-06-04T08:20:08Z</time>
      </trkpt>
      <trkpt lat="44.2119" lon="5.53969">
        <ele>790</ele>
        <time>2019-06-04T08:20:09Z</time>
      </trkpt>
      <trkpt lat="44.21184" lon="5.53967">
        <ele>791</ele>
        <time>2019-06-04T08:20:10Z</time>
      </trkpt>
      <trkpt lat="44.21179" lon="5.53964">
        <ele>791</ele>
        <time>2019-06-04T08:20:11Z</time>
      </trkpt>
      <trkpt lat="44.21173" lon="5.53961">
        <ele>791</ele>
        <time>2019-06-04T08:20:12Z</time>
      </trkpt>
      <trkpt lat="44.21168" lon="5.53957">
        <ele>791</ele>
        <time>2019-06-04T08:20:13Z</time>
      </trkpt>
      <trkpt lat="44.21163" lon="5.53954">
        <ele>791</ele>
        <time>2019-06-04T08:20:14Z</time>
      </trkpt>
      <trkpt lat="44.21157" lon="5.53952">
        <ele>791</ele>
        <time>2019-06-04T08:20:15Z</time>
      </trkpt>
      <trkpt lat="44.21152" lon="5.53949">
        <ele>792</ele>
        <time>2019-06-04T08:20:16Z</time>
      </trkpt>
      <trkpt lat="44.21147" lon="5.53946">
        <ele>792</ele>
        <time>2019-06-04T08:20:17Z</time>
      </trkpt>
      <trkpt lat="44.21142" lon="5.53944">
        <ele>792</ele>
        <time>2019-06-04T08:20:18Z</time>
      </trkpt>
      <trkpt lat="44.21137" lon="5.53941">
        <ele>792</ele>
        <time>2019-06-04T08:20:19Z</time>
      </trkpt>
      <trkpt lat="44.21132" lon="5.53938">
        <ele>792</ele>
        <time>2019-06-04T08:20:20Z</time>
      </trkpt>
      <trkpt lat="44.21127" lon="5.53936">
        <ele>793</ele>
        <time>2019-06-04T08:20:21Z</time>
      </trkpt>
      <trkpt lat="44.21121" lon="5.53934">
        <ele>793</ele>
        <time>2019-06-04T08:20:22Z</time>
      </trkpt>
      <trkpt lat="44.21117" lon="5.53931">
        <ele>793</ele>
        <time>2019-06-04T08:20:23Z</time>
      </trkpt>
      <trkpt lat="44.21112" lon="5.53928">
        <ele>793</ele>
        <time>2019-06-04T08:20:24Z</time>
      </trkpt>
      <trkpt lat="44.21107" lon="5.53925">
        <ele>793</ele>
        <time>2019-06-04T08:20:25Z</time>
      </trkpt>
      <trkpt lat="44.21102" lon="5.53922">
        <ele>793</ele>
        <time>2019-06-04T08:20:26Z</time>
      </trkpt>
      <trkpt lat="44.21098" lon="5.53919">
        <ele>794</ele>
        <time>2019-06-04T08:20:27Z</time>
      </trkpt>
      <trkpt lat="44.21093" lon="5.53916">
        <ele>794</ele>
        <time>2019-06-04T08:20:28Z</time>
      </trkpt>
      <trkpt lat="44.21088" lon="5.53913">
        <ele>794</ele>
        <time>2019-06-04T08:20:29Z</time>
      </trkpt>
      <trkpt lat="44.21083" lon="5.5391">
        <ele>794</ele>
        <time>2019-06-04T08:20:30Z</time>
      </trkpt>
      <trkpt lat="44.21078" lon="5.53907">
        <ele>794</ele>
        <time>2019-06-04T08:20:31Z</time>
      </trkpt>
      <trkpt lat="44.21073" lon="5.53903">
        <ele>794</ele>
        <time>2019-06-04T08:20:32Z</time>
      </trkpt>
      <trkpt lat="44.21069" lon="5.539">
        <ele>794</ele>
        <time>2019-06-04T08:20:33Z</time>
      </trkpt>
      <trkpt lat="44.21064" lon="5.53897">
        <ele>794</ele>
        <time>2019-06-04T08:20:34Z</time>
      </trkpt>
      <trkpt lat="44.21059" lon="5.53893">
        <ele>795</ele>
        <time>2019-06-04T08:20:35Z</time>
      </trkpt>
      <trkpt lat="44.21054" lon="5.53889">
        <ele>795</ele>
        <time>2019-06-04T08:20:36Z</time>
      </trkpt>
      <trkpt lat="44.21049" lon="5.53885">
        <ele>795</ele>
        <time>2019-06-04T08:20:37Z</time>
      </trkpt>
      <trkpt lat="44.21045" lon="5.53881">
        <ele>795</ele>
        <time>2019-06-04T08:20:38Z</time>
      </trkpt>
      <trkpt lat="44.2104" lon="5.53876">
        <ele>795</ele>
        <time>2019-06-04T08:20:39Z</time>
      </trkpt>
      <trkpt lat="44.21035" lon="5.53872">
        <ele>795</ele>
        <time>2019-06-04T08:20:40Z</time>
      </trkpt>
      <trkpt lat="44.21031" lon="5.53868">
        <ele>795</ele>
        <time>2019-06-04T08:20:41Z</time>
      </trkpt>
      <trkpt lat="44.21026" lon="5.53863">
        <ele>795</ele>
        <time>2019-06-04T08:20:42Z</time>
      </trkpt>
      <trkpt lat="44.21022" lon="5.53858">
        <ele>795</ele>
        <time>2019-06-04T08:20:43Z</time>
      </trkpt>
      <trkpt lat="44.21017" lon="5.53853">
        <ele>795</ele>
        <time>2019-06-04T08:20:44Z</time>
      </trkpt>
      <trkpt lat="44.21013" lon="5.53848">
        <ele>795</ele>
        <time>2019-06-04T08:20:45Z</time>
      </trkpt>
      <trkpt lat="44.21009" lon="5.53843">
        <ele>795</ele>
        <time>2019-06-04T08:20:46Z</time>
      </trkpt>
      <trkpt lat="44.21005" lon="5.53838">
        <ele>795</ele>
        <time>2019-06-04T08:20:47Z</time>
      </trkpt>
      <trkpt lat="44.21002" lon="5.53833">
        <ele>795</ele>
        <time>2019-06-04T08:20:48Z</time>
      </trkpt>
      <trkpt lat="44.20998" lon="5.53827">
        <ele>795</ele>
        <time>2019-06-04T08:20:49Z</time>
      </trkpt>
      <trkpt lat="44.20995" lon="5.53821">
        <ele>795</ele>
        <time>2019-06-04T08:20:50Z</time>
      </trkpt>
      <trkpt lat="44.20991" lon="5.53814">
        <ele>795</ele>
        <time>2019-06-04T08:20:51Z</time>
      </trkpt>
      <trkpt lat="44.20987" lon="5.53808">
        <ele>795</ele>
        <time>2019-06-04T08:20:52Z</time>
      </trkpt>
      <trkpt lat="44.20983" lon="5.53801">
        <ele>795</ele>
        <time>2019-06-04T08:20:53Z</time>
      </trkpt>
      <trkpt lat="44.2098" lon="5.53795">
        <ele>795</ele>
        <time>2019-06-04T08:20:54Z</time>
      </trkpt>
      <trkpt lat="44.20977" lon="5.53788">
        <ele>795</ele>
        <time>2019-06-04T08:20:55Z</time>
      </trkpt>
      <trkpt lat="44.20974" lon="5.53781">
        <ele>795</ele>
        <time>2019-06-04T08:20:56Z</time>
      </trkpt>
      <trkpt lat="44.20971" lon="5.53773">
        <ele>795</ele>
        <time>2019-06-04T08:20:57Z</time>
      </trkpt>
      <trkpt lat="44.20968" lon="5.53766">
        <ele>795</ele>
        <time>2019-06-04T08:20:58Z</time>
      </trkpt>
      <trkpt lat="44.20966" lon="5.53758">
        <ele>795</ele>
        <time>2019-06-04T08:20:59Z</time>
      </trkpt>
      <trkpt lat="44.20963" lon="5.53751">
        <ele>795</ele>
        <time>2019-06-04T08:21:00Z</time>
      </trkpt>
      <trkpt lat="44.20961" lon="5.53743">
        <ele>795</ele>
        <time>2019-06-04T08:21:01Z</time>
      </trkpt>
      <trkpt lat="44.20958" lon="5.53735">
        <ele>795</ele>
        <time>2019-06-04T08:21:02Z</time>
      </trkpt>
      <trkpt lat="44.20955" lon="5.53728">
        <ele>795</ele>
        <time>2019-06-04T08:21:03Z</time>
      </trkpt>
      <trkpt lat="44.20952" lon="5.5372">
        <ele>795</ele>
        <time>2019-06-04T08:21:04Z</time>
      </trkpt>
      <trkpt lat="44.2095" lon="5.53713">
        <ele>795</ele>
        <time>2019-06-04T08:21:05Z</time>
      </trkpt>
      <trkpt lat="44.20947" lon="5.53705">
        <ele>795</ele>
        <time>2019-06-04T08:21:06Z</time>
      </trkpt>
      <trkpt lat="44.20944" lon="5.53697">
        <ele>795</ele>
        <time>2019-06-04T08:21:07Z</time>
      </trkpt>
      <trkpt lat="44.20942" lon="5.5369">
        <ele>795</ele>
        <time>2019-06-04T08:21:08Z</time>
      </trkpt>
      <trkpt lat="44.20939" lon="5.53682">
        <ele>795</ele>
        <time>2019-06-04T08:21:09Z</time>
      </trkpt>
      <trkpt lat="44.20935" lon="5.53675">
        <ele>794</ele>
        <time>2019-06-04T08:21:10Z</time>
      </trkpt>
      <trkpt lat="44.20932" lon="5.53668">
        <ele>794</ele>
        <time>2019-06-04T08:21:11Z</time>
      </trkpt>
      <trkpt lat="44.20928" lon="5.53661">
        <ele>794</ele>
        <time>2019-06-04T08:21:12Z</time>
      </trkpt>
      <trkpt lat="44.20923" lon="5.53655">
        <ele>793</ele>
        <time>2019-06-04T08:21:13Z</time>
      </trkpt>
      <trkpt lat="44.20919" lon="5.5365">
        <ele>793</ele>
        <time>2019-06-04T08:21:14Z</time>
      </trkpt>
      <trkpt lat="44.20913" lon="5.53645">
        <ele>793</ele>
        <time>2019-06-04T08:21:15Z</time>
      </trkpt>
      <trkpt lat="44.20907" lon="5.53643">
        <ele>793</ele>
        <time>2019-06-04T08:21:16Z</time>
      </trkpt>
      <trkpt lat="44.209" lon="5.53642">
        <ele>793</ele>
        <time>2019-06-04T08:21:17Z</time>
      </trkpt>
      <trkpt lat="44.20893" lon="5.53642">
        <ele>793</ele>
        <time>2019-06-04T08:21:18Z</time>
      </trkpt>
      <trkpt lat="44.20887" lon="5.53643">
        <ele>793</ele>
        <time>2019-06-04T08:21:19Z</time>
      </trkpt>
      <trkpt lat="44.2088" lon="5.53645">
        <ele>793</ele>
        <time>2019-06-04T08:21:20Z</time>
      </trkpt>
      <trkpt lat="44.20874" lon="5.53646">
        <ele>793</ele>
        <time>2019-06-04T08:21:21Z</time>
      </trkpt>
      <trkpt lat="44.20868" lon="5.53648">
        <ele>793</ele>
        <time>2019-06-04T08:21:22Z</time>
      </trkpt>
      <trkpt lat="44.20861" lon="5.5365">
        <ele>793</ele>
        <time>2019-06-04T08:21:23Z</time>
      </trkpt>
      <trkpt lat="44.20855" lon="5.53652">
        <ele>793</ele>
        <time>2019-06-04T08:21:24Z</time>
      </trkpt>
      <trkpt lat="44.20848" lon="5.53653">
        <ele>793</ele>
        <time>2019-06-04T08:21:25Z</time>
      </trkpt>
      <trkpt lat="44.20842" lon="5.53655">
        <ele>793</ele>
        <time>2019-06-04T08:21:26Z</time>
      </trkpt>
      <trkpt lat="44.20836" lon="5.53657">
        <ele>793</ele>
        <time>2019-06-04T08:21:27Z</time>
      </trkpt>
      <trkpt lat="44.2083" lon="5.53658">
        <ele>793</ele>
        <time>2019-06-04T08:21:28Z</time>
      </trkpt>
      <trkpt lat="44.20825" lon="5.5366">
        <ele>793</ele>
        <time>2019-06-04T08:21:29Z</time>
      </trkpt>
      <trkpt lat="44.20819" lon="5.53661">
        <ele>793</ele>
        <time>2019-06-04T08:21:30Z</time>
      </trkpt>
      <trkpt lat="44.20813" lon="5.53661">
        <ele>794</ele>
        <time>2019-06-04T08:21:31Z</time>
      </trkpt>
      <trkpt lat="44.20808" lon="5.53662">
        <ele>794</ele>
        <time>2019-06-04T08:21:32Z</time>
      </trkpt>
      <trkpt lat="44.20802" lon="5.53663">
        <ele>794</ele>
        <time>2019-06-04T08:21:33Z</time>
      </trkpt>
      <trkpt lat="44.20796" lon="5.53664">
        <ele>794</ele>
        <time>2019-06-04T08:21:34Z</time>
      </trkpt>
      <trkpt lat="44.2079" lon="5.53664">
        <ele>795</ele>
        <time>2019-06-04T08:21:35Z</time>
      </trkpt>
      <trkpt lat="44.20785" lon="5.53664">
        <ele>795</ele>
        <time>2019-06-04T08:21:36Z</time>
      </trkpt>
      <trkpt lat="44.20779" lon="5.53663">
        <ele>795</ele>
        <time>2019-06-04T08:21:37Z</time>
      </trkpt>
      <trkpt lat="44.20773" lon="5.53662">
        <ele>795</ele>
        <time>2019-06-04T08:21:38Z</time>
      </trkpt>
      <trkpt lat="44.20768" lon="5.5366">
        <ele>795</ele>
        <time>2019-06-04T08:21:39Z</time>
      </trkpt>
      <trkpt lat="44.20762" lon="5.53658">
        <ele>795</ele>
        <time>2019-06-04T08:21:40Z</time>
      </trkpt>
      <trkpt lat="44.20757" lon="5.53657">
        <ele>795</ele>
        <time>2019-06-04T08:21:41Z</time>
      </trkpt>
      <trkpt lat="44.20751" lon="5.53655">
        <ele>795</ele>
        <time>2019-06-04T08:21:42Z</time>
      </trkpt>
      <trkpt lat="44.20746" lon="5.53653">
        <ele>795</ele>
        <time>2019-06-04T08:21:43Z</time>
      </trkpt>
      <trkpt lat="44.20741" lon="5.53652">
        <ele>795</ele>
        <time>2019-06-04T08:21:44Z</time>
      </trkpt>
      <trkpt lat="44.20736" lon="5.5365">
        <ele>795</ele>
        <time>2019-06-04T08:21:45Z</time>
      </trkpt>
      <trkpt lat="44.20731" lon="5.53648">
        <ele>796</ele>
        <time>2019-06-04T08:21:46Z</time>
      </trkpt>
      <trkpt lat="44.20726" lon="5.53647">
        <ele>796</ele>
        <time>2019-06-04T08:21:47Z</time>
      </trkpt>
      <trkpt lat="44.20721" lon="5.53646">
        <ele>796</ele>
        <time>2019-06-04T08:21:48Z</time>
      </trkpt>
      <trkpt lat="44.20716" lon="5.53645">
        <ele>796</ele>
        <time>2019-06-04T08:21:49Z</time>
      </trkpt>
      <trkpt lat="44.2071" lon="5.53645">
        <ele>796</ele>
        <time>2019-06-04T08:21:50Z</time>
      </trkpt>
      <trkpt lat="44.20705" lon="5.53645">
        <ele>796</ele>
        <time>2019-06-04T08:21:51Z</time>
      </trkpt>
      <trkpt lat="44.207" lon="5.53645">
        <ele>796</ele>
        <time>2019-06-04T08:21:52Z</time>
      </trkpt>
      <trkpt lat="44.20695" lon="5.53645">
        <ele>796</ele>
        <time>2019-06-04T08:21:53Z</time>
      </trkpt>
      <trkpt lat="44.20691" lon="5.53646">
        <ele>796</ele>
        <time>2019-06-04T08:21:54Z</time>
      </trkpt>
      <trkpt lat="44.20686" lon="5.53647">
        <ele>796</ele>
        <time>2019-06-04T08:21:55Z</time>
      </trkpt>
      <trkpt lat="44.20681" lon="5.53648">
        <ele>796</ele>
        <time>2019-06-04T08:21:56Z</time>
      </trkpt>
      <trkpt lat="44.20676" lon="5.5365">
        <ele>796</ele>
        <time>2019-06-04T08:21:57Z</time>
      </trkpt>
      <trkpt lat="44.20671" lon="5.53651">
        <ele>796</ele>
        <time>2019-06-04T08:21:58Z</time>
      </trkpt>
      <trkpt lat="44.20666" lon="5.53654">
        <ele>796</ele>
        <time>2019-06-04T08:21:59Z</time>
      </trkpt>
      <trkpt lat="44.20661" lon="5.53657">
        <ele>796</ele>
        <time>2019-06-04T08:22:00Z</time>
      </trkpt>
      <trkpt lat="44.20656" lon="5.53659">
        <ele>796</ele>
        <time>2019-06-04T08:22:01Z</time>
      </trkpt>
      <trkpt lat="44.20651" lon="5.53661">
        <ele>796</ele>
        <time>2019-06-04T08:22:02Z</time>
      </trkpt>
      <trkpt lat="44.20647" lon="5.53663">
        <ele>795</ele>
        <time>2019-06-04T08:22:03Z</time>
      </trkpt>
      <trkpt lat="44.20643" lon="5.53666">
        <ele>794</ele>
        <time>2019-06-04T08:22:04Z</time>
      </trkpt>
      <trkpt lat="44.20639" lon="5.5367">
        <ele>794</ele>
        <time>2019-06-04T08:22:05Z</time>
      </trkpt>
      <trkpt lat="44.20636" lon="5.53676">
        <ele>793</ele>
        <time>2019-06-04T08:22:06Z</time>
      </trkpt>
      <trkpt lat="44.20633" lon="5.53682">
        <ele>793</ele>
        <time>2019-06-04T08:22:07Z</time>
      </trkpt>
      <trkpt lat="44.20631" lon="5.53692">
        <ele>793</ele>
        <time>2019-06-04T08:22:08Z</time>
      </trkpt>
      <trkpt lat="44.20629" lon="5.537">
        <ele>792</ele>
        <time>2019-06-04T08:22:09Z</time>
      </trkpt>
      <trkpt lat="44.20623" lon="5.53702">
        <ele>792</ele>
        <time>2019-06-04T08:22:10Z</time>
      </trkpt>
      <trkpt lat="44.20615" lon="5.53699">
        <ele>792</ele>
        <time>2019-06-04T08:22:11Z</time>
      </trkpt>
      <trkpt lat="44.20606" lon="5.53695">
        <ele>792</ele>
        <time>2019-06-04T08:22:12Z</time>
      </trkpt>
      <trkpt lat="44.20601" lon="5.53695">
        <ele>792</ele>
        <time>2019-06-04T08:22:13Z</time>
      </trkpt>
      <trkpt lat="44.20596" lon="5.53694">
        <ele>793</ele>
        <time>2019-06-04T08:22:14Z</time>
      </trkpt>
      <trkpt lat="44.20591" lon="5.53695">
        <ele>794</ele>
        <time>2019-06-04T08:22:15Z</time>
      </trkpt>
      <trkpt lat="44.20586" lon="5.53695">
        <ele>795</ele>
        <time>2019-06-04T08:22:16Z</time>
      </trkpt>
      <trkpt lat="44.20582" lon="5.53697">
        <ele>796</ele>
        <time>2019-06-04T08:22:17Z</time>
      </trkpt>
      <trkpt lat="44.20579" lon="5.53699">
        <ele>796</ele>
        <time>2019-06-04T08:22:18Z</time>
      </trkpt>
      <trkpt lat="44.20574" lon="5.537">
        <ele>796</ele>
        <time>2019-06-04T08:22:19Z</time>
      </trkpt>
      <trkpt lat="44.20569" lon="5.53699">
        <ele>796</ele>
        <time>2019-06-04T08:22:20Z</time>
      </trkpt>
      <trkpt lat="44.20564" lon="5.53698">
        <ele>796</ele>
        <time>2019-06-04T08:22:21Z</time>
      </trkpt>
      <trkpt lat="44.20559" lon="5.53698">
        <ele>796</ele>
        <time>2019-06-04T08:22:22Z</time>
      </trkpt>
      <trkpt lat="44.20555" lon="5.53696">
        <ele>796</ele>
        <time>2019-06-04T08:22:23Z</time>
      </trkpt>
      <trkpt lat="44.20551" lon="5.53693">
        <ele>796</ele>
        <time>2019-06-04T08:22:24Z</time>
      </trkpt>
      <trkpt lat="44.20546" lon="5.5369">
        <ele>796</ele>
        <time>2019-06-04T08:22:25Z</time>
      </trkpt>
      <trkpt lat="44.20542" lon="5.53688">
        <ele>796</ele>
        <time>2019-06-04T08:22:26Z</time>
      </trkpt>
      <trkpt lat="44.20537" lon="5.53686">
        <ele>797</ele>
        <time>2019-06-04T08:22:27Z</time>
      </trkpt>
      <trkpt lat="44.20533" lon="5.53683">
        <ele>798</ele>
        <time>2019-06-04T08:22:28Z</time>
      </trkpt>
      <trkpt lat="44.20528" lon="5.53681">
        <ele>799</ele>
        <time>2019-06-04T08:22:29Z</time>
      </trkpt>
      <trkpt lat="44.20524" lon="5.53679">
        <ele>800</ele>
        <time>2019-06-04T08:22:30Z</time>
      </trkpt>
      <trkpt lat="44.2052" lon="5.53677">
        <ele>801</ele>
        <time>2019-06-04T08:22:31Z</time>
      </trkpt>
      <trkpt lat="44.20516" lon="5.53674">
        <ele>802</ele>
        <time>2019-06-04T08:22:32Z</time>
      </trkpt>
      <trkpt lat="44.20512" lon="5.53672">
        <ele>803</ele>
        <time>2019-06-04T08:22:33Z</time>
      </trkpt>
      <trkpt lat="44.20508" lon="5.53669">
        <ele>804</ele>
        <time>2019-06-04T08:22:34Z</time>
      </trkpt>
      <trkpt lat="44.20505" lon="5.53667">
        <ele>805</ele>
        <time>2019-06-04T08:22:35Z</time>
      </trkpt>
      <trkpt lat="44.20502" lon="5.53665">
        <ele>806</ele>
        <time>2019-06-04T08:22:36Z</time>
      </trkpt>
      <trkpt lat="44.205" lon="5.53662">
        <ele>807</ele>
        <time>2019-06-04T08:22:37Z</time>
      </trkpt>
      <trkpt lat="44.20498" lon="5.5366">
        <ele>808</ele>
        <time>2019-06-04T08:22:38Z</time>
      </trkpt>
      <trkpt lat="44.20495" lon="5.53658">
        <ele>808</ele>
        <time>2019-06-04T08:22:39Z</time>
      </trkpt>
      <trkpt lat="44.20493" lon="5.53655">
        <ele>808</ele>
        <time>2019-06-04T08:22:40Z</time>
      </trkpt>
      <trkpt lat="44.2049" lon="5.53653">
        <ele>808</ele>
        <time>2019-06-04T08:22:41Z</time>
      </trkpt>
      <trkpt lat="44.20486" lon="5.53652">
        <ele>808</ele>
        <time>2019-06-04T08:22:42Z</time>
      </trkpt>
      <trkpt lat="44.20483" lon="5.53651">
        <ele>808</ele>
        <time>2019-06-04T08:22:43Z</time>
      </trkpt>
      <trkpt lat="44.20479" lon="5.53649">
        <ele>808</ele>
        <time>2019-06-04T08:22:44Z</time>
      </trkpt>
      <trkpt lat="44.20475" lon="5.53647">
        <ele>808</ele>
        <time>2019-06-04T08:22:45Z</time>
      </trkpt>
      <trkpt lat="44.20472" lon="5.53646">
        <ele>808</ele>
        <time>2019-06-04T08:22:46Z</time>
      </trkpt>
      <trkpt lat="44.20468" lon="5.53645">
        <ele>808</ele>
        <time>2019-06-04T08:22:47Z</time>
      </trkpt>
      <trkpt lat="44.20465" lon="5.53644">
        <ele>808</ele>
        <time>2019-06-04T08:22:48Z</time>
      </trkpt>
      <trkpt lat="44.20462" lon="5.53642">
        <ele>808</ele>
        <time>2019-06-04T08:22:49Z</time>
      </trkpt>
      <trkpt lat="44.20459" lon="5.53641">
        <ele>809</ele>
        <time>2019-06-04T08:22:50Z</time>
      </trkpt>
      <trkpt lat="44.20456" lon="5.5364">
        <ele>809</ele>
        <time>2019-06-04T08:22:51Z</time>
      </trkpt>
      <trkpt lat="44.20454" lon="5.53639">
        <ele>810</ele>
        <time>2019-06-04T08:22:52Z</time>
      </trkpt>
      <trkpt lat="44.20451" lon="5.53638">
        <ele>811</ele>
        <time>2019-06-04T08:22:53Z</time>
      </trkpt>
      <trkpt lat="44.20449" lon="5.53637">
        <ele>811</ele>
        <time>2019-06-04T08:22:54Z</time>
      </trkpt>
      <trkpt lat="44.20447" lon="5.53637">
        <ele>811</ele>
        <time>2019-06-04T08:22:55Z</time>
      </trkpt>
      <trkpt lat="44.20445" lon="5.53637">
        <ele>812</ele>
        <time>2019-06-04T08:22:56Z</time>
      </trkpt>
      <trkpt lat="44.20443" lon="5.53637">
        <ele>812</ele>
        <time>2019-06-04T08:22:58Z</time>
      </trkpt>
      <trkpt lat="44.20441" lon="5.53637">
        <ele>812</ele>
        <time>2019-06-04T08:22:59Z</time>
      </trkpt>
      <trkpt lat="44.20438" lon="5.53637">
        <ele>813</ele>
        <time>2019-06-04T08:23:00Z</time>
      </trkpt>
      <trkpt lat="44.20434" lon="5.53636">
        <ele>813</ele>
        <time>2019-06-04T08:23:01Z</time>
      </trkpt>
      <trkpt lat="44.20431" lon="5.53636">
        <ele>813</ele>
        <time>2019-06-04T08:23:02Z</time>
      </trkpt>
      <trkpt lat="44.20427" lon="5.53635">
        <ele>814</ele>
        <time>2019-06-04T08:23:03Z</time>
      </trkpt>
      <trkpt lat="44.20423" lon="5.53635">
        <ele>814</ele>
        <time>2019-06-04T08:23:04Z</time>
      </trkpt>
      <trkpt lat="44.20421" lon="5.53635">
        <ele>814</ele>
        <time>2019-06-04T08:23:05Z</time>
      </trkpt>
      <trkpt lat="44.20418" lon="5.53634">
        <ele>815</ele>
        <time>2019-06-04T08:23:06Z</time>
      </trkpt>
      <trkpt lat="44.20416" lon="5.53635">
        <ele>816</ele>
        <time>2019-06-04T08:23:07Z</time>
      </trkpt>
      <trkpt lat="44.20414" lon="5.53635">
        <ele>816</ele>
        <time>2019-06-04T08:23:08Z</time>
      </trkpt>
      <trkpt lat="44.2041" lon="5.53636">
        <ele>817</ele>
        <time>2019-06-04T08:23:09Z</time>
      </trkpt>
      <trkpt lat="44.20407" lon="5.53635">
        <ele>817</ele>
        <time>2019-06-04T08:23:10Z</time>
      </trkpt>
      <trkpt lat="44.20405" lon="5.53636">
        <ele>817</ele>
        <time>2019-06-04T08:23:11Z</time>
      </trkpt>
      <trkpt lat="44.20403" lon="5.53637">
        <ele>817</ele>
        <time>2019-06-04T08:23:12Z</time>
      </trkpt>
      <trkpt lat="44.20399" lon="5.53638">
        <ele>817</ele>
        <time>2019-06-04T08:23:13Z</time>
      </trkpt>
      <trkpt lat="44.20396" lon="5.53638">
        <ele>817</ele>
        <time>2019-06-04T08:23:14Z</time>
      </trkpt>
      <trkpt lat="44.20392" lon="5.53639">
        <ele>817</ele>
        <time>2019-06-04T08:23:15Z</time>
      </trkpt>
      <trkpt lat="44.20388" lon="5.53639">
        <ele>817</ele>
        <time>2019-06-04T08:23:16Z</time>
      </trkpt>
      <trkpt lat="44.20386" lon="5.53639">
        <ele>818</ele>
        <time>2019-06-04T08:23:17Z</time>
      </trkpt>
      <trkpt lat="44.20382" lon="5.53639">
        <ele>818</ele>
        <time>2019-06-04T08:23:18Z</time>
      </trkpt>
      <trkpt lat="44.20378" lon="5.5364">
        <ele>818</ele>
        <time>2019-06-04T08:23:19Z</time>
      </trkpt>
      <trkpt lat="44.20375" lon="5.53641">
        <ele>818</ele>
        <time>2019-06-04T08:23:20Z</time>
      </trkpt>
      <trkpt lat="44.20371" lon="5.53643">
        <ele>818</ele>
        <time>2019-06-04T08:23:21Z</time>
      </trkpt>
      <trkpt lat="44.20367" lon="5.53643">
        <ele>818</ele>
        <time>2019-06-04T08:23:22Z</time>
      </trkpt>
      <trkpt lat="44.20364" lon="5.53645">
        <ele>818</ele>
        <time>2019-06-04T08:23:23Z</time>
      </trkpt>
      <trkpt lat="44.2036" lon="5.53647">
        <ele>818</ele>
        <time>2019-06-04T08:23:24Z</time>
      </trkpt>
      <trkpt lat="44.20357" lon="5.53648">
        <ele>818</ele>
        <time>2019-06-04T08:23:25Z</time>
      </trkpt>
      <trkpt lat="44.20354" lon="5.5365">
        <ele>818</ele>
        <time>2019-06-04T08:23:26Z</time>
      </trkpt>
      <trkpt lat="44.20352" lon="5.53652">
        <ele>818</ele>
        <time>2019-06-04T08:23:27Z</time>
      </trkpt>
      <trkpt lat="44.20349" lon="5.53653">
        <ele>818</ele>
        <time>2019-06-04T08:23:28Z</time>
      </trkpt>
      <trkpt lat="44.20346" lon="5.53655">
        <ele>818</ele>
        <time>2019-06-04T08:23:29Z</time>
      </trkpt>
      <trkpt lat="44.20343" lon="5.53657">
        <ele>818</ele>
        <time>2019-06-04T08:23:30Z</time>
      </trkpt>
      <trkpt lat="44.20341" lon="5.5366">
        <ele>818</ele>
        <time>2019-06-04T08:23:31Z</time>
      </trkpt>
      <trkpt lat="44.20339" lon="5.53662">
        <ele>818</ele>
        <time>2019-06-04T08:23:32Z</time>
      </trkpt>
      <trkpt lat="44.20335" lon="5.53663">
        <ele>818</ele>
        <time>2019-06-04T08:23:33Z</time>
      </trkpt>
      <trkpt lat="44.20332" lon="5.53664">
        <ele>817</ele>
        <time>2019-06-04T08:23:34Z</time>
      </trkpt>
      <trkpt lat="44.20329" lon="5.53664">
        <ele>816</ele>
        <time>2019-06-04T08:23:35Z</time>
      </trkpt>
      <trkpt lat="44.20325" lon="5.53664">
        <ele>816</ele>
        <time>2019-06-04T08:23:36Z</time>
      </trkpt>
      <trkpt lat="44.20323" lon="5.53664">
        <ele>815</ele>
        <time>2019-06-04T08:23:37Z</time>
      </trkpt>
      <trkpt lat="44.20321" lon="5.53664">
        <ele>815</ele>
        <time>2019-06-04T08:23:38Z</time>
      </trkpt>
      <trkpt lat="44.20319" lon="5.53665">
        <ele>814</ele>
        <time>2019-06-04T08:23:39Z</time>
      </trkpt>
      <trkpt lat="44.20317" lon="5.53665">
        <ele>814</ele>
        <time>2019-06-04T08:23:40Z</time>
      </trkpt>
      <trkpt lat="44.20316" lon="5.53665">
        <ele>813</ele>
        <time>2019-06-04T08:23:47Z</time>
      </trkpt>
      <trkpt lat="44.20315" lon="5.53664">
        <ele>812</ele>
        <time>2019-06-04T08:23:49Z</time>
      </trkpt>
      <trkpt lat="44.20313" lon="5.53663">
        <ele>811</ele>
        <time>2019-06-04T08:23:50Z</time>
      </trkpt>
      <trkpt lat="44.20312" lon="5.53663">
        <ele>810</ele>
        <time>2019-06-04T08:23:53Z</time>
      </trkpt>
      <trkpt lat="44.20313" lon="5.53662">
        <ele>809</ele>
        <time>2019-06-04T08:24:01Z</time>
      </trkpt>
      <trkpt lat="44.20312" lon="5.53661">
        <ele>807</ele>
        <time>2019-06-04T08:24:07Z</time>
      </trkpt>
      <trkpt lat="44.20311" lon="5.53659">
        <ele>804</ele>
        <time>2019-06-04T08:24:12Z</time>
      </trkpt>
      <trkpt lat="44.2031" lon="5.5366">
        <ele>803</ele>
        <time>2019-06-04T08:24:19Z</time>
      </trkpt>
      <trkpt lat="44.20311" lon="5.53658">
        <ele>801</ele>
        <time>2019-06-04T08:24:35Z</time>
      </trkpt>
      <trkpt lat="44.20313" lon="5.5366">
        <ele>801</ele>
        <time>2019-06-04T08:24:37Z</time>
      </trkpt>
      <trkpt lat="44.20314" lon="5.53661">
        <ele>801</ele>
        <time>2019-06-04T08:24:42Z</time>
      </trkpt>
      <trkpt lat="44.20316" lon="5.53661">
        <ele>801</ele>
        <time>2019-06-04T08:24:52Z</time>
      </trkpt>
      <trkpt lat="44.20318" lon="5.5366">
        <ele>801</ele>
        <time>2019-06-04T08:24:54Z</time>
      </trkpt>
      <trkpt lat="44.20319" lon="5.53659">
        <ele>801</ele>
        <time>2019-06-04T08:24:55Z</time>
      </trkpt>
      <trkpt lat="44.20318" lon="5.53658">
        <ele>801</ele>
        <time>2019-06-04T08:25:04Z</time>
      </trkpt>
      <trkpt lat="44.20317" lon="5.53657">
        <ele>801</ele>
        <time>2019-06-04T08:25:12Z</time>
      </trkpt>
      <trkpt lat="44.20316" lon="5.53658">
        <ele>801</ele>
        <time>2019-06-04T08:26:55Z</time>
      </trkpt>
      <trkpt lat="44.20315" lon="5.53658">
        <ele>801</ele>
        <time>2019-06-04T08:27:22Z</time>
      </trkpt>
      <trkpt lat="44.20316" lon="5.53658">
        <ele>801</ele>
        <time>2019-06-04T08:27:58Z</time>
      </trkpt>
      <trkpt lat="44.20317" lon="5.53658">
        <ele>803</ele>
        <time>2019-06-04T08:28:18Z</time>
      </trkpt>
      <trkpt lat="44.20316" lon="5.53658">
        <ele>803</ele>
        <time>2019-06-04T08:28:42Z</time>
      </trkpt>
      <trkpt lat="44.20316" lon="5.53659">
        <ele>803</ele>
        <time>2019-06-04T08:29:08Z</time>
      </trkpt>
      <trkpt lat="44.20316" lon="5.53661">
        <ele>803</ele>
        <time>2019-06-04T08:29:12Z</time>
      </trkpt>
      <trkpt lat="44.20315" lon="5.5366">
        <ele>804</ele>
        <time>2019-06-04T08:29:25Z</time>
      </trkpt>
      <trkpt lat="44.20316" lon="5.5366">
        <ele>804</ele>
        <time>2019-06-04T08:29:30Z</time>
      </trkpt>
      <trkpt lat="44.20316" lon="5.53662">
        <ele>804</ele>
        <time>2019-06-04T08:29:38Z</time>
      </trkpt>
      <trkpt lat="44.20316" lon="5.53664">
        <ele>804</ele>
        <time>2019-06-04T08:29:44Z</time>
      </trkpt>
      <trkpt lat="44.20314" lon="5.53666">
        <ele>804</ele>
        <time>2019-06-04T08:29:46Z</time>
      </trkpt>
      <trkpt lat="44.20312" lon="5.53667">
        <ele>804</ele>
        <time>2019-06-04T08:29:48Z</time>
      </trkpt>
      <trkpt lat="44.2031" lon="5.53668">
        <ele>804</ele>
        <time>2019-06-04T08:29:49Z</time>
      </trkpt>
      <trkpt lat="44.20308" lon="5.53668">
        <ele>804</ele>
        <time>2019-06-04T08:29:50Z</time>
      </trkpt>
      <trkpt lat="44.20306" lon="5.53668">
        <ele>804</ele>
        <time>2019-06-04T08:29:51Z</time>
      </trkpt>
      <trkpt lat="44.20303" lon="5.53669">
        <ele>804</ele>
        <time>2019-06-04T08:29:52Z</time>
      </trkpt>
      <trkpt lat="44.20301" lon="5.5367">
        <ele>804</ele>
        <time>2019-06-04T08:29:53Z</time>
      </trkpt>
      <trkpt lat="44.20299" lon="5.5367">
        <ele>804</ele>
        <time>2019-06-04T08:29:54Z</time>
      </trkpt>
      <trkpt lat="44.20297" lon="5.53671">
        <ele>804</ele>
        <time>2019-06-04T08:29:55Z</time>
      </trkpt>
      <trkpt lat="44.20295" lon="5.53673">
        <ele>804</ele>
        <time>2019-06-04T08:29:56Z</time>
      </trkpt>
      <trkpt lat="44.20293" lon="5.53674">
        <ele>804</ele>
        <time>2019-06-04T08:29:57Z</time>
      </trkpt>
      <trkpt lat="44.20292" lon="5.53676">
        <ele>804</ele>
        <time>2019-06-04T08:29:58Z</time>
      </trkpt>
      <trkpt lat="44.2029" lon="5.53676">
        <ele>804</ele>
        <time>2019-06-04T08:29:59Z</time>
      </trkpt>
      <trkpt lat="44.20288" lon="5.53676">
        <ele>804</ele>
        <time>2019-06-04T08:30:00Z</time>
      </trkpt>
      <trkpt lat="44.20286" lon="5.53676">
        <ele>804</ele>
        <time>2019-06-04T08:30:01Z</time>
      </trkpt>
      <trkpt lat="44.20283" lon="5.53676">
        <ele>804</ele>
        <time>2019-06-04T08:30:02Z</time>
      </trkpt>
      <trkpt lat="44.2028" lon="5.53677">
        <ele>804</ele>
        <time>2019-06-04T08:30:03Z</time>
      </trkpt>
      <trkpt lat="44.20277" lon="5.53678">
        <ele>804</ele>
        <time>2019-06-04T08:30:04Z</time>
      </trkpt>
      <trkpt lat="44.20274" lon="5.53678">
        <ele>804</ele>
        <time>2019-06-04T08:30:05Z</time>
      </trkpt>
      <trkpt lat="44.20271" lon="5.53679">
        <ele>804</ele>
        <time>2019-06-04T08:30:06Z</time>
      </trkpt>
      <trkpt lat="44.20267" lon="5.5368">
        <ele>804</ele>
        <time>2019-06-04T08:30:07Z</time>
      </trkpt>
      <trkpt lat="44.20264" lon="5.5368">
        <ele>804</ele>
        <time>2019-06-04T08:30:08Z</time>
      </trkpt>
      <trkpt lat="44.2026" lon="5.53681">
        <ele>804</ele>
        <time>2019-06-04T08:30:09Z</time>
      </trkpt>
      <trkpt lat="44.20257" lon="5.53682">
        <ele>804</ele>
        <time>2019-06-04T08:30:10Z</time>
      </trkpt>
      <trkpt lat="44.20254" lon="5.53683">
        <ele>804</ele>
        <time>2019-06-04T08:30:11Z</time>
      </trkpt>
      <trkpt lat="44.2025" lon="5.53684">
        <ele>804</ele>
        <time>2019-06-04T08:30:12Z</time>
      </trkpt>
      <trkpt lat="44.20247" lon="5.53684">
        <ele>804</ele>
        <time>2019-06-04T08:30:13Z</time>
      </trkpt>
      <trkpt lat="44.20244" lon="5.53684">
        <ele>804</ele>
        <time>2019-06-04T08:30:14Z</time>
      </trkpt>
      <trkpt lat="44.20241" lon="5.53684">
        <ele>804</ele>
        <time>2019-06-04T08:30:15Z</time>
      </trkpt>
      <trkpt lat="44.20238" lon="5.53684">
        <ele>804</ele>
        <time>2019-06-04T08:30:16Z</time>
      </trkpt>
      <trkpt lat="44.20235" lon="5.53684">
        <ele>804</ele>
        <time>2019-06-04T08:30:17Z</time>
      </trkpt>
      <trkpt lat="44.20231" lon="5.53684">
        <ele>804</ele>
        <time>2019-06-04T08:30:18Z</time>
      </trkpt>
      <trkpt lat="44.20228" lon="5.53684">
        <ele>804</ele>
        <time>2019-06-04T08:30:19Z</time>
      </trkpt>
      <trkpt lat="44.20224" lon="5.53683">
        <ele>805</ele>
        <time>2019-06-04T08:30:20Z</time>
      </trkpt>
      <trkpt lat="44.20221" lon="5.53683">
        <ele>805</ele>
        <time>2019-06-04T08:30:21Z</time>
      </trkpt>
      <trkpt lat="44.20217" lon="5.53683">
        <ele>805</ele>
        <time>2019-06-04T08:30:22Z</time>
      </trkpt>
      <trkpt lat="44.20214" lon="5.53684">
        <ele>806</ele>
        <time>2019-06-04T08:30:23Z</time>
      </trkpt>
      <trkpt lat="44.20211" lon="5.53685">
        <ele>806</ele>
        <time>2019-06-04T08:30:24Z</time>
      </trkpt>
      <trkpt lat="44.20208" lon="5.53686">
        <ele>806</ele>
        <time>2019-06-04T08:30:25Z</time>
      </trkpt>
      <trkpt lat="44.20204" lon="5.53686">
        <ele>807</ele>
        <time>2019-06-04T08:30:26Z</time>
      </trkpt>
      <trkpt lat="44.202" lon="5.53686">
        <ele>807</ele>
        <time>2019-06-04T08:30:27Z</time>
      </trkpt>
      <trkpt lat="44.20196" lon="5.53687">
        <ele>807</ele>
        <time>2019-06-04T08:30:28Z</time>
      </trkpt>
      <trkpt lat="44.20192" lon="5.53687">
        <ele>808</ele>
        <time>2019-06-04T08:30:29Z</time>
      </trkpt>
      <trkpt lat="44.20189" lon="5.53687">
        <ele>808</ele>
        <time>2019-06-04T08:30:30Z</time>
      </trkpt>
      <trkpt lat="44.20184" lon="5.53687">
        <ele>808</ele>
        <time>2019-06-04T08:30:31Z</time>
      </trkpt>
      <trkpt lat="44.20181" lon="5.53687">
        <ele>808</ele>
        <time>2019-06-04T08:30:32Z</time>
      </trkpt>
      <trkpt lat="44.20177" lon="5.53687">
        <ele>808</ele>
        <time>2019-06-04T08:30:33Z</time>
      </trkpt>
      <trkpt lat="44.20173" lon="5.53687">
        <ele>808</ele>
        <time>2019-06-04T08:30:34Z</time>
      </trkpt>
      <trkpt lat="44.20169" lon="5.53687">
        <ele>808</ele>
        <time>2019-06-04T08:30:35Z</time>
      </trkpt>
      <trkpt lat="44.20166" lon="5.53687">
        <ele>809</ele>
        <time>2019-06-04T08:30:36Z</time>
      </trkpt>
      <trkpt lat="44.20161" lon="5.53688">
        <ele>809</ele>
        <time>2019-06-04T08:30:37Z</time>
      </trkpt>
      <trkpt lat="44.20157" lon="5.53688">
        <ele>809</ele>
        <time>2019-06-04T08:30:38Z</time>
      </trkpt>
      <trkpt lat="44.20153" lon="5.53688">
        <ele>809</ele>
        <time>2019-06-04T08:30:39Z</time>
      </trkpt>
      <trkpt lat="44.20149" lon="5.53688">
        <ele>810</ele>
        <time>2019-06-04T08:30:40Z</time>
      </trkpt>
      <trkpt lat="44.20144" lon="5.53689">
        <ele>810</ele>
        <time>2019-06-04T08:30:41Z</time>
      </trkpt>
      <trkpt lat="44.2014" lon="5.5369">
        <ele>810</ele>
        <time>2019-06-04T08:30:42Z</time>
      </trkpt>
      <trkpt lat="44.20136" lon="5.5369">
        <ele>810</ele>
        <time>2019-06-04T08:30:43Z</time>
      </trkpt>
      <trkpt lat="44.20132" lon="5.53691">
        <ele>810</ele>
        <time>2019-06-04T08:30:44Z</time>
      </trkpt>
      <trkpt lat="44.20128" lon="5.53692">
        <ele>810</ele>
        <time>2019-06-04T08:30:45Z</time>
      </trkpt>
      <trkpt lat="44.20124" lon="5.53693">
        <ele>810</ele>
        <time>2019-06-04T08:30:46Z</time>
      </trkpt>
      <trkpt lat="44.20119" lon="5.53693">
        <ele>810</ele>
        <time>2019-06-04T08:30:47Z</time>
      </trkpt>
      <trkpt lat="44.20115" lon="5.53693">
        <ele>810</ele>
        <time>2019-06-04T08:30:48Z</time>
      </trkpt>
      <trkpt lat="44.20111" lon="5.53693">
        <ele>810</ele>
        <time>2019-06-04T08:30:49Z</time>
      </trkpt>
      <trkpt lat="44.20107" lon="5.53692">
        <ele>810</ele>
        <time>2019-06-04T08:30:50Z</time>
      </trkpt>
      <trkpt lat="44.20102" lon="5.53692">
        <ele>810</ele>
        <time>2019-06-04T08:30:51Z</time>
      </trkpt>
      <trkpt lat="44.20097" lon="5.53692">
        <ele>810</ele>
        <time>2019-06-04T08:30:52Z</time>
      </trkpt>
      <trkpt lat="44.20093" lon="5.53693">
        <ele>810</ele>
        <time>2019-06-04T08:30:53Z</time>
      </trkpt>
      <trkpt lat="44.20089" lon="5.53695">
        <ele>810</ele>
        <time>2019-06-04T08:30:54Z</time>
      </trkpt>
      <trkpt lat="44.20084" lon="5.53697">
        <ele>810</ele>
        <time>2019-06-04T08:30:55Z</time>
      </trkpt>
      <trkpt lat="44.20079" lon="5.53697">
        <ele>810</ele>
        <time>2019-06-04T08:30:56Z</time>
      </trkpt>
      <trkpt lat="44.20075" lon="5.53697">
        <ele>810</ele>
        <time>2019-06-04T08:30:57Z</time>
      </trkpt>
      <trkpt lat="44.2007" lon="5.53697">
        <ele>810</ele>
        <time>2019-06-04T08:30:58Z</time>
      </trkpt>
      <trkpt lat="44.20065" lon="5.53697">
        <ele>811</ele>
        <time>2019-06-04T08:30:59Z</time>
      </trkpt>
      <trkpt lat="44.20061" lon="5.53697">
        <ele>811</ele>
        <time>2019-06-04T08:31:00Z</time>
      </trkpt>
      <trkpt lat="44.20056" lon="5.53697">
        <ele>811</ele>
        <time>2019-06-04T08:31:01Z</time>
      </trkpt>
      <trkpt lat="44.20052" lon="5.53698">
        <ele>811</ele>
        <time>2019-06-04T08:31:02Z</time>
      </trkpt>
      <trkpt lat="44.20047" lon="5.53699">
        <ele>811</ele>
        <time>2019-06-04T08:31:03Z</time>
      </trkpt>
      <trkpt lat="44.20042" lon="5.53699">
        <ele>811</ele>
        <time>2019-06-04T08:31:04Z</time>
      </trkpt>
      <trkpt lat="44.20038" lon="5.537">
        <ele>811</ele>
        <time>2019-06-04T08:31:05Z</time>
      </trkpt>
      <trkpt lat="44.20033" lon="5.537">
        <ele>811</ele>
        <time>2019-06-04T08:31:06Z</time>
      </trkpt>
      <trkpt lat="44.20029" lon="5.537">
        <ele>811</ele>
        <time>2019-06-04T08:31:07Z</time>
      </trkpt>
      <trkpt lat="44.20024" lon="5.53701">
        <ele>811</ele>
        <time>2019-06-04T08:31:08Z</time>
      </trkpt>
      <trkpt lat="44.2002" lon="5.53702">
        <ele>811</ele>
        <time>2019-06-04T08:31:09Z</time>
      </trkpt>
      <trkpt lat="44.20015" lon="5.53703">
        <ele>811</ele>
        <time>2019-06-04T08:31:10Z</time>
      </trkpt>
      <trkpt lat="44.20011" lon="5.53704">
        <ele>811</ele>
        <time>2019-06-04T08:31:11Z</time>
      </trkpt>
      <trkpt lat="44.20007" lon="5.53705">
        <ele>811</ele>
        <time>2019-06-04T08:31:12Z</time>
      </trkpt>
      <trkpt lat="44.20002" lon="5.53707">
        <ele>811</ele>
        <time>2019-06-04T08:31:13Z</time>
      </trkpt>
      <trkpt lat="44.19998" lon="5.53709">
        <ele>811</ele>
        <time>2019-06-04T08:31:14Z</time>
      </trkpt>
      <trkpt lat="44.19994" lon="5.53711">
        <ele>811</ele>
        <time>2019-06-04T08:31:15Z</time>
      </trkpt>
      <trkpt lat="44.19989" lon="5.53712">
        <ele>811</ele>
        <time>2019-06-04T08:31:16Z</time>
      </trkpt>
      <trkpt lat="44.19985" lon="5.53713">
        <ele>811</ele>
        <time>2019-06-04T08:31:17Z</time>
      </trkpt>
      <trkpt lat="44.19981" lon="5.53715">
        <ele>811</ele>
        <time>2019-06-04T08:31:18Z</time>
      </trkpt>
      <trkpt lat="44.19976" lon="5.53716">
        <ele>811</ele>
        <time>2019-06-04T08:31:19Z</time>
      </trkpt>
      <trkpt lat="44.19972" lon="5.53717">
        <ele>811</ele>
        <time>2019-06-04T08:31:20Z</time>
      </trkpt>
      <trkpt lat="44.19967" lon="5.53718">
        <ele>811</ele>
        <time>2019-06-04T08:31:21Z</time>
      </trkpt>
      <trkpt lat="44.19962" lon="5.5372">
        <ele>811</ele>
        <time>2019-06-04T08:31:22Z</time>
      </trkpt>
      <trkpt lat="44.19958" lon="5.53721">
        <ele>811</ele>
        <time>2019-06-04T08:31:23Z</time>
      </trkpt>
      <trkpt lat="44.19954" lon="5.53723">
        <ele>811</ele>
        <time>2019-06-04T08:31:24Z</time>
      </trkpt>
      <trkpt lat="44.19949" lon="5.53725">
        <ele>811</ele>
        <time>2019-06-04T08:31:25Z</time>
      </trkpt>
      <trkpt lat="44.19944" lon="5.53727">
        <ele>811</ele>
        <time>2019-06-04T08:31:26Z</time>
      </trkpt>
      <trkpt lat="44.1994" lon="5.53728">
        <ele>811</ele>
        <time>2019-06-04T08:31:27Z</time>
      </trkpt>
      <trkpt lat="44.19936" lon="5.5373">
        <ele>811</ele>
        <time>2019-06-04T08:31:28Z</time>
      </trkpt>
      <trkpt lat="44.19932" lon="5.53733">
        <ele>811</ele>
        <time>2019-06-04T08:31:29Z</time>
      </trkpt>
      <trkpt lat="44.19928" lon="5.53735">
        <ele>811</ele>
        <time>2019-06-04T08:31:30Z</time>
      </trkpt>
      <trkpt lat="44.19923" lon="5.53737">
        <ele>811</ele>
        <time>2019-06-04T08:31:31Z</time>
      </trkpt>
      <trkpt lat="44.19919" lon="5.53739">
        <ele>811</ele>
        <time>2019-06-04T08:31:32Z</time>
      </trkpt>
      <trkpt lat="44.19914" lon="5.53741">
        <ele>811</ele>
        <time>2019-06-04T08:31:33Z</time>
      </trkpt>
      <trkpt lat="44.1991" lon="5.53742">
        <ele>811</ele>
        <time>2019-06-04T08:31:34Z</time>
      </trkpt>
      <trkpt lat="44.19905" lon="5.53743">
        <ele>811</ele>
        <time>2019-06-04T08:31:35Z</time>
      </trkpt>
      <trkpt lat="44.199" lon="5.53745">
        <ele>811</ele>
        <time>2019-06-04T08:31:36Z</time>
      </trkpt>
      <trkpt lat="44.19896" lon="5.53747">
        <ele>811</ele>
        <time>2019-06-04T08:31:37Z</time>
      </trkpt>
      <trkpt lat="44.19891" lon="5.53749">
        <ele>812</ele>
        <time>2019-06-04T08:31:38Z</time>
      </trkpt>
      <trkpt lat="44.19886" lon="5.5375">
        <ele>812</ele>
        <time>2019-06-04T08:31:39Z</time>
      </trkpt>
      <trkpt lat="44.19882" lon="5.53752">
        <ele>812</ele>
        <time>2019-06-04T08:31:40Z</time>
      </trkpt>
      <trkpt lat="44.19877" lon="5.53753">
        <ele>812</ele>
        <time>2019-06-04T08:31:41Z</time>
      </trkpt>
      <trkpt lat="44.19873" lon="5.53754">
        <ele>812</ele>
        <time>2019-06-04T08:31:42Z</time>
      </trkpt>
      <trkpt lat="44.19868" lon="5.53755">
        <ele>812</ele>
        <time>2019-06-04T08:31:43Z</time>
      </trkpt>
      <trkpt lat="44.19863" lon="5.53757">
        <ele>812</ele>
        <time>2019-06-04T08:31:44Z</time>
      </trkpt>
      <trkpt lat="44.19859" lon="5.53758">
        <ele>812</ele>
        <time>2019-06-04T08:31:45Z</time>
      </trkpt>
      <trkpt lat="44.19854" lon="5.53759">
        <ele>812</ele>
        <time>2019-06-04T08:31:46Z</time>
      </trkpt>
      <trkpt lat="44.19849" lon="5.5376">
        <ele>812</ele>
        <time>2019-06-04T08:31:47Z</time>
      </trkpt>
      <trkpt lat="44.19844" lon="5.53761">
        <ele>812</ele>
        <time>2019-06-04T08:31:48Z</time>
      </trkpt>
      <trkpt lat="44.19839" lon="5.53761">
        <ele>812</ele>
        <time>2019-06-04T08:31:49Z</time>
      </trkpt>
      <trkpt lat="44.19835" lon="5.53762">
        <ele>812</ele>
        <time>2019-06-04T08:31:50Z</time>
      </trkpt>
      <trkpt lat="44.1983" lon="5.53763">
        <ele>812</ele>
        <time>2019-06-04T08:31:51Z</time>
      </trkpt>
      <trkpt lat="44.19825" lon="5.53762">
        <ele>812</ele>
        <time>2019-06-04T08:31:52Z</time>
      </trkpt>
      <trkpt lat="44.19821" lon="5.53763">
        <ele>812</ele>
        <time>2019-06-04T08:31:53Z</time>
      </trkpt>
      <trkpt lat="44.19816" lon="5.53763">
        <ele>812</ele>
        <time>2019-06-04T08:31:54Z</time>
      </trkpt>
      <trkpt lat="44.19812" lon="5.53763">
        <ele>813</ele>
        <time>2019-06-04T08:31:55Z</time>
      </trkpt>
      <trkpt lat="44.19807" lon="5.53763">
        <ele>813</ele>
        <time>2019-06-04T08:31:56Z</time>
      </trkpt>
      <trkpt lat="44.19802" lon="5.53764">
        <ele>813</ele>
        <time>2019-06-04T08:31:57Z</time>
      </trkpt>
      <trkpt lat="44.19798" lon="5.53764">
        <ele>813</ele>
        <time>2019-06-04T08:31:58Z</time>
      </trkpt>
      <trkpt lat="44.19793" lon="5.53764">
        <ele>813</ele>
        <time>2019-06-04T08:31:59Z</time>
      </trkpt>
      <trkpt lat="44.19789" lon="5.53764">
        <ele>813</ele>
        <time>2019-06-04T08:32:00Z</time>
      </trkpt>
      <trkpt lat="44.19785" lon="5.53765">
        <ele>813</ele>
        <time>2019-06-04T08:32:01Z</time>
      </trkpt>
      <trkpt lat="44.1978" lon="5.53765">
        <ele>813</ele>
        <time>2019-06-04T08:32:02Z</time>
      </trkpt>
      <trkpt lat="44.19776" lon="5.53765">
        <ele>814</ele>
        <time>2019-06-04T08:32:03Z</time>
      </trkpt>
      <trkpt lat="44.19771" lon="5.53765">
        <ele>814</ele>
        <time>2019-06-04T08:32:04Z</time>
      </trkpt>
      <trkpt lat="44.19767" lon="5.53765">
        <ele>814</ele>
        <time>2019-06-04T08:32:05Z</time>
      </trkpt>
      <trkpt lat="44.19762" lon="5.53765">
        <ele>814</ele>
        <time>2019-06-04T08:32:06Z</time>
      </trkpt>
      <trkpt lat="44.19758" lon="5.53764">
        <ele>815</ele>
        <time>2019-06-04T08:32:07Z</time>
      </trkpt>
      <trkpt lat="44.19754" lon="5.53765">
        <ele>815</ele>
        <time>2019-06-04T08:32:08Z</time>
      </trkpt>
      <trkpt lat="44.19749" lon="5.53765">
        <ele>815</ele>
        <time>2019-06-04T08:32:09Z</time>
      </trkpt>
      <trkpt lat="44.19745" lon="5.53765">
        <ele>815</ele>
        <time>2019-06-04T08:32:10Z</time>
      </trkpt>
      <trkpt lat="44.19741" lon="5.53765">
        <ele>815</ele>
        <time>2019-06-04T08:32:11Z</time>
      </trkpt>
      <trkpt lat="44.19736" lon="5.53765">
        <ele>815</ele>
        <time>2019-06-04T08:32:12Z</time>
      </trkpt>
      <trkpt lat="44.19732" lon="5.53765">
        <ele>816</ele>
        <time>2019-06-04T08:32:13Z</time>
      </trkpt>
      <trkpt lat="44.19727" lon="5.53765">
        <ele>816</ele>
        <time>2019-06-04T08:32:14Z</time>
      </trkpt>
      <trkpt lat="44.19723" lon="5.53765">
        <ele>816</ele>
        <time>2019-06-04T08:32:15Z</time>
      </trkpt>
      <trkpt lat="44.19718" lon="5.53766">
        <ele>816</ele>
        <time>2019-06-04T08:32:16Z</time>
      </trkpt>
      <trkpt lat="44.19714" lon="5.53766">
        <ele>817</ele>
        <time>2019-06-04T08:32:17Z</time>
      </trkpt>
      <trkpt lat="44.19709" lon="5.53767">
        <ele>817</ele>
        <time>2019-06-04T08:32:18Z</time>
      </trkpt>
      <trkpt lat="44.19704" lon="5.53767">
        <ele>817</ele>
        <time>2019-06-04T08:32:19Z</time>
      </trkpt>
      <trkpt lat="44.19699" lon="5.53767">
        <ele>817</ele>
        <time>2019-06-04T08:32:20Z</time>
      </trkpt>
      <trkpt lat="44.19695" lon="5.53767">
        <ele>817</ele>
        <time>2019-06-04T08:32:21Z</time>
      </trkpt>
      <trkpt lat="44.1969" lon="5.53767">
        <ele>817</ele>
        <time>2019-06-04T08:32:22Z</time>
      </trkpt>
      <trkpt lat="44.19686" lon="5.53767">
        <ele>817</ele>
        <time>2019-06-04T08:32:23Z</time>
      </trkpt>
      <trkpt lat="44.19681" lon="5.53767">
        <ele>817</ele>
        <time>2019-06-04T08:32:24Z</time>
      </trkpt>
      <trkpt lat="44.19676" lon="5.53767">
        <ele>817</ele>
        <time>2019-06-04T08:32:25Z</time>
      </trkpt>
      <trkpt lat="44.19672" lon="5.53767">
        <ele>817</ele>
        <time>2019-06-04T08:32:26Z</time>
      </trkpt>
      <trkpt lat="44.19667" lon="5.53768">
        <ele>817</ele>
        <time>2019-06-04T08:32:27Z</time>
      </trkpt>
      <trkpt lat="44.19662" lon="5.53768">
        <ele>818</ele>
        <time>2019-06-04T08:32:28Z</time>
      </trkpt>
      <trkpt lat="44.19658" lon="5.53768">
        <ele>818</ele>
        <time>2019-06-04T08:32:29Z</time>
      </trkpt>
      <trkpt lat="44.19653" lon="5.53769">
        <ele>818</ele>
        <time>2019-06-04T08:32:30Z</time>
      </trkpt>
      <trkpt lat="44.19649" lon="5.53769">
        <ele>818</ele>
        <time>2019-06-04T08:32:31Z</time>
      </trkpt>
      <trkpt lat="44.19644" lon="5.53769">
        <ele>818</ele>
        <time>2019-06-04T08:32:32Z</time>
      </trkpt>
      <trkpt lat="44.1964" lon="5.53769">
        <ele>818</ele>
        <time>2019-06-04T08:32:33Z</time>
      </trkpt>
      <trkpt lat="44.19635" lon="5.53769">
        <ele>819</ele>
        <time>2019-06-04T08:32:34Z</time>
      </trkpt>
      <trkpt lat="44.19631" lon="5.53769">
        <ele>819</ele>
        <time>2019-06-04T08:32:35Z</time>
      </trkpt>
      <trkpt lat="44.19627" lon="5.53769">
        <ele>819</ele>
        <time>2019-06-04T08:32:36Z</time>
      </trkpt>
      <trkpt lat="44.19622" lon="5.53769">
        <ele>819</ele>
        <time>2019-06-04T08:32:37Z</time>
      </trkpt>
      <trkpt lat="44.19617" lon="5.53769">
        <ele>819</ele>
        <time>2019-06-04T08:32:38Z</time>
      </trkpt>
      <trkpt lat="44.19613" lon="5.53769">
        <ele>819</ele>
        <time>2019-06-04T08:32:39Z</time>
      </trkpt>
      <trkpt lat="44.19609" lon="5.53769">
        <ele>819</ele>
        <time>2019-06-04T08:32:40Z</time>
      </trkpt>
      <trkpt lat="44.19604" lon="5.53769">
        <ele>819</ele>
        <time>2019-06-04T08:32:41Z</time>
      </trkpt>
      <trkpt lat="44.196" lon="5.53769">
        <ele>820</ele>
        <time>2019-06-04T08:32:42Z</time>
      </trkpt>
      <trkpt lat="44.19595" lon="5.53769">
        <ele>820</ele>
        <time>2019-06-04T08:32:43Z</time>
      </trkpt>
      <trkpt lat="44.19591" lon="5.53769">
        <ele>820</ele>
        <time>2019-06-04T08:32:44Z</time>
      </trkpt>
      <trkpt lat="44.19586" lon="5.53769">
        <ele>820</ele>
        <time>2019-06-04T08:32:45Z</time>
      </trkpt>
      <trkpt lat="44.19582" lon="5.53769">
        <ele>820</ele>
        <time>2019-06-04T08:32:46Z</time>
      </trkpt>
      <trkpt lat="44.19577" lon="5.53769">
        <ele>820</ele>
        <time>2019-06-04T08:32:47Z</time>
      </trkpt>
      <trkpt lat="44.19573" lon="5.53769">
        <ele>820</ele>
        <time>2019-06-04T08:32:48Z</time>
      </trkpt>
      <trkpt lat="44.19568" lon="5.53769">
        <ele>820</ele>
        <time>2019-06-04T08:32:49Z</time>
      </trkpt>
      <trkpt lat="44.19564" lon="5.5377">
        <ele>820</ele>
        <time>2019-06-04T08:32:50Z</time>
      </trkpt>
      <trkpt lat="44.19559" lon="5.5377">
        <ele>821</ele>
        <time>2019-06-04T08:32:51Z</time>
      </trkpt>
      <trkpt lat="44.19555" lon="5.5377">
        <ele>821</ele>
        <time>2019-06-04T08:32:52Z</time>
      </trkpt>
      <trkpt lat="44.1955" lon="5.5377">
        <ele>821</ele>
        <time>2019-06-04T08:32:53Z</time>
      </trkpt>
      <trkpt lat="44.19546" lon="5.5377">
        <ele>821</ele>
        <time>2019-06-04T08:32:54Z</time>
      </trkpt>
      <trkpt lat="44.19541" lon="5.53769">
        <ele>821</ele>
        <time>2019-06-04T08:32:55Z</time>
      </trkpt>
      <trkpt lat="44.19537" lon="5.53769">
        <ele>821</ele>
        <time>2019-06-04T08:32:56Z</time>
      </trkpt>
      <trkpt lat="44.19532" lon="5.53769">
        <ele>821</ele>
        <time>2019-06-04T08:32:57Z</time>
      </trkpt>
      <trkpt lat="44.19528" lon="5.53769">
        <ele>821</ele>
        <time>2019-06-04T08:32:58Z</time>
      </trkpt>
      <trkpt lat="44.19523" lon="5.53769">
        <ele>822</ele>
        <time>2019-06-04T08:32:59Z</time>
      </trkpt>
      <trkpt lat="44.19519" lon="5.53769">
        <ele>822</ele>
        <time>2019-06-04T08:33:00Z</time>
      </trkpt>
      <trkpt lat="44.19514" lon="5.53769">
        <ele>822</ele>
        <time>2019-06-04T08:33:01Z</time>
      </trkpt>
      <trkpt lat="44.1951" lon="5.53769">
        <ele>822</ele>
        <time>2019-06-04T08:33:02Z</time>
      </trkpt>
      <trkpt lat="44.19506" lon="5.53769">
        <ele>822</ele>
        <time>2019-06-04T08:33:03Z</time>
      </trkpt>
      <trkpt lat="44.19501" lon="5.53768">
        <ele>822</ele>
        <time>2019-06-04T08:33:04Z</time>
      </trkpt>
      <trkpt lat="44.19497" lon="5.53768">
        <ele>822</ele>
        <time>2019-06-04T08:33:05Z</time>
      </trkpt>
      <trkpt lat="44.19492" lon="5.53768">
        <ele>822</ele>
        <time>2019-06-04T08:33:06Z</time>
      </trkpt>
      <trkpt lat="44.19488" lon="5.53768">
        <ele>823</ele>
        <time>2019-06-04T08:33:07Z</time>
      </trkpt>
      <trkpt lat="44.19483" lon="5.53768">
        <ele>823</ele>
        <time>2019-06-04T08:33:08Z</time>
      </trkpt>
      <trkpt lat="44.19479" lon="5.53767">
        <ele>823</ele>
        <time>2019-06-04T08:33:09Z</time>
      </trkpt>
      <trkpt lat="44.19474" lon="5.53767">
        <ele>823</ele>
        <time>2019-06-04T08:33:10Z</time>
      </trkpt>
      <trkpt lat="44.1947" lon="5.53767">
        <ele>823</ele>
        <time>2019-06-04T08:33:11Z</time>
      </trkpt>
      <trkpt lat="44.19465" lon="5.53767">
        <ele>823</ele>
        <time>2019-06-04T08:33:12Z</time>
      </trkpt>
      <trkpt lat="44.19461" lon="5.53766">
        <ele>823</ele>
        <time>2019-06-04T08:33:13Z</time>
      </trkpt>
      <trkpt lat="44.19456" lon="5.53766">
        <ele>823</ele>
        <time>2019-06-04T08:33:14Z</time>
      </trkpt>
      <trkpt lat="44.19451" lon="5.53765">
        <ele>823</ele>
        <time>2019-06-04T08:33:15Z</time>
      </trkpt>
      <trkpt lat="44.19447" lon="5.53765">
        <ele>824</ele>
        <time>2019-06-04T08:33:16Z</time>
      </trkpt>
      <trkpt lat="44.19442" lon="5.53764">
        <ele>824</ele>
        <time>2019-06-04T08:33:17Z</time>
      </trkpt>
      <trkpt lat="44.19438" lon="5.53764">
        <ele>824</ele>
        <time>2019-06-04T08:33:18Z</time>
      </trkpt>
      <trkpt lat="44.19433" lon="5.53764">
        <ele>824</ele>
        <time>2019-06-04T08:33:19Z</time>
      </trkpt>
      <trkpt lat="44.19429" lon="5.53764">
        <ele>824</ele>
        <time>2019-06-04T08:33:20Z</time>
      </trkpt>
      <trkpt lat="44.19424" lon="5.53764">
        <ele>825</ele>
        <time>2019-06-04T08:33:21Z</time>
      </trkpt>
      <trkpt lat="44.19419" lon="5.53763">
        <ele>825</ele>
        <time>2019-06-04T08:33:22Z</time>
      </trkpt>
      <trkpt lat="44.19415" lon="5.53763">
        <ele>825</ele>
        <time>2019-06-04T08:33:23Z</time>
      </trkpt>
      <trkpt lat="44.1941" lon="5.53763">
        <ele>825</ele>
        <time>2019-06-04T08:33:24Z</time>
      </trkpt>
      <trkpt lat="44.19406" lon="5.53762">
        <ele>825</ele>
        <time>2019-06-04T08:33:25Z</time>
      </trkpt>
      <trkpt lat="44.19401" lon="5.53762">
        <ele>825</ele>
        <time>2019-06-04T08:33:26Z</time>
      </trkpt>
      <trkpt lat="44.19396" lon="5.53761">
        <ele>825</ele>
        <time>2019-06-04T08:33:27Z</time>
      </trkpt>
      <trkpt lat="44.19392" lon="5.53761">
        <ele>825</ele>
        <time>2019-06-04T08:33:28Z</time>
      </trkpt>
      <trkpt lat="44.19387" lon="5.53761">
        <ele>826</ele>
        <time>2019-06-04T08:33:29Z</time>
      </trkpt>
      <trkpt lat="44.19383" lon="5.5376">
        <ele>826</ele>
        <time>2019-06-04T08:33:30Z</time>
      </trkpt>
      <trkpt lat="44.19378" lon="5.5376">
        <ele>826</ele>
        <time>2019-06-04T08:33:31Z</time>
      </trkpt>
      <trkpt lat="44.19373" lon="5.53759">
        <ele>826</ele>
        <time>2019-06-04T08:33:32Z</time>
      </trkpt>
      <trkpt lat="44.19369" lon="5.53759">
        <ele>826</ele>
        <time>2019-06-04T08:33:33Z</time>
      </trkpt>
      <trkpt lat="44.19364" lon="5.53759">
        <ele>826</ele>
        <time>2019-06-04T08:33:34Z</time>
      </trkpt>
      <trkpt lat="44.1936" lon="5.53758">
        <ele>826</ele>
        <time>2019-06-04T08:33:35Z</time>
      </trkpt>
      <trkpt lat="44.19355" lon="5.53758">
        <ele>826</ele>
        <time>2019-06-04T08:33:36Z</time>
      </trkpt>
      <trkpt lat="44.19351" lon="5.53758">
        <ele>826</ele>
        <time>2019-06-04T08:33:37Z</time>
      </trkpt>
      <trkpt lat="44.19346" lon="5.53757">
        <ele>826</ele>
        <time>2019-06-04T08:33:38Z</time>
      </trkpt>
      <trkpt lat="44.19342" lon="5.53757">
        <ele>826</ele>
        <time>2019-06-04T08:33:39Z</time>
      </trkpt>
      <trkpt lat="44.19337" lon="5.53757">
        <ele>826</ele>
        <time>2019-06-04T08:33:40Z</time>
      </trkpt>
      <trkpt lat="44.19333" lon="5.53757">
        <ele>826</ele>
        <time>2019-06-04T08:33:41Z</time>
      </trkpt>
      <trkpt lat="44.19328" lon="5.53756">
        <ele>826</ele>
        <time>2019-06-04T08:33:42Z</time>
      </trkpt>
      <trkpt lat="44.19324" lon="5.53756">
        <ele>826</ele>
        <time>2019-06-04T08:33:43Z</time>
      </trkpt>
      <trkpt lat="44.19319" lon="5.53755">
        <ele>826</ele>
        <time>2019-06-04T08:33:44Z</time>
      </trkpt>
      <trkpt lat="44.19315" lon="5.53755">
        <ele>826</ele>
        <time>2019-06-04T08:33:45Z</time>
      </trkpt>
      <trkpt lat="44.1931" lon="5.53755">
        <ele>826</ele>
        <time>2019-06-04T08:33:46Z</time>
      </trkpt>
      <trkpt lat="44.19306" lon="5.53754">
        <ele>826</ele>
        <time>2019-06-04T08:33:47Z</time>
      </trkpt>
      <trkpt lat="44.19302" lon="5.53754">
        <ele>827</ele>
        <time>2019-06-04T08:33:48Z</time>
      </trkpt>
      <trkpt lat="44.19297" lon="5.53753">
        <ele>827</ele>
        <time>2019-06-04T08:33:49Z</time>
      </trkpt>
      <trkpt lat="44.19293" lon="5.53753">
        <ele>827</ele>
        <time>2019-06-04T08:33:50Z</time>
      </trkpt>
      <trkpt lat="44.19289" lon="5.53753">
        <ele>827</ele>
        <time>2019-06-04T08:33:51Z</time>
      </trkpt>
      <trkpt lat="44.19284" lon="5.53752">
        <ele>827</ele>
        <time>2019-06-04T08:33:52Z</time>
      </trkpt>
      <trkpt lat="44.1928" lon="5.53752">
        <ele>827</ele>
        <time>2019-06-04T08:33:53Z</time>
      </trkpt>
      <trkpt lat="44.19276" lon="5.53752">
        <ele>827</ele>
        <time>2019-06-04T08:33:54Z</time>
      </trkpt>
      <trkpt lat="44.19271" lon="5.53752">
        <ele>827</ele>
        <time>2019-06-04T08:33:55Z</time>
      </trkpt>
      <trkpt lat="44.19267" lon="5.53751">
        <ele>828</ele>
        <time>2019-06-04T08:33:56Z</time>
      </trkpt>
      <trkpt lat="44.19262" lon="5.53751">
        <ele>828</ele>
        <time>2019-06-04T08:33:57Z</time>
      </trkpt>
      <trkpt lat="44.19258" lon="5.5375">
        <ele>828</ele>
        <time>2019-06-04T08:33:58Z</time>
      </trkpt>
      <trkpt lat="44.19254" lon="5.5375">
        <ele>828</ele>
        <time>2019-06-04T08:33:59Z</time>
      </trkpt>
      <trkpt lat="44.19249" lon="5.53749">
        <ele>828</ele>
        <time>2019-06-04T08:34:00Z</time>
      </trkpt>
      <trkpt lat="44.19245" lon="5.53749">
        <ele>828</ele>
        <time>2019-06-04T08:34:01Z</time>
      </trkpt>
      <trkpt lat="44.19241" lon="5.53748">
        <ele>829</ele>
        <time>2019-06-04T08:34:02Z</time>
      </trkpt>
      <trkpt lat="44.19237" lon="5.53748">
        <ele>829</ele>
        <time>2019-06-04T08:34:03Z</time>
      </trkpt>
      <trkpt lat="44.19233" lon="5.53747">
        <ele>829</ele>
        <time>2019-06-04T08:34:04Z</time>
      </trkpt>
      <trkpt lat="44.19228" lon="5.53747">
        <ele>830</ele>
        <time>2019-06-04T08:34:05Z</time>
      </trkpt>
      <trkpt lat="44.19225" lon="5.53747">
        <ele>830</ele>
        <time>2019-06-04T08:34:06Z</time>
      </trkpt>
      <trkpt lat="44.1922" lon="5.53746">
        <ele>830</ele>
        <time>2019-06-04T08:34:07Z</time>
      </trkpt>
      <trkpt lat="44.19217" lon="5.53746">
        <ele>831</ele>
        <time>2019-06-04T08:34:08Z</time>
      </trkpt>
      <trkpt lat="44.19212" lon="5.53745">
        <ele>831</ele>
        <time>2019-06-04T08:34:09Z</time>
      </trkpt>
      <trkpt lat="44.19209" lon="5.53745">
        <ele>832</ele>
        <time>2019-06-04T08:34:10Z</time>
      </trkpt>
      <trkpt lat="44.19205" lon="5.53744">
        <ele>832</ele>
        <time>2019-06-04T08:34:11Z</time>
      </trkpt>
      <trkpt lat="44.19201" lon="5.53743">
        <ele>833</ele>
        <time>2019-06-04T08:34:12Z</time>
      </trkpt>
      <trkpt lat="44.19197" lon="5.53743">
        <ele>833</ele>
        <time>2019-06-04T08:34:13Z</time>
      </trkpt>
      <trkpt lat="44.19193" lon="5.53742">
        <ele>833</ele>
        <time>2019-06-04T08:34:14Z</time>
      </trkpt>
      <trkpt lat="44.19189" lon="5.53742">
        <ele>833</ele>
        <time>2019-06-04T08:34:15Z</time>
      </trkpt>
      <trkpt lat="44.19185" lon="5.53741">
        <ele>834</ele>
        <time>2019-06-04T08:34:16Z</time>
      </trkpt>
      <trkpt lat="44.19182" lon="5.53741">
        <ele>834</ele>
        <time>2019-06-04T08:34:17Z</time>
      </trkpt>
      <trkpt lat="44.19178" lon="5.53741">
        <ele>834</ele>
        <time>2019-06-04T08:34:18Z</time>
      </trkpt>
      <trkpt lat="44.19174" lon="5.5374">
        <ele>834</ele>
        <time>2019-06-04T08:34:19Z</time>
      </trkpt>
      <trkpt lat="44.1917" lon="5.5374">
        <ele>834</ele>
        <time>2019-06-04T08:34:20Z</time>
      </trkpt>
      <trkpt lat="44.19167" lon="5.5374">
        <ele>835</ele>
        <time>2019-06-04T08:34:21Z</time>
      </trkpt>
      <trkpt lat="44.19163" lon="5.5374">
        <ele>835</ele>
        <time>2019-06-04T08:34:22Z</time>
      </trkpt>
      <trkpt lat="44.19159" lon="5.5374">
        <ele>835</ele>
        <time>2019-06-04T08:34:23Z</time>
      </trkpt>
      <trkpt lat="44.19155" lon="5.53739">
        <ele>835</ele>
        <time>2019-06-04T08:34:24Z</time>
      </trkpt>
      <trkpt lat="44.19151" lon="5.53738">
        <ele>835</ele>
        <time>2019-06-04T08:34:25Z</time>
      </trkpt>
      <trkpt lat="44.19147" lon="5.53738">
        <ele>836</ele>
        <time>2019-06-04T08:34:26Z</time>
      </trkpt>
      <trkpt lat="44.19144" lon="5.53737">
        <ele>836</ele>
        <time>2019-06-04T08:34:27Z</time>
      </trkpt>
      <trkpt lat="44.1914" lon="5.53737">
        <ele>836</ele>
        <time>2019-06-04T08:34:28Z</time>
      </trkpt>
      <trkpt lat="44.19136" lon="5.53737">
        <ele>836</ele>
        <time>2019-06-04T08:34:29Z</time>
      </trkpt>
      <trkpt lat="44.19132" lon="5.53737">
        <ele>836</ele>
        <time>2019-06-04T08:34:30Z</time>
      </trkpt>
      <trkpt lat="44.19128" lon="5.53736">
        <ele>836</ele>
        <time>2019-06-04T08:34:31Z</time>
      </trkpt>
      <trkpt lat="44.19125" lon="5.53735">
        <ele>836</ele>
        <time>2019-06-04T08:34:32Z</time>
      </trkpt>
      <trkpt lat="44.19121" lon="5.53735">
        <ele>836</ele>
        <time>2019-06-04T08:34:33Z</time>
      </trkpt>
      <trkpt lat="44.19117" lon="5.53735">
        <ele>837</ele>
        <time>2019-06-04T08:34:34Z</time>
      </trkpt>
      <trkpt lat="44.19114" lon="5.53735">
        <ele>837</ele>
        <time>2019-06-04T08:34:35Z</time>
      </trkpt>
      <trkpt lat="44.19111" lon="5.53734">
        <ele>837</ele>
        <time>2019-06-04T08:34:36Z</time>
      </trkpt>
      <trkpt lat="44.19108" lon="5.53734">
        <ele>837</ele>
        <time>2019-06-04T08:34:37Z</time>
      </trkpt>
      <trkpt lat="44.19105" lon="5.53733">
        <ele>837</ele>
        <time>2019-06-04T08:34:38Z</time>
      </trkpt>
      <trkpt lat="44.19101" lon="5.53733">
        <ele>838</ele>
        <time>2019-06-04T08:34:39Z</time>
      </trkpt>
      <trkpt lat="44.19098" lon="5.53733">
        <ele>838</ele>
        <time>2019-06-04T08:34:40Z</time>
      </trkpt>
      <trkpt lat="44.19094" lon="5.53732">
        <ele>838</ele>
        <time>2019-06-04T08:34:41Z</time>
      </trkpt>
      <trkpt lat="44.19091" lon="5.53732">
        <ele>838</ele>
        <time>2019-06-04T08:34:42Z</time>
      </trkpt>
      <trkpt lat="44.19087" lon="5.53732">
        <ele>839</ele>
        <time>2019-06-04T08:34:43Z</time>
      </trkpt>
      <trkpt lat="44.19083" lon="5.53732">
        <ele>839</ele>
        <time>2019-06-04T08:34:44Z</time>
      </trkpt>
      <trkpt lat="44.19079" lon="5.53731">
        <ele>839</ele>
        <time>2019-06-04T08:34:45Z</time>
      </trkpt>
      <trkpt lat="44.19075" lon="5.53731">
        <ele>839</ele>
        <time>2019-06-04T08:34:46Z</time>
      </trkpt>
      <trkpt lat="44.19071" lon="5.53731">
        <ele>839</ele>
        <time>2019-06-04T08:34:47Z</time>
      </trkpt>
      <trkpt lat="44.19068" lon="5.5373">
        <ele>839</ele>
        <time>2019-06-04T08:34:48Z</time>
      </trkpt>
      <trkpt lat="44.19064" lon="5.5373">
        <ele>839</ele>
        <time>2019-06-04T08:34:49Z</time>
      </trkpt>
      <trkpt lat="44.19061" lon="5.5373">
        <ele>839</ele>
        <time>2019-06-04T08:34:50Z</time>
      </trkpt>
      <trkpt lat="44.19057" lon="5.5373">
        <ele>839</ele>
        <time>2019-06-04T08:34:51Z</time>
      </trkpt>
      <trkpt lat="44.19053" lon="5.53729">
        <ele>840</ele>
        <time>2019-06-04T08:34:52Z</time>
      </trkpt>
      <trkpt lat="44.1905" lon="5.53729">
        <ele>840</ele>
        <time>2019-06-04T08:34:53Z</time>
      </trkpt>
      <trkpt lat="44.19046" lon="5.53729">
        <ele>841</ele>
        <time>2019-06-04T08:34:54Z</time>
      </trkpt>
      <trkpt lat="44.19042" lon="5.53728">
        <ele>841</ele>
        <time>2019-06-04T08:34:55Z</time>
      </trkpt>
      <trkpt lat="44.19038" lon="5.53728">
        <ele>841</ele>
        <time>2019-06-04T08:34:56Z</time>
      </trkpt>
      <trkpt lat="44.19035" lon="5.53728">
        <ele>842</ele>
        <time>2019-06-04T08:34:57Z</time>
      </trkpt>
      <trkpt lat="44.19031" lon="5.53728">
        <ele>842</ele>
        <time>2019-06-04T08:34:58Z</time>
      </trkpt>
      <trkpt lat="44.19028" lon="5.53727">
        <ele>843</ele>
        <time>2019-06-04T08:34:59Z</time>
      </trkpt>
      <trkpt lat="44.19024" lon="5.53727">
        <ele>843</ele>
        <time>2019-06-04T08:35:00Z</time>
      </trkpt>
      <trkpt lat="44.1902" lon="5.53727">
        <ele>843</ele>
        <time>2019-06-04T08:35:01Z</time>
      </trkpt>
      <trkpt lat="44.19017" lon="5.53727">
        <ele>843</ele>
        <time>2019-06-04T08:35:02Z</time>
      </trkpt>
      <trkpt lat="44.19013" lon="5.53727">
        <ele>844</ele>
        <time>2019-06-04T08:35:03Z</time>
      </trkpt>
      <trkpt lat="44.19009" lon="5.53727">
        <ele>844</ele>
        <time>2019-06-04T08:35:04Z</time>
      </trkpt>
      <trkpt lat="44.19006" lon="5.53726">
        <ele>844</ele>
        <time>2019-06-04T08:35:05Z</time>
      </trkpt>
      <trkpt lat="44.19003" lon="5.53726">
        <ele>844</ele>
        <time>2019-06-04T08:35:06Z</time>
      </trkpt>
      <trkpt lat="44.19" lon="5.53726">
        <ele>844</ele>
        <time>2019-06-04T08:35:07Z</time>
      </trkpt>
      <trkpt lat="44.18997" lon="5.53726">
        <ele>844</ele>
        <time>2019-06-04T08:35:08Z</time>
      </trkpt>
      <trkpt lat="44.18994" lon="5.53726">
        <ele>844</ele>
        <time>2019-06-04T08:35:09Z</time>
      </trkpt>
      <trkpt lat="44.18991" lon="5.53726">
        <ele>845</ele>
        <time>2019-06-04T08:35:10Z</time>
      </trkpt>
      <trkpt lat="44.18989" lon="5.53727">
        <ele>845</ele>
        <time>2019-06-04T08:35:11Z</time>
      </trkpt>
      <trkpt lat="44.18987" lon="5.53729">
        <ele>845</ele>
        <time>2019-06-04T08:35:12Z</time>
      </trkpt>
      <trkpt lat="44.18986" lon="5.53731">
        <ele>845</ele>
        <time>2019-06-04T08:35:13Z</time>
      </trkpt>
      <trkpt lat="44.18984" lon="5.53734">
        <ele>845</ele>
        <time>2019-06-04T08:35:14Z</time>
      </trkpt>
      <trkpt lat="44.18983" lon="5.53738">
        <ele>845</ele>
        <time>2019-06-04T08:35:15Z</time>
      </trkpt>
      <trkpt lat="44.1898" lon="5.53742">
        <ele>845</ele>
        <time>2019-06-04T08:35:16Z</time>
      </trkpt>
      <trkpt lat="44.18978" lon="5.53745">
        <ele>845</ele>
        <time>2019-06-04T08:35:17Z</time>
      </trkpt>
      <trkpt lat="44.18975" lon="5.53748">
        <ele>845</ele>
        <time>2019-06-04T08:35:18Z</time>
      </trkpt>
      <trkpt lat="44.18971" lon="5.53751">
        <ele>845</ele>
        <time>2019-06-04T08:35:19Z</time>
      </trkpt>
      <trkpt lat="44.18967" lon="5.53753">
        <ele>845</ele>
        <time>2019-06-04T08:35:20Z</time>
      </trkpt>
      <trkpt lat="44.18962" lon="5.53753">
        <ele>845</ele>
        <time>2019-06-04T08:35:21Z</time>
      </trkpt>
      <trkpt lat="44.18957" lon="5.53754">
        <ele>845</ele>
        <time>2019-06-04T08:35:22Z</time>
      </trkpt>
      <trkpt lat="44.18952" lon="5.53754">
        <ele>845</ele>
        <time>2019-06-04T08:35:23Z</time>
      </trkpt>
      <trkpt lat="44.18947" lon="5.53754">
        <ele>845</ele>
        <time>2019-06-04T08:35:24Z</time>
      </trkpt>
      <trkpt lat="44.18942" lon="5.53755">
        <ele>845</ele>
        <time>2019-06-04T08:35:25Z</time>
      </trkpt>
      <trkpt lat="44.18937" lon="5.53756">
        <ele>845</ele>
        <time>2019-06-04T08:35:26Z</time>
      </trkpt>
      <trkpt lat="44.18931" lon="5.53757">
        <ele>845</ele>
        <time>2019-06-04T08:35:27Z</time>
      </trkpt>
      <trkpt lat="44.18926" lon="5.53759">
        <ele>845</ele>
        <time>2019-06-04T08:35:28Z</time>
      </trkpt>
      <trkpt lat="44.18921" lon="5.53762">
        <ele>845</ele>
        <time>2019-06-04T08:35:29Z</time>
      </trkpt>
      <trkpt lat="44.18916" lon="5.53764">
        <ele>845</ele>
        <time>2019-06-04T08:35:30Z</time>
      </trkpt>
      <trkpt lat="44.1891" lon="5.53768">
        <ele>845</ele>
        <time>2019-06-04T08:35:31Z</time>
      </trkpt>
      <trkpt lat="44.18905" lon="5.53771">
        <ele>845</ele>
        <time>2019-06-04T08:35:32Z</time>
      </trkpt>
      <trkpt lat="44.189" lon="5.53774">
        <ele>845</ele>
        <time>2019-06-04T08:35:33Z</time>
      </trkpt>
      <trkpt lat="44.18894" lon="5.53777">
        <ele>845</ele>
        <time>2019-06-04T08:35:34Z</time>
      </trkpt>
      <trkpt lat="44.18888" lon="5.53781">
        <ele>845</ele>
        <time>2019-06-04T08:35:35Z</time>
      </trkpt>
      <trkpt lat="44.18882" lon="5.53785">
        <ele>845</ele>
        <time>2019-06-04T08:35:36Z</time>
      </trkpt>
      <trkpt lat="44.18877" lon="5.53788">
        <ele>845</ele>
        <time>2019-06-04T08:35:37Z</time>
      </trkpt>
      <trkpt lat="44.18871" lon="5.53792">
        <ele>845</ele>
        <time>2019-06-04T08:35:38Z</time>
      </trkpt>
      <trkpt lat="44.18865" lon="5.53796">
        <ele>845</ele>
        <time>2019-06-04T08:35:39Z</time>
      </trkpt>
      <trkpt lat="44.18859" lon="5.53799">
        <ele>845</ele>
        <time>2019-06-04T08:35:40Z</time>
      </trkpt>
      <trkpt lat="44.18853" lon="5.53803">
        <ele>845</ele>
        <time>2019-06-04T08:35:41Z</time>
      </trkpt>
      <trkpt lat="44.18847" lon="5.53807">
        <ele>845</ele>
        <time>2019-06-04T08:35:42Z</time>
      </trkpt>
      <trkpt lat="44.1884" lon="5.5381">
        <ele>845</ele>
        <time>2019-06-04T08:35:43Z</time>
      </trkpt>
      <trkpt lat="44.18834" lon="5.53814">
        <ele>845</ele>
        <time>2019-06-04T08:35:44Z</time>
      </trkpt>
      <trkpt lat="44.18828" lon="5.53817">
        <ele>845</ele>
        <time>2019-06-04T08:35:45Z</time>
      </trkpt>
      <trkpt lat="44.18822" lon="5.5382">
        <ele>845</ele>
        <time>2019-06-04T08:35:46Z</time>
      </trkpt>
      <trkpt lat="44.18816" lon="5.53824">
        <ele>844</ele>
        <time>2019-06-04T08:35:47Z</time>
      </trkpt>
      <trkpt lat="44.18811" lon="5.53827">
        <ele>844</ele>
        <time>2019-06-04T08:35:48Z</time>
      </trkpt>
      <trkpt lat="44.18805" lon="5.53831">
        <ele>844</ele>
        <time>2019-06-04T08:35:49Z</time>
      </trkpt>
      <trkpt lat="44.188" lon="5.53835">
        <ele>844</ele>
        <time>2019-06-04T08:35:50Z</time>
      </trkpt>
      <trkpt lat="44.18794" lon="5.53839">
        <ele>844</ele>
        <time>2019-06-04T08:35:51Z</time>
      </trkpt>
      <trkpt lat="44.18789" lon="5.53843">
        <ele>844</ele>
        <time>2019-06-04T08:35:52Z</time>
      </trkpt>
      <trkpt lat="44.18784" lon="5.53849">
        <ele>844</ele>
        <time>2019-06-04T08:35:53Z</time>
      </trkpt>
      <trkpt lat="44.1878" lon="5.53856">
        <ele>844</ele>
        <time>2019-06-04T08:35:54Z</time>
      </trkpt>
      <trkpt lat="44.18776" lon="5.53862">
        <ele>843</ele>
        <time>2019-06-04T08:35:55Z</time>
      </trkpt>
      <trkpt lat="44.18773" lon="5.53869">
        <ele>843</ele>
        <time>2019-06-04T08:35:56Z</time>
      </trkpt>
      <trkpt lat="44.1877" lon="5.53877">
        <ele>843</ele>
        <time>2019-06-04T08:35:57Z</time>
      </trkpt>
      <trkpt lat="44.18769" lon="5.53886">
        <ele>843</ele>
        <time>2019-06-04T08:35:58Z</time>
      </trkpt>
      <trkpt lat="44.18769" lon="5.53894">
        <ele>843</ele>
        <time>2019-06-04T08:35:59Z</time>
      </trkpt>
      <trkpt lat="44.18768" lon="5.53903">
        <ele>843</ele>
        <time>2019-06-04T08:36:00Z</time>
      </trkpt>
      <trkpt lat="44.18768" lon="5.53912">
        <ele>843</ele>
        <time>2019-06-04T08:36:01Z</time>
      </trkpt>
      <trkpt lat="44.18766" lon="5.5392">
        <ele>843</ele>
        <time>2019-06-04T08:36:02Z</time>
      </trkpt>
      <trkpt lat="44.18764" lon="5.53927">
        <ele>843</ele>
        <time>2019-06-04T08:36:03Z</time>
      </trkpt>
      <trkpt lat="44.1876" lon="5.53933">
        <ele>843</ele>
        <time>2019-06-04T08:36:04Z</time>
      </trkpt>
      <trkpt lat="44.18756" lon="5.53937">
        <ele>843</ele>
        <time>2019-06-04T08:36:05Z</time>
      </trkpt>
      <trkpt lat="44.18752" lon="5.53941">
        <ele>843</ele>
        <time>2019-06-04T08:36:06Z</time>
      </trkpt>
      <trkpt lat="44.18748" lon="5.53943">
        <ele>843</ele>
        <time>2019-06-04T08:36:07Z</time>
      </trkpt>
      <trkpt lat="44.18744" lon="5.53945">
        <ele>843</ele>
        <time>2019-06-04T08:36:08Z</time>
      </trkpt>
      <trkpt lat="44.1874" lon="5.53946">
        <ele>843</ele>
        <time>2019-06-04T08:36:09Z</time>
      </trkpt>
      <trkpt lat="44.18736" lon="5.53948">
        <ele>843</ele>
        <time>2019-06-04T08:36:10Z</time>
      </trkpt>
      <trkpt lat="44.18732" lon="5.53949">
        <ele>843</ele>
        <time>2019-06-04T08:36:11Z</time>
      </trkpt>
      <trkpt lat="44.18728" lon="5.53952">
        <ele>843</ele>
        <time>2019-06-04T08:36:12Z</time>
      </trkpt>
      <trkpt lat="44.18724" lon="5.53954">
        <ele>843</ele>
        <time>2019-06-04T08:36:13Z</time>
      </trkpt>
      <trkpt lat="44.18721" lon="5.53956">
        <ele>843</ele>
        <time>2019-06-04T08:36:14Z</time>
      </trkpt>
      <trkpt lat="44.18717" lon="5.53958">
        <ele>843</ele>
        <time>2019-06-04T08:36:15Z</time>
      </trkpt>
      <trkpt lat="44.18713" lon="5.5396">
        <ele>843</ele>
        <time>2019-06-04T08:36:16Z</time>
      </trkpt>
      <trkpt lat="44.1871" lon="5.53962">
        <ele>843</ele>
        <time>2019-06-04T08:36:17Z</time>
      </trkpt>
      <trkpt lat="44.18707" lon="5.53965">
        <ele>843</ele>
        <time>2019-06-04T08:36:18Z</time>
      </trkpt>
      <trkpt lat="44.18703" lon="5.53968">
        <ele>843</ele>
        <time>2019-06-04T08:36:19Z</time>
      </trkpt>
      <trkpt lat="44.187" lon="5.53971">
        <ele>843</ele>
        <time>2019-06-04T08:36:20Z</time>
      </trkpt>
      <trkpt lat="44.18697" lon="5.53974">
        <ele>843</ele>
        <time>2019-06-04T08:36:21Z</time>
      </trkpt>
      <trkpt lat="44.18694" lon="5.53977">
        <ele>844</ele>
        <time>2019-06-04T08:36:22Z</time>
      </trkpt>
      <trkpt lat="44.1869" lon="5.5398">
        <ele>844</ele>
        <time>2019-06-04T08:36:23Z</time>
      </trkpt>
      <trkpt lat="44.18687" lon="5.53983">
        <ele>844</ele>
        <time>2019-06-04T08:36:24Z</time>
      </trkpt>
      <trkpt lat="44.18684" lon="5.53986">
        <ele>844</ele>
        <time>2019-06-04T08:36:25Z</time>
      </trkpt>
      <trkpt lat="44.18681" lon="5.53989">
        <ele>845</ele>
        <time>2019-06-04T08:36:26Z</time>
      </trkpt>
      <trkpt lat="44.18678" lon="5.53992">
        <ele>845</ele>
        <time>2019-06-04T08:36:27Z</time>
      </trkpt>
      <trkpt lat="44.18675" lon="5.53996">
        <ele>845</ele>
        <time>2019-06-04T08:36:28Z</time>
      </trkpt>
      <trkpt lat="44.18672" lon="5.53999">
        <ele>845</ele>
        <time>2019-06-04T08:36:29Z</time>
      </trkpt>
      <trkpt lat="44.18669" lon="5.54002">
        <ele>846</ele>
        <time>2019-06-04T08:36:30Z</time>
      </trkpt>
      <trkpt lat="44.18666" lon="5.54005">
        <ele>846</ele>
        <time>2019-06-04T08:36:31Z</time>
      </trkpt>
      <trkpt lat="44.18663" lon="5.54008">
        <ele>846</ele>
        <time>2019-06-04T08:36:32Z</time>
      </trkpt>
      <trkpt lat="44.1866" lon="5.54011">
        <ele>846</ele>
        <time>2019-06-04T08:36:33Z</time>
      </trkpt>
      <trkpt lat="44.18658" lon="5.54014">
        <ele>846</ele>
        <time>2019-06-04T08:36:34Z</time>
      </trkpt>
      <trkpt lat="44.18655" lon="5.54017">
        <ele>846</ele>
        <time>2019-06-04T08:36:35Z</time>
      </trkpt>
      <trkpt lat="44.18652" lon="5.54021">
        <ele>847</ele>
        <time>2019-06-04T08:36:36Z</time>
      </trkpt>
      <trkpt lat="44.18649" lon="5.54024">
        <ele>847</ele>
        <time>2019-06-04T08:36:37Z</time>
      </trkpt>
      <trkpt lat="44.18646" lon="5.54027">
        <ele>847</ele>
        <time>2019-06-04T08:36:38Z</time>
      </trkpt>
      <trkpt lat="44.18643" lon="5.54031">
        <ele>847</ele>
        <time>2019-06-04T08:36:39Z</time>
      </trkpt>
      <trkpt lat="44.18641" lon="5.54034">
        <ele>847</ele>
        <time>2019-06-04T08:36:40Z</time>
      </trkpt>
      <trkpt lat="44.18638" lon="5.54038">
        <ele>847</ele>
        <time>2019-06-04T08:36:41Z</time>
      </trkpt>
      <trkpt lat="44.18635" lon="5.54042">
        <ele>847</ele>
        <time>2019-06-04T08:36:42Z</time>
      </trkpt>
      <trkpt lat="44.18633" lon="5.54045">
        <ele>847</ele>
        <time>2019-06-04T08:36:43Z</time>
      </trkpt>
      <trkpt lat="44.1863" lon="5.54049">
        <ele>847</ele>
        <time>2019-06-04T08:36:44Z</time>
      </trkpt>
      <trkpt lat="44.18628" lon="5.54054">
        <ele>847</ele>
        <time>2019-06-04T08:36:45Z</time>
      </trkpt>
      <trkpt lat="44.18625" lon="5.54058">
        <ele>847</ele>
        <time>2019-06-04T08:36:46Z</time>
      </trkpt>
      <trkpt lat="44.18622" lon="5.54062">
        <ele>847</ele>
        <time>2019-06-04T08:36:47Z</time>
      </trkpt>
      <trkpt lat="44.1862" lon="5.54065">
        <ele>847</ele>
        <time>2019-06-04T08:36:48Z</time>
      </trkpt>
      <trkpt lat="44.18617" lon="5.54069">
        <ele>847</ele>
        <time>2019-06-04T08:36:49Z</time>
      </trkpt>
      <trkpt lat="44.18615" lon="5.54073">
        <ele>848</ele>
        <time>2019-06-04T08:36:50Z</time>
      </trkpt>
      <trkpt lat="44.18612" lon="5.54077">
        <ele>848</ele>
        <time>2019-06-04T08:36:51Z</time>
      </trkpt>
      <trkpt lat="44.1861" lon="5.54082">
        <ele>848</ele>
        <time>2019-06-04T08:36:52Z</time>
      </trkpt>
      <trkpt lat="44.18607" lon="5.54086">
        <ele>848</ele>
        <time>2019-06-04T08:36:53Z</time>
      </trkpt>
      <trkpt lat="44.18605" lon="5.54091">
        <ele>849</ele>
        <time>2019-06-04T08:36:54Z</time>
      </trkpt>
      <trkpt lat="44.18602" lon="5.54095">
        <ele>849</ele>
        <time>2019-06-04T08:36:55Z</time>
      </trkpt>
      <trkpt lat="44.186" lon="5.541">
        <ele>849</ele>
        <time>2019-06-04T08:36:56Z</time>
      </trkpt>
      <trkpt lat="44.18597" lon="5.54104">
        <ele>849</ele>
        <time>2019-06-04T08:36:57Z</time>
      </trkpt>
      <trkpt lat="44.18595" lon="5.54109">
        <ele>850</ele>
        <time>2019-06-04T08:36:58Z</time>
      </trkpt>
      <trkpt lat="44.18592" lon="5.54113">
        <ele>850</ele>
        <time>2019-06-04T08:36:59Z</time>
      </trkpt>
      <trkpt lat="44.18589" lon="5.54117">
        <ele>850</ele>
        <time>2019-06-04T08:37:00Z</time>
      </trkpt>
      <trkpt lat="44.18587" lon="5.54122">
        <ele>850</ele>
        <time>2019-06-04T08:37:01Z</time>
      </trkpt>
      <trkpt lat="44.18584" lon="5.54127">
        <ele>850</ele>
        <time>2019-06-04T08:37:02Z</time>
      </trkpt>
      <trkpt lat="44.18581" lon="5.54132">
        <ele>850</ele>
        <time>2019-06-04T08:37:03Z</time>
      </trkpt>
      <trkpt lat="44.18579" lon="5.54137">
        <ele>850</ele>
        <time>2019-06-04T08:37:04Z</time>
      </trkpt>
      <trkpt lat="44.18576" lon="5.54142">
        <ele>850</ele>
        <time>2019-06-04T08:37:05Z</time>
      </trkpt>
      <trkpt lat="44.18574" lon="5.54147">
        <ele>851</ele>
        <time>2019-06-04T08:37:06Z</time>
      </trkpt>
      <trkpt lat="44.18572" lon="5.54152">
        <ele>851</ele>
        <time>2019-06-04T08:37:07Z</time>
      </trkpt>
      <trkpt lat="44.1857" lon="5.54157">
        <ele>851</ele>
        <time>2019-06-04T08:37:08Z</time>
      </trkpt>
      <trkpt lat="44.18567" lon="5.54162">
        <ele>851</ele>
        <time>2019-06-04T08:37:09Z</time>
      </trkpt>
      <trkpt lat="44.18565" lon="5.54168">
        <ele>851</ele>
        <time>2019-06-04T08:37:10Z</time>
      </trkpt>
      <trkpt lat="44.18563" lon="5.54173">
        <ele>851</ele>
        <time>2019-06-04T08:37:11Z</time>
      </trkpt>
      <trkpt lat="44.1856" lon="5.54177">
        <ele>851</ele>
        <time>2019-06-04T08:37:12Z</time>
      </trkpt>
      <trkpt lat="44.18558" lon="5.54181">
        <ele>851</ele>
        <time>2019-06-04T08:37:13Z</time>
      </trkpt>
      <trkpt lat="44.18557" lon="5.54187">
        <ele>851</ele>
        <time>2019-06-04T08:37:14Z</time>
      </trkpt>
      <trkpt lat="44.18555" lon="5.54192">
        <ele>852</ele>
        <time>2019-06-04T08:37:15Z</time>
      </trkpt>
      <trkpt lat="44.18554" lon="5.54197">
        <ele>852</ele>
        <time>2019-06-04T08:37:16Z</time>
      </trkpt>
      <trkpt lat="44.18552" lon="5.54202">
        <ele>852</ele>
        <time>2019-06-04T08:37:17Z</time>
      </trkpt>
      <trkpt lat="44.18551" lon="5.54208">
        <ele>852</ele>
        <time>2019-06-04T08:37:18Z</time>
      </trkpt>
      <trkpt lat="44.18549" lon="5.54213">
        <ele>852</ele>
        <time>2019-06-04T08:37:19Z</time>
      </trkpt>
      <trkpt lat="44.18548" lon="5.54218">
        <ele>852</ele>
        <time>2019-06-04T08:37:20Z</time>
      </trkpt>
      <trkpt lat="44.18547" lon="5.54224">
        <ele>853</ele>
        <time>2019-06-04T08:37:21Z</time>
      </trkpt>
      <trkpt lat="44.18546" lon="5.5423">
        <ele>853</ele>
        <time>2019-06-04T08:37:22Z</time>
      </trkpt>
      <trkpt lat="44.18546" lon="5.54235">
        <ele>853</ele>
        <time>2019-06-04T08:37:23Z</time>
      </trkpt>
      <trkpt lat="44.18545" lon="5.54241">
        <ele>853</ele>
        <time>2019-06-04T08:37:24Z</time>
      </trkpt>
      <trkpt lat="44.18544" lon="5.54246">
        <ele>853</ele>
        <time>2019-06-04T08:37:25Z</time>
      </trkpt>
      <trkpt lat="44.18544" lon="5.54251">
        <ele>853</ele>
        <time>2019-06-04T08:37:26Z</time>
      </trkpt>
      <trkpt lat="44.18544" lon="5.54257">
        <ele>853</ele>
        <time>2019-06-04T08:37:27Z</time>
      </trkpt>
      <trkpt lat="44.18543" lon="5.54262">
        <ele>853</ele>
        <time>2019-06-04T08:37:28Z</time>
      </trkpt>
      <trkpt lat="44.18543" lon="5.54268">
        <ele>853</ele>
        <time>2019-06-04T08:37:29Z</time>
      </trkpt>
      <trkpt lat="44.18543" lon="5.54274">
        <ele>854</ele>
        <time>2019-06-04T08:37:30Z</time>
      </trkpt>
      <trkpt lat="44.18544" lon="5.5428">
        <ele>854</ele>
        <time>2019-06-04T08:37:31Z</time>
      </trkpt>
      <trkpt lat="44.18544" lon="5.54285">
        <ele>854</ele>
        <time>2019-06-04T08:37:32Z</time>
      </trkpt>
      <trkpt lat="44.18544" lon="5.54291">
        <ele>854</ele>
        <time>2019-06-04T08:37:33Z</time>
      </trkpt>
      <trkpt lat="44.18545" lon="5.54296">
        <ele>854</ele>
        <time>2019-06-04T08:37:34Z</time>
      </trkpt>
      <trkpt lat="44.18546" lon="5.54302">
        <ele>854</ele>
        <time>2019-06-04T08:37:35Z</time>
      </trkpt>
      <trkpt lat="44.18547" lon="5.54308">
        <ele>854</ele>
        <time>2019-06-04T08:37:36Z</time>
      </trkpt>
      <trkpt lat="44.18548" lon="5.54313">
        <ele>854</ele>
        <time>2019-06-04T08:37:37Z</time>
      </trkpt>
      <trkpt lat="44.18549" lon="5.54319">
        <ele>854</ele>
        <time>2019-06-04T08:37:38Z</time>
      </trkpt>
      <trkpt lat="44.1855" lon="5.54325">
        <ele>855</ele>
        <time>2019-06-04T08:37:39Z</time>
      </trkpt>
      <trkpt lat="44.18551" lon="5.5433">
        <ele>855</ele>
        <time>2019-06-04T08:37:40Z</time>
      </trkpt>
      <trkpt lat="44.18552" lon="5.54336">
        <ele>855</ele>
        <time>2019-06-04T08:37:41Z</time>
      </trkpt>
      <trkpt lat="44.18554" lon="5.54342">
        <ele>855</ele>
        <time>2019-06-04T08:37:42Z</time>
      </trkpt>
      <trkpt lat="44.18555" lon="5.54348">
        <ele>855</ele>
        <time>2019-06-04T08:37:43Z</time>
      </trkpt>
      <trkpt lat="44.18556" lon="5.54354">
        <ele>855</ele>
        <time>2019-06-04T08:37:44Z</time>
      </trkpt>
      <trkpt lat="44.18557" lon="5.5436">
        <ele>855</ele>
        <time>2019-06-04T08:37:45Z</time>
      </trkpt>
      <trkpt lat="44.18558" lon="5.54365">
        <ele>855</ele>
        <time>2019-06-04T08:37:46Z</time>
      </trkpt>
      <trkpt lat="44.18559" lon="5.54371">
        <ele>855</ele>
        <time>2019-06-04T08:37:47Z</time>
      </trkpt>
      <trkpt lat="44.1856" lon="5.54377">
        <ele>855</ele>
        <time>2019-06-04T08:37:48Z</time>
      </trkpt>
      <trkpt lat="44.18561" lon="5.54383">
        <ele>856</ele>
        <time>2019-06-04T08:37:49Z</time>
      </trkpt>
      <trkpt lat="44.18562" lon="5.54389">
        <ele>856</ele>
        <time>2019-06-04T08:37:50Z</time>
      </trkpt>
      <trkpt lat="44.18563" lon="5.54394">
        <ele>856</ele>
        <time>2019-06-04T08:37:51Z</time>
      </trkpt>
      <trkpt lat="44.18564" lon="5.544">
        <ele>856</ele>
        <time>2019-06-04T08:37:52Z</time>
      </trkpt>
      <trkpt lat="44.18565" lon="5.54406">
        <ele>856</ele>
        <time>2019-06-04T08:37:53Z</time>
      </trkpt>
      <trkpt lat="44.18566" lon="5.54411">
        <ele>856</ele>
        <time>2019-06-04T08:37:54Z</time>
      </trkpt>
      <trkpt lat="44.18568" lon="5.54417">
        <ele>856</ele>
        <time>2019-06-04T08:37:55Z</time>
      </trkpt>
      <trkpt lat="44.18568" lon="5.54423">
        <ele>856</ele>
        <time>2019-06-04T08:37:56Z</time>
      </trkpt>
      <trkpt lat="44.18569" lon="5.54428">
        <ele>856</ele>
        <time>2019-06-04T08:37:57Z</time>
      </trkpt>
      <trkpt lat="44.1857" lon="5.54434">
        <ele>857</ele>
        <time>2019-06-04T08:37:58Z</time>
      </trkpt>
      <trkpt lat="44.18571" lon="5.5444">
        <ele>857</ele>
        <time>2019-06-04T08:37:59Z</time>
      </trkpt>
      <trkpt lat="44.18572" lon="5.54446">
        <ele>857</ele>
        <time>2019-06-04T08:38:00Z</time>
      </trkpt>
      <trkpt lat="44.18573" lon="5.54452">
        <ele>857</ele>
        <time>2019-06-04T08:38:01Z</time>
      </trkpt>
      <trkpt lat="44.18573" lon="5.54458">
        <ele>857</ele>
        <time>2019-06-04T08:38:02Z</time>
      </trkpt>
      <trkpt lat="44.18574" lon="5.54464">
        <ele>857</ele>
        <time>2019-06-04T08:38:03Z</time>
      </trkpt>
      <trkpt lat="44.18575" lon="5.5447">
        <ele>857</ele>
        <time>2019-06-04T08:38:04Z</time>
      </trkpt>
      <trkpt lat="44.18576" lon="5.54476">
        <ele>857</ele>
        <time>2019-06-04T08:38:05Z</time>
      </trkpt>
      <trkpt lat="44.18577" lon="5.54482">
        <ele>857</ele>
        <time>2019-06-04T08:38:06Z</time>
      </trkpt>
      <trkpt lat="44.18577" lon="5.54488">
        <ele>857</ele>
        <time>2019-06-04T08:38:07Z</time>
      </trkpt>
      <trkpt lat="44.18578" lon="5.54494">
        <ele>857</ele>
        <time>2019-06-04T08:38:08Z</time>
      </trkpt>
      <trkpt lat="44.18579" lon="5.54501">
        <ele>857</ele>
        <time>2019-06-04T08:38:09Z</time>
      </trkpt>
      <trkpt lat="44.18579" lon="5.54507">
        <ele>857</ele>
        <time>2019-06-04T08:38:10Z</time>
      </trkpt>
      <trkpt lat="44.1858" lon="5.54513">
        <ele>857</ele>
        <time>2019-06-04T08:38:11Z</time>
      </trkpt>
      <trkpt lat="44.1858" lon="5.5452">
        <ele>857</ele>
        <time>2019-06-04T08:38:12Z</time>
      </trkpt>
      <trkpt lat="44.18581" lon="5.54526">
        <ele>857</ele>
        <time>2019-06-04T08:38:13Z</time>
      </trkpt>
      <trkpt lat="44.18581" lon="5.54531">
        <ele>858</ele>
        <time>2019-06-04T08:38:14Z</time>
      </trkpt>
      <trkpt lat="44.18581" lon="5.54537">
        <ele>858</ele>
        <time>2019-06-04T08:38:15Z</time>
      </trkpt>
      <trkpt lat="44.18582" lon="5.54543">
        <ele>858</ele>
        <time>2019-06-04T08:38:16Z</time>
      </trkpt>
      <trkpt lat="44.18582" lon="5.54549">
        <ele>858</ele>
        <time>2019-06-04T08:38:17Z</time>
      </trkpt>
      <trkpt lat="44.18583" lon="5.54555">
        <ele>858</ele>
        <time>2019-06-04T08:38:18Z</time>
      </trkpt>
      <trkpt lat="44.18583" lon="5.54561">
        <ele>859</ele>
        <time>2019-06-04T08:38:19Z</time>
      </trkpt>
      <trkpt lat="44.18583" lon="5.54567">
        <ele>859</ele>
        <time>2019-06-04T08:38:20Z</time>
      </trkpt>
      <trkpt lat="44.18584" lon="5.54573">
        <ele>859</ele>
        <time>2019-06-04T08:38:21Z</time>
      </trkpt>
      <trkpt lat="44.18584" lon="5.54579">
        <ele>859</ele>
        <time>2019-06-04T08:38:22Z</time>
      </trkpt>
      <trkpt lat="44.18584" lon="5.54585">
        <ele>859</ele>
        <time>2019-06-04T08:38:23Z</time>
      </trkpt>
      <trkpt lat="44.18585" lon="5.54591">
        <ele>860</ele>
        <time>2019-06-04T08:38:24Z</time>
      </trkpt>
      <trkpt lat="44.18585" lon="5.54597">
        <ele>860</ele>
        <time>2019-06-04T08:38:25Z</time>
      </trkpt>
      <trkpt lat="44.18585" lon="5.54602">
        <ele>860</ele>
        <time>2019-06-04T08:38:26Z</time>
      </trkpt>
      <trkpt lat="44.18586" lon="5.54608">
        <ele>860</ele>
        <time>2019-06-04T08:38:27Z</time>
      </trkpt>
      <trkpt lat="44.18586" lon="5.54614">
        <ele>861</ele>
        <time>2019-06-04T08:38:28Z</time>
      </trkpt>
      <trkpt lat="44.18586" lon="5.5462">
        <ele>861</ele>
        <time>2019-06-04T08:38:29Z</time>
      </trkpt>
      <trkpt lat="44.18586" lon="5.54626">
        <ele>861</ele>
        <time>2019-06-04T08:38:30Z</time>
      </trkpt>
      <trkpt lat="44.18587" lon="5.54631">
        <ele>861</ele>
        <time>2019-06-04T08:38:31Z</time>
      </trkpt>
      <trkpt lat="44.18587" lon="5.54637">
        <ele>861</ele>
        <time>2019-06-04T08:38:32Z</time>
      </trkpt>
      <trkpt lat="44.18587" lon="5.54643">
        <ele>862</ele>
        <time>2019-06-04T08:38:33Z</time>
      </trkpt>
      <trkpt lat="44.18588" lon="5.54649">
        <ele>862</ele>
        <time>2019-06-04T08:38:34Z</time>
      </trkpt>
      <trkpt lat="44.18588" lon="5.54655">
        <ele>862</ele>
        <time>2019-06-04T08:38:35Z</time>
      </trkpt>
      <trkpt lat="44.18589" lon="5.54661">
        <ele>862</ele>
        <time>2019-06-04T08:38:36Z</time>
      </trkpt>
      <trkpt lat="44.18589" lon="5.54667">
        <ele>862</ele>
        <time>2019-06-04T08:38:37Z</time>
      </trkpt>
      <trkpt lat="44.18589" lon="5.54673">
        <ele>862</ele>
        <time>2019-06-04T08:38:38Z</time>
      </trkpt>
      <trkpt lat="44.1859" lon="5.54679">
        <ele>863</ele>
        <time>2019-06-04T08:38:39Z</time>
      </trkpt>
      <trkpt lat="44.1859" lon="5.54685">
        <ele>863</ele>
        <time>2019-06-04T08:38:40Z</time>
      </trkpt>
      <trkpt lat="44.1859" lon="5.54691">
        <ele>863</ele>
        <time>2019-06-04T08:38:41Z</time>
      </trkpt>
      <trkpt lat="44.1859" lon="5.54697">
        <ele>863</ele>
        <time>2019-06-04T08:38:42Z</time>
      </trkpt>
      <trkpt lat="44.1859" lon="5.54703">
        <ele>863</ele>
        <time>2019-06-04T08:38:43Z</time>
      </trkpt>
      <trkpt lat="44.1859" lon="5.54709">
        <ele>863</ele>
        <time>2019-06-04T08:38:44Z</time>
      </trkpt>
      <trkpt lat="44.1859" lon="5.54715">
        <ele>864</ele>
        <time>2019-06-04T08:38:45Z</time>
      </trkpt>
      <trkpt lat="44.1859" lon="5.54721">
        <ele>864</ele>
        <time>2019-06-04T08:38:46Z</time>
      </trkpt>
      <trkpt lat="44.18589" lon="5.54728">
        <ele>864</ele>
        <time>2019-06-04T08:38:47Z</time>
      </trkpt>
      <trkpt lat="44.18589" lon="5.54734">
        <ele>864</ele>
        <time>2019-06-04T08:38:48Z</time>
      </trkpt>
      <trkpt lat="44.18588" lon="5.5474">
        <ele>864</ele>
        <time>2019-06-04T08:38:49Z</time>
      </trkpt>
      <trkpt lat="44.18587" lon="5.54746">
        <ele>864</ele>
        <time>2019-06-04T08:38:50Z</time>
      </trkpt>
      <trkpt lat="44.18586" lon="5.54752">
        <ele>865</ele>
        <time>2019-06-04T08:38:51Z</time>
      </trkpt>
      <trkpt lat="44.18584" lon="5.54758">
        <ele>865</ele>
        <time>2019-06-04T08:38:52Z</time>
      </trkpt>
      <trkpt lat="44.18583" lon="5.54764">
        <ele>865</ele>
        <time>2019-06-04T08:38:53Z</time>
      </trkpt>
      <trkpt lat="44.18581" lon="5.5477">
        <ele>865</ele>
        <time>2019-06-04T08:38:54Z</time>
      </trkpt>
      <trkpt lat="44.18579" lon="5.54776">
        <ele>865</ele>
        <time>2019-06-04T08:38:55Z</time>
      </trkpt>
      <trkpt lat="44.18577" lon="5.54781">
        <ele>865</ele>
        <time>2019-06-04T08:38:56Z</time>
      </trkpt>
      <trkpt lat="44.18575" lon="5.54787">
        <ele>865</ele>
        <time>2019-06-04T08:38:57Z</time>
      </trkpt>
      <trkpt lat="44.18573" lon="5.54792">
        <ele>866</ele>
        <time>2019-06-04T08:38:58Z</time>
      </trkpt>
      <trkpt lat="44.18571" lon="5.54798">
        <ele>866</ele>
        <time>2019-06-04T08:38:59Z</time>
      </trkpt>
      <trkpt lat="44.18569" lon="5.54803">
        <ele>866</ele>
        <time>2019-06-04T08:39:00Z</time>
      </trkpt>
      <trkpt lat="44.18567" lon="5.54808">
        <ele>866</ele>
        <time>2019-06-04T08:39:01Z</time>
      </trkpt>
      <trkpt lat="44.18565" lon="5.54813">
        <ele>866</ele>
        <time>2019-06-04T08:39:02Z</time>
      </trkpt>
      <trkpt lat="44.18562" lon="5.54818">
        <ele>867</ele>
        <time>2019-06-04T08:39:03Z</time>
      </trkpt>
      <trkpt lat="44.18561" lon="5.54823">
        <ele>867</ele>
        <time>2019-06-04T08:39:04Z</time>
      </trkpt>
      <trkpt lat="44.18559" lon="5.54829">
        <ele>867</ele>
        <time>2019-06-04T08:39:05Z</time>
      </trkpt>
      <trkpt lat="44.18557" lon="5.54834">
        <ele>867</ele>
        <time>2019-06-04T08:39:06Z</time>
      </trkpt>
      <trkpt lat="44.18555" lon="5.5484">
        <ele>868</ele>
        <time>2019-06-04T08:39:07Z</time>
      </trkpt>
      <trkpt lat="44.18554" lon="5.54845">
        <ele>868</ele>
        <time>2019-06-04T08:39:08Z</time>
      </trkpt>
      <trkpt lat="44.18552" lon="5.5485">
        <ele>868</ele>
        <time>2019-06-04T08:39:09Z</time>
      </trkpt>
      <trkpt lat="44.1855" lon="5.54856">
        <ele>869</ele>
        <time>2019-06-04T08:39:10Z</time>
      </trkpt>
      <trkpt lat="44.18548" lon="5.54862">
        <ele>869</ele>
        <time>2019-06-04T08:39:11Z</time>
      </trkpt>
      <trkpt lat="44.18547" lon="5.54867">
        <ele>869</ele>
        <time>2019-06-04T08:39:12Z</time>
      </trkpt>
      <trkpt lat="44.18545" lon="5.54873">
        <ele>870</ele>
        <time>2019-06-04T08:39:13Z</time>
      </trkpt>
      <trkpt lat="44.18544" lon="5.54878">
        <ele>870</ele>
        <time>2019-06-04T08:39:14Z</time>
      </trkpt>
      <trkpt lat="44.18542" lon="5.54884">
        <ele>870</ele>
        <time>2019-06-04T08:39:15Z</time>
      </trkpt>
      <trkpt lat="44.18541" lon="5.54889">
        <ele>871</ele>
        <time>2019-06-04T08:39:16Z</time>
      </trkpt>
      <trkpt lat="44.18539" lon="5.54895">
        <ele>871</ele>
        <time>2019-06-04T08:39:17Z</time>
      </trkpt>
      <trkpt lat="44.18538" lon="5.549">
        <ele>871</ele>
        <time>2019-06-04T08:39:18Z</time>
      </trkpt>
      <trkpt lat="44.18536" lon="5.54905">
        <ele>871</ele>
        <time>2019-06-04T08:39:19Z</time>
      </trkpt>
      <trkpt lat="44.18535" lon="5.54911">
        <ele>871</ele>
        <time>2019-06-04T08:39:20Z</time>
      </trkpt>
      <trkpt lat="44.18533" lon="5.54916">
        <ele>871</ele>
        <time>2019-06-04T08:39:21Z</time>
      </trkpt>
      <trkpt lat="44.18532" lon="5.54921">
        <ele>871</ele>
        <time>2019-06-04T08:39:22Z</time>
      </trkpt>
      <trkpt lat="44.18531" lon="5.54927">
        <ele>872</ele>
        <time>2019-06-04T08:39:23Z</time>
      </trkpt>
      <trkpt lat="44.18529" lon="5.54932">
        <ele>872</ele>
        <time>2019-06-04T08:39:24Z</time>
      </trkpt>
      <trkpt lat="44.18528" lon="5.54937">
        <ele>872</ele>
        <time>2019-06-04T08:39:25Z</time>
      </trkpt>
      <trkpt lat="44.18526" lon="5.54942">
        <ele>872</ele>
        <time>2019-06-04T08:39:26Z</time>
      </trkpt>
      <trkpt lat="44.18525" lon="5.54947">
        <ele>873</ele>
        <time>2019-06-04T08:39:27Z</time>
      </trkpt>
      <trkpt lat="44.18523" lon="5.54953">
        <ele>873</ele>
        <time>2019-06-04T08:39:28Z</time>
      </trkpt>
      <trkpt lat="44.18522" lon="5.54958">
        <ele>874</ele>
        <time>2019-06-04T08:39:29Z</time>
      </trkpt>
      <trkpt lat="44.1852" lon="5.54963">
        <ele>874</ele>
        <time>2019-06-04T08:39:30Z</time>
      </trkpt>
      <trkpt lat="44.18519" lon="5.54969">
        <ele>874</ele>
        <time>2019-06-04T08:39:31Z</time>
      </trkpt>
      <trkpt lat="44.18518" lon="5.54974">
        <ele>875</ele>
        <time>2019-06-04T08:39:32Z</time>
      </trkpt>
      <trkpt lat="44.18516" lon="5.54979">
        <ele>875</ele>
        <time>2019-06-04T08:39:33Z</time>
      </trkpt>
      <trkpt lat="44.18515" lon="5.54984">
        <ele>875</ele>
        <time>2019-06-04T08:39:34Z</time>
      </trkpt>
      <trkpt lat="44.18514" lon="5.54989">
        <ele>876</ele>
        <time>2019-06-04T08:39:35Z</time>
      </trkpt>
      <trkpt lat="44.18513" lon="5.54995">
        <ele>876</ele>
        <time>2019-06-04T08:39:36Z</time>
      </trkpt>
      <trkpt lat="44.18512" lon="5.55">
        <ele>876</ele>
        <time>2019-06-04T08:39:37Z</time>
      </trkpt>
      <trkpt lat="44.18511" lon="5.55006">
        <ele>876</ele>
        <time>2019-06-04T08:39:38Z</time>
      </trkpt>
      <trkpt lat="44.1851" lon="5.55011">
        <ele>877</ele>
        <time>2019-06-04T08:39:39Z</time>
      </trkpt>
      <trkpt lat="44.1851" lon="5.55017">
        <ele>877</ele>
        <time>2019-06-04T08:39:40Z</time>
      </trkpt>
      <trkpt lat="44.18509" lon="5.55022">
        <ele>877</ele>
        <time>2019-06-04T08:39:41Z</time>
      </trkpt>
      <trkpt lat="44.18509" lon="5.55028">
        <ele>877</ele>
        <time>2019-06-04T08:39:42Z</time>
      </trkpt>
      <trkpt lat="44.18509" lon="5.55034">
        <ele>877</ele>
        <time>2019-06-04T08:39:43Z</time>
      </trkpt>
      <trkpt lat="44.18509" lon="5.55038">
        <ele>877</ele>
        <time>2019-06-04T08:39:44Z</time>
      </trkpt>
      <trkpt lat="44.18509" lon="5.55044">
        <ele>877</ele>
        <time>2019-06-04T08:39:45Z</time>
      </trkpt>
      <trkpt lat="44.18509" lon="5.55049">
        <ele>877</ele>
        <time>2019-06-04T08:39:46Z</time>
      </trkpt>
      <trkpt lat="44.18509" lon="5.55055">
        <ele>877</ele>
        <time>2019-06-04T08:39:47Z</time>
      </trkpt>
      <trkpt lat="44.18509" lon="5.5506">
        <ele>877</ele>
        <time>2019-06-04T08:39:48Z</time>
      </trkpt>
      <trkpt lat="44.18509" lon="5.55065">
        <ele>877</ele>
        <time>2019-06-04T08:39:49Z</time>
      </trkpt>
      <trkpt lat="44.18509" lon="5.55071">
        <ele>877</ele>
        <time>2019-06-04T08:39:50Z</time>
      </trkpt>
      <trkpt lat="44.18509" lon="5.55076">
        <ele>877</ele>
        <time>2019-06-04T08:39:51Z</time>
      </trkpt>
      <trkpt lat="44.18509" lon="5.55082">
        <ele>877</ele>
        <time>2019-06-04T08:39:52Z</time>
      </trkpt>
      <trkpt lat="44.18509" lon="5.55088">
        <ele>877</ele>
        <time>2019-06-04T08:39:53Z</time>
      </trkpt>
      <trkpt lat="44.18509" lon="5.55093">
        <ele>877</ele>
        <time>2019-06-04T08:39:54Z</time>
      </trkpt>
      <trkpt lat="44.18509" lon="5.55099">
        <ele>877</ele>
        <time>2019-06-04T08:39:55Z</time>
      </trkpt>
      <trkpt lat="44.18509" lon="5.55104">
        <ele>877</ele>
        <time>2019-06-04T08:39:56Z</time>
      </trkpt>
      <trkpt lat="44.18509" lon="5.5511">
        <ele>877</ele>
        <time>2019-06-04T08:39:57Z</time>
      </trkpt>
      <trkpt lat="44.18509" lon="5.55116">
        <ele>878</ele>
        <time>2019-06-04T08:39:58Z</time>
      </trkpt>
      <trkpt lat="44.18509" lon="5.55121">
        <ele>878</ele>
        <time>2019-06-04T08:39:59Z</time>
      </trkpt>
      <trkpt lat="44.18509" lon="5.55127">
        <ele>878</ele>
        <time>2019-06-04T08:40:00Z</time>
      </trkpt>
      <trkpt lat="44.18509" lon="5.55132">
        <ele>878</ele>
        <time>2019-06-04T08:40:01Z</time>
      </trkpt>
      <trkpt lat="44.18509" lon="5.55138">
        <ele>878</ele>
        <time>2019-06-04T08:40:02Z</time>
      </trkpt>
      <trkpt lat="44.18509" lon="5.55144">
        <ele>879</ele>
        <time>2019-06-04T08:40:03Z</time>
      </trkpt>
      <trkpt lat="44.18508" lon="5.5515">
        <ele>879</ele>
        <time>2019-06-04T08:40:04Z</time>
      </trkpt>
      <trkpt lat="44.18508" lon="5.55156">
        <ele>879</ele>
        <time>2019-06-04T08:40:05Z</time>
      </trkpt>
      <trkpt lat="44.18507" lon="5.55161">
        <ele>879</ele>
        <time>2019-06-04T08:40:06Z</time>
      </trkpt>
      <trkpt lat="44.18507" lon="5.55167">
        <ele>879</ele>
        <time>2019-06-04T08:40:07Z</time>
      </trkpt>
      <trkpt lat="44.18506" lon="5.55173">
        <ele>879</ele>
        <time>2019-06-04T08:40:08Z</time>
      </trkpt>
      <trkpt lat="44.18505" lon="5.55178">
        <ele>879</ele>
        <time>2019-06-04T08:40:09Z</time>
      </trkpt>
      <trkpt lat="44.18504" lon="5.55184">
        <ele>880</ele>
        <time>2019-06-04T08:40:10Z</time>
      </trkpt>
      <trkpt lat="44.18504" lon="5.5519">
        <ele>880</ele>
        <time>2019-06-04T08:40:11Z</time>
      </trkpt>
      <trkpt lat="44.18503" lon="5.55195">
        <ele>880</ele>
        <time>2019-06-04T08:40:12Z</time>
      </trkpt>
      <trkpt lat="44.18502" lon="5.552">
        <ele>880</ele>
        <time>2019-06-04T08:40:13Z</time>
      </trkpt>
      <trkpt lat="44.18501" lon="5.55206">
        <ele>880</ele>
        <time>2019-06-04T08:40:14Z</time>
      </trkpt>
      <trkpt lat="44.18501" lon="5.55212">
        <ele>881</ele>
        <time>2019-06-04T08:40:15Z</time>
      </trkpt>
      <trkpt lat="44.18501" lon="5.55218">
        <ele>881</ele>
        <time>2019-06-04T08:40:16Z</time>
      </trkpt>
      <trkpt lat="44.185" lon="5.55223">
        <ele>881</ele>
        <time>2019-06-04T08:40:17Z</time>
      </trkpt>
      <trkpt lat="44.18499" lon="5.55229">
        <ele>882</ele>
        <time>2019-06-04T08:40:18Z</time>
      </trkpt>
      <trkpt lat="44.18497" lon="5.55234">
        <ele>882</ele>
        <time>2019-06-04T08:40:19Z</time>
      </trkpt>
      <trkpt lat="44.18496" lon="5.55239">
        <ele>882</ele>
        <time>2019-06-04T08:40:20Z</time>
      </trkpt>
      <trkpt lat="44.18496" lon="5.55244">
        <ele>882</ele>
        <time>2019-06-04T08:40:21Z</time>
      </trkpt>
      <trkpt lat="44.18495" lon="5.5525">
        <ele>883</ele>
        <time>2019-06-04T08:40:22Z</time>
      </trkpt>
      <trkpt lat="44.18494" lon="5.55255">
        <ele>883</ele>
        <time>2019-06-04T08:40:23Z</time>
      </trkpt>
      <trkpt lat="44.18493" lon="5.5526">
        <ele>883</ele>
        <time>2019-06-04T08:40:24Z</time>
      </trkpt>
      <trkpt lat="44.18492" lon="5.55266">
        <ele>883</ele>
        <time>2019-06-04T08:40:25Z</time>
      </trkpt>
      <trkpt lat="44.18491" lon="5.55271">
        <ele>884</ele>
        <time>2019-06-04T08:40:26Z</time>
      </trkpt>
      <trkpt lat="44.1849" lon="5.55276">
        <ele>884</ele>
        <time>2019-06-04T08:40:27Z</time>
      </trkpt>
      <trkpt lat="44.18488" lon="5.55281">
        <ele>884</ele>
        <time>2019-06-04T08:40:28Z</time>
      </trkpt>
      <trkpt lat="44.18488" lon="5.55287">
        <ele>884</ele>
        <time>2019-06-04T08:40:29Z</time>
      </trkpt>
      <trkpt lat="44.18487" lon="5.55292">
        <ele>885</ele>
        <time>2019-06-04T08:40:30Z</time>
      </trkpt>
      <trkpt lat="44.18486" lon="5.55298">
        <ele>885</ele>
        <time>2019-06-04T08:40:31Z</time>
      </trkpt>
      <trkpt lat="44.18485" lon="5.55303">
        <ele>885</ele>
        <time>2019-06-04T08:40:32Z</time>
      </trkpt>
      <trkpt lat="44.18484" lon="5.55309">
        <ele>885</ele>
        <time>2019-06-04T08:40:33Z</time>
      </trkpt>
      <trkpt lat="44.18483" lon="5.55314">
        <ele>885</ele>
        <time>2019-06-04T08:40:34Z</time>
      </trkpt>
      <trkpt lat="44.18482" lon="5.5532">
        <ele>885</ele>
        <time>2019-06-04T08:40:35Z</time>
      </trkpt>
      <trkpt lat="44.18481" lon="5.55325">
        <ele>886</ele>
        <time>2019-06-04T08:40:36Z</time>
      </trkpt>
      <trkpt lat="44.18479" lon="5.5533">
        <ele>886</ele>
        <time>2019-06-04T08:40:37Z</time>
      </trkpt>
      <trkpt lat="44.18478" lon="5.55336">
        <ele>886</ele>
        <time>2019-06-04T08:40:38Z</time>
      </trkpt>
      <trkpt lat="44.18477" lon="5.55341">
        <ele>886</ele>
        <time>2019-06-04T08:40:39Z</time>
      </trkpt>
      <trkpt lat="44.18476" lon="5.55346">
        <ele>886</ele>
        <time>2019-06-04T08:40:40Z</time>
      </trkpt>
      <trkpt lat="44.18474" lon="5.55351">
        <ele>887</ele>
        <time>2019-06-04T08:40:41Z</time>
      </trkpt>
      <trkpt lat="44.18472" lon="5.55356">
        <ele>887</ele>
        <time>2019-06-04T08:40:42Z</time>
      </trkpt>
      <trkpt lat="44.18471" lon="5.55361">
        <ele>887</ele>
        <time>2019-06-04T08:40:43Z</time>
      </trkpt>
      <trkpt lat="44.18469" lon="5.55366">
        <ele>887</ele>
        <time>2019-06-04T08:40:44Z</time>
      </trkpt>
      <trkpt lat="44.18468" lon="5.55371">
        <ele>887</ele>
        <time>2019-06-04T08:40:45Z</time>
      </trkpt>
      <trkpt lat="44.18466" lon="5.55375">
        <ele>888</ele>
        <time>2019-06-04T08:40:46Z</time>
      </trkpt>
      <trkpt lat="44.18465" lon="5.5538">
        <ele>888</ele>
        <time>2019-06-04T08:40:47Z</time>
      </trkpt>
      <trkpt lat="44.18463" lon="5.55384">
        <ele>888</ele>
        <time>2019-06-04T08:40:48Z</time>
      </trkpt>
      <trkpt lat="44.18461" lon="5.55389">
        <ele>888</ele>
        <time>2019-06-04T08:40:49Z</time>
      </trkpt>
      <trkpt lat="44.18459" lon="5.55394">
        <ele>888</ele>
        <time>2019-06-04T08:40:50Z</time>
      </trkpt>
      <trkpt lat="44.18458" lon="5.554">
        <ele>889</ele>
        <time>2019-06-04T08:40:51Z</time>
      </trkpt>
      <trkpt lat="44.18456" lon="5.55405">
        <ele>889</ele>
        <time>2019-06-04T08:40:52Z</time>
      </trkpt>
      <trkpt lat="44.18454" lon="5.55409">
        <ele>890</ele>
        <time>2019-06-04T08:40:53Z</time>
      </trkpt>
      <trkpt lat="44.18452" lon="5.55414">
        <ele>890</ele>
        <time>2019-06-04T08:40:54Z</time>
      </trkpt>
      <trkpt lat="44.1845" lon="5.55419">
        <ele>890</ele>
        <time>2019-06-04T08:40:55Z</time>
      </trkpt>
      <trkpt lat="44.18448" lon="5.55423">
        <ele>891</ele>
        <time>2019-06-04T08:40:56Z</time>
      </trkpt>
      <trkpt lat="44.18445" lon="5.55427">
        <ele>891</ele>
        <time>2019-06-04T08:40:57Z</time>
      </trkpt>
      <trkpt lat="44.18443" lon="5.55432">
        <ele>891</ele>
        <time>2019-06-04T08:40:58Z</time>
      </trkpt>
      <trkpt lat="44.18441" lon="5.55436">
        <ele>891</ele>
        <time>2019-06-04T08:40:59Z</time>
      </trkpt>
      <trkpt lat="44.18438" lon="5.5544">
        <ele>892</ele>
        <time>2019-06-04T08:41:00Z</time>
      </trkpt>
      <trkpt lat="44.18436" lon="5.55444">
        <ele>892</ele>
        <time>2019-06-04T08:41:01Z</time>
      </trkpt>
      <trkpt lat="44.18434" lon="5.55448">
        <ele>892</ele>
        <time>2019-06-04T08:41:02Z</time>
      </trkpt>
      <trkpt lat="44.18432" lon="5.55452">
        <ele>892</ele>
        <time>2019-06-04T08:41:03Z</time>
      </trkpt>
      <trkpt lat="44.1843" lon="5.55457">
        <ele>893</ele>
        <time>2019-06-04T08:41:04Z</time>
      </trkpt>
      <trkpt lat="44.18428" lon="5.5546">
        <ele>893</ele>
        <time>2019-06-04T08:41:05Z</time>
      </trkpt>
      <trkpt lat="44.18426" lon="5.55464">
        <ele>893</ele>
        <time>2019-06-04T08:41:06Z</time>
      </trkpt>
      <trkpt lat="44.18423" lon="5.55467">
        <ele>893</ele>
        <time>2019-06-04T08:41:07Z</time>
      </trkpt>
      <trkpt lat="44.18421" lon="5.55471">
        <ele>893</ele>
        <time>2019-06-04T08:41:08Z</time>
      </trkpt>
      <trkpt lat="44.18419" lon="5.55474">
        <ele>893</ele>
        <time>2019-06-04T08:41:09Z</time>
      </trkpt>
      <trkpt lat="44.18417" lon="5.55478">
        <ele>894</ele>
        <time>2019-06-04T08:41:10Z</time>
      </trkpt>
      <trkpt lat="44.18415" lon="5.55482">
        <ele>894</ele>
        <time>2019-06-04T08:41:11Z</time>
      </trkpt>
      <trkpt lat="44.18414" lon="5.55486">
        <ele>894</ele>
        <time>2019-06-04T08:41:12Z</time>
      </trkpt>
      <trkpt lat="44.18412" lon="5.5549">
        <ele>894</ele>
        <time>2019-06-04T08:41:13Z</time>
      </trkpt>
      <trkpt lat="44.1841" lon="5.55494">
        <ele>894</ele>
        <time>2019-06-04T08:41:14Z</time>
      </trkpt>
      <trkpt lat="44.18408" lon="5.55498">
        <ele>895</ele>
        <time>2019-06-04T08:41:15Z</time>
      </trkpt>
      <trkpt lat="44.18407" lon="5.55502">
        <ele>895</ele>
        <time>2019-06-04T08:41:16Z</time>
      </trkpt>
      <trkpt lat="44.18405" lon="5.55506">
        <ele>895</ele>
        <time>2019-06-04T08:41:17Z</time>
      </trkpt>
      <trkpt lat="44.18404" lon="5.55511">
        <ele>896</ele>
        <time>2019-06-04T08:41:18Z</time>
      </trkpt>
      <trkpt lat="44.18402" lon="5.55515">
        <ele>896</ele>
        <time>2019-06-04T08:41:19Z</time>
      </trkpt>
      <trkpt lat="44.18401" lon="5.5552">
        <ele>896</ele>
        <time>2019-06-04T08:41:20Z</time>
      </trkpt>
      <trkpt lat="44.184" lon="5.55524">
        <ele>896</ele>
        <time>2019-06-04T08:41:21Z</time>
      </trkpt>
      <trkpt lat="44.18399" lon="5.55529">
        <ele>897</ele>
        <time>2019-06-04T08:41:22Z</time>
      </trkpt>
      <trkpt lat="44.18399" lon="5.55534">
        <ele>897</ele>
        <time>2019-06-04T08:41:23Z</time>
      </trkpt>
      <trkpt lat="44.18398" lon="5.55538">
        <ele>897</ele>
        <time>2019-06-04T08:41:24Z</time>
      </trkpt>
      <trkpt lat="44.18397" lon="5.55543">
        <ele>898</ele>
        <time>2019-06-04T08:41:25Z</time>
      </trkpt>
      <trkpt lat="44.18397" lon="5.55547">
        <ele>898</ele>
        <time>2019-06-04T08:41:26Z</time>
      </trkpt>
      <trkpt lat="44.18396" lon="5.55552">
        <ele>898</ele>
        <time>2019-06-04T08:41:27Z</time>
      </trkpt>
      <trkpt lat="44.18396" lon="5.55556">
        <ele>899</ele>
        <time>2019-06-04T08:41:28Z</time>
      </trkpt>
      <trkpt lat="44.18396" lon="5.55561">
        <ele>899</ele>
        <time>2019-06-04T08:41:29Z</time>
      </trkpt>
      <trkpt lat="44.18395" lon="5.55566">
        <ele>899</ele>
        <time>2019-06-04T08:41:30Z</time>
      </trkpt>
      <trkpt lat="44.18395" lon="5.5557">
        <ele>899</ele>
        <time>2019-06-04T08:41:31Z</time>
      </trkpt>
      <trkpt lat="44.18394" lon="5.55575">
        <ele>900</ele>
        <time>2019-06-04T08:41:32Z</time>
      </trkpt>
      <trkpt lat="44.18394" lon="5.5558">
        <ele>900</ele>
        <time>2019-06-04T08:41:33Z</time>
      </trkpt>
      <trkpt lat="44.18394" lon="5.55584">
        <ele>900</ele>
        <time>2019-06-04T08:41:34Z</time>
      </trkpt>
      <trkpt lat="44.18393" lon="5.55589">
        <ele>900</ele>
        <time>2019-06-04T08:41:35Z</time>
      </trkpt>
      <trkpt lat="44.18393" lon="5.55594">
        <ele>900</ele>
        <time>2019-06-04T08:41:36Z</time>
      </trkpt>
      <trkpt lat="44.18393" lon="5.55599">
        <ele>900</ele>
        <time>2019-06-04T08:41:37Z</time>
      </trkpt>
      <trkpt lat="44.18392" lon="5.55604">
        <ele>900</ele>
        <time>2019-06-04T08:41:38Z</time>
      </trkpt>
      <trkpt lat="44.18391" lon="5.55609">
        <ele>900</ele>
        <time>2019-06-04T08:41:39Z</time>
      </trkpt>
      <trkpt lat="44.18391" lon="5.55614">
        <ele>900</ele>
        <time>2019-06-04T08:41:40Z</time>
      </trkpt>
      <trkpt lat="44.1839" lon="5.55618">
        <ele>900</ele>
        <time>2019-06-04T08:41:41Z</time>
      </trkpt>
      <trkpt lat="44.18389" lon="5.55622">
        <ele>900</ele>
        <time>2019-06-04T08:41:42Z</time>
      </trkpt>
      <trkpt lat="44.18388" lon="5.55627">
        <ele>900</ele>
        <time>2019-06-04T08:41:43Z</time>
      </trkpt>
      <trkpt lat="44.18387" lon="5.55631">
        <ele>901</ele>
        <time>2019-06-04T08:41:44Z</time>
      </trkpt>
      <trkpt lat="44.18387" lon="5.55636">
        <ele>901</ele>
        <time>2019-06-04T08:41:45Z</time>
      </trkpt>
      <trkpt lat="44.18386" lon="5.55641">
        <ele>901</ele>
        <time>2019-06-04T08:41:46Z</time>
      </trkpt>
      <trkpt lat="44.18385" lon="5.55645">
        <ele>901</ele>
        <time>2019-06-04T08:41:47Z</time>
      </trkpt>
      <trkpt lat="44.18385" lon="5.5565">
        <ele>901</ele>
        <time>2019-06-04T08:41:48Z</time>
      </trkpt>
      <trkpt lat="44.18383" lon="5.55654">
        <ele>902</ele>
        <time>2019-06-04T08:41:49Z</time>
      </trkpt>
      <trkpt lat="44.18382" lon="5.55659">
        <ele>902</ele>
        <time>2019-06-04T08:41:50Z</time>
      </trkpt>
      <trkpt lat="44.18382" lon="5.55663">
        <ele>902</ele>
        <time>2019-06-04T08:41:51Z</time>
      </trkpt>
      <trkpt lat="44.18381" lon="5.55667">
        <ele>902</ele>
        <time>2019-06-04T08:41:52Z</time>
      </trkpt>
      <trkpt lat="44.18379" lon="5.55672">
        <ele>902</ele>
        <time>2019-06-04T08:41:53Z</time>
      </trkpt>
      <trkpt lat="44.18378" lon="5.55676">
        <ele>902</ele>
        <time>2019-06-04T08:41:54Z</time>
      </trkpt>
      <trkpt lat="44.18377" lon="5.55681">
        <ele>902</ele>
        <time>2019-06-04T08:41:55Z</time>
      </trkpt>
      <trkpt lat="44.18377" lon="5.55685">
        <ele>902</ele>
        <time>2019-06-04T08:41:56Z</time>
      </trkpt>
      <trkpt lat="44.18376" lon="5.55689">
        <ele>903</ele>
        <time>2019-06-04T08:41:57Z</time>
      </trkpt>
      <trkpt lat="44.18375" lon="5.55694">
        <ele>903</ele>
        <time>2019-06-04T08:41:58Z</time>
      </trkpt>
      <trkpt lat="44.18374" lon="5.55699">
        <ele>903</ele>
        <time>2019-06-04T08:41:59Z</time>
      </trkpt>
      <trkpt lat="44.18373" lon="5.55703">
        <ele>903</ele>
        <time>2019-06-04T08:42:00Z</time>
      </trkpt>
      <trkpt lat="44.18372" lon="5.55708">
        <ele>904</ele>
        <time>2019-06-04T08:42:01Z</time>
      </trkpt>
      <trkpt lat="44.18371" lon="5.55712">
        <ele>904</ele>
        <time>2019-06-04T08:42:02Z</time>
      </trkpt>
      <trkpt lat="44.1837" lon="5.55717">
        <ele>904</ele>
        <time>2019-06-04T08:42:03Z</time>
      </trkpt>
      <trkpt lat="44.18369" lon="5.55721">
        <ele>904</ele>
        <time>2019-06-04T08:42:04Z</time>
      </trkpt>
      <trkpt lat="44.18368" lon="5.55726">
        <ele>905</ele>
        <time>2019-06-04T08:42:05Z</time>
      </trkpt>
      <trkpt lat="44.18367" lon="5.55731">
        <ele>905</ele>
        <time>2019-06-04T08:42:06Z</time>
      </trkpt>
      <trkpt lat="44.18367" lon="5.55735">
        <ele>905</ele>
        <time>2019-06-04T08:42:07Z</time>
      </trkpt>
      <trkpt lat="44.18366" lon="5.5574">
        <ele>905</ele>
        <time>2019-06-04T08:42:08Z</time>
      </trkpt>
      <trkpt lat="44.18365" lon="5.55744">
        <ele>905</ele>
        <time>2019-06-04T08:42:09Z</time>
      </trkpt>
      <trkpt lat="44.18364" lon="5.55748">
        <ele>906</ele>
        <time>2019-06-04T08:42:10Z</time>
      </trkpt>
      <trkpt lat="44.18363" lon="5.55752">
        <ele>906</ele>
        <time>2019-06-04T08:42:11Z</time>
      </trkpt>
      <trkpt lat="44.18362" lon="5.55757">
        <ele>906</ele>
        <time>2019-06-04T08:42:12Z</time>
      </trkpt>
      <trkpt lat="44.18361" lon="5.5576">
        <ele>906</ele>
        <time>2019-06-04T08:42:13Z</time>
      </trkpt>
      <trkpt lat="44.1836" lon="5.55765">
        <ele>906</ele>
        <time>2019-06-04T08:42:14Z</time>
      </trkpt>
      <trkpt lat="44.18359" lon="5.55769">
        <ele>906</ele>
        <time>2019-06-04T08:42:15Z</time>
      </trkpt>
      <trkpt lat="44.18357" lon="5.55773">
        <ele>906</ele>
        <time>2019-06-04T08:42:16Z</time>
      </trkpt>
      <trkpt lat="44.18355" lon="5.55778">
        <ele>906</ele>
        <time>2019-06-04T08:42:17Z</time>
      </trkpt>
      <trkpt lat="44.18353" lon="5.55782">
        <ele>906</ele>
        <time>2019-06-04T08:42:18Z</time>
      </trkpt>
      <trkpt lat="44.18351" lon="5.55786">
        <ele>907</ele>
        <time>2019-06-04T08:42:19Z</time>
      </trkpt>
      <trkpt lat="44.18348" lon="5.55791">
        <ele>907</ele>
        <time>2019-06-04T08:42:20Z</time>
      </trkpt>
      <trkpt lat="44.18346" lon="5.55794">
        <ele>907</ele>
        <time>2019-06-04T08:42:21Z</time>
      </trkpt>
      <trkpt lat="44.18343" lon="5.55798">
        <ele>908</ele>
        <time>2019-06-04T08:42:22Z</time>
      </trkpt>
      <trkpt lat="44.18341" lon="5.55802">
        <ele>908</ele>
        <time>2019-06-04T08:42:23Z</time>
      </trkpt>
      <trkpt lat="44.18339" lon="5.55806">
        <ele>908</ele>
        <time>2019-06-04T08:42:24Z</time>
      </trkpt>
      <trkpt lat="44.18337" lon="5.5581">
        <ele>908</ele>
        <time>2019-06-04T08:42:25Z</time>
      </trkpt>
      <trkpt lat="44.18334" lon="5.55813">
        <ele>908</ele>
        <time>2019-06-04T08:42:26Z</time>
      </trkpt>
      <trkpt lat="44.18331" lon="5.55817">
        <ele>908</ele>
        <time>2019-06-04T08:42:27Z</time>
      </trkpt>
      <trkpt lat="44.18329" lon="5.5582">
        <ele>908</ele>
        <time>2019-06-04T08:42:28Z</time>
      </trkpt>
      <trkpt lat="44.18326" lon="5.55823">
        <ele>908</ele>
        <time>2019-06-04T08:42:29Z</time>
      </trkpt>
      <trkpt lat="44.18323" lon="5.55826">
        <ele>909</ele>
        <time>2019-06-04T08:42:30Z</time>
      </trkpt>
      <trkpt lat="44.1832" lon="5.55829">
        <ele>909</ele>
        <time>2019-06-04T08:42:31Z</time>
      </trkpt>
      <trkpt lat="44.18318" lon="5.55833">
        <ele>909</ele>
        <time>2019-06-04T08:42:32Z</time>
      </trkpt>
      <trkpt lat="44.18315" lon="5.55836">
        <ele>909</ele>
        <time>2019-06-04T08:42:33Z</time>
      </trkpt>
      <trkpt lat="44.18313" lon="5.5584">
        <ele>909</ele>
        <time>2019-06-04T08:42:34Z</time>
      </trkpt>
      <trkpt lat="44.1831" lon="5.55843">
        <ele>909</ele>
        <time>2019-06-04T08:42:35Z</time>
      </trkpt>
      <trkpt lat="44.18308" lon="5.55845">
        <ele>909</ele>
        <time>2019-06-04T08:42:36Z</time>
      </trkpt>
      <trkpt lat="44.18305" lon="5.55848">
        <ele>909</ele>
        <time>2019-06-04T08:42:37Z</time>
      </trkpt>
      <trkpt lat="44.18303" lon="5.5585">
        <ele>909</ele>
        <time>2019-06-04T08:42:38Z</time>
      </trkpt>
      <trkpt lat="44.183" lon="5.55852">
        <ele>909</ele>
        <time>2019-06-04T08:42:39Z</time>
      </trkpt>
      <trkpt lat="44.18297" lon="5.55854">
        <ele>909</ele>
        <time>2019-06-04T08:42:40Z</time>
      </trkpt>
      <trkpt lat="44.18294" lon="5.55856">
        <ele>909</ele>
        <time>2019-06-04T08:42:41Z</time>
      </trkpt>
      <trkpt lat="44.18291" lon="5.55858">
        <ele>910</ele>
        <time>2019-06-04T08:42:42Z</time>
      </trkpt>
      <trkpt lat="44.18288" lon="5.55859">
        <ele>910</ele>
        <time>2019-06-04T08:42:43Z</time>
      </trkpt>
      <trkpt lat="44.18284" lon="5.55861">
        <ele>911</ele>
        <time>2019-06-04T08:42:44Z</time>
      </trkpt>
      <trkpt lat="44.1828" lon="5.55862">
        <ele>911</ele>
        <time>2019-06-04T08:42:45Z</time>
      </trkpt>
      <trkpt lat="44.18277" lon="5.55864">
        <ele>911</ele>
        <time>2019-06-04T08:42:46Z</time>
      </trkpt>
      <trkpt lat="44.18273" lon="5.55866">
        <ele>912</ele>
        <time>2019-06-04T08:42:47Z</time>
      </trkpt>
      <trkpt lat="44.1827" lon="5.55868">
        <ele>912</ele>
        <time>2019-06-04T08:42:48Z</time>
      </trkpt>
      <trkpt lat="44.18267" lon="5.55871">
        <ele>912</ele>
        <time>2019-06-04T08:42:49Z</time>
      </trkpt>
      <trkpt lat="44.18264" lon="5.55873">
        <ele>912</ele>
        <time>2019-06-04T08:42:50Z</time>
      </trkpt>
      <trkpt lat="44.18261" lon="5.55875">
        <ele>912</ele>
        <time>2019-06-04T08:42:51Z</time>
      </trkpt>
      <trkpt lat="44.18258" lon="5.55877">
        <ele>912</ele>
        <time>2019-06-04T08:42:52Z</time>
      </trkpt>
      <trkpt lat="44.18256" lon="5.5588">
        <ele>912</ele>
        <time>2019-06-04T08:42:53Z</time>
      </trkpt>
      <trkpt lat="44.18253" lon="5.55883">
        <ele>912</ele>
        <time>2019-06-04T08:42:54Z</time>
      </trkpt>
      <trkpt lat="44.1825" lon="5.55886">
        <ele>912</ele>
        <time>2019-06-04T08:42:55Z</time>
      </trkpt>
      <trkpt lat="44.18248" lon="5.55889">
        <ele>912</ele>
        <time>2019-06-04T08:42:56Z</time>
      </trkpt>
      <trkpt lat="44.18245" lon="5.55893">
        <ele>912</ele>
        <time>2019-06-04T08:42:57Z</time>
      </trkpt>
      <trkpt lat="44.18243" lon="5.55897">
        <ele>912</ele>
        <time>2019-06-04T08:42:58Z</time>
      </trkpt>
      <trkpt lat="44.1824" lon="5.559">
        <ele>912</ele>
        <time>2019-06-04T08:42:59Z</time>
      </trkpt>
      <trkpt lat="44.18238" lon="5.55904">
        <ele>912</ele>
        <time>2019-06-04T08:43:00Z</time>
      </trkpt>
      <trkpt lat="44.18235" lon="5.55908">
        <ele>912</ele>
        <time>2019-06-04T08:43:01Z</time>
      </trkpt>
      <trkpt lat="44.18233" lon="5.55912">
        <ele>912</ele>
        <time>2019-06-04T08:43:02Z</time>
      </trkpt>
      <trkpt lat="44.1823" lon="5.55915">
        <ele>912</ele>
        <time>2019-06-04T08:43:03Z</time>
      </trkpt>
      <trkpt lat="44.18228" lon="5.55919">
        <ele>912</ele>
        <time>2019-06-04T08:43:04Z</time>
      </trkpt>
      <trkpt lat="44.18225" lon="5.55922">
        <ele>913</ele>
        <time>2019-06-04T08:43:05Z</time>
      </trkpt>
      <trkpt lat="44.18223" lon="5.55926">
        <ele>913</ele>
        <time>2019-06-04T08:43:06Z</time>
      </trkpt>
      <trkpt lat="44.18221" lon="5.5593">
        <ele>913</ele>
        <time>2019-06-04T08:43:07Z</time>
      </trkpt>
      <trkpt lat="44.18219" lon="5.55934">
        <ele>913</ele>
        <time>2019-06-04T08:43:08Z</time>
      </trkpt>
      <trkpt lat="44.18217" lon="5.55937">
        <ele>913</ele>
        <time>2019-06-04T08:43:09Z</time>
      </trkpt>
      <trkpt lat="44.18215" lon="5.5594">
        <ele>913</ele>
        <time>2019-06-04T08:43:10Z</time>
      </trkpt>
      <trkpt lat="44.18213" lon="5.55944">
        <ele>913</ele>
        <time>2019-06-04T08:43:11Z</time>
      </trkpt>
      <trkpt lat="44.18211" lon="5.55948">
        <ele>913</ele>
        <time>2019-06-04T08:43:12Z</time>
      </trkpt>
      <trkpt lat="44.18209" lon="5.55951">
        <ele>913</ele>
        <time>2019-06-04T08:43:13Z</time>
      </trkpt>
      <trkpt lat="44.18207" lon="5.55955">
        <ele>914</ele>
        <time>2019-06-04T08:43:14Z</time>
      </trkpt>
      <trkpt lat="44.18204" lon="5.55959">
        <ele>914</ele>
        <time>2019-06-04T08:43:15Z</time>
      </trkpt>
      <trkpt lat="44.18203" lon="5.55962">
        <ele>915</ele>
        <time>2019-06-04T08:43:16Z</time>
      </trkpt>
      <trkpt lat="44.18201" lon="5.55966">
        <ele>915</ele>
        <time>2019-06-04T08:43:17Z</time>
      </trkpt>
      <trkpt lat="44.18198" lon="5.55969">
        <ele>915</ele>
        <time>2019-06-04T08:43:18Z</time>
      </trkpt>
      <trkpt lat="44.18196" lon="5.55972">
        <ele>916</ele>
        <time>2019-06-04T08:43:19Z</time>
      </trkpt>
      <trkpt lat="44.18194" lon="5.55975">
        <ele>916</ele>
        <time>2019-06-04T08:43:20Z</time>
      </trkpt>
      <trkpt lat="44.18192" lon="5.55978">
        <ele>916</ele>
        <time>2019-06-04T08:43:21Z</time>
      </trkpt>
      <trkpt lat="44.1819" lon="5.55982">
        <ele>916</ele>
        <time>2019-06-04T08:43:22Z</time>
      </trkpt>
      <trkpt lat="44.18188" lon="5.55985">
        <ele>917</ele>
        <time>2019-06-04T08:43:23Z</time>
      </trkpt>
      <trkpt lat="44.18186" lon="5.55988">
        <ele>917</ele>
        <time>2019-06-04T08:43:24Z</time>
      </trkpt>
      <trkpt lat="44.18185" lon="5.55991">
        <ele>917</ele>
        <time>2019-06-04T08:43:25Z</time>
      </trkpt>
      <trkpt lat="44.18183" lon="5.55995">
        <ele>917</ele>
        <time>2019-06-04T08:43:26Z</time>
      </trkpt>
      <trkpt lat="44.18181" lon="5.55998">
        <ele>918</ele>
        <time>2019-06-04T08:43:27Z</time>
      </trkpt>
      <trkpt lat="44.18179" lon="5.56002">
        <ele>918</ele>
        <time>2019-06-04T08:43:28Z</time>
      </trkpt>
      <trkpt lat="44.18178" lon="5.56005">
        <ele>918</ele>
        <time>2019-06-04T08:43:29Z</time>
      </trkpt>
      <trkpt lat="44.18177" lon="5.56008">
        <ele>918</ele>
        <time>2019-06-04T08:43:30Z</time>
      </trkpt>
      <trkpt lat="44.18175" lon="5.56012">
        <ele>919</ele>
        <time>2019-06-04T08:43:31Z</time>
      </trkpt>
      <trkpt lat="44.18174" lon="5.56015">
        <ele>919</ele>
        <time>2019-06-04T08:43:32Z</time>
      </trkpt>
      <trkpt lat="44.18173" lon="5.56019">
        <ele>919</ele>
        <time>2019-06-04T08:43:33Z</time>
      </trkpt>
      <trkpt lat="44.18172" lon="5.56023">
        <ele>919</ele>
        <time>2019-06-04T08:43:34Z</time>
      </trkpt>
      <trkpt lat="44.18172" lon="5.56027">
        <ele>919</ele>
        <time>2019-06-04T08:43:35Z</time>
      </trkpt>
      <trkpt lat="44.18171" lon="5.56031">
        <ele>919</ele>
        <time>2019-06-04T08:43:36Z</time>
      </trkpt>
      <trkpt lat="44.18171" lon="5.56036">
        <ele>919</ele>
        <time>2019-06-04T08:43:37Z</time>
      </trkpt>
      <trkpt lat="44.18171" lon="5.5604">
        <ele>920</ele>
        <time>2019-06-04T08:43:38Z</time>
      </trkpt>
      <trkpt lat="44.18171" lon="5.56044">
        <ele>920</ele>
        <time>2019-06-04T08:43:39Z</time>
      </trkpt>
      <trkpt lat="44.18171" lon="5.56048">
        <ele>920</ele>
        <time>2019-06-04T08:43:40Z</time>
      </trkpt>
      <trkpt lat="44.18171" lon="5.56053">
        <ele>920</ele>
        <time>2019-06-04T08:43:41Z</time>
      </trkpt>
      <trkpt lat="44.18171" lon="5.56057">
        <ele>921</ele>
        <time>2019-06-04T08:43:42Z</time>
      </trkpt>
      <trkpt lat="44.18171" lon="5.56061">
        <ele>921</ele>
        <time>2019-06-04T08:43:43Z</time>
      </trkpt>
      <trkpt lat="44.18171" lon="5.56066">
        <ele>921</ele>
        <time>2019-06-04T08:43:44Z</time>
      </trkpt>
      <trkpt lat="44.18171" lon="5.56069">
        <ele>922</ele>
        <time>2019-06-04T08:43:45Z</time>
      </trkpt>
      <trkpt lat="44.18172" lon="5.56073">
        <ele>922</ele>
        <time>2019-06-04T08:43:46Z</time>
      </trkpt>
      <trkpt lat="44.18172" lon="5.56077">
        <ele>922</ele>
        <time>2019-06-04T08:43:47Z</time>
      </trkpt>
      <trkpt lat="44.18173" lon="5.5608">
        <ele>922</ele>
        <time>2019-06-04T08:43:48Z</time>
      </trkpt>
      <trkpt lat="44.18173" lon="5.56084">
        <ele>923</ele>
        <time>2019-06-04T08:43:49Z</time>
      </trkpt>
      <trkpt lat="44.18174" lon="5.56087">
        <ele>923</ele>
        <time>2019-06-04T08:43:50Z</time>
      </trkpt>
      <trkpt lat="44.18174" lon="5.56091">
        <ele>923</ele>
        <time>2019-06-04T08:43:51Z</time>
      </trkpt>
      <trkpt lat="44.18175" lon="5.56094">
        <ele>923</ele>
        <time>2019-06-04T08:43:52Z</time>
      </trkpt>
      <trkpt lat="44.18176" lon="5.56098">
        <ele>924</ele>
        <time>2019-06-04T08:43:53Z</time>
      </trkpt>
      <trkpt lat="44.18176" lon="5.56101">
        <ele>924</ele>
        <time>2019-06-04T08:43:54Z</time>
      </trkpt>
      <trkpt lat="44.18176" lon="5.56105">
        <ele>924</ele>
        <time>2019-06-04T08:43:55Z</time>
      </trkpt>
      <trkpt lat="44.18176" lon="5.56109">
        <ele>924</ele>
        <time>2019-06-04T08:43:56Z</time>
      </trkpt>
      <trkpt lat="44.18176" lon="5.56112">
        <ele>925</ele>
        <time>2019-06-04T08:43:57Z</time>
      </trkpt>
      <trkpt lat="44.18176" lon="5.56116">
        <ele>925</ele>
        <time>2019-06-04T08:43:58Z</time>
      </trkpt>
      <trkpt lat="44.18176" lon="5.5612">
        <ele>925</ele>
        <time>2019-06-04T08:43:59Z</time>
      </trkpt>
      <trkpt lat="44.18177" lon="5.56124">
        <ele>925</ele>
        <time>2019-06-04T08:44:00Z</time>
      </trkpt>
      <trkpt lat="44.18177" lon="5.56128">
        <ele>925</ele>
        <time>2019-06-04T08:44:01Z</time>
      </trkpt>
      <trkpt lat="44.18177" lon="5.56132">
        <ele>926</ele>
        <time>2019-06-04T08:44:02Z</time>
      </trkpt>
      <trkpt lat="44.18177" lon="5.56136">
        <ele>926</ele>
        <time>2019-06-04T08:44:03Z</time>
      </trkpt>
      <trkpt lat="44.18177" lon="5.56141">
        <ele>926</ele>
        <time>2019-06-04T08:44:04Z</time>
      </trkpt>
      <trkpt lat="44.18177" lon="5.56145">
        <ele>926</ele>
        <time>2019-06-04T08:44:05Z</time>
      </trkpt>
      <trkpt lat="44.18177" lon="5.56149">
        <ele>927</ele>
        <time>2019-06-04T08:44:06Z</time>
      </trkpt>
      <trkpt lat="44.18177" lon="5.56153">
        <ele>927</ele>
        <time>2019-06-04T08:44:07Z</time>
      </trkpt>
      <trkpt lat="44.18177" lon="5.56157">
        <ele>927</ele>
        <time>2019-06-04T08:44:08Z</time>
      </trkpt>
      <trkpt lat="44.18176" lon="5.56161">
        <ele>928</ele>
        <time>2019-06-04T08:44:09Z</time>
      </trkpt>
      <trkpt lat="44.18176" lon="5.56165">
        <ele>928</ele>
        <time>2019-06-04T08:44:10Z</time>
      </trkpt>
      <trkpt lat="44.18176" lon="5.56169">
        <ele>928</ele>
        <time>2019-06-04T08:44:11Z</time>
      </trkpt>
      <trkpt lat="44.18175" lon="5.56173">
        <ele>928</ele>
        <time>2019-06-04T08:44:12Z</time>
      </trkpt>
      <trkpt lat="44.18175" lon="5.56178">
        <ele>929</ele>
        <time>2019-06-04T08:44:13Z</time>
      </trkpt>
      <trkpt lat="44.18175" lon="5.56182">
        <ele>929</ele>
        <time>2019-06-04T08:44:14Z</time>
      </trkpt>
      <trkpt lat="44.18175" lon="5.56186">
        <ele>929</ele>
        <time>2019-06-04T08:44:15Z</time>
      </trkpt>
      <trkpt lat="44.18174" lon="5.5619">
        <ele>929</ele>
        <time>2019-06-04T08:44:16Z</time>
      </trkpt>
      <trkpt lat="44.18174" lon="5.56194">
        <ele>929</ele>
        <time>2019-06-04T08:44:17Z</time>
      </trkpt>
      <trkpt lat="44.18174" lon="5.56198">
        <ele>929</ele>
        <time>2019-06-04T08:44:18Z</time>
      </trkpt>
      <trkpt lat="44.18174" lon="5.56202">
        <ele>929</ele>
        <time>2019-06-04T08:44:19Z</time>
      </trkpt>
      <trkpt lat="44.18174" lon="5.56207">
        <ele>929</ele>
        <time>2019-06-04T08:44:20Z</time>
      </trkpt>
      <trkpt lat="44.18173" lon="5.5621">
        <ele>930</ele>
        <time>2019-06-04T08:44:21Z</time>
      </trkpt>
      <trkpt lat="44.18172" lon="5.56215">
        <ele>930</ele>
        <time>2019-06-04T08:44:22Z</time>
      </trkpt>
      <trkpt lat="44.18173" lon="5.56219">
        <ele>930</ele>
        <time>2019-06-04T08:44:23Z</time>
      </trkpt>
      <trkpt lat="44.18172" lon="5.56224">
        <ele>930</ele>
        <time>2019-06-04T08:44:24Z</time>
      </trkpt>
      <trkpt lat="44.18172" lon="5.56229">
        <ele>930</ele>
        <time>2019-06-04T08:44:25Z</time>
      </trkpt>
      <trkpt lat="44.18172" lon="5.56233">
        <ele>930</ele>
        <time>2019-06-04T08:44:26Z</time>
      </trkpt>
      <trkpt lat="44.18171" lon="5.56238">
        <ele>931</ele>
        <time>2019-06-04T08:44:27Z</time>
      </trkpt>
      <trkpt lat="44.18171" lon="5.56243">
        <ele>931</ele>
        <time>2019-06-04T08:44:28Z</time>
      </trkpt>
      <trkpt lat="44.18171" lon="5.56247">
        <ele>931</ele>
        <time>2019-06-04T08:44:29Z</time>
      </trkpt>
      <trkpt lat="44.18171" lon="5.56252">
        <ele>932</ele>
        <time>2019-06-04T08:44:30Z</time>
      </trkpt>
      <trkpt lat="44.1817" lon="5.56256">
        <ele>932</ele>
        <time>2019-06-04T08:44:31Z</time>
      </trkpt>
      <trkpt lat="44.18169" lon="5.56261">
        <ele>933</ele>
        <time>2019-06-04T08:44:32Z</time>
      </trkpt>
      <trkpt lat="44.18168" lon="5.56265">
        <ele>933</ele>
        <time>2019-06-04T08:44:33Z</time>
      </trkpt>
      <trkpt lat="44.18167" lon="5.56269">
        <ele>933</ele>
        <time>2019-06-04T08:44:34Z</time>
      </trkpt>
      <trkpt lat="44.18166" lon="5.56273">
        <ele>934</ele>
        <time>2019-06-04T08:44:35Z</time>
      </trkpt>
      <trkpt lat="44.18166" lon="5.56277">
        <ele>934</ele>
        <time>2019-06-04T08:44:36Z</time>
      </trkpt>
      <trkpt lat="44.18164" lon="5.56281">
        <ele>934</ele>
        <time>2019-06-04T08:44:37Z</time>
      </trkpt>
      <trkpt lat="44.18163" lon="5.56285">
        <ele>934</ele>
        <time>2019-06-04T08:44:38Z</time>
      </trkpt>
      <trkpt lat="44.18162" lon="5.56289">
        <ele>934</ele>
        <time>2019-06-04T08:44:39Z</time>
      </trkpt>
      <trkpt lat="44.18161" lon="5.56293">
        <ele>934</ele>
        <time>2019-06-04T08:44:40Z</time>
      </trkpt>
      <trkpt lat="44.1816" lon="5.56297">
        <ele>935</ele>
        <time>2019-06-04T08:44:41Z</time>
      </trkpt>
      <trkpt lat="44.18159" lon="5.56301">
        <ele>935</ele>
        <time>2019-06-04T08:44:42Z</time>
      </trkpt>
      <trkpt lat="44.18158" lon="5.56305">
        <ele>935</ele>
        <time>2019-06-04T08:44:43Z</time>
      </trkpt>
      <trkpt lat="44.18157" lon="5.56308">
        <ele>935</ele>
        <time>2019-06-04T08:44:44Z</time>
      </trkpt>
      <trkpt lat="44.18156" lon="5.56312">
        <ele>936</ele>
        <time>2019-06-04T08:44:45Z</time>
      </trkpt>
      <trkpt lat="44.18155" lon="5.56316">
        <ele>936</ele>
        <time>2019-06-04T08:44:46Z</time>
      </trkpt>
      <trkpt lat="44.18155" lon="5.5632">
        <ele>936</ele>
        <time>2019-06-04T08:44:47Z</time>
      </trkpt>
      <trkpt lat="44.18155" lon="5.56324">
        <ele>937</ele>
        <time>2019-06-04T08:44:48Z</time>
      </trkpt>
      <trkpt lat="44.18154" lon="5.56328">
        <ele>938</ele>
        <time>2019-06-04T08:44:49Z</time>
      </trkpt>
      <trkpt lat="44.18153" lon="5.56332">
        <ele>938</ele>
        <time>2019-06-04T08:44:50Z</time>
      </trkpt>
      <trkpt lat="44.18153" lon="5.56336">
        <ele>939</ele>
        <time>2019-06-04T08:44:51Z</time>
      </trkpt>
      <trkpt lat="44.18152" lon="5.56341">
        <ele>940</ele>
        <time>2019-06-04T08:44:52Z</time>
      </trkpt>
      <trkpt lat="44.18151" lon="5.56345">
        <ele>940</ele>
        <time>2019-06-04T08:44:53Z</time>
      </trkpt>
      <trkpt lat="44.1815" lon="5.56349">
        <ele>940</ele>
        <time>2019-06-04T08:44:54Z</time>
      </trkpt>
      <trkpt lat="44.18149" lon="5.56353">
        <ele>941</ele>
        <time>2019-06-04T08:44:55Z</time>
      </trkpt>
      <trkpt lat="44.18148" lon="5.56356">
        <ele>941</ele>
        <time>2019-06-04T08:44:56Z</time>
      </trkpt>
      <trkpt lat="44.18148" lon="5.56361">
        <ele>942</ele>
        <time>2019-06-04T08:44:57Z</time>
      </trkpt>
      <trkpt lat="44.18147" lon="5.56365">
        <ele>942</ele>
        <time>2019-06-04T08:44:58Z</time>
      </trkpt>
      <trkpt lat="44.18147" lon="5.56369">
        <ele>942</ele>
        <time>2019-06-04T08:44:59Z</time>
      </trkpt>
      <trkpt lat="44.18146" lon="5.56373">
        <ele>942</ele>
        <time>2019-06-04T08:45:00Z</time>
      </trkpt>
      <trkpt lat="44.18145" lon="5.56377">
        <ele>942</ele>
        <time>2019-06-04T08:45:01Z</time>
      </trkpt>
      <trkpt lat="44.18145" lon="5.56381">
        <ele>942</ele>
        <time>2019-06-04T08:45:02Z</time>
      </trkpt>
      <trkpt lat="44.18144" lon="5.56384">
        <ele>942</ele>
        <time>2019-06-04T08:45:03Z</time>
      </trkpt>
      <trkpt lat="44.18143" lon="5.56388">
        <ele>942</ele>
        <time>2019-06-04T08:45:04Z</time>
      </trkpt>
      <trkpt lat="44.18142" lon="5.56392">
        <ele>942</ele>
        <time>2019-06-04T08:45:05Z</time>
      </trkpt>
      <trkpt lat="44.18141" lon="5.56396">
        <ele>942</ele>
        <time>2019-06-04T08:45:06Z</time>
      </trkpt>
      <trkpt lat="44.1814" lon="5.564">
        <ele>942</ele>
        <time>2019-06-04T08:45:07Z</time>
      </trkpt>
      <trkpt lat="44.1814" lon="5.56404">
        <ele>942</ele>
        <time>2019-06-04T08:45:08Z</time>
      </trkpt>
      <trkpt lat="44.18139" lon="5.56408">
        <ele>942</ele>
        <time>2019-06-04T08:45:09Z</time>
      </trkpt>
      <trkpt lat="44.18138" lon="5.56412">
        <ele>942</ele>
        <time>2019-06-04T08:45:10Z</time>
      </trkpt>
      <trkpt lat="44.18137" lon="5.56417">
        <ele>942</ele>
        <time>2019-06-04T08:45:11Z</time>
      </trkpt>
      <trkpt lat="44.18135" lon="5.56421">
        <ele>942</ele>
        <time>2019-06-04T08:45:12Z</time>
      </trkpt>
      <trkpt lat="44.18134" lon="5.56425">
        <ele>942</ele>
        <time>2019-06-04T08:45:13Z</time>
      </trkpt>
      <trkpt lat="44.18133" lon="5.56429">
        <ele>942</ele>
        <time>2019-06-04T08:45:14Z</time>
      </trkpt>
      <trkpt lat="44.18132" lon="5.56433">
        <ele>942</ele>
        <time>2019-06-04T08:45:15Z</time>
      </trkpt>
      <trkpt lat="44.1813" lon="5.56437">
        <ele>942</ele>
        <time>2019-06-04T08:45:16Z</time>
      </trkpt>
      <trkpt lat="44.1813" lon="5.56441">
        <ele>942</ele>
        <time>2019-06-04T08:45:17Z</time>
      </trkpt>
      <trkpt lat="44.1813" lon="5.56446">
        <ele>942</ele>
        <time>2019-06-04T08:45:18Z</time>
      </trkpt>
      <trkpt lat="44.18129" lon="5.56449">
        <ele>942</ele>
        <time>2019-06-04T08:45:19Z</time>
      </trkpt>
      <trkpt lat="44.18128" lon="5.56453">
        <ele>942</ele>
        <time>2019-06-04T08:45:20Z</time>
      </trkpt>
      <trkpt lat="44.18127" lon="5.56457">
        <ele>942</ele>
        <time>2019-06-04T08:45:21Z</time>
      </trkpt>
      <trkpt lat="44.18127" lon="5.56461">
        <ele>942</ele>
        <time>2019-06-04T08:45:22Z</time>
      </trkpt>
      <trkpt lat="44.18127" lon="5.56465">
        <ele>942</ele>
        <time>2019-06-04T08:45:23Z</time>
      </trkpt>
      <trkpt lat="44.18126" lon="5.56468">
        <ele>942</ele>
        <time>2019-06-04T08:45:24Z</time>
      </trkpt>
      <trkpt lat="44.18125" lon="5.56472">
        <ele>942</ele>
        <time>2019-06-04T08:45:25Z</time>
      </trkpt>
      <trkpt lat="44.18125" lon="5.56476">
        <ele>942</ele>
        <time>2019-06-04T08:45:26Z</time>
      </trkpt>
      <trkpt lat="44.18125" lon="5.5648">
        <ele>942</ele>
        <time>2019-06-04T08:45:27Z</time>
      </trkpt>
      <trkpt lat="44.18124" lon="5.56484">
        <ele>942</ele>
        <time>2019-06-04T08:45:28Z</time>
      </trkpt>
      <trkpt lat="44.18124" lon="5.56488">
        <ele>943</ele>
        <time>2019-06-04T08:45:29Z</time>
      </trkpt>
      <trkpt lat="44.18124" lon="5.56492">
        <ele>943</ele>
        <time>2019-06-04T08:45:30Z</time>
      </trkpt>
      <trkpt lat="44.18123" lon="5.56496">
        <ele>943</ele>
        <time>2019-06-04T08:45:31Z</time>
      </trkpt>
      <trkpt lat="44.18123" lon="5.565">
        <ele>944</ele>
        <time>2019-06-04T08:45:32Z</time>
      </trkpt>
      <trkpt lat="44.18122" lon="5.56504">
        <ele>944</ele>
        <time>2019-06-04T08:45:33Z</time>
      </trkpt>
      <trkpt lat="44.18122" lon="5.56508">
        <ele>945</ele>
        <time>2019-06-04T08:45:34Z</time>
      </trkpt>
      <trkpt lat="44.18121" lon="5.56511">
        <ele>945</ele>
        <time>2019-06-04T08:45:35Z</time>
      </trkpt>
      <trkpt lat="44.18121" lon="5.56515">
        <ele>945</ele>
        <time>2019-06-04T08:45:36Z</time>
      </trkpt>
      <trkpt lat="44.1812" lon="5.56518">
        <ele>945</ele>
        <time>2019-06-04T08:45:37Z</time>
      </trkpt>
      <trkpt lat="44.18119" lon="5.56522">
        <ele>946</ele>
        <time>2019-06-04T08:45:38Z</time>
      </trkpt>
      <trkpt lat="44.18119" lon="5.56525">
        <ele>946</ele>
        <time>2019-06-04T08:45:39Z</time>
      </trkpt>
      <trkpt lat="44.18119" lon="5.56529">
        <ele>946</ele>
        <time>2019-06-04T08:45:40Z</time>
      </trkpt>
      <trkpt lat="44.18118" lon="5.56532">
        <ele>946</ele>
        <time>2019-06-04T08:45:41Z</time>
      </trkpt>
      <trkpt lat="44.18118" lon="5.56536">
        <ele>946</ele>
        <time>2019-06-04T08:45:42Z</time>
      </trkpt>
      <trkpt lat="44.18117" lon="5.56539">
        <ele>947</ele>
        <time>2019-06-04T08:45:43Z</time>
      </trkpt>
      <trkpt lat="44.18116" lon="5.56543">
        <ele>947</ele>
        <time>2019-06-04T08:45:44Z</time>
      </trkpt>
      <trkpt lat="44.18116" lon="5.56546">
        <ele>947</ele>
        <time>2019-06-04T08:45:45Z</time>
      </trkpt>
      <trkpt lat="44.18115" lon="5.5655">
        <ele>947</ele>
        <time>2019-06-04T08:45:46Z</time>
      </trkpt>
      <trkpt lat="44.18114" lon="5.56554">
        <ele>947</ele>
        <time>2019-06-04T08:45:47Z</time>
      </trkpt>
      <trkpt lat="44.18113" lon="5.56557">
        <ele>947</ele>
        <time>2019-06-04T08:45:48Z</time>
      </trkpt>
      <trkpt lat="44.18113" lon="5.56561">
        <ele>947</ele>
        <time>2019-06-04T08:45:49Z</time>
      </trkpt>
      <trkpt lat="44.18112" lon="5.56565">
        <ele>947</ele>
        <time>2019-06-04T08:45:50Z</time>
      </trkpt>
      <trkpt lat="44.18111" lon="5.56568">
        <ele>948</ele>
        <time>2019-06-04T08:45:51Z</time>
      </trkpt>
      <trkpt lat="44.1811" lon="5.56572">
        <ele>948</ele>
        <time>2019-06-04T08:45:52Z</time>
      </trkpt>
      <trkpt lat="44.18109" lon="5.56576">
        <ele>948</ele>
        <time>2019-06-04T08:45:53Z</time>
      </trkpt>
      <trkpt lat="44.18108" lon="5.56579">
        <ele>949</ele>
        <time>2019-06-04T08:45:54Z</time>
      </trkpt>
      <trkpt lat="44.18107" lon="5.56583">
        <ele>949</ele>
        <time>2019-06-04T08:45:55Z</time>
      </trkpt>
      <trkpt lat="44.18106" lon="5.56586">
        <ele>949</ele>
        <time>2019-06-04T08:45:56Z</time>
      </trkpt>
      <trkpt lat="44.18106" lon="5.5659">
        <ele>949</ele>
        <time>2019-06-04T08:45:57Z</time>
      </trkpt>
      <trkpt lat="44.18105" lon="5.56593">
        <ele>949</ele>
        <time>2019-06-04T08:45:58Z</time>
      </trkpt>
      <trkpt lat="44.18104" lon="5.56597">
        <ele>949</ele>
        <time>2019-06-04T08:45:59Z</time>
      </trkpt>
      <trkpt lat="44.18103" lon="5.566">
        <ele>949</ele>
        <time>2019-06-04T08:46:00Z</time>
      </trkpt>
      <trkpt lat="44.18102" lon="5.56603">
        <ele>949</ele>
        <time>2019-06-04T08:46:01Z</time>
      </trkpt>
      <trkpt lat="44.181" lon="5.56606">
        <ele>949</ele>
        <time>2019-06-04T08:46:02Z</time>
      </trkpt>
      <trkpt lat="44.181" lon="5.5661">
        <ele>949</ele>
        <time>2019-06-04T08:46:03Z</time>
      </trkpt>
      <trkpt lat="44.18098" lon="5.56613">
        <ele>949</ele>
        <time>2019-06-04T08:46:04Z</time>
      </trkpt>
      <trkpt lat="44.18098" lon="5.56617">
        <ele>949</ele>
        <time>2019-06-04T08:46:05Z</time>
      </trkpt>
      <trkpt lat="44.18097" lon="5.56621">
        <ele>949</ele>
        <time>2019-06-04T08:46:06Z</time>
      </trkpt>
      <trkpt lat="44.18095" lon="5.56624">
        <ele>949</ele>
        <time>2019-06-04T08:46:07Z</time>
      </trkpt>
      <trkpt lat="44.18094" lon="5.56628">
        <ele>949</ele>
        <time>2019-06-04T08:46:08Z</time>
      </trkpt>
      <trkpt lat="44.18093" lon="5.56631">
        <ele>949</ele>
        <time>2019-06-04T08:46:09Z</time>
      </trkpt>
      <trkpt lat="44.18092" lon="5.56635">
        <ele>949</ele>
        <time>2019-06-04T08:46:10Z</time>
      </trkpt>
      <trkpt lat="44.18091" lon="5.56638">
        <ele>949</ele>
        <time>2019-06-04T08:46:11Z</time>
      </trkpt>
      <trkpt lat="44.1809" lon="5.56641">
        <ele>949</ele>
        <time>2019-06-04T08:46:12Z</time>
      </trkpt>
      <trkpt lat="44.18088" lon="5.56645">
        <ele>949</ele>
        <time>2019-06-04T08:46:13Z</time>
      </trkpt>
      <trkpt lat="44.18087" lon="5.56648">
        <ele>949</ele>
        <time>2019-06-04T08:46:14Z</time>
      </trkpt>
      <trkpt lat="44.18086" lon="5.56652">
        <ele>949</ele>
        <time>2019-06-04T08:46:15Z</time>
      </trkpt>
      <trkpt lat="44.18084" lon="5.56656">
        <ele>949</ele>
        <time>2019-06-04T08:46:16Z</time>
      </trkpt>
      <trkpt lat="44.18083" lon="5.56659">
        <ele>950</ele>
        <time>2019-06-04T08:46:17Z</time>
      </trkpt>
      <trkpt lat="44.18082" lon="5.56663">
        <ele>950</ele>
        <time>2019-06-04T08:46:18Z</time>
      </trkpt>
      <trkpt lat="44.1808" lon="5.56666">
        <ele>950</ele>
        <time>2019-06-04T08:46:19Z</time>
      </trkpt>
      <trkpt lat="44.18079" lon="5.5667">
        <ele>950</ele>
        <time>2019-06-04T08:46:20Z</time>
      </trkpt>
      <trkpt lat="44.18077" lon="5.56674">
        <ele>950</ele>
        <time>2019-06-04T08:46:21Z</time>
      </trkpt>
      <trkpt lat="44.18075" lon="5.56677">
        <ele>950</ele>
        <time>2019-06-04T08:46:22Z</time>
      </trkpt>
      <trkpt lat="44.18073" lon="5.56681">
        <ele>951</ele>
        <time>2019-06-04T08:46:23Z</time>
      </trkpt>
      <trkpt lat="44.18072" lon="5.56684">
        <ele>951</ele>
        <time>2019-06-04T08:46:24Z</time>
      </trkpt>
      <trkpt lat="44.1807" lon="5.56687">
        <ele>951</ele>
        <time>2019-06-04T08:46:25Z</time>
      </trkpt>
      <trkpt lat="44.18068" lon="5.56691">
        <ele>951</ele>
        <time>2019-06-04T08:46:26Z</time>
      </trkpt>
      <trkpt lat="44.18067" lon="5.56694">
        <ele>951</ele>
        <time>2019-06-04T08:46:27Z</time>
      </trkpt>
      <trkpt lat="44.18065" lon="5.56698">
        <ele>951</ele>
        <time>2019-06-04T08:46:28Z</time>
      </trkpt>
      <trkpt lat="44.18064" lon="5.56701">
        <ele>951</ele>
        <time>2019-06-04T08:46:29Z</time>
      </trkpt>
      <trkpt lat="44.18063" lon="5.56705">
        <ele>951</ele>
        <time>2019-06-04T08:46:30Z</time>
      </trkpt>
      <trkpt lat="44.18061" lon="5.56708">
        <ele>952</ele>
        <time>2019-06-04T08:46:31Z</time>
      </trkpt>
      <trkpt lat="44.1806" lon="5.56712">
        <ele>952</ele>
        <time>2019-06-04T08:46:32Z</time>
      </trkpt>
      <trkpt lat="44.18059" lon="5.56716">
        <ele>952</ele>
        <time>2019-06-04T08:46:33Z</time>
      </trkpt>
      <trkpt lat="44.18057" lon="5.56719">
        <ele>952</ele>
        <time>2019-06-04T08:46:34Z</time>
      </trkpt>
      <trkpt lat="44.18055" lon="5.56723">
        <ele>953</ele>
        <time>2019-06-04T08:46:35Z</time>
      </trkpt>
      <trkpt lat="44.18054" lon="5.56727">
        <ele>953</ele>
        <time>2019-06-04T08:46:36Z</time>
      </trkpt>
      <trkpt lat="44.18052" lon="5.5673">
        <ele>953</ele>
        <time>2019-06-04T08:46:37Z</time>
      </trkpt>
      <trkpt lat="44.1805" lon="5.56734">
        <ele>953</ele>
        <time>2019-06-04T08:46:38Z</time>
      </trkpt>
      <trkpt lat="44.18049" lon="5.56738">
        <ele>954</ele>
        <time>2019-06-04T08:46:39Z</time>
      </trkpt>
      <trkpt lat="44.18047" lon="5.56741">
        <ele>954</ele>
        <time>2019-06-04T08:46:40Z</time>
      </trkpt>
      <trkpt lat="44.18046" lon="5.56745">
        <ele>954</ele>
        <time>2019-06-04T08:46:41Z</time>
      </trkpt>
      <trkpt lat="44.18044" lon="5.56748">
        <ele>954</ele>
        <time>2019-06-04T08:46:42Z</time>
      </trkpt>
      <trkpt lat="44.18042" lon="5.56751">
        <ele>954</ele>
        <time>2019-06-04T08:46:43Z</time>
      </trkpt>
      <trkpt lat="44.1804" lon="5.56754">
        <ele>955</ele>
        <time>2019-06-04T08:46:44Z</time>
      </trkpt>
      <trkpt lat="44.18038" lon="5.56757">
        <ele>955</ele>
        <time>2019-06-04T08:46:45Z</time>
      </trkpt>
      <trkpt lat="44.18036" lon="5.5676">
        <ele>955</ele>
        <time>2019-06-04T08:46:46Z</time>
      </trkpt>
      <trkpt lat="44.18034" lon="5.56764">
        <ele>955</ele>
        <time>2019-06-04T08:46:47Z</time>
      </trkpt>
      <trkpt lat="44.18032" lon="5.56767">
        <ele>956</ele>
        <time>2019-06-04T08:46:48Z</time>
      </trkpt>
      <trkpt lat="44.18029" lon="5.5677">
        <ele>956</ele>
        <time>2019-06-04T08:46:49Z</time>
      </trkpt>
      <trkpt lat="44.18027" lon="5.56772">
        <ele>956</ele>
        <time>2019-06-04T08:46:50Z</time>
      </trkpt>
      <trkpt lat="44.18024" lon="5.56774">
        <ele>956</ele>
        <time>2019-06-04T08:46:51Z</time>
      </trkpt>
      <trkpt lat="44.18021" lon="5.56777">
        <ele>957</ele>
        <time>2019-06-04T08:46:52Z</time>
      </trkpt>
      <trkpt lat="44.18018" lon="5.5678">
        <ele>957</ele>
        <time>2019-06-04T08:46:53Z</time>
      </trkpt>
      <trkpt lat="44.18015" lon="5.56782">
        <ele>957</ele>
        <time>2019-06-04T08:46:54Z</time>
      </trkpt>
      <trkpt lat="44.18012" lon="5.56784">
        <ele>957</ele>
        <time>2019-06-04T08:46:55Z</time>
      </trkpt>
      <trkpt lat="44.18009" lon="5.56786">
        <ele>958</ele>
        <time>2019-06-04T08:46:56Z</time>
      </trkpt>
      <trkpt lat="44.18005" lon="5.56788">
        <ele>958</ele>
        <time>2019-06-04T08:46:57Z</time>
      </trkpt>
      <trkpt lat="44.18002" lon="5.5679">
        <ele>958</ele>
        <time>2019-06-04T08:46:58Z</time>
      </trkpt>
      <trkpt lat="44.17999" lon="5.56792">
        <ele>959</ele>
        <time>2019-06-04T08:46:59Z</time>
      </trkpt>
      <trkpt lat="44.17996" lon="5.56795">
        <ele>959</ele>
        <time>2019-06-04T08:47:00Z</time>
      </trkpt>
      <trkpt lat="44.17992" lon="5.56796">
        <ele>960</ele>
        <time>2019-06-04T08:47:01Z</time>
      </trkpt>
      <trkpt lat="44.17989" lon="5.56799">
        <ele>960</ele>
        <time>2019-06-04T08:47:02Z</time>
      </trkpt>
      <trkpt lat="44.17986" lon="5.56801">
        <ele>960</ele>
        <time>2019-06-04T08:47:03Z</time>
      </trkpt>
      <trkpt lat="44.17982" lon="5.56804">
        <ele>960</ele>
        <time>2019-06-04T08:47:04Z</time>
      </trkpt>
      <trkpt lat="44.1798" lon="5.56807">
        <ele>960</ele>
        <time>2019-06-04T08:47:05Z</time>
      </trkpt>
      <trkpt lat="44.17977" lon="5.5681">
        <ele>960</ele>
        <time>2019-06-04T08:47:06Z</time>
      </trkpt>
      <trkpt lat="44.17974" lon="5.56813">
        <ele>960</ele>
        <time>2019-06-04T08:47:07Z</time>
      </trkpt>
      <trkpt lat="44.17971" lon="5.56816">
        <ele>960</ele>
        <time>2019-06-04T08:47:08Z</time>
      </trkpt>
      <trkpt lat="44.17969" lon="5.5682">
        <ele>960</ele>
        <time>2019-06-04T08:47:09Z</time>
      </trkpt>
      <trkpt lat="44.17966" lon="5.56823">
        <ele>960</ele>
        <time>2019-06-04T08:47:10Z</time>
      </trkpt>
      <trkpt lat="44.17964" lon="5.56826">
        <ele>960</ele>
        <time>2019-06-04T08:47:11Z</time>
      </trkpt>
      <trkpt lat="44.17963" lon="5.5683">
        <ele>961</ele>
        <time>2019-06-04T08:47:12Z</time>
      </trkpt>
      <trkpt lat="44.17961" lon="5.56834">
        <ele>961</ele>
        <time>2019-06-04T08:47:13Z</time>
      </trkpt>
      <trkpt lat="44.17959" lon="5.56838">
        <ele>961</ele>
        <time>2019-06-04T08:47:14Z</time>
      </trkpt>
      <trkpt lat="44.17958" lon="5.56842">
        <ele>962</ele>
        <time>2019-06-04T08:47:15Z</time>
      </trkpt>
      <trkpt lat="44.17956" lon="5.56846">
        <ele>962</ele>
        <time>2019-06-04T08:47:16Z</time>
      </trkpt>
      <trkpt lat="44.17954" lon="5.56849">
        <ele>962</ele>
        <time>2019-06-04T08:47:17Z</time>
      </trkpt>
      <trkpt lat="44.17952" lon="5.5685">
        <ele>963</ele>
        <time>2019-06-04T08:47:18Z</time>
      </trkpt>
      <trkpt lat="44.17952" lon="5.56852">
        <ele>963</ele>
        <time>2019-06-04T08:47:19Z</time>
      </trkpt>
      <trkpt lat="44.17952" lon="5.56854">
        <ele>963</ele>
        <time>2019-06-04T08:47:20Z</time>
      </trkpt>
      <trkpt lat="44.17952" lon="5.56855">
        <ele>963</ele>
        <time>2019-06-04T08:47:22Z</time>
      </trkpt>
      <trkpt lat="44.17952" lon="5.56857">
        <ele>964</ele>
        <time>2019-06-04T08:47:25Z</time>
      </trkpt>
      <trkpt lat="44.17952" lon="5.56858">
        <ele>964</ele>
        <time>2019-06-04T08:47:29Z</time>
      </trkpt>
      <trkpt lat="44.17953" lon="5.5686">
        <ele>964</ele>
        <time>2019-06-04T08:47:35Z</time>
      </trkpt>
      <trkpt lat="44.17955" lon="5.5686">
        <ele>964</ele>
        <time>2019-06-04T08:47:39Z</time>
      </trkpt>
      <trkpt lat="44.17955" lon="5.56862">
        <ele>965</ele>
        <time>2019-06-04T08:47:58Z</time>
      </trkpt>
      <trkpt lat="44.17956" lon="5.56864">
        <ele>965</ele>
        <time>2019-06-04T08:48:02Z</time>
      </trkpt>
      <trkpt lat="44.17955" lon="5.56862">
        <ele>965</ele>
        <time>2019-06-04T08:48:10Z</time>
      </trkpt>
      <trkpt lat="44.17955" lon="5.56861">
        <ele>965</ele>
        <time>2019-06-04T08:48:20Z</time>
      </trkpt>
      <trkpt lat="44.17954" lon="5.5686">
        <ele>966</ele>
        <time>2019-06-04T08:48:23Z</time>
      </trkpt>
      <trkpt lat="44.17953" lon="5.5686">
        <ele>968</ele>
        <time>2019-06-04T08:48:31Z</time>
      </trkpt>
      <trkpt lat="44.17952" lon="5.56858">
        <ele>969</ele>
        <time>2019-06-04T08:48:37Z</time>
      </trkpt>
      <trkpt lat="44.17951" lon="5.56856">
        <ele>969</ele>
        <time>2019-06-04T08:48:45Z</time>
      </trkpt>
      <trkpt lat="44.1795" lon="5.56856">
        <ele>969</ele>
        <time>2019-06-04T08:48:48Z</time>
      </trkpt>
      <trkpt lat="44.17949" lon="5.56855">
        <ele>969</ele>
        <time>2019-06-04T08:49:09Z</time>
      </trkpt>
      <trkpt lat="44.17951" lon="5.56856">
        <ele>969</ele>
        <time>2019-06-04T08:49:15Z</time>
      </trkpt>
      <trkpt lat="44.17953" lon="5.56858">
        <ele>969</ele>
        <time>2019-06-04T08:49:28Z</time>
      </trkpt>
      <trkpt lat="44.17951" lon="5.56858">
        <ele>969</ele>
        <time>2019-06-04T08:49:42Z</time>
      </trkpt>
      <trkpt lat="44.1795" lon="5.56857">
        <ele>969</ele>
        <time>2019-06-04T08:49:58Z</time>
      </trkpt>
      <trkpt lat="44.1795" lon="5.56855">
        <ele>969</ele>
        <time>2019-06-04T08:50:04Z</time>
      </trkpt>
      <trkpt lat="44.1795" lon="5.56854">
        <ele>969</ele>
        <time>2019-06-04T08:50:10Z</time>
      </trkpt>
      <trkpt lat="44.17951" lon="5.56854">
        <ele>969</ele>
        <time>2019-06-04T08:50:18Z</time>
      </trkpt>
      <trkpt lat="44.17953" lon="5.56856">
        <ele>969</ele>
        <time>2019-06-04T08:50:20Z</time>
      </trkpt>
      <trkpt lat="44.17954" lon="5.56857">
        <ele>969</ele>
        <time>2019-06-04T08:50:24Z</time>
      </trkpt>
      <trkpt lat="44.17954" lon="5.5686">
        <ele>969</ele>
        <time>2019-06-04T08:50:26Z</time>
      </trkpt>
      <trkpt lat="44.17953" lon="5.56862">
        <ele>969</ele>
        <time>2019-06-04T08:50:27Z</time>
      </trkpt>
      <trkpt lat="44.17952" lon="5.56866">
        <ele>969</ele>
        <time>2019-06-04T08:50:28Z</time>
      </trkpt>
      <trkpt lat="44.17952" lon="5.56869">
        <ele>969</ele>
        <time>2019-06-04T08:50:29Z</time>
      </trkpt>
      <trkpt lat="44.17951" lon="5.56873">
        <ele>969</ele>
        <time>2019-06-04T08:50:30Z</time>
      </trkpt>
      <trkpt lat="44.1795" lon="5.56878">
        <ele>969</ele>
        <time>2019-06-04T08:50:31Z</time>
      </trkpt>
      <trkpt lat="44.17948" lon="5.56882">
        <ele>969</ele>
        <time>2019-06-04T08:50:32Z</time>
      </trkpt>
      <trkpt lat="44.17947" lon="5.56887">
        <ele>969</ele>
        <time>2019-06-04T08:50:33Z</time>
      </trkpt>
      <trkpt lat="44.17945" lon="5.56893">
        <ele>969</ele>
        <time>2019-06-04T08:50:34Z</time>
      </trkpt>
      <trkpt lat="44.17943" lon="5.56898">
        <ele>969</ele>
        <time>2019-06-04T08:50:35Z</time>
      </trkpt>
      <trkpt lat="44.17941" lon="5.56905">
        <ele>969</ele>
        <time>2019-06-04T08:50:36Z</time>
      </trkpt>
      <trkpt lat="44.17939" lon="5.56912">
        <ele>969</ele>
        <time>2019-06-04T08:50:37Z</time>
      </trkpt>
      <trkpt lat="44.17937" lon="5.56919">
        <ele>969</ele>
        <time>2019-06-04T08:50:38Z</time>
      </trkpt>
      <trkpt lat="44.17935" lon="5.56926">
        <ele>969</ele>
        <time>2019-06-04T08:50:39Z</time>
      </trkpt>
      <trkpt lat="44.17933" lon="5.56935">
        <ele>969</ele>
        <time>2019-06-04T08:50:40Z</time>
      </trkpt>
      <trkpt lat="44.17931" lon="5.56943">
        <ele>969</ele>
        <time>2019-06-04T08:50:41Z</time>
      </trkpt>
      <trkpt lat="44.1793" lon="5.56952">
        <ele>969</ele>
        <time>2019-06-04T08:50:42Z</time>
      </trkpt>
      <trkpt lat="44.17928" lon="5.56961">
        <ele>969</ele>
        <time>2019-06-04T08:50:43Z</time>
      </trkpt>
      <trkpt lat="44.17927" lon="5.5697">
        <ele>968</ele>
        <time>2019-06-04T08:50:44Z</time>
      </trkpt>
      <trkpt lat="44.17926" lon="5.5698">
        <ele>967</ele>
        <time>2019-06-04T08:50:45Z</time>
      </trkpt>
      <trkpt lat="44.17925" lon="5.56989">
        <ele>967</ele>
        <time>2019-06-04T08:50:46Z</time>
      </trkpt>
      <trkpt lat="44.17924" lon="5.56999">
        <ele>966</ele>
        <time>2019-06-04T08:50:47Z</time>
      </trkpt>
      <trkpt lat="44.17924" lon="5.57008">
        <ele>965</ele>
        <time>2019-06-04T08:50:48Z</time>
      </trkpt>
      <trkpt lat="44.17923" lon="5.57018">
        <ele>964</ele>
        <time>2019-06-04T08:50:49Z</time>
      </trkpt>
      <trkpt lat="44.17921" lon="5.57028">
        <ele>964</ele>
        <time>2019-06-04T08:50:50Z</time>
      </trkpt>
      <trkpt lat="44.1792" lon="5.57038">
        <ele>963</ele>
        <time>2019-06-04T08:50:51Z</time>
      </trkpt>
      <trkpt lat="44.17919" lon="5.57048">
        <ele>963</ele>
        <time>2019-06-04T08:50:52Z</time>
      </trkpt>
      <trkpt lat="44.17918" lon="5.57058">
        <ele>962</ele>
        <time>2019-06-04T08:50:53Z</time>
      </trkpt>
      <trkpt lat="44.17917" lon="5.57068">
        <ele>962</ele>
        <time>2019-06-04T08:50:54Z</time>
      </trkpt>
      <trkpt lat="44.17915" lon="5.57079">
        <ele>961</ele>
        <time>2019-06-04T08:50:55Z</time>
      </trkpt>
      <trkpt lat="44.17914" lon="5.57089">
        <ele>961</ele>
        <time>2019-06-04T08:50:56Z</time>
      </trkpt>
      <trkpt lat="44.17913" lon="5.571">
        <ele>960</ele>
        <time>2019-06-04T08:50:57Z</time>
      </trkpt>
      <trkpt lat="44.17912" lon="5.57111">
        <ele>960</ele>
        <time>2019-06-04T08:50:58Z</time>
      </trkpt>
      <trkpt lat="44.17911" lon="5.57122">
        <ele>959</ele>
        <time>2019-06-04T08:50:59Z</time>
      </trkpt>
      <trkpt lat="44.1791" lon="5.57133">
        <ele>959</ele>
        <time>2019-06-04T08:51:00Z</time>
      </trkpt>
      <trkpt lat="44.17909" lon="5.57144">
        <ele>958</ele>
        <time>2019-06-04T08:51:01Z</time>
      </trkpt>
      <trkpt lat="44.17908" lon="5.57156">
        <ele>958</ele>
        <time>2019-06-04T08:51:02Z</time>
      </trkpt>
      <trkpt lat="44.17907" lon="5.57167">
        <ele>958</ele>
        <time>2019-06-04T08:51:03Z</time>
      </trkpt>
      <trkpt lat="44.17905" lon="5.57179">
        <ele>957</ele>
        <time>2019-06-04T08:51:04Z</time>
      </trkpt>
      <trkpt lat="44.17904" lon="5.5719">
        <ele>957</ele>
        <time>2019-06-04T08:51:05Z</time>
      </trkpt>
      <trkpt lat="44.17904" lon="5.57202">
        <ele>956</ele>
        <time>2019-06-04T08:51:06Z</time>
      </trkpt>
      <trkpt lat="44.17903" lon="5.57214">
        <ele>956</ele>
        <time>2019-06-04T08:51:07Z</time>
      </trkpt>
      <trkpt lat="44.17903" lon="5.57225">
        <ele>955</ele>
        <time>2019-06-04T08:51:08Z</time>
      </trkpt>
      <trkpt lat="44.17904" lon="5.57237">
        <ele>955</ele>
        <time>2019-06-04T08:51:09Z</time>
      </trkpt>
      <trkpt lat="44.17907" lon="5.57247">
        <ele>955</ele>
        <time>2019-06-04T08:51:10Z</time>
      </trkpt>
      <trkpt lat="44.1791" lon="5.57258">
        <ele>954</ele>
        <time>2019-06-04T08:51:11Z</time>
      </trkpt>
      <trkpt lat="44.17916" lon="5.57267">
        <ele>954</ele>
        <time>2019-06-04T08:51:12Z</time>
      </trkpt>
      <trkpt lat="44.17921" lon="5.57276">
        <ele>953</ele>
        <time>2019-06-04T08:51:13Z</time>
      </trkpt>
      <trkpt lat="44.17926" lon="5.57286">
        <ele>952</ele>
        <time>2019-06-04T08:51:14Z</time>
      </trkpt>
      <trkpt lat="44.17929" lon="5.57297">
        <ele>951</ele>
        <time>2019-06-04T08:51:15Z</time>
      </trkpt>
      <trkpt lat="44.1793" lon="5.57307">
        <ele>951</ele>
        <time>2019-06-04T08:51:16Z</time>
      </trkpt>
      <trkpt lat="44.17925" lon="5.57316">
        <ele>950</ele>
        <time>2019-06-04T08:51:17Z</time>
      </trkpt>
      <trkpt lat="44.17918" lon="5.57322">
        <ele>949</ele>
        <time>2019-06-04T08:51:18Z</time>
      </trkpt>
      <trkpt lat="44.17911" lon="5.5733">
        <ele>948</ele>
        <time>2019-06-04T08:51:19Z</time>
      </trkpt>
      <trkpt lat="44.17905" lon="5.57339">
        <ele>948</ele>
        <time>2019-06-04T08:51:20Z</time>
      </trkpt>
      <trkpt lat="44.17902" lon="5.5735">
        <ele>948</ele>
        <time>2019-06-04T08:51:21Z</time>
      </trkpt>
      <trkpt lat="44.17901" lon="5.57362">
        <ele>947</ele>
        <time>2019-06-04T08:51:22Z</time>
      </trkpt>
      <trkpt lat="44.17902" lon="5.57374">
        <ele>947</ele>
        <time>2019-06-04T08:51:23Z</time>
      </trkpt>
      <trkpt lat="44.17907" lon="5.57383">
        <ele>947</ele>
        <time>2019-06-04T08:51:24Z</time>
      </trkpt>
      <trkpt lat="44.17914" lon="5.57389">
        <ele>947</ele>
        <time>2019-06-04T08:51:25Z</time>
      </trkpt>
      <trkpt lat="44.17922" lon="5.57394">
        <ele>946</ele>
        <time>2019-06-04T08:51:26Z</time>
      </trkpt>
      <trkpt lat="44.17929" lon="5.574">
        <ele>946</ele>
        <time>2019-06-04T08:51:27Z</time>
      </trkpt>
      <trkpt lat="44.17934" lon="5.57407">
        <ele>946</ele>
        <time>2019-06-04T08:51:28Z</time>
      </trkpt>
      <trkpt lat="44.17936" lon="5.57417">
        <ele>945</ele>
        <time>2019-06-04T08:51:29Z</time>
      </trkpt>
      <trkpt lat="44.1793" lon="5.57425">
        <ele>945</ele>
        <time>2019-06-04T08:51:30Z</time>
      </trkpt>
      <trkpt lat="44.17923" lon="5.57431">
        <ele>944</ele>
        <time>2019-06-04T08:51:31Z</time>
      </trkpt>
      <trkpt lat="44.17915" lon="5.57433">
        <ele>943</ele>
        <time>2019-06-04T08:51:32Z</time>
      </trkpt>
      <trkpt lat="44.17907" lon="5.57435">
        <ele>942</ele>
        <time>2019-06-04T08:51:33Z</time>
      </trkpt>
      <trkpt lat="44.17898" lon="5.57437">
        <ele>941</ele>
        <time>2019-06-04T08:51:34Z</time>
      </trkpt>
      <trkpt lat="44.17889" lon="5.57442">
        <ele>940</ele>
        <time>2019-06-04T08:51:35Z</time>
      </trkpt>
      <trkpt lat="44.17881" lon="5.5745">
        <ele>940</ele>
        <time>2019-06-04T08:51:36Z</time>
      </trkpt>
      <trkpt lat="44.17875" lon="5.5746">
        <ele>939</ele>
        <time>2019-06-04T08:51:37Z</time>
      </trkpt>
      <trkpt lat="44.17872" lon="5.57473">
        <ele>939</ele>
        <time>2019-06-04T08:51:38Z</time>
      </trkpt>
      <trkpt lat="44.17871" lon="5.57487">
        <ele>939</ele>
        <time>2019-06-04T08:51:39Z</time>
      </trkpt>
      <trkpt lat="44.17869" lon="5.57502">
        <ele>939</ele>
        <time>2019-06-04T08:51:40Z</time>
      </trkpt>
      <trkpt lat="44.17868" lon="5.57516">
        <ele>938</ele>
        <time>2019-06-04T08:51:41Z</time>
      </trkpt>
      <trkpt lat="44.17866" lon="5.57529">
        <ele>938</ele>
        <time>2019-06-04T08:51:42Z</time>
      </trkpt>
      <trkpt lat="44.17864" lon="5.57544">
        <ele>938</ele>
        <time>2019-06-04T08:51:43Z</time>
      </trkpt>
      <trkpt lat="44.17862" lon="5.57557">
        <ele>938</ele>
        <time>2019-06-04T08:51:44Z</time>
      </trkpt>
      <trkpt lat="44.1786" lon="5.5757">
        <ele>937</ele>
        <time>2019-06-04T08:51:45Z</time>
      </trkpt>
      <trkpt lat="44.17857" lon="5.57584">
        <ele>937</ele>
        <time>2019-06-04T08:51:46Z</time>
      </trkpt>
      <trkpt lat="44.17854" lon="5.57597">
        <ele>937</ele>
        <time>2019-06-04T08:51:47Z</time>
      </trkpt>
      <trkpt lat="44.17851" lon="5.57611">
        <ele>936</ele>
        <time>2019-06-04T08:51:48Z</time>
      </trkpt>
      <trkpt lat="44.1785" lon="5.57624">
        <ele>936</ele>
        <time>2019-06-04T08:51:49Z</time>
      </trkpt>
      <trkpt lat="44.1785" lon="5.57639">
        <ele>935</ele>
        <time>2019-06-04T08:51:50Z</time>
      </trkpt>
      <trkpt lat="44.1785" lon="5.57653">
        <ele>935</ele>
        <time>2019-06-04T08:51:51Z</time>
      </trkpt>
      <trkpt lat="44.17851" lon="5.57668">
        <ele>934</ele>
        <time>2019-06-04T08:51:52Z</time>
      </trkpt>
      <trkpt lat="44.1785" lon="5.57682">
        <ele>933</ele>
        <time>2019-06-04T08:51:53Z</time>
      </trkpt>
      <trkpt lat="44.17849" lon="5.57696">
        <ele>933</ele>
        <time>2019-06-04T08:51:54Z</time>
      </trkpt>
      <trkpt lat="44.17848" lon="5.5771">
        <ele>932</ele>
        <time>2019-06-04T08:51:55Z</time>
      </trkpt>
      <trkpt lat="44.17847" lon="5.57724">
        <ele>931</ele>
        <time>2019-06-04T08:51:56Z</time>
      </trkpt>
      <trkpt lat="44.17846" lon="5.57739">
        <ele>930</ele>
        <time>2019-06-04T08:51:57Z</time>
      </trkpt>
      <trkpt lat="44.17845" lon="5.57754">
        <ele>930</ele>
        <time>2019-06-04T08:51:58Z</time>
      </trkpt>
      <trkpt lat="44.17842" lon="5.57768">
        <ele>929</ele>
        <time>2019-06-04T08:51:59Z</time>
      </trkpt>
      <trkpt lat="44.17839" lon="5.57782">
        <ele>928</ele>
        <time>2019-06-04T08:52:00Z</time>
      </trkpt>
      <trkpt lat="44.17836" lon="5.57795">
        <ele>927</ele>
        <time>2019-06-04T08:52:01Z</time>
      </trkpt>
      <trkpt lat="44.17834" lon="5.57809">
        <ele>927</ele>
        <time>2019-06-04T08:52:02Z</time>
      </trkpt>
      <trkpt lat="44.17833" lon="5.57823">
        <ele>926</ele>
        <time>2019-06-04T08:52:03Z</time>
      </trkpt>
      <trkpt lat="44.17834" lon="5.57836">
        <ele>926</ele>
        <time>2019-06-04T08:52:04Z</time>
      </trkpt>
      <trkpt lat="44.17836" lon="5.5785">
        <ele>925</ele>
        <time>2019-06-04T08:52:05Z</time>
      </trkpt>
      <trkpt lat="44.17838" lon="5.57862">
        <ele>924</ele>
        <time>2019-06-04T08:52:06Z</time>
      </trkpt>
      <trkpt lat="44.1784" lon="5.57875">
        <ele>924</ele>
        <time>2019-06-04T08:52:07Z</time>
      </trkpt>
      <trkpt lat="44.17843" lon="5.57889">
        <ele>923</ele>
        <time>2019-06-04T08:52:08Z</time>
      </trkpt>
      <trkpt lat="44.17845" lon="5.57902">
        <ele>922</ele>
        <time>2019-06-04T08:52:09Z</time>
      </trkpt>
      <trkpt lat="44.17847" lon="5.57916">
        <ele>921</ele>
        <time>2019-06-04T08:52:10Z</time>
      </trkpt>
      <trkpt lat="44.17849" lon="5.57929">
        <ele>921</ele>
        <time>2019-06-04T08:52:11Z</time>
      </trkpt>
      <trkpt lat="44.17851" lon="5.57942">
        <ele>920</ele>
        <time>2019-06-04T08:52:12Z</time>
      </trkpt>
      <trkpt lat="44.17853" lon="5.57955">
        <ele>919</ele>
        <time>2019-06-04T08:52:13Z</time>
      </trkpt>
      <trkpt lat="44.17855" lon="5.57969">
        <ele>918</ele>
        <time>2019-06-04T08:52:14Z</time>
      </trkpt>
      <trkpt lat="44.17856" lon="5.57982">
        <ele>917</ele>
        <time>2019-06-04T08:52:15Z</time>
      </trkpt>
      <trkpt lat="44.17856" lon="5.57996">
        <ele>917</ele>
        <time>2019-06-04T08:52:16Z</time>
      </trkpt>
      <trkpt lat="44.17858" lon="5.58009">
        <ele>916</ele>
        <time>2019-06-04T08:52:17Z</time>
      </trkpt>
      <trkpt lat="44.17861" lon="5.58021">
        <ele>916</ele>
        <time>2019-06-04T08:52:18Z</time>
      </trkpt>
      <trkpt lat="44.17867" lon="5.58031">
        <ele>915</ele>
        <time>2019-06-04T08:52:19Z</time>
      </trkpt>
      <trkpt lat="44.17873" lon="5.58038">
        <ele>914</ele>
        <time>2019-06-04T08:52:20Z</time>
      </trkpt>
      <trkpt lat="44.17881" lon="5.58044">
        <ele>914</ele>
        <time>2019-06-04T08:52:21Z</time>
      </trkpt>
      <trkpt lat="44.17889" lon="5.58048">
        <ele>913</ele>
        <time>2019-06-04T08:52:22Z</time>
      </trkpt>
      <trkpt lat="44.17898" lon="5.58051">
        <ele>913</ele>
        <time>2019-06-04T08:52:23Z</time>
      </trkpt>
      <trkpt lat="44.17907" lon="5.58053">
        <ele>912</ele>
        <time>2019-06-04T08:52:24Z</time>
      </trkpt>
      <trkpt lat="44.17915" lon="5.58056">
        <ele>912</ele>
        <time>2019-06-04T08:52:25Z</time>
      </trkpt>
      <trkpt lat="44.17923" lon="5.5806">
        <ele>911</ele>
        <time>2019-06-04T08:52:26Z</time>
      </trkpt>
      <trkpt lat="44.1793" lon="5.58065">
        <ele>911</ele>
        <time>2019-06-04T08:52:27Z</time>
      </trkpt>
      <trkpt lat="44.17935" lon="5.58072">
        <ele>910</ele>
        <time>2019-06-04T08:52:28Z</time>
      </trkpt>
      <trkpt lat="44.17938" lon="5.58082">
        <ele>910</ele>
        <time>2019-06-04T08:52:29Z</time>
      </trkpt>
      <trkpt lat="44.1794" lon="5.58092">
        <ele>910</ele>
        <time>2019-06-04T08:52:30Z</time>
      </trkpt>
      <trkpt lat="44.17937" lon="5.58101">
        <ele>909</ele>
        <time>2019-06-04T08:52:31Z</time>
      </trkpt>
      <trkpt lat="44.17927" lon="5.58106">
        <ele>909</ele>
        <time>2019-06-04T08:52:32Z</time>
      </trkpt>
      <trkpt lat="44.1792" lon="5.58109">
        <ele>908</ele>
        <time>2019-06-04T08:52:33Z</time>
      </trkpt>
      <trkpt lat="44.17911" lon="5.58109">
        <ele>908</ele>
        <time>2019-06-04T08:52:34Z</time>
      </trkpt>
      <trkpt lat="44.17903" lon="5.5811">
        <ele>908</ele>
        <time>2019-06-04T08:52:35Z</time>
      </trkpt>
      <trkpt lat="44.17894" lon="5.5811">
        <ele>908</ele>
        <time>2019-06-04T08:52:36Z</time>
      </trkpt>
      <trkpt lat="44.17884" lon="5.58112">
        <ele>907</ele>
        <time>2019-06-04T08:52:37Z</time>
      </trkpt>
      <trkpt lat="44.17875" lon="5.58117">
        <ele>907</ele>
        <time>2019-06-04T08:52:38Z</time>
      </trkpt>
      <trkpt lat="44.17867" lon="5.58124">
        <ele>906</ele>
        <time>2019-06-04T08:52:39Z</time>
      </trkpt>
      <trkpt lat="44.17858" lon="5.58132">
        <ele>906</ele>
        <time>2019-06-04T08:52:40Z</time>
      </trkpt>
      <trkpt lat="44.1785" lon="5.58141">
        <ele>905</ele>
        <time>2019-06-04T08:52:41Z</time>
      </trkpt>
      <trkpt lat="44.17843" lon="5.5815">
        <ele>905</ele>
        <time>2019-06-04T08:52:42Z</time>
      </trkpt>
      <trkpt lat="44.17836" lon="5.58161">
        <ele>904</ele>
        <time>2019-06-04T08:52:43Z</time>
      </trkpt>
      <trkpt lat="44.17831" lon="5.58173">
        <ele>904</ele>
        <time>2019-06-04T08:52:44Z</time>
      </trkpt>
      <trkpt lat="44.17827" lon="5.58185">
        <ele>904</ele>
        <time>2019-06-04T08:52:45Z</time>
      </trkpt>
      <trkpt lat="44.17824" lon="5.58198">
        <ele>903</ele>
        <time>2019-06-04T08:52:46Z</time>
      </trkpt>
      <trkpt lat="44.1782" lon="5.58212">
        <ele>903</ele>
        <time>2019-06-04T08:52:47Z</time>
      </trkpt>
      <trkpt lat="44.17817" lon="5.58224">
        <ele>902</ele>
        <time>2019-06-04T08:52:48Z</time>
      </trkpt>
      <trkpt lat="44.17813" lon="5.58237">
        <ele>902</ele>
        <time>2019-06-04T08:52:49Z</time>
      </trkpt>
      <trkpt lat="44.17808" lon="5.58249">
        <ele>901</ele>
        <time>2019-06-04T08:52:50Z</time>
      </trkpt>
      <trkpt lat="44.17802" lon="5.58259">
        <ele>901</ele>
        <time>2019-06-04T08:52:51Z</time>
      </trkpt>
      <trkpt lat="44.17794" lon="5.58267">
        <ele>900</ele>
        <time>2019-06-04T08:52:52Z</time>
      </trkpt>
      <trkpt lat="44.17786" lon="5.58274">
        <ele>899</ele>
        <time>2019-06-04T08:52:53Z</time>
      </trkpt>
      <trkpt lat="44.17779" lon="5.58282">
        <ele>898</ele>
        <time>2019-06-04T08:52:54Z</time>
      </trkpt>
      <trkpt lat="44.17772" lon="5.58291">
        <ele>898</ele>
        <time>2019-06-04T08:52:55Z</time>
      </trkpt>
      <trkpt lat="44.17766" lon="5.58302">
        <ele>897</ele>
        <time>2019-06-04T08:52:56Z</time>
      </trkpt>
      <trkpt lat="44.17762" lon="5.58315">
        <ele>896</ele>
        <time>2019-06-04T08:52:57Z</time>
      </trkpt>
      <trkpt lat="44.17758" lon="5.58326">
        <ele>895</ele>
        <time>2019-06-04T08:52:58Z</time>
      </trkpt>
      <trkpt lat="44.17754" lon="5.58339">
        <ele>895</ele>
        <time>2019-06-04T08:52:59Z</time>
      </trkpt>
      <trkpt lat="44.17751" lon="5.58352">
        <ele>894</ele>
        <time>2019-06-04T08:53:00Z</time>
      </trkpt>
      <trkpt lat="44.17748" lon="5.58364">
        <ele>894</ele>
        <time>2019-06-04T08:53:01Z</time>
      </trkpt>
      <trkpt lat="44.17744" lon="5.58377">
        <ele>894</ele>
        <time>2019-06-04T08:53:02Z</time>
      </trkpt>
      <trkpt lat="44.17741" lon="5.5839">
        <ele>893</ele>
        <time>2019-06-04T08:53:03Z</time>
      </trkpt>
      <trkpt lat="44.17738" lon="5.58402">
        <ele>893</ele>
        <time>2019-06-04T08:53:04Z</time>
      </trkpt>
      <trkpt lat="44.17735" lon="5.58415">
        <ele>892</ele>
        <time>2019-06-04T08:53:05Z</time>
      </trkpt>
      <trkpt lat="44.17732" lon="5.58428">
        <ele>892</ele>
        <time>2019-06-04T08:53:06Z</time>
      </trkpt>
      <trkpt lat="44.17729" lon="5.58442">
        <ele>892</ele>
        <time>2019-06-04T08:53:07Z</time>
      </trkpt>
      <trkpt lat="44.17727" lon="5.58456">
        <ele>891</ele>
        <time>2019-06-04T08:53:08Z</time>
      </trkpt>
      <trkpt lat="44.17724" lon="5.58469">
        <ele>891</ele>
        <time>2019-06-04T08:53:09Z</time>
      </trkpt>
      <trkpt lat="44.1772" lon="5.58482">
        <ele>890</ele>
        <time>2019-06-04T08:53:10Z</time>
      </trkpt>
      <trkpt lat="44.17719" lon="5.58496">
        <ele>889</ele>
        <time>2019-06-04T08:53:11Z</time>
      </trkpt>
      <trkpt lat="44.17717" lon="5.58511">
        <ele>889</ele>
        <time>2019-06-04T08:53:12Z</time>
      </trkpt>
      <trkpt lat="44.17715" lon="5.58525">
        <ele>888</ele>
        <time>2019-06-04T08:53:13Z</time>
      </trkpt>
      <trkpt lat="44.17712" lon="5.58538">
        <ele>887</ele>
        <time>2019-06-04T08:53:14Z</time>
      </trkpt>
      <trkpt lat="44.17707" lon="5.5855">
        <ele>887</ele>
        <time>2019-06-04T08:53:15Z</time>
      </trkpt>
      <trkpt lat="44.17701" lon="5.58559">
        <ele>886</ele>
        <time>2019-06-04T08:53:16Z</time>
      </trkpt>
      <trkpt lat="44.17695" lon="5.58569">
        <ele>885</ele>
        <time>2019-06-04T08:53:17Z</time>
      </trkpt>
      <trkpt lat="44.17689" lon="5.5858">
        <ele>885</ele>
        <time>2019-06-04T08:53:18Z</time>
      </trkpt>
      <trkpt lat="44.17685" lon="5.58591">
        <ele>884</ele>
        <time>2019-06-04T08:53:19Z</time>
      </trkpt>
      <trkpt lat="44.1768" lon="5.58604">
        <ele>883</ele>
        <time>2019-06-04T08:53:20Z</time>
      </trkpt>
      <trkpt lat="44.17676" lon="5.58617">
        <ele>883</ele>
        <time>2019-06-04T08:53:21Z</time>
      </trkpt>
      <trkpt lat="44.17673" lon="5.5863">
        <ele>882</ele>
        <time>2019-06-04T08:53:22Z</time>
      </trkpt>
      <trkpt lat="44.17669" lon="5.58643">
        <ele>881</ele>
        <time>2019-06-04T08:53:23Z</time>
      </trkpt>
      <trkpt lat="44.17665" lon="5.58657">
        <ele>881</ele>
        <time>2019-06-04T08:53:24Z</time>
      </trkpt>
      <trkpt lat="44.17661" lon="5.5867">
        <ele>880</ele>
        <time>2019-06-04T08:53:25Z</time>
      </trkpt>
      <trkpt lat="44.17657" lon="5.58683">
        <ele>880</ele>
        <time>2019-06-04T08:53:26Z</time>
      </trkpt>
      <trkpt lat="44.17654" lon="5.58697">
        <ele>879</ele>
        <time>2019-06-04T08:53:27Z</time>
      </trkpt>
      <trkpt lat="44.1765" lon="5.58709">
        <ele>878</ele>
        <time>2019-06-04T08:53:28Z</time>
      </trkpt>
      <trkpt lat="44.17646" lon="5.58722">
        <ele>878</ele>
        <time>2019-06-04T08:53:29Z</time>
      </trkpt>
      <trkpt lat="44.17641" lon="5.58735">
        <ele>877</ele>
        <time>2019-06-04T08:53:30Z</time>
      </trkpt>
      <trkpt lat="44.17636" lon="5.58747">
        <ele>877</ele>
        <time>2019-06-04T08:53:31Z</time>
      </trkpt>
      <trkpt lat="44.17632" lon="5.58759">
        <ele>877</ele>
        <time>2019-06-04T08:53:32Z</time>
      </trkpt>
      <trkpt lat="44.17628" lon="5.58772">
        <ele>876</ele>
        <time>2019-06-04T08:53:33Z</time>
      </trkpt>
      <trkpt lat="44.17625" lon="5.58785">
        <ele>876</ele>
        <time>2019-06-04T08:53:34Z</time>
      </trkpt>
      <trkpt lat="44.17622" lon="5.58798">
        <ele>875</ele>
        <time>2019-06-04T08:53:35Z</time>
      </trkpt>
      <trkpt lat="44.17619" lon="5.58812">
        <ele>875</ele>
        <time>2019-06-04T08:53:36Z</time>
      </trkpt>
      <trkpt lat="44.17617" lon="5.58825">
        <ele>875</ele>
        <time>2019-06-04T08:53:37Z</time>
      </trkpt>
      <trkpt lat="44.17614" lon="5.58838">
        <ele>874</ele>
        <time>2019-06-04T08:53:38Z</time>
      </trkpt>
      <trkpt lat="44.17611" lon="5.58851">
        <ele>874</ele>
        <time>2019-06-04T08:53:39Z</time>
      </trkpt>
      <trkpt lat="44.17609" lon="5.58864">
        <ele>874</ele>
        <time>2019-06-04T08:53:40Z</time>
      </trkpt>
      <trkpt lat="44.17606" lon="5.58877">
        <ele>874</ele>
        <time>2019-06-04T08:53:41Z</time>
      </trkpt>
      <trkpt lat="44.17603" lon="5.5889">
        <ele>874</ele>
        <time>2019-06-04T08:53:42Z</time>
      </trkpt>
      <trkpt lat="44.17601" lon="5.58903">
        <ele>873</ele>
        <time>2019-06-04T08:53:43Z</time>
      </trkpt>
      <trkpt lat="44.17597" lon="5.58916">
        <ele>873</ele>
        <time>2019-06-04T08:53:44Z</time>
      </trkpt>
      <trkpt lat="44.17593" lon="5.58928">
        <ele>873</ele>
        <time>2019-06-04T08:53:45Z</time>
      </trkpt>
      <trkpt lat="44.17589" lon="5.5894">
        <ele>873</ele>
        <time>2019-06-04T08:53:46Z</time>
      </trkpt>
      <trkpt lat="44.17584" lon="5.58952">
        <ele>872</ele>
        <time>2019-06-04T08:53:47Z</time>
      </trkpt>
      <trkpt lat="44.17579" lon="5.58962">
        <ele>872</ele>
        <time>2019-06-04T08:53:48Z</time>
      </trkpt>
      <trkpt lat="44.17572" lon="5.58973">
        <ele>872</ele>
        <time>2019-06-04T08:53:49Z</time>
      </trkpt>
      <trkpt lat="44.17566" lon="5.58983">
        <ele>872</ele>
        <time>2019-06-04T08:53:50Z</time>
      </trkpt>
      <trkpt lat="44.1756" lon="5.58993">
        <ele>872</ele>
        <time>2019-06-04T08:53:51Z</time>
      </trkpt>
      <trkpt lat="44.17553" lon="5.59004">
        <ele>872</ele>
        <time>2019-06-04T08:53:52Z</time>
      </trkpt>
      <trkpt lat="44.17547" lon="5.59014">
        <ele>872</ele>
        <time>2019-06-04T08:53:53Z</time>
      </trkpt>
      <trkpt lat="44.17541" lon="5.59025">
        <ele>872</ele>
        <time>2019-06-04T08:53:54Z</time>
      </trkpt>
      <trkpt lat="44.17535" lon="5.59035">
        <ele>872</ele>
        <time>2019-06-04T08:53:55Z</time>
      </trkpt>
      <trkpt lat="44.17529" lon="5.59046">
        <ele>871</ele>
        <time>2019-06-04T08:53:56Z</time>
      </trkpt>
      <trkpt lat="44.17523" lon="5.59057">
        <ele>871</ele>
        <time>2019-06-04T08:53:57Z</time>
      </trkpt>
      <trkpt lat="44.17517" lon="5.59067">
        <ele>871</ele>
        <time>2019-06-04T08:53:58Z</time>
      </trkpt>
      <trkpt lat="44.17511" lon="5.59078">
        <ele>870</ele>
        <time>2019-06-04T08:53:59Z</time>
      </trkpt>
      <trkpt lat="44.17505" lon="5.59089">
        <ele>870</ele>
        <time>2019-06-04T08:54:00Z</time>
      </trkpt>
      <trkpt lat="44.175" lon="5.591">
        <ele>869</ele>
        <time>2019-06-04T08:54:01Z</time>
      </trkpt>
      <trkpt lat="44.17494" lon="5.59111">
        <ele>869</ele>
        <time>2019-06-04T08:54:02Z</time>
      </trkpt>
      <trkpt lat="44.17488" lon="5.59121">
        <ele>868</ele>
        <time>2019-06-04T08:54:03Z</time>
      </trkpt>
      <trkpt lat="44.17482" lon="5.59132">
        <ele>868</ele>
        <time>2019-06-04T08:54:04Z</time>
      </trkpt>
      <trkpt lat="44.17476" lon="5.59142">
        <ele>867</ele>
        <time>2019-06-04T08:54:05Z</time>
      </trkpt>
      <trkpt lat="44.1747" lon="5.59152">
        <ele>866</ele>
        <time>2019-06-04T08:54:06Z</time>
      </trkpt>
      <trkpt lat="44.17464" lon="5.59162">
        <ele>866</ele>
        <time>2019-06-04T08:54:07Z</time>
      </trkpt>
      <trkpt lat="44.17458" lon="5.59171">
        <ele>866</ele>
        <time>2019-06-04T08:54:08Z</time>
      </trkpt>
      <trkpt lat="44.17451" lon="5.59179">
        <ele>866</ele>
        <time>2019-06-04T08:54:09Z</time>
      </trkpt>
      <trkpt lat="44.17444" lon="5.59187">
        <ele>866</ele>
        <time>2019-06-04T08:54:10Z</time>
      </trkpt>
      <trkpt lat="44.17437" lon="5.59194">
        <ele>866</ele>
        <time>2019-06-04T08:54:11Z</time>
      </trkpt>
      <trkpt lat="44.1743" lon="5.59203">
        <ele>865</ele>
        <time>2019-06-04T08:54:12Z</time>
      </trkpt>
      <trkpt lat="44.17424" lon="5.59212">
        <ele>865</ele>
        <time>2019-06-04T08:54:13Z</time>
      </trkpt>
      <trkpt lat="44.17419" lon="5.59223">
        <ele>865</ele>
        <time>2019-06-04T08:54:14Z</time>
      </trkpt>
      <trkpt lat="44.17415" lon="5.59234">
        <ele>864</ele>
        <time>2019-06-04T08:54:15Z</time>
      </trkpt>
      <trkpt lat="44.17412" lon="5.59245">
        <ele>863</ele>
        <time>2019-06-04T08:54:16Z</time>
      </trkpt>
      <trkpt lat="44.17408" lon="5.59257">
        <ele>863</ele>
        <time>2019-06-04T08:54:17Z</time>
      </trkpt>
      <trkpt lat="44.17404" lon="5.59268">
        <ele>862</ele>
        <time>2019-06-04T08:54:18Z</time>
      </trkpt>
      <trkpt lat="44.17399" lon="5.59278">
        <ele>862</ele>
        <time>2019-06-04T08:54:19Z</time>
      </trkpt>
      <trkpt lat="44.17393" lon="5.59286">
        <ele>861</ele>
        <time>2019-06-04T08:54:20Z</time>
      </trkpt>
      <trkpt lat="44.17386" lon="5.59295">
        <ele>861</ele>
        <time>2019-06-04T08:54:21Z</time>
      </trkpt>
      <trkpt lat="44.17379" lon="5.59303">
        <ele>861</ele>
        <time>2019-06-04T08:54:22Z</time>
      </trkpt>
      <trkpt lat="44.17373" lon="5.59311">
        <ele>860</ele>
        <time>2019-06-04T08:54:23Z</time>
      </trkpt>
      <trkpt lat="44.17366" lon="5.59319">
        <ele>860</ele>
        <time>2019-06-04T08:54:24Z</time>
      </trkpt>
      <trkpt lat="44.17359" lon="5.59328">
        <ele>859</ele>
        <time>2019-06-04T08:54:25Z</time>
      </trkpt>
      <trkpt lat="44.17352" lon="5.59336">
        <ele>859</ele>
        <time>2019-06-04T08:54:26Z</time>
      </trkpt>
      <trkpt lat="44.17346" lon="5.59345">
        <ele>859</ele>
        <time>2019-06-04T08:54:27Z</time>
      </trkpt>
      <trkpt lat="44.17339" lon="5.59353">
        <ele>858</ele>
        <time>2019-06-04T08:54:28Z</time>
      </trkpt>
      <trkpt lat="44.17333" lon="5.59362">
        <ele>858</ele>
        <time>2019-06-04T08:54:29Z</time>
      </trkpt>
      <trkpt lat="44.17327" lon="5.59372">
        <ele>858</ele>
        <time>2019-06-04T08:54:30Z</time>
      </trkpt>
      <trkpt lat="44.17321" lon="5.59381">
        <ele>858</ele>
        <time>2019-06-04T08:54:31Z</time>
      </trkpt>
      <trkpt lat="44.17316" lon="5.59391">
        <ele>857</ele>
        <time>2019-06-04T08:54:32Z</time>
      </trkpt>
      <trkpt lat="44.1731" lon="5.594">
        <ele>857</ele>
        <time>2019-06-04T08:54:33Z</time>
      </trkpt>
      <trkpt lat="44.17305" lon="5.5941">
        <ele>857</ele>
        <time>2019-06-04T08:54:34Z</time>
      </trkpt>
      <trkpt lat="44.173" lon="5.5942">
        <ele>857</ele>
        <time>2019-06-04T08:54:35Z</time>
      </trkpt>
      <trkpt lat="44.17295" lon="5.5943">
        <ele>856</ele>
        <time>2019-06-04T08:54:36Z</time>
      </trkpt>
      <trkpt lat="44.1729" lon="5.5944">
        <ele>856</ele>
        <time>2019-06-04T08:54:37Z</time>
      </trkpt>
      <trkpt lat="44.17286" lon="5.59449">
        <ele>856</ele>
        <time>2019-06-04T08:54:38Z</time>
      </trkpt>
      <trkpt lat="44.17282" lon="5.59459">
        <ele>856</ele>
        <time>2019-06-04T08:54:39Z</time>
      </trkpt>
      <trkpt lat="44.17278" lon="5.5947">
        <ele>855</ele>
        <time>2019-06-04T08:54:40Z</time>
      </trkpt>
      <trkpt lat="44.17274" lon="5.5948">
        <ele>855</ele>
        <time>2019-06-04T08:54:41Z</time>
      </trkpt>
      <trkpt lat="44.17271" lon="5.5949">
        <ele>855</ele>
        <time>2019-06-04T08:54:42Z</time>
      </trkpt>
      <trkpt lat="44.17267" lon="5.595">
        <ele>855</ele>
        <time>2019-06-04T08:54:43Z</time>
      </trkpt>
      <trkpt lat="44.17264" lon="5.59511">
        <ele>855</ele>
        <time>2019-06-04T08:54:44Z</time>
      </trkpt>
      <trkpt lat="44.1726" lon="5.5952">
        <ele>855</ele>
        <time>2019-06-04T08:54:45Z</time>
      </trkpt>
      <trkpt lat="44.17255" lon="5.59529">
        <ele>854</ele>
        <time>2019-06-04T08:54:46Z</time>
      </trkpt>
      <trkpt lat="44.1725" lon="5.59538">
        <ele>854</ele>
        <time>2019-06-04T08:54:47Z</time>
      </trkpt>
      <trkpt lat="44.17245" lon="5.59546">
        <ele>854</ele>
        <time>2019-06-04T08:54:48Z</time>
      </trkpt>
      <trkpt lat="44.1724" lon="5.59554">
        <ele>854</ele>
        <time>2019-06-04T08:54:49Z</time>
      </trkpt>
      <trkpt lat="44.17235" lon="5.59563">
        <ele>854</ele>
        <time>2019-06-04T08:54:50Z</time>
      </trkpt>
      <trkpt lat="44.1723" lon="5.59571">
        <ele>854</ele>
        <time>2019-06-04T08:54:51Z</time>
      </trkpt>
      <trkpt lat="44.17225" lon="5.5958">
        <ele>854</ele>
        <time>2019-06-04T08:54:52Z</time>
      </trkpt>
      <trkpt lat="44.1722" lon="5.59588">
        <ele>854</ele>
        <time>2019-06-04T08:54:53Z</time>
      </trkpt>
      <trkpt lat="44.17214" lon="5.59596">
        <ele>853</ele>
        <time>2019-06-04T08:54:54Z</time>
      </trkpt>
      <trkpt lat="44.17209" lon="5.59605">
        <ele>853</ele>
        <time>2019-06-04T08:54:55Z</time>
      </trkpt>
      <trkpt lat="44.17204" lon="5.59613">
        <ele>852</ele>
        <time>2019-06-04T08:54:56Z</time>
      </trkpt>
      <trkpt lat="44.172" lon="5.59623">
        <ele>852</ele>
        <time>2019-06-04T08:54:57Z</time>
      </trkpt>
      <trkpt lat="44.17197" lon="5.59633">
        <ele>851</ele>
        <time>2019-06-04T08:54:58Z</time>
      </trkpt>
      <trkpt lat="44.17195" lon="5.59644">
        <ele>851</ele>
        <time>2019-06-04T08:54:59Z</time>
      </trkpt>
      <trkpt lat="44.17195" lon="5.59655">
        <ele>850</ele>
        <time>2019-06-04T08:55:00Z</time>
      </trkpt>
      <trkpt lat="44.17197" lon="5.59666">
        <ele>850</ele>
        <time>2019-06-04T08:55:01Z</time>
      </trkpt>
      <trkpt lat="44.17201" lon="5.59676">
        <ele>849</ele>
        <time>2019-06-04T08:55:02Z</time>
      </trkpt>
      <trkpt lat="44.17207" lon="5.59685">
        <ele>849</ele>
        <time>2019-06-04T08:55:03Z</time>
      </trkpt>
      <trkpt lat="44.17214" lon="5.59691">
        <ele>848</ele>
        <time>2019-06-04T08:55:04Z</time>
      </trkpt>
      <trkpt lat="44.17222" lon="5.59697">
        <ele>848</ele>
        <time>2019-06-04T08:55:05Z</time>
      </trkpt>
      <trkpt lat="44.17229" lon="5.59705">
        <ele>847</ele>
        <time>2019-06-04T08:55:06Z</time>
      </trkpt>
      <trkpt lat="44.17236" lon="5.59713">
        <ele>847</ele>
        <time>2019-06-04T08:55:07Z</time>
      </trkpt>
      <trkpt lat="44.17242" lon="5.59722">
        <ele>847</ele>
        <time>2019-06-04T08:55:08Z</time>
      </trkpt>
      <trkpt lat="44.17248" lon="5.59732">
        <ele>846</ele>
        <time>2019-06-04T08:55:09Z</time>
      </trkpt>
      <trkpt lat="44.17253" lon="5.59741">
        <ele>846</ele>
        <time>2019-06-04T08:55:10Z</time>
      </trkpt>
      <trkpt lat="44.17259" lon="5.5975">
        <ele>846</ele>
        <time>2019-06-04T08:55:11Z</time>
      </trkpt>
      <trkpt lat="44.17265" lon="5.59759">
        <ele>845</ele>
        <time>2019-06-04T08:55:12Z</time>
      </trkpt>
      <trkpt lat="44.17271" lon="5.59768">
        <ele>845</ele>
        <time>2019-06-04T08:55:13Z</time>
      </trkpt>
      <trkpt lat="44.17277" lon="5.59777">
        <ele>845</ele>
        <time>2019-06-04T08:55:14Z</time>
      </trkpt>
      <trkpt lat="44.17282" lon="5.59786">
        <ele>844</ele>
        <time>2019-06-04T08:55:15Z</time>
      </trkpt>
      <trkpt lat="44.17287" lon="5.59795">
        <ele>844</ele>
        <time>2019-06-04T08:55:16Z</time>
      </trkpt>
      <trkpt lat="44.17292" lon="5.59804">
        <ele>844</ele>
        <time>2019-06-04T08:55:17Z</time>
      </trkpt>
      <trkpt lat="44.17297" lon="5.59814">
        <ele>843</ele>
        <time>2019-06-04T08:55:18Z</time>
      </trkpt>
      <trkpt lat="44.17301" lon="5.59824">
        <ele>843</ele>
        <time>2019-06-04T08:55:19Z</time>
      </trkpt>
      <trkpt lat="44.17304" lon="5.59835">
        <ele>842</ele>
        <time>2019-06-04T08:55:20Z</time>
      </trkpt>
      <trkpt lat="44.17307" lon="5.59846">
        <ele>842</ele>
        <time>2019-06-04T08:55:21Z</time>
      </trkpt>
      <trkpt lat="44.17309" lon="5.59857">
        <ele>842</ele>
        <time>2019-06-04T08:55:22Z</time>
      </trkpt>
      <trkpt lat="44.1731" lon="5.59868">
        <ele>841</ele>
        <time>2019-06-04T08:55:23Z</time>
      </trkpt>
      <trkpt lat="44.17311" lon="5.5988">
        <ele>841</ele>
        <time>2019-06-04T08:55:24Z</time>
      </trkpt>
      <trkpt lat="44.17311" lon="5.59891">
        <ele>841</ele>
        <time>2019-06-04T08:55:25Z</time>
      </trkpt>
      <trkpt lat="44.17311" lon="5.59903">
        <ele>840</ele>
        <time>2019-06-04T08:55:26Z</time>
      </trkpt>
      <trkpt lat="44.17311" lon="5.59915">
        <ele>840</ele>
        <time>2019-06-04T08:55:27Z</time>
      </trkpt>
      <trkpt lat="44.17311" lon="5.59927">
        <ele>840</ele>
        <time>2019-06-04T08:55:28Z</time>
      </trkpt>
      <trkpt lat="44.17312" lon="5.59938">
        <ele>840</ele>
        <time>2019-06-04T08:55:29Z</time>
      </trkpt>
      <trkpt lat="44.17312" lon="5.5995">
        <ele>839</ele>
        <time>2019-06-04T08:55:30Z</time>
      </trkpt>
      <trkpt lat="44.17313" lon="5.59962">
        <ele>839</ele>
        <time>2019-06-04T08:55:31Z</time>
      </trkpt>
      <trkpt lat="44.17314" lon="5.59974">
        <ele>839</ele>
        <time>2019-06-04T08:55:32Z</time>
      </trkpt>
      <trkpt lat="44.17315" lon="5.59986">
        <ele>838</ele>
        <time>2019-06-04T08:55:33Z</time>
      </trkpt>
      <trkpt lat="44.17314" lon="5.59999">
        <ele>838</ele>
        <time>2019-06-04T08:55:34Z</time>
      </trkpt>
      <trkpt lat="44.17313" lon="5.60011">
        <ele>838</ele>
        <time>2019-06-04T08:55:35Z</time>
      </trkpt>
      <trkpt lat="44.17311" lon="5.60023">
        <ele>837</ele>
        <time>2019-06-04T08:55:36Z</time>
      </trkpt>
      <trkpt lat="44.17309" lon="5.60036">
        <ele>837</ele>
        <time>2019-06-04T08:55:37Z</time>
      </trkpt>
      <trkpt lat="44.17307" lon="5.60049">
        <ele>837</ele>
        <time>2019-06-04T08:55:38Z</time>
      </trkpt>
      <trkpt lat="44.17305" lon="5.60062">
        <ele>836</ele>
        <time>2019-06-04T08:55:39Z</time>
      </trkpt>
      <trkpt lat="44.17303" lon="5.60075">
        <ele>836</ele>
        <time>2019-06-04T08:55:40Z</time>
      </trkpt>
      <trkpt lat="44.17301" lon="5.60087">
        <ele>836</ele>
        <time>2019-06-04T08:55:41Z</time>
      </trkpt>
      <trkpt lat="44.17301" lon="5.60101">
        <ele>835</ele>
        <time>2019-06-04T08:55:42Z</time>
      </trkpt>
      <trkpt lat="44.17301" lon="5.60115">
        <ele>835</ele>
        <time>2019-06-04T08:55:43Z</time>
      </trkpt>
      <trkpt lat="44.17301" lon="5.60128">
        <ele>835</ele>
        <time>2019-06-04T08:55:44Z</time>
      </trkpt>
      <trkpt lat="44.17302" lon="5.60142">
        <ele>834</ele>
        <time>2019-06-04T08:55:45Z</time>
      </trkpt>
      <trkpt lat="44.17302" lon="5.60155">
        <ele>834</ele>
        <time>2019-06-04T08:55:46Z</time>
      </trkpt>
      <trkpt lat="44.17304" lon="5.60168">
        <ele>834</ele>
        <time>2019-06-04T08:55:47Z</time>
      </trkpt>
      <trkpt lat="44.17305" lon="5.60181">
        <ele>833</ele>
        <time>2019-06-04T08:55:48Z</time>
      </trkpt>
      <trkpt lat="44.17306" lon="5.60194">
        <ele>833</ele>
        <time>2019-06-04T08:55:49Z</time>
      </trkpt>
      <trkpt lat="44.17307" lon="5.60208">
        <ele>832</ele>
        <time>2019-06-04T08:55:50Z</time>
      </trkpt>
      <trkpt lat="44.17308" lon="5.60222">
        <ele>832</ele>
        <time>2019-06-04T08:55:51Z</time>
      </trkpt>
      <trkpt lat="44.17308" lon="5.60236">
        <ele>831</ele>
        <time>2019-06-04T08:55:52Z</time>
      </trkpt>
      <trkpt lat="44.17308" lon="5.6025">
        <ele>831</ele>
        <time>2019-06-04T08:55:53Z</time>
      </trkpt>
      <trkpt lat="44.17308" lon="5.60264">
        <ele>831</ele>
        <time>2019-06-04T08:55:54Z</time>
      </trkpt>
      <trkpt lat="44.17308" lon="5.60278">
        <ele>831</ele>
        <time>2019-06-04T08:55:55Z</time>
      </trkpt>
      <trkpt lat="44.17308" lon="5.60292">
        <ele>830</ele>
        <time>2019-06-04T08:55:56Z</time>
      </trkpt>
      <trkpt lat="44.17308" lon="5.60306">
        <ele>830</ele>
        <time>2019-06-04T08:55:57Z</time>
      </trkpt>
      <trkpt lat="44.17308" lon="5.60321">
        <ele>830</ele>
        <time>2019-06-04T08:55:58Z</time>
      </trkpt>
      <trkpt lat="44.17308" lon="5.60335">
        <ele>830</ele>
        <time>2019-06-04T08:55:59Z</time>
      </trkpt>
      <trkpt lat="44.17308" lon="5.60349">
        <ele>829</ele>
        <time>2019-06-04T08:56:00Z</time>
      </trkpt>
      <trkpt lat="44.17309" lon="5.60362">
        <ele>829</ele>
        <time>2019-06-04T08:56:01Z</time>
      </trkpt>
      <trkpt lat="44.17309" lon="5.60376">
        <ele>829</ele>
        <time>2019-06-04T08:56:02Z</time>
      </trkpt>
      <trkpt lat="44.17309" lon="5.6039">
        <ele>829</ele>
        <time>2019-06-04T08:56:03Z</time>
      </trkpt>
      <trkpt lat="44.17309" lon="5.60403">
        <ele>828</ele>
        <time>2019-06-04T08:56:04Z</time>
      </trkpt>
      <trkpt lat="44.1731" lon="5.60416">
        <ele>828</ele>
        <time>2019-06-04T08:56:05Z</time>
      </trkpt>
      <trkpt lat="44.1731" lon="5.60429">
        <ele>828</ele>
        <time>2019-06-04T08:56:06Z</time>
      </trkpt>
      <trkpt lat="44.17309" lon="5.60442">
        <ele>828</ele>
        <time>2019-06-04T08:56:07Z</time>
      </trkpt>
      <trkpt lat="44.17308" lon="5.60455">
        <ele>828</ele>
        <time>2019-06-04T08:56:08Z</time>
      </trkpt>
      <trkpt lat="44.17306" lon="5.60466">
        <ele>827</ele>
        <time>2019-06-04T08:56:09Z</time>
      </trkpt>
      <trkpt lat="44.17303" lon="5.60478">
        <ele>827</ele>
        <time>2019-06-04T08:56:10Z</time>
      </trkpt>
      <trkpt lat="44.173" lon="5.60489">
        <ele>827</ele>
        <time>2019-06-04T08:56:11Z</time>
      </trkpt>
      <trkpt lat="44.17297" lon="5.60499">
        <ele>827</ele>
        <time>2019-06-04T08:56:12Z</time>
      </trkpt>
      <trkpt lat="44.17293" lon="5.60509">
        <ele>827</ele>
        <time>2019-06-04T08:56:13Z</time>
      </trkpt>
      <trkpt lat="44.1729" lon="5.60519">
        <ele>827</ele>
        <time>2019-06-04T08:56:14Z</time>
      </trkpt>
      <trkpt lat="44.17287" lon="5.60529">
        <ele>826</ele>
        <time>2019-06-04T08:56:15Z</time>
      </trkpt>
      <trkpt lat="44.17283" lon="5.60538">
        <ele>826</ele>
        <time>2019-06-04T08:56:16Z</time>
      </trkpt>
      <trkpt lat="44.17279" lon="5.60547">
        <ele>826</ele>
        <time>2019-06-04T08:56:17Z</time>
      </trkpt>
      <trkpt lat="44.17276" lon="5.60558">
        <ele>826</ele>
        <time>2019-06-04T08:56:18Z</time>
      </trkpt>
      <trkpt lat="44.17272" lon="5.60568">
        <ele>826</ele>
        <time>2019-06-04T08:56:19Z</time>
      </trkpt>
      <trkpt lat="44.17268" lon="5.60578">
        <ele>826</ele>
        <time>2019-06-04T08:56:20Z</time>
      </trkpt>
      <trkpt lat="44.17265" lon="5.60588">
        <ele>826</ele>
        <time>2019-06-04T08:56:21Z</time>
      </trkpt>
      <trkpt lat="44.17261" lon="5.60599">
        <ele>826</ele>
        <time>2019-06-04T08:56:22Z</time>
      </trkpt>
      <trkpt lat="44.17258" lon="5.60609">
        <ele>825</ele>
        <time>2019-06-04T08:56:23Z</time>
      </trkpt>
      <trkpt lat="44.17254" lon="5.60619">
        <ele>825</ele>
        <time>2019-06-04T08:56:24Z</time>
      </trkpt>
      <trkpt lat="44.1725" lon="5.6063">
        <ele>825</ele>
        <time>2019-06-04T08:56:25Z</time>
      </trkpt>
      <trkpt lat="44.17247" lon="5.60641">
        <ele>825</ele>
        <time>2019-06-04T08:56:26Z</time>
      </trkpt>
      <trkpt lat="44.17243" lon="5.60652">
        <ele>825</ele>
        <time>2019-06-04T08:56:27Z</time>
      </trkpt>
      <trkpt lat="44.1724" lon="5.60663">
        <ele>825</ele>
        <time>2019-06-04T08:56:28Z</time>
      </trkpt>
      <trkpt lat="44.17237" lon="5.60674">
        <ele>825</ele>
        <time>2019-06-04T08:56:29Z</time>
      </trkpt>
      <trkpt lat="44.17233" lon="5.60685">
        <ele>825</ele>
        <time>2019-06-04T08:56:30Z</time>
      </trkpt>
      <trkpt lat="44.17229" lon="5.60695">
        <ele>825</ele>
        <time>2019-06-04T08:56:31Z</time>
      </trkpt>
      <trkpt lat="44.17226" lon="5.60705">
        <ele>825</ele>
        <time>2019-06-04T08:56:32Z</time>
      </trkpt>
      <trkpt lat="44.17223" lon="5.60715">
        <ele>825</ele>
        <time>2019-06-04T08:56:33Z</time>
      </trkpt>
      <trkpt lat="44.1722" lon="5.60725">
        <ele>825</ele>
        <time>2019-06-04T08:56:34Z</time>
      </trkpt>
      <trkpt lat="44.17216" lon="5.60735">
        <ele>825</ele>
        <time>2019-06-04T08:56:35Z</time>
      </trkpt>
      <trkpt lat="44.17213" lon="5.60745">
        <ele>825</ele>
        <time>2019-06-04T08:56:36Z</time>
      </trkpt>
      <trkpt lat="44.1721" lon="5.60755">
        <ele>824</ele>
        <time>2019-06-04T08:56:37Z</time>
      </trkpt>
      <trkpt lat="44.17207" lon="5.60765">
        <ele>824</ele>
        <time>2019-06-04T08:56:38Z</time>
      </trkpt>
      <trkpt lat="44.17203" lon="5.60774">
        <ele>824</ele>
        <time>2019-06-04T08:56:39Z</time>
      </trkpt>
      <trkpt lat="44.172" lon="5.60783">
        <ele>824</ele>
        <time>2019-06-04T08:56:40Z</time>
      </trkpt>
      <trkpt lat="44.17199" lon="5.60793">
        <ele>824</ele>
        <time>2019-06-04T08:56:41Z</time>
      </trkpt>
      <trkpt lat="44.17199" lon="5.60802">
        <ele>824</ele>
        <time>2019-06-04T08:56:42Z</time>
      </trkpt>
      <trkpt lat="44.17199" lon="5.60813">
        <ele>824</ele>
        <time>2019-06-04T08:56:43Z</time>
      </trkpt>
      <trkpt lat="44.17201" lon="5.60824">
        <ele>824</ele>
        <time>2019-06-04T08:56:44Z</time>
      </trkpt>
      <trkpt lat="44.17203" lon="5.60834">
        <ele>824</ele>
        <time>2019-06-04T08:56:45Z</time>
      </trkpt>
      <trkpt lat="44.17204" lon="5.60846">
        <ele>824</ele>
        <time>2019-06-04T08:56:46Z</time>
      </trkpt>
      <trkpt lat="44.17206" lon="5.60857">
        <ele>824</ele>
        <time>2019-06-04T08:56:47Z</time>
      </trkpt>
      <trkpt lat="44.17207" lon="5.60868">
        <ele>824</ele>
        <time>2019-06-04T08:56:48Z</time>
      </trkpt>
      <trkpt lat="44.17209" lon="5.60878">
        <ele>824</ele>
        <time>2019-06-04T08:56:49Z</time>
      </trkpt>
      <trkpt lat="44.17211" lon="5.60889">
        <ele>824</ele>
        <time>2019-06-04T08:56:50Z</time>
      </trkpt>
      <trkpt lat="44.17213" lon="5.60899">
        <ele>824</ele>
        <time>2019-06-04T08:56:51Z</time>
      </trkpt>
      <trkpt lat="44.17215" lon="5.60909">
        <ele>824</ele>
        <time>2019-06-04T08:56:52Z</time>
      </trkpt>
      <trkpt lat="44.17216" lon="5.60919">
        <ele>824</ele>
        <time>2019-06-04T08:56:53Z</time>
      </trkpt>
      <trkpt lat="44.17218" lon="5.60928">
        <ele>824</ele>
        <time>2019-06-04T08:56:54Z</time>
      </trkpt>
      <trkpt lat="44.17219" lon="5.60939">
        <ele>823</ele>
        <time>2019-06-04T08:56:55Z</time>
      </trkpt>
      <trkpt lat="44.17221" lon="5.6095">
        <ele>823</ele>
        <time>2019-06-04T08:56:56Z</time>
      </trkpt>
      <trkpt lat="44.17223" lon="5.60961">
        <ele>822</ele>
        <time>2019-06-04T08:56:57Z</time>
      </trkpt>
      <trkpt lat="44.17225" lon="5.60972">
        <ele>822</ele>
        <time>2019-06-04T08:56:58Z</time>
      </trkpt>
      <trkpt lat="44.17226" lon="5.60983">
        <ele>821</ele>
        <time>2019-06-04T08:56:59Z</time>
      </trkpt>
      <trkpt lat="44.17227" lon="5.60994">
        <ele>821</ele>
        <time>2019-06-04T08:57:00Z</time>
      </trkpt>
      <trkpt lat="44.17229" lon="5.61005">
        <ele>821</ele>
        <time>2019-06-04T08:57:01Z</time>
      </trkpt>
      <trkpt lat="44.1723" lon="5.61016">
        <ele>820</ele>
        <time>2019-06-04T08:57:02Z</time>
      </trkpt>
      <trkpt lat="44.17231" lon="5.61026">
        <ele>820</ele>
        <time>2019-06-04T08:57:03Z</time>
      </trkpt>
      <trkpt lat="44.17233" lon="5.61037">
        <ele>820</ele>
        <time>2019-06-04T08:57:04Z</time>
      </trkpt>
      <trkpt lat="44.17235" lon="5.61048">
        <ele>819</ele>
        <time>2019-06-04T08:57:05Z</time>
      </trkpt>
      <trkpt lat="44.17236" lon="5.61058">
        <ele>819</ele>
        <time>2019-06-04T08:57:06Z</time>
      </trkpt>
      <trkpt lat="44.17238" lon="5.61068">
        <ele>819</ele>
        <time>2019-06-04T08:57:07Z</time>
      </trkpt>
      <trkpt lat="44.1724" lon="5.61079">
        <ele>818</ele>
        <time>2019-06-04T08:57:08Z</time>
      </trkpt>
      <trkpt lat="44.17241" lon="5.61089">
        <ele>818</ele>
        <time>2019-06-04T08:57:09Z</time>
      </trkpt>
      <trkpt lat="44.17243" lon="5.611">
        <ele>818</ele>
        <time>2019-06-04T08:57:10Z</time>
      </trkpt>
      <trkpt lat="44.17245" lon="5.6111">
        <ele>818</ele>
        <time>2019-06-04T08:57:11Z</time>
      </trkpt>
      <trkpt lat="44.17246" lon="5.61121">
        <ele>818</ele>
        <time>2019-06-04T08:57:12Z</time>
      </trkpt>
      <trkpt lat="44.17248" lon="5.61131">
        <ele>818</ele>
        <time>2019-06-04T08:57:13Z</time>
      </trkpt>
      <trkpt lat="44.1725" lon="5.61142">
        <ele>818</ele>
        <time>2019-06-04T08:57:14Z</time>
      </trkpt>
      <trkpt lat="44.17252" lon="5.61152">
        <ele>818</ele>
        <time>2019-06-04T08:57:15Z</time>
      </trkpt>
      <trkpt lat="44.17253" lon="5.61163">
        <ele>818</ele>
        <time>2019-06-04T08:57:16Z</time>
      </trkpt>
      <trkpt lat="44.17255" lon="5.61173">
        <ele>818</ele>
        <time>2019-06-04T08:57:17Z</time>
      </trkpt>
      <trkpt lat="44.17256" lon="5.61184">
        <ele>818</ele>
        <time>2019-06-04T08:57:18Z</time>
      </trkpt>
      <trkpt lat="44.17257" lon="5.61194">
        <ele>818</ele>
        <time>2019-06-04T08:57:19Z</time>
      </trkpt>
      <trkpt lat="44.17258" lon="5.61205">
        <ele>818</ele>
        <time>2019-06-04T08:57:20Z</time>
      </trkpt>
      <trkpt lat="44.1726" lon="5.61215">
        <ele>817</ele>
        <time>2019-06-04T08:57:21Z</time>
      </trkpt>
      <trkpt lat="44.17261" lon="5.61226">
        <ele>817</ele>
        <time>2019-06-04T08:57:22Z</time>
      </trkpt>
      <trkpt lat="44.17263" lon="5.61236">
        <ele>817</ele>
        <time>2019-06-04T08:57:23Z</time>
      </trkpt>
      <trkpt lat="44.17264" lon="5.61246">
        <ele>817</ele>
        <time>2019-06-04T08:57:24Z</time>
      </trkpt>
      <trkpt lat="44.17265" lon="5.61256">
        <ele>817</ele>
        <time>2019-06-04T08:57:25Z</time>
      </trkpt>
      <trkpt lat="44.17266" lon="5.61267">
        <ele>817</ele>
        <time>2019-06-04T08:57:26Z</time>
      </trkpt>
      <trkpt lat="44.17268" lon="5.61277">
        <ele>816</ele>
        <time>2019-06-04T08:57:27Z</time>
      </trkpt>
      <trkpt lat="44.17269" lon="5.61288">
        <ele>816</ele>
        <time>2019-06-04T08:57:28Z</time>
      </trkpt>
      <trkpt lat="44.17271" lon="5.61299">
        <ele>816</ele>
        <time>2019-06-04T08:57:29Z</time>
      </trkpt>
      <trkpt lat="44.17272" lon="5.6131">
        <ele>816</ele>
        <time>2019-06-04T08:57:30Z</time>
      </trkpt>
      <trkpt lat="44.17273" lon="5.6132">
        <ele>816</ele>
        <time>2019-06-04T08:57:31Z</time>
      </trkpt>
      <trkpt lat="44.17274" lon="5.61332">
        <ele>815</ele>
        <time>2019-06-04T08:57:32Z</time>
      </trkpt>
      <trkpt lat="44.17275" lon="5.61342">
        <ele>815</ele>
        <time>2019-06-04T08:57:33Z</time>
      </trkpt>
      <trkpt lat="44.17275" lon="5.61353">
        <ele>815</ele>
        <time>2019-06-04T08:57:34Z</time>
      </trkpt>
      <trkpt lat="44.17274" lon="5.61364">
        <ele>815</ele>
        <time>2019-06-04T08:57:35Z</time>
      </trkpt>
      <trkpt lat="44.17272" lon="5.61375">
        <ele>815</ele>
        <time>2019-06-04T08:57:36Z</time>
      </trkpt>
      <trkpt lat="44.17271" lon="5.61386">
        <ele>814</ele>
        <time>2019-06-04T08:57:37Z</time>
      </trkpt>
      <trkpt lat="44.17268" lon="5.61396">
        <ele>814</ele>
        <time>2019-06-04T08:57:38Z</time>
      </trkpt>
      <trkpt lat="44.17266" lon="5.61407">
        <ele>814</ele>
        <time>2019-06-04T08:57:39Z</time>
      </trkpt>
      <trkpt lat="44.17263" lon="5.61417">
        <ele>814</ele>
        <time>2019-06-04T08:57:40Z</time>
      </trkpt>
      <trkpt lat="44.1726" lon="5.61427">
        <ele>813</ele>
        <time>2019-06-04T08:57:41Z</time>
      </trkpt>
      <trkpt lat="44.17257" lon="5.61437">
        <ele>813</ele>
        <time>2019-06-04T08:57:42Z</time>
      </trkpt>
      <trkpt lat="44.17255" lon="5.61448">
        <ele>813</ele>
        <time>2019-06-04T08:57:43Z</time>
      </trkpt>
      <trkpt lat="44.17252" lon="5.61458">
        <ele>813</ele>
        <time>2019-06-04T08:57:44Z</time>
      </trkpt>
      <trkpt lat="44.17251" lon="5.6147">
        <ele>813</ele>
        <time>2019-06-04T08:57:45Z</time>
      </trkpt>
      <trkpt lat="44.1725" lon="5.61481">
        <ele>813</ele>
        <time>2019-06-04T08:57:46Z</time>
      </trkpt>
      <trkpt lat="44.1725" lon="5.61492">
        <ele>813</ele>
        <time>2019-06-04T08:57:47Z</time>
      </trkpt>
      <trkpt lat="44.17252" lon="5.61502">
        <ele>813</ele>
        <time>2019-06-04T08:57:48Z</time>
      </trkpt>
      <trkpt lat="44.17255" lon="5.61513">
        <ele>813</ele>
        <time>2019-06-04T08:57:49Z</time>
      </trkpt>
      <trkpt lat="44.17257" lon="5.61523">
        <ele>813</ele>
        <time>2019-06-04T08:57:50Z</time>
      </trkpt>
      <trkpt lat="44.17259" lon="5.61535">
        <ele>813</ele>
        <time>2019-06-04T08:57:51Z</time>
      </trkpt>
      <trkpt lat="44.17262" lon="5.61546">
        <ele>813</ele>
        <time>2019-06-04T08:57:52Z</time>
      </trkpt>
      <trkpt lat="44.17265" lon="5.61556">
        <ele>812</ele>
        <time>2019-06-04T08:57:53Z</time>
      </trkpt>
      <trkpt lat="44.17268" lon="5.61567">
        <ele>812</ele>
        <time>2019-06-04T08:57:54Z</time>
      </trkpt>
      <trkpt lat="44.1727" lon="5.61578">
        <ele>812</ele>
        <time>2019-06-04T08:57:55Z</time>
      </trkpt>
      <trkpt lat="44.17273" lon="5.61589">
        <ele>812</ele>
        <time>2019-06-04T08:57:56Z</time>
      </trkpt>
      <trkpt lat="44.17275" lon="5.616">
        <ele>811</ele>
        <time>2019-06-04T08:57:57Z</time>
      </trkpt>
      <trkpt lat="44.17277" lon="5.61611">
        <ele>811</ele>
        <time>2019-06-04T08:57:58Z</time>
      </trkpt>
      <trkpt lat="44.17279" lon="5.61622">
        <ele>811</ele>
        <time>2019-06-04T08:57:59Z</time>
      </trkpt>
      <trkpt lat="44.17281" lon="5.61633">
        <ele>810</ele>
        <time>2019-06-04T08:58:00Z</time>
      </trkpt>
      <trkpt lat="44.17284" lon="5.61644">
        <ele>810</ele>
        <time>2019-06-04T08:58:01Z</time>
      </trkpt>
      <trkpt lat="44.17286" lon="5.61655">
        <ele>809</ele>
        <time>2019-06-04T08:58:02Z</time>
      </trkpt>
      <trkpt lat="44.17288" lon="5.61666">
        <ele>809</ele>
        <time>2019-06-04T08:58:03Z</time>
      </trkpt>
      <trkpt lat="44.1729" lon="5.61677">
        <ele>809</ele>
        <time>2019-06-04T08:58:04Z</time>
      </trkpt>
      <trkpt lat="44.17291" lon="5.61689">
        <ele>808</ele>
        <time>2019-06-04T08:58:05Z</time>
      </trkpt>
      <trkpt lat="44.17292" lon="5.617">
        <ele>808</ele>
        <time>2019-06-04T08:58:06Z</time>
      </trkpt>
      <trkpt lat="44.17293" lon="5.61713">
        <ele>807</ele>
        <time>2019-06-04T08:58:07Z</time>
      </trkpt>
      <trkpt lat="44.17293" lon="5.61725">
        <ele>806</ele>
        <time>2019-06-04T08:58:08Z</time>
      </trkpt>
      <trkpt lat="44.17294" lon="5.61737">
        <ele>806</ele>
        <time>2019-06-04T08:58:09Z</time>
      </trkpt>
      <trkpt lat="44.17296" lon="5.6175">
        <ele>806</ele>
        <time>2019-06-04T08:58:10Z</time>
      </trkpt>
      <trkpt lat="44.17298" lon="5.61762">
        <ele>806</ele>
        <time>2019-06-04T08:58:11Z</time>
      </trkpt>
      <trkpt lat="44.173" lon="5.61774">
        <ele>805</ele>
        <time>2019-06-04T08:58:12Z</time>
      </trkpt>
      <trkpt lat="44.17303" lon="5.61787">
        <ele>805</ele>
        <time>2019-06-04T08:58:13Z</time>
      </trkpt>
      <trkpt lat="44.17305" lon="5.618">
        <ele>805</ele>
        <time>2019-06-04T08:58:14Z</time>
      </trkpt>
      <trkpt lat="44.17306" lon="5.61813">
        <ele>805</ele>
        <time>2019-06-04T08:58:15Z</time>
      </trkpt>
      <trkpt lat="44.17306" lon="5.61826">
        <ele>804</ele>
        <time>2019-06-04T08:58:16Z</time>
      </trkpt>
      <trkpt lat="44.17306" lon="5.61839">
        <ele>804</ele>
        <time>2019-06-04T08:58:17Z</time>
      </trkpt>
      <trkpt lat="44.17305" lon="5.61852">
        <ele>803</ele>
        <time>2019-06-04T08:58:18Z</time>
      </trkpt>
      <trkpt lat="44.17304" lon="5.61864">
        <ele>803</ele>
        <time>2019-06-04T08:58:19Z</time>
      </trkpt>
      <trkpt lat="44.17303" lon="5.61877">
        <ele>802</ele>
        <time>2019-06-04T08:58:20Z</time>
      </trkpt>
      <trkpt lat="44.17302" lon="5.6189">
        <ele>802</ele>
        <time>2019-06-04T08:58:21Z</time>
      </trkpt>
      <trkpt lat="44.17301" lon="5.61902">
        <ele>802</ele>
        <time>2019-06-04T08:58:22Z</time>
      </trkpt>
      <trkpt lat="44.173" lon="5.61915">
        <ele>801</ele>
        <time>2019-06-04T08:58:23Z</time>
      </trkpt>
      <trkpt lat="44.17299" lon="5.61927">
        <ele>801</ele>
        <time>2019-06-04T08:58:24Z</time>
      </trkpt>
      <trkpt lat="44.17298" lon="5.6194">
        <ele>801</ele>
        <time>2019-06-04T08:58:25Z</time>
      </trkpt>
      <trkpt lat="44.17297" lon="5.61952">
        <ele>801</ele>
        <time>2019-06-04T08:58:26Z</time>
      </trkpt>
      <trkpt lat="44.17296" lon="5.61964">
        <ele>800</ele>
        <time>2019-06-04T08:58:27Z</time>
      </trkpt>
      <trkpt lat="44.17295" lon="5.61977">
        <ele>800</ele>
        <time>2019-06-04T08:58:28Z</time>
      </trkpt>
      <trkpt lat="44.17295" lon="5.61989">
        <ele>800</ele>
        <time>2019-06-04T08:58:29Z</time>
      </trkpt>
      <trkpt lat="44.17294" lon="5.62002">
        <ele>799</ele>
        <time>2019-06-04T08:58:30Z</time>
      </trkpt>
      <trkpt lat="44.17293" lon="5.62014">
        <ele>799</ele>
        <time>2019-06-04T08:58:31Z</time>
      </trkpt>
      <trkpt lat="44.17293" lon="5.62027">
        <ele>799</ele>
        <time>2019-06-04T08:58:32Z</time>
      </trkpt>
      <trkpt lat="44.17292" lon="5.62039">
        <ele>799</ele>
        <time>2019-06-04T08:58:33Z</time>
      </trkpt>
      <trkpt lat="44.17292" lon="5.62051">
        <ele>799</ele>
        <time>2019-06-04T08:58:34Z</time>
      </trkpt>
      <trkpt lat="44.17292" lon="5.62063">
        <ele>799</ele>
        <time>2019-06-04T08:58:35Z</time>
      </trkpt>
      <trkpt lat="44.17293" lon="5.62076">
        <ele>799</ele>
        <time>2019-06-04T08:58:36Z</time>
      </trkpt>
      <trkpt lat="44.17293" lon="5.62087">
        <ele>798</ele>
        <time>2019-06-04T08:58:37Z</time>
      </trkpt>
      <trkpt lat="44.17294" lon="5.621">
        <ele>798</ele>
        <time>2019-06-04T08:58:38Z</time>
      </trkpt>
      <trkpt lat="44.17294" lon="5.62112">
        <ele>798</ele>
        <time>2019-06-04T08:58:39Z</time>
      </trkpt>
      <trkpt lat="44.17295" lon="5.62124">
        <ele>798</ele>
        <time>2019-06-04T08:58:40Z</time>
      </trkpt>
      <trkpt lat="44.17295" lon="5.62137">
        <ele>797</ele>
        <time>2019-06-04T08:58:41Z</time>
      </trkpt>
      <trkpt lat="44.17296" lon="5.62149">
        <ele>797</ele>
        <time>2019-06-04T08:58:42Z</time>
      </trkpt>
      <trkpt lat="44.17296" lon="5.62162">
        <ele>797</ele>
        <time>2019-06-04T08:58:43Z</time>
      </trkpt>
      <trkpt lat="44.17297" lon="5.62175">
        <ele>797</ele>
        <time>2019-06-04T08:58:44Z</time>
      </trkpt>
      <trkpt lat="44.17297" lon="5.62187">
        <ele>797</ele>
        <time>2019-06-04T08:58:45Z</time>
      </trkpt>
      <trkpt lat="44.17298" lon="5.62199">
        <ele>797</ele>
        <time>2019-06-04T08:58:46Z</time>
      </trkpt>
      <trkpt lat="44.17299" lon="5.62212">
        <ele>796</ele>
        <time>2019-06-04T08:58:47Z</time>
      </trkpt>
      <trkpt lat="44.173" lon="5.62224">
        <ele>796</ele>
        <time>2019-06-04T08:58:48Z</time>
      </trkpt>
      <trkpt lat="44.17301" lon="5.62236">
        <ele>796</ele>
        <time>2019-06-04T08:58:49Z</time>
      </trkpt>
      <trkpt lat="44.17302" lon="5.62248">
        <ele>796</ele>
        <time>2019-06-04T08:58:50Z</time>
      </trkpt>
      <trkpt lat="44.17303" lon="5.6226">
        <ele>796</ele>
        <time>2019-06-04T08:58:51Z</time>
      </trkpt>
      <trkpt lat="44.17304" lon="5.62272">
        <ele>796</ele>
        <time>2019-06-04T08:58:52Z</time>
      </trkpt>
      <trkpt lat="44.17305" lon="5.62284">
        <ele>796</ele>
        <time>2019-06-04T08:58:53Z</time>
      </trkpt>
      <trkpt lat="44.17306" lon="5.62295">
        <ele>796</ele>
        <time>2019-06-04T08:58:54Z</time>
      </trkpt>
      <trkpt lat="44.17308" lon="5.62307">
        <ele>796</ele>
        <time>2019-06-04T08:58:55Z</time>
      </trkpt>
      <trkpt lat="44.17309" lon="5.62318">
        <ele>796</ele>
        <time>2019-06-04T08:58:56Z</time>
      </trkpt>
      <trkpt lat="44.1731" lon="5.62329">
        <ele>795</ele>
        <time>2019-06-04T08:58:57Z</time>
      </trkpt>
      <trkpt lat="44.17311" lon="5.62341">
        <ele>795</ele>
        <time>2019-06-04T08:58:58Z</time>
      </trkpt>
      <trkpt lat="44.17313" lon="5.62352">
        <ele>795</ele>
        <time>2019-06-04T08:58:59Z</time>
      </trkpt>
      <trkpt lat="44.17314" lon="5.62363">
        <ele>795</ele>
        <time>2019-06-04T08:59:00Z</time>
      </trkpt>
      <trkpt lat="44.17315" lon="5.62374">
        <ele>795</ele>
        <time>2019-06-04T08:59:01Z</time>
      </trkpt>
      <trkpt lat="44.17316" lon="5.62385">
        <ele>795</ele>
        <time>2019-06-04T08:59:02Z</time>
      </trkpt>
      <trkpt lat="44.17318" lon="5.62396">
        <ele>795</ele>
        <time>2019-06-04T08:59:03Z</time>
      </trkpt>
      <trkpt lat="44.17319" lon="5.62407">
        <ele>795</ele>
        <time>2019-06-04T08:59:04Z</time>
      </trkpt>
      <trkpt lat="44.1732" lon="5.62418">
        <ele>795</ele>
        <time>2019-06-04T08:59:05Z</time>
      </trkpt>
      <trkpt lat="44.17321" lon="5.62429">
        <ele>795</ele>
        <time>2019-06-04T08:59:06Z</time>
      </trkpt>
      <trkpt lat="44.17323" lon="5.6244">
        <ele>795</ele>
        <time>2019-06-04T08:59:07Z</time>
      </trkpt>
      <trkpt lat="44.17324" lon="5.6245">
        <ele>794</ele>
        <time>2019-06-04T08:59:08Z</time>
      </trkpt>
      <trkpt lat="44.17325" lon="5.62461">
        <ele>794</ele>
        <time>2019-06-04T08:59:09Z</time>
      </trkpt>
      <trkpt lat="44.17325" lon="5.62471">
        <ele>794</ele>
        <time>2019-06-04T08:59:10Z</time>
      </trkpt>
      <trkpt lat="44.17325" lon="5.62482">
        <ele>794</ele>
        <time>2019-06-04T08:59:11Z</time>
      </trkpt>
      <trkpt lat="44.17325" lon="5.62493">
        <ele>794</ele>
        <time>2019-06-04T08:59:12Z</time>
      </trkpt>
      <trkpt lat="44.17323" lon="5.62503">
        <ele>794</ele>
        <time>2019-06-04T08:59:13Z</time>
      </trkpt>
      <trkpt lat="44.1732" lon="5.62512">
        <ele>794</ele>
        <time>2019-06-04T08:59:14Z</time>
      </trkpt>
      <trkpt lat="44.17316" lon="5.62521">
        <ele>794</ele>
        <time>2019-06-04T08:59:15Z</time>
      </trkpt>
      <trkpt lat="44.17311" lon="5.62529">
        <ele>794</ele>
        <time>2019-06-04T08:59:16Z</time>
      </trkpt>
      <trkpt lat="44.17306" lon="5.62535">
        <ele>794</ele>
        <time>2019-06-04T08:59:17Z</time>
      </trkpt>
      <trkpt lat="44.173" lon="5.62541">
        <ele>794</ele>
        <time>2019-06-04T08:59:18Z</time>
      </trkpt>
      <trkpt lat="44.17295" lon="5.62546">
        <ele>794</ele>
        <time>2019-06-04T08:59:19Z</time>
      </trkpt>
      <trkpt lat="44.17289" lon="5.62552">
        <ele>794</ele>
        <time>2019-06-04T08:59:20Z</time>
      </trkpt>
      <trkpt lat="44.17283" lon="5.62558">
        <ele>794</ele>
        <time>2019-06-04T08:59:21Z</time>
      </trkpt>
      <trkpt lat="44.17278" lon="5.62564">
        <ele>794</ele>
        <time>2019-06-04T08:59:22Z</time>
      </trkpt>
      <trkpt lat="44.17273" lon="5.6257">
        <ele>794</ele>
        <time>2019-06-04T08:59:23Z</time>
      </trkpt>
      <trkpt lat="44.17269" lon="5.62578">
        <ele>794</ele>
        <time>2019-06-04T08:59:24Z</time>
      </trkpt>
      <trkpt lat="44.17266" lon="5.62587">
        <ele>794</ele>
        <time>2019-06-04T08:59:25Z</time>
      </trkpt>
      <trkpt lat="44.17264" lon="5.62596">
        <ele>794</ele>
        <time>2019-06-04T08:59:26Z</time>
      </trkpt>
      <trkpt lat="44.17263" lon="5.62605">
        <ele>793</ele>
        <time>2019-06-04T08:59:27Z</time>
      </trkpt>
      <trkpt lat="44.17261" lon="5.62614">
        <ele>793</ele>
        <time>2019-06-04T08:59:28Z</time>
      </trkpt>
      <trkpt lat="44.1726" lon="5.62623">
        <ele>793</ele>
        <time>2019-06-04T08:59:29Z</time>
      </trkpt>
      <trkpt lat="44.17259" lon="5.62632">
        <ele>793</ele>
        <time>2019-06-04T08:59:30Z</time>
      </trkpt>
      <trkpt lat="44.17258" lon="5.62641">
        <ele>793</ele>
        <time>2019-06-04T08:59:31Z</time>
      </trkpt>
      <trkpt lat="44.17257" lon="5.62651">
        <ele>793</ele>
        <time>2019-06-04T08:59:32Z</time>
      </trkpt>
      <trkpt lat="44.17257" lon="5.6266">
        <ele>793</ele>
        <time>2019-06-04T08:59:33Z</time>
      </trkpt>
      <trkpt lat="44.17257" lon="5.62669">
        <ele>793</ele>
        <time>2019-06-04T08:59:34Z</time>
      </trkpt>
      <trkpt lat="44.17257" lon="5.62679">
        <ele>793</ele>
        <time>2019-06-04T08:59:35Z</time>
      </trkpt>
      <trkpt lat="44.17258" lon="5.62689">
        <ele>793</ele>
        <time>2019-06-04T08:59:36Z</time>
      </trkpt>
      <trkpt lat="44.1726" lon="5.62698">
        <ele>793</ele>
        <time>2019-06-04T08:59:37Z</time>
      </trkpt>
      <trkpt lat="44.17261" lon="5.62708">
        <ele>793</ele>
        <time>2019-06-04T08:59:38Z</time>
      </trkpt>
      <trkpt lat="44.17263" lon="5.62718">
        <ele>793</ele>
        <time>2019-06-04T08:59:39Z</time>
      </trkpt>
      <trkpt lat="44.17265" lon="5.62727">
        <ele>793</ele>
        <time>2019-06-04T08:59:40Z</time>
      </trkpt>
      <trkpt lat="44.17267" lon="5.62737">
        <ele>793</ele>
        <time>2019-06-04T08:59:41Z</time>
      </trkpt>
      <trkpt lat="44.17268" lon="5.62747">
        <ele>793</ele>
        <time>2019-06-04T08:59:42Z</time>
      </trkpt>
      <trkpt lat="44.1727" lon="5.62757">
        <ele>793</ele>
        <time>2019-06-04T08:59:43Z</time>
      </trkpt>
      <trkpt lat="44.17271" lon="5.62767">
        <ele>793</ele>
        <time>2019-06-04T08:59:44Z</time>
      </trkpt>
      <trkpt lat="44.17271" lon="5.62777">
        <ele>793</ele>
        <time>2019-06-04T08:59:45Z</time>
      </trkpt>
      <trkpt lat="44.17271" lon="5.62787">
        <ele>793</ele>
        <time>2019-06-04T08:59:46Z</time>
      </trkpt>
      <trkpt lat="44.1727" lon="5.62797">
        <ele>793</ele>
        <time>2019-06-04T08:59:47Z</time>
      </trkpt>
      <trkpt lat="44.17268" lon="5.62806">
        <ele>793</ele>
        <time>2019-06-04T08:59:48Z</time>
      </trkpt>
      <trkpt lat="44.17265" lon="5.62815">
        <ele>793</ele>
        <time>2019-06-04T08:59:49Z</time>
      </trkpt>
      <trkpt lat="44.17262" lon="5.62823">
        <ele>793</ele>
        <time>2019-06-04T08:59:50Z</time>
      </trkpt>
      <trkpt lat="44.17258" lon="5.62831">
        <ele>793</ele>
        <time>2019-06-04T08:59:51Z</time>
      </trkpt>
      <trkpt lat="44.17255" lon="5.62839">
        <ele>793</ele>
        <time>2019-06-04T08:59:52Z</time>
      </trkpt>
      <trkpt lat="44.17252" lon="5.62847">
        <ele>793</ele>
        <time>2019-06-04T08:59:53Z</time>
      </trkpt>
      <trkpt lat="44.17249" lon="5.62855">
        <ele>793</ele>
        <time>2019-06-04T08:59:54Z</time>
      </trkpt>
      <trkpt lat="44.17247" lon="5.62864">
        <ele>793</ele>
        <time>2019-06-04T08:59:55Z</time>
      </trkpt>
      <trkpt lat="44.17245" lon="5.62874">
        <ele>793</ele>
        <time>2019-06-04T08:59:56Z</time>
      </trkpt>
      <trkpt lat="44.17243" lon="5.62883">
        <ele>793</ele>
        <time>2019-06-04T08:59:57Z</time>
      </trkpt>
      <trkpt lat="44.17242" lon="5.62892">
        <ele>793</ele>
        <time>2019-06-04T08:59:58Z</time>
      </trkpt>
      <trkpt lat="44.17242" lon="5.62901">
        <ele>793</ele>
        <time>2019-06-04T08:59:59Z</time>
      </trkpt>
      <trkpt lat="44.17242" lon="5.62911">
        <ele>793</ele>
        <time>2019-06-04T09:00:00Z</time>
      </trkpt>
      <trkpt lat="44.17242" lon="5.6292">
        <ele>793</ele>
        <time>2019-06-04T09:00:01Z</time>
      </trkpt>
      <trkpt lat="44.17243" lon="5.62929">
        <ele>793</ele>
        <time>2019-06-04T09:00:02Z</time>
      </trkpt>
      <trkpt lat="44.17243" lon="5.62939">
        <ele>793</ele>
        <time>2019-06-04T09:00:03Z</time>
      </trkpt>
      <trkpt lat="44.17244" lon="5.62948">
        <ele>793</ele>
        <time>2019-06-04T09:00:04Z</time>
      </trkpt>
      <trkpt lat="44.17243" lon="5.62958">
        <ele>793</ele>
        <time>2019-06-04T09:00:05Z</time>
      </trkpt>
      <trkpt lat="44.17242" lon="5.62968">
        <ele>793</ele>
        <time>2019-06-04T09:00:06Z</time>
      </trkpt>
      <trkpt lat="44.1724" lon="5.62977">
        <ele>793</ele>
        <time>2019-06-04T09:00:07Z</time>
      </trkpt>
      <trkpt lat="44.17238" lon="5.62986">
        <ele>793</ele>
        <time>2019-06-04T09:00:08Z</time>
      </trkpt>
      <trkpt lat="44.17235" lon="5.62995">
        <ele>793</ele>
        <time>2019-06-04T09:00:09Z</time>
      </trkpt>
      <trkpt lat="44.17232" lon="5.63004">
        <ele>793</ele>
        <time>2019-06-04T09:00:10Z</time>
      </trkpt>
      <trkpt lat="44.17228" lon="5.63013">
        <ele>793</ele>
        <time>2019-06-04T09:00:11Z</time>
      </trkpt>
      <trkpt lat="44.17225" lon="5.63022">
        <ele>793</ele>
        <time>2019-06-04T09:00:12Z</time>
      </trkpt>
      <trkpt lat="44.17221" lon="5.6303">
        <ele>793</ele>
        <time>2019-06-04T09:00:13Z</time>
      </trkpt>
      <trkpt lat="44.17218" lon="5.63039">
        <ele>793</ele>
        <time>2019-06-04T09:00:14Z</time>
      </trkpt>
      <trkpt lat="44.17214" lon="5.63048">
        <ele>793</ele>
        <time>2019-06-04T09:00:15Z</time>
      </trkpt>
      <trkpt lat="44.1721" lon="5.63056">
        <ele>793</ele>
        <time>2019-06-04T09:00:16Z</time>
      </trkpt>
      <trkpt lat="44.17207" lon="5.63065">
        <ele>793</ele>
        <time>2019-06-04T09:00:17Z</time>
      </trkpt>
      <trkpt lat="44.17203" lon="5.63073">
        <ele>793</ele>
        <time>2019-06-04T09:00:18Z</time>
      </trkpt>
      <trkpt lat="44.172" lon="5.63082">
        <ele>793</ele>
        <time>2019-06-04T09:00:19Z</time>
      </trkpt>
      <trkpt lat="44.17196" lon="5.63091">
        <ele>793</ele>
        <time>2019-06-04T09:00:20Z</time>
      </trkpt>
      <trkpt lat="44.17193" lon="5.63099">
        <ele>793</ele>
        <time>2019-06-04T09:00:21Z</time>
      </trkpt>
      <trkpt lat="44.1719" lon="5.63108">
        <ele>793</ele>
        <time>2019-06-04T09:00:22Z</time>
      </trkpt>
      <trkpt lat="44.17188" lon="5.63117">
        <ele>793</ele>
        <time>2019-06-04T09:00:23Z</time>
      </trkpt>
      <trkpt lat="44.17186" lon="5.63127">
        <ele>793</ele>
        <time>2019-06-04T09:00:24Z</time>
      </trkpt>
      <trkpt lat="44.17185" lon="5.63136">
        <ele>793</ele>
        <time>2019-06-04T09:00:25Z</time>
      </trkpt>
      <trkpt lat="44.17184" lon="5.63146">
        <ele>793</ele>
        <time>2019-06-04T09:00:26Z</time>
      </trkpt>
      <trkpt lat="44.17186" lon="5.63156">
        <ele>793</ele>
        <time>2019-06-04T09:00:27Z</time>
      </trkpt>
      <trkpt lat="44.17188" lon="5.63165">
        <ele>793</ele>
        <time>2019-06-04T09:00:28Z</time>
      </trkpt>
      <trkpt lat="44.17191" lon="5.63173">
        <ele>793</ele>
        <time>2019-06-04T09:00:29Z</time>
      </trkpt>
      <trkpt lat="44.17196" lon="5.6318">
        <ele>793</ele>
        <time>2019-06-04T09:00:30Z</time>
      </trkpt>
      <trkpt lat="44.172" lon="5.63188">
        <ele>793</ele>
        <time>2019-06-04T09:00:31Z</time>
      </trkpt>
      <trkpt lat="44.17205" lon="5.63196">
        <ele>793</ele>
        <time>2019-06-04T09:00:32Z</time>
      </trkpt>
      <trkpt lat="44.17208" lon="5.63204">
        <ele>793</ele>
        <time>2019-06-04T09:00:33Z</time>
      </trkpt>
      <trkpt lat="44.17211" lon="5.63213">
        <ele>793</ele>
        <time>2019-06-04T09:00:34Z</time>
      </trkpt>
      <trkpt lat="44.17213" lon="5.63223">
        <ele>793</ele>
        <time>2019-06-04T09:00:35Z</time>
      </trkpt>
      <trkpt lat="44.17213" lon="5.63233">
        <ele>793</ele>
        <time>2019-06-04T09:00:36Z</time>
      </trkpt>
      <trkpt lat="44.17213" lon="5.63244">
        <ele>793</ele>
        <time>2019-06-04T09:00:37Z</time>
      </trkpt>
      <trkpt lat="44.17213" lon="5.63254">
        <ele>793</ele>
        <time>2019-06-04T09:00:38Z</time>
      </trkpt>
      <trkpt lat="44.17213" lon="5.63265">
        <ele>793</ele>
        <time>2019-06-04T09:00:39Z</time>
      </trkpt>
      <trkpt lat="44.17213" lon="5.63276">
        <ele>793</ele>
        <time>2019-06-04T09:00:40Z</time>
      </trkpt>
      <trkpt lat="44.17213" lon="5.63286">
        <ele>793</ele>
        <time>2019-06-04T09:00:41Z</time>
      </trkpt>
      <trkpt lat="44.17211" lon="5.63297">
        <ele>793</ele>
        <time>2019-06-04T09:00:42Z</time>
      </trkpt>
      <trkpt lat="44.17208" lon="5.63307">
        <ele>793</ele>
        <time>2019-06-04T09:00:43Z</time>
      </trkpt>
      <trkpt lat="44.17205" lon="5.63318">
        <ele>793</ele>
        <time>2019-06-04T09:00:44Z</time>
      </trkpt>
      <trkpt lat="44.17202" lon="5.63329">
        <ele>793</ele>
        <time>2019-06-04T09:00:45Z</time>
      </trkpt>
      <trkpt lat="44.17199" lon="5.6334">
        <ele>793</ele>
        <time>2019-06-04T09:00:46Z</time>
      </trkpt>
      <trkpt lat="44.17196" lon="5.6335">
        <ele>793</ele>
        <time>2019-06-04T09:00:47Z</time>
      </trkpt>
      <trkpt lat="44.1719" lon="5.63358">
        <ele>793</ele>
        <time>2019-06-04T09:00:48Z</time>
      </trkpt>
      <trkpt lat="44.17183" lon="5.63364">
        <ele>793</ele>
        <time>2019-06-04T09:00:49Z</time>
      </trkpt>
      <trkpt lat="44.17175" lon="5.63366">
        <ele>793</ele>
        <time>2019-06-04T09:00:50Z</time>
      </trkpt>
      <trkpt lat="44.17166" lon="5.63365">
        <ele>793</ele>
        <time>2019-06-04T09:00:51Z</time>
      </trkpt>
      <trkpt lat="44.17158" lon="5.63363">
        <ele>792</ele>
        <time>2019-06-04T09:00:52Z</time>
      </trkpt>
      <trkpt lat="44.1715" lon="5.63358">
        <ele>791</ele>
        <time>2019-06-04T09:00:53Z</time>
      </trkpt>
      <trkpt lat="44.17142" lon="5.63355">
        <ele>790</ele>
        <time>2019-06-04T09:00:54Z</time>
      </trkpt>
      <trkpt lat="44.17134" lon="5.63351">
        <ele>789</ele>
        <time>2019-06-04T09:00:55Z</time>
      </trkpt>
      <trkpt lat="44.17127" lon="5.63353">
        <ele>789</ele>
        <time>2019-06-04T09:00:56Z</time>
      </trkpt>
      <trkpt lat="44.1712" lon="5.63359">
        <ele>788</ele>
        <time>2019-06-04T09:00:57Z</time>
      </trkpt>
      <trkpt lat="44.17115" lon="5.63368">
        <ele>788</ele>
        <time>2019-06-04T09:00:58Z</time>
      </trkpt>
      <trkpt lat="44.17113" lon="5.6338">
        <ele>787</ele>
        <time>2019-06-04T09:00:59Z</time>
      </trkpt>
      <trkpt lat="44.17115" lon="5.63391">
        <ele>786</ele>
        <time>2019-06-04T09:01:00Z</time>
      </trkpt>
      <trkpt lat="44.17118" lon="5.63401">
        <ele>785</ele>
        <time>2019-06-04T09:01:01Z</time>
      </trkpt>
      <trkpt lat="44.17123" lon="5.63411">
        <ele>784</ele>
        <time>2019-06-04T09:01:02Z</time>
      </trkpt>
      <trkpt lat="44.17128" lon="5.63421">
        <ele>783</ele>
        <time>2019-06-04T09:01:03Z</time>
      </trkpt>
      <trkpt lat="44.17133" lon="5.63432">
        <ele>782</ele>
        <time>2019-06-04T09:01:04Z</time>
      </trkpt>
      <trkpt lat="44.17137" lon="5.63442">
        <ele>782</ele>
        <time>2019-06-04T09:01:05Z</time>
      </trkpt>
      <trkpt lat="44.17142" lon="5.63453">
        <ele>781</ele>
        <time>2019-06-04T09:01:06Z</time>
      </trkpt>
      <trkpt lat="44.17146" lon="5.63466">
        <ele>780</ele>
        <time>2019-06-04T09:01:07Z</time>
      </trkpt>
      <trkpt lat="44.17148" lon="5.63479">
        <ele>780</ele>
        <time>2019-06-04T09:01:08Z</time>
      </trkpt>
      <trkpt lat="44.17149" lon="5.63492">
        <ele>779</ele>
        <time>2019-06-04T09:01:09Z</time>
      </trkpt>
      <trkpt lat="44.17152" lon="5.63505">
        <ele>779</ele>
        <time>2019-06-04T09:01:10Z</time>
      </trkpt>
      <trkpt lat="44.17156" lon="5.63517">
        <ele>778</ele>
        <time>2019-06-04T09:01:11Z</time>
      </trkpt>
      <trkpt lat="44.17161" lon="5.63528">
        <ele>778</ele>
        <time>2019-06-04T09:01:12Z</time>
      </trkpt>
      <trkpt lat="44.17167" lon="5.63539">
        <ele>778</ele>
        <time>2019-06-04T09:01:13Z</time>
      </trkpt>
      <trkpt lat="44.17174" lon="5.63548">
        <ele>777</ele>
        <time>2019-06-04T09:01:14Z</time>
      </trkpt>
      <trkpt lat="44.17181" lon="5.63557">
        <ele>777</ele>
        <time>2019-06-04T09:01:15Z</time>
      </trkpt>
      <trkpt lat="44.17189" lon="5.63567">
        <ele>776</ele>
        <time>2019-06-04T09:01:16Z</time>
      </trkpt>
      <trkpt lat="44.17196" lon="5.63577">
        <ele>776</ele>
        <time>2019-06-04T09:01:17Z</time>
      </trkpt>
      <trkpt lat="44.17202" lon="5.63588">
        <ele>776</ele>
        <time>2019-06-04T09:01:18Z</time>
      </trkpt>
      <trkpt lat="44.17207" lon="5.636">
        <ele>775</ele>
        <time>2019-06-04T09:01:19Z</time>
      </trkpt>
      <trkpt lat="44.17212" lon="5.63611">
        <ele>775</ele>
        <time>2019-06-04T09:01:20Z</time>
      </trkpt>
      <trkpt lat="44.17217" lon="5.63622">
        <ele>775</ele>
        <time>2019-06-04T09:01:21Z</time>
      </trkpt>
      <trkpt lat="44.17223" lon="5.63634">
        <ele>774</ele>
        <time>2019-06-04T09:01:22Z</time>
      </trkpt>
      <trkpt lat="44.17228" lon="5.63645">
        <ele>774</ele>
        <time>2019-06-04T09:01:23Z</time>
      </trkpt>
      <trkpt lat="44.17234" lon="5.63656">
        <ele>773</ele>
        <time>2019-06-04T09:01:24Z</time>
      </trkpt>
      <trkpt lat="44.17241" lon="5.63666">
        <ele>773</ele>
        <time>2019-06-04T09:01:25Z</time>
      </trkpt>
      <trkpt lat="44.17247" lon="5.63678">
        <ele>772</ele>
        <time>2019-06-04T09:01:26Z</time>
      </trkpt>
      <trkpt lat="44.17253" lon="5.63689">
        <ele>772</ele>
        <time>2019-06-04T09:01:27Z</time>
      </trkpt>
      <trkpt lat="44.1726" lon="5.63698">
        <ele>772</ele>
        <time>2019-06-04T09:01:28Z</time>
      </trkpt>
      <trkpt lat="44.17268" lon="5.63707">
        <ele>771</ele>
        <time>2019-06-04T09:01:29Z</time>
      </trkpt>
      <trkpt lat="44.17276" lon="5.63715">
        <ele>771</ele>
        <time>2019-06-04T09:01:30Z</time>
      </trkpt>
      <trkpt lat="44.17286" lon="5.63721">
        <ele>770</ele>
        <time>2019-06-04T09:01:31Z</time>
      </trkpt>
      <trkpt lat="44.17294" lon="5.63728">
        <ele>770</ele>
        <time>2019-06-04T09:01:32Z</time>
      </trkpt>
      <trkpt lat="44.17302" lon="5.63734">
        <ele>769</ele>
        <time>2019-06-04T09:01:33Z</time>
      </trkpt>
      <trkpt lat="44.17311" lon="5.6374">
        <ele>769</ele>
        <time>2019-06-04T09:01:34Z</time>
      </trkpt>
      <trkpt lat="44.1732" lon="5.63747">
        <ele>768</ele>
        <time>2019-06-04T09:01:35Z</time>
      </trkpt>
      <trkpt lat="44.1733" lon="5.63753">
        <ele>768</ele>
        <time>2019-06-04T09:01:36Z</time>
      </trkpt>
      <trkpt lat="44.17339" lon="5.6376">
        <ele>767</ele>
        <time>2019-06-04T09:01:37Z</time>
      </trkpt>
      <trkpt lat="44.17349" lon="5.63767">
        <ele>767</ele>
        <time>2019-06-04T09:01:38Z</time>
      </trkpt>
      <trkpt lat="44.17358" lon="5.63774">
        <ele>767</ele>
        <time>2019-06-04T09:01:39Z</time>
      </trkpt>
      <trkpt lat="44.17366" lon="5.63781">
        <ele>766</ele>
        <time>2019-06-04T09:01:40Z</time>
      </trkpt>
      <trkpt lat="44.17375" lon="5.63787">
        <ele>766</ele>
        <time>2019-06-04T09:01:41Z</time>
      </trkpt>
      <trkpt lat="44.17383" lon="5.63794">
        <ele>766</ele>
        <time>2019-06-04T09:01:42Z</time>
      </trkpt>
      <trkpt lat="44.1739" lon="5.63801">
        <ele>766</ele>
        <time>2019-06-04T09:01:43Z</time>
      </trkpt>
      <trkpt lat="44.17399" lon="5.63807">
        <ele>765</ele>
        <time>2019-06-04T09:01:44Z</time>
      </trkpt>
      <trkpt lat="44.17406" lon="5.63812">
        <ele>765</ele>
        <time>2019-06-04T09:01:45Z</time>
      </trkpt>
      <trkpt lat="44.17414" lon="5.63817">
        <ele>765</ele>
        <time>2019-06-04T09:01:46Z</time>
      </trkpt>
      <trkpt lat="44.17422" lon="5.63821">
        <ele>764</ele>
        <time>2019-06-04T09:01:47Z</time>
      </trkpt>
      <trkpt lat="44.1743" lon="5.63825">
        <ele>764</ele>
        <time>2019-06-04T09:01:48Z</time>
      </trkpt>
      <trkpt lat="44.17438" lon="5.63828">
        <ele>764</ele>
        <time>2019-06-04T09:01:49Z</time>
      </trkpt>
      <trkpt lat="44.17447" lon="5.6383">
        <ele>764</ele>
        <time>2019-06-04T09:01:50Z</time>
      </trkpt>
      <trkpt lat="44.17455" lon="5.63833">
        <ele>764</ele>
        <time>2019-06-04T09:01:51Z</time>
      </trkpt>
      <trkpt lat="44.17462" lon="5.63835">
        <ele>764</ele>
        <time>2019-06-04T09:01:52Z</time>
      </trkpt>
      <trkpt lat="44.1747" lon="5.63838">
        <ele>764</ele>
        <time>2019-06-04T09:01:53Z</time>
      </trkpt>
      <trkpt lat="44.17477" lon="5.6384">
        <ele>764</ele>
        <time>2019-06-04T09:01:54Z</time>
      </trkpt>
      <trkpt lat="44.17484" lon="5.6384">
        <ele>764</ele>
        <time>2019-06-04T09:01:55Z</time>
      </trkpt>
      <trkpt lat="44.17492" lon="5.63838">
        <ele>763</ele>
        <time>2019-06-04T09:01:56Z</time>
      </trkpt>
      <trkpt lat="44.175" lon="5.63834">
        <ele>763</ele>
        <time>2019-06-04T09:01:57Z</time>
      </trkpt>
      <trkpt lat="44.17506" lon="5.63829">
        <ele>762</ele>
        <time>2019-06-04T09:01:58Z</time>
      </trkpt>
      <trkpt lat="44.17513" lon="5.63823">
        <ele>761</ele>
        <time>2019-06-04T09:01:59Z</time>
      </trkpt>
      <trkpt lat="44.17521" lon="5.63817">
        <ele>760</ele>
        <time>2019-06-04T09:02:00Z</time>
      </trkpt>
      <trkpt lat="44.17527" lon="5.6381">
        <ele>760</ele>
        <time>2019-06-04T09:02:01Z</time>
      </trkpt>
      <trkpt lat="44.17535" lon="5.63804">
        <ele>759</ele>
        <time>2019-06-04T09:02:02Z</time>
      </trkpt>
      <trkpt lat="44.17542" lon="5.63798">
        <ele>758</ele>
        <time>2019-06-04T09:02:03Z</time>
      </trkpt>
      <trkpt lat="44.17548" lon="5.63793">
        <ele>757</ele>
        <time>2019-06-04T09:02:04Z</time>
      </trkpt>
      <trkpt lat="44.17554" lon="5.6379">
        <ele>756</ele>
        <time>2019-06-04T09:02:05Z</time>
      </trkpt>
      <trkpt lat="44.17561" lon="5.6379">
        <ele>755</ele>
        <time>2019-06-04T09:02:06Z</time>
      </trkpt>
      <trkpt lat="44.17566" lon="5.63794">
        <ele>754</ele>
        <time>2019-06-04T09:02:07Z</time>
      </trkpt>
      <trkpt lat="44.17569" lon="5.63801">
        <ele>754</ele>
        <time>2019-06-04T09:02:08Z</time>
      </trkpt>
      <trkpt lat="44.1757" lon="5.63809">
        <ele>753</ele>
        <time>2019-06-04T09:02:09Z</time>
      </trkpt>
      <trkpt lat="44.17569" lon="5.63819">
        <ele>752</ele>
        <time>2019-06-04T09:02:10Z</time>
      </trkpt>
      <trkpt lat="44.17566" lon="5.6383">
        <ele>751</ele>
        <time>2019-06-04T09:02:11Z</time>
      </trkpt>
      <trkpt lat="44.17564" lon="5.63842">
        <ele>751</ele>
        <time>2019-06-04T09:02:12Z</time>
      </trkpt>
      <trkpt lat="44.17561" lon="5.63855">
        <ele>750</ele>
        <time>2019-06-04T09:02:13Z</time>
      </trkpt>
      <trkpt lat="44.17559" lon="5.63867">
        <ele>750</ele>
        <time>2019-06-04T09:02:14Z</time>
      </trkpt>
      <trkpt lat="44.17558" lon="5.63878">
        <ele>749</ele>
        <time>2019-06-04T09:02:15Z</time>
      </trkpt>
      <trkpt lat="44.17556" lon="5.63891">
        <ele>749</ele>
        <time>2019-06-04T09:02:16Z</time>
      </trkpt>
      <trkpt lat="44.17554" lon="5.63902">
        <ele>749</ele>
        <time>2019-06-04T09:02:17Z</time>
      </trkpt>
      <trkpt lat="44.17553" lon="5.63914">
        <ele>749</ele>
        <time>2019-06-04T09:02:18Z</time>
      </trkpt>
      <trkpt lat="44.17552" lon="5.63926">
        <ele>749</ele>
        <time>2019-06-04T09:02:19Z</time>
      </trkpt>
      <trkpt lat="44.1755" lon="5.63938">
        <ele>749</ele>
        <time>2019-06-04T09:02:20Z</time>
      </trkpt>
      <trkpt lat="44.17548" lon="5.6395">
        <ele>748</ele>
        <time>2019-06-04T09:02:21Z</time>
      </trkpt>
      <trkpt lat="44.17547" lon="5.63963">
        <ele>747</ele>
        <time>2019-06-04T09:02:22Z</time>
      </trkpt>
      <trkpt lat="44.17545" lon="5.63976">
        <ele>747</ele>
        <time>2019-06-04T09:02:23Z</time>
      </trkpt>
      <trkpt lat="44.17543" lon="5.6399">
        <ele>747</ele>
        <time>2019-06-04T09:02:24Z</time>
      </trkpt>
      <trkpt lat="44.17541" lon="5.64003">
        <ele>746</ele>
        <time>2019-06-04T09:02:25Z</time>
      </trkpt>
      <trkpt lat="44.17539" lon="5.64017">
        <ele>746</ele>
        <time>2019-06-04T09:02:26Z</time>
      </trkpt>
      <trkpt lat="44.17537" lon="5.64031">
        <ele>745</ele>
        <time>2019-06-04T09:02:27Z</time>
      </trkpt>
      <trkpt lat="44.17535" lon="5.64045">
        <ele>745</ele>
        <time>2019-06-04T09:02:28Z</time>
      </trkpt>
      <trkpt lat="44.17533" lon="5.6406">
        <ele>744</ele>
        <time>2019-06-04T09:02:29Z</time>
      </trkpt>
      <trkpt lat="44.17532" lon="5.64074">
        <ele>744</ele>
        <time>2019-06-04T09:02:30Z</time>
      </trkpt>
      <trkpt lat="44.17532" lon="5.64089">
        <ele>744</ele>
        <time>2019-06-04T09:02:31Z</time>
      </trkpt>
      <trkpt lat="44.17533" lon="5.64103">
        <ele>743</ele>
        <time>2019-06-04T09:02:32Z</time>
      </trkpt>
      <trkpt lat="44.17534" lon="5.64117">
        <ele>743</ele>
        <time>2019-06-04T09:02:33Z</time>
      </trkpt>
      <trkpt lat="44.17535" lon="5.6413">
        <ele>743</ele>
        <time>2019-06-04T09:02:34Z</time>
      </trkpt>
      <trkpt lat="44.17536" lon="5.64143">
        <ele>743</ele>
        <time>2019-06-04T09:02:35Z</time>
      </trkpt>
      <trkpt lat="44.17537" lon="5.64156">
        <ele>743</ele>
        <time>2019-06-04T09:02:36Z</time>
      </trkpt>
      <trkpt lat="44.17538" lon="5.64168">
        <ele>743</ele>
        <time>2019-06-04T09:02:37Z</time>
      </trkpt>
      <trkpt lat="44.1754" lon="5.64181">
        <ele>742</ele>
        <time>2019-06-04T09:02:38Z</time>
      </trkpt>
      <trkpt lat="44.17541" lon="5.64194">
        <ele>742</ele>
        <time>2019-06-04T09:02:39Z</time>
      </trkpt>
      <trkpt lat="44.17542" lon="5.64207">
        <ele>742</ele>
        <time>2019-06-04T09:02:40Z</time>
      </trkpt>
      <trkpt lat="44.17543" lon="5.64221">
        <ele>741</ele>
        <time>2019-06-04T09:02:41Z</time>
      </trkpt>
      <trkpt lat="44.17544" lon="5.64234">
        <ele>741</ele>
        <time>2019-06-04T09:02:42Z</time>
      </trkpt>
      <trkpt lat="44.17545" lon="5.64248">
        <ele>741</ele>
        <time>2019-06-04T09:02:43Z</time>
      </trkpt>
      <trkpt lat="44.17546" lon="5.64261">
        <ele>740</ele>
        <time>2019-06-04T09:02:44Z</time>
      </trkpt>
      <trkpt lat="44.17548" lon="5.64274">
        <ele>740</ele>
        <time>2019-06-04T09:02:45Z</time>
      </trkpt>
      <trkpt lat="44.17549" lon="5.64287">
        <ele>740</ele>
        <time>2019-06-04T09:02:46Z</time>
      </trkpt>
      <trkpt lat="44.1755" lon="5.643">
        <ele>740</ele>
        <time>2019-06-04T09:02:47Z</time>
      </trkpt>
      <trkpt lat="44.17551" lon="5.64312">
        <ele>740</ele>
        <time>2019-06-04T09:02:48Z</time>
      </trkpt>
      <trkpt lat="44.17553" lon="5.64324">
        <ele>740</ele>
        <time>2019-06-04T09:02:49Z</time>
      </trkpt>
      <trkpt lat="44.17554" lon="5.64336">
        <ele>740</ele>
        <time>2019-06-04T09:02:50Z</time>
      </trkpt>
      <trkpt lat="44.17555" lon="5.64348">
        <ele>740</ele>
        <time>2019-06-04T09:02:51Z</time>
      </trkpt>
      <trkpt lat="44.17556" lon="5.6436">
        <ele>740</ele>
        <time>2019-06-04T09:02:52Z</time>
      </trkpt>
      <trkpt lat="44.17557" lon="5.64372">
        <ele>740</ele>
        <time>2019-06-04T09:02:53Z</time>
      </trkpt>
      <trkpt lat="44.17558" lon="5.64384">
        <ele>740</ele>
        <time>2019-06-04T09:02:54Z</time>
      </trkpt>
      <trkpt lat="44.17559" lon="5.64395">
        <ele>740</ele>
        <time>2019-06-04T09:02:55Z</time>
      </trkpt>
      <trkpt lat="44.1756" lon="5.64406">
        <ele>740</ele>
        <time>2019-06-04T09:02:56Z</time>
      </trkpt>
      <trkpt lat="44.17561" lon="5.64418">
        <ele>740</ele>
        <time>2019-06-04T09:02:57Z</time>
      </trkpt>
      <trkpt lat="44.17562" lon="5.64429">
        <ele>740</ele>
        <time>2019-06-04T09:02:58Z</time>
      </trkpt>
      <trkpt lat="44.17562" lon="5.6444">
        <ele>740</ele>
        <time>2019-06-04T09:02:59Z</time>
      </trkpt>
      <trkpt lat="44.17563" lon="5.64451">
        <ele>740</ele>
        <time>2019-06-04T09:03:00Z</time>
      </trkpt>
      <trkpt lat="44.17564" lon="5.64461">
        <ele>740</ele>
        <time>2019-06-04T09:03:01Z</time>
      </trkpt>
      <trkpt lat="44.17564" lon="5.64472">
        <ele>740</ele>
        <time>2019-06-04T09:03:02Z</time>
      </trkpt>
      <trkpt lat="44.17566" lon="5.64482">
        <ele>740</ele>
        <time>2019-06-04T09:03:03Z</time>
      </trkpt>
      <trkpt lat="44.17566" lon="5.64492">
        <ele>740</ele>
        <time>2019-06-04T09:03:04Z</time>
      </trkpt>
      <trkpt lat="44.17567" lon="5.64502">
        <ele>740</ele>
        <time>2019-06-04T09:03:05Z</time>
      </trkpt>
      <trkpt lat="44.17569" lon="5.64511">
        <ele>740</ele>
        <time>2019-06-04T09:03:06Z</time>
      </trkpt>
      <trkpt lat="44.17572" lon="5.64521">
        <ele>740</ele>
        <time>2019-06-04T09:03:07Z</time>
      </trkpt>
      <trkpt lat="44.17574" lon="5.64529">
        <ele>740</ele>
        <time>2019-06-04T09:03:08Z</time>
      </trkpt>
      <trkpt lat="44.17577" lon="5.64538">
        <ele>740</ele>
        <time>2019-06-04T09:03:09Z</time>
      </trkpt>
      <trkpt lat="44.1758" lon="5.64546">
        <ele>740</ele>
        <time>2019-06-04T09:03:10Z</time>
      </trkpt>
      <trkpt lat="44.17583" lon="5.64555">
        <ele>740</ele>
        <time>2019-06-04T09:03:11Z</time>
      </trkpt>
      <trkpt lat="44.17587" lon="5.64563">
        <ele>740</ele>
        <time>2019-06-04T09:03:12Z</time>
      </trkpt>
      <trkpt lat="44.1759" lon="5.64571">
        <ele>740</ele>
        <time>2019-06-04T09:03:13Z</time>
      </trkpt>
      <trkpt lat="44.17592" lon="5.64579">
        <ele>740</ele>
        <time>2019-06-04T09:03:14Z</time>
      </trkpt>
      <trkpt lat="44.17595" lon="5.64586">
        <ele>740</ele>
        <time>2019-06-04T09:03:15Z</time>
      </trkpt>
      <trkpt lat="44.17597" lon="5.64594">
        <ele>740</ele>
        <time>2019-06-04T09:03:16Z</time>
      </trkpt>
      <trkpt lat="44.17599" lon="5.64602">
        <ele>740</ele>
        <time>2019-06-04T09:03:17Z</time>
      </trkpt>
      <trkpt lat="44.17601" lon="5.6461">
        <ele>740</ele>
        <time>2019-06-04T09:03:18Z</time>
      </trkpt>
      <trkpt lat="44.17603" lon="5.64618">
        <ele>740</ele>
        <time>2019-06-04T09:03:19Z</time>
      </trkpt>
      <trkpt lat="44.17605" lon="5.64627">
        <ele>740</ele>
        <time>2019-06-04T09:03:20Z</time>
      </trkpt>
      <trkpt lat="44.17607" lon="5.64636">
        <ele>740</ele>
        <time>2019-06-04T09:03:21Z</time>
      </trkpt>
      <trkpt lat="44.17609" lon="5.64644">
        <ele>740</ele>
        <time>2019-06-04T09:03:22Z</time>
      </trkpt>
      <trkpt lat="44.1761" lon="5.64653">
        <ele>740</ele>
        <time>2019-06-04T09:03:23Z</time>
      </trkpt>
      <trkpt lat="44.17612" lon="5.64662">
        <ele>740</ele>
        <time>2019-06-04T09:03:24Z</time>
      </trkpt>
      <trkpt lat="44.17614" lon="5.6467">
        <ele>740</ele>
        <time>2019-06-04T09:03:25Z</time>
      </trkpt>
      <trkpt lat="44.17615" lon="5.64679">
        <ele>740</ele>
        <time>2019-06-04T09:03:26Z</time>
      </trkpt>
      <trkpt lat="44.17617" lon="5.64687">
        <ele>740</ele>
        <time>2019-06-04T09:03:27Z</time>
      </trkpt>
      <trkpt lat="44.17619" lon="5.64696">
        <ele>740</ele>
        <time>2019-06-04T09:03:28Z</time>
      </trkpt>
      <trkpt lat="44.1762" lon="5.64705">
        <ele>740</ele>
        <time>2019-06-04T09:03:29Z</time>
      </trkpt>
      <trkpt lat="44.17621" lon="5.64713">
        <ele>740</ele>
        <time>2019-06-04T09:03:30Z</time>
      </trkpt>
      <trkpt lat="44.17622" lon="5.64721">
        <ele>740</ele>
        <time>2019-06-04T09:03:31Z</time>
      </trkpt>
      <trkpt lat="44.17622" lon="5.64729">
        <ele>740</ele>
        <time>2019-06-04T09:03:32Z</time>
      </trkpt>
      <trkpt lat="44.17622" lon="5.64738">
        <ele>740</ele>
        <time>2019-06-04T09:03:33Z</time>
      </trkpt>
      <trkpt lat="44.17623" lon="5.64746">
        <ele>740</ele>
        <time>2019-06-04T09:03:34Z</time>
      </trkpt>
      <trkpt lat="44.17623" lon="5.64754">
        <ele>740</ele>
        <time>2019-06-04T09:03:35Z</time>
      </trkpt>
      <trkpt lat="44.17623" lon="5.64763">
        <ele>740</ele>
        <time>2019-06-04T09:03:36Z</time>
      </trkpt>
      <trkpt lat="44.17622" lon="5.64772">
        <ele>740</ele>
        <time>2019-06-04T09:03:37Z</time>
      </trkpt>
      <trkpt lat="44.17622" lon="5.64781">
        <ele>740</ele>
        <time>2019-06-04T09:03:38Z</time>
      </trkpt>
      <trkpt lat="44.17621" lon="5.64789">
        <ele>740</ele>
        <time>2019-06-04T09:03:39Z</time>
      </trkpt>
      <trkpt lat="44.1762" lon="5.64797">
        <ele>740</ele>
        <time>2019-06-04T09:03:40Z</time>
      </trkpt>
      <trkpt lat="44.17619" lon="5.64806">
        <ele>740</ele>
        <time>2019-06-04T09:03:41Z</time>
      </trkpt>
      <trkpt lat="44.1762" lon="5.64814">
        <ele>740</ele>
        <time>2019-06-04T09:03:42Z</time>
      </trkpt>
      <trkpt lat="44.1762" lon="5.64822">
        <ele>740</ele>
        <time>2019-06-04T09:03:43Z</time>
      </trkpt>
      <trkpt lat="44.17621" lon="5.6483">
        <ele>740</ele>
        <time>2019-06-04T09:03:44Z</time>
      </trkpt>
      <trkpt lat="44.17622" lon="5.64838">
        <ele>740</ele>
        <time>2019-06-04T09:03:45Z</time>
      </trkpt>
      <trkpt lat="44.17623" lon="5.64846">
        <ele>740</ele>
        <time>2019-06-04T09:03:46Z</time>
      </trkpt>
      <trkpt lat="44.17625" lon="5.64853">
        <ele>740</ele>
        <time>2019-06-04T09:03:47Z</time>
      </trkpt>
      <trkpt lat="44.17626" lon="5.6486">
        <ele>740</ele>
        <time>2019-06-04T09:03:48Z</time>
      </trkpt>
      <trkpt lat="44.17627" lon="5.64868">
        <ele>740</ele>
        <time>2019-06-04T09:03:49Z</time>
      </trkpt>
      <trkpt lat="44.17629" lon="5.64875">
        <ele>740</ele>
        <time>2019-06-04T09:03:50Z</time>
      </trkpt>
      <trkpt lat="44.1763" lon="5.64883">
        <ele>740</ele>
        <time>2019-06-04T09:03:51Z</time>
      </trkpt>
      <trkpt lat="44.17631" lon="5.64891">
        <ele>740</ele>
        <time>2019-06-04T09:03:52Z</time>
      </trkpt>
      <trkpt lat="44.17631" lon="5.64899">
        <ele>740</ele>
        <time>2019-06-04T09:03:53Z</time>
      </trkpt>
      <trkpt lat="44.1763" lon="5.64907">
        <ele>740</ele>
        <time>2019-06-04T09:03:54Z</time>
      </trkpt>
      <trkpt lat="44.17627" lon="5.64915">
        <ele>740</ele>
        <time>2019-06-04T09:03:55Z</time>
      </trkpt>
      <trkpt lat="44.17625" lon="5.64922">
        <ele>740</ele>
        <time>2019-06-04T09:03:56Z</time>
      </trkpt>
      <trkpt lat="44.17622" lon="5.64929">
        <ele>740</ele>
        <time>2019-06-04T09:03:57Z</time>
      </trkpt>
      <trkpt lat="44.17619" lon="5.64935">
        <ele>740</ele>
        <time>2019-06-04T09:03:58Z</time>
      </trkpt>
      <trkpt lat="44.17616" lon="5.64942">
        <ele>740</ele>
        <time>2019-06-04T09:03:59Z</time>
      </trkpt>
      <trkpt lat="44.17613" lon="5.64948">
        <ele>740</ele>
        <time>2019-06-04T09:04:00Z</time>
      </trkpt>
      <trkpt lat="44.17609" lon="5.64954">
        <ele>740</ele>
        <time>2019-06-04T09:04:01Z</time>
      </trkpt>
      <trkpt lat="44.17606" lon="5.6496">
        <ele>740</ele>
        <time>2019-06-04T09:04:02Z</time>
      </trkpt>
      <trkpt lat="44.17603" lon="5.64966">
        <ele>740</ele>
        <time>2019-06-04T09:04:03Z</time>
      </trkpt>
      <trkpt lat="44.17599" lon="5.64973">
        <ele>740</ele>
        <time>2019-06-04T09:04:04Z</time>
      </trkpt>
      <trkpt lat="44.17596" lon="5.64979">
        <ele>740</ele>
        <time>2019-06-04T09:04:05Z</time>
      </trkpt>
      <trkpt lat="44.17593" lon="5.64986">
        <ele>740</ele>
        <time>2019-06-04T09:04:06Z</time>
      </trkpt>
      <trkpt lat="44.1759" lon="5.64993">
        <ele>740</ele>
        <time>2019-06-04T09:04:07Z</time>
      </trkpt>
      <trkpt lat="44.17588" lon="5.65001">
        <ele>740</ele>
        <time>2019-06-04T09:04:08Z</time>
      </trkpt>
      <trkpt lat="44.17585" lon="5.65008">
        <ele>740</ele>
        <time>2019-06-04T09:04:09Z</time>
      </trkpt>
      <trkpt lat="44.17584" lon="5.65016">
        <ele>740</ele>
        <time>2019-06-04T09:04:10Z</time>
      </trkpt>
      <trkpt lat="44.17582" lon="5.65024">
        <ele>740</ele>
        <time>2019-06-04T09:04:11Z</time>
      </trkpt>
      <trkpt lat="44.17582" lon="5.65031">
        <ele>740</ele>
        <time>2019-06-04T09:04:12Z</time>
      </trkpt>
      <trkpt lat="44.17582" lon="5.65039">
        <ele>740</ele>
        <time>2019-06-04T09:04:13Z</time>
      </trkpt>
      <trkpt lat="44.17583" lon="5.65047">
        <ele>740</ele>
        <time>2019-06-04T09:04:14Z</time>
      </trkpt>
      <trkpt lat="44.17584" lon="5.65055">
        <ele>740</ele>
        <time>2019-06-04T09:04:15Z</time>
      </trkpt>
      <trkpt lat="44.17585" lon="5.65063">
        <ele>740</ele>
        <time>2019-06-04T09:04:16Z</time>
      </trkpt>
      <trkpt lat="44.17588" lon="5.6507">
        <ele>740</ele>
        <time>2019-06-04T09:04:17Z</time>
      </trkpt>
      <trkpt lat="44.1759" lon="5.65077">
        <ele>740</ele>
        <time>2019-06-04T09:04:18Z</time>
      </trkpt>
      <trkpt lat="44.17592" lon="5.65084">
        <ele>740</ele>
        <time>2019-06-04T09:04:19Z</time>
      </trkpt>
      <trkpt lat="44.17595" lon="5.65091">
        <ele>740</ele>
        <time>2019-06-04T09:04:20Z</time>
      </trkpt>
      <trkpt lat="44.17598" lon="5.65097">
        <ele>740</ele>
        <time>2019-06-04T09:04:21Z</time>
      </trkpt>
      <trkpt lat="44.176" lon="5.65104">
        <ele>740</ele>
        <time>2019-06-04T09:04:22Z</time>
      </trkpt>
      <trkpt lat="44.17603" lon="5.65111">
        <ele>740</ele>
        <time>2019-06-04T09:04:23Z</time>
      </trkpt>
      <trkpt lat="44.17605" lon="5.65118">
        <ele>740</ele>
        <time>2019-06-04T09:04:24Z</time>
      </trkpt>
      <trkpt lat="44.17607" lon="5.65126">
        <ele>740</ele>
        <time>2019-06-04T09:04:25Z</time>
      </trkpt>
      <trkpt lat="44.17609" lon="5.65133">
        <ele>740</ele>
        <time>2019-06-04T09:04:26Z</time>
      </trkpt>
      <trkpt lat="44.17611" lon="5.6514">
        <ele>741</ele>
        <time>2019-06-04T09:04:27Z</time>
      </trkpt>
      <trkpt lat="44.17611" lon="5.65148">
        <ele>741</ele>
        <time>2019-06-04T09:04:28Z</time>
      </trkpt>
      <trkpt lat="44.17611" lon="5.65156">
        <ele>741</ele>
        <time>2019-06-04T09:04:29Z</time>
      </trkpt>
      <trkpt lat="44.17611" lon="5.65164">
        <ele>741</ele>
        <time>2019-06-04T09:04:30Z</time>
      </trkpt>
      <trkpt lat="44.17609" lon="5.65172">
        <ele>741</ele>
        <time>2019-06-04T09:04:31Z</time>
      </trkpt>
      <trkpt lat="44.17607" lon="5.65179">
        <ele>741</ele>
        <time>2019-06-04T09:04:32Z</time>
      </trkpt>
      <trkpt lat="44.17604" lon="5.65186">
        <ele>741</ele>
        <time>2019-06-04T09:04:33Z</time>
      </trkpt>
      <trkpt lat="44.176" lon="5.65192">
        <ele>741</ele>
        <time>2019-06-04T09:04:34Z</time>
      </trkpt>
      <trkpt lat="44.17596" lon="5.65198">
        <ele>741</ele>
        <time>2019-06-04T09:04:35Z</time>
      </trkpt>
      <trkpt lat="44.17593" lon="5.65204">
        <ele>741</ele>
        <time>2019-06-04T09:04:36Z</time>
      </trkpt>
      <trkpt lat="44.1759" lon="5.6521">
        <ele>741</ele>
        <time>2019-06-04T09:04:37Z</time>
      </trkpt>
      <trkpt lat="44.17588" lon="5.65217">
        <ele>741</ele>
        <time>2019-06-04T09:04:38Z</time>
      </trkpt>
      <trkpt lat="44.17586" lon="5.65224">
        <ele>741</ele>
        <time>2019-06-04T09:04:39Z</time>
      </trkpt>
      <trkpt lat="44.17584" lon="5.65231">
        <ele>741</ele>
        <time>2019-06-04T09:04:40Z</time>
      </trkpt>
      <trkpt lat="44.17583" lon="5.65239">
        <ele>741</ele>
        <time>2019-06-04T09:04:41Z</time>
      </trkpt>
      <trkpt lat="44.17582" lon="5.65246">
        <ele>741</ele>
        <time>2019-06-04T09:04:42Z</time>
      </trkpt>
      <trkpt lat="44.17581" lon="5.65254">
        <ele>741</ele>
        <time>2019-06-04T09:04:43Z</time>
      </trkpt>
      <trkpt lat="44.1758" lon="5.65262">
        <ele>741</ele>
        <time>2019-06-04T09:04:44Z</time>
      </trkpt>
      <trkpt lat="44.1758" lon="5.6527">
        <ele>741</ele>
        <time>2019-06-04T09:04:45Z</time>
      </trkpt>
      <trkpt lat="44.1758" lon="5.65278">
        <ele>742</ele>
        <time>2019-06-04T09:04:46Z</time>
      </trkpt>
      <trkpt lat="44.17581" lon="5.65286">
        <ele>742</ele>
        <time>2019-06-04T09:04:47Z</time>
      </trkpt>
      <trkpt lat="44.17582" lon="5.65295">
        <ele>742</ele>
        <time>2019-06-04T09:04:48Z</time>
      </trkpt>
      <trkpt lat="44.17582" lon="5.65303">
        <ele>742</ele>
        <time>2019-06-04T09:04:49Z</time>
      </trkpt>
      <trkpt lat="44.17583" lon="5.65311">
        <ele>742</ele>
        <time>2019-06-04T09:04:50Z</time>
      </trkpt>
      <trkpt lat="44.17582" lon="5.65319">
        <ele>742</ele>
        <time>2019-06-04T09:04:51Z</time>
      </trkpt>
      <trkpt lat="44.17582" lon="5.65327">
        <ele>742</ele>
        <time>2019-06-04T09:04:52Z</time>
      </trkpt>
      <trkpt lat="44.17581" lon="5.65335">
        <ele>742</ele>
        <time>2019-06-04T09:04:53Z</time>
      </trkpt>
      <trkpt lat="44.1758" lon="5.65343">
        <ele>742</ele>
        <time>2019-06-04T09:04:54Z</time>
      </trkpt>
      <trkpt lat="44.17579" lon="5.6535">
        <ele>742</ele>
        <time>2019-06-04T09:04:55Z</time>
      </trkpt>
      <trkpt lat="44.17577" lon="5.65358">
        <ele>742</ele>
        <time>2019-06-04T09:04:56Z</time>
      </trkpt>
      <trkpt lat="44.17577" lon="5.65366">
        <ele>742</ele>
        <time>2019-06-04T09:04:57Z</time>
      </trkpt>
      <trkpt lat="44.17576" lon="5.65374">
        <ele>742</ele>
        <time>2019-06-04T09:04:58Z</time>
      </trkpt>
      <trkpt lat="44.17575" lon="5.65381">
        <ele>742</ele>
        <time>2019-06-04T09:04:59Z</time>
      </trkpt>
      <trkpt lat="44.17576" lon="5.65389">
        <ele>742</ele>
        <time>2019-06-04T09:05:00Z</time>
      </trkpt>
      <trkpt lat="44.17577" lon="5.65396">
        <ele>742</ele>
        <time>2019-06-04T09:05:01Z</time>
      </trkpt>
      <trkpt lat="44.17578" lon="5.65404">
        <ele>742</ele>
        <time>2019-06-04T09:05:02Z</time>
      </trkpt>
      <trkpt lat="44.1758" lon="5.65412">
        <ele>742</ele>
        <time>2019-06-04T09:05:03Z</time>
      </trkpt>
      <trkpt lat="44.17581" lon="5.6542">
        <ele>742</ele>
        <time>2019-06-04T09:05:04Z</time>
      </trkpt>
      <trkpt lat="44.17583" lon="5.65428">
        <ele>742</ele>
        <time>2019-06-04T09:05:05Z</time>
      </trkpt>
      <trkpt lat="44.17584" lon="5.65437">
        <ele>742</ele>
        <time>2019-06-04T09:05:06Z</time>
      </trkpt>
      <trkpt lat="44.17585" lon="5.65445">
        <ele>742</ele>
        <time>2019-06-04T09:05:07Z</time>
      </trkpt>
      <trkpt lat="44.17585" lon="5.65454">
        <ele>742</ele>
        <time>2019-06-04T09:05:08Z</time>
      </trkpt>
      <trkpt lat="44.17586" lon="5.65462">
        <ele>742</ele>
        <time>2019-06-04T09:05:09Z</time>
      </trkpt>
      <trkpt lat="44.17586" lon="5.65471">
        <ele>742</ele>
        <time>2019-06-04T09:05:10Z</time>
      </trkpt>
      <trkpt lat="44.17587" lon="5.65479">
        <ele>742</ele>
        <time>2019-06-04T09:05:11Z</time>
      </trkpt>
      <trkpt lat="44.17588" lon="5.65487">
        <ele>742</ele>
        <time>2019-06-04T09:05:12Z</time>
      </trkpt>
      <trkpt lat="44.17588" lon="5.65496">
        <ele>742</ele>
        <time>2019-06-04T09:05:13Z</time>
      </trkpt>
      <trkpt lat="44.1759" lon="5.65505">
        <ele>742</ele>
        <time>2019-06-04T09:05:14Z</time>
      </trkpt>
      <trkpt lat="44.1759" lon="5.65513">
        <ele>742</ele>
        <time>2019-06-04T09:05:15Z</time>
      </trkpt>
      <trkpt lat="44.17591" lon="5.65522">
        <ele>742</ele>
        <time>2019-06-04T09:05:16Z</time>
      </trkpt>
      <trkpt lat="44.17593" lon="5.6553">
        <ele>742</ele>
        <time>2019-06-04T09:05:17Z</time>
      </trkpt>
      <trkpt lat="44.17594" lon="5.65538">
        <ele>742</ele>
        <time>2019-06-04T09:05:18Z</time>
      </trkpt>
      <trkpt lat="44.17595" lon="5.65546">
        <ele>742</ele>
        <time>2019-06-04T09:05:19Z</time>
      </trkpt>
      <trkpt lat="44.17596" lon="5.65554">
        <ele>742</ele>
        <time>2019-06-04T09:05:20Z</time>
      </trkpt>
      <trkpt lat="44.17598" lon="5.65562">
        <ele>742</ele>
        <time>2019-06-04T09:05:21Z</time>
      </trkpt>
      <trkpt lat="44.17599" lon="5.6557">
        <ele>743</ele>
        <time>2019-06-04T09:05:22Z</time>
      </trkpt>
      <trkpt lat="44.17601" lon="5.65578">
        <ele>743</ele>
        <time>2019-06-04T09:05:23Z</time>
      </trkpt>
      <trkpt lat="44.17602" lon="5.65586">
        <ele>743</ele>
        <time>2019-06-04T09:05:24Z</time>
      </trkpt>
      <trkpt lat="44.17604" lon="5.65594">
        <ele>743</ele>
        <time>2019-06-04T09:05:25Z</time>
      </trkpt>
      <trkpt lat="44.17605" lon="5.65602">
        <ele>743</ele>
        <time>2019-06-04T09:05:26Z</time>
      </trkpt>
      <trkpt lat="44.17606" lon="5.6561">
        <ele>743</ele>
        <time>2019-06-04T09:05:27Z</time>
      </trkpt>
      <trkpt lat="44.17608" lon="5.65618">
        <ele>743</ele>
        <time>2019-06-04T09:05:28Z</time>
      </trkpt>
      <trkpt lat="44.17609" lon="5.65625">
        <ele>743</ele>
        <time>2019-06-04T09:05:29Z</time>
      </trkpt>
      <trkpt lat="44.17611" lon="5.65633">
        <ele>744</ele>
        <time>2019-06-04T09:05:30Z</time>
      </trkpt>
      <trkpt lat="44.17612" lon="5.65641">
        <ele>744</ele>
        <time>2019-06-04T09:05:31Z</time>
      </trkpt>
      <trkpt lat="44.17613" lon="5.65649">
        <ele>744</ele>
        <time>2019-06-04T09:05:32Z</time>
      </trkpt>
      <trkpt lat="44.17614" lon="5.65657">
        <ele>744</ele>
        <time>2019-06-04T09:05:33Z</time>
      </trkpt>
      <trkpt lat="44.17615" lon="5.65665">
        <ele>744</ele>
        <time>2019-06-04T09:05:34Z</time>
      </trkpt>
      <trkpt lat="44.17615" lon="5.65673">
        <ele>744</ele>
        <time>2019-06-04T09:05:35Z</time>
      </trkpt>
      <trkpt lat="44.17615" lon="5.65682">
        <ele>744</ele>
        <time>2019-06-04T09:05:36Z</time>
      </trkpt>
      <trkpt lat="44.17615" lon="5.6569">
        <ele>744</ele>
        <time>2019-06-04T09:05:37Z</time>
      </trkpt>
      <trkpt lat="44.17615" lon="5.65699">
        <ele>744</ele>
        <time>2019-06-04T09:05:38Z</time>
      </trkpt>
      <trkpt lat="44.17615" lon="5.65708">
        <ele>744</ele>
        <time>2019-06-04T09:05:39Z</time>
      </trkpt>
      <trkpt lat="44.17615" lon="5.65717">
        <ele>744</ele>
        <time>2019-06-04T09:05:40Z</time>
      </trkpt>
      <trkpt lat="44.17615" lon="5.65727">
        <ele>744</ele>
        <time>2019-06-04T09:05:41Z</time>
      </trkpt>
      <trkpt lat="44.17614" lon="5.65737">
        <ele>744</ele>
        <time>2019-06-04T09:05:42Z</time>
      </trkpt>
      <trkpt lat="44.17614" lon="5.65747">
        <ele>744</ele>
        <time>2019-06-04T09:05:43Z</time>
      </trkpt>
      <trkpt lat="44.17614" lon="5.65757">
        <ele>744</ele>
        <time>2019-06-04T09:05:44Z</time>
      </trkpt>
      <trkpt lat="44.17614" lon="5.65767">
        <ele>744</ele>
        <time>2019-06-04T09:05:45Z</time>
      </trkpt>
      <trkpt lat="44.17614" lon="5.65777">
        <ele>744</ele>
        <time>2019-06-04T09:05:46Z</time>
      </trkpt>
      <trkpt lat="44.17613" lon="5.65788">
        <ele>744</ele>
        <time>2019-06-04T09:05:47Z</time>
      </trkpt>
      <trkpt lat="44.17613" lon="5.65798">
        <ele>744</ele>
        <time>2019-06-04T09:05:48Z</time>
      </trkpt>
      <trkpt lat="44.17613" lon="5.65808">
        <ele>744</ele>
        <time>2019-06-04T09:05:49Z</time>
      </trkpt>
      <trkpt lat="44.17613" lon="5.65819">
        <ele>744</ele>
        <time>2019-06-04T09:05:50Z</time>
      </trkpt>
      <trkpt lat="44.17613" lon="5.6583">
        <ele>744</ele>
        <time>2019-06-04T09:05:51Z</time>
      </trkpt>
      <trkpt lat="44.17613" lon="5.6584">
        <ele>744</ele>
        <time>2019-06-04T09:05:52Z</time>
      </trkpt>
      <trkpt lat="44.17615" lon="5.6585">
        <ele>744</ele>
        <time>2019-06-04T09:05:53Z</time>
      </trkpt>
      <trkpt lat="44.17619" lon="5.65861">
        <ele>744</ele>
        <time>2019-06-04T09:05:54Z</time>
      </trkpt>
      <trkpt lat="44.17623" lon="5.6587">
        <ele>744</ele>
        <time>2019-06-04T09:05:55Z</time>
      </trkpt>
      <trkpt lat="44.17628" lon="5.65879">
        <ele>744</ele>
        <time>2019-06-04T09:05:56Z</time>
      </trkpt>
      <trkpt lat="44.17634" lon="5.65886">
        <ele>744</ele>
        <time>2019-06-04T09:05:57Z</time>
      </trkpt>
      <trkpt lat="44.1764" lon="5.65893">
        <ele>744</ele>
        <time>2019-06-04T09:05:58Z</time>
      </trkpt>
      <trkpt lat="44.17646" lon="5.659">
        <ele>744</ele>
        <time>2019-06-04T09:05:59Z</time>
      </trkpt>
      <trkpt lat="44.17652" lon="5.65907">
        <ele>744</ele>
        <time>2019-06-04T09:06:00Z</time>
      </trkpt>
      <trkpt lat="44.17657" lon="5.65916">
        <ele>744</ele>
        <time>2019-06-04T09:06:01Z</time>
      </trkpt>
      <trkpt lat="44.17662" lon="5.65926">
        <ele>744</ele>
        <time>2019-06-04T09:06:02Z</time>
      </trkpt>
      <trkpt lat="44.17665" lon="5.65936">
        <ele>744</ele>
        <time>2019-06-04T09:06:03Z</time>
      </trkpt>
      <trkpt lat="44.17668" lon="5.65948">
        <ele>744</ele>
        <time>2019-06-04T09:06:04Z</time>
      </trkpt>
      <trkpt lat="44.17671" lon="5.6596">
        <ele>744</ele>
        <time>2019-06-04T09:06:05Z</time>
      </trkpt>
      <trkpt lat="44.17672" lon="5.65972">
        <ele>744</ele>
        <time>2019-06-04T09:06:06Z</time>
      </trkpt>
      <trkpt lat="44.17671" lon="5.65984">
        <ele>744</ele>
        <time>2019-06-04T09:06:07Z</time>
      </trkpt>
      <trkpt lat="44.17669" lon="5.65997">
        <ele>744</ele>
        <time>2019-06-04T09:06:08Z</time>
      </trkpt>
      <trkpt lat="44.17668" lon="5.66009">
        <ele>743</ele>
        <time>2019-06-04T09:06:09Z</time>
      </trkpt>
      <trkpt lat="44.17667" lon="5.6602">
        <ele>743</ele>
        <time>2019-06-04T09:06:10Z</time>
      </trkpt>
      <trkpt lat="44.17668" lon="5.66032">
        <ele>743</ele>
        <time>2019-06-04T09:06:11Z</time>
      </trkpt>
      <trkpt lat="44.1767" lon="5.66043">
        <ele>743</ele>
        <time>2019-06-04T09:06:12Z</time>
      </trkpt>
      <trkpt lat="44.17672" lon="5.66054">
        <ele>743</ele>
        <time>2019-06-04T09:06:13Z</time>
      </trkpt>
      <trkpt lat="44.17675" lon="5.66065">
        <ele>742</ele>
        <time>2019-06-04T09:06:14Z</time>
      </trkpt>
      <trkpt lat="44.17678" lon="5.66076">
        <ele>742</ele>
        <time>2019-06-04T09:06:15Z</time>
      </trkpt>
      <trkpt lat="44.17682" lon="5.66087">
        <ele>742</ele>
        <time>2019-06-04T09:06:16Z</time>
      </trkpt>
      <trkpt lat="44.17686" lon="5.66097">
        <ele>742</ele>
        <time>2019-06-04T09:06:17Z</time>
      </trkpt>
      <trkpt lat="44.17691" lon="5.66106">
        <ele>742</ele>
        <time>2019-06-04T09:06:18Z</time>
      </trkpt>
      <trkpt lat="44.17696" lon="5.66115">
        <ele>742</ele>
        <time>2019-06-04T09:06:19Z</time>
      </trkpt>
      <trkpt lat="44.17701" lon="5.66124">
        <ele>742</ele>
        <time>2019-06-04T09:06:20Z</time>
      </trkpt>
      <trkpt lat="44.17705" lon="5.66133">
        <ele>741</ele>
        <time>2019-06-04T09:06:21Z</time>
      </trkpt>
      <trkpt lat="44.17709" lon="5.66143">
        <ele>741</ele>
        <time>2019-06-04T09:06:22Z</time>
      </trkpt>
      <trkpt lat="44.1771" lon="5.66154">
        <ele>741</ele>
        <time>2019-06-04T09:06:23Z</time>
      </trkpt>
      <trkpt lat="44.17709" lon="5.66166">
        <ele>741</ele>
        <time>2019-06-04T09:06:24Z</time>
      </trkpt>
      <trkpt lat="44.17707" lon="5.66177">
        <ele>741</ele>
        <time>2019-06-04T09:06:25Z</time>
      </trkpt>
      <trkpt lat="44.17706" lon="5.66188">
        <ele>741</ele>
        <time>2019-06-04T09:06:26Z</time>
      </trkpt>
      <trkpt lat="44.17707" lon="5.66199">
        <ele>741</ele>
        <time>2019-06-04T09:06:27Z</time>
      </trkpt>
      <trkpt lat="44.17709" lon="5.6621">
        <ele>741</ele>
        <time>2019-06-04T09:06:28Z</time>
      </trkpt>
      <trkpt lat="44.17711" lon="5.6622">
        <ele>740</ele>
        <time>2019-06-04T09:06:29Z</time>
      </trkpt>
      <trkpt lat="44.17715" lon="5.66228">
        <ele>740</ele>
        <time>2019-06-04T09:06:30Z</time>
      </trkpt>
      <trkpt lat="44.17721" lon="5.66235">
        <ele>740</ele>
        <time>2019-06-04T09:06:31Z</time>
      </trkpt>
      <trkpt lat="44.17728" lon="5.6624">
        <ele>739</ele>
        <time>2019-06-04T09:06:32Z</time>
      </trkpt>
      <trkpt lat="44.17736" lon="5.66243">
        <ele>739</ele>
        <time>2019-06-04T09:06:33Z</time>
      </trkpt>
      <trkpt lat="44.17743" lon="5.66243">
        <ele>738</ele>
        <time>2019-06-04T09:06:34Z</time>
      </trkpt>
      <trkpt lat="44.17751" lon="5.66243">
        <ele>738</ele>
        <time>2019-06-04T09:06:35Z</time>
      </trkpt>
      <trkpt lat="44.17757" lon="5.66245">
        <ele>737</ele>
        <time>2019-06-04T09:06:36Z</time>
      </trkpt>
      <trkpt lat="44.17764" lon="5.6625">
        <ele>736</ele>
        <time>2019-06-04T09:06:37Z</time>
      </trkpt>
      <trkpt lat="44.17769" lon="5.66258">
        <ele>736</ele>
        <time>2019-06-04T09:06:38Z</time>
      </trkpt>
      <trkpt lat="44.17773" lon="5.66268">
        <ele>735</ele>
        <time>2019-06-04T09:06:39Z</time>
      </trkpt>
      <trkpt lat="44.17772" lon="5.66279">
        <ele>734</ele>
        <time>2019-06-04T09:06:40Z</time>
      </trkpt>
      <trkpt lat="44.17769" lon="5.6629">
        <ele>734</ele>
        <time>2019-06-04T09:06:41Z</time>
      </trkpt>
      <trkpt lat="44.17765" lon="5.66301">
        <ele>733</ele>
        <time>2019-06-04T09:06:42Z</time>
      </trkpt>
      <trkpt lat="44.1776" lon="5.66312">
        <ele>732</ele>
        <time>2019-06-04T09:06:43Z</time>
      </trkpt>
      <trkpt lat="44.17757" lon="5.66322">
        <ele>732</ele>
        <time>2019-06-04T09:06:44Z</time>
      </trkpt>
      <trkpt lat="44.17753" lon="5.66333">
        <ele>732</ele>
        <time>2019-06-04T09:06:45Z</time>
      </trkpt>
      <trkpt lat="44.1775" lon="5.66344">
        <ele>732</ele>
        <time>2019-06-04T09:06:46Z</time>
      </trkpt>
      <trkpt lat="44.17747" lon="5.66355">
        <ele>732</ele>
        <time>2019-06-04T09:06:47Z</time>
      </trkpt>
      <trkpt lat="44.17744" lon="5.66365">
        <ele>732</ele>
        <time>2019-06-04T09:06:48Z</time>
      </trkpt>
      <trkpt lat="44.17743" lon="5.66375">
        <ele>732</ele>
        <time>2019-06-04T09:06:49Z</time>
      </trkpt>
      <trkpt lat="44.17742" lon="5.66386">
        <ele>732</ele>
        <time>2019-06-04T09:06:50Z</time>
      </trkpt>
      <trkpt lat="44.17744" lon="5.66396">
        <ele>732</ele>
        <time>2019-06-04T09:06:51Z</time>
      </trkpt>
      <trkpt lat="44.17748" lon="5.66404">
        <ele>732</ele>
        <time>2019-06-04T09:06:52Z</time>
      </trkpt>
      <trkpt lat="44.17754" lon="5.66409">
        <ele>731</ele>
        <time>2019-06-04T09:06:53Z</time>
      </trkpt>
      <trkpt lat="44.17762" lon="5.66412">
        <ele>731</ele>
        <time>2019-06-04T09:06:54Z</time>
      </trkpt>
      <trkpt lat="44.17771" lon="5.66412">
        <ele>730</ele>
        <time>2019-06-04T09:06:55Z</time>
      </trkpt>
      <trkpt lat="44.17778" lon="5.66413">
        <ele>730</ele>
        <time>2019-06-04T09:06:56Z</time>
      </trkpt>
      <trkpt lat="44.17785" lon="5.66418">
        <ele>729</ele>
        <time>2019-06-04T09:06:57Z</time>
      </trkpt>
      <trkpt lat="44.17789" lon="5.66427">
        <ele>729</ele>
        <time>2019-06-04T09:06:58Z</time>
      </trkpt>
      <trkpt lat="44.17789" lon="5.66438">
        <ele>729</ele>
        <time>2019-06-04T09:06:59Z</time>
      </trkpt>
      <trkpt lat="44.17787" lon="5.66449">
        <ele>729</ele>
        <time>2019-06-04T09:07:00Z</time>
      </trkpt>
      <trkpt lat="44.17783" lon="5.66458">
        <ele>729</ele>
        <time>2019-06-04T09:07:01Z</time>
      </trkpt>
      <trkpt lat="44.17778" lon="5.66466">
        <ele>728</ele>
        <time>2019-06-04T09:07:02Z</time>
      </trkpt>
      <trkpt lat="44.17774" lon="5.66476">
        <ele>728</ele>
        <time>2019-06-04T09:07:03Z</time>
      </trkpt>
      <trkpt lat="44.1777" lon="5.66487">
        <ele>728</ele>
        <time>2019-06-04T09:07:04Z</time>
      </trkpt>
      <trkpt lat="44.17767" lon="5.66497">
        <ele>727</ele>
        <time>2019-06-04T09:07:05Z</time>
      </trkpt>
      <trkpt lat="44.17764" lon="5.66509">
        <ele>727</ele>
        <time>2019-06-04T09:07:06Z</time>
      </trkpt>
      <trkpt lat="44.17763" lon="5.66521">
        <ele>727</ele>
        <time>2019-06-04T09:07:07Z</time>
      </trkpt>
      <trkpt lat="44.17762" lon="5.66532">
        <ele>727</ele>
        <time>2019-06-04T09:07:08Z</time>
      </trkpt>
      <trkpt lat="44.17761" lon="5.66544">
        <ele>727</ele>
        <time>2019-06-04T09:07:09Z</time>
      </trkpt>
      <trkpt lat="44.17761" lon="5.66556">
        <ele>727</ele>
        <time>2019-06-04T09:07:10Z</time>
      </trkpt>
      <trkpt lat="44.17761" lon="5.66568">
        <ele>727</ele>
        <time>2019-06-04T09:07:11Z</time>
      </trkpt>
      <trkpt lat="44.17761" lon="5.6658">
        <ele>727</ele>
        <time>2019-06-04T09:07:12Z</time>
      </trkpt>
      <trkpt lat="44.17761" lon="5.66592">
        <ele>727</ele>
        <time>2019-06-04T09:07:13Z</time>
      </trkpt>
      <trkpt lat="44.17761" lon="5.66603">
        <ele>727</ele>
        <time>2019-06-04T09:07:14Z</time>
      </trkpt>
      <trkpt lat="44.17761" lon="5.66615">
        <ele>727</ele>
        <time>2019-06-04T09:07:15Z</time>
      </trkpt>
      <trkpt lat="44.17762" lon="5.66627">
        <ele>727</ele>
        <time>2019-06-04T09:07:16Z</time>
      </trkpt>
      <trkpt lat="44.17762" lon="5.66639">
        <ele>727</ele>
        <time>2019-06-04T09:07:17Z</time>
      </trkpt>
      <trkpt lat="44.17764" lon="5.6665">
        <ele>727</ele>
        <time>2019-06-04T09:07:18Z</time>
      </trkpt>
      <trkpt lat="44.17765" lon="5.66662">
        <ele>727</ele>
        <time>2019-06-04T09:07:19Z</time>
      </trkpt>
      <trkpt lat="44.17767" lon="5.66674">
        <ele>727</ele>
        <time>2019-06-04T09:07:20Z</time>
      </trkpt>
      <trkpt lat="44.17767" lon="5.66685">
        <ele>727</ele>
        <time>2019-06-04T09:07:21Z</time>
      </trkpt>
      <trkpt lat="44.17766" lon="5.66698">
        <ele>727</ele>
        <time>2019-06-04T09:07:22Z</time>
      </trkpt>
      <trkpt lat="44.17764" lon="5.66711">
        <ele>727</ele>
        <time>2019-06-04T09:07:23Z</time>
      </trkpt>
      <trkpt lat="44.17762" lon="5.66723">
        <ele>727</ele>
        <time>2019-06-04T09:07:24Z</time>
      </trkpt>
      <trkpt lat="44.1776" lon="5.66736">
        <ele>727</ele>
        <time>2019-06-04T09:07:25Z</time>
      </trkpt>
      <trkpt lat="44.17759" lon="5.66748">
        <ele>727</ele>
        <time>2019-06-04T09:07:26Z</time>
      </trkpt>
      <trkpt lat="44.17759" lon="5.66761">
        <ele>727</ele>
        <time>2019-06-04T09:07:27Z</time>
      </trkpt>
      <trkpt lat="44.1776" lon="5.66773">
        <ele>727</ele>
        <time>2019-06-04T09:07:28Z</time>
      </trkpt>
      <trkpt lat="44.1776" lon="5.66786">
        <ele>727</ele>
        <time>2019-06-04T09:07:29Z</time>
      </trkpt>
      <trkpt lat="44.17761" lon="5.66798">
        <ele>727</ele>
        <time>2019-06-04T09:07:30Z</time>
      </trkpt>
      <trkpt lat="44.1776" lon="5.66811">
        <ele>727</ele>
        <time>2019-06-04T09:07:31Z</time>
      </trkpt>
      <trkpt lat="44.17759" lon="5.66823">
        <ele>727</ele>
        <time>2019-06-04T09:07:32Z</time>
      </trkpt>
      <trkpt lat="44.17757" lon="5.66835">
        <ele>727</ele>
        <time>2019-06-04T09:07:33Z</time>
      </trkpt>
      <trkpt lat="44.17756" lon="5.66847">
        <ele>727</ele>
        <time>2019-06-04T09:07:34Z</time>
      </trkpt>
      <trkpt lat="44.17754" lon="5.66858">
        <ele>727</ele>
        <time>2019-06-04T09:07:35Z</time>
      </trkpt>
      <trkpt lat="44.17751" lon="5.6687">
        <ele>727</ele>
        <time>2019-06-04T09:07:36Z</time>
      </trkpt>
      <trkpt lat="44.17749" lon="5.66882">
        <ele>727</ele>
        <time>2019-06-04T09:07:37Z</time>
      </trkpt>
      <trkpt lat="44.17747" lon="5.66894">
        <ele>727</ele>
        <time>2019-06-04T09:07:38Z</time>
      </trkpt>
      <trkpt lat="44.17745" lon="5.66906">
        <ele>727</ele>
        <time>2019-06-04T09:07:39Z</time>
      </trkpt>
      <trkpt lat="44.17742" lon="5.66917">
        <ele>727</ele>
        <time>2019-06-04T09:07:40Z</time>
      </trkpt>
      <trkpt lat="44.17738" lon="5.66928">
        <ele>727</ele>
        <time>2019-06-04T09:07:41Z</time>
      </trkpt>
      <trkpt lat="44.17733" lon="5.66938">
        <ele>727</ele>
        <time>2019-06-04T09:07:42Z</time>
      </trkpt>
      <trkpt lat="44.17727" lon="5.66948">
        <ele>727</ele>
        <time>2019-06-04T09:07:43Z</time>
      </trkpt>
      <trkpt lat="44.17722" lon="5.66957">
        <ele>726</ele>
        <time>2019-06-04T09:07:44Z</time>
      </trkpt>
      <trkpt lat="44.17718" lon="5.66967">
        <ele>726</ele>
        <time>2019-06-04T09:07:45Z</time>
      </trkpt>
      <trkpt lat="44.17717" lon="5.66979">
        <ele>726</ele>
        <time>2019-06-04T09:07:46Z</time>
      </trkpt>
      <trkpt lat="44.17715" lon="5.6699">
        <ele>725</ele>
        <time>2019-06-04T09:07:47Z</time>
      </trkpt>
      <trkpt lat="44.17716" lon="5.67002">
        <ele>725</ele>
        <time>2019-06-04T09:07:48Z</time>
      </trkpt>
      <trkpt lat="44.17717" lon="5.67014">
        <ele>724</ele>
        <time>2019-06-04T09:07:49Z</time>
      </trkpt>
      <trkpt lat="44.17717" lon="5.67026">
        <ele>723</ele>
        <time>2019-06-04T09:07:50Z</time>
      </trkpt>
      <trkpt lat="44.17716" lon="5.67039">
        <ele>723</ele>
        <time>2019-06-04T09:07:51Z</time>
      </trkpt>
      <trkpt lat="44.17714" lon="5.67052">
        <ele>722</ele>
        <time>2019-06-04T09:07:52Z</time>
      </trkpt>
      <trkpt lat="44.17711" lon="5.67064">
        <ele>721</ele>
        <time>2019-06-04T09:07:53Z</time>
      </trkpt>
      <trkpt lat="44.17707" lon="5.67075">
        <ele>720</ele>
        <time>2019-06-04T09:07:54Z</time>
      </trkpt>
      <trkpt lat="44.17702" lon="5.67086">
        <ele>719</ele>
        <time>2019-06-04T09:07:55Z</time>
      </trkpt>
      <trkpt lat="44.17696" lon="5.67096">
        <ele>719</ele>
        <time>2019-06-04T09:07:56Z</time>
      </trkpt>
      <trkpt lat="44.1769" lon="5.67104">
        <ele>718</ele>
        <time>2019-06-04T09:07:57Z</time>
      </trkpt>
      <trkpt lat="44.17682" lon="5.67111">
        <ele>718</ele>
        <time>2019-06-04T09:07:58Z</time>
      </trkpt>
      <trkpt lat="44.17674" lon="5.67117">
        <ele>718</ele>
        <time>2019-06-04T09:07:59Z</time>
      </trkpt>
      <trkpt lat="44.17666" lon="5.67123">
        <ele>718</ele>
        <time>2019-06-04T09:08:00Z</time>
      </trkpt>
      <trkpt lat="44.17659" lon="5.6713">
        <ele>718</ele>
        <time>2019-06-04T09:08:01Z</time>
      </trkpt>
      <trkpt lat="44.17652" lon="5.67137">
        <ele>718</ele>
        <time>2019-06-04T09:08:02Z</time>
      </trkpt>
      <trkpt lat="44.17645" lon="5.67145">
        <ele>718</ele>
        <time>2019-06-04T09:08:03Z</time>
      </trkpt>
      <trkpt lat="44.17638" lon="5.67154">
        <ele>718</ele>
        <time>2019-06-04T09:08:04Z</time>
      </trkpt>
      <trkpt lat="44.17632" lon="5.67163">
        <ele>718</ele>
        <time>2019-06-04T09:08:05Z</time>
      </trkpt>
      <trkpt lat="44.17626" lon="5.67173">
        <ele>717</ele>
        <time>2019-06-04T09:08:06Z</time>
      </trkpt>
      <trkpt lat="44.17621" lon="5.67183">
        <ele>717</ele>
        <time>2019-06-04T09:08:07Z</time>
      </trkpt>
      <trkpt lat="44.17618" lon="5.67194">
        <ele>716</ele>
        <time>2019-06-04T09:08:08Z</time>
      </trkpt>
      <trkpt lat="44.17614" lon="5.67205">
        <ele>716</ele>
        <time>2019-06-04T09:08:09Z</time>
      </trkpt>
      <trkpt lat="44.17611" lon="5.67217">
        <ele>715</ele>
        <time>2019-06-04T09:08:10Z</time>
      </trkpt>
      <trkpt lat="44.17609" lon="5.67229">
        <ele>715</ele>
        <time>2019-06-04T09:08:11Z</time>
      </trkpt>
      <trkpt lat="44.17607" lon="5.6724">
        <ele>715</ele>
        <time>2019-06-04T09:08:12Z</time>
      </trkpt>
      <trkpt lat="44.17605" lon="5.6725">
        <ele>715</ele>
        <time>2019-06-04T09:08:13Z</time>
      </trkpt>
      <trkpt lat="44.17604" lon="5.67261">
        <ele>715</ele>
        <time>2019-06-04T09:08:14Z</time>
      </trkpt>
      <trkpt lat="44.17602" lon="5.67272">
        <ele>714</ele>
        <time>2019-06-04T09:08:15Z</time>
      </trkpt>
      <trkpt lat="44.17599" lon="5.67282">
        <ele>714</ele>
        <time>2019-06-04T09:08:16Z</time>
      </trkpt>
      <trkpt lat="44.17595" lon="5.67293">
        <ele>714</ele>
        <time>2019-06-04T09:08:17Z</time>
      </trkpt>
      <trkpt lat="44.17591" lon="5.67304">
        <ele>714</ele>
        <time>2019-06-04T09:08:18Z</time>
      </trkpt>
      <trkpt lat="44.17586" lon="5.67315">
        <ele>714</ele>
        <time>2019-06-04T09:08:19Z</time>
      </trkpt>
      <trkpt lat="44.17582" lon="5.67326">
        <ele>714</ele>
        <time>2019-06-04T09:08:20Z</time>
      </trkpt>
      <trkpt lat="44.17577" lon="5.67336">
        <ele>714</ele>
        <time>2019-06-04T09:08:21Z</time>
      </trkpt>
      <trkpt lat="44.17573" lon="5.67347">
        <ele>714</ele>
        <time>2019-06-04T09:08:22Z</time>
      </trkpt>
      <trkpt lat="44.17569" lon="5.67359">
        <ele>714</ele>
        <time>2019-06-04T09:08:23Z</time>
      </trkpt>
      <trkpt lat="44.17566" lon="5.67371">
        <ele>714</ele>
        <time>2019-06-04T09:08:24Z</time>
      </trkpt>
      <trkpt lat="44.17562" lon="5.67383">
        <ele>714</ele>
        <time>2019-06-04T09:08:25Z</time>
      </trkpt>
      <trkpt lat="44.1756" lon="5.67396">
        <ele>713</ele>
        <time>2019-06-04T09:08:26Z</time>
      </trkpt>
      <trkpt lat="44.17558" lon="5.67409">
        <ele>713</ele>
        <time>2019-06-04T09:08:27Z</time>
      </trkpt>
      <trkpt lat="44.17556" lon="5.67422">
        <ele>713</ele>
        <time>2019-06-04T09:08:28Z</time>
      </trkpt>
      <trkpt lat="44.17554" lon="5.67435">
        <ele>713</ele>
        <time>2019-06-04T09:08:29Z</time>
      </trkpt>
      <trkpt lat="44.17552" lon="5.67448">
        <ele>712</ele>
        <time>2019-06-04T09:08:30Z</time>
      </trkpt>
      <trkpt lat="44.17548" lon="5.6746">
        <ele>712</ele>
        <time>2019-06-04T09:08:31Z</time>
      </trkpt>
      <trkpt lat="44.17544" lon="5.67472">
        <ele>712</ele>
        <time>2019-06-04T09:08:32Z</time>
      </trkpt>
      <trkpt lat="44.17539" lon="5.67483">
        <ele>712</ele>
        <time>2019-06-04T09:08:33Z</time>
      </trkpt>
      <trkpt lat="44.17533" lon="5.67493">
        <ele>711</ele>
        <time>2019-06-04T09:08:34Z</time>
      </trkpt>
      <trkpt lat="44.17526" lon="5.67503">
        <ele>711</ele>
        <time>2019-06-04T09:08:35Z</time>
      </trkpt>
      <trkpt lat="44.17519" lon="5.67512">
        <ele>711</ele>
        <time>2019-06-04T09:08:36Z</time>
      </trkpt>
      <trkpt lat="44.17512" lon="5.6752">
        <ele>711</ele>
        <time>2019-06-04T09:08:37Z</time>
      </trkpt>
      <trkpt lat="44.17505" lon="5.67528">
        <ele>710</ele>
        <time>2019-06-04T09:08:38Z</time>
      </trkpt>
      <trkpt lat="44.17498" lon="5.67536">
        <ele>710</ele>
        <time>2019-06-04T09:08:39Z</time>
      </trkpt>
      <trkpt lat="44.1749" lon="5.67544">
        <ele>710</ele>
        <time>2019-06-04T09:08:40Z</time>
      </trkpt>
      <trkpt lat="44.17483" lon="5.67551">
        <ele>709</ele>
        <time>2019-06-04T09:08:41Z</time>
      </trkpt>
      <trkpt lat="44.17476" lon="5.67559">
        <ele>709</ele>
        <time>2019-06-04T09:08:42Z</time>
      </trkpt>
      <trkpt lat="44.17469" lon="5.67567">
        <ele>709</ele>
        <time>2019-06-04T09:08:43Z</time>
      </trkpt>
      <trkpt lat="44.17463" lon="5.67576">
        <ele>708</ele>
        <time>2019-06-04T09:08:44Z</time>
      </trkpt>
      <trkpt lat="44.17456" lon="5.67585">
        <ele>708</ele>
        <time>2019-06-04T09:08:45Z</time>
      </trkpt>
      <trkpt lat="44.1745" lon="5.67594">
        <ele>708</ele>
        <time>2019-06-04T09:08:46Z</time>
      </trkpt>
      <trkpt lat="44.17445" lon="5.67603">
        <ele>708</ele>
        <time>2019-06-04T09:08:47Z</time>
      </trkpt>
      <trkpt lat="44.17439" lon="5.67613">
        <ele>708</ele>
        <time>2019-06-04T09:08:48Z</time>
      </trkpt>
      <trkpt lat="44.17433" lon="5.67622">
        <ele>708</ele>
        <time>2019-06-04T09:08:49Z</time>
      </trkpt>
      <trkpt lat="44.17427" lon="5.67631">
        <ele>707</ele>
        <time>2019-06-04T09:08:50Z</time>
      </trkpt>
      <trkpt lat="44.17422" lon="5.67639">
        <ele>707</ele>
        <time>2019-06-04T09:08:51Z</time>
      </trkpt>
      <trkpt lat="44.17416" lon="5.67648">
        <ele>707</ele>
        <time>2019-06-04T09:08:52Z</time>
      </trkpt>
      <trkpt lat="44.17411" lon="5.67656">
        <ele>707</ele>
        <time>2019-06-04T09:08:53Z</time>
      </trkpt>
      <trkpt lat="44.17405" lon="5.67664">
        <ele>707</ele>
        <time>2019-06-04T09:08:54Z</time>
      </trkpt>
      <trkpt lat="44.174" lon="5.67672">
        <ele>707</ele>
        <time>2019-06-04T09:08:55Z</time>
      </trkpt>
      <trkpt lat="44.17395" lon="5.6768">
        <ele>707</ele>
        <time>2019-06-04T09:08:56Z</time>
      </trkpt>
      <trkpt lat="44.17391" lon="5.67689">
        <ele>707</ele>
        <time>2019-06-04T09:08:57Z</time>
      </trkpt>
      <trkpt lat="44.17389" lon="5.67699">
        <ele>707</ele>
        <time>2019-06-04T09:08:58Z</time>
      </trkpt>
      <trkpt lat="44.17388" lon="5.67709">
        <ele>707</ele>
        <time>2019-06-04T09:08:59Z</time>
      </trkpt>
      <trkpt lat="44.17388" lon="5.67719">
        <ele>706</ele>
        <time>2019-06-04T09:09:00Z</time>
      </trkpt>
      <trkpt lat="44.17389" lon="5.6773">
        <ele>706</ele>
        <time>2019-06-04T09:09:01Z</time>
      </trkpt>
      <trkpt lat="44.1739" lon="5.6774">
        <ele>706</ele>
        <time>2019-06-04T09:09:02Z</time>
      </trkpt>
      <trkpt lat="44.17391" lon="5.6775">
        <ele>706</ele>
        <time>2019-06-04T09:09:03Z</time>
      </trkpt>
      <trkpt lat="44.17393" lon="5.6776">
        <ele>706</ele>
        <time>2019-06-04T09:09:04Z</time>
      </trkpt>
      <trkpt lat="44.17396" lon="5.67769">
        <ele>706</ele>
        <time>2019-06-04T09:09:05Z</time>
      </trkpt>
      <trkpt lat="44.17399" lon="5.67779">
        <ele>706</ele>
        <time>2019-06-04T09:09:06Z</time>
      </trkpt>
      <trkpt lat="44.17402" lon="5.67788">
        <ele>706</ele>
        <time>2019-06-04T09:09:07Z</time>
      </trkpt>
      <trkpt lat="44.17406" lon="5.67797">
        <ele>706</ele>
        <time>2019-06-04T09:09:08Z</time>
      </trkpt>
      <trkpt lat="44.17411" lon="5.67806">
        <ele>705</ele>
        <time>2019-06-04T09:09:09Z</time>
      </trkpt>
      <trkpt lat="44.17416" lon="5.67814">
        <ele>705</ele>
        <time>2019-06-04T09:09:10Z</time>
      </trkpt>
      <trkpt lat="44.17421" lon="5.67823">
        <ele>705</ele>
        <time>2019-06-04T09:09:11Z</time>
      </trkpt>
      <trkpt lat="44.17427" lon="5.67832">
        <ele>705</ele>
        <time>2019-06-04T09:09:12Z</time>
      </trkpt>
      <trkpt lat="44.17432" lon="5.67841">
        <ele>705</ele>
        <time>2019-06-04T09:09:13Z</time>
      </trkpt>
      <trkpt lat="44.17437" lon="5.6785">
        <ele>705</ele>
        <time>2019-06-04T09:09:14Z</time>
      </trkpt>
      <trkpt lat="44.17442" lon="5.67859">
        <ele>705</ele>
        <time>2019-06-04T09:09:15Z</time>
      </trkpt>
      <trkpt lat="44.17446" lon="5.67869">
        <ele>705</ele>
        <time>2019-06-04T09:09:16Z</time>
      </trkpt>
      <trkpt lat="44.17449" lon="5.67879">
        <ele>705</ele>
        <time>2019-06-04T09:09:17Z</time>
      </trkpt>
      <trkpt lat="44.17452" lon="5.67889">
        <ele>705</ele>
        <time>2019-06-04T09:09:18Z</time>
      </trkpt>
      <trkpt lat="44.17455" lon="5.67898">
        <ele>705</ele>
        <time>2019-06-04T09:09:19Z</time>
      </trkpt>
      <trkpt lat="44.17458" lon="5.67907">
        <ele>705</ele>
        <time>2019-06-04T09:09:20Z</time>
      </trkpt>
      <trkpt lat="44.17461" lon="5.67916">
        <ele>705</ele>
        <time>2019-06-04T09:09:21Z</time>
      </trkpt>
      <trkpt lat="44.17463" lon="5.67926">
        <ele>705</ele>
        <time>2019-06-04T09:09:22Z</time>
      </trkpt>
      <trkpt lat="44.17466" lon="5.67935">
        <ele>705</ele>
        <time>2019-06-04T09:09:23Z</time>
      </trkpt>
      <trkpt lat="44.17468" lon="5.67945">
        <ele>705</ele>
        <time>2019-06-04T09:09:24Z</time>
      </trkpt>
      <trkpt lat="44.17471" lon="5.67955">
        <ele>705</ele>
        <time>2019-06-04T09:09:25Z</time>
      </trkpt>
      <trkpt lat="44.17472" lon="5.67966">
        <ele>705</ele>
        <time>2019-06-04T09:09:26Z</time>
      </trkpt>
      <trkpt lat="44.17473" lon="5.67976">
        <ele>705</ele>
        <time>2019-06-04T09:09:27Z</time>
      </trkpt>
      <trkpt lat="44.17473" lon="5.67987">
        <ele>705</ele>
        <time>2019-06-04T09:09:28Z</time>
      </trkpt>
      <trkpt lat="44.17472" lon="5.67998">
        <ele>705</ele>
        <time>2019-06-04T09:09:29Z</time>
      </trkpt>
      <trkpt lat="44.17472" lon="5.68008">
        <ele>705</ele>
        <time>2019-06-04T09:09:30Z</time>
      </trkpt>
      <trkpt lat="44.17471" lon="5.68018">
        <ele>705</ele>
        <time>2019-06-04T09:09:31Z</time>
      </trkpt>
      <trkpt lat="44.1747" lon="5.68029">
        <ele>705</ele>
        <time>2019-06-04T09:09:32Z</time>
      </trkpt>
      <trkpt lat="44.1747" lon="5.68039">
        <ele>705</ele>
        <time>2019-06-04T09:09:33Z</time>
      </trkpt>
      <trkpt lat="44.1747" lon="5.6805">
        <ele>705</ele>
        <time>2019-06-04T09:09:34Z</time>
      </trkpt>
      <trkpt lat="44.17471" lon="5.68061">
        <ele>705</ele>
        <time>2019-06-04T09:09:35Z</time>
      </trkpt>
      <trkpt lat="44.17471" lon="5.68073">
        <ele>705</ele>
        <time>2019-06-04T09:09:36Z</time>
      </trkpt>
      <trkpt lat="44.17471" lon="5.68084">
        <ele>705</ele>
        <time>2019-06-04T09:09:37Z</time>
      </trkpt>
      <trkpt lat="44.17472" lon="5.68096">
        <ele>705</ele>
        <time>2019-06-04T09:09:38Z</time>
      </trkpt>
      <trkpt lat="44.17473" lon="5.68107">
        <ele>705</ele>
        <time>2019-06-04T09:09:39Z</time>
      </trkpt>
      <trkpt lat="44.17473" lon="5.68118">
        <ele>705</ele>
        <time>2019-06-04T09:09:40Z</time>
      </trkpt>
      <trkpt lat="44.17474" lon="5.68129">
        <ele>705</ele>
        <time>2019-06-04T09:09:41Z</time>
      </trkpt>
      <trkpt lat="44.17474" lon="5.6814">
        <ele>705</ele>
        <time>2019-06-04T09:09:42Z</time>
      </trkpt>
      <trkpt lat="44.17474" lon="5.68151">
        <ele>705</ele>
        <time>2019-06-04T09:09:43Z</time>
      </trkpt>
      <trkpt lat="44.17475" lon="5.68161">
        <ele>705</ele>
        <time>2019-06-04T09:09:44Z</time>
      </trkpt>
      <trkpt lat="44.17475" lon="5.68173">
        <ele>704</ele>
        <time>2019-06-04T09:09:45Z</time>
      </trkpt>
      <trkpt lat="44.17476" lon="5.68185">
        <ele>704</ele>
        <time>2019-06-04T09:09:46Z</time>
      </trkpt>
      <trkpt lat="44.17476" lon="5.68198">
        <ele>704</ele>
        <time>2019-06-04T09:09:47Z</time>
      </trkpt>
      <trkpt lat="44.17477" lon="5.6821">
        <ele>703</ele>
        <time>2019-06-04T09:09:48Z</time>
      </trkpt>
      <trkpt lat="44.17478" lon="5.68223">
        <ele>703</ele>
        <time>2019-06-04T09:09:49Z</time>
      </trkpt>
      <trkpt lat="44.17479" lon="5.68236">
        <ele>703</ele>
        <time>2019-06-04T09:09:50Z</time>
      </trkpt>
      <trkpt lat="44.17479" lon="5.6825">
        <ele>702</ele>
        <time>2019-06-04T09:09:51Z</time>
      </trkpt>
      <trkpt lat="44.1748" lon="5.68263">
        <ele>702</ele>
        <time>2019-06-04T09:09:52Z</time>
      </trkpt>
      <trkpt lat="44.17481" lon="5.68277">
        <ele>702</ele>
        <time>2019-06-04T09:09:53Z</time>
      </trkpt>
      <trkpt lat="44.17482" lon="5.68291">
        <ele>701</ele>
        <time>2019-06-04T09:09:54Z</time>
      </trkpt>
      <trkpt lat="44.17482" lon="5.68305">
        <ele>701</ele>
        <time>2019-06-04T09:09:55Z</time>
      </trkpt>
      <trkpt lat="44.17483" lon="5.68319">
        <ele>701</ele>
        <time>2019-06-04T09:09:56Z</time>
      </trkpt>
      <trkpt lat="44.17483" lon="5.68333">
        <ele>700</ele>
        <time>2019-06-04T09:09:57Z</time>
      </trkpt>
      <trkpt lat="44.17483" lon="5.68347">
        <ele>700</ele>
        <time>2019-06-04T09:09:58Z</time>
      </trkpt>
      <trkpt lat="44.17483" lon="5.6836">
        <ele>700</ele>
        <time>2019-06-04T09:09:59Z</time>
      </trkpt>
      <trkpt lat="44.17483" lon="5.68373">
        <ele>699</ele>
        <time>2019-06-04T09:10:00Z</time>
      </trkpt>
      <trkpt lat="44.17483" lon="5.68386">
        <ele>699</ele>
        <time>2019-06-04T09:10:01Z</time>
      </trkpt>
      <trkpt lat="44.17484" lon="5.68397">
        <ele>699</ele>
        <time>2019-06-04T09:10:02Z</time>
      </trkpt>
      <trkpt lat="44.17485" lon="5.68408">
        <ele>699</ele>
        <time>2019-06-04T09:10:03Z</time>
      </trkpt>
      <trkpt lat="44.17488" lon="5.68418">
        <ele>699</ele>
        <time>2019-06-04T09:10:04Z</time>
      </trkpt>
      <trkpt lat="44.17491" lon="5.68426">
        <ele>699</ele>
        <time>2019-06-04T09:10:05Z</time>
      </trkpt>
      <trkpt lat="44.17495" lon="5.68434">
        <ele>699</ele>
        <time>2019-06-04T09:10:06Z</time>
      </trkpt>
      <trkpt lat="44.175" lon="5.68441">
        <ele>698</ele>
        <time>2019-06-04T09:10:07Z</time>
      </trkpt>
      <trkpt lat="44.17503" lon="5.6845">
        <ele>698</ele>
        <time>2019-06-04T09:10:08Z</time>
      </trkpt>
      <trkpt lat="44.17505" lon="5.68459">
        <ele>698</ele>
        <time>2019-06-04T09:10:09Z</time>
      </trkpt>
      <trkpt lat="44.17505" lon="5.6847">
        <ele>698</ele>
        <time>2019-06-04T09:10:10Z</time>
      </trkpt>
      <trkpt lat="44.17503" lon="5.6848">
        <ele>698</ele>
        <time>2019-06-04T09:10:11Z</time>
      </trkpt>
      <trkpt lat="44.17501" lon="5.68492">
        <ele>698</ele>
        <time>2019-06-04T09:10:12Z</time>
      </trkpt>
      <trkpt lat="44.175" lon="5.68503">
        <ele>698</ele>
        <time>2019-06-04T09:10:13Z</time>
      </trkpt>
      <trkpt lat="44.17499" lon="5.68514">
        <ele>698</ele>
        <time>2019-06-04T09:10:14Z</time>
      </trkpt>
      <trkpt lat="44.17498" lon="5.68525">
        <ele>698</ele>
        <time>2019-06-04T09:10:15Z</time>
      </trkpt>
      <trkpt lat="44.17497" lon="5.68535">
        <ele>698</ele>
        <time>2019-06-04T09:10:16Z</time>
      </trkpt>
      <trkpt lat="44.17496" lon="5.68546">
        <ele>698</ele>
        <time>2019-06-04T09:10:17Z</time>
      </trkpt>
      <trkpt lat="44.17496" lon="5.68556">
        <ele>698</ele>
        <time>2019-06-04T09:10:18Z</time>
      </trkpt>
      <trkpt lat="44.17495" lon="5.68566">
        <ele>698</ele>
        <time>2019-06-04T09:10:19Z</time>
      </trkpt>
      <trkpt lat="44.17495" lon="5.68576">
        <ele>698</ele>
        <time>2019-06-04T09:10:20Z</time>
      </trkpt>
      <trkpt lat="44.17495" lon="5.68587">
        <ele>698</ele>
        <time>2019-06-04T09:10:21Z</time>
      </trkpt>
      <trkpt lat="44.17494" lon="5.68598">
        <ele>698</ele>
        <time>2019-06-04T09:10:22Z</time>
      </trkpt>
      <trkpt lat="44.17493" lon="5.68608">
        <ele>697</ele>
        <time>2019-06-04T09:10:23Z</time>
      </trkpt>
      <trkpt lat="44.17492" lon="5.68619">
        <ele>697</ele>
        <time>2019-06-04T09:10:24Z</time>
      </trkpt>
      <trkpt lat="44.17491" lon="5.6863">
        <ele>697</ele>
        <time>2019-06-04T09:10:25Z</time>
      </trkpt>
      <trkpt lat="44.1749" lon="5.68642">
        <ele>697</ele>
        <time>2019-06-04T09:10:26Z</time>
      </trkpt>
      <trkpt lat="44.1749" lon="5.68654">
        <ele>697</ele>
        <time>2019-06-04T09:10:27Z</time>
      </trkpt>
      <trkpt lat="44.17489" lon="5.68666">
        <ele>696</ele>
        <time>2019-06-04T09:10:28Z</time>
      </trkpt>
      <trkpt lat="44.17488" lon="5.68678">
        <ele>695</ele>
        <time>2019-06-04T09:10:29Z</time>
      </trkpt>
      <trkpt lat="44.17487" lon="5.6869">
        <ele>694</ele>
        <time>2019-06-04T09:10:30Z</time>
      </trkpt>
      <trkpt lat="44.17487" lon="5.68703">
        <ele>693</ele>
        <time>2019-06-04T09:10:31Z</time>
      </trkpt>
      <trkpt lat="44.17486" lon="5.68715">
        <ele>692</ele>
        <time>2019-06-04T09:10:32Z</time>
      </trkpt>
      <trkpt lat="44.17485" lon="5.68727">
        <ele>692</ele>
        <time>2019-06-04T09:10:33Z</time>
      </trkpt>
      <trkpt lat="44.17484" lon="5.68739">
        <ele>691</ele>
        <time>2019-06-04T09:10:34Z</time>
      </trkpt>
      <trkpt lat="44.17482" lon="5.68751">
        <ele>691</ele>
        <time>2019-06-04T09:10:35Z</time>
      </trkpt>
      <trkpt lat="44.17482" lon="5.68763">
        <ele>691</ele>
        <time>2019-06-04T09:10:36Z</time>
      </trkpt>
      <trkpt lat="44.17481" lon="5.68775">
        <ele>690</ele>
        <time>2019-06-04T09:10:37Z</time>
      </trkpt>
      <trkpt lat="44.1748" lon="5.68786">
        <ele>690</ele>
        <time>2019-06-04T09:10:38Z</time>
      </trkpt>
      <trkpt lat="44.17479" lon="5.68797">
        <ele>690</ele>
        <time>2019-06-04T09:10:39Z</time>
      </trkpt>
      <trkpt lat="44.17478" lon="5.68809">
        <ele>690</ele>
        <time>2019-06-04T09:10:40Z</time>
      </trkpt>
      <trkpt lat="44.17477" lon="5.6882">
        <ele>690</ele>
        <time>2019-06-04T09:10:41Z</time>
      </trkpt>
      <trkpt lat="44.17477" lon="5.68831">
        <ele>690</ele>
        <time>2019-06-04T09:10:42Z</time>
      </trkpt>
      <trkpt lat="44.17476" lon="5.68843">
        <ele>690</ele>
        <time>2019-06-04T09:10:43Z</time>
      </trkpt>
      <trkpt lat="44.17476" lon="5.68853">
        <ele>690</ele>
        <time>2019-06-04T09:10:44Z</time>
      </trkpt>
      <trkpt lat="44.17475" lon="5.68864">
        <ele>690</ele>
        <time>2019-06-04T09:10:45Z</time>
      </trkpt>
      <trkpt lat="44.17474" lon="5.68874">
        <ele>690</ele>
        <time>2019-06-04T09:10:46Z</time>
      </trkpt>
      <trkpt lat="44.17474" lon="5.68885">
        <ele>690</ele>
        <time>2019-06-04T09:10:47Z</time>
      </trkpt>
      <trkpt lat="44.17473" lon="5.68895">
        <ele>690</ele>
        <time>2019-06-04T09:10:48Z</time>
      </trkpt>
      <trkpt lat="44.17472" lon="5.68905">
        <ele>690</ele>
        <time>2019-06-04T09:10:49Z</time>
      </trkpt>
      <trkpt lat="44.17472" lon="5.68915">
        <ele>690</ele>
        <time>2019-06-04T09:10:50Z</time>
      </trkpt>
      <trkpt lat="44.17471" lon="5.68925">
        <ele>690</ele>
        <time>2019-06-04T09:10:51Z</time>
      </trkpt>
      <trkpt lat="44.1747" lon="5.68935">
        <ele>690</ele>
        <time>2019-06-04T09:10:52Z</time>
      </trkpt>
      <trkpt lat="44.17469" lon="5.68945">
        <ele>690</ele>
        <time>2019-06-04T09:10:53Z</time>
      </trkpt>
      <trkpt lat="44.17469" lon="5.68955">
        <ele>690</ele>
        <time>2019-06-04T09:10:54Z</time>
      </trkpt>
      <trkpt lat="44.17468" lon="5.68965">
        <ele>690</ele>
        <time>2019-06-04T09:10:55Z</time>
      </trkpt>
      <trkpt lat="44.17467" lon="5.68975">
        <ele>690</ele>
        <time>2019-06-04T09:10:56Z</time>
      </trkpt>
      <trkpt lat="44.17466" lon="5.68987">
        <ele>690</ele>
        <time>2019-06-04T09:10:57Z</time>
      </trkpt>
      <trkpt lat="44.17464" lon="5.68999">
        <ele>690</ele>
        <time>2019-06-04T09:10:58Z</time>
      </trkpt>
      <trkpt lat="44.17463" lon="5.69011">
        <ele>690</ele>
        <time>2019-06-04T09:10:59Z</time>
      </trkpt>
      <trkpt lat="44.17461" lon="5.69024">
        <ele>690</ele>
        <time>2019-06-04T09:11:00Z</time>
      </trkpt>
      <trkpt lat="44.17461" lon="5.69036">
        <ele>690</ele>
        <time>2019-06-04T09:11:01Z</time>
      </trkpt>
      <trkpt lat="44.1746" lon="5.69048">
        <ele>690</ele>
        <time>2019-06-04T09:11:02Z</time>
      </trkpt>
      <trkpt lat="44.17459" lon="5.6906">
        <ele>690</ele>
        <time>2019-06-04T09:11:03Z</time>
      </trkpt>
      <trkpt lat="44.17458" lon="5.69072">
        <ele>690</ele>
        <time>2019-06-04T09:11:04Z</time>
      </trkpt>
      <trkpt lat="44.17457" lon="5.69084">
        <ele>690</ele>
        <time>2019-06-04T09:11:05Z</time>
      </trkpt>
      <trkpt lat="44.17456" lon="5.69095">
        <ele>690</ele>
        <time>2019-06-04T09:11:06Z</time>
      </trkpt>
      <trkpt lat="44.17455" lon="5.69106">
        <ele>690</ele>
        <time>2019-06-04T09:11:07Z</time>
      </trkpt>
      <trkpt lat="44.17454" lon="5.69117">
        <ele>690</ele>
        <time>2019-06-04T09:11:08Z</time>
      </trkpt>
      <trkpt lat="44.17453" lon="5.69128">
        <ele>690</ele>
        <time>2019-06-04T09:11:09Z</time>
      </trkpt>
      <trkpt lat="44.17452" lon="5.69138">
        <ele>690</ele>
        <time>2019-06-04T09:11:10Z</time>
      </trkpt>
      <trkpt lat="44.17451" lon="5.69149">
        <ele>690</ele>
        <time>2019-06-04T09:11:11Z</time>
      </trkpt>
      <trkpt lat="44.17451" lon="5.6916">
        <ele>690</ele>
        <time>2019-06-04T09:11:12Z</time>
      </trkpt>
      <trkpt lat="44.1745" lon="5.6917">
        <ele>690</ele>
        <time>2019-06-04T09:11:13Z</time>
      </trkpt>
      <trkpt lat="44.17449" lon="5.69181">
        <ele>690</ele>
        <time>2019-06-04T09:11:14Z</time>
      </trkpt>
      <trkpt lat="44.17449" lon="5.69192">
        <ele>690</ele>
        <time>2019-06-04T09:11:15Z</time>
      </trkpt>
      <trkpt lat="44.17448" lon="5.69204">
        <ele>690</ele>
        <time>2019-06-04T09:11:16Z</time>
      </trkpt>
      <trkpt lat="44.17448" lon="5.69215">
        <ele>690</ele>
        <time>2019-06-04T09:11:17Z</time>
      </trkpt>
      <trkpt lat="44.17447" lon="5.69227">
        <ele>690</ele>
        <time>2019-06-04T09:11:18Z</time>
      </trkpt>
      <trkpt lat="44.17447" lon="5.69239">
        <ele>690</ele>
        <time>2019-06-04T09:11:19Z</time>
      </trkpt>
      <trkpt lat="44.17447" lon="5.6925">
        <ele>690</ele>
        <time>2019-06-04T09:11:20Z</time>
      </trkpt>
      <trkpt lat="44.17446" lon="5.69262">
        <ele>690</ele>
        <time>2019-06-04T09:11:21Z</time>
      </trkpt>
      <trkpt lat="44.17445" lon="5.69273">
        <ele>690</ele>
        <time>2019-06-04T09:11:22Z</time>
      </trkpt>
      <trkpt lat="44.17445" lon="5.69284">
        <ele>690</ele>
        <time>2019-06-04T09:11:23Z</time>
      </trkpt>
      <trkpt lat="44.17444" lon="5.69295">
        <ele>690</ele>
        <time>2019-06-04T09:11:24Z</time>
      </trkpt>
      <trkpt lat="44.17442" lon="5.69305">
        <ele>690</ele>
        <time>2019-06-04T09:11:25Z</time>
      </trkpt>
      <trkpt lat="44.17441" lon="5.69316">
        <ele>690</ele>
        <time>2019-06-04T09:11:26Z</time>
      </trkpt>
      <trkpt lat="44.1744" lon="5.69326">
        <ele>690</ele>
        <time>2019-06-04T09:11:27Z</time>
      </trkpt>
      <trkpt lat="44.17439" lon="5.69336">
        <ele>690</ele>
        <time>2019-06-04T09:11:28Z</time>
      </trkpt>
      <trkpt lat="44.17438" lon="5.69346">
        <ele>690</ele>
        <time>2019-06-04T09:11:29Z</time>
      </trkpt>
      <trkpt lat="44.17436" lon="5.69355">
        <ele>690</ele>
        <time>2019-06-04T09:11:30Z</time>
      </trkpt>
      <trkpt lat="44.17435" lon="5.69363">
        <ele>690</ele>
        <time>2019-06-04T09:11:31Z</time>
      </trkpt>
      <trkpt lat="44.17433" lon="5.69372">
        <ele>690</ele>
        <time>2019-06-04T09:11:32Z</time>
      </trkpt>
      <trkpt lat="44.17431" lon="5.6938">
        <ele>690</ele>
        <time>2019-06-04T09:11:33Z</time>
      </trkpt>
      <trkpt lat="44.17429" lon="5.69388">
        <ele>690</ele>
        <time>2019-06-04T09:11:34Z</time>
      </trkpt>
      <trkpt lat="44.17427" lon="5.69397">
        <ele>690</ele>
        <time>2019-06-04T09:11:35Z</time>
      </trkpt>
      <trkpt lat="44.17425" lon="5.69405">
        <ele>690</ele>
        <time>2019-06-04T09:11:36Z</time>
      </trkpt>
      <trkpt lat="44.17422" lon="5.69414">
        <ele>690</ele>
        <time>2019-06-04T09:11:37Z</time>
      </trkpt>
      <trkpt lat="44.1742" lon="5.69422">
        <ele>690</ele>
        <time>2019-06-04T09:11:38Z</time>
      </trkpt>
      <trkpt lat="44.17417" lon="5.69431">
        <ele>690</ele>
        <time>2019-06-04T09:11:39Z</time>
      </trkpt>
      <trkpt lat="44.17415" lon="5.6944">
        <ele>690</ele>
        <time>2019-06-04T09:11:40Z</time>
      </trkpt>
      <trkpt lat="44.17412" lon="5.69449">
        <ele>690</ele>
        <time>2019-06-04T09:11:41Z</time>
      </trkpt>
      <trkpt lat="44.1741" lon="5.69458">
        <ele>690</ele>
        <time>2019-06-04T09:11:42Z</time>
      </trkpt>
      <trkpt lat="44.17407" lon="5.69467">
        <ele>690</ele>
        <time>2019-06-04T09:11:43Z</time>
      </trkpt>
      <trkpt lat="44.17404" lon="5.69477">
        <ele>690</ele>
        <time>2019-06-04T09:11:44Z</time>
      </trkpt>
      <trkpt lat="44.17402" lon="5.69486">
        <ele>690</ele>
        <time>2019-06-04T09:11:45Z</time>
      </trkpt>
      <trkpt lat="44.17399" lon="5.69495">
        <ele>690</ele>
        <time>2019-06-04T09:11:46Z</time>
      </trkpt>
      <trkpt lat="44.17396" lon="5.69504">
        <ele>690</ele>
        <time>2019-06-04T09:11:47Z</time>
      </trkpt>
      <trkpt lat="44.17393" lon="5.69514">
        <ele>690</ele>
        <time>2019-06-04T09:11:48Z</time>
      </trkpt>
      <trkpt lat="44.1739" lon="5.69523">
        <ele>690</ele>
        <time>2019-06-04T09:11:49Z</time>
      </trkpt>
      <trkpt lat="44.17389" lon="5.69533">
        <ele>690</ele>
        <time>2019-06-04T09:11:50Z</time>
      </trkpt>
      <trkpt lat="44.17387" lon="5.69543">
        <ele>690</ele>
        <time>2019-06-04T09:11:51Z</time>
      </trkpt>
      <trkpt lat="44.17386" lon="5.69553">
        <ele>690</ele>
        <time>2019-06-04T09:11:52Z</time>
      </trkpt>
      <trkpt lat="44.17385" lon="5.69563">
        <ele>690</ele>
        <time>2019-06-04T09:11:53Z</time>
      </trkpt>
      <trkpt lat="44.17386" lon="5.69574">
        <ele>690</ele>
        <time>2019-06-04T09:11:54Z</time>
      </trkpt>
      <trkpt lat="44.17387" lon="5.69585">
        <ele>690</ele>
        <time>2019-06-04T09:11:55Z</time>
      </trkpt>
      <trkpt lat="44.17388" lon="5.69596">
        <ele>690</ele>
        <time>2019-06-04T09:11:56Z</time>
      </trkpt>
      <trkpt lat="44.17389" lon="5.69607">
        <ele>690</ele>
        <time>2019-06-04T09:11:57Z</time>
      </trkpt>
      <trkpt lat="44.1739" lon="5.69619">
        <ele>689</ele>
        <time>2019-06-04T09:11:58Z</time>
      </trkpt>
      <trkpt lat="44.17392" lon="5.6963">
        <ele>689</ele>
        <time>2019-06-04T09:11:59Z</time>
      </trkpt>
      <trkpt lat="44.17393" lon="5.69641">
        <ele>689</ele>
        <time>2019-06-04T09:12:00Z</time>
      </trkpt>
      <trkpt lat="44.17394" lon="5.69653">
        <ele>689</ele>
        <time>2019-06-04T09:12:01Z</time>
      </trkpt>
      <trkpt lat="44.17395" lon="5.69664">
        <ele>689</ele>
        <time>2019-06-04T09:12:02Z</time>
      </trkpt>
      <trkpt lat="44.17396" lon="5.69675">
        <ele>689</ele>
        <time>2019-06-04T09:12:03Z</time>
      </trkpt>
      <trkpt lat="44.17397" lon="5.69686">
        <ele>689</ele>
        <time>2019-06-04T09:12:04Z</time>
      </trkpt>
      <trkpt lat="44.17398" lon="5.69697">
        <ele>689</ele>
        <time>2019-06-04T09:12:05Z</time>
      </trkpt>
      <trkpt lat="44.17398" lon="5.69708">
        <ele>689</ele>
        <time>2019-06-04T09:12:06Z</time>
      </trkpt>
      <trkpt lat="44.17398" lon="5.69719">
        <ele>689</ele>
        <time>2019-06-04T09:12:07Z</time>
      </trkpt>
      <trkpt lat="44.17397" lon="5.6973">
        <ele>689</ele>
        <time>2019-06-04T09:12:08Z</time>
      </trkpt>
      <trkpt lat="44.17396" lon="5.69741">
        <ele>688</ele>
        <time>2019-06-04T09:12:09Z</time>
      </trkpt>
      <trkpt lat="44.17395" lon="5.69752">
        <ele>688</ele>
        <time>2019-06-04T09:12:10Z</time>
      </trkpt>
      <trkpt lat="44.17393" lon="5.69763">
        <ele>688</ele>
        <time>2019-06-04T09:12:11Z</time>
      </trkpt>
      <trkpt lat="44.17392" lon="5.69774">
        <ele>688</ele>
        <time>2019-06-04T09:12:12Z</time>
      </trkpt>
      <trkpt lat="44.1739" lon="5.69786">
        <ele>687</ele>
        <time>2019-06-04T09:12:13Z</time>
      </trkpt>
      <trkpt lat="44.17389" lon="5.69797">
        <ele>687</ele>
        <time>2019-06-04T09:12:14Z</time>
      </trkpt>
      <trkpt lat="44.17388" lon="5.69808">
        <ele>687</ele>
        <time>2019-06-04T09:12:15Z</time>
      </trkpt>
      <trkpt lat="44.17387" lon="5.69819">
        <ele>686</ele>
        <time>2019-06-04T09:12:16Z</time>
      </trkpt>
      <trkpt lat="44.17387" lon="5.69831">
        <ele>686</ele>
        <time>2019-06-04T09:12:17Z</time>
      </trkpt>
      <trkpt lat="44.17387" lon="5.69842">
        <ele>686</ele>
        <time>2019-06-04T09:12:18Z</time>
      </trkpt>
      <trkpt lat="44.17387" lon="5.69854">
        <ele>685</ele>
        <time>2019-06-04T09:12:19Z</time>
      </trkpt>
      <trkpt lat="44.17389" lon="5.69866">
        <ele>684</ele>
        <time>2019-06-04T09:12:20Z</time>
      </trkpt>
      <trkpt lat="44.1739" lon="5.69878">
        <ele>684</ele>
        <time>2019-06-04T09:12:21Z</time>
      </trkpt>
      <trkpt lat="44.17392" lon="5.6989">
        <ele>683</ele>
        <time>2019-06-04T09:12:22Z</time>
      </trkpt>
      <trkpt lat="44.17394" lon="5.69903">
        <ele>683</ele>
        <time>2019-06-04T09:12:23Z</time>
      </trkpt>
      <trkpt lat="44.17397" lon="5.69915">
        <ele>682</ele>
        <time>2019-06-04T09:12:24Z</time>
      </trkpt>
      <trkpt lat="44.17401" lon="5.69927">
        <ele>682</ele>
        <time>2019-06-04T09:12:25Z</time>
      </trkpt>
      <trkpt lat="44.17406" lon="5.69938">
        <ele>681</ele>
        <time>2019-06-04T09:12:26Z</time>
      </trkpt>
      <trkpt lat="44.17413" lon="5.69948">
        <ele>681</ele>
        <time>2019-06-04T09:12:27Z</time>
      </trkpt>
      <trkpt lat="44.1742" lon="5.69957">
        <ele>680</ele>
        <time>2019-06-04T09:12:28Z</time>
      </trkpt>
      <trkpt lat="44.17428" lon="5.69965">
        <ele>679</ele>
        <time>2019-06-04T09:12:29Z</time>
      </trkpt>
      <trkpt lat="44.17436" lon="5.69973">
        <ele>679</ele>
        <time>2019-06-04T09:12:30Z</time>
      </trkpt>
      <trkpt lat="44.17443" lon="5.69981">
        <ele>678</ele>
        <time>2019-06-04T09:12:31Z</time>
      </trkpt>
      <trkpt lat="44.17451" lon="5.69988">
        <ele>678</ele>
        <time>2019-06-04T09:12:32Z</time>
      </trkpt>
      <trkpt lat="44.17458" lon="5.69995">
        <ele>677</ele>
        <time>2019-06-04T09:12:33Z</time>
      </trkpt>
      <trkpt lat="44.17465" lon="5.70003">
        <ele>677</ele>
        <time>2019-06-04T09:12:34Z</time>
      </trkpt>
      <trkpt lat="44.17471" lon="5.7001">
        <ele>677</ele>
        <time>2019-06-04T09:12:35Z</time>
      </trkpt>
      <trkpt lat="44.17477" lon="5.70018">
        <ele>677</ele>
        <time>2019-06-04T09:12:36Z</time>
      </trkpt>
      <trkpt lat="44.17483" lon="5.70026">
        <ele>677</ele>
        <time>2019-06-04T09:12:37Z</time>
      </trkpt>
      <trkpt lat="44.17487" lon="5.70034">
        <ele>677</ele>
        <time>2019-06-04T09:12:38Z</time>
      </trkpt>
      <trkpt lat="44.17492" lon="5.70043">
        <ele>677</ele>
        <time>2019-06-04T09:12:39Z</time>
      </trkpt>
      <trkpt lat="44.17495" lon="5.70051">
        <ele>677</ele>
        <time>2019-06-04T09:12:40Z</time>
      </trkpt>
      <trkpt lat="44.17498" lon="5.7006">
        <ele>677</ele>
        <time>2019-06-04T09:12:41Z</time>
      </trkpt>
      <trkpt lat="44.17501" lon="5.70069">
        <ele>677</ele>
        <time>2019-06-04T09:12:42Z</time>
      </trkpt>
      <trkpt lat="44.17504" lon="5.70078">
        <ele>677</ele>
        <time>2019-06-04T09:12:43Z</time>
      </trkpt>
      <trkpt lat="44.17506" lon="5.70087">
        <ele>677</ele>
        <time>2019-06-04T09:12:44Z</time>
      </trkpt>
      <trkpt lat="44.17507" lon="5.70096">
        <ele>677</ele>
        <time>2019-06-04T09:12:45Z</time>
      </trkpt>
      <trkpt lat="44.17508" lon="5.70105">
        <ele>677</ele>
        <time>2019-06-04T09:12:46Z</time>
      </trkpt>
      <trkpt lat="44.17508" lon="5.70114">
        <ele>677</ele>
        <time>2019-06-04T09:12:47Z</time>
      </trkpt>
      <trkpt lat="44.17509" lon="5.70122">
        <ele>677</ele>
        <time>2019-06-04T09:12:48Z</time>
      </trkpt>
      <trkpt lat="44.17509" lon="5.70131">
        <ele>677</ele>
        <time>2019-06-04T09:12:49Z</time>
      </trkpt>
      <trkpt lat="44.17509" lon="5.70141">
        <ele>677</ele>
        <time>2019-06-04T09:12:50Z</time>
      </trkpt>
      <trkpt lat="44.17509" lon="5.7015">
        <ele>677</ele>
        <time>2019-06-04T09:12:51Z</time>
      </trkpt>
      <trkpt lat="44.17509" lon="5.70159">
        <ele>677</ele>
        <time>2019-06-04T09:12:52Z</time>
      </trkpt>
      <trkpt lat="44.17509" lon="5.70169">
        <ele>677</ele>
        <time>2019-06-04T09:12:53Z</time>
      </trkpt>
      <trkpt lat="44.17508" lon="5.7018">
        <ele>677</ele>
        <time>2019-06-04T09:12:54Z</time>
      </trkpt>
      <trkpt lat="44.17507" lon="5.7019">
        <ele>677</ele>
        <time>2019-06-04T09:12:55Z</time>
      </trkpt>
      <trkpt lat="44.17505" lon="5.70201">
        <ele>677</ele>
        <time>2019-06-04T09:12:56Z</time>
      </trkpt>
      <trkpt lat="44.17502" lon="5.70212">
        <ele>677</ele>
        <time>2019-06-04T09:12:57Z</time>
      </trkpt>
      <trkpt lat="44.175" lon="5.70223">
        <ele>677</ele>
        <time>2019-06-04T09:12:58Z</time>
      </trkpt>
      <trkpt lat="44.17497" lon="5.70235">
        <ele>677</ele>
        <time>2019-06-04T09:12:59Z</time>
      </trkpt>
      <trkpt lat="44.17495" lon="5.70248">
        <ele>677</ele>
        <time>2019-06-04T09:13:00Z</time>
      </trkpt>
      <trkpt lat="44.17493" lon="5.7026">
        <ele>677</ele>
        <time>2019-06-04T09:13:01Z</time>
      </trkpt>
      <trkpt lat="44.17491" lon="5.70272">
        <ele>677</ele>
        <time>2019-06-04T09:13:02Z</time>
      </trkpt>
      <trkpt lat="44.17489" lon="5.70285">
        <ele>677</ele>
        <time>2019-06-04T09:13:03Z</time>
      </trkpt>
      <trkpt lat="44.17488" lon="5.70297">
        <ele>677</ele>
        <time>2019-06-04T09:13:04Z</time>
      </trkpt>
      <trkpt lat="44.17487" lon="5.70309">
        <ele>677</ele>
        <time>2019-06-04T09:13:05Z</time>
      </trkpt>
      <trkpt lat="44.17486" lon="5.70321">
        <ele>677</ele>
        <time>2019-06-04T09:13:06Z</time>
      </trkpt>
      <trkpt lat="44.17486" lon="5.70333">
        <ele>677</ele>
        <time>2019-06-04T09:13:07Z</time>
      </trkpt>
      <trkpt lat="44.17486" lon="5.70345">
        <ele>676</ele>
        <time>2019-06-04T09:13:08Z</time>
      </trkpt>
      <trkpt lat="44.17486" lon="5.70357">
        <ele>676</ele>
        <time>2019-06-04T09:13:09Z</time>
      </trkpt>
      <trkpt lat="44.17486" lon="5.70369">
        <ele>676</ele>
        <time>2019-06-04T09:13:10Z</time>
      </trkpt>
      <trkpt lat="44.17485" lon="5.7038">
        <ele>675</ele>
        <time>2019-06-04T09:13:11Z</time>
      </trkpt>
      <trkpt lat="44.17483" lon="5.70392">
        <ele>674</ele>
        <time>2019-06-04T09:13:12Z</time>
      </trkpt>
      <trkpt lat="44.17481" lon="5.70404">
        <ele>674</ele>
        <time>2019-06-04T09:13:13Z</time>
      </trkpt>
      <trkpt lat="44.17478" lon="5.70416">
        <ele>673</ele>
        <time>2019-06-04T09:13:14Z</time>
      </trkpt>
      <trkpt lat="44.17476" lon="5.70429">
        <ele>673</ele>
        <time>2019-06-04T09:13:15Z</time>
      </trkpt>
      <trkpt lat="44.17474" lon="5.70441">
        <ele>673</ele>
        <time>2019-06-04T09:13:16Z</time>
      </trkpt>
      <trkpt lat="44.17472" lon="5.70454">
        <ele>673</ele>
        <time>2019-06-04T09:13:17Z</time>
      </trkpt>
      <trkpt lat="44.17471" lon="5.70466">
        <ele>673</ele>
        <time>2019-06-04T09:13:18Z</time>
      </trkpt>
      <trkpt lat="44.1747" lon="5.70478">
        <ele>673</ele>
        <time>2019-06-04T09:13:19Z</time>
      </trkpt>
      <trkpt lat="44.17469" lon="5.70491">
        <ele>673</ele>
        <time>2019-06-04T09:13:20Z</time>
      </trkpt>
      <trkpt lat="44.17468" lon="5.70503">
        <ele>673</ele>
        <time>2019-06-04T09:13:21Z</time>
      </trkpt>
      <trkpt lat="44.17467" lon="5.70515">
        <ele>673</ele>
        <time>2019-06-04T09:13:22Z</time>
      </trkpt>
      <trkpt lat="44.17467" lon="5.70527">
        <ele>672</ele>
        <time>2019-06-04T09:13:23Z</time>
      </trkpt>
      <trkpt lat="44.17467" lon="5.70538">
        <ele>672</ele>
        <time>2019-06-04T09:13:24Z</time>
      </trkpt>
      <trkpt lat="44.17467" lon="5.7055">
        <ele>672</ele>
        <time>2019-06-04T09:13:25Z</time>
      </trkpt>
      <trkpt lat="44.17469" lon="5.70561">
        <ele>672</ele>
        <time>2019-06-04T09:13:26Z</time>
      </trkpt>
      <trkpt lat="44.17472" lon="5.70572">
        <ele>671</ele>
        <time>2019-06-04T09:13:27Z</time>
      </trkpt>
      <trkpt lat="44.17476" lon="5.70582">
        <ele>671</ele>
        <time>2019-06-04T09:13:28Z</time>
      </trkpt>
      <trkpt lat="44.1748" lon="5.70593">
        <ele>671</ele>
        <time>2019-06-04T09:13:29Z</time>
      </trkpt>
      <trkpt lat="44.17484" lon="5.70604">
        <ele>671</ele>
        <time>2019-06-04T09:13:30Z</time>
      </trkpt>
      <trkpt lat="44.17487" lon="5.70614">
        <ele>670</ele>
        <time>2019-06-04T09:13:31Z</time>
      </trkpt>
      <trkpt lat="44.17491" lon="5.70624">
        <ele>670</ele>
        <time>2019-06-04T09:13:32Z</time>
      </trkpt>
      <trkpt lat="44.17495" lon="5.70634">
        <ele>670</ele>
        <time>2019-06-04T09:13:33Z</time>
      </trkpt>
      <trkpt lat="44.17499" lon="5.70644">
        <ele>669</ele>
        <time>2019-06-04T09:13:34Z</time>
      </trkpt>
      <trkpt lat="44.17503" lon="5.70653">
        <ele>669</ele>
        <time>2019-06-04T09:13:35Z</time>
      </trkpt>
      <trkpt lat="44.17508" lon="5.70662">
        <ele>669</ele>
        <time>2019-06-04T09:13:36Z</time>
      </trkpt>
      <trkpt lat="44.17513" lon="5.70672">
        <ele>668</ele>
        <time>2019-06-04T09:13:37Z</time>
      </trkpt>
      <trkpt lat="44.17518" lon="5.7068">
        <ele>668</ele>
        <time>2019-06-04T09:13:38Z</time>
      </trkpt>
      <trkpt lat="44.17523" lon="5.70688">
        <ele>668</ele>
        <time>2019-06-04T09:13:39Z</time>
      </trkpt>
      <trkpt lat="44.1753" lon="5.70696">
        <ele>668</ele>
        <time>2019-06-04T09:13:40Z</time>
      </trkpt>
      <trkpt lat="44.17537" lon="5.70702">
        <ele>667</ele>
        <time>2019-06-04T09:13:41Z</time>
      </trkpt>
      <trkpt lat="44.17545" lon="5.70708">
        <ele>667</ele>
        <time>2019-06-04T09:13:42Z</time>
      </trkpt>
      <trkpt lat="44.17553" lon="5.70714">
        <ele>667</ele>
        <time>2019-06-04T09:13:43Z</time>
      </trkpt>
      <trkpt lat="44.17562" lon="5.70719">
        <ele>666</ele>
        <time>2019-06-04T09:13:44Z</time>
      </trkpt>
      <trkpt lat="44.17571" lon="5.70724">
        <ele>666</ele>
        <time>2019-06-04T09:13:45Z</time>
      </trkpt>
      <trkpt lat="44.17579" lon="5.7073">
        <ele>666</ele>
        <time>2019-06-04T09:13:46Z</time>
      </trkpt>
      <trkpt lat="44.17587" lon="5.70739">
        <ele>666</ele>
        <time>2019-06-04T09:13:47Z</time>
      </trkpt>
      <trkpt lat="44.17593" lon="5.70748">
        <ele>666</ele>
        <time>2019-06-04T09:13:48Z</time>
      </trkpt>
      <trkpt lat="44.17599" lon="5.70758">
        <ele>665</ele>
        <time>2019-06-04T09:13:49Z</time>
      </trkpt>
      <trkpt lat="44.17606" lon="5.70768">
        <ele>665</ele>
        <time>2019-06-04T09:13:50Z</time>
      </trkpt>
      <trkpt lat="44.17612" lon="5.70778">
        <ele>665</ele>
        <time>2019-06-04T09:13:51Z</time>
      </trkpt>
      <trkpt lat="44.17619" lon="5.70789">
        <ele>664</ele>
        <time>2019-06-04T09:13:52Z</time>
      </trkpt>
      <trkpt lat="44.17624" lon="5.708">
        <ele>663</ele>
        <time>2019-06-04T09:13:53Z</time>
      </trkpt>
      <trkpt lat="44.17627" lon="5.70812">
        <ele>663</ele>
        <time>2019-06-04T09:13:54Z</time>
      </trkpt>
      <trkpt lat="44.17628" lon="5.70824">
        <ele>662</ele>
        <time>2019-06-04T09:13:55Z</time>
      </trkpt>
      <trkpt lat="44.17627" lon="5.70836">
        <ele>661</ele>
        <time>2019-06-04T09:13:56Z</time>
      </trkpt>
      <trkpt lat="44.17625" lon="5.70848">
        <ele>661</ele>
        <time>2019-06-04T09:13:57Z</time>
      </trkpt>
      <trkpt lat="44.17622" lon="5.7086">
        <ele>661</ele>
        <time>2019-06-04T09:13:58Z</time>
      </trkpt>
      <trkpt lat="44.17619" lon="5.70871">
        <ele>661</ele>
        <time>2019-06-04T09:13:59Z</time>
      </trkpt>
      <trkpt lat="44.17616" lon="5.70882">
        <ele>661</ele>
        <time>2019-06-04T09:14:00Z</time>
      </trkpt>
      <trkpt lat="44.17614" lon="5.70893">
        <ele>661</ele>
        <time>2019-06-04T09:14:01Z</time>
      </trkpt>
      <trkpt lat="44.17611" lon="5.70904">
        <ele>661</ele>
        <time>2019-06-04T09:14:02Z</time>
      </trkpt>
      <trkpt lat="44.17609" lon="5.70916">
        <ele>661</ele>
        <time>2019-06-04T09:14:03Z</time>
      </trkpt>
      <trkpt lat="44.17608" lon="5.70927">
        <ele>661</ele>
        <time>2019-06-04T09:14:04Z</time>
      </trkpt>
      <trkpt lat="44.17607" lon="5.70938">
        <ele>661</ele>
        <time>2019-06-04T09:14:05Z</time>
      </trkpt>
      <trkpt lat="44.17607" lon="5.70951">
        <ele>661</ele>
        <time>2019-06-04T09:14:06Z</time>
      </trkpt>
      <trkpt lat="44.17607" lon="5.70962">
        <ele>661</ele>
        <time>2019-06-04T09:14:07Z</time>
      </trkpt>
      <trkpt lat="44.17606" lon="5.70975">
        <ele>661</ele>
        <time>2019-06-04T09:14:08Z</time>
      </trkpt>
      <trkpt lat="44.17605" lon="5.70987">
        <ele>661</ele>
        <time>2019-06-04T09:14:09Z</time>
      </trkpt>
      <trkpt lat="44.17603" lon="5.70999">
        <ele>661</ele>
        <time>2019-06-04T09:14:10Z</time>
      </trkpt>
      <trkpt lat="44.17601" lon="5.7101">
        <ele>661</ele>
        <time>2019-06-04T09:14:11Z</time>
      </trkpt>
      <trkpt lat="44.17599" lon="5.71021">
        <ele>661</ele>
        <time>2019-06-04T09:14:12Z</time>
      </trkpt>
      <trkpt lat="44.17596" lon="5.71031">
        <ele>661</ele>
        <time>2019-06-04T09:14:13Z</time>
      </trkpt>
      <trkpt lat="44.17593" lon="5.71041">
        <ele>661</ele>
        <time>2019-06-04T09:14:14Z</time>
      </trkpt>
      <trkpt lat="44.1759" lon="5.71051">
        <ele>661</ele>
        <time>2019-06-04T09:14:15Z</time>
      </trkpt>
      <trkpt lat="44.17586" lon="5.71062">
        <ele>661</ele>
        <time>2019-06-04T09:14:16Z</time>
      </trkpt>
      <trkpt lat="44.17582" lon="5.71071">
        <ele>661</ele>
        <time>2019-06-04T09:14:17Z</time>
      </trkpt>
      <trkpt lat="44.17579" lon="5.71081">
        <ele>660</ele>
        <time>2019-06-04T09:14:18Z</time>
      </trkpt>
      <trkpt lat="44.17575" lon="5.71091">
        <ele>660</ele>
        <time>2019-06-04T09:14:19Z</time>
      </trkpt>
      <trkpt lat="44.17572" lon="5.71101">
        <ele>660</ele>
        <time>2019-06-04T09:14:20Z</time>
      </trkpt>
      <trkpt lat="44.17568" lon="5.71111">
        <ele>659</ele>
        <time>2019-06-04T09:14:21Z</time>
      </trkpt>
      <trkpt lat="44.17564" lon="5.7112">
        <ele>659</ele>
        <time>2019-06-04T09:14:22Z</time>
      </trkpt>
      <trkpt lat="44.1756" lon="5.7113">
        <ele>659</ele>
        <time>2019-06-04T09:14:23Z</time>
      </trkpt>
      <trkpt lat="44.17556" lon="5.71139">
        <ele>659</ele>
        <time>2019-06-04T09:14:24Z</time>
      </trkpt>
      <trkpt lat="44.17553" lon="5.71149">
        <ele>659</ele>
        <time>2019-06-04T09:14:25Z</time>
      </trkpt>
      <trkpt lat="44.1755" lon="5.71159">
        <ele>659</ele>
        <time>2019-06-04T09:14:26Z</time>
      </trkpt>
      <trkpt lat="44.17547" lon="5.71168">
        <ele>659</ele>
        <time>2019-06-04T09:14:27Z</time>
      </trkpt>
      <trkpt lat="44.17544" lon="5.71179">
        <ele>659</ele>
        <time>2019-06-04T09:14:28Z</time>
      </trkpt>
      <trkpt lat="44.17541" lon="5.71189">
        <ele>659</ele>
        <time>2019-06-04T09:14:29Z</time>
      </trkpt>
      <trkpt lat="44.17539" lon="5.712">
        <ele>659</ele>
        <time>2019-06-04T09:14:30Z</time>
      </trkpt>
      <trkpt lat="44.17536" lon="5.71211">
        <ele>659</ele>
        <time>2019-06-04T09:14:31Z</time>
      </trkpt>
      <trkpt lat="44.17533" lon="5.71222">
        <ele>659</ele>
        <time>2019-06-04T09:14:32Z</time>
      </trkpt>
      <trkpt lat="44.1753" lon="5.71234">
        <ele>659</ele>
        <time>2019-06-04T09:14:33Z</time>
      </trkpt>
      <trkpt lat="44.17527" lon="5.71245">
        <ele>659</ele>
        <time>2019-06-04T09:14:34Z</time>
      </trkpt>
      <trkpt lat="44.17524" lon="5.71256">
        <ele>659</ele>
        <time>2019-06-04T09:14:35Z</time>
      </trkpt>
      <trkpt lat="44.17522" lon="5.71267">
        <ele>659</ele>
        <time>2019-06-04T09:14:36Z</time>
      </trkpt>
      <trkpt lat="44.17519" lon="5.71278">
        <ele>659</ele>
        <time>2019-06-04T09:14:37Z</time>
      </trkpt>
      <trkpt lat="44.17517" lon="5.71289">
        <ele>659</ele>
        <time>2019-06-04T09:14:38Z</time>
      </trkpt>
      <trkpt lat="44.17515" lon="5.71299">
        <ele>659</ele>
        <time>2019-06-04T09:14:39Z</time>
      </trkpt>
      <trkpt lat="44.17513" lon="5.7131">
        <ele>659</ele>
        <time>2019-06-04T09:14:40Z</time>
      </trkpt>
      <trkpt lat="44.17511" lon="5.71321">
        <ele>659</ele>
        <time>2019-06-04T09:14:41Z</time>
      </trkpt>
      <trkpt lat="44.17509" lon="5.71332">
        <ele>659</ele>
        <time>2019-06-04T09:14:42Z</time>
      </trkpt>
      <trkpt lat="44.17506" lon="5.71343">
        <ele>659</ele>
        <time>2019-06-04T09:14:43Z</time>
      </trkpt>
      <trkpt lat="44.17505" lon="5.71353">
        <ele>659</ele>
        <time>2019-06-04T09:14:44Z</time>
      </trkpt>
      <trkpt lat="44.17503" lon="5.71364">
        <ele>659</ele>
        <time>2019-06-04T09:14:45Z</time>
      </trkpt>
      <trkpt lat="44.17501" lon="5.71375">
        <ele>659</ele>
        <time>2019-06-04T09:14:46Z</time>
      </trkpt>
      <trkpt lat="44.175" lon="5.71385">
        <ele>659</ele>
        <time>2019-06-04T09:14:47Z</time>
      </trkpt>
      <trkpt lat="44.17499" lon="5.71395">
        <ele>659</ele>
        <time>2019-06-04T09:14:48Z</time>
      </trkpt>
      <trkpt lat="44.17497" lon="5.71406">
        <ele>659</ele>
        <time>2019-06-04T09:14:49Z</time>
      </trkpt>
      <trkpt lat="44.17495" lon="5.71416">
        <ele>659</ele>
        <time>2019-06-04T09:14:50Z</time>
      </trkpt>
      <trkpt lat="44.17493" lon="5.71426">
        <ele>659</ele>
        <time>2019-06-04T09:14:51Z</time>
      </trkpt>
      <trkpt lat="44.17492" lon="5.71437">
        <ele>659</ele>
        <time>2019-06-04T09:14:52Z</time>
      </trkpt>
      <trkpt lat="44.1749" lon="5.71447">
        <ele>659</ele>
        <time>2019-06-04T09:14:53Z</time>
      </trkpt>
      <trkpt lat="44.17489" lon="5.71457">
        <ele>659</ele>
        <time>2019-06-04T09:14:54Z</time>
      </trkpt>
      <trkpt lat="44.17487" lon="5.71467">
        <ele>659</ele>
        <time>2019-06-04T09:14:55Z</time>
      </trkpt>
      <trkpt lat="44.17486" lon="5.71476">
        <ele>659</ele>
        <time>2019-06-04T09:14:56Z</time>
      </trkpt>
      <trkpt lat="44.17484" lon="5.71486">
        <ele>659</ele>
        <time>2019-06-04T09:14:57Z</time>
      </trkpt>
      <trkpt lat="44.17482" lon="5.71496">
        <ele>659</ele>
        <time>2019-06-04T09:14:58Z</time>
      </trkpt>
      <trkpt lat="44.17481" lon="5.71506">
        <ele>659</ele>
        <time>2019-06-04T09:14:59Z</time>
      </trkpt>
      <trkpt lat="44.17479" lon="5.71516">
        <ele>659</ele>
        <time>2019-06-04T09:15:00Z</time>
      </trkpt>
      <trkpt lat="44.17477" lon="5.71525">
        <ele>659</ele>
        <time>2019-06-04T09:15:01Z</time>
      </trkpt>
      <trkpt lat="44.17475" lon="5.71534">
        <ele>659</ele>
        <time>2019-06-04T09:15:02Z</time>
      </trkpt>
      <trkpt lat="44.17473" lon="5.71543">
        <ele>659</ele>
        <time>2019-06-04T09:15:03Z</time>
      </trkpt>
      <trkpt lat="44.1747" lon="5.71551">
        <ele>659</ele>
        <time>2019-06-04T09:15:04Z</time>
      </trkpt>
      <trkpt lat="44.17468" lon="5.71559">
        <ele>659</ele>
        <time>2019-06-04T09:15:05Z</time>
      </trkpt>
      <trkpt lat="44.17465" lon="5.71566">
        <ele>659</ele>
        <time>2019-06-04T09:15:06Z</time>
      </trkpt>
      <trkpt lat="44.17463" lon="5.71573">
        <ele>659</ele>
        <time>2019-06-04T09:15:07Z</time>
      </trkpt>
      <trkpt lat="44.17459" lon="5.7158">
        <ele>659</ele>
        <time>2019-06-04T09:15:08Z</time>
      </trkpt>
      <trkpt lat="44.17456" lon="5.71587">
        <ele>659</ele>
        <time>2019-06-04T09:15:09Z</time>
      </trkpt>
      <trkpt lat="44.17453" lon="5.71594">
        <ele>659</ele>
        <time>2019-06-04T09:15:10Z</time>
      </trkpt>
      <trkpt lat="44.1745" lon="5.71601">
        <ele>659</ele>
        <time>2019-06-04T09:15:11Z</time>
      </trkpt>
      <trkpt lat="44.17447" lon="5.71608">
        <ele>659</ele>
        <time>2019-06-04T09:15:12Z</time>
      </trkpt>
      <trkpt lat="44.17443" lon="5.71615">
        <ele>659</ele>
        <time>2019-06-04T09:15:13Z</time>
      </trkpt>
      <trkpt lat="44.1744" lon="5.71621">
        <ele>659</ele>
        <time>2019-06-04T09:15:14Z</time>
      </trkpt>
      <trkpt lat="44.17437" lon="5.71628">
        <ele>659</ele>
        <time>2019-06-04T09:15:15Z</time>
      </trkpt>
      <trkpt lat="44.17434" lon="5.71635">
        <ele>659</ele>
        <time>2019-06-04T09:15:16Z</time>
      </trkpt>
      <trkpt lat="44.17431" lon="5.71642">
        <ele>659</ele>
        <time>2019-06-04T09:15:17Z</time>
      </trkpt>
      <trkpt lat="44.17428" lon="5.7165">
        <ele>659</ele>
        <time>2019-06-04T09:15:18Z</time>
      </trkpt>
      <trkpt lat="44.17425" lon="5.71657">
        <ele>659</ele>
        <time>2019-06-04T09:15:19Z</time>
      </trkpt>
      <trkpt lat="44.17423" lon="5.71665">
        <ele>659</ele>
        <time>2019-06-04T09:15:20Z</time>
      </trkpt>
      <trkpt lat="44.1742" lon="5.71673">
        <ele>659</ele>
        <time>2019-06-04T09:15:21Z</time>
      </trkpt>
      <trkpt lat="44.17418" lon="5.71681">
        <ele>659</ele>
        <time>2019-06-04T09:15:22Z</time>
      </trkpt>
      <trkpt lat="44.17415" lon="5.7169">
        <ele>659</ele>
        <time>2019-06-04T09:15:23Z</time>
      </trkpt>
      <trkpt lat="44.17413" lon="5.71699">
        <ele>659</ele>
        <time>2019-06-04T09:15:24Z</time>
      </trkpt>
      <trkpt lat="44.17411" lon="5.71708">
        <ele>659</ele>
        <time>2019-06-04T09:15:25Z</time>
      </trkpt>
      <trkpt lat="44.1741" lon="5.71718">
        <ele>659</ele>
        <time>2019-06-04T09:15:26Z</time>
      </trkpt>
      <trkpt lat="44.17408" lon="5.71728">
        <ele>659</ele>
        <time>2019-06-04T09:15:27Z</time>
      </trkpt>
      <trkpt lat="44.17407" lon="5.71738">
        <ele>659</ele>
        <time>2019-06-04T09:15:28Z</time>
      </trkpt>
      <trkpt lat="44.17406" lon="5.71749">
        <ele>659</ele>
        <time>2019-06-04T09:15:29Z</time>
      </trkpt>
      <trkpt lat="44.17405" lon="5.7176">
        <ele>659</ele>
        <time>2019-06-04T09:15:30Z</time>
      </trkpt>
      <trkpt lat="44.17404" lon="5.71771">
        <ele>659</ele>
        <time>2019-06-04T09:15:31Z</time>
      </trkpt>
      <trkpt lat="44.17403" lon="5.71782">
        <ele>658</ele>
        <time>2019-06-04T09:15:32Z</time>
      </trkpt>
      <trkpt lat="44.17402" lon="5.71793">
        <ele>658</ele>
        <time>2019-06-04T09:15:33Z</time>
      </trkpt>
      <trkpt lat="44.174" lon="5.71804">
        <ele>657</ele>
        <time>2019-06-04T09:15:34Z</time>
      </trkpt>
      <trkpt lat="44.17398" lon="5.71815">
        <ele>657</ele>
        <time>2019-06-04T09:15:35Z</time>
      </trkpt>
      <trkpt lat="44.17395" lon="5.71826">
        <ele>657</ele>
        <time>2019-06-04T09:15:36Z</time>
      </trkpt>
      <trkpt lat="44.17391" lon="5.71837">
        <ele>657</ele>
        <time>2019-06-04T09:15:37Z</time>
      </trkpt>
      <trkpt lat="44.17387" lon="5.71848">
        <ele>656</ele>
        <time>2019-06-04T09:15:38Z</time>
      </trkpt>
      <trkpt lat="44.17384" lon="5.71859">
        <ele>656</ele>
        <time>2019-06-04T09:15:39Z</time>
      </trkpt>
      <trkpt lat="44.17381" lon="5.71871">
        <ele>655</ele>
        <time>2019-06-04T09:15:40Z</time>
      </trkpt>
      <trkpt lat="44.17378" lon="5.71882">
        <ele>655</ele>
        <time>2019-06-04T09:15:41Z</time>
      </trkpt>
      <trkpt lat="44.17375" lon="5.71895">
        <ele>654</ele>
        <time>2019-06-04T09:15:42Z</time>
      </trkpt>
      <trkpt lat="44.17373" lon="5.71907">
        <ele>654</ele>
        <time>2019-06-04T09:15:43Z</time>
      </trkpt>
      <trkpt lat="44.17371" lon="5.71918">
        <ele>654</ele>
        <time>2019-06-04T09:15:44Z</time>
      </trkpt>
      <trkpt lat="44.17369" lon="5.7193">
        <ele>654</ele>
        <time>2019-06-04T09:15:45Z</time>
      </trkpt>
      <trkpt lat="44.17366" lon="5.71941">
        <ele>654</ele>
        <time>2019-06-04T09:15:46Z</time>
      </trkpt>
      <trkpt lat="44.17365" lon="5.71952">
        <ele>654</ele>
        <time>2019-06-04T09:15:47Z</time>
      </trkpt>
      <trkpt lat="44.17363" lon="5.71964">
        <ele>654</ele>
        <time>2019-06-04T09:15:48Z</time>
      </trkpt>
      <trkpt lat="44.17361" lon="5.71975">
        <ele>654</ele>
        <time>2019-06-04T09:15:49Z</time>
      </trkpt>
      <trkpt lat="44.17359" lon="5.71985">
        <ele>654</ele>
        <time>2019-06-04T09:15:50Z</time>
      </trkpt>
      <trkpt lat="44.17356" lon="5.71996">
        <ele>654</ele>
        <time>2019-06-04T09:15:51Z</time>
      </trkpt>
      <trkpt lat="44.17355" lon="5.72006">
        <ele>654</ele>
        <time>2019-06-04T09:15:52Z</time>
      </trkpt>
      <trkpt lat="44.17353" lon="5.72017">
        <ele>654</ele>
        <time>2019-06-04T09:15:53Z</time>
      </trkpt>
      <trkpt lat="44.17351" lon="5.72027">
        <ele>654</ele>
        <time>2019-06-04T09:15:54Z</time>
      </trkpt>
      <trkpt lat="44.1735" lon="5.72037">
        <ele>654</ele>
        <time>2019-06-04T09:15:55Z</time>
      </trkpt>
      <trkpt lat="44.17348" lon="5.72048">
        <ele>654</ele>
        <time>2019-06-04T09:15:56Z</time>
      </trkpt>
      <trkpt lat="44.17347" lon="5.72058">
        <ele>654</ele>
        <time>2019-06-04T09:15:57Z</time>
      </trkpt>
      <trkpt lat="44.17345" lon="5.72068">
        <ele>654</ele>
        <time>2019-06-04T09:15:58Z</time>
      </trkpt>
      <trkpt lat="44.17343" lon="5.72078">
        <ele>654</ele>
        <time>2019-06-04T09:15:59Z</time>
      </trkpt>
      <trkpt lat="44.17341" lon="5.72089">
        <ele>654</ele>
        <time>2019-06-04T09:16:00Z</time>
      </trkpt>
      <trkpt lat="44.1734" lon="5.72099">
        <ele>654</ele>
        <time>2019-06-04T09:16:01Z</time>
      </trkpt>
      <trkpt lat="44.17338" lon="5.72109">
        <ele>654</ele>
        <time>2019-06-04T09:16:02Z</time>
      </trkpt>
      <trkpt lat="44.17336" lon="5.72119">
        <ele>654</ele>
        <time>2019-06-04T09:16:03Z</time>
      </trkpt>
      <trkpt lat="44.17334" lon="5.72129">
        <ele>654</ele>
        <time>2019-06-04T09:16:04Z</time>
      </trkpt>
      <trkpt lat="44.17332" lon="5.72139">
        <ele>654</ele>
        <time>2019-06-04T09:16:05Z</time>
      </trkpt>
      <trkpt lat="44.17331" lon="5.72148">
        <ele>654</ele>
        <time>2019-06-04T09:16:06Z</time>
      </trkpt>
      <trkpt lat="44.1733" lon="5.72158">
        <ele>654</ele>
        <time>2019-06-04T09:16:07Z</time>
      </trkpt>
      <trkpt lat="44.17328" lon="5.72167">
        <ele>654</ele>
        <time>2019-06-04T09:16:08Z</time>
      </trkpt>
      <trkpt lat="44.17326" lon="5.72177">
        <ele>654</ele>
        <time>2019-06-04T09:16:09Z</time>
      </trkpt>
      <trkpt lat="44.17325" lon="5.72186">
        <ele>654</ele>
        <time>2019-06-04T09:16:10Z</time>
      </trkpt>
      <trkpt lat="44.17323" lon="5.72195">
        <ele>654</ele>
        <time>2019-06-04T09:16:11Z</time>
      </trkpt>
      <trkpt lat="44.17322" lon="5.72205">
        <ele>654</ele>
        <time>2019-06-04T09:16:12Z</time>
      </trkpt>
      <trkpt lat="44.17321" lon="5.72214">
        <ele>654</ele>
        <time>2019-06-04T09:16:13Z</time>
      </trkpt>
      <trkpt lat="44.1732" lon="5.72223">
        <ele>654</ele>
        <time>2019-06-04T09:16:14Z</time>
      </trkpt>
      <trkpt lat="44.17319" lon="5.72232">
        <ele>654</ele>
        <time>2019-06-04T09:16:15Z</time>
      </trkpt>
      <trkpt lat="44.17318" lon="5.72242">
        <ele>654</ele>
        <time>2019-06-04T09:16:16Z</time>
      </trkpt>
      <trkpt lat="44.17318" lon="5.72251">
        <ele>654</ele>
        <time>2019-06-04T09:16:17Z</time>
      </trkpt>
      <trkpt lat="44.17319" lon="5.7226">
        <ele>654</ele>
        <time>2019-06-04T09:16:18Z</time>
      </trkpt>
      <trkpt lat="44.1732" lon="5.72269">
        <ele>654</ele>
        <time>2019-06-04T09:16:19Z</time>
      </trkpt>
      <trkpt lat="44.17321" lon="5.72278">
        <ele>654</ele>
        <time>2019-06-04T09:16:20Z</time>
      </trkpt>
      <trkpt lat="44.17322" lon="5.72287">
        <ele>654</ele>
        <time>2019-06-04T09:16:21Z</time>
      </trkpt>
      <trkpt lat="44.17323" lon="5.72296">
        <ele>654</ele>
        <time>2019-06-04T09:16:22Z</time>
      </trkpt>
      <trkpt lat="44.17324" lon="5.72305">
        <ele>654</ele>
        <time>2019-06-04T09:16:23Z</time>
      </trkpt>
      <trkpt lat="44.17326" lon="5.72314">
        <ele>654</ele>
        <time>2019-06-04T09:16:24Z</time>
      </trkpt>
      <trkpt lat="44.17327" lon="5.72323">
        <ele>654</ele>
        <time>2019-06-04T09:16:25Z</time>
      </trkpt>
      <trkpt lat="44.17328" lon="5.72331">
        <ele>654</ele>
        <time>2019-06-04T09:16:26Z</time>
      </trkpt>
      <trkpt lat="44.17329" lon="5.72341">
        <ele>654</ele>
        <time>2019-06-04T09:16:27Z</time>
      </trkpt>
      <trkpt lat="44.1733" lon="5.7235">
        <ele>654</ele>
        <time>2019-06-04T09:16:28Z</time>
      </trkpt>
      <trkpt lat="44.1733" lon="5.72359">
        <ele>654</ele>
        <time>2019-06-04T09:16:29Z</time>
      </trkpt>
      <trkpt lat="44.17331" lon="5.72369">
        <ele>654</ele>
        <time>2019-06-04T09:16:30Z</time>
      </trkpt>
      <trkpt lat="44.1733" lon="5.72378">
        <ele>654</ele>
        <time>2019-06-04T09:16:31Z</time>
      </trkpt>
      <trkpt lat="44.17329" lon="5.72388">
        <ele>654</ele>
        <time>2019-06-04T09:16:32Z</time>
      </trkpt>
      <trkpt lat="44.17329" lon="5.72397">
        <ele>654</ele>
        <time>2019-06-04T09:16:33Z</time>
      </trkpt>
      <trkpt lat="44.17329" lon="5.72407">
        <ele>654</ele>
        <time>2019-06-04T09:16:34Z</time>
      </trkpt>
      <trkpt lat="44.17329" lon="5.72416">
        <ele>654</ele>
        <time>2019-06-04T09:16:35Z</time>
      </trkpt>
      <trkpt lat="44.17328" lon="5.72425">
        <ele>654</ele>
        <time>2019-06-04T09:16:36Z</time>
      </trkpt>
      <trkpt lat="44.17328" lon="5.72435">
        <ele>654</ele>
        <time>2019-06-04T09:16:37Z</time>
      </trkpt>
      <trkpt lat="44.17328" lon="5.72444">
        <ele>654</ele>
        <time>2019-06-04T09:16:38Z</time>
      </trkpt>
      <trkpt lat="44.17328" lon="5.72454">
        <ele>654</ele>
        <time>2019-06-04T09:16:39Z</time>
      </trkpt>
      <trkpt lat="44.17328" lon="5.72463">
        <ele>654</ele>
        <time>2019-06-04T09:16:40Z</time>
      </trkpt>
      <trkpt lat="44.17327" lon="5.72473">
        <ele>654</ele>
        <time>2019-06-04T09:16:41Z</time>
      </trkpt>
      <trkpt lat="44.17326" lon="5.72483">
        <ele>654</ele>
        <time>2019-06-04T09:16:42Z</time>
      </trkpt>
      <trkpt lat="44.17324" lon="5.72493">
        <ele>654</ele>
        <time>2019-06-04T09:16:43Z</time>
      </trkpt>
      <trkpt lat="44.17322" lon="5.72503">
        <ele>654</ele>
        <time>2019-06-04T09:16:44Z</time>
      </trkpt>
      <trkpt lat="44.1732" lon="5.72513">
        <ele>654</ele>
        <time>2019-06-04T09:16:45Z</time>
      </trkpt>
      <trkpt lat="44.17317" lon="5.72522">
        <ele>654</ele>
        <time>2019-06-04T09:16:46Z</time>
      </trkpt>
      <trkpt lat="44.17315" lon="5.72531">
        <ele>654</ele>
        <time>2019-06-04T09:16:47Z</time>
      </trkpt>
      <trkpt lat="44.17312" lon="5.72541">
        <ele>654</ele>
        <time>2019-06-04T09:16:48Z</time>
      </trkpt>
      <trkpt lat="44.17308" lon="5.7255">
        <ele>654</ele>
        <time>2019-06-04T09:16:49Z</time>
      </trkpt>
      <trkpt lat="44.17306" lon="5.7256">
        <ele>654</ele>
        <time>2019-06-04T09:16:50Z</time>
      </trkpt>
      <trkpt lat="44.17305" lon="5.72571">
        <ele>654</ele>
        <time>2019-06-04T09:16:51Z</time>
      </trkpt>
      <trkpt lat="44.17305" lon="5.72582">
        <ele>654</ele>
        <time>2019-06-04T09:16:52Z</time>
      </trkpt>
      <trkpt lat="44.17305" lon="5.72594">
        <ele>654</ele>
        <time>2019-06-04T09:16:53Z</time>
      </trkpt>
      <trkpt lat="44.17307" lon="5.72605">
        <ele>654</ele>
        <time>2019-06-04T09:16:54Z</time>
      </trkpt>
      <trkpt lat="44.17308" lon="5.72616">
        <ele>654</ele>
        <time>2019-06-04T09:16:55Z</time>
      </trkpt>
      <trkpt lat="44.1731" lon="5.72628">
        <ele>654</ele>
        <time>2019-06-04T09:16:56Z</time>
      </trkpt>
      <trkpt lat="44.17312" lon="5.72639">
        <ele>654</ele>
        <time>2019-06-04T09:16:57Z</time>
      </trkpt>
      <trkpt lat="44.17314" lon="5.72649">
        <ele>654</ele>
        <time>2019-06-04T09:16:58Z</time>
      </trkpt>
      <trkpt lat="44.17316" lon="5.7266">
        <ele>654</ele>
        <time>2019-06-04T09:16:59Z</time>
      </trkpt>
      <trkpt lat="44.17318" lon="5.7267">
        <ele>654</ele>
        <time>2019-06-04T09:17:00Z</time>
      </trkpt>
      <trkpt lat="44.17319" lon="5.7268">
        <ele>654</ele>
        <time>2019-06-04T09:17:01Z</time>
      </trkpt>
      <trkpt lat="44.17322" lon="5.7269">
        <ele>654</ele>
        <time>2019-06-04T09:17:02Z</time>
      </trkpt>
      <trkpt lat="44.17324" lon="5.727">
        <ele>654</ele>
        <time>2019-06-04T09:17:03Z</time>
      </trkpt>
      <trkpt lat="44.17327" lon="5.7271">
        <ele>654</ele>
        <time>2019-06-04T09:17:04Z</time>
      </trkpt>
      <trkpt lat="44.17329" lon="5.72721">
        <ele>654</ele>
        <time>2019-06-04T09:17:05Z</time>
      </trkpt>
      <trkpt lat="44.17331" lon="5.72731">
        <ele>653</ele>
        <time>2019-06-04T09:17:06Z</time>
      </trkpt>
      <trkpt lat="44.17334" lon="5.72743">
        <ele>653</ele>
        <time>2019-06-04T09:17:07Z</time>
      </trkpt>
      <trkpt lat="44.17337" lon="5.72754">
        <ele>652</ele>
        <time>2019-06-04T09:17:08Z</time>
      </trkpt>
      <trkpt lat="44.1734" lon="5.72765">
        <ele>652</ele>
        <time>2019-06-04T09:17:09Z</time>
      </trkpt>
      <trkpt lat="44.17344" lon="5.72777">
        <ele>652</ele>
        <time>2019-06-04T09:17:10Z</time>
      </trkpt>
      <trkpt lat="44.17347" lon="5.72789">
        <ele>651</ele>
        <time>2019-06-04T09:17:11Z</time>
      </trkpt>
      <trkpt lat="44.1735" lon="5.72801">
        <ele>651</ele>
        <time>2019-06-04T09:17:12Z</time>
      </trkpt>
      <trkpt lat="44.17352" lon="5.72814">
        <ele>650</ele>
        <time>2019-06-04T09:17:13Z</time>
      </trkpt>
      <trkpt lat="44.17353" lon="5.72826">
        <ele>650</ele>
        <time>2019-06-04T09:17:14Z</time>
      </trkpt>
      <trkpt lat="44.17354" lon="5.72839">
        <ele>650</ele>
        <time>2019-06-04T09:17:15Z</time>
      </trkpt>
      <trkpt lat="44.17355" lon="5.72852">
        <ele>649</ele>
        <time>2019-06-04T09:17:16Z</time>
      </trkpt>
      <trkpt lat="44.17355" lon="5.72865">
        <ele>649</ele>
        <time>2019-06-04T09:17:17Z</time>
      </trkpt>
      <trkpt lat="44.17355" lon="5.72878">
        <ele>649</ele>
        <time>2019-06-04T09:17:18Z</time>
      </trkpt>
      <trkpt lat="44.17355" lon="5.72891">
        <ele>648</ele>
        <time>2019-06-04T09:17:19Z</time>
      </trkpt>
      <trkpt lat="44.17355" lon="5.72903">
        <ele>648</ele>
        <time>2019-06-04T09:17:20Z</time>
      </trkpt>
      <trkpt lat="44.17356" lon="5.72917">
        <ele>647</ele>
        <time>2019-06-04T09:17:21Z</time>
      </trkpt>
      <trkpt lat="44.17358" lon="5.7293">
        <ele>647</ele>
        <time>2019-06-04T09:17:22Z</time>
      </trkpt>
      <trkpt lat="44.17359" lon="5.72944">
        <ele>646</ele>
        <time>2019-06-04T09:17:23Z</time>
      </trkpt>
      <trkpt lat="44.1736" lon="5.72958">
        <ele>646</ele>
        <time>2019-06-04T09:17:24Z</time>
      </trkpt>
      <trkpt lat="44.1736" lon="5.72972">
        <ele>646</ele>
        <time>2019-06-04T09:17:25Z</time>
      </trkpt>
      <trkpt lat="44.17359" lon="5.72987">
        <ele>646</ele>
        <time>2019-06-04T09:17:26Z</time>
      </trkpt>
      <trkpt lat="44.17357" lon="5.73001">
        <ele>645</ele>
        <time>2019-06-04T09:17:27Z</time>
      </trkpt>
      <trkpt lat="44.17353" lon="5.73014">
        <ele>645</ele>
        <time>2019-06-04T09:17:28Z</time>
      </trkpt>
      <trkpt lat="44.17349" lon="5.73026">
        <ele>645</ele>
        <time>2019-06-04T09:17:29Z</time>
      </trkpt>
      <trkpt lat="44.17345" lon="5.73037">
        <ele>645</ele>
        <time>2019-06-04T09:17:30Z</time>
      </trkpt>
      <trkpt lat="44.1734" lon="5.73048">
        <ele>644</ele>
        <time>2019-06-04T09:17:31Z</time>
      </trkpt>
      <trkpt lat="44.17336" lon="5.7306">
        <ele>644</ele>
        <time>2019-06-04T09:17:32Z</time>
      </trkpt>
      <trkpt lat="44.17333" lon="5.73071">
        <ele>644</ele>
        <time>2019-06-04T09:17:33Z</time>
      </trkpt>
      <trkpt lat="44.17329" lon="5.73083">
        <ele>644</ele>
        <time>2019-06-04T09:17:34Z</time>
      </trkpt>
      <trkpt lat="44.17327" lon="5.73096">
        <ele>643</ele>
        <time>2019-06-04T09:17:35Z</time>
      </trkpt>
      <trkpt lat="44.17324" lon="5.73108">
        <ele>643</ele>
        <time>2019-06-04T09:17:36Z</time>
      </trkpt>
      <trkpt lat="44.17322" lon="5.73121">
        <ele>643</ele>
        <time>2019-06-04T09:17:37Z</time>
      </trkpt>
      <trkpt lat="44.1732" lon="5.73133">
        <ele>642</ele>
        <time>2019-06-04T09:17:38Z</time>
      </trkpt>
      <trkpt lat="44.17318" lon="5.73145">
        <ele>642</ele>
        <time>2019-06-04T09:17:39Z</time>
      </trkpt>
      <trkpt lat="44.17316" lon="5.73158">
        <ele>642</ele>
        <time>2019-06-04T09:17:40Z</time>
      </trkpt>
      <trkpt lat="44.17314" lon="5.7317">
        <ele>642</ele>
        <time>2019-06-04T09:17:41Z</time>
      </trkpt>
      <trkpt lat="44.17312" lon="5.73182">
        <ele>641</ele>
        <time>2019-06-04T09:17:42Z</time>
      </trkpt>
      <trkpt lat="44.1731" lon="5.73193">
        <ele>641</ele>
        <time>2019-06-04T09:17:43Z</time>
      </trkpt>
      <trkpt lat="44.17308" lon="5.73205">
        <ele>641</ele>
        <time>2019-06-04T09:17:44Z</time>
      </trkpt>
      <trkpt lat="44.17306" lon="5.73216">
        <ele>641</ele>
        <time>2019-06-04T09:17:45Z</time>
      </trkpt>
      <trkpt lat="44.17304" lon="5.73228">
        <ele>641</ele>
        <time>2019-06-04T09:17:46Z</time>
      </trkpt>
      <trkpt lat="44.17303" lon="5.73239">
        <ele>641</ele>
        <time>2019-06-04T09:17:47Z</time>
      </trkpt>
      <trkpt lat="44.17302" lon="5.7325">
        <ele>641</ele>
        <time>2019-06-04T09:17:48Z</time>
      </trkpt>
      <trkpt lat="44.17301" lon="5.73262">
        <ele>640</ele>
        <time>2019-06-04T09:17:49Z</time>
      </trkpt>
      <trkpt lat="44.173" lon="5.73273">
        <ele>640</ele>
        <time>2019-06-04T09:17:50Z</time>
      </trkpt>
      <trkpt lat="44.173" lon="5.73284">
        <ele>640</ele>
        <time>2019-06-04T09:17:51Z</time>
      </trkpt>
      <trkpt lat="44.17299" lon="5.73296">
        <ele>640</ele>
        <time>2019-06-04T09:17:52Z</time>
      </trkpt>
      <trkpt lat="44.17299" lon="5.73308">
        <ele>639</ele>
        <time>2019-06-04T09:17:53Z</time>
      </trkpt>
      <trkpt lat="44.17298" lon="5.7332">
        <ele>639</ele>
        <time>2019-06-04T09:17:54Z</time>
      </trkpt>
      <trkpt lat="44.17297" lon="5.73332">
        <ele>639</ele>
        <time>2019-06-04T09:17:55Z</time>
      </trkpt>
      <trkpt lat="44.17297" lon="5.73344">
        <ele>638</ele>
        <time>2019-06-04T09:17:56Z</time>
      </trkpt>
      <trkpt lat="44.17296" lon="5.73356">
        <ele>638</ele>
        <time>2019-06-04T09:17:57Z</time>
      </trkpt>
      <trkpt lat="44.17295" lon="5.73368">
        <ele>638</ele>
        <time>2019-06-04T09:17:58Z</time>
      </trkpt>
      <trkpt lat="44.17294" lon="5.7338">
        <ele>637</ele>
        <time>2019-06-04T09:17:59Z</time>
      </trkpt>
      <trkpt lat="44.17292" lon="5.73392">
        <ele>637</ele>
        <time>2019-06-04T09:18:00Z</time>
      </trkpt>
      <trkpt lat="44.1729" lon="5.73404">
        <ele>637</ele>
        <time>2019-06-04T09:18:01Z</time>
      </trkpt>
      <trkpt lat="44.17289" lon="5.73416">
        <ele>636</ele>
        <time>2019-06-04T09:18:02Z</time>
      </trkpt>
      <trkpt lat="44.17287" lon="5.73428">
        <ele>636</ele>
        <time>2019-06-04T09:18:03Z</time>
      </trkpt>
      <trkpt lat="44.17286" lon="5.7344">
        <ele>636</ele>
        <time>2019-06-04T09:18:04Z</time>
      </trkpt>
      <trkpt lat="44.17284" lon="5.73452">
        <ele>636</ele>
        <time>2019-06-04T09:18:05Z</time>
      </trkpt>
      <trkpt lat="44.17281" lon="5.73463">
        <ele>635</ele>
        <time>2019-06-04T09:18:06Z</time>
      </trkpt>
      <trkpt lat="44.17279" lon="5.73475">
        <ele>635</ele>
        <time>2019-06-04T09:18:07Z</time>
      </trkpt>
      <trkpt lat="44.17276" lon="5.73487">
        <ele>635</ele>
        <time>2019-06-04T09:18:08Z</time>
      </trkpt>
      <trkpt lat="44.17273" lon="5.73497">
        <ele>635</ele>
        <time>2019-06-04T09:18:09Z</time>
      </trkpt>
      <trkpt lat="44.17269" lon="5.73508">
        <ele>634</ele>
        <time>2019-06-04T09:18:10Z</time>
      </trkpt>
      <trkpt lat="44.17265" lon="5.73518">
        <ele>634</ele>
        <time>2019-06-04T09:18:11Z</time>
      </trkpt>
      <trkpt lat="44.17261" lon="5.73528">
        <ele>634</ele>
        <time>2019-06-04T09:18:12Z</time>
      </trkpt>
      <trkpt lat="44.17258" lon="5.73539">
        <ele>634</ele>
        <time>2019-06-04T09:18:13Z</time>
      </trkpt>
      <trkpt lat="44.17255" lon="5.73549">
        <ele>634</ele>
        <time>2019-06-04T09:18:14Z</time>
      </trkpt>
      <trkpt lat="44.17252" lon="5.73559">
        <ele>634</ele>
        <time>2019-06-04T09:18:15Z</time>
      </trkpt>
      <trkpt lat="44.1725" lon="5.7357">
        <ele>634</ele>
        <time>2019-06-04T09:18:16Z</time>
      </trkpt>
      <trkpt lat="44.17247" lon="5.7358">
        <ele>634</ele>
        <time>2019-06-04T09:18:17Z</time>
      </trkpt>
      <trkpt lat="44.17246" lon="5.73591">
        <ele>634</ele>
        <time>2019-06-04T09:18:18Z</time>
      </trkpt>
      <trkpt lat="44.17244" lon="5.73601">
        <ele>634</ele>
        <time>2019-06-04T09:18:19Z</time>
      </trkpt>
      <trkpt lat="44.17243" lon="5.73611">
        <ele>634</ele>
        <time>2019-06-04T09:18:20Z</time>
      </trkpt>
      <trkpt lat="44.17242" lon="5.73622">
        <ele>634</ele>
        <time>2019-06-04T09:18:21Z</time>
      </trkpt>
      <trkpt lat="44.17241" lon="5.73632">
        <ele>634</ele>
        <time>2019-06-04T09:18:22Z</time>
      </trkpt>
      <trkpt lat="44.17239" lon="5.73642">
        <ele>634</ele>
        <time>2019-06-04T09:18:23Z</time>
      </trkpt>
      <trkpt lat="44.17237" lon="5.73652">
        <ele>634</ele>
        <time>2019-06-04T09:18:24Z</time>
      </trkpt>
      <trkpt lat="44.17235" lon="5.73662">
        <ele>634</ele>
        <time>2019-06-04T09:18:25Z</time>
      </trkpt>
      <trkpt lat="44.17232" lon="5.73671">
        <ele>634</ele>
        <time>2019-06-04T09:18:26Z</time>
      </trkpt>
      <trkpt lat="44.17229" lon="5.73681">
        <ele>634</ele>
        <time>2019-06-04T09:18:27Z</time>
      </trkpt>
      <trkpt lat="44.17226" lon="5.73691">
        <ele>634</ele>
        <time>2019-06-04T09:18:28Z</time>
      </trkpt>
      <trkpt lat="44.17223" lon="5.737">
        <ele>634</ele>
        <time>2019-06-04T09:18:29Z</time>
      </trkpt>
      <trkpt lat="44.1722" lon="5.7371">
        <ele>634</ele>
        <time>2019-06-04T09:18:30Z</time>
      </trkpt>
      <trkpt lat="44.17216" lon="5.73719">
        <ele>634</ele>
        <time>2019-06-04T09:18:31Z</time>
      </trkpt>
      <trkpt lat="44.17213" lon="5.73728">
        <ele>634</ele>
        <time>2019-06-04T09:18:32Z</time>
      </trkpt>
      <trkpt lat="44.17209" lon="5.73737">
        <ele>634</ele>
        <time>2019-06-04T09:18:33Z</time>
      </trkpt>
      <trkpt lat="44.17206" lon="5.73745">
        <ele>634</ele>
        <time>2019-06-04T09:18:34Z</time>
      </trkpt>
      <trkpt lat="44.17203" lon="5.73754">
        <ele>634</ele>
        <time>2019-06-04T09:18:35Z</time>
      </trkpt>
      <trkpt lat="44.172" lon="5.73763">
        <ele>634</ele>
        <time>2019-06-04T09:18:36Z</time>
      </trkpt>
      <trkpt lat="44.17197" lon="5.73772">
        <ele>634</ele>
        <time>2019-06-04T09:18:37Z</time>
      </trkpt>
      <trkpt lat="44.17194" lon="5.73781">
        <ele>634</ele>
        <time>2019-06-04T09:18:38Z</time>
      </trkpt>
      <trkpt lat="44.17191" lon="5.7379">
        <ele>634</ele>
        <time>2019-06-04T09:18:39Z</time>
      </trkpt>
      <trkpt lat="44.17187" lon="5.73799">
        <ele>634</ele>
        <time>2019-06-04T09:18:40Z</time>
      </trkpt>
      <trkpt lat="44.17184" lon="5.73808">
        <ele>634</ele>
        <time>2019-06-04T09:18:41Z</time>
      </trkpt>
      <trkpt lat="44.17181" lon="5.73817">
        <ele>634</ele>
        <time>2019-06-04T09:18:42Z</time>
      </trkpt>
      <trkpt lat="44.17178" lon="5.73826">
        <ele>634</ele>
        <time>2019-06-04T09:18:43Z</time>
      </trkpt>
      <trkpt lat="44.17176" lon="5.73836">
        <ele>634</ele>
        <time>2019-06-04T09:18:44Z</time>
      </trkpt>
      <trkpt lat="44.17174" lon="5.73845">
        <ele>634</ele>
        <time>2019-06-04T09:18:45Z</time>
      </trkpt>
      <trkpt lat="44.17172" lon="5.73855">
        <ele>634</ele>
        <time>2019-06-04T09:18:46Z</time>
      </trkpt>
      <trkpt lat="44.1717" lon="5.73864">
        <ele>634</ele>
        <time>2019-06-04T09:18:47Z</time>
      </trkpt>
      <trkpt lat="44.17168" lon="5.73874">
        <ele>634</ele>
        <time>2019-06-04T09:18:48Z</time>
      </trkpt>
      <trkpt lat="44.17167" lon="5.73883">
        <ele>634</ele>
        <time>2019-06-04T09:18:49Z</time>
      </trkpt>
      <trkpt lat="44.17165" lon="5.73892">
        <ele>634</ele>
        <time>2019-06-04T09:18:50Z</time>
      </trkpt>
      <trkpt lat="44.17163" lon="5.73901">
        <ele>634</ele>
        <time>2019-06-04T09:18:51Z</time>
      </trkpt>
      <trkpt lat="44.17162" lon="5.73909">
        <ele>634</ele>
        <time>2019-06-04T09:18:52Z</time>
      </trkpt>
      <trkpt lat="44.1716" lon="5.73918">
        <ele>634</ele>
        <time>2019-06-04T09:18:53Z</time>
      </trkpt>
      <trkpt lat="44.17159" lon="5.73927">
        <ele>634</ele>
        <time>2019-06-04T09:18:54Z</time>
      </trkpt>
      <trkpt lat="44.17157" lon="5.73935">
        <ele>634</ele>
        <time>2019-06-04T09:18:55Z</time>
      </trkpt>
      <trkpt lat="44.17155" lon="5.73944">
        <ele>634</ele>
        <time>2019-06-04T09:18:56Z</time>
      </trkpt>
      <trkpt lat="44.17155" lon="5.73953">
        <ele>634</ele>
        <time>2019-06-04T09:18:57Z</time>
      </trkpt>
      <trkpt lat="44.17154" lon="5.73962">
        <ele>634</ele>
        <time>2019-06-04T09:18:58Z</time>
      </trkpt>
      <trkpt lat="44.17155" lon="5.73971">
        <ele>634</ele>
        <time>2019-06-04T09:18:59Z</time>
      </trkpt>
      <trkpt lat="44.17155" lon="5.73981">
        <ele>634</ele>
        <time>2019-06-04T09:19:00Z</time>
      </trkpt>
      <trkpt lat="44.17154" lon="5.7399">
        <ele>634</ele>
        <time>2019-06-04T09:19:01Z</time>
      </trkpt>
      <trkpt lat="44.17154" lon="5.74">
        <ele>634</ele>
        <time>2019-06-04T09:19:02Z</time>
      </trkpt>
      <trkpt lat="44.17154" lon="5.74009">
        <ele>634</ele>
        <time>2019-06-04T09:19:03Z</time>
      </trkpt>
      <trkpt lat="44.17154" lon="5.74019">
        <ele>634</ele>
        <time>2019-06-04T09:19:04Z</time>
      </trkpt>
      <trkpt lat="44.17153" lon="5.74029">
        <ele>634</ele>
        <time>2019-06-04T09:19:05Z</time>
      </trkpt>
      <trkpt lat="44.17153" lon="5.74039">
        <ele>634</ele>
        <time>2019-06-04T09:19:06Z</time>
      </trkpt>
      <trkpt lat="44.17152" lon="5.74049">
        <ele>634</ele>
        <time>2019-06-04T09:19:07Z</time>
      </trkpt>
      <trkpt lat="44.17152" lon="5.74058">
        <ele>634</ele>
        <time>2019-06-04T09:19:08Z</time>
      </trkpt>
      <trkpt lat="44.1715" lon="5.74069">
        <ele>633</ele>
        <time>2019-06-04T09:19:09Z</time>
      </trkpt>
      <trkpt lat="44.17149" lon="5.74079">
        <ele>633</ele>
        <time>2019-06-04T09:19:10Z</time>
      </trkpt>
      <trkpt lat="44.17147" lon="5.74088">
        <ele>633</ele>
        <time>2019-06-04T09:19:11Z</time>
      </trkpt>
      <trkpt lat="44.17145" lon="5.74097">
        <ele>633</ele>
        <time>2019-06-04T09:19:12Z</time>
      </trkpt>
      <trkpt lat="44.17141" lon="5.74105">
        <ele>632</ele>
        <time>2019-06-04T09:19:13Z</time>
      </trkpt>
      <trkpt lat="44.17138" lon="5.74114">
        <ele>632</ele>
        <time>2019-06-04T09:19:14Z</time>
      </trkpt>
      <trkpt lat="44.17133" lon="5.74122">
        <ele>632</ele>
        <time>2019-06-04T09:19:15Z</time>
      </trkpt>
      <trkpt lat="44.17129" lon="5.7413">
        <ele>631</ele>
        <time>2019-06-04T09:19:16Z</time>
      </trkpt>
      <trkpt lat="44.17124" lon="5.74138">
        <ele>631</ele>
        <time>2019-06-04T09:19:17Z</time>
      </trkpt>
      <trkpt lat="44.17119" lon="5.74146">
        <ele>631</ele>
        <time>2019-06-04T09:19:18Z</time>
      </trkpt>
      <trkpt lat="44.17113" lon="5.74153">
        <ele>631</ele>
        <time>2019-06-04T09:19:19Z</time>
      </trkpt>
      <trkpt lat="44.17107" lon="5.7416">
        <ele>631</ele>
        <time>2019-06-04T09:19:20Z</time>
      </trkpt>
      <trkpt lat="44.17102" lon="5.74167">
        <ele>631</ele>
        <time>2019-06-04T09:19:21Z</time>
      </trkpt>
      <trkpt lat="44.17096" lon="5.74176">
        <ele>631</ele>
        <time>2019-06-04T09:19:22Z</time>
      </trkpt>
      <trkpt lat="44.17089" lon="5.74185">
        <ele>631</ele>
        <time>2019-06-04T09:19:23Z</time>
      </trkpt>
      <trkpt lat="44.17083" lon="5.74193">
        <ele>631</ele>
        <time>2019-06-04T09:19:24Z</time>
      </trkpt>
      <trkpt lat="44.17078" lon="5.74201">
        <ele>631</ele>
        <time>2019-06-04T09:19:25Z</time>
      </trkpt>
      <trkpt lat="44.17072" lon="5.74209">
        <ele>631</ele>
        <time>2019-06-04T09:19:26Z</time>
      </trkpt>
      <trkpt lat="44.17066" lon="5.74215">
        <ele>631</ele>
        <time>2019-06-04T09:19:27Z</time>
      </trkpt>
      <trkpt lat="44.1706" lon="5.74221">
        <ele>631</ele>
        <time>2019-06-04T09:19:28Z</time>
      </trkpt>
      <trkpt lat="44.17054" lon="5.74226">
        <ele>631</ele>
        <time>2019-06-04T09:19:29Z</time>
      </trkpt>
      <trkpt lat="44.17048" lon="5.74231">
        <ele>631</ele>
        <time>2019-06-04T09:19:30Z</time>
      </trkpt>
      <trkpt lat="44.17042" lon="5.74235">
        <ele>631</ele>
        <time>2019-06-04T09:19:31Z</time>
      </trkpt>
      <trkpt lat="44.17037" lon="5.7424">
        <ele>631</ele>
        <time>2019-06-04T09:19:32Z</time>
      </trkpt>
      <trkpt lat="44.17032" lon="5.74246">
        <ele>631</ele>
        <time>2019-06-04T09:19:33Z</time>
      </trkpt>
      <trkpt lat="44.17027" lon="5.74251">
        <ele>631</ele>
        <time>2019-06-04T09:19:34Z</time>
      </trkpt>
      <trkpt lat="44.17022" lon="5.74256">
        <ele>631</ele>
        <time>2019-06-04T09:19:35Z</time>
      </trkpt>
      <trkpt lat="44.17016" lon="5.74261">
        <ele>631</ele>
        <time>2019-06-04T09:19:36Z</time>
      </trkpt>
      <trkpt lat="44.17011" lon="5.74265">
        <ele>631</ele>
        <time>2019-06-04T09:19:37Z</time>
      </trkpt>
      <trkpt lat="44.17006" lon="5.74269">
        <ele>631</ele>
        <time>2019-06-04T09:19:38Z</time>
      </trkpt>
      <trkpt lat="44.17" lon="5.74273">
        <ele>631</ele>
        <time>2019-06-04T09:19:39Z</time>
      </trkpt>
      <trkpt lat="44.16995" lon="5.74278">
        <ele>631</ele>
        <time>2019-06-04T09:19:40Z</time>
      </trkpt>
      <trkpt lat="44.1699" lon="5.74284">
        <ele>631</ele>
        <time>2019-06-04T09:19:41Z</time>
      </trkpt>
      <trkpt lat="44.16985" lon="5.74289">
        <ele>631</ele>
        <time>2019-06-04T09:19:42Z</time>
      </trkpt>
      <trkpt lat="44.1698" lon="5.74294">
        <ele>631</ele>
        <time>2019-06-04T09:19:43Z</time>
      </trkpt>
      <trkpt lat="44.16974" lon="5.743">
        <ele>631</ele>
        <time>2019-06-04T09:19:44Z</time>
      </trkpt>
      <trkpt lat="44.16969" lon="5.74305">
        <ele>631</ele>
        <time>2019-06-04T09:19:45Z</time>
      </trkpt>
      <trkpt lat="44.16964" lon="5.7431">
        <ele>631</ele>
        <time>2019-06-04T09:19:46Z</time>
      </trkpt>
      <trkpt lat="44.16959" lon="5.74315">
        <ele>631</ele>
        <time>2019-06-04T09:19:47Z</time>
      </trkpt>
      <trkpt lat="44.16953" lon="5.74321">
        <ele>631</ele>
        <time>2019-06-04T09:19:48Z</time>
      </trkpt>
      <trkpt lat="44.16948" lon="5.74327">
        <ele>631</ele>
        <time>2019-06-04T09:19:49Z</time>
      </trkpt>
      <trkpt lat="44.16943" lon="5.74333">
        <ele>631</ele>
        <time>2019-06-04T09:19:50Z</time>
      </trkpt>
      <trkpt lat="44.16938" lon="5.74339">
        <ele>631</ele>
        <time>2019-06-04T09:19:51Z</time>
      </trkpt>
      <trkpt lat="44.16933" lon="5.74345">
        <ele>631</ele>
        <time>2019-06-04T09:19:52Z</time>
      </trkpt>
      <trkpt lat="44.16927" lon="5.74351">
        <ele>631</ele>
        <time>2019-06-04T09:19:53Z</time>
      </trkpt>
      <trkpt lat="44.16922" lon="5.74357">
        <ele>631</ele>
        <time>2019-06-04T09:19:54Z</time>
      </trkpt>
      <trkpt lat="44.16917" lon="5.74362">
        <ele>631</ele>
        <time>2019-06-04T09:19:55Z</time>
      </trkpt>
      <trkpt lat="44.16911" lon="5.74368">
        <ele>631</ele>
        <time>2019-06-04T09:19:56Z</time>
      </trkpt>
      <trkpt lat="44.16906" lon="5.74373">
        <ele>631</ele>
        <time>2019-06-04T09:19:57Z</time>
      </trkpt>
      <trkpt lat="44.16901" lon="5.74378">
        <ele>631</ele>
        <time>2019-06-04T09:19:58Z</time>
      </trkpt>
      <trkpt lat="44.16896" lon="5.74383">
        <ele>631</ele>
        <time>2019-06-04T09:19:59Z</time>
      </trkpt>
      <trkpt lat="44.16891" lon="5.74388">
        <ele>631</ele>
        <time>2019-06-04T09:20:00Z</time>
      </trkpt>
      <trkpt lat="44.16887" lon="5.74393">
        <ele>631</ele>
        <time>2019-06-04T09:20:01Z</time>
      </trkpt>
      <trkpt lat="44.16883" lon="5.74399">
        <ele>631</ele>
        <time>2019-06-04T09:20:02Z</time>
      </trkpt>
      <trkpt lat="44.16879" lon="5.74405">
        <ele>630</ele>
        <time>2019-06-04T09:20:03Z</time>
      </trkpt>
      <trkpt lat="44.16876" lon="5.74412">
        <ele>630</ele>
        <time>2019-06-04T09:20:04Z</time>
      </trkpt>
      <trkpt lat="44.16872" lon="5.7442">
        <ele>629</ele>
        <time>2019-06-04T09:20:05Z</time>
      </trkpt>
      <trkpt lat="44.16868" lon="5.74428">
        <ele>629</ele>
        <time>2019-06-04T09:20:06Z</time>
      </trkpt>
      <trkpt lat="44.16864" lon="5.74436">
        <ele>629</ele>
        <time>2019-06-04T09:20:07Z</time>
      </trkpt>
      <trkpt lat="44.16859" lon="5.74443">
        <ele>629</ele>
        <time>2019-06-04T09:20:08Z</time>
      </trkpt>
      <trkpt lat="44.16856" lon="5.74451">
        <ele>629</ele>
        <time>2019-06-04T09:20:09Z</time>
      </trkpt>
      <trkpt lat="44.16853" lon="5.74459">
        <ele>629</ele>
        <time>2019-06-04T09:20:10Z</time>
      </trkpt>
      <trkpt lat="44.1685" lon="5.74467">
        <ele>629</ele>
        <time>2019-06-04T09:20:11Z</time>
      </trkpt>
      <trkpt lat="44.16846" lon="5.74475">
        <ele>629</ele>
        <time>2019-06-04T09:20:12Z</time>
      </trkpt>
      <trkpt lat="44.16843" lon="5.74483">
        <ele>629</ele>
        <time>2019-06-04T09:20:13Z</time>
      </trkpt>
      <trkpt lat="44.16839" lon="5.74491">
        <ele>629</ele>
        <time>2019-06-04T09:20:14Z</time>
      </trkpt>
      <trkpt lat="44.16836" lon="5.74499">
        <ele>629</ele>
        <time>2019-06-04T09:20:15Z</time>
      </trkpt>
      <trkpt lat="44.16833" lon="5.74507">
        <ele>629</ele>
        <time>2019-06-04T09:20:16Z</time>
      </trkpt>
      <trkpt lat="44.16829" lon="5.74515">
        <ele>629</ele>
        <time>2019-06-04T09:20:17Z</time>
      </trkpt>
      <trkpt lat="44.16826" lon="5.74523">
        <ele>629</ele>
        <time>2019-06-04T09:20:18Z</time>
      </trkpt>
      <trkpt lat="44.16823" lon="5.74532">
        <ele>629</ele>
        <time>2019-06-04T09:20:19Z</time>
      </trkpt>
      <trkpt lat="44.16821" lon="5.74541">
        <ele>629</ele>
        <time>2019-06-04T09:20:20Z</time>
      </trkpt>
      <trkpt lat="44.16817" lon="5.7455">
        <ele>629</ele>
        <time>2019-06-04T09:20:21Z</time>
      </trkpt>
      <trkpt lat="44.16815" lon="5.7456">
        <ele>629</ele>
        <time>2019-06-04T09:20:22Z</time>
      </trkpt>
      <trkpt lat="44.16812" lon="5.7457">
        <ele>629</ele>
        <time>2019-06-04T09:20:23Z</time>
      </trkpt>
      <trkpt lat="44.1681" lon="5.7458">
        <ele>629</ele>
        <time>2019-06-04T09:20:24Z</time>
      </trkpt>
      <trkpt lat="44.16807" lon="5.74591">
        <ele>629</ele>
        <time>2019-06-04T09:20:25Z</time>
      </trkpt>
      <trkpt lat="44.16805" lon="5.74602">
        <ele>628</ele>
        <time>2019-06-04T09:20:26Z</time>
      </trkpt>
      <trkpt lat="44.16804" lon="5.74614">
        <ele>628</ele>
        <time>2019-06-04T09:20:27Z</time>
      </trkpt>
      <trkpt lat="44.16804" lon="5.74624">
        <ele>627</ele>
        <time>2019-06-04T09:20:28Z</time>
      </trkpt>
      <trkpt lat="44.16803" lon="5.74636">
        <ele>627</ele>
        <time>2019-06-04T09:20:29Z</time>
      </trkpt>
      <trkpt lat="44.16803" lon="5.74648">
        <ele>626</ele>
        <time>2019-06-04T09:20:30Z</time>
      </trkpt>
      <trkpt lat="44.16803" lon="5.7466">
        <ele>626</ele>
        <time>2019-06-04T09:20:31Z</time>
      </trkpt>
      <trkpt lat="44.16803" lon="5.74672">
        <ele>625</ele>
        <time>2019-06-04T09:20:32Z</time>
      </trkpt>
      <trkpt lat="44.16803" lon="5.74684">
        <ele>625</ele>
        <time>2019-06-04T09:20:33Z</time>
      </trkpt>
      <trkpt lat="44.16803" lon="5.74696">
        <ele>624</ele>
        <time>2019-06-04T09:20:34Z</time>
      </trkpt>
      <trkpt lat="44.16802" lon="5.74708">
        <ele>624</ele>
        <time>2019-06-04T09:20:35Z</time>
      </trkpt>
      <trkpt lat="44.16801" lon="5.74721">
        <ele>623</ele>
        <time>2019-06-04T09:20:36Z</time>
      </trkpt>
      <trkpt lat="44.16799" lon="5.74733">
        <ele>623</ele>
        <time>2019-06-04T09:20:37Z</time>
      </trkpt>
      <trkpt lat="44.16796" lon="5.74744">
        <ele>623</ele>
        <time>2019-06-04T09:20:38Z</time>
      </trkpt>
      <trkpt lat="44.16794" lon="5.74755">
        <ele>623</ele>
        <time>2019-06-04T09:20:39Z</time>
      </trkpt>
      <trkpt lat="44.16792" lon="5.74766">
        <ele>623</ele>
        <time>2019-06-04T09:20:40Z</time>
      </trkpt>
      <trkpt lat="44.16788" lon="5.74777">
        <ele>623</ele>
        <time>2019-06-04T09:20:41Z</time>
      </trkpt>
      <trkpt lat="44.16784" lon="5.74786">
        <ele>622</ele>
        <time>2019-06-04T09:20:42Z</time>
      </trkpt>
      <trkpt lat="44.1678" lon="5.74796">
        <ele>622</ele>
        <time>2019-06-04T09:20:43Z</time>
      </trkpt>
      <trkpt lat="44.16777" lon="5.74807">
        <ele>622</ele>
        <time>2019-06-04T09:20:44Z</time>
      </trkpt>
      <trkpt lat="44.16773" lon="5.74818">
        <ele>622</ele>
        <time>2019-06-04T09:20:45Z</time>
      </trkpt>
      <trkpt lat="44.1677" lon="5.74829">
        <ele>621</ele>
        <time>2019-06-04T09:20:46Z</time>
      </trkpt>
      <trkpt lat="44.16766" lon="5.7484">
        <ele>621</ele>
        <time>2019-06-04T09:20:47Z</time>
      </trkpt>
      <trkpt lat="44.16764" lon="5.74851">
        <ele>621</ele>
        <time>2019-06-04T09:20:48Z</time>
      </trkpt>
      <trkpt lat="44.1676" lon="5.74862">
        <ele>621</ele>
        <time>2019-06-04T09:20:49Z</time>
      </trkpt>
      <trkpt lat="44.16757" lon="5.74873">
        <ele>621</ele>
        <time>2019-06-04T09:20:50Z</time>
      </trkpt>
      <trkpt lat="44.16754" lon="5.74884">
        <ele>621</ele>
        <time>2019-06-04T09:20:51Z</time>
      </trkpt>
      <trkpt lat="44.16752" lon="5.74895">
        <ele>621</ele>
        <time>2019-06-04T09:20:52Z</time>
      </trkpt>
      <trkpt lat="44.1675" lon="5.74907">
        <ele>621</ele>
        <time>2019-06-04T09:20:53Z</time>
      </trkpt>
      <trkpt lat="44.16748" lon="5.74918">
        <ele>621</ele>
        <time>2019-06-04T09:20:54Z</time>
      </trkpt>
      <trkpt lat="44.16748" lon="5.74929">
        <ele>621</ele>
        <time>2019-06-04T09:20:55Z</time>
      </trkpt>
      <trkpt lat="44.16749" lon="5.7494">
        <ele>621</ele>
        <time>2019-06-04T09:20:56Z</time>
      </trkpt>
      <trkpt lat="44.1675" lon="5.74951">
        <ele>621</ele>
        <time>2019-06-04T09:20:57Z</time>
      </trkpt>
      <trkpt lat="44.16752" lon="5.74962">
        <ele>621</ele>
        <time>2019-06-04T09:20:58Z</time>
      </trkpt>
      <trkpt lat="44.16754" lon="5.74972">
        <ele>621</ele>
        <time>2019-06-04T09:20:59Z</time>
      </trkpt>
      <trkpt lat="44.16757" lon="5.74983">
        <ele>621</ele>
        <time>2019-06-04T09:21:00Z</time>
      </trkpt>
      <trkpt lat="44.1676" lon="5.74993">
        <ele>621</ele>
        <time>2019-06-04T09:21:01Z</time>
      </trkpt>
      <trkpt lat="44.16764" lon="5.75003">
        <ele>621</ele>
        <time>2019-06-04T09:21:02Z</time>
      </trkpt>
      <trkpt lat="44.16767" lon="5.75013">
        <ele>621</ele>
        <time>2019-06-04T09:21:03Z</time>
      </trkpt>
      <trkpt lat="44.16771" lon="5.75022">
        <ele>621</ele>
        <time>2019-06-04T09:21:04Z</time>
      </trkpt>
      <trkpt lat="44.16776" lon="5.75029">
        <ele>621</ele>
        <time>2019-06-04T09:21:05Z</time>
      </trkpt>
      <trkpt lat="44.16781" lon="5.75036">
        <ele>621</ele>
        <time>2019-06-04T09:21:06Z</time>
      </trkpt>
      <trkpt lat="44.16787" lon="5.75042">
        <ele>621</ele>
        <time>2019-06-04T09:21:07Z</time>
      </trkpt>
      <trkpt lat="44.16792" lon="5.75048">
        <ele>621</ele>
        <time>2019-06-04T09:21:08Z</time>
      </trkpt>
      <trkpt lat="44.16798" lon="5.75054">
        <ele>621</ele>
        <time>2019-06-04T09:21:09Z</time>
      </trkpt>
      <trkpt lat="44.16803" lon="5.7506">
        <ele>621</ele>
        <time>2019-06-04T09:21:10Z</time>
      </trkpt>
      <trkpt lat="44.16808" lon="5.75066">
        <ele>621</ele>
        <time>2019-06-04T09:21:11Z</time>
      </trkpt>
      <trkpt lat="44.16814" lon="5.75072">
        <ele>621</ele>
        <time>2019-06-04T09:21:12Z</time>
      </trkpt>
      <trkpt lat="44.16819" lon="5.75079">
        <ele>621</ele>
        <time>2019-06-04T09:21:13Z</time>
      </trkpt>
      <trkpt lat="44.16824" lon="5.75086">
        <ele>621</ele>
        <time>2019-06-04T09:21:14Z</time>
      </trkpt>
      <trkpt lat="44.16828" lon="5.75094">
        <ele>621</ele>
        <time>2019-06-04T09:21:15Z</time>
      </trkpt>
      <trkpt lat="44.16832" lon="5.75101">
        <ele>621</ele>
        <time>2019-06-04T09:21:16Z</time>
      </trkpt>
      <trkpt lat="44.16836" lon="5.75109">
        <ele>621</ele>
        <time>2019-06-04T09:21:17Z</time>
      </trkpt>
      <trkpt lat="44.1684" lon="5.75117">
        <ele>621</ele>
        <time>2019-06-04T09:21:18Z</time>
      </trkpt>
      <trkpt lat="44.16844" lon="5.75125">
        <ele>621</ele>
        <time>2019-06-04T09:21:19Z</time>
      </trkpt>
      <trkpt lat="44.16848" lon="5.75133">
        <ele>621</ele>
        <time>2019-06-04T09:21:20Z</time>
      </trkpt>
      <trkpt lat="44.16852" lon="5.75141">
        <ele>621</ele>
        <time>2019-06-04T09:21:21Z</time>
      </trkpt>
      <trkpt lat="44.16856" lon="5.7515">
        <ele>621</ele>
        <time>2019-06-04T09:21:22Z</time>
      </trkpt>
      <trkpt lat="44.16859" lon="5.75159">
        <ele>621</ele>
        <time>2019-06-04T09:21:23Z</time>
      </trkpt>
      <trkpt lat="44.16863" lon="5.75168">
        <ele>621</ele>
        <time>2019-06-04T09:21:24Z</time>
      </trkpt>
      <trkpt lat="44.16866" lon="5.75177">
        <ele>621</ele>
        <time>2019-06-04T09:21:25Z</time>
      </trkpt>
      <trkpt lat="44.16869" lon="5.75187">
        <ele>621</ele>
        <time>2019-06-04T09:21:26Z</time>
      </trkpt>
      <trkpt lat="44.16872" lon="5.75198">
        <ele>621</ele>
        <time>2019-06-04T09:21:27Z</time>
      </trkpt>
      <trkpt lat="44.16874" lon="5.75208">
        <ele>621</ele>
        <time>2019-06-04T09:21:28Z</time>
      </trkpt>
      <trkpt lat="44.16876" lon="5.75218">
        <ele>621</ele>
        <time>2019-06-04T09:21:29Z</time>
      </trkpt>
      <trkpt lat="44.16878" lon="5.75229">
        <ele>621</ele>
        <time>2019-06-04T09:21:30Z</time>
      </trkpt>
      <trkpt lat="44.1688" lon="5.75239">
        <ele>621</ele>
        <time>2019-06-04T09:21:31Z</time>
      </trkpt>
      <trkpt lat="44.16882" lon="5.7525">
        <ele>621</ele>
        <time>2019-06-04T09:21:32Z</time>
      </trkpt>
      <trkpt lat="44.16884" lon="5.7526">
        <ele>621</ele>
        <time>2019-06-04T09:21:33Z</time>
      </trkpt>
      <trkpt lat="44.16885" lon="5.75272">
        <ele>621</ele>
        <time>2019-06-04T09:21:34Z</time>
      </trkpt>
      <trkpt lat="44.16888" lon="5.75283">
        <ele>621</ele>
        <time>2019-06-04T09:21:35Z</time>
      </trkpt>
      <trkpt lat="44.1689" lon="5.75294">
        <ele>621</ele>
        <time>2019-06-04T09:21:36Z</time>
      </trkpt>
      <trkpt lat="44.16892" lon="5.75306">
        <ele>621</ele>
        <time>2019-06-04T09:21:37Z</time>
      </trkpt>
      <trkpt lat="44.16893" lon="5.75318">
        <ele>621</ele>
        <time>2019-06-04T09:21:38Z</time>
      </trkpt>
      <trkpt lat="44.16894" lon="5.7533">
        <ele>621</ele>
        <time>2019-06-04T09:21:39Z</time>
      </trkpt>
      <trkpt lat="44.16894" lon="5.75342">
        <ele>621</ele>
        <time>2019-06-04T09:21:40Z</time>
      </trkpt>
      <trkpt lat="44.16895" lon="5.75354">
        <ele>621</ele>
        <time>2019-06-04T09:21:41Z</time>
      </trkpt>
      <trkpt lat="44.16895" lon="5.75366">
        <ele>621</ele>
        <time>2019-06-04T09:21:42Z</time>
      </trkpt>
      <trkpt lat="44.16895" lon="5.75378">
        <ele>621</ele>
        <time>2019-06-04T09:21:43Z</time>
      </trkpt>
      <trkpt lat="44.16895" lon="5.7539">
        <ele>621</ele>
        <time>2019-06-04T09:21:44Z</time>
      </trkpt>
      <trkpt lat="44.16895" lon="5.75401">
        <ele>621</ele>
        <time>2019-06-04T09:21:45Z</time>
      </trkpt>
      <trkpt lat="44.16896" lon="5.75413">
        <ele>621</ele>
        <time>2019-06-04T09:21:46Z</time>
      </trkpt>
      <trkpt lat="44.16896" lon="5.75424">
        <ele>621</ele>
        <time>2019-06-04T09:21:47Z</time>
      </trkpt>
      <trkpt lat="44.16896" lon="5.75435">
        <ele>621</ele>
        <time>2019-06-04T09:21:48Z</time>
      </trkpt>
      <trkpt lat="44.16897" lon="5.75447">
        <ele>621</ele>
        <time>2019-06-04T09:21:49Z</time>
      </trkpt>
      <trkpt lat="44.16898" lon="5.75458">
        <ele>621</ele>
        <time>2019-06-04T09:21:50Z</time>
      </trkpt>
      <trkpt lat="44.16899" lon="5.75469">
        <ele>621</ele>
        <time>2019-06-04T09:21:51Z</time>
      </trkpt>
      <trkpt lat="44.169" lon="5.7548">
        <ele>621</ele>
        <time>2019-06-04T09:21:52Z</time>
      </trkpt>
      <trkpt lat="44.16902" lon="5.75491">
        <ele>621</ele>
        <time>2019-06-04T09:21:53Z</time>
      </trkpt>
      <trkpt lat="44.16904" lon="5.75501">
        <ele>621</ele>
        <time>2019-06-04T09:21:54Z</time>
      </trkpt>
      <trkpt lat="44.16906" lon="5.75511">
        <ele>621</ele>
        <time>2019-06-04T09:21:55Z</time>
      </trkpt>
      <trkpt lat="44.16908" lon="5.75521">
        <ele>621</ele>
        <time>2019-06-04T09:21:56Z</time>
      </trkpt>
      <trkpt lat="44.16911" lon="5.7553">
        <ele>621</ele>
        <time>2019-06-04T09:21:57Z</time>
      </trkpt>
      <trkpt lat="44.16914" lon="5.75539">
        <ele>621</ele>
        <time>2019-06-04T09:21:58Z</time>
      </trkpt>
      <trkpt lat="44.16917" lon="5.75549">
        <ele>621</ele>
        <time>2019-06-04T09:21:59Z</time>
      </trkpt>
      <trkpt lat="44.1692" lon="5.75558">
        <ele>621</ele>
        <time>2019-06-04T09:22:00Z</time>
      </trkpt>
      <trkpt lat="44.16924" lon="5.75566">
        <ele>621</ele>
        <time>2019-06-04T09:22:01Z</time>
      </trkpt>
      <trkpt lat="44.16927" lon="5.75575">
        <ele>621</ele>
        <time>2019-06-04T09:22:02Z</time>
      </trkpt>
      <trkpt lat="44.1693" lon="5.75584">
        <ele>621</ele>
        <time>2019-06-04T09:22:03Z</time>
      </trkpt>
      <trkpt lat="44.16934" lon="5.75593">
        <ele>621</ele>
        <time>2019-06-04T09:22:04Z</time>
      </trkpt>
      <trkpt lat="44.16937" lon="5.75602">
        <ele>621</ele>
        <time>2019-06-04T09:22:05Z</time>
      </trkpt>
      <trkpt lat="44.1694" lon="5.75611">
        <ele>621</ele>
        <time>2019-06-04T09:22:06Z</time>
      </trkpt>
      <trkpt lat="44.16943" lon="5.7562">
        <ele>621</ele>
        <time>2019-06-04T09:22:07Z</time>
      </trkpt>
      <trkpt lat="44.16946" lon="5.75629">
        <ele>621</ele>
        <time>2019-06-04T09:22:08Z</time>
      </trkpt>
      <trkpt lat="44.16948" lon="5.75639">
        <ele>621</ele>
        <time>2019-06-04T09:22:09Z</time>
      </trkpt>
      <trkpt lat="44.1695" lon="5.75648">
        <ele>621</ele>
        <time>2019-06-04T09:22:10Z</time>
      </trkpt>
      <trkpt lat="44.16951" lon="5.75658">
        <ele>621</ele>
        <time>2019-06-04T09:22:11Z</time>
      </trkpt>
      <trkpt lat="44.16953" lon="5.75668">
        <ele>621</ele>
        <time>2019-06-04T09:22:12Z</time>
      </trkpt>
      <trkpt lat="44.16954" lon="5.75677">
        <ele>621</ele>
        <time>2019-06-04T09:22:13Z</time>
      </trkpt>
      <trkpt lat="44.16956" lon="5.75687">
        <ele>621</ele>
        <time>2019-06-04T09:22:14Z</time>
      </trkpt>
      <trkpt lat="44.16956" lon="5.75696">
        <ele>621</ele>
        <time>2019-06-04T09:22:15Z</time>
      </trkpt>
      <trkpt lat="44.16958" lon="5.75706">
        <ele>621</ele>
        <time>2019-06-04T09:22:16Z</time>
      </trkpt>
      <trkpt lat="44.1696" lon="5.75715">
        <ele>621</ele>
        <time>2019-06-04T09:22:17Z</time>
      </trkpt>
      <trkpt lat="44.16961" lon="5.75725">
        <ele>621</ele>
        <time>2019-06-04T09:22:18Z</time>
      </trkpt>
      <trkpt lat="44.16962" lon="5.75735">
        <ele>621</ele>
        <time>2019-06-04T09:22:19Z</time>
      </trkpt>
      <trkpt lat="44.16963" lon="5.75745">
        <ele>621</ele>
        <time>2019-06-04T09:22:20Z</time>
      </trkpt>
      <trkpt lat="44.16963" lon="5.75755">
        <ele>621</ele>
        <time>2019-06-04T09:22:21Z</time>
      </trkpt>
      <trkpt lat="44.16963" lon="5.75765">
        <ele>621</ele>
        <time>2019-06-04T09:22:22Z</time>
      </trkpt>
      <trkpt lat="44.16961" lon="5.75774">
        <ele>621</ele>
        <time>2019-06-04T09:22:23Z</time>
      </trkpt>
      <trkpt lat="44.16959" lon="5.75785">
        <ele>621</ele>
        <time>2019-06-04T09:22:24Z</time>
      </trkpt>
      <trkpt lat="44.16958" lon="5.75795">
        <ele>621</ele>
        <time>2019-06-04T09:22:25Z</time>
      </trkpt>
      <trkpt lat="44.16957" lon="5.75805">
        <ele>621</ele>
        <time>2019-06-04T09:22:26Z</time>
      </trkpt>
      <trkpt lat="44.16955" lon="5.75815">
        <ele>621</ele>
        <time>2019-06-04T09:22:27Z</time>
      </trkpt>
      <trkpt lat="44.16952" lon="5.75825">
        <ele>621</ele>
        <time>2019-06-04T09:22:28Z</time>
      </trkpt>
      <trkpt lat="44.16949" lon="5.75834">
        <ele>621</ele>
        <time>2019-06-04T09:22:29Z</time>
      </trkpt>
      <trkpt lat="44.16946" lon="5.75844">
        <ele>621</ele>
        <time>2019-06-04T09:22:30Z</time>
      </trkpt>
      <trkpt lat="44.16942" lon="5.75853">
        <ele>621</ele>
        <time>2019-06-04T09:22:31Z</time>
      </trkpt>
      <trkpt lat="44.16938" lon="5.75862">
        <ele>621</ele>
        <time>2019-06-04T09:22:32Z</time>
      </trkpt>
      <trkpt lat="44.16935" lon="5.75871">
        <ele>621</ele>
        <time>2019-06-04T09:22:33Z</time>
      </trkpt>
      <trkpt lat="44.16932" lon="5.7588">
        <ele>621</ele>
        <time>2019-06-04T09:22:34Z</time>
      </trkpt>
      <trkpt lat="44.16928" lon="5.75888">
        <ele>621</ele>
        <time>2019-06-04T09:22:35Z</time>
      </trkpt>
      <trkpt lat="44.16924" lon="5.75897">
        <ele>621</ele>
        <time>2019-06-04T09:22:36Z</time>
      </trkpt>
      <trkpt lat="44.1692" lon="5.75906">
        <ele>621</ele>
        <time>2019-06-04T09:22:37Z</time>
      </trkpt>
      <trkpt lat="44.16917" lon="5.75914">
        <ele>621</ele>
        <time>2019-06-04T09:22:38Z</time>
      </trkpt>
      <trkpt lat="44.16914" lon="5.75923">
        <ele>621</ele>
        <time>2019-06-04T09:22:39Z</time>
      </trkpt>
      <trkpt lat="44.16911" lon="5.75932">
        <ele>621</ele>
        <time>2019-06-04T09:22:40Z</time>
      </trkpt>
      <trkpt lat="44.16908" lon="5.75941">
        <ele>621</ele>
        <time>2019-06-04T09:22:41Z</time>
      </trkpt>
      <trkpt lat="44.16904" lon="5.7595">
        <ele>621</ele>
        <time>2019-06-04T09:22:42Z</time>
      </trkpt>
      <trkpt lat="44.16901" lon="5.7596">
        <ele>621</ele>
        <time>2019-06-04T09:22:43Z</time>
      </trkpt>
      <trkpt lat="44.16898" lon="5.7597">
        <ele>621</ele>
        <time>2019-06-04T09:22:44Z</time>
      </trkpt>
      <trkpt lat="44.16895" lon="5.7598">
        <ele>621</ele>
        <time>2019-06-04T09:22:45Z</time>
      </trkpt>
      <trkpt lat="44.16892" lon="5.75991">
        <ele>621</ele>
        <time>2019-06-04T09:22:46Z</time>
      </trkpt>
      <trkpt lat="44.16888" lon="5.76002">
        <ele>620</ele>
        <time>2019-06-04T09:22:47Z</time>
      </trkpt>
      <trkpt lat="44.16885" lon="5.76013">
        <ele>620</ele>
        <time>2019-06-04T09:22:48Z</time>
      </trkpt>
      <trkpt lat="44.16881" lon="5.76024">
        <ele>620</ele>
        <time>2019-06-04T09:22:49Z</time>
      </trkpt>
      <trkpt lat="44.16877" lon="5.76035">
        <ele>619</ele>
        <time>2019-06-04T09:22:50Z</time>
      </trkpt>
      <trkpt lat="44.16873" lon="5.76045">
        <ele>619</ele>
        <time>2019-06-04T09:22:51Z</time>
      </trkpt>
      <trkpt lat="44.16868" lon="5.76054">
        <ele>619</ele>
        <time>2019-06-04T09:22:52Z</time>
      </trkpt>
      <trkpt lat="44.16862" lon="5.76062">
        <ele>619</ele>
        <time>2019-06-04T09:22:53Z</time>
      </trkpt>
      <trkpt lat="44.16856" lon="5.7607">
        <ele>619</ele>
        <time>2019-06-04T09:22:54Z</time>
      </trkpt>
      <trkpt lat="44.16851" lon="5.76078">
        <ele>619</ele>
        <time>2019-06-04T09:22:55Z</time>
      </trkpt>
      <trkpt lat="44.16845" lon="5.76086">
        <ele>619</ele>
        <time>2019-06-04T09:22:56Z</time>
      </trkpt>
      <trkpt lat="44.1684" lon="5.76094">
        <ele>619</ele>
        <time>2019-06-04T09:22:57Z</time>
      </trkpt>
      <trkpt lat="44.16834" lon="5.76102">
        <ele>619</ele>
        <time>2019-06-04T09:22:58Z</time>
      </trkpt>
      <trkpt lat="44.16829" lon="5.76111">
        <ele>619</ele>
        <time>2019-06-04T09:22:59Z</time>
      </trkpt>
      <trkpt lat="44.16823" lon="5.76119">
        <ele>618</ele>
        <time>2019-06-04T09:23:00Z</time>
      </trkpt>
      <trkpt lat="44.16818" lon="5.76127">
        <ele>618</ele>
        <time>2019-06-04T09:23:01Z</time>
      </trkpt>
      <trkpt lat="44.16813" lon="5.76135">
        <ele>618</ele>
        <time>2019-06-04T09:23:02Z</time>
      </trkpt>
      <trkpt lat="44.16808" lon="5.76143">
        <ele>618</ele>
        <time>2019-06-04T09:23:03Z</time>
      </trkpt>
      <trkpt lat="44.16804" lon="5.76151">
        <ele>618</ele>
        <time>2019-06-04T09:23:04Z</time>
      </trkpt>
      <trkpt lat="44.168" lon="5.7616">
        <ele>618</ele>
        <time>2019-06-04T09:23:05Z</time>
      </trkpt>
      <trkpt lat="44.16796" lon="5.76169">
        <ele>618</ele>
        <time>2019-06-04T09:23:06Z</time>
      </trkpt>
      <trkpt lat="44.16793" lon="5.76178">
        <ele>618</ele>
        <time>2019-06-04T09:23:07Z</time>
      </trkpt>
      <trkpt lat="44.16791" lon="5.76188">
        <ele>618</ele>
        <time>2019-06-04T09:23:08Z</time>
      </trkpt>
      <trkpt lat="44.16789" lon="5.76198">
        <ele>618</ele>
        <time>2019-06-04T09:23:09Z</time>
      </trkpt>
      <trkpt lat="44.16788" lon="5.76207">
        <ele>618</ele>
        <time>2019-06-04T09:23:10Z</time>
      </trkpt>
      <trkpt lat="44.16787" lon="5.76217">
        <ele>618</ele>
        <time>2019-06-04T09:23:11Z</time>
      </trkpt>
      <trkpt lat="44.16786" lon="5.76227">
        <ele>618</ele>
        <time>2019-06-04T09:23:12Z</time>
      </trkpt>
      <trkpt lat="44.16785" lon="5.76236">
        <ele>618</ele>
        <time>2019-06-04T09:23:13Z</time>
      </trkpt>
      <trkpt lat="44.16783" lon="5.76246">
        <ele>618</ele>
        <time>2019-06-04T09:23:14Z</time>
      </trkpt>
      <trkpt lat="44.16781" lon="5.76255">
        <ele>618</ele>
        <time>2019-06-04T09:23:15Z</time>
      </trkpt>
      <trkpt lat="44.16781" lon="5.76264">
        <ele>618</ele>
        <time>2019-06-04T09:23:16Z</time>
      </trkpt>
      <trkpt lat="44.16779" lon="5.76273">
        <ele>618</ele>
        <time>2019-06-04T09:23:17Z</time>
      </trkpt>
      <trkpt lat="44.16778" lon="5.76283">
        <ele>618</ele>
        <time>2019-06-04T09:23:18Z</time>
      </trkpt>
      <trkpt lat="44.16777" lon="5.76291">
        <ele>618</ele>
        <time>2019-06-04T09:23:19Z</time>
      </trkpt>
      <trkpt lat="44.16774" lon="5.763">
        <ele>618</ele>
        <time>2019-06-04T09:23:20Z</time>
      </trkpt>
      <trkpt lat="44.16771" lon="5.76309">
        <ele>618</ele>
        <time>2019-06-04T09:23:21Z</time>
      </trkpt>
      <trkpt lat="44.16768" lon="5.76318">
        <ele>618</ele>
        <time>2019-06-04T09:23:22Z</time>
      </trkpt>
      <trkpt lat="44.16764" lon="5.76328">
        <ele>618</ele>
        <time>2019-06-04T09:23:23Z</time>
      </trkpt>
      <trkpt lat="44.16761" lon="5.76337">
        <ele>618</ele>
        <time>2019-06-04T09:23:24Z</time>
      </trkpt>
      <trkpt lat="44.16757" lon="5.76346">
        <ele>618</ele>
        <time>2019-06-04T09:23:25Z</time>
      </trkpt>
      <trkpt lat="44.16754" lon="5.76356">
        <ele>618</ele>
        <time>2019-06-04T09:23:26Z</time>
      </trkpt>
      <trkpt lat="44.16751" lon="5.76366">
        <ele>617</ele>
        <time>2019-06-04T09:23:27Z</time>
      </trkpt>
      <trkpt lat="44.16748" lon="5.76377">
        <ele>617</ele>
        <time>2019-06-04T09:23:28Z</time>
      </trkpt>
      <trkpt lat="44.16746" lon="5.76388">
        <ele>617</ele>
        <time>2019-06-04T09:23:29Z</time>
      </trkpt>
      <trkpt lat="44.16743" lon="5.76399">
        <ele>617</ele>
        <time>2019-06-04T09:23:30Z</time>
      </trkpt>
      <trkpt lat="44.16741" lon="5.7641">
        <ele>616</ele>
        <time>2019-06-04T09:23:31Z</time>
      </trkpt>
      <trkpt lat="44.16739" lon="5.76422">
        <ele>616</ele>
        <time>2019-06-04T09:23:32Z</time>
      </trkpt>
      <trkpt lat="44.16737" lon="5.76433">
        <ele>616</ele>
        <time>2019-06-04T09:23:33Z</time>
      </trkpt>
      <trkpt lat="44.16734" lon="5.76444">
        <ele>616</ele>
        <time>2019-06-04T09:23:34Z</time>
      </trkpt>
      <trkpt lat="44.16732" lon="5.76455">
        <ele>616</ele>
        <time>2019-06-04T09:23:35Z</time>
      </trkpt>
      <trkpt lat="44.16729" lon="5.76465">
        <ele>616</ele>
        <time>2019-06-04T09:23:36Z</time>
      </trkpt>
      <trkpt lat="44.16725" lon="5.76474">
        <ele>616</ele>
        <time>2019-06-04T09:23:37Z</time>
      </trkpt>
      <trkpt lat="44.1672" lon="5.76482">
        <ele>616</ele>
        <time>2019-06-04T09:23:38Z</time>
      </trkpt>
      <trkpt lat="44.16714" lon="5.76488">
        <ele>616</ele>
        <time>2019-06-04T09:23:39Z</time>
      </trkpt>
      <trkpt lat="44.16709" lon="5.76494">
        <ele>616</ele>
        <time>2019-06-04T09:23:40Z</time>
      </trkpt>
      <trkpt lat="44.16702" lon="5.76499">
        <ele>616</ele>
        <time>2019-06-04T09:23:41Z</time>
      </trkpt>
      <trkpt lat="44.16696" lon="5.76503">
        <ele>616</ele>
        <time>2019-06-04T09:23:42Z</time>
      </trkpt>
      <trkpt lat="44.16689" lon="5.76506">
        <ele>616</ele>
        <time>2019-06-04T09:23:43Z</time>
      </trkpt>
      <trkpt lat="44.16682" lon="5.76509">
        <ele>616</ele>
        <time>2019-06-04T09:23:44Z</time>
      </trkpt>
      <trkpt lat="44.16676" lon="5.76513">
        <ele>616</ele>
        <time>2019-06-04T09:23:45Z</time>
      </trkpt>
      <trkpt lat="44.16669" lon="5.76517">
        <ele>616</ele>
        <time>2019-06-04T09:23:46Z</time>
      </trkpt>
      <trkpt lat="44.16663" lon="5.76522">
        <ele>616</ele>
        <time>2019-06-04T09:23:47Z</time>
      </trkpt>
      <trkpt lat="44.16658" lon="5.76528">
        <ele>616</ele>
        <time>2019-06-04T09:23:48Z</time>
      </trkpt>
      <trkpt lat="44.16653" lon="5.76536">
        <ele>616</ele>
        <time>2019-06-04T09:23:49Z</time>
      </trkpt>
      <trkpt lat="44.1665" lon="5.76545">
        <ele>616</ele>
        <time>2019-06-04T09:23:50Z</time>
      </trkpt>
      <trkpt lat="44.16647" lon="5.76555">
        <ele>616</ele>
        <time>2019-06-04T09:23:51Z</time>
      </trkpt>
      <trkpt lat="44.16643" lon="5.76565">
        <ele>616</ele>
        <time>2019-06-04T09:23:52Z</time>
      </trkpt>
      <trkpt lat="44.1664" lon="5.76575">
        <ele>616</ele>
        <time>2019-06-04T09:23:53Z</time>
      </trkpt>
      <trkpt lat="44.16637" lon="5.76585">
        <ele>616</ele>
        <time>2019-06-04T09:23:54Z</time>
      </trkpt>
      <trkpt lat="44.16634" lon="5.76594">
        <ele>616</ele>
        <time>2019-06-04T09:23:55Z</time>
      </trkpt>
      <trkpt lat="44.1663" lon="5.76604">
        <ele>616</ele>
        <time>2019-06-04T09:23:56Z</time>
      </trkpt>
      <trkpt lat="44.16627" lon="5.76614">
        <ele>616</ele>
        <time>2019-06-04T09:23:57Z</time>
      </trkpt>
      <trkpt lat="44.16624" lon="5.76624">
        <ele>616</ele>
        <time>2019-06-04T09:23:58Z</time>
      </trkpt>
      <trkpt lat="44.16621" lon="5.76634">
        <ele>616</ele>
        <time>2019-06-04T09:23:59Z</time>
      </trkpt>
      <trkpt lat="44.16618" lon="5.76644">
        <ele>616</ele>
        <time>2019-06-04T09:24:00Z</time>
      </trkpt>
      <trkpt lat="44.16615" lon="5.76654">
        <ele>616</ele>
        <time>2019-06-04T09:24:01Z</time>
      </trkpt>
      <trkpt lat="44.16613" lon="5.76664">
        <ele>616</ele>
        <time>2019-06-04T09:24:02Z</time>
      </trkpt>
      <trkpt lat="44.1661" lon="5.76674">
        <ele>616</ele>
        <time>2019-06-04T09:24:03Z</time>
      </trkpt>
      <trkpt lat="44.16608" lon="5.76683">
        <ele>616</ele>
        <time>2019-06-04T09:24:04Z</time>
      </trkpt>
      <trkpt lat="44.16605" lon="5.76693">
        <ele>616</ele>
        <time>2019-06-04T09:24:05Z</time>
      </trkpt>
      <trkpt lat="44.16603" lon="5.76702">
        <ele>616</ele>
        <time>2019-06-04T09:24:06Z</time>
      </trkpt>
      <trkpt lat="44.166" lon="5.76712">
        <ele>616</ele>
        <time>2019-06-04T09:24:07Z</time>
      </trkpt>
      <trkpt lat="44.16597" lon="5.76721">
        <ele>616</ele>
        <time>2019-06-04T09:24:08Z</time>
      </trkpt>
      <trkpt lat="44.16594" lon="5.76731">
        <ele>616</ele>
        <time>2019-06-04T09:24:09Z</time>
      </trkpt>
      <trkpt lat="44.1659" lon="5.7674">
        <ele>616</ele>
        <time>2019-06-04T09:24:10Z</time>
      </trkpt>
      <trkpt lat="44.16586" lon="5.76749">
        <ele>616</ele>
        <time>2019-06-04T09:24:11Z</time>
      </trkpt>
      <trkpt lat="44.16581" lon="5.76757">
        <ele>616</ele>
        <time>2019-06-04T09:24:12Z</time>
      </trkpt>
      <trkpt lat="44.16574" lon="5.76764">
        <ele>616</ele>
        <time>2019-06-04T09:24:13Z</time>
      </trkpt>
      <trkpt lat="44.16568" lon="5.76771">
        <ele>616</ele>
        <time>2019-06-04T09:24:14Z</time>
      </trkpt>
      <trkpt lat="44.16562" lon="5.76778">
        <ele>616</ele>
        <time>2019-06-04T09:24:15Z</time>
      </trkpt>
      <trkpt lat="44.16555" lon="5.76786">
        <ele>615</ele>
        <time>2019-06-04T09:24:16Z</time>
      </trkpt>
      <trkpt lat="44.16549" lon="5.76793">
        <ele>615</ele>
        <time>2019-06-04T09:24:17Z</time>
      </trkpt>
      <trkpt lat="44.16542" lon="5.76802">
        <ele>614</ele>
        <time>2019-06-04T09:24:18Z</time>
      </trkpt>
      <trkpt lat="44.16536" lon="5.76811">
        <ele>614</ele>
        <time>2019-06-04T09:24:19Z</time>
      </trkpt>
      <trkpt lat="44.16531" lon="5.7682">
        <ele>614</ele>
        <time>2019-06-04T09:24:20Z</time>
      </trkpt>
      <trkpt lat="44.16526" lon="5.76829">
        <ele>613</ele>
        <time>2019-06-04T09:24:21Z</time>
      </trkpt>
      <trkpt lat="44.1652" lon="5.76839">
        <ele>613</ele>
        <time>2019-06-04T09:24:22Z</time>
      </trkpt>
      <trkpt lat="44.16515" lon="5.76849">
        <ele>612</ele>
        <time>2019-06-04T09:24:23Z</time>
      </trkpt>
      <trkpt lat="44.1651" lon="5.7686">
        <ele>612</ele>
        <time>2019-06-04T09:24:24Z</time>
      </trkpt>
      <trkpt lat="44.16505" lon="5.76871">
        <ele>611</ele>
        <time>2019-06-04T09:24:25Z</time>
      </trkpt>
      <trkpt lat="44.165" lon="5.76883">
        <ele>611</ele>
        <time>2019-06-04T09:24:26Z</time>
      </trkpt>
      <trkpt lat="44.16496" lon="5.76895">
        <ele>610</ele>
        <time>2019-06-04T09:24:27Z</time>
      </trkpt>
      <trkpt lat="44.16493" lon="5.76907">
        <ele>610</ele>
        <time>2019-06-04T09:24:28Z</time>
      </trkpt>
      <trkpt lat="44.1649" lon="5.7692">
        <ele>610</ele>
        <time>2019-06-04T09:24:29Z</time>
      </trkpt>
      <trkpt lat="44.16487" lon="5.76933">
        <ele>610</ele>
        <time>2019-06-04T09:24:30Z</time>
      </trkpt>
      <trkpt lat="44.16485" lon="5.76945">
        <ele>610</ele>
        <time>2019-06-04T09:24:31Z</time>
      </trkpt>
      <trkpt lat="44.16483" lon="5.76958">
        <ele>610</ele>
        <time>2019-06-04T09:24:32Z</time>
      </trkpt>
      <trkpt lat="44.1648" lon="5.7697">
        <ele>610</ele>
        <time>2019-06-04T09:24:33Z</time>
      </trkpt>
      <trkpt lat="44.16478" lon="5.76982">
        <ele>610</ele>
        <time>2019-06-04T09:24:34Z</time>
      </trkpt>
      <trkpt lat="44.16476" lon="5.76994">
        <ele>610</ele>
        <time>2019-06-04T09:24:35Z</time>
      </trkpt>
      <trkpt lat="44.16474" lon="5.77005">
        <ele>610</ele>
        <time>2019-06-04T09:24:36Z</time>
      </trkpt>
      <trkpt lat="44.16473" lon="5.77017">
        <ele>610</ele>
        <time>2019-06-04T09:24:37Z</time>
      </trkpt>
      <trkpt lat="44.16472" lon="5.77029">
        <ele>610</ele>
        <time>2019-06-04T09:24:38Z</time>
      </trkpt>
      <trkpt lat="44.16471" lon="5.7704">
        <ele>610</ele>
        <time>2019-06-04T09:24:39Z</time>
      </trkpt>
      <trkpt lat="44.16471" lon="5.77052">
        <ele>610</ele>
        <time>2019-06-04T09:24:40Z</time>
      </trkpt>
      <trkpt lat="44.1647" lon="5.77064">
        <ele>610</ele>
        <time>2019-06-04T09:24:41Z</time>
      </trkpt>
      <trkpt lat="44.1647" lon="5.77076">
        <ele>610</ele>
        <time>2019-06-04T09:24:42Z</time>
      </trkpt>
      <trkpt lat="44.1647" lon="5.77088">
        <ele>610</ele>
        <time>2019-06-04T09:24:43Z</time>
      </trkpt>
      <trkpt lat="44.16469" lon="5.77101">
        <ele>610</ele>
        <time>2019-06-04T09:24:44Z</time>
      </trkpt>
      <trkpt lat="44.16468" lon="5.77113">
        <ele>610</ele>
        <time>2019-06-04T09:24:45Z</time>
      </trkpt>
      <trkpt lat="44.16468" lon="5.77125">
        <ele>610</ele>
        <time>2019-06-04T09:24:46Z</time>
      </trkpt>
      <trkpt lat="44.16468" lon="5.77137">
        <ele>610</ele>
        <time>2019-06-04T09:24:47Z</time>
      </trkpt>
      <trkpt lat="44.16467" lon="5.77149">
        <ele>610</ele>
        <time>2019-06-04T09:24:48Z</time>
      </trkpt>
      <trkpt lat="44.16467" lon="5.77161">
        <ele>610</ele>
        <time>2019-06-04T09:24:49Z</time>
      </trkpt>
      <trkpt lat="44.16467" lon="5.77173">
        <ele>610</ele>
        <time>2019-06-04T09:24:50Z</time>
      </trkpt>
      <trkpt lat="44.16467" lon="5.77185">
        <ele>610</ele>
        <time>2019-06-04T09:24:51Z</time>
      </trkpt>
      <trkpt lat="44.16467" lon="5.77198">
        <ele>610</ele>
        <time>2019-06-04T09:24:52Z</time>
      </trkpt>
      <trkpt lat="44.16468" lon="5.7721">
        <ele>609</ele>
        <time>2019-06-04T09:24:53Z</time>
      </trkpt>
      <trkpt lat="44.16469" lon="5.77223">
        <ele>609</ele>
        <time>2019-06-04T09:24:54Z</time>
      </trkpt>
      <trkpt lat="44.16471" lon="5.77236">
        <ele>609</ele>
        <time>2019-06-04T09:24:55Z</time>
      </trkpt>
      <trkpt lat="44.16473" lon="5.77249">
        <ele>609</ele>
        <time>2019-06-04T09:24:56Z</time>
      </trkpt>
      <trkpt lat="44.16475" lon="5.77263">
        <ele>608</ele>
        <time>2019-06-04T09:24:57Z</time>
      </trkpt>
      <trkpt lat="44.16477" lon="5.77277">
        <ele>608</ele>
        <time>2019-06-04T09:24:58Z</time>
      </trkpt>
      <trkpt lat="44.16479" lon="5.77291">
        <ele>607</ele>
        <time>2019-06-04T09:24:59Z</time>
      </trkpt>
      <trkpt lat="44.16481" lon="5.77305">
        <ele>606</ele>
        <time>2019-06-04T09:25:00Z</time>
      </trkpt>
      <trkpt lat="44.16485" lon="5.7732">
        <ele>606</ele>
        <time>2019-06-04T09:25:01Z</time>
      </trkpt>
      <trkpt lat="44.16487" lon="5.77334">
        <ele>606</ele>
        <time>2019-06-04T09:25:02Z</time>
      </trkpt>
      <trkpt lat="44.1649" lon="5.77349">
        <ele>605</ele>
        <time>2019-06-04T09:25:03Z</time>
      </trkpt>
      <trkpt lat="44.16494" lon="5.77363">
        <ele>605</ele>
        <time>2019-06-04T09:25:04Z</time>
      </trkpt>
      <trkpt lat="44.16498" lon="5.77378">
        <ele>604</ele>
        <time>2019-06-04T09:25:05Z</time>
      </trkpt>
      <trkpt lat="44.16502" lon="5.77391">
        <ele>604</ele>
        <time>2019-06-04T09:25:06Z</time>
      </trkpt>
      <trkpt lat="44.16507" lon="5.77405">
        <ele>603</ele>
        <time>2019-06-04T09:25:07Z</time>
      </trkpt>
      <trkpt lat="44.16511" lon="5.77419">
        <ele>603</ele>
        <time>2019-06-04T09:25:08Z</time>
      </trkpt>
      <trkpt lat="44.16515" lon="5.77433">
        <ele>602</ele>
        <time>2019-06-04T09:25:09Z</time>
      </trkpt>
      <trkpt lat="44.16518" lon="5.77447">
        <ele>601</ele>
        <time>2019-06-04T09:25:10Z</time>
      </trkpt>
      <trkpt lat="44.16521" lon="5.77462">
        <ele>601</ele>
        <time>2019-06-04T09:25:11Z</time>
      </trkpt>
      <trkpt lat="44.16523" lon="5.77476">
        <ele>600</ele>
        <time>2019-06-04T09:25:12Z</time>
      </trkpt>
      <trkpt lat="44.16525" lon="5.77491">
        <ele>600</ele>
        <time>2019-06-04T09:25:13Z</time>
      </trkpt>
      <trkpt lat="44.16526" lon="5.77505">
        <ele>599</ele>
        <time>2019-06-04T09:25:14Z</time>
      </trkpt>
      <trkpt lat="44.16527" lon="5.77519">
        <ele>599</ele>
        <time>2019-06-04T09:25:15Z</time>
      </trkpt>
      <trkpt lat="44.16528" lon="5.77533">
        <ele>599</ele>
        <time>2019-06-04T09:25:16Z</time>
      </trkpt>
      <trkpt lat="44.16528" lon="5.77547">
        <ele>598</ele>
        <time>2019-06-04T09:25:17Z</time>
      </trkpt>
      <trkpt lat="44.16528" lon="5.7756">
        <ele>598</ele>
        <time>2019-06-04T09:25:18Z</time>
      </trkpt>
      <trkpt lat="44.16528" lon="5.77573">
        <ele>598</ele>
        <time>2019-06-04T09:25:19Z</time>
      </trkpt>
      <trkpt lat="44.16528" lon="5.77587">
        <ele>598</ele>
        <time>2019-06-04T09:25:20Z</time>
      </trkpt>
      <trkpt lat="44.16528" lon="5.776">
        <ele>598</ele>
        <time>2019-06-04T09:25:21Z</time>
      </trkpt>
      <trkpt lat="44.16527" lon="5.77613">
        <ele>598</ele>
        <time>2019-06-04T09:25:22Z</time>
      </trkpt>
      <trkpt lat="44.16525" lon="5.77625">
        <ele>597</ele>
        <time>2019-06-04T09:25:23Z</time>
      </trkpt>
      <trkpt lat="44.16523" lon="5.77638">
        <ele>597</ele>
        <time>2019-06-04T09:25:24Z</time>
      </trkpt>
      <trkpt lat="44.16521" lon="5.7765">
        <ele>597</ele>
        <time>2019-06-04T09:25:25Z</time>
      </trkpt>
      <trkpt lat="44.16518" lon="5.77663">
        <ele>596</ele>
        <time>2019-06-04T09:25:26Z</time>
      </trkpt>
      <trkpt lat="44.16516" lon="5.77675">
        <ele>596</ele>
        <time>2019-06-04T09:25:27Z</time>
      </trkpt>
      <trkpt lat="44.16513" lon="5.77687">
        <ele>596</ele>
        <time>2019-06-04T09:25:28Z</time>
      </trkpt>
      <trkpt lat="44.16511" lon="5.77699">
        <ele>596</ele>
        <time>2019-06-04T09:25:29Z</time>
      </trkpt>
      <trkpt lat="44.1651" lon="5.77711">
        <ele>595</ele>
        <time>2019-06-04T09:25:30Z</time>
      </trkpt>
      <trkpt lat="44.16509" lon="5.77723">
        <ele>595</ele>
        <time>2019-06-04T09:25:31Z</time>
      </trkpt>
      <trkpt lat="44.1651" lon="5.77735">
        <ele>595</ele>
        <time>2019-06-04T09:25:32Z</time>
      </trkpt>
      <trkpt lat="44.16511" lon="5.77747">
        <ele>595</ele>
        <time>2019-06-04T09:25:33Z</time>
      </trkpt>
      <trkpt lat="44.16512" lon="5.77759">
        <ele>595</ele>
        <time>2019-06-04T09:25:34Z</time>
      </trkpt>
      <trkpt lat="44.16513" lon="5.77771">
        <ele>595</ele>
        <time>2019-06-04T09:25:35Z</time>
      </trkpt>
      <trkpt lat="44.16515" lon="5.77782">
        <ele>595</ele>
        <time>2019-06-04T09:25:36Z</time>
      </trkpt>
      <trkpt lat="44.16517" lon="5.77793">
        <ele>595</ele>
        <time>2019-06-04T09:25:37Z</time>
      </trkpt>
      <trkpt lat="44.16518" lon="5.77804">
        <ele>595</ele>
        <time>2019-06-04T09:25:38Z</time>
      </trkpt>
      <trkpt lat="44.1652" lon="5.77814">
        <ele>595</ele>
        <time>2019-06-04T09:25:39Z</time>
      </trkpt>
      <trkpt lat="44.16522" lon="5.77824">
        <ele>595</ele>
        <time>2019-06-04T09:25:40Z</time>
      </trkpt>
      <trkpt lat="44.16523" lon="5.77835">
        <ele>595</ele>
        <time>2019-06-04T09:25:41Z</time>
      </trkpt>
      <trkpt lat="44.16525" lon="5.77846">
        <ele>595</ele>
        <time>2019-06-04T09:25:42Z</time>
      </trkpt>
      <trkpt lat="44.16528" lon="5.77856">
        <ele>595</ele>
        <time>2019-06-04T09:25:43Z</time>
      </trkpt>
      <trkpt lat="44.16529" lon="5.77867">
        <ele>595</ele>
        <time>2019-06-04T09:25:44Z</time>
      </trkpt>
      <trkpt lat="44.16531" lon="5.77877">
        <ele>595</ele>
        <time>2019-06-04T09:25:45Z</time>
      </trkpt>
      <trkpt lat="44.16533" lon="5.77888">
        <ele>595</ele>
        <time>2019-06-04T09:25:46Z</time>
      </trkpt>
      <trkpt lat="44.16535" lon="5.77898">
        <ele>595</ele>
        <time>2019-06-04T09:25:47Z</time>
      </trkpt>
      <trkpt lat="44.16537" lon="5.77909">
        <ele>595</ele>
        <time>2019-06-04T09:25:48Z</time>
      </trkpt>
      <trkpt lat="44.16539" lon="5.77919">
        <ele>595</ele>
        <time>2019-06-04T09:25:49Z</time>
      </trkpt>
      <trkpt lat="44.1654" lon="5.77929">
        <ele>595</ele>
        <time>2019-06-04T09:25:50Z</time>
      </trkpt>
      <trkpt lat="44.16542" lon="5.7794">
        <ele>595</ele>
        <time>2019-06-04T09:25:51Z</time>
      </trkpt>
      <trkpt lat="44.16543" lon="5.7795">
        <ele>595</ele>
        <time>2019-06-04T09:25:52Z</time>
      </trkpt>
      <trkpt lat="44.16545" lon="5.77959">
        <ele>595</ele>
        <time>2019-06-04T09:25:53Z</time>
      </trkpt>
      <trkpt lat="44.16546" lon="5.77969">
        <ele>595</ele>
        <time>2019-06-04T09:25:54Z</time>
      </trkpt>
      <trkpt lat="44.16547" lon="5.77979">
        <ele>595</ele>
        <time>2019-06-04T09:25:55Z</time>
      </trkpt>
      <trkpt lat="44.16549" lon="5.77989">
        <ele>595</ele>
        <time>2019-06-04T09:25:56Z</time>
      </trkpt>
      <trkpt lat="44.1655" lon="5.77999">
        <ele>595</ele>
        <time>2019-06-04T09:25:57Z</time>
      </trkpt>
      <trkpt lat="44.16552" lon="5.78008">
        <ele>595</ele>
        <time>2019-06-04T09:25:58Z</time>
      </trkpt>
      <trkpt lat="44.16553" lon="5.78018">
        <ele>595</ele>
        <time>2019-06-04T09:25:59Z</time>
      </trkpt>
      <trkpt lat="44.16555" lon="5.78028">
        <ele>595</ele>
        <time>2019-06-04T09:26:00Z</time>
      </trkpt>
      <trkpt lat="44.16557" lon="5.78038">
        <ele>595</ele>
        <time>2019-06-04T09:26:01Z</time>
      </trkpt>
      <trkpt lat="44.16559" lon="5.78048">
        <ele>595</ele>
        <time>2019-06-04T09:26:02Z</time>
      </trkpt>
      <trkpt lat="44.16561" lon="5.78057">
        <ele>595</ele>
        <time>2019-06-04T09:26:03Z</time>
      </trkpt>
      <trkpt lat="44.16562" lon="5.78067">
        <ele>595</ele>
        <time>2019-06-04T09:26:04Z</time>
      </trkpt>
      <trkpt lat="44.16563" lon="5.78078">
        <ele>595</ele>
        <time>2019-06-04T09:26:05Z</time>
      </trkpt>
      <trkpt lat="44.16563" lon="5.78088">
        <ele>595</ele>
        <time>2019-06-04T09:26:06Z</time>
      </trkpt>
      <trkpt lat="44.16562" lon="5.78098">
        <ele>595</ele>
        <time>2019-06-04T09:26:07Z</time>
      </trkpt>
      <trkpt lat="44.16561" lon="5.78108">
        <ele>595</ele>
        <time>2019-06-04T09:26:08Z</time>
      </trkpt>
      <trkpt lat="44.1656" lon="5.78118">
        <ele>595</ele>
        <time>2019-06-04T09:26:09Z</time>
      </trkpt>
      <trkpt lat="44.16558" lon="5.78128">
        <ele>595</ele>
        <time>2019-06-04T09:26:10Z</time>
      </trkpt>
      <trkpt lat="44.16557" lon="5.78138">
        <ele>595</ele>
        <time>2019-06-04T09:26:11Z</time>
      </trkpt>
      <trkpt lat="44.16555" lon="5.78148">
        <ele>595</ele>
        <time>2019-06-04T09:26:12Z</time>
      </trkpt>
      <trkpt lat="44.16553" lon="5.78158">
        <ele>595</ele>
        <time>2019-06-04T09:26:13Z</time>
      </trkpt>
      <trkpt lat="44.1655" lon="5.78168">
        <ele>595</ele>
        <time>2019-06-04T09:26:14Z</time>
      </trkpt>
      <trkpt lat="44.16549" lon="5.78178">
        <ele>595</ele>
        <time>2019-06-04T09:26:15Z</time>
      </trkpt>
      <trkpt lat="44.16547" lon="5.78189">
        <ele>595</ele>
        <time>2019-06-04T09:26:16Z</time>
      </trkpt>
      <trkpt lat="44.16545" lon="5.782">
        <ele>595</ele>
        <time>2019-06-04T09:26:17Z</time>
      </trkpt>
      <trkpt lat="44.16543" lon="5.78211">
        <ele>595</ele>
        <time>2019-06-04T09:26:18Z</time>
      </trkpt>
      <trkpt lat="44.16541" lon="5.78222">
        <ele>595</ele>
        <time>2019-06-04T09:26:19Z</time>
      </trkpt>
      <trkpt lat="44.16539" lon="5.78233">
        <ele>595</ele>
        <time>2019-06-04T09:26:20Z</time>
      </trkpt>
      <trkpt lat="44.16537" lon="5.78245">
        <ele>595</ele>
        <time>2019-06-04T09:26:21Z</time>
      </trkpt>
      <trkpt lat="44.16535" lon="5.78257">
        <ele>595</ele>
        <time>2019-06-04T09:26:22Z</time>
      </trkpt>
      <trkpt lat="44.16533" lon="5.78268">
        <ele>595</ele>
        <time>2019-06-04T09:26:23Z</time>
      </trkpt>
      <trkpt lat="44.16531" lon="5.7828">
        <ele>595</ele>
        <time>2019-06-04T09:26:24Z</time>
      </trkpt>
      <trkpt lat="44.16529" lon="5.78292">
        <ele>595</ele>
        <time>2019-06-04T09:26:25Z</time>
      </trkpt>
      <trkpt lat="44.16527" lon="5.78303">
        <ele>595</ele>
        <time>2019-06-04T09:26:26Z</time>
      </trkpt>
      <trkpt lat="44.16526" lon="5.78314">
        <ele>595</ele>
        <time>2019-06-04T09:26:27Z</time>
      </trkpt>
      <trkpt lat="44.16524" lon="5.78326">
        <ele>595</ele>
        <time>2019-06-04T09:26:28Z</time>
      </trkpt>
      <trkpt lat="44.16522" lon="5.78338">
        <ele>595</ele>
        <time>2019-06-04T09:26:29Z</time>
      </trkpt>
      <trkpt lat="44.16521" lon="5.78349">
        <ele>595</ele>
        <time>2019-06-04T09:26:30Z</time>
      </trkpt>
      <trkpt lat="44.1652" lon="5.78361">
        <ele>595</ele>
        <time>2019-06-04T09:26:31Z</time>
      </trkpt>
      <trkpt lat="44.16518" lon="5.78373">
        <ele>595</ele>
        <time>2019-06-04T09:26:32Z</time>
      </trkpt>
      <trkpt lat="44.16517" lon="5.78384">
        <ele>595</ele>
        <time>2019-06-04T09:26:33Z</time>
      </trkpt>
      <trkpt lat="44.16516" lon="5.78396">
        <ele>595</ele>
        <time>2019-06-04T09:26:34Z</time>
      </trkpt>
      <trkpt lat="44.16516" lon="5.78407">
        <ele>595</ele>
        <time>2019-06-04T09:26:35Z</time>
      </trkpt>
      <trkpt lat="44.16517" lon="5.78419">
        <ele>595</ele>
        <time>2019-06-04T09:26:36Z</time>
      </trkpt>
      <trkpt lat="44.16517" lon="5.7843">
        <ele>595</ele>
        <time>2019-06-04T09:26:37Z</time>
      </trkpt>
      <trkpt lat="44.16517" lon="5.78441">
        <ele>595</ele>
        <time>2019-06-04T09:26:38Z</time>
      </trkpt>
      <trkpt lat="44.16518" lon="5.78452">
        <ele>594</ele>
        <time>2019-06-04T09:26:39Z</time>
      </trkpt>
      <trkpt lat="44.16518" lon="5.78464">
        <ele>594</ele>
        <time>2019-06-04T09:26:40Z</time>
      </trkpt>
      <trkpt lat="44.16518" lon="5.78475">
        <ele>594</ele>
        <time>2019-06-04T09:26:41Z</time>
      </trkpt>
      <trkpt lat="44.16518" lon="5.78486">
        <ele>594</ele>
        <time>2019-06-04T09:26:42Z</time>
      </trkpt>
      <trkpt lat="44.16517" lon="5.78498">
        <ele>594</ele>
        <time>2019-06-04T09:26:43Z</time>
      </trkpt>
      <trkpt lat="44.16516" lon="5.78509">
        <ele>593</ele>
        <time>2019-06-04T09:26:44Z</time>
      </trkpt>
      <trkpt lat="44.16514" lon="5.78519">
        <ele>593</ele>
        <time>2019-06-04T09:26:45Z</time>
      </trkpt>
      <trkpt lat="44.16512" lon="5.7853">
        <ele>593</ele>
        <time>2019-06-04T09:26:46Z</time>
      </trkpt>
      <trkpt lat="44.1651" lon="5.7854">
        <ele>593</ele>
        <time>2019-06-04T09:26:47Z</time>
      </trkpt>
      <trkpt lat="44.16507" lon="5.7855">
        <ele>593</ele>
        <time>2019-06-04T09:26:48Z</time>
      </trkpt>
      <trkpt lat="44.16506" lon="5.7856">
        <ele>593</ele>
        <time>2019-06-04T09:26:49Z</time>
      </trkpt>
      <trkpt lat="44.16505" lon="5.7857">
        <ele>592</ele>
        <time>2019-06-04T09:26:50Z</time>
      </trkpt>
      <trkpt lat="44.16505" lon="5.78581">
        <ele>592</ele>
        <time>2019-06-04T09:26:51Z</time>
      </trkpt>
      <trkpt lat="44.16506" lon="5.78591">
        <ele>592</ele>
        <time>2019-06-04T09:26:52Z</time>
      </trkpt>
      <trkpt lat="44.16508" lon="5.78602">
        <ele>592</ele>
        <time>2019-06-04T09:26:53Z</time>
      </trkpt>
      <trkpt lat="44.1651" lon="5.78612">
        <ele>592</ele>
        <time>2019-06-04T09:26:54Z</time>
      </trkpt>
      <trkpt lat="44.16512" lon="5.78622">
        <ele>592</ele>
        <time>2019-06-04T09:26:55Z</time>
      </trkpt>
      <trkpt lat="44.16515" lon="5.78632">
        <ele>592</ele>
        <time>2019-06-04T09:26:56Z</time>
      </trkpt>
      <trkpt lat="44.16517" lon="5.78642">
        <ele>592</ele>
        <time>2019-06-04T09:26:57Z</time>
      </trkpt>
      <trkpt lat="44.16519" lon="5.78651">
        <ele>592</ele>
        <time>2019-06-04T09:26:58Z</time>
      </trkpt>
      <trkpt lat="44.16521" lon="5.7866">
        <ele>592</ele>
        <time>2019-06-04T09:26:59Z</time>
      </trkpt>
      <trkpt lat="44.16522" lon="5.7867">
        <ele>592</ele>
        <time>2019-06-04T09:27:00Z</time>
      </trkpt>
      <trkpt lat="44.16522" lon="5.7868">
        <ele>592</ele>
        <time>2019-06-04T09:27:01Z</time>
      </trkpt>
      <trkpt lat="44.16521" lon="5.78689">
        <ele>592</ele>
        <time>2019-06-04T09:27:02Z</time>
      </trkpt>
      <trkpt lat="44.16521" lon="5.78699">
        <ele>592</ele>
        <time>2019-06-04T09:27:03Z</time>
      </trkpt>
      <trkpt lat="44.1652" lon="5.78708">
        <ele>592</ele>
        <time>2019-06-04T09:27:04Z</time>
      </trkpt>
      <trkpt lat="44.16521" lon="5.78717">
        <ele>592</ele>
        <time>2019-06-04T09:27:05Z</time>
      </trkpt>
      <trkpt lat="44.16522" lon="5.78726">
        <ele>592</ele>
        <time>2019-06-04T09:27:06Z</time>
      </trkpt>
      <trkpt lat="44.16524" lon="5.78734">
        <ele>592</ele>
        <time>2019-06-04T09:27:07Z</time>
      </trkpt>
      <trkpt lat="44.16526" lon="5.78741">
        <ele>592</ele>
        <time>2019-06-04T09:27:08Z</time>
      </trkpt>
      <trkpt lat="44.16529" lon="5.78749">
        <ele>592</ele>
        <time>2019-06-04T09:27:09Z</time>
      </trkpt>
      <trkpt lat="44.16532" lon="5.78757">
        <ele>592</ele>
        <time>2019-06-04T09:27:10Z</time>
      </trkpt>
      <trkpt lat="44.16535" lon="5.78764">
        <ele>592</ele>
        <time>2019-06-04T09:27:11Z</time>
      </trkpt>
      <trkpt lat="44.16538" lon="5.78772">
        <ele>592</ele>
        <time>2019-06-04T09:27:12Z</time>
      </trkpt>
      <trkpt lat="44.16541" lon="5.78779">
        <ele>592</ele>
        <time>2019-06-04T09:27:13Z</time>
      </trkpt>
      <trkpt lat="44.16544" lon="5.78786">
        <ele>592</ele>
        <time>2019-06-04T09:27:14Z</time>
      </trkpt>
      <trkpt lat="44.16546" lon="5.78793">
        <ele>592</ele>
        <time>2019-06-04T09:27:15Z</time>
      </trkpt>
      <trkpt lat="44.16549" lon="5.78801">
        <ele>592</ele>
        <time>2019-06-04T09:27:16Z</time>
      </trkpt>
      <trkpt lat="44.16552" lon="5.78809">
        <ele>592</ele>
        <time>2019-06-04T09:27:17Z</time>
      </trkpt>
      <trkpt lat="44.16554" lon="5.78818">
        <ele>592</ele>
        <time>2019-06-04T09:27:18Z</time>
      </trkpt>
      <trkpt lat="44.16558" lon="5.78827">
        <ele>592</ele>
        <time>2019-06-04T09:27:19Z</time>
      </trkpt>
      <trkpt lat="44.16562" lon="5.78835">
        <ele>592</ele>
        <time>2019-06-04T09:27:20Z</time>
      </trkpt>
      <trkpt lat="44.16566" lon="5.78844">
        <ele>592</ele>
        <time>2019-06-04T09:27:21Z</time>
      </trkpt>
      <trkpt lat="44.16571" lon="5.78852">
        <ele>592</ele>
        <time>2019-06-04T09:27:22Z</time>
      </trkpt>
      <trkpt lat="44.16577" lon="5.78859">
        <ele>592</ele>
        <time>2019-06-04T09:27:23Z</time>
      </trkpt>
      <trkpt lat="44.16582" lon="5.78866">
        <ele>592</ele>
        <time>2019-06-04T09:27:24Z</time>
      </trkpt>
      <trkpt lat="44.16589" lon="5.78872">
        <ele>592</ele>
        <time>2019-06-04T09:27:25Z</time>
      </trkpt>
      <trkpt lat="44.16595" lon="5.78879">
        <ele>592</ele>
        <time>2019-06-04T09:27:26Z</time>
      </trkpt>
      <trkpt lat="44.16602" lon="5.78886">
        <ele>592</ele>
        <time>2019-06-04T09:27:27Z</time>
      </trkpt>
      <trkpt lat="44.16608" lon="5.78893">
        <ele>592</ele>
        <time>2019-06-04T09:27:28Z</time>
      </trkpt>
      <trkpt lat="44.16614" lon="5.789">
        <ele>592</ele>
        <time>2019-06-04T09:27:29Z</time>
      </trkpt>
      <trkpt lat="44.16621" lon="5.78907">
        <ele>592</ele>
        <time>2019-06-04T09:27:30Z</time>
      </trkpt>
      <trkpt lat="44.16626" lon="5.78915">
        <ele>592</ele>
        <time>2019-06-04T09:27:31Z</time>
      </trkpt>
      <trkpt lat="44.16631" lon="5.78924">
        <ele>592</ele>
        <time>2019-06-04T09:27:32Z</time>
      </trkpt>
      <trkpt lat="44.16633" lon="5.78935">
        <ele>592</ele>
        <time>2019-06-04T09:27:33Z</time>
      </trkpt>
      <trkpt lat="44.16635" lon="5.78945">
        <ele>592</ele>
        <time>2019-06-04T09:27:34Z</time>
      </trkpt>
      <trkpt lat="44.16636" lon="5.78957">
        <ele>592</ele>
        <time>2019-06-04T09:27:35Z</time>
      </trkpt>
      <trkpt lat="44.16637" lon="5.78968">
        <ele>592</ele>
        <time>2019-06-04T09:27:36Z</time>
      </trkpt>
      <trkpt lat="44.16638" lon="5.7898">
        <ele>592</ele>
        <time>2019-06-04T09:27:37Z</time>
      </trkpt>
      <trkpt lat="44.16639" lon="5.78993">
        <ele>592</ele>
        <time>2019-06-04T09:27:38Z</time>
      </trkpt>
      <trkpt lat="44.16641" lon="5.79005">
        <ele>592</ele>
        <time>2019-06-04T09:27:39Z</time>
      </trkpt>
      <trkpt lat="44.16642" lon="5.79017">
        <ele>591</ele>
        <time>2019-06-04T09:27:40Z</time>
      </trkpt>
      <trkpt lat="44.16644" lon="5.7903">
        <ele>590</ele>
        <time>2019-06-04T09:27:41Z</time>
      </trkpt>
      <trkpt lat="44.16646" lon="5.79043">
        <ele>590</ele>
        <time>2019-06-04T09:27:42Z</time>
      </trkpt>
      <trkpt lat="44.16649" lon="5.79056">
        <ele>589</ele>
        <time>2019-06-04T09:27:43Z</time>
      </trkpt>
      <trkpt lat="44.16653" lon="5.79068">
        <ele>589</ele>
        <time>2019-06-04T09:27:44Z</time>
      </trkpt>
      <trkpt lat="44.16658" lon="5.7908">
        <ele>588</ele>
        <time>2019-06-04T09:27:45Z</time>
      </trkpt>
      <trkpt lat="44.16663" lon="5.79092">
        <ele>588</ele>
        <time>2019-06-04T09:27:46Z</time>
      </trkpt>
      <trkpt lat="44.16669" lon="5.79103">
        <ele>587</ele>
        <time>2019-06-04T09:27:47Z</time>
      </trkpt>
      <trkpt lat="44.16676" lon="5.79114">
        <ele>587</ele>
        <time>2019-06-04T09:27:48Z</time>
      </trkpt>
      <trkpt lat="44.16683" lon="5.79125">
        <ele>586</ele>
        <time>2019-06-04T09:27:49Z</time>
      </trkpt>
      <trkpt lat="44.16689" lon="5.79137">
        <ele>586</ele>
        <time>2019-06-04T09:27:50Z</time>
      </trkpt>
      <trkpt lat="44.16695" lon="5.79149">
        <ele>585</ele>
        <time>2019-06-04T09:27:51Z</time>
      </trkpt>
      <trkpt lat="44.16699" lon="5.79163">
        <ele>585</ele>
        <time>2019-06-04T09:27:52Z</time>
      </trkpt>
      <trkpt lat="44.16703" lon="5.79177">
        <ele>584</ele>
        <time>2019-06-04T09:27:53Z</time>
      </trkpt>
      <trkpt lat="44.16706" lon="5.79192">
        <ele>584</ele>
        <time>2019-06-04T09:27:54Z</time>
      </trkpt>
      <trkpt lat="44.16708" lon="5.79207">
        <ele>583</ele>
        <time>2019-06-04T09:27:55Z</time>
      </trkpt>
      <trkpt lat="44.1671" lon="5.79222">
        <ele>583</ele>
        <time>2019-06-04T09:27:56Z</time>
      </trkpt>
      <trkpt lat="44.16711" lon="5.79237">
        <ele>582</ele>
        <time>2019-06-04T09:27:57Z</time>
      </trkpt>
      <trkpt lat="44.16713" lon="5.79252">
        <ele>582</ele>
        <time>2019-06-04T09:27:58Z</time>
      </trkpt>
      <trkpt lat="44.16714" lon="5.79268">
        <ele>581</ele>
        <time>2019-06-04T09:27:59Z</time>
      </trkpt>
      <trkpt lat="44.16715" lon="5.79283">
        <ele>581</ele>
        <time>2019-06-04T09:28:00Z</time>
      </trkpt>
      <trkpt lat="44.16716" lon="5.79297">
        <ele>580</ele>
        <time>2019-06-04T09:28:01Z</time>
      </trkpt>
      <trkpt lat="44.16719" lon="5.79312">
        <ele>580</ele>
        <time>2019-06-04T09:28:02Z</time>
      </trkpt>
      <trkpt lat="44.16721" lon="5.79325">
        <ele>579</ele>
        <time>2019-06-04T09:28:03Z</time>
      </trkpt>
      <trkpt lat="44.16723" lon="5.79339">
        <ele>579</ele>
        <time>2019-06-04T09:28:04Z</time>
      </trkpt>
      <trkpt lat="44.16726" lon="5.79352">
        <ele>579</ele>
        <time>2019-06-04T09:28:05Z</time>
      </trkpt>
      <trkpt lat="44.16729" lon="5.79365">
        <ele>579</ele>
        <time>2019-06-04T09:28:06Z</time>
      </trkpt>
      <trkpt lat="44.16732" lon="5.79378">
        <ele>579</ele>
        <time>2019-06-04T09:28:07Z</time>
      </trkpt>
      <trkpt lat="44.16734" lon="5.7939">
        <ele>579</ele>
        <time>2019-06-04T09:28:08Z</time>
      </trkpt>
      <trkpt lat="44.16736" lon="5.79403">
        <ele>579</ele>
        <time>2019-06-04T09:28:09Z</time>
      </trkpt>
      <trkpt lat="44.16738" lon="5.79416">
        <ele>579</ele>
        <time>2019-06-04T09:28:10Z</time>
      </trkpt>
      <trkpt lat="44.16739" lon="5.79428">
        <ele>579</ele>
        <time>2019-06-04T09:28:11Z</time>
      </trkpt>
      <trkpt lat="44.1674" lon="5.79439">
        <ele>579</ele>
        <time>2019-06-04T09:28:12Z</time>
      </trkpt>
      <trkpt lat="44.16741" lon="5.79451">
        <ele>579</ele>
        <time>2019-06-04T09:28:13Z</time>
      </trkpt>
      <trkpt lat="44.16743" lon="5.79461">
        <ele>579</ele>
        <time>2019-06-04T09:28:14Z</time>
      </trkpt>
      <trkpt lat="44.16745" lon="5.79472">
        <ele>579</ele>
        <time>2019-06-04T09:28:15Z</time>
      </trkpt>
      <trkpt lat="44.16747" lon="5.79483">
        <ele>579</ele>
        <time>2019-06-04T09:28:16Z</time>
      </trkpt>
      <trkpt lat="44.16749" lon="5.79493">
        <ele>579</ele>
        <time>2019-06-04T09:28:17Z</time>
      </trkpt>
      <trkpt lat="44.1675" lon="5.79504">
        <ele>579</ele>
        <time>2019-06-04T09:28:18Z</time>
      </trkpt>
      <trkpt lat="44.16751" lon="5.79515">
        <ele>579</ele>
        <time>2019-06-04T09:28:19Z</time>
      </trkpt>
      <trkpt lat="44.1675" lon="5.79527">
        <ele>578</ele>
        <time>2019-06-04T09:28:20Z</time>
      </trkpt>
      <trkpt lat="44.16749" lon="5.79538">
        <ele>578</ele>
        <time>2019-06-04T09:28:21Z</time>
      </trkpt>
      <trkpt lat="44.16747" lon="5.7955">
        <ele>578</ele>
        <time>2019-06-04T09:28:22Z</time>
      </trkpt>
      <trkpt lat="44.16745" lon="5.79561">
        <ele>578</ele>
        <time>2019-06-04T09:28:23Z</time>
      </trkpt>
      <trkpt lat="44.16743" lon="5.79573">
        <ele>577</ele>
        <time>2019-06-04T09:28:24Z</time>
      </trkpt>
      <trkpt lat="44.1674" lon="5.79585">
        <ele>577</ele>
        <time>2019-06-04T09:28:25Z</time>
      </trkpt>
      <trkpt lat="44.16738" lon="5.79597">
        <ele>577</ele>
        <time>2019-06-04T09:28:26Z</time>
      </trkpt>
      <trkpt lat="44.16736" lon="5.79609">
        <ele>576</ele>
        <time>2019-06-04T09:28:27Z</time>
      </trkpt>
      <trkpt lat="44.16734" lon="5.79621">
        <ele>576</ele>
        <time>2019-06-04T09:28:28Z</time>
      </trkpt>
      <trkpt lat="44.16732" lon="5.79634">
        <ele>575</ele>
        <time>2019-06-04T09:28:29Z</time>
      </trkpt>
      <trkpt lat="44.16731" lon="5.79646">
        <ele>575</ele>
        <time>2019-06-04T09:28:30Z</time>
      </trkpt>
      <trkpt lat="44.1673" lon="5.7966">
        <ele>575</ele>
        <time>2019-06-04T09:28:31Z</time>
      </trkpt>
      <trkpt lat="44.1673" lon="5.79673">
        <ele>574</ele>
        <time>2019-06-04T09:28:32Z</time>
      </trkpt>
      <trkpt lat="44.1673" lon="5.79686">
        <ele>574</ele>
        <time>2019-06-04T09:28:33Z</time>
      </trkpt>
      <trkpt lat="44.1673" lon="5.79699">
        <ele>574</ele>
        <time>2019-06-04T09:28:34Z</time>
      </trkpt>
      <trkpt lat="44.16731" lon="5.79711">
        <ele>574</ele>
        <time>2019-06-04T09:28:35Z</time>
      </trkpt>
      <trkpt lat="44.16732" lon="5.79724">
        <ele>574</ele>
        <time>2019-06-04T09:28:36Z</time>
      </trkpt>
      <trkpt lat="44.16733" lon="5.79736">
        <ele>574</ele>
        <time>2019-06-04T09:28:37Z</time>
      </trkpt>
      <trkpt lat="44.16734" lon="5.79747">
        <ele>574</ele>
        <time>2019-06-04T09:28:38Z</time>
      </trkpt>
      <trkpt lat="44.16735" lon="5.79759">
        <ele>574</ele>
        <time>2019-06-04T09:28:39Z</time>
      </trkpt>
      <trkpt lat="44.16737" lon="5.7977">
        <ele>574</ele>
        <time>2019-06-04T09:28:40Z</time>
      </trkpt>
      <trkpt lat="44.16737" lon="5.79781">
        <ele>574</ele>
        <time>2019-06-04T09:28:41Z</time>
      </trkpt>
      <trkpt lat="44.16738" lon="5.79792">
        <ele>574</ele>
        <time>2019-06-04T09:28:42Z</time>
      </trkpt>
      <trkpt lat="44.16739" lon="5.79803">
        <ele>574</ele>
        <time>2019-06-04T09:28:43Z</time>
      </trkpt>
      <trkpt lat="44.16742" lon="5.79814">
        <ele>574</ele>
        <time>2019-06-04T09:28:44Z</time>
      </trkpt>
      <trkpt lat="44.16744" lon="5.79824">
        <ele>574</ele>
        <time>2019-06-04T09:28:45Z</time>
      </trkpt>
      <trkpt lat="44.16746" lon="5.79835">
        <ele>574</ele>
        <time>2019-06-04T09:28:46Z</time>
      </trkpt>
      <trkpt lat="44.16748" lon="5.79845">
        <ele>574</ele>
        <time>2019-06-04T09:28:47Z</time>
      </trkpt>
      <trkpt lat="44.1675" lon="5.79855">
        <ele>574</ele>
        <time>2019-06-04T09:28:48Z</time>
      </trkpt>
      <trkpt lat="44.16752" lon="5.79866">
        <ele>574</ele>
        <time>2019-06-04T09:28:49Z</time>
      </trkpt>
      <trkpt lat="44.16753" lon="5.79877">
        <ele>574</ele>
        <time>2019-06-04T09:28:50Z</time>
      </trkpt>
      <trkpt lat="44.16754" lon="5.79887">
        <ele>574</ele>
        <time>2019-06-04T09:28:51Z</time>
      </trkpt>
      <trkpt lat="44.16754" lon="5.79898">
        <ele>574</ele>
        <time>2019-06-04T09:28:52Z</time>
      </trkpt>
      <trkpt lat="44.16754" lon="5.79909">
        <ele>574</ele>
        <time>2019-06-04T09:28:53Z</time>
      </trkpt>
      <trkpt lat="44.16753" lon="5.79919">
        <ele>574</ele>
        <time>2019-06-04T09:28:54Z</time>
      </trkpt>
      <trkpt lat="44.16752" lon="5.79929">
        <ele>574</ele>
        <time>2019-06-04T09:28:55Z</time>
      </trkpt>
      <trkpt lat="44.16752" lon="5.7994">
        <ele>574</ele>
        <time>2019-06-04T09:28:56Z</time>
      </trkpt>
      <trkpt lat="44.16751" lon="5.7995">
        <ele>574</ele>
        <time>2019-06-04T09:28:57Z</time>
      </trkpt>
      <trkpt lat="44.16751" lon="5.7996">
        <ele>574</ele>
        <time>2019-06-04T09:28:58Z</time>
      </trkpt>
      <trkpt lat="44.16751" lon="5.7997">
        <ele>574</ele>
        <time>2019-06-04T09:28:59Z</time>
      </trkpt>
      <trkpt lat="44.16752" lon="5.79981">
        <ele>574</ele>
        <time>2019-06-04T09:29:00Z</time>
      </trkpt>
      <trkpt lat="44.16752" lon="5.79991">
        <ele>574</ele>
        <time>2019-06-04T09:29:01Z</time>
      </trkpt>
      <trkpt lat="44.16753" lon="5.80001">
        <ele>574</ele>
        <time>2019-06-04T09:29:02Z</time>
      </trkpt>
      <trkpt lat="44.16754" lon="5.80011">
        <ele>574</ele>
        <time>2019-06-04T09:29:03Z</time>
      </trkpt>
      <trkpt lat="44.16756" lon="5.80021">
        <ele>574</ele>
        <time>2019-06-04T09:29:04Z</time>
      </trkpt>
      <trkpt lat="44.16757" lon="5.80031">
        <ele>574</ele>
        <time>2019-06-04T09:29:05Z</time>
      </trkpt>
      <trkpt lat="44.16758" lon="5.80041">
        <ele>574</ele>
        <time>2019-06-04T09:29:06Z</time>
      </trkpt>
      <trkpt lat="44.1676" lon="5.80051">
        <ele>574</ele>
        <time>2019-06-04T09:29:07Z</time>
      </trkpt>
      <trkpt lat="44.16761" lon="5.80061">
        <ele>574</ele>
        <time>2019-06-04T09:29:08Z</time>
      </trkpt>
      <trkpt lat="44.16763" lon="5.80071">
        <ele>574</ele>
        <time>2019-06-04T09:29:09Z</time>
      </trkpt>
      <trkpt lat="44.16764" lon="5.80082">
        <ele>574</ele>
        <time>2019-06-04T09:29:10Z</time>
      </trkpt>
      <trkpt lat="44.16766" lon="5.80092">
        <ele>574</ele>
        <time>2019-06-04T09:29:11Z</time>
      </trkpt>
      <trkpt lat="44.16768" lon="5.80102">
        <ele>574</ele>
        <time>2019-06-04T09:29:12Z</time>
      </trkpt>
      <trkpt lat="44.16769" lon="5.80113">
        <ele>574</ele>
        <time>2019-06-04T09:29:13Z</time>
      </trkpt>
      <trkpt lat="44.1677" lon="5.80124">
        <ele>574</ele>
        <time>2019-06-04T09:29:14Z</time>
      </trkpt>
      <trkpt lat="44.16771" lon="5.80134">
        <ele>574</ele>
        <time>2019-06-04T09:29:15Z</time>
      </trkpt>
      <trkpt lat="44.16772" lon="5.80145">
        <ele>574</ele>
        <time>2019-06-04T09:29:16Z</time>
      </trkpt>
      <trkpt lat="44.16772" lon="5.80156">
        <ele>574</ele>
        <time>2019-06-04T09:29:17Z</time>
      </trkpt>
      <trkpt lat="44.16772" lon="5.80166">
        <ele>574</ele>
        <time>2019-06-04T09:29:18Z</time>
      </trkpt>
      <trkpt lat="44.16772" lon="5.80177">
        <ele>574</ele>
        <time>2019-06-04T09:29:19Z</time>
      </trkpt>
      <trkpt lat="44.16773" lon="5.80187">
        <ele>574</ele>
        <time>2019-06-04T09:29:20Z</time>
      </trkpt>
      <trkpt lat="44.16773" lon="5.80198">
        <ele>574</ele>
        <time>2019-06-04T09:29:21Z</time>
      </trkpt>
      <trkpt lat="44.16773" lon="5.80208">
        <ele>574</ele>
        <time>2019-06-04T09:29:22Z</time>
      </trkpt>
      <trkpt lat="44.16774" lon="5.80219">
        <ele>574</ele>
        <time>2019-06-04T09:29:23Z</time>
      </trkpt>
      <trkpt lat="44.16774" lon="5.80229">
        <ele>574</ele>
        <time>2019-06-04T09:29:24Z</time>
      </trkpt>
      <trkpt lat="44.16775" lon="5.8024">
        <ele>574</ele>
        <time>2019-06-04T09:29:25Z</time>
      </trkpt>
      <trkpt lat="44.16776" lon="5.8025">
        <ele>574</ele>
        <time>2019-06-04T09:29:26Z</time>
      </trkpt>
      <trkpt lat="44.16776" lon="5.80261">
        <ele>574</ele>
        <time>2019-06-04T09:29:27Z</time>
      </trkpt>
      <trkpt lat="44.16777" lon="5.80272">
        <ele>574</ele>
        <time>2019-06-04T09:29:28Z</time>
      </trkpt>
      <trkpt lat="44.16778" lon="5.80282">
        <ele>574</ele>
        <time>2019-06-04T09:29:29Z</time>
      </trkpt>
      <trkpt lat="44.16778" lon="5.80293">
        <ele>574</ele>
        <time>2019-06-04T09:29:30Z</time>
      </trkpt>
      <trkpt lat="44.16779" lon="5.80304">
        <ele>574</ele>
        <time>2019-06-04T09:29:31Z</time>
      </trkpt>
      <trkpt lat="44.16779" lon="5.80314">
        <ele>574</ele>
        <time>2019-06-04T09:29:32Z</time>
      </trkpt>
      <trkpt lat="44.16778" lon="5.80325">
        <ele>574</ele>
        <time>2019-06-04T09:29:33Z</time>
      </trkpt>
      <trkpt lat="44.16777" lon="5.80336">
        <ele>574</ele>
        <time>2019-06-04T09:29:34Z</time>
      </trkpt>
      <trkpt lat="44.16776" lon="5.80346">
        <ele>574</ele>
        <time>2019-06-04T09:29:35Z</time>
      </trkpt>
      <trkpt lat="44.16774" lon="5.80357">
        <ele>574</ele>
        <time>2019-06-04T09:29:36Z</time>
      </trkpt>
      <trkpt lat="44.16772" lon="5.80367">
        <ele>574</ele>
        <time>2019-06-04T09:29:37Z</time>
      </trkpt>
      <trkpt lat="44.1677" lon="5.80378">
        <ele>574</ele>
        <time>2019-06-04T09:29:38Z</time>
      </trkpt>
      <trkpt lat="44.16768" lon="5.80388">
        <ele>574</ele>
        <time>2019-06-04T09:29:39Z</time>
      </trkpt>
      <trkpt lat="44.16766" lon="5.80399">
        <ele>574</ele>
        <time>2019-06-04T09:29:40Z</time>
      </trkpt>
      <trkpt lat="44.16765" lon="5.80409">
        <ele>574</ele>
        <time>2019-06-04T09:29:41Z</time>
      </trkpt>
      <trkpt lat="44.16764" lon="5.80419">
        <ele>574</ele>
        <time>2019-06-04T09:29:42Z</time>
      </trkpt>
      <trkpt lat="44.16764" lon="5.8043">
        <ele>574</ele>
        <time>2019-06-04T09:29:43Z</time>
      </trkpt>
      <trkpt lat="44.16765" lon="5.80441">
        <ele>574</ele>
        <time>2019-06-04T09:29:44Z</time>
      </trkpt>
      <trkpt lat="44.16766" lon="5.80451">
        <ele>574</ele>
        <time>2019-06-04T09:29:45Z</time>
      </trkpt>
      <trkpt lat="44.16767" lon="5.80462">
        <ele>574</ele>
        <time>2019-06-04T09:29:46Z</time>
      </trkpt>
      <trkpt lat="44.16769" lon="5.80472">
        <ele>574</ele>
        <time>2019-06-04T09:29:47Z</time>
      </trkpt>
      <trkpt lat="44.1677" lon="5.80482">
        <ele>574</ele>
        <time>2019-06-04T09:29:48Z</time>
      </trkpt>
      <trkpt lat="44.1677" lon="5.80493">
        <ele>574</ele>
        <time>2019-06-04T09:29:49Z</time>
      </trkpt>
      <trkpt lat="44.16771" lon="5.80503">
        <ele>574</ele>
        <time>2019-06-04T09:29:50Z</time>
      </trkpt>
      <trkpt lat="44.16771" lon="5.80514">
        <ele>574</ele>
        <time>2019-06-04T09:29:51Z</time>
      </trkpt>
      <trkpt lat="44.16771" lon="5.80524">
        <ele>573</ele>
        <time>2019-06-04T09:29:52Z</time>
      </trkpt>
      <trkpt lat="44.16771" lon="5.80535">
        <ele>573</ele>
        <time>2019-06-04T09:29:53Z</time>
      </trkpt>
      <trkpt lat="44.16771" lon="5.80545">
        <ele>573</ele>
        <time>2019-06-04T09:29:54Z</time>
      </trkpt>
      <trkpt lat="44.16771" lon="5.80556">
        <ele>573</ele>
        <time>2019-06-04T09:29:55Z</time>
      </trkpt>
      <trkpt lat="44.16771" lon="5.80566">
        <ele>573</ele>
        <time>2019-06-04T09:29:56Z</time>
      </trkpt>
      <trkpt lat="44.1677" lon="5.80576">
        <ele>573</ele>
        <time>2019-06-04T09:29:57Z</time>
      </trkpt>
      <trkpt lat="44.1677" lon="5.80586">
        <ele>573</ele>
        <time>2019-06-04T09:29:58Z</time>
      </trkpt>
      <trkpt lat="44.1677" lon="5.80596">
        <ele>573</ele>
        <time>2019-06-04T09:29:59Z</time>
      </trkpt>
      <trkpt lat="44.1677" lon="5.80606">
        <ele>573</ele>
        <time>2019-06-04T09:30:00Z</time>
      </trkpt>
      <trkpt lat="44.16769" lon="5.80616">
        <ele>573</ele>
        <time>2019-06-04T09:30:01Z</time>
      </trkpt>
      <trkpt lat="44.16769" lon="5.80626">
        <ele>573</ele>
        <time>2019-06-04T09:30:02Z</time>
      </trkpt>
      <trkpt lat="44.16769" lon="5.80636">
        <ele>573</ele>
        <time>2019-06-04T09:30:03Z</time>
      </trkpt>
      <trkpt lat="44.16769" lon="5.80646">
        <ele>573</ele>
        <time>2019-06-04T09:30:04Z</time>
      </trkpt>
      <trkpt lat="44.1677" lon="5.80656">
        <ele>573</ele>
        <time>2019-06-04T09:30:05Z</time>
      </trkpt>
      <trkpt lat="44.16769" lon="5.80666">
        <ele>573</ele>
        <time>2019-06-04T09:30:06Z</time>
      </trkpt>
      <trkpt lat="44.16768" lon="5.80676">
        <ele>573</ele>
        <time>2019-06-04T09:30:07Z</time>
      </trkpt>
      <trkpt lat="44.16767" lon="5.80687">
        <ele>573</ele>
        <time>2019-06-04T09:30:08Z</time>
      </trkpt>
      <trkpt lat="44.16766" lon="5.80697">
        <ele>573</ele>
        <time>2019-06-04T09:30:09Z</time>
      </trkpt>
      <trkpt lat="44.16765" lon="5.80708">
        <ele>573</ele>
        <time>2019-06-04T09:30:10Z</time>
      </trkpt>
      <trkpt lat="44.16763" lon="5.80718">
        <ele>573</ele>
        <time>2019-06-04T09:30:11Z</time>
      </trkpt>
      <trkpt lat="44.16762" lon="5.80728">
        <ele>573</ele>
        <time>2019-06-04T09:30:12Z</time>
      </trkpt>
      <trkpt lat="44.1676" lon="5.80738">
        <ele>573</ele>
        <time>2019-06-04T09:30:13Z</time>
      </trkpt>
      <trkpt lat="44.16759" lon="5.80748">
        <ele>573</ele>
        <time>2019-06-04T09:30:14Z</time>
      </trkpt>
      <trkpt lat="44.16756" lon="5.80758">
        <ele>573</ele>
        <time>2019-06-04T09:30:15Z</time>
      </trkpt>
      <trkpt lat="44.16754" lon="5.80767">
        <ele>572</ele>
        <time>2019-06-04T09:30:16Z</time>
      </trkpt>
      <trkpt lat="44.16751" lon="5.80778">
        <ele>572</ele>
        <time>2019-06-04T09:30:17Z</time>
      </trkpt>
      <trkpt lat="44.16748" lon="5.80787">
        <ele>571</ele>
        <time>2019-06-04T09:30:18Z</time>
      </trkpt>
      <trkpt lat="44.16746" lon="5.80797">
        <ele>571</ele>
        <time>2019-06-04T09:30:19Z</time>
      </trkpt>
      <trkpt lat="44.16743" lon="5.80807">
        <ele>571</ele>
        <time>2019-06-04T09:30:20Z</time>
      </trkpt>
      <trkpt lat="44.16741" lon="5.80817">
        <ele>570</ele>
        <time>2019-06-04T09:30:21Z</time>
      </trkpt>
      <trkpt lat="44.16739" lon="5.80828">
        <ele>570</ele>
        <time>2019-06-04T09:30:22Z</time>
      </trkpt>
      <trkpt lat="44.16737" lon="5.80838">
        <ele>570</ele>
        <time>2019-06-04T09:30:23Z</time>
      </trkpt>
      <trkpt lat="44.16735" lon="5.80848">
        <ele>569</ele>
        <time>2019-06-04T09:30:24Z</time>
      </trkpt>
      <trkpt lat="44.16732" lon="5.80858">
        <ele>569</ele>
        <time>2019-06-04T09:30:25Z</time>
      </trkpt>
      <trkpt lat="44.1673" lon="5.80868">
        <ele>568</ele>
        <time>2019-06-04T09:30:26Z</time>
      </trkpt>
      <trkpt lat="44.16728" lon="5.80878">
        <ele>568</ele>
        <time>2019-06-04T09:30:27Z</time>
      </trkpt>
      <trkpt lat="44.16725" lon="5.80888">
        <ele>568</ele>
        <time>2019-06-04T09:30:28Z</time>
      </trkpt>
      <trkpt lat="44.16723" lon="5.80898">
        <ele>567</ele>
        <time>2019-06-04T09:30:29Z</time>
      </trkpt>
      <trkpt lat="44.16721" lon="5.80908">
        <ele>567</ele>
        <time>2019-06-04T09:30:30Z</time>
      </trkpt>
      <trkpt lat="44.16719" lon="5.80919">
        <ele>567</ele>
        <time>2019-06-04T09:30:31Z</time>
      </trkpt>
      <trkpt lat="44.16717" lon="5.80929">
        <ele>567</ele>
        <time>2019-06-04T09:30:32Z</time>
      </trkpt>
      <trkpt lat="44.16717" lon="5.8094">
        <ele>567</ele>
        <time>2019-06-04T09:30:33Z</time>
      </trkpt>
      <trkpt lat="44.16716" lon="5.8095">
        <ele>567</ele>
        <time>2019-06-04T09:30:34Z</time>
      </trkpt>
      <trkpt lat="44.16718" lon="5.80961">
        <ele>567</ele>
        <time>2019-06-04T09:30:35Z</time>
      </trkpt>
      <trkpt lat="44.16719" lon="5.80972">
        <ele>567</ele>
        <time>2019-06-04T09:30:36Z</time>
      </trkpt>
      <trkpt lat="44.16721" lon="5.80982">
        <ele>567</ele>
        <time>2019-06-04T09:30:37Z</time>
      </trkpt>
      <trkpt lat="44.16722" lon="5.80993">
        <ele>567</ele>
        <time>2019-06-04T09:30:38Z</time>
      </trkpt>
      <trkpt lat="44.16722" lon="5.81004">
        <ele>567</ele>
        <time>2019-06-04T09:30:39Z</time>
      </trkpt>
      <trkpt lat="44.16721" lon="5.81015">
        <ele>567</ele>
        <time>2019-06-04T09:30:40Z</time>
      </trkpt>
      <trkpt lat="44.16721" lon="5.81025">
        <ele>567</ele>
        <time>2019-06-04T09:30:41Z</time>
      </trkpt>
      <trkpt lat="44.16719" lon="5.81036">
        <ele>567</ele>
        <time>2019-06-04T09:30:42Z</time>
      </trkpt>
      <trkpt lat="44.16716" lon="5.81045">
        <ele>567</ele>
        <time>2019-06-04T09:30:43Z</time>
      </trkpt>
      <trkpt lat="44.16713" lon="5.81055">
        <ele>567</ele>
        <time>2019-06-04T09:30:44Z</time>
      </trkpt>
      <trkpt lat="44.1671" lon="5.81064">
        <ele>567</ele>
        <time>2019-06-04T09:30:45Z</time>
      </trkpt>
      <trkpt lat="44.16708" lon="5.81073">
        <ele>567</ele>
        <time>2019-06-04T09:30:46Z</time>
      </trkpt>
      <trkpt lat="44.16706" lon="5.81082">
        <ele>567</ele>
        <time>2019-06-04T09:30:47Z</time>
      </trkpt>
      <trkpt lat="44.16705" lon="5.81091">
        <ele>567</ele>
        <time>2019-06-04T09:30:48Z</time>
      </trkpt>
      <trkpt lat="44.16705" lon="5.811">
        <ele>567</ele>
        <time>2019-06-04T09:30:49Z</time>
      </trkpt>
      <trkpt lat="44.16706" lon="5.8111">
        <ele>567</ele>
        <time>2019-06-04T09:30:50Z</time>
      </trkpt>
      <trkpt lat="44.16707" lon="5.81119">
        <ele>567</ele>
        <time>2019-06-04T09:30:51Z</time>
      </trkpt>
      <trkpt lat="44.16708" lon="5.81129">
        <ele>567</ele>
        <time>2019-06-04T09:30:52Z</time>
      </trkpt>
      <trkpt lat="44.16709" lon="5.81138">
        <ele>567</ele>
        <time>2019-06-04T09:30:53Z</time>
      </trkpt>
      <trkpt lat="44.16711" lon="5.81147">
        <ele>568</ele>
        <time>2019-06-04T09:30:54Z</time>
      </trkpt>
      <trkpt lat="44.16712" lon="5.81157">
        <ele>568</ele>
        <time>2019-06-04T09:30:55Z</time>
      </trkpt>
      <trkpt lat="44.16713" lon="5.81166">
        <ele>568</ele>
        <time>2019-06-04T09:30:56Z</time>
      </trkpt>
      <trkpt lat="44.16714" lon="5.81175">
        <ele>568</ele>
        <time>2019-06-04T09:30:57Z</time>
      </trkpt>
      <trkpt lat="44.16715" lon="5.81183">
        <ele>569</ele>
        <time>2019-06-04T09:30:58Z</time>
      </trkpt>
      <trkpt lat="44.16716" lon="5.81192">
        <ele>569</ele>
        <time>2019-06-04T09:30:59Z</time>
      </trkpt>
      <trkpt lat="44.16716" lon="5.81202">
        <ele>569</ele>
        <time>2019-06-04T09:31:00Z</time>
      </trkpt>
      <trkpt lat="44.16716" lon="5.81212">
        <ele>569</ele>
        <time>2019-06-04T09:31:01Z</time>
      </trkpt>
      <trkpt lat="44.16714" lon="5.81221">
        <ele>569</ele>
        <time>2019-06-04T09:31:02Z</time>
      </trkpt>
      <trkpt lat="44.16713" lon="5.81231">
        <ele>569</ele>
        <time>2019-06-04T09:31:03Z</time>
      </trkpt>
      <trkpt lat="44.16712" lon="5.81241">
        <ele>569</ele>
        <time>2019-06-04T09:31:04Z</time>
      </trkpt>
      <trkpt lat="44.16711" lon="5.81252">
        <ele>569</ele>
        <time>2019-06-04T09:31:05Z</time>
      </trkpt>
      <trkpt lat="44.1671" lon="5.81262">
        <ele>569</ele>
        <time>2019-06-04T09:31:06Z</time>
      </trkpt>
      <trkpt lat="44.16708" lon="5.81273">
        <ele>569</ele>
        <time>2019-06-04T09:31:07Z</time>
      </trkpt>
      <trkpt lat="44.16707" lon="5.81283">
        <ele>569</ele>
        <time>2019-06-04T09:31:08Z</time>
      </trkpt>
      <trkpt lat="44.16706" lon="5.81294">
        <ele>569</ele>
        <time>2019-06-04T09:31:09Z</time>
      </trkpt>
      <trkpt lat="44.16704" lon="5.81305">
        <ele>569</ele>
        <time>2019-06-04T09:31:10Z</time>
      </trkpt>
      <trkpt lat="44.16703" lon="5.81316">
        <ele>569</ele>
        <time>2019-06-04T09:31:11Z</time>
      </trkpt>
      <trkpt lat="44.16702" lon="5.81327">
        <ele>569</ele>
        <time>2019-06-04T09:31:12Z</time>
      </trkpt>
      <trkpt lat="44.16702" lon="5.81339">
        <ele>569</ele>
        <time>2019-06-04T09:31:13Z</time>
      </trkpt>
      <trkpt lat="44.16704" lon="5.8135">
        <ele>569</ele>
        <time>2019-06-04T09:31:14Z</time>
      </trkpt>
      <trkpt lat="44.16707" lon="5.8136">
        <ele>569</ele>
        <time>2019-06-04T09:31:15Z</time>
      </trkpt>
      <trkpt lat="44.16711" lon="5.8137">
        <ele>569</ele>
        <time>2019-06-04T09:31:16Z</time>
      </trkpt>
      <trkpt lat="44.16716" lon="5.81379">
        <ele>569</ele>
        <time>2019-06-04T09:31:17Z</time>
      </trkpt>
      <trkpt lat="44.16722" lon="5.81385">
        <ele>569</ele>
        <time>2019-06-04T09:31:18Z</time>
      </trkpt>
      <trkpt lat="44.1673" lon="5.8139">
        <ele>569</ele>
        <time>2019-06-04T09:31:19Z</time>
      </trkpt>
      <trkpt lat="44.16738" lon="5.81395">
        <ele>569</ele>
        <time>2019-06-04T09:31:20Z</time>
      </trkpt>
      <trkpt lat="44.16746" lon="5.81399">
        <ele>569</ele>
        <time>2019-06-04T09:31:21Z</time>
      </trkpt>
      <trkpt lat="44.16753" lon="5.81403">
        <ele>569</ele>
        <time>2019-06-04T09:31:22Z</time>
      </trkpt>
      <trkpt lat="44.16761" lon="5.81409">
        <ele>569</ele>
        <time>2019-06-04T09:31:23Z</time>
      </trkpt>
      <trkpt lat="44.16768" lon="5.81416">
        <ele>569</ele>
        <time>2019-06-04T09:31:24Z</time>
      </trkpt>
      <trkpt lat="44.16774" lon="5.81425">
        <ele>569</ele>
        <time>2019-06-04T09:31:25Z</time>
      </trkpt>
      <trkpt lat="44.16779" lon="5.81436">
        <ele>569</ele>
        <time>2019-06-04T09:31:26Z</time>
      </trkpt>
      <trkpt lat="44.16781" lon="5.81448">
        <ele>569</ele>
        <time>2019-06-04T09:31:27Z</time>
      </trkpt>
      <trkpt lat="44.16781" lon="5.8146">
        <ele>569</ele>
        <time>2019-06-04T09:31:28Z</time>
      </trkpt>
      <trkpt lat="44.16782" lon="5.81472">
        <ele>569</ele>
        <time>2019-06-04T09:31:29Z</time>
      </trkpt>
      <trkpt lat="44.16782" lon="5.81485">
        <ele>569</ele>
        <time>2019-06-04T09:31:30Z</time>
      </trkpt>
      <trkpt lat="44.16782" lon="5.81497">
        <ele>569</ele>
        <time>2019-06-04T09:31:31Z</time>
      </trkpt>
      <trkpt lat="44.16782" lon="5.8151">
        <ele>569</ele>
        <time>2019-06-04T09:31:32Z</time>
      </trkpt>
      <trkpt lat="44.16782" lon="5.81523">
        <ele>568</ele>
        <time>2019-06-04T09:31:33Z</time>
      </trkpt>
      <trkpt lat="44.1678" lon="5.81536">
        <ele>568</ele>
        <time>2019-06-04T09:31:34Z</time>
      </trkpt>
      <trkpt lat="44.1678" lon="5.81549">
        <ele>568</ele>
        <time>2019-06-04T09:31:35Z</time>
      </trkpt>
      <trkpt lat="44.16779" lon="5.81562">
        <ele>567</ele>
        <time>2019-06-04T09:31:36Z</time>
      </trkpt>
      <trkpt lat="44.16779" lon="5.81576">
        <ele>567</ele>
        <time>2019-06-04T09:31:37Z</time>
      </trkpt>
      <trkpt lat="44.16779" lon="5.81589">
        <ele>567</ele>
        <time>2019-06-04T09:31:38Z</time>
      </trkpt>
      <trkpt lat="44.16779" lon="5.81602">
        <ele>566</ele>
        <time>2019-06-04T09:31:39Z</time>
      </trkpt>
      <trkpt lat="44.16779" lon="5.81615">
        <ele>566</ele>
        <time>2019-06-04T09:31:40Z</time>
      </trkpt>
      <trkpt lat="44.1678" lon="5.81628">
        <ele>566</ele>
        <time>2019-06-04T09:31:41Z</time>
      </trkpt>
      <trkpt lat="44.16782" lon="5.8164">
        <ele>566</ele>
        <time>2019-06-04T09:31:42Z</time>
      </trkpt>
      <trkpt lat="44.16784" lon="5.81652">
        <ele>566</ele>
        <time>2019-06-04T09:31:43Z</time>
      </trkpt>
      <trkpt lat="44.16786" lon="5.81663">
        <ele>566</ele>
        <time>2019-06-04T09:31:44Z</time>
      </trkpt>
      <trkpt lat="44.16788" lon="5.81674">
        <ele>566</ele>
        <time>2019-06-04T09:31:45Z</time>
      </trkpt>
      <trkpt lat="44.16792" lon="5.81684">
        <ele>566</ele>
        <time>2019-06-04T09:31:46Z</time>
      </trkpt>
      <trkpt lat="44.16795" lon="5.81694">
        <ele>566</ele>
        <time>2019-06-04T09:31:47Z</time>
      </trkpt>
      <trkpt lat="44.16798" lon="5.81704">
        <ele>566</ele>
        <time>2019-06-04T09:31:48Z</time>
      </trkpt>
      <trkpt lat="44.16801" lon="5.81713">
        <ele>566</ele>
        <time>2019-06-04T09:31:49Z</time>
      </trkpt>
      <trkpt lat="44.16805" lon="5.81722">
        <ele>566</ele>
        <time>2019-06-04T09:31:50Z</time>
      </trkpt>
      <trkpt lat="44.16808" lon="5.8173">
        <ele>566</ele>
        <time>2019-06-04T09:31:51Z</time>
      </trkpt>
      <trkpt lat="44.16813" lon="5.81738">
        <ele>566</ele>
        <time>2019-06-04T09:31:52Z</time>
      </trkpt>
      <trkpt lat="44.16817" lon="5.81746">
        <ele>566</ele>
        <time>2019-06-04T09:31:53Z</time>
      </trkpt>
      <trkpt lat="44.16822" lon="5.81754">
        <ele>566</ele>
        <time>2019-06-04T09:31:54Z</time>
      </trkpt>
      <trkpt lat="44.16826" lon="5.81763">
        <ele>566</ele>
        <time>2019-06-04T09:31:55Z</time>
      </trkpt>
      <trkpt lat="44.1683" lon="5.81772">
        <ele>566</ele>
        <time>2019-06-04T09:31:56Z</time>
      </trkpt>
      <trkpt lat="44.16834" lon="5.8178">
        <ele>566</ele>
        <time>2019-06-04T09:31:57Z</time>
      </trkpt>
      <trkpt lat="44.16838" lon="5.81789">
        <ele>566</ele>
        <time>2019-06-04T09:31:58Z</time>
      </trkpt>
      <trkpt lat="44.16842" lon="5.81798">
        <ele>566</ele>
        <time>2019-06-04T09:31:59Z</time>
      </trkpt>
      <trkpt lat="44.16845" lon="5.81807">
        <ele>566</ele>
        <time>2019-06-04T09:32:00Z</time>
      </trkpt>
      <trkpt lat="44.1685" lon="5.81816">
        <ele>566</ele>
        <time>2019-06-04T09:32:01Z</time>
      </trkpt>
      <trkpt lat="44.16854" lon="5.81825">
        <ele>566</ele>
        <time>2019-06-04T09:32:02Z</time>
      </trkpt>
      <trkpt lat="44.16858" lon="5.81834">
        <ele>566</ele>
        <time>2019-06-04T09:32:03Z</time>
      </trkpt>
      <trkpt lat="44.16862" lon="5.81843">
        <ele>566</ele>
        <time>2019-06-04T09:32:04Z</time>
      </trkpt>
      <trkpt lat="44.16867" lon="5.81853">
        <ele>566</ele>
        <time>2019-06-04T09:32:05Z</time>
      </trkpt>
      <trkpt lat="44.16871" lon="5.81862">
        <ele>566</ele>
        <time>2019-06-04T09:32:06Z</time>
      </trkpt>
      <trkpt lat="44.16875" lon="5.81872">
        <ele>566</ele>
        <time>2019-06-04T09:32:07Z</time>
      </trkpt>
      <trkpt lat="44.1688" lon="5.81881">
        <ele>566</ele>
        <time>2019-06-04T09:32:08Z</time>
      </trkpt>
      <trkpt lat="44.16886" lon="5.8189">
        <ele>566</ele>
        <time>2019-06-04T09:32:09Z</time>
      </trkpt>
      <trkpt lat="44.16892" lon="5.81899">
        <ele>566</ele>
        <time>2019-06-04T09:32:10Z</time>
      </trkpt>
      <trkpt lat="44.16899" lon="5.81907">
        <ele>566</ele>
        <time>2019-06-04T09:32:11Z</time>
      </trkpt>
      <trkpt lat="44.16906" lon="5.81916">
        <ele>566</ele>
        <time>2019-06-04T09:32:12Z</time>
      </trkpt>
      <trkpt lat="44.16912" lon="5.81924">
        <ele>566</ele>
        <time>2019-06-04T09:32:13Z</time>
      </trkpt>
      <trkpt lat="44.16919" lon="5.81933">
        <ele>566</ele>
        <time>2019-06-04T09:32:14Z</time>
      </trkpt>
      <trkpt lat="44.16925" lon="5.81944">
        <ele>566</ele>
        <time>2019-06-04T09:32:15Z</time>
      </trkpt>
      <trkpt lat="44.16931" lon="5.81956">
        <ele>566</ele>
        <time>2019-06-04T09:32:16Z</time>
      </trkpt>
      <trkpt lat="44.16934" lon="5.81969">
        <ele>565</ele>
        <time>2019-06-04T09:32:17Z</time>
      </trkpt>
      <trkpt lat="44.16935" lon="5.81982">
        <ele>565</ele>
        <time>2019-06-04T09:32:18Z</time>
      </trkpt>
      <trkpt lat="44.16936" lon="5.81996">
        <ele>564</ele>
        <time>2019-06-04T09:32:19Z</time>
      </trkpt>
      <trkpt lat="44.16937" lon="5.8201">
        <ele>564</ele>
        <time>2019-06-04T09:32:20Z</time>
      </trkpt>
      <trkpt lat="44.16938" lon="5.82023">
        <ele>564</ele>
        <time>2019-06-04T09:32:21Z</time>
      </trkpt>
      <trkpt lat="44.16938" lon="5.82037">
        <ele>563</ele>
        <time>2019-06-04T09:32:22Z</time>
      </trkpt>
      <trkpt lat="44.16939" lon="5.82051">
        <ele>563</ele>
        <time>2019-06-04T09:32:23Z</time>
      </trkpt>
      <trkpt lat="44.16939" lon="5.82065">
        <ele>562</ele>
        <time>2019-06-04T09:32:24Z</time>
      </trkpt>
      <trkpt lat="44.16939" lon="5.82079">
        <ele>562</ele>
        <time>2019-06-04T09:32:25Z</time>
      </trkpt>
      <trkpt lat="44.1694" lon="5.82093">
        <ele>561</ele>
        <time>2019-06-04T09:32:26Z</time>
      </trkpt>
      <trkpt lat="44.1694" lon="5.82107">
        <ele>561</ele>
        <time>2019-06-04T09:32:27Z</time>
      </trkpt>
      <trkpt lat="44.1694" lon="5.82121">
        <ele>560</ele>
        <time>2019-06-04T09:32:28Z</time>
      </trkpt>
      <trkpt lat="44.16941" lon="5.82134">
        <ele>560</ele>
        <time>2019-06-04T09:32:29Z</time>
      </trkpt>
      <trkpt lat="44.16942" lon="5.82149">
        <ele>559</ele>
        <time>2019-06-04T09:32:30Z</time>
      </trkpt>
      <trkpt lat="44.16942" lon="5.82162">
        <ele>559</ele>
        <time>2019-06-04T09:32:31Z</time>
      </trkpt>
      <trkpt lat="44.16942" lon="5.82176">
        <ele>559</ele>
        <time>2019-06-04T09:32:32Z</time>
      </trkpt>
      <trkpt lat="44.16942" lon="5.8219">
        <ele>558</ele>
        <time>2019-06-04T09:32:33Z</time>
      </trkpt>
      <trkpt lat="44.16941" lon="5.82204">
        <ele>558</ele>
        <time>2019-06-04T09:32:34Z</time>
      </trkpt>
      <trkpt lat="44.16941" lon="5.82218">
        <ele>558</ele>
        <time>2019-06-04T09:32:35Z</time>
      </trkpt>
      <trkpt lat="44.1694" lon="5.82231">
        <ele>558</ele>
        <time>2019-06-04T09:32:36Z</time>
      </trkpt>
      <trkpt lat="44.16939" lon="5.82245">
        <ele>557</ele>
        <time>2019-06-04T09:32:37Z</time>
      </trkpt>
      <trkpt lat="44.16938" lon="5.82258">
        <ele>557</ele>
        <time>2019-06-04T09:32:38Z</time>
      </trkpt>
      <trkpt lat="44.16937" lon="5.82272">
        <ele>557</ele>
        <time>2019-06-04T09:32:39Z</time>
      </trkpt>
      <trkpt lat="44.16936" lon="5.82285">
        <ele>556</ele>
        <time>2019-06-04T09:32:40Z</time>
      </trkpt>
      <trkpt lat="44.16935" lon="5.82298">
        <ele>556</ele>
        <time>2019-06-04T09:32:41Z</time>
      </trkpt>
      <trkpt lat="44.16934" lon="5.82311">
        <ele>555</ele>
        <time>2019-06-04T09:32:42Z</time>
      </trkpt>
      <trkpt lat="44.16933" lon="5.82324">
        <ele>555</ele>
        <time>2019-06-04T09:32:43Z</time>
      </trkpt>
      <trkpt lat="44.16932" lon="5.82337">
        <ele>555</ele>
        <time>2019-06-04T09:32:44Z</time>
      </trkpt>
      <trkpt lat="44.16931" lon="5.82349">
        <ele>554</ele>
        <time>2019-06-04T09:32:45Z</time>
      </trkpt>
      <trkpt lat="44.1693" lon="5.82362">
        <ele>554</ele>
        <time>2019-06-04T09:32:46Z</time>
      </trkpt>
      <trkpt lat="44.16928" lon="5.82375">
        <ele>554</ele>
        <time>2019-06-04T09:32:47Z</time>
      </trkpt>
      <trkpt lat="44.16927" lon="5.82388">
        <ele>554</ele>
        <time>2019-06-04T09:32:48Z</time>
      </trkpt>
      <trkpt lat="44.16927" lon="5.82401">
        <ele>553</ele>
        <time>2019-06-04T09:32:49Z</time>
      </trkpt>
      <trkpt lat="44.16926" lon="5.82414">
        <ele>553</ele>
        <time>2019-06-04T09:32:50Z</time>
      </trkpt>
      <trkpt lat="44.16925" lon="5.82427">
        <ele>553</ele>
        <time>2019-06-04T09:32:51Z</time>
      </trkpt>
      <trkpt lat="44.16925" lon="5.8244">
        <ele>552</ele>
        <time>2019-06-04T09:32:52Z</time>
      </trkpt>
      <trkpt lat="44.16924" lon="5.82453">
        <ele>552</ele>
        <time>2019-06-04T09:32:53Z</time>
      </trkpt>
      <trkpt lat="44.16923" lon="5.82465">
        <ele>552</ele>
        <time>2019-06-04T09:32:54Z</time>
      </trkpt>
      <trkpt lat="44.16922" lon="5.82478">
        <ele>551</ele>
        <time>2019-06-04T09:32:55Z</time>
      </trkpt>
      <trkpt lat="44.1692" lon="5.82491">
        <ele>551</ele>
        <time>2019-06-04T09:32:56Z</time>
      </trkpt>
      <trkpt lat="44.16919" lon="5.82503">
        <ele>551</ele>
        <time>2019-06-04T09:32:57Z</time>
      </trkpt>
      <trkpt lat="44.16918" lon="5.82515">
        <ele>550</ele>
        <time>2019-06-04T09:32:58Z</time>
      </trkpt>
      <trkpt lat="44.16917" lon="5.82528">
        <ele>550</ele>
        <time>2019-06-04T09:32:59Z</time>
      </trkpt>
      <trkpt lat="44.16916" lon="5.8254">
        <ele>550</ele>
        <time>2019-06-04T09:33:00Z</time>
      </trkpt>
      <trkpt lat="44.16915" lon="5.82552">
        <ele>550</ele>
        <time>2019-06-04T09:33:01Z</time>
      </trkpt>
      <trkpt lat="44.16914" lon="5.82564">
        <ele>549</ele>
        <time>2019-06-04T09:33:02Z</time>
      </trkpt>
      <trkpt lat="44.16914" lon="5.82576">
        <ele>549</ele>
        <time>2019-06-04T09:33:03Z</time>
      </trkpt>
      <trkpt lat="44.16913" lon="5.82588">
        <ele>549</ele>
        <time>2019-06-04T09:33:04Z</time>
      </trkpt>
      <trkpt lat="44.16912" lon="5.826">
        <ele>549</ele>
        <time>2019-06-04T09:33:05Z</time>
      </trkpt>
      <trkpt lat="44.1691" lon="5.82612">
        <ele>549</ele>
        <time>2019-06-04T09:33:06Z</time>
      </trkpt>
      <trkpt lat="44.16908" lon="5.82623">
        <ele>549</ele>
        <time>2019-06-04T09:33:07Z</time>
      </trkpt>
      <trkpt lat="44.16905" lon="5.82634">
        <ele>549</ele>
        <time>2019-06-04T09:33:08Z</time>
      </trkpt>
      <trkpt lat="44.16901" lon="5.82645">
        <ele>549</ele>
        <time>2019-06-04T09:33:09Z</time>
      </trkpt>
      <trkpt lat="44.16898" lon="5.82655">
        <ele>549</ele>
        <time>2019-06-04T09:33:10Z</time>
      </trkpt>
      <trkpt lat="44.16896" lon="5.82666">
        <ele>549</ele>
        <time>2019-06-04T09:33:11Z</time>
      </trkpt>
      <trkpt lat="44.16892" lon="5.82676">
        <ele>549</ele>
        <time>2019-06-04T09:33:12Z</time>
      </trkpt>
      <trkpt lat="44.16889" lon="5.82686">
        <ele>549</ele>
        <time>2019-06-04T09:33:13Z</time>
      </trkpt>
      <trkpt lat="44.16886" lon="5.82696">
        <ele>549</ele>
        <time>2019-06-04T09:33:14Z</time>
      </trkpt>
      <trkpt lat="44.16883" lon="5.82706">
        <ele>549</ele>
        <time>2019-06-04T09:33:15Z</time>
      </trkpt>
      <trkpt lat="44.1688" lon="5.82716">
        <ele>549</ele>
        <time>2019-06-04T09:33:16Z</time>
      </trkpt>
      <trkpt lat="44.16877" lon="5.82726">
        <ele>549</ele>
        <time>2019-06-04T09:33:17Z</time>
      </trkpt>
      <trkpt lat="44.16873" lon="5.82735">
        <ele>549</ele>
        <time>2019-06-04T09:33:18Z</time>
      </trkpt>
      <trkpt lat="44.1687" lon="5.82745">
        <ele>549</ele>
        <time>2019-06-04T09:33:19Z</time>
      </trkpt>
      <trkpt lat="44.16867" lon="5.82754">
        <ele>549</ele>
        <time>2019-06-04T09:33:20Z</time>
      </trkpt>
      <trkpt lat="44.16863" lon="5.82763">
        <ele>549</ele>
        <time>2019-06-04T09:33:21Z</time>
      </trkpt>
      <trkpt lat="44.1686" lon="5.82771">
        <ele>549</ele>
        <time>2019-06-04T09:33:22Z</time>
      </trkpt>
      <trkpt lat="44.16856" lon="5.8278">
        <ele>549</ele>
        <time>2019-06-04T09:33:23Z</time>
      </trkpt>
      <trkpt lat="44.16854" lon="5.82789">
        <ele>549</ele>
        <time>2019-06-04T09:33:24Z</time>
      </trkpt>
      <trkpt lat="44.16851" lon="5.82797">
        <ele>549</ele>
        <time>2019-06-04T09:33:25Z</time>
      </trkpt>
      <trkpt lat="44.16848" lon="5.82805">
        <ele>549</ele>
        <time>2019-06-04T09:33:26Z</time>
      </trkpt>
      <trkpt lat="44.16845" lon="5.82814">
        <ele>549</ele>
        <time>2019-06-04T09:33:27Z</time>
      </trkpt>
      <trkpt lat="44.16843" lon="5.82822">
        <ele>549</ele>
        <time>2019-06-04T09:33:28Z</time>
      </trkpt>
      <trkpt lat="44.16842" lon="5.8283">
        <ele>549</ele>
        <time>2019-06-04T09:33:29Z</time>
      </trkpt>
      <trkpt lat="44.1684" lon="5.82839">
        <ele>549</ele>
        <time>2019-06-04T09:33:30Z</time>
      </trkpt>
      <trkpt lat="44.16839" lon="5.82849">
        <ele>549</ele>
        <time>2019-06-04T09:33:31Z</time>
      </trkpt>
      <trkpt lat="44.1684" lon="5.82859">
        <ele>549</ele>
        <time>2019-06-04T09:33:32Z</time>
      </trkpt>
      <trkpt lat="44.16839" lon="5.82869">
        <ele>549</ele>
        <time>2019-06-04T09:33:33Z</time>
      </trkpt>
      <trkpt lat="44.1684" lon="5.82879">
        <ele>549</ele>
        <time>2019-06-04T09:33:34Z</time>
      </trkpt>
      <trkpt lat="44.16841" lon="5.82889">
        <ele>549</ele>
        <time>2019-06-04T09:33:35Z</time>
      </trkpt>
      <trkpt lat="44.16843" lon="5.829">
        <ele>549</ele>
        <time>2019-06-04T09:33:36Z</time>
      </trkpt>
      <trkpt lat="44.16845" lon="5.8291">
        <ele>549</ele>
        <time>2019-06-04T09:33:37Z</time>
      </trkpt>
      <trkpt lat="44.16846" lon="5.82921">
        <ele>549</ele>
        <time>2019-06-04T09:33:38Z</time>
      </trkpt>
      <trkpt lat="44.16848" lon="5.82932">
        <ele>549</ele>
        <time>2019-06-04T09:33:39Z</time>
      </trkpt>
      <trkpt lat="44.16848" lon="5.82943">
        <ele>549</ele>
        <time>2019-06-04T09:33:40Z</time>
      </trkpt>
      <trkpt lat="44.16848" lon="5.82954">
        <ele>549</ele>
        <time>2019-06-04T09:33:41Z</time>
      </trkpt>
      <trkpt lat="44.16847" lon="5.82966">
        <ele>549</ele>
        <time>2019-06-04T09:33:42Z</time>
      </trkpt>
      <trkpt lat="44.16846" lon="5.82977">
        <ele>549</ele>
        <time>2019-06-04T09:33:43Z</time>
      </trkpt>
      <trkpt lat="44.16845" lon="5.82989">
        <ele>549</ele>
        <time>2019-06-04T09:33:44Z</time>
      </trkpt>
      <trkpt lat="44.16845" lon="5.83001">
        <ele>549</ele>
        <time>2019-06-04T09:33:45Z</time>
      </trkpt>
      <trkpt lat="44.16844" lon="5.83013">
        <ele>549</ele>
        <time>2019-06-04T09:33:46Z</time>
      </trkpt>
      <trkpt lat="44.16843" lon="5.83025">
        <ele>549</ele>
        <time>2019-06-04T09:33:47Z</time>
      </trkpt>
      <trkpt lat="44.16842" lon="5.83036">
        <ele>549</ele>
        <time>2019-06-04T09:33:48Z</time>
      </trkpt>
      <trkpt lat="44.16842" lon="5.83048">
        <ele>549</ele>
        <time>2019-06-04T09:33:49Z</time>
      </trkpt>
      <trkpt lat="44.16842" lon="5.8306">
        <ele>549</ele>
        <time>2019-06-04T09:33:50Z</time>
      </trkpt>
      <trkpt lat="44.16842" lon="5.83072">
        <ele>549</ele>
        <time>2019-06-04T09:33:51Z</time>
      </trkpt>
      <trkpt lat="44.16843" lon="5.83084">
        <ele>549</ele>
        <time>2019-06-04T09:33:52Z</time>
      </trkpt>
      <trkpt lat="44.16845" lon="5.83096">
        <ele>549</ele>
        <time>2019-06-04T09:33:53Z</time>
      </trkpt>
      <trkpt lat="44.16849" lon="5.83108">
        <ele>549</ele>
        <time>2019-06-04T09:33:54Z</time>
      </trkpt>
      <trkpt lat="44.16853" lon="5.8312">
        <ele>549</ele>
        <time>2019-06-04T09:33:55Z</time>
      </trkpt>
      <trkpt lat="44.16857" lon="5.83133">
        <ele>548</ele>
        <time>2019-06-04T09:33:56Z</time>
      </trkpt>
      <trkpt lat="44.16861" lon="5.83145">
        <ele>548</ele>
        <time>2019-06-04T09:33:57Z</time>
      </trkpt>
      <trkpt lat="44.16865" lon="5.83158">
        <ele>548</ele>
        <time>2019-06-04T09:33:58Z</time>
      </trkpt>
      <trkpt lat="44.1687" lon="5.83171">
        <ele>547</ele>
        <time>2019-06-04T09:33:59Z</time>
      </trkpt>
      <trkpt lat="44.16875" lon="5.83184">
        <ele>547</ele>
        <time>2019-06-04T09:34:00Z</time>
      </trkpt>
      <trkpt lat="44.16879" lon="5.83198">
        <ele>547</ele>
        <time>2019-06-04T09:34:01Z</time>
      </trkpt>
      <trkpt lat="44.16882" lon="5.83212">
        <ele>547</ele>
        <time>2019-06-04T09:34:02Z</time>
      </trkpt>
      <trkpt lat="44.16885" lon="5.83226">
        <ele>546</ele>
        <time>2019-06-04T09:34:03Z</time>
      </trkpt>
      <trkpt lat="44.16887" lon="5.8324">
        <ele>546</ele>
        <time>2019-06-04T09:34:04Z</time>
      </trkpt>
      <trkpt lat="44.16888" lon="5.83254">
        <ele>546</ele>
        <time>2019-06-04T09:34:05Z</time>
      </trkpt>
      <trkpt lat="44.16889" lon="5.83268">
        <ele>545</ele>
        <time>2019-06-04T09:34:06Z</time>
      </trkpt>
      <trkpt lat="44.16889" lon="5.83282">
        <ele>545</ele>
        <time>2019-06-04T09:34:07Z</time>
      </trkpt>
      <trkpt lat="44.1689" lon="5.83295">
        <ele>545</ele>
        <time>2019-06-04T09:34:08Z</time>
      </trkpt>
      <trkpt lat="44.16891" lon="5.83309">
        <ele>545</ele>
        <time>2019-06-04T09:34:09Z</time>
      </trkpt>
      <trkpt lat="44.16891" lon="5.83322">
        <ele>545</ele>
        <time>2019-06-04T09:34:10Z</time>
      </trkpt>
      <trkpt lat="44.16892" lon="5.83336">
        <ele>544</ele>
        <time>2019-06-04T09:34:11Z</time>
      </trkpt>
      <trkpt lat="44.16893" lon="5.83349">
        <ele>544</ele>
        <time>2019-06-04T09:34:12Z</time>
      </trkpt>
      <trkpt lat="44.16894" lon="5.83362">
        <ele>544</ele>
        <time>2019-06-04T09:34:13Z</time>
      </trkpt>
      <trkpt lat="44.16895" lon="5.83376">
        <ele>544</ele>
        <time>2019-06-04T09:34:14Z</time>
      </trkpt>
      <trkpt lat="44.16896" lon="5.83389">
        <ele>544</ele>
        <time>2019-06-04T09:34:15Z</time>
      </trkpt>
      <trkpt lat="44.16897" lon="5.83401">
        <ele>544</ele>
        <time>2019-06-04T09:34:16Z</time>
      </trkpt>
      <trkpt lat="44.16898" lon="5.83414">
        <ele>544</ele>
        <time>2019-06-04T09:34:17Z</time>
      </trkpt>
      <trkpt lat="44.16899" lon="5.83427">
        <ele>544</ele>
        <time>2019-06-04T09:34:18Z</time>
      </trkpt>
      <trkpt lat="44.169" lon="5.83439">
        <ele>544</ele>
        <time>2019-06-04T09:34:19Z</time>
      </trkpt>
      <trkpt lat="44.16901" lon="5.83452">
        <ele>544</ele>
        <time>2019-06-04T09:34:20Z</time>
      </trkpt>
      <trkpt lat="44.16901" lon="5.83464">
        <ele>544</ele>
        <time>2019-06-04T09:34:21Z</time>
      </trkpt>
      <trkpt lat="44.16902" lon="5.83476">
        <ele>544</ele>
        <time>2019-06-04T09:34:22Z</time>
      </trkpt>
      <trkpt lat="44.16903" lon="5.83488">
        <ele>544</ele>
        <time>2019-06-04T09:34:23Z</time>
      </trkpt>
      <trkpt lat="44.16903" lon="5.835">
        <ele>544</ele>
        <time>2019-06-04T09:34:24Z</time>
      </trkpt>
      <trkpt lat="44.16904" lon="5.83511">
        <ele>544</ele>
        <time>2019-06-04T09:34:25Z</time>
      </trkpt>
      <trkpt lat="44.16904" lon="5.83523">
        <ele>544</ele>
        <time>2019-06-04T09:34:26Z</time>
      </trkpt>
      <trkpt lat="44.16905" lon="5.83534">
        <ele>544</ele>
        <time>2019-06-04T09:34:27Z</time>
      </trkpt>
      <trkpt lat="44.16906" lon="5.83546">
        <ele>544</ele>
        <time>2019-06-04T09:34:28Z</time>
      </trkpt>
      <trkpt lat="44.16906" lon="5.83557">
        <ele>544</ele>
        <time>2019-06-04T09:34:29Z</time>
      </trkpt>
      <trkpt lat="44.16907" lon="5.83568">
        <ele>544</ele>
        <time>2019-06-04T09:34:30Z</time>
      </trkpt>
      <trkpt lat="44.16908" lon="5.83579">
        <ele>544</ele>
        <time>2019-06-04T09:34:31Z</time>
      </trkpt>
      <trkpt lat="44.16909" lon="5.83591">
        <ele>544</ele>
        <time>2019-06-04T09:34:32Z</time>
      </trkpt>
      <trkpt lat="44.1691" lon="5.83603">
        <ele>544</ele>
        <time>2019-06-04T09:34:33Z</time>
      </trkpt>
      <trkpt lat="44.16911" lon="5.83615">
        <ele>544</ele>
        <time>2019-06-04T09:34:34Z</time>
      </trkpt>
      <trkpt lat="44.16912" lon="5.83627">
        <ele>544</ele>
        <time>2019-06-04T09:34:35Z</time>
      </trkpt>
      <trkpt lat="44.16913" lon="5.83639">
        <ele>544</ele>
        <time>2019-06-04T09:34:36Z</time>
      </trkpt>
      <trkpt lat="44.16913" lon="5.83652">
        <ele>544</ele>
        <time>2019-06-04T09:34:37Z</time>
      </trkpt>
      <trkpt lat="44.16914" lon="5.83665">
        <ele>544</ele>
        <time>2019-06-04T09:34:38Z</time>
      </trkpt>
      <trkpt lat="44.16915" lon="5.83677">
        <ele>544</ele>
        <time>2019-06-04T09:34:39Z</time>
      </trkpt>
      <trkpt lat="44.16916" lon="5.8369">
        <ele>544</ele>
        <time>2019-06-04T09:34:40Z</time>
      </trkpt>
      <trkpt lat="44.16917" lon="5.83702">
        <ele>544</ele>
        <time>2019-06-04T09:34:41Z</time>
      </trkpt>
      <trkpt lat="44.16918" lon="5.83714">
        <ele>544</ele>
        <time>2019-06-04T09:34:42Z</time>
      </trkpt>
      <trkpt lat="44.16919" lon="5.83727">
        <ele>544</ele>
        <time>2019-06-04T09:34:43Z</time>
      </trkpt>
      <trkpt lat="44.16919" lon="5.83739">
        <ele>544</ele>
        <time>2019-06-04T09:34:44Z</time>
      </trkpt>
      <trkpt lat="44.16919" lon="5.83751">
        <ele>544</ele>
        <time>2019-06-04T09:34:45Z</time>
      </trkpt>
      <trkpt lat="44.1692" lon="5.83763">
        <ele>544</ele>
        <time>2019-06-04T09:34:46Z</time>
      </trkpt>
      <trkpt lat="44.1692" lon="5.83775">
        <ele>544</ele>
        <time>2019-06-04T09:34:47Z</time>
      </trkpt>
      <trkpt lat="44.1692" lon="5.83786">
        <ele>544</ele>
        <time>2019-06-04T09:34:48Z</time>
      </trkpt>
      <trkpt lat="44.1692" lon="5.83797">
        <ele>544</ele>
        <time>2019-06-04T09:34:49Z</time>
      </trkpt>
      <trkpt lat="44.1692" lon="5.83809">
        <ele>544</ele>
        <time>2019-06-04T09:34:50Z</time>
      </trkpt>
      <trkpt lat="44.1692" lon="5.8382">
        <ele>544</ele>
        <time>2019-06-04T09:34:51Z</time>
      </trkpt>
      <trkpt lat="44.1692" lon="5.83831">
        <ele>544</ele>
        <time>2019-06-04T09:34:52Z</time>
      </trkpt>
      <trkpt lat="44.1692" lon="5.83843">
        <ele>544</ele>
        <time>2019-06-04T09:34:53Z</time>
      </trkpt>
      <trkpt lat="44.1692" lon="5.83854">
        <ele>544</ele>
        <time>2019-06-04T09:34:54Z</time>
      </trkpt>
      <trkpt lat="44.1692" lon="5.83865">
        <ele>544</ele>
        <time>2019-06-04T09:34:55Z</time>
      </trkpt>
      <trkpt lat="44.1692" lon="5.83876">
        <ele>544</ele>
        <time>2019-06-04T09:34:56Z</time>
      </trkpt>
      <trkpt lat="44.1692" lon="5.83887">
        <ele>544</ele>
        <time>2019-06-04T09:34:57Z</time>
      </trkpt>
      <trkpt lat="44.1692" lon="5.83898">
        <ele>544</ele>
        <time>2019-06-04T09:34:58Z</time>
      </trkpt>
      <trkpt lat="44.1692" lon="5.83909">
        <ele>544</ele>
        <time>2019-06-04T09:34:59Z</time>
      </trkpt>
      <trkpt lat="44.16919" lon="5.83919">
        <ele>544</ele>
        <time>2019-06-04T09:35:00Z</time>
      </trkpt>
      <trkpt lat="44.16919" lon="5.8393">
        <ele>544</ele>
        <time>2019-06-04T09:35:01Z</time>
      </trkpt>
      <trkpt lat="44.16919" lon="5.8394">
        <ele>544</ele>
        <time>2019-06-04T09:35:02Z</time>
      </trkpt>
      <trkpt lat="44.16919" lon="5.83949">
        <ele>544</ele>
        <time>2019-06-04T09:35:03Z</time>
      </trkpt>
      <trkpt lat="44.16919" lon="5.83959">
        <ele>544</ele>
        <time>2019-06-04T09:35:04Z</time>
      </trkpt>
      <trkpt lat="44.16919" lon="5.83969">
        <ele>544</ele>
        <time>2019-06-04T09:35:05Z</time>
      </trkpt>
      <trkpt lat="44.16919" lon="5.83979">
        <ele>544</ele>
        <time>2019-06-04T09:35:06Z</time>
      </trkpt>
      <trkpt lat="44.16919" lon="5.83989">
        <ele>544</ele>
        <time>2019-06-04T09:35:07Z</time>
      </trkpt>
      <trkpt lat="44.16919" lon="5.83999">
        <ele>544</ele>
        <time>2019-06-04T09:35:08Z</time>
      </trkpt>
      <trkpt lat="44.16919" lon="5.8401">
        <ele>544</ele>
        <time>2019-06-04T09:35:09Z</time>
      </trkpt>
      <trkpt lat="44.16919" lon="5.8402">
        <ele>544</ele>
        <time>2019-06-04T09:35:10Z</time>
      </trkpt>
      <trkpt lat="44.16919" lon="5.84031">
        <ele>544</ele>
        <time>2019-06-04T09:35:11Z</time>
      </trkpt>
      <trkpt lat="44.16919" lon="5.84042">
        <ele>544</ele>
        <time>2019-06-04T09:35:12Z</time>
      </trkpt>
      <trkpt lat="44.16919" lon="5.84054">
        <ele>544</ele>
        <time>2019-06-04T09:35:13Z</time>
      </trkpt>
      <trkpt lat="44.16918" lon="5.84065">
        <ele>544</ele>
        <time>2019-06-04T09:35:14Z</time>
      </trkpt>
      <trkpt lat="44.16918" lon="5.84078">
        <ele>544</ele>
        <time>2019-06-04T09:35:15Z</time>
      </trkpt>
      <trkpt lat="44.16918" lon="5.8409">
        <ele>544</ele>
        <time>2019-06-04T09:35:16Z</time>
      </trkpt>
      <trkpt lat="44.16918" lon="5.84103">
        <ele>544</ele>
        <time>2019-06-04T09:35:17Z</time>
      </trkpt>
      <trkpt lat="44.16917" lon="5.84117">
        <ele>543</ele>
        <time>2019-06-04T09:35:18Z</time>
      </trkpt>
      <trkpt lat="44.16917" lon="5.84131">
        <ele>543</ele>
        <time>2019-06-04T09:35:19Z</time>
      </trkpt>
      <trkpt lat="44.16916" lon="5.84145">
        <ele>542</ele>
        <time>2019-06-04T09:35:20Z</time>
      </trkpt>
      <trkpt lat="44.16915" lon="5.8416">
        <ele>541</ele>
        <time>2019-06-04T09:35:21Z</time>
      </trkpt>
      <trkpt lat="44.16915" lon="5.84174">
        <ele>540</ele>
        <time>2019-06-04T09:35:22Z</time>
      </trkpt>
      <trkpt lat="44.16914" lon="5.84189">
        <ele>540</ele>
        <time>2019-06-04T09:35:23Z</time>
      </trkpt>
      <trkpt lat="44.16912" lon="5.84204">
        <ele>539</ele>
        <time>2019-06-04T09:35:24Z</time>
      </trkpt>
      <trkpt lat="44.16911" lon="5.84219">
        <ele>539</ele>
        <time>2019-06-04T09:35:25Z</time>
      </trkpt>
      <trkpt lat="44.1691" lon="5.84233">
        <ele>538</ele>
        <time>2019-06-04T09:35:26Z</time>
      </trkpt>
      <trkpt lat="44.16909" lon="5.84247">
        <ele>538</ele>
        <time>2019-06-04T09:35:27Z</time>
      </trkpt>
      <trkpt lat="44.16907" lon="5.84261">
        <ele>538</ele>
        <time>2019-06-04T09:35:28Z</time>
      </trkpt>
      <trkpt lat="44.16906" lon="5.84275">
        <ele>538</ele>
        <time>2019-06-04T09:35:29Z</time>
      </trkpt>
      <trkpt lat="44.16904" lon="5.84289">
        <ele>538</ele>
        <time>2019-06-04T09:35:30Z</time>
      </trkpt>
      <trkpt lat="44.16903" lon="5.84302">
        <ele>537</ele>
        <time>2019-06-04T09:35:31Z</time>
      </trkpt>
      <trkpt lat="44.16901" lon="5.84315">
        <ele>537</ele>
        <time>2019-06-04T09:35:32Z</time>
      </trkpt>
      <trkpt lat="44.169" lon="5.84328">
        <ele>537</ele>
        <time>2019-06-04T09:35:33Z</time>
      </trkpt>
      <trkpt lat="44.16899" lon="5.8434">
        <ele>537</ele>
        <time>2019-06-04T09:35:34Z</time>
      </trkpt>
      <trkpt lat="44.16898" lon="5.84353">
        <ele>537</ele>
        <time>2019-06-04T09:35:35Z</time>
      </trkpt>
      <trkpt lat="44.16897" lon="5.84365">
        <ele>537</ele>
        <time>2019-06-04T09:35:36Z</time>
      </trkpt>
      <trkpt lat="44.16896" lon="5.84377">
        <ele>537</ele>
        <time>2019-06-04T09:35:37Z</time>
      </trkpt>
      <trkpt lat="44.16895" lon="5.84389">
        <ele>536</ele>
        <time>2019-06-04T09:35:38Z</time>
      </trkpt>
      <trkpt lat="44.16894" lon="5.84401">
        <ele>536</ele>
        <time>2019-06-04T09:35:39Z</time>
      </trkpt>
      <trkpt lat="44.16893" lon="5.84413">
        <ele>536</ele>
        <time>2019-06-04T09:35:40Z</time>
      </trkpt>
      <trkpt lat="44.16891" lon="5.84426">
        <ele>535</ele>
        <time>2019-06-04T09:35:41Z</time>
      </trkpt>
      <trkpt lat="44.1689" lon="5.84438">
        <ele>535</ele>
        <time>2019-06-04T09:35:42Z</time>
      </trkpt>
      <trkpt lat="44.16888" lon="5.8445">
        <ele>535</ele>
        <time>2019-06-04T09:35:43Z</time>
      </trkpt>
      <trkpt lat="44.16886" lon="5.84462">
        <ele>534</ele>
        <time>2019-06-04T09:35:44Z</time>
      </trkpt>
      <trkpt lat="44.16884" lon="5.84474">
        <ele>534</ele>
        <time>2019-06-04T09:35:45Z</time>
      </trkpt>
      <trkpt lat="44.16882" lon="5.84486">
        <ele>534</ele>
        <time>2019-06-04T09:35:46Z</time>
      </trkpt>
      <trkpt lat="44.1688" lon="5.84499">
        <ele>534</ele>
        <time>2019-06-04T09:35:47Z</time>
      </trkpt>
      <trkpt lat="44.16877" lon="5.84511">
        <ele>533</ele>
        <time>2019-06-04T09:35:48Z</time>
      </trkpt>
      <trkpt lat="44.16875" lon="5.84523">
        <ele>533</ele>
        <time>2019-06-04T09:35:49Z</time>
      </trkpt>
      <trkpt lat="44.16873" lon="5.84536">
        <ele>533</ele>
        <time>2019-06-04T09:35:50Z</time>
      </trkpt>
      <trkpt lat="44.16871" lon="5.84549">
        <ele>532</ele>
        <time>2019-06-04T09:35:51Z</time>
      </trkpt>
      <trkpt lat="44.16869" lon="5.84562">
        <ele>532</ele>
        <time>2019-06-04T09:35:52Z</time>
      </trkpt>
      <trkpt lat="44.16867" lon="5.84574">
        <ele>532</ele>
        <time>2019-06-04T09:35:53Z</time>
      </trkpt>
      <trkpt lat="44.16864" lon="5.84587">
        <ele>531</ele>
        <time>2019-06-04T09:35:54Z</time>
      </trkpt>
      <trkpt lat="44.16862" lon="5.846">
        <ele>531</ele>
        <time>2019-06-04T09:35:55Z</time>
      </trkpt>
      <trkpt lat="44.1686" lon="5.84612">
        <ele>531</ele>
        <time>2019-06-04T09:35:56Z</time>
      </trkpt>
      <trkpt lat="44.16858" lon="5.84625">
        <ele>531</ele>
        <time>2019-06-04T09:35:57Z</time>
      </trkpt>
      <trkpt lat="44.16855" lon="5.84637">
        <ele>531</ele>
        <time>2019-06-04T09:35:58Z</time>
      </trkpt>
      <trkpt lat="44.16852" lon="5.8465">
        <ele>530</ele>
        <time>2019-06-04T09:35:59Z</time>
      </trkpt>
      <trkpt lat="44.16849" lon="5.84662">
        <ele>530</ele>
        <time>2019-06-04T09:36:00Z</time>
      </trkpt>
      <trkpt lat="44.16846" lon="5.84674">
        <ele>530</ele>
        <time>2019-06-04T09:36:01Z</time>
      </trkpt>
      <trkpt lat="44.16842" lon="5.84685">
        <ele>530</ele>
        <time>2019-06-04T09:36:02Z</time>
      </trkpt>
      <trkpt lat="44.16838" lon="5.84696">
        <ele>530</ele>
        <time>2019-06-04T09:36:03Z</time>
      </trkpt>
      <trkpt lat="44.16835" lon="5.84707">
        <ele>530</ele>
        <time>2019-06-04T09:36:04Z</time>
      </trkpt>
      <trkpt lat="44.16831" lon="5.84718">
        <ele>530</ele>
        <time>2019-06-04T09:36:05Z</time>
      </trkpt>
      <trkpt lat="44.16827" lon="5.84728">
        <ele>530</ele>
        <time>2019-06-04T09:36:06Z</time>
      </trkpt>
      <trkpt lat="44.16823" lon="5.84739">
        <ele>530</ele>
        <time>2019-06-04T09:36:07Z</time>
      </trkpt>
      <trkpt lat="44.1682" lon="5.8475">
        <ele>530</ele>
        <time>2019-06-04T09:36:08Z</time>
      </trkpt>
      <trkpt lat="44.16816" lon="5.8476">
        <ele>530</ele>
        <time>2019-06-04T09:36:09Z</time>
      </trkpt>
      <trkpt lat="44.16813" lon="5.84771">
        <ele>530</ele>
        <time>2019-06-04T09:36:10Z</time>
      </trkpt>
      <trkpt lat="44.16809" lon="5.84781">
        <ele>530</ele>
        <time>2019-06-04T09:36:11Z</time>
      </trkpt>
      <trkpt lat="44.16806" lon="5.84792">
        <ele>530</ele>
        <time>2019-06-04T09:36:12Z</time>
      </trkpt>
      <trkpt lat="44.16803" lon="5.84803">
        <ele>530</ele>
        <time>2019-06-04T09:36:13Z</time>
      </trkpt>
      <trkpt lat="44.168" lon="5.84814">
        <ele>530</ele>
        <time>2019-06-04T09:36:14Z</time>
      </trkpt>
      <trkpt lat="44.16798" lon="5.84825">
        <ele>530</ele>
        <time>2019-06-04T09:36:15Z</time>
      </trkpt>
      <trkpt lat="44.16796" lon="5.84837">
        <ele>530</ele>
        <time>2019-06-04T09:36:16Z</time>
      </trkpt>
      <trkpt lat="44.16795" lon="5.84848">
        <ele>530</ele>
        <time>2019-06-04T09:36:17Z</time>
      </trkpt>
      <trkpt lat="44.16795" lon="5.8486">
        <ele>530</ele>
        <time>2019-06-04T09:36:18Z</time>
      </trkpt>
      <trkpt lat="44.16795" lon="5.84872">
        <ele>530</ele>
        <time>2019-06-04T09:36:19Z</time>
      </trkpt>
      <trkpt lat="44.16795" lon="5.84884">
        <ele>530</ele>
        <time>2019-06-04T09:36:20Z</time>
      </trkpt>
      <trkpt lat="44.16795" lon="5.84896">
        <ele>530</ele>
        <time>2019-06-04T09:36:21Z</time>
      </trkpt>
      <trkpt lat="44.16797" lon="5.84908">
        <ele>530</ele>
        <time>2019-06-04T09:36:22Z</time>
      </trkpt>
      <trkpt lat="44.16798" lon="5.8492">
        <ele>530</ele>
        <time>2019-06-04T09:36:23Z</time>
      </trkpt>
      <trkpt lat="44.16799" lon="5.84932">
        <ele>530</ele>
        <time>2019-06-04T09:36:24Z</time>
      </trkpt>
      <trkpt lat="44.16801" lon="5.84944">
        <ele>530</ele>
        <time>2019-06-04T09:36:25Z</time>
      </trkpt>
      <trkpt lat="44.16802" lon="5.84957">
        <ele>530</ele>
        <time>2019-06-04T09:36:26Z</time>
      </trkpt>
      <trkpt lat="44.16803" lon="5.84969">
        <ele>530</ele>
        <time>2019-06-04T09:36:27Z</time>
      </trkpt>
      <trkpt lat="44.16805" lon="5.84981">
        <ele>530</ele>
        <time>2019-06-04T09:36:28Z</time>
      </trkpt>
      <trkpt lat="44.16805" lon="5.84993">
        <ele>530</ele>
        <time>2019-06-04T09:36:29Z</time>
      </trkpt>
      <trkpt lat="44.16806" lon="5.85006">
        <ele>529</ele>
        <time>2019-06-04T09:36:30Z</time>
      </trkpt>
      <trkpt lat="44.16806" lon="5.85018">
        <ele>529</ele>
        <time>2019-06-04T09:36:31Z</time>
      </trkpt>
      <trkpt lat="44.16805" lon="5.8503">
        <ele>529</ele>
        <time>2019-06-04T09:36:32Z</time>
      </trkpt>
      <trkpt lat="44.16805" lon="5.85042">
        <ele>529</ele>
        <time>2019-06-04T09:36:33Z</time>
      </trkpt>
      <trkpt lat="44.16805" lon="5.85055">
        <ele>529</ele>
        <time>2019-06-04T09:36:34Z</time>
      </trkpt>
      <trkpt lat="44.16804" lon="5.85067">
        <ele>528</ele>
        <time>2019-06-04T09:36:35Z</time>
      </trkpt>
      <trkpt lat="44.16803" lon="5.85079">
        <ele>528</ele>
        <time>2019-06-04T09:36:36Z</time>
      </trkpt>
      <trkpt lat="44.16801" lon="5.85092">
        <ele>528</ele>
        <time>2019-06-04T09:36:37Z</time>
      </trkpt>
      <trkpt lat="44.168" lon="5.85104">
        <ele>528</ele>
        <time>2019-06-04T09:36:38Z</time>
      </trkpt>
      <trkpt lat="44.16797" lon="5.85116">
        <ele>527</ele>
        <time>2019-06-04T09:36:39Z</time>
      </trkpt>
      <trkpt lat="44.16795" lon="5.85129">
        <ele>527</ele>
        <time>2019-06-04T09:36:40Z</time>
      </trkpt>
      <trkpt lat="44.16792" lon="5.85141">
        <ele>527</ele>
        <time>2019-06-04T09:36:41Z</time>
      </trkpt>
      <trkpt lat="44.1679" lon="5.85154">
        <ele>527</ele>
        <time>2019-06-04T09:36:42Z</time>
      </trkpt>
      <trkpt lat="44.16787" lon="5.85166">
        <ele>526</ele>
        <time>2019-06-04T09:36:43Z</time>
      </trkpt>
      <trkpt lat="44.16785" lon="5.85178">
        <ele>526</ele>
        <time>2019-06-04T09:36:44Z</time>
      </trkpt>
      <trkpt lat="44.16782" lon="5.8519">
        <ele>526</ele>
        <time>2019-06-04T09:36:45Z</time>
      </trkpt>
      <trkpt lat="44.16779" lon="5.85202">
        <ele>526</ele>
        <time>2019-06-04T09:36:46Z</time>
      </trkpt>
      <trkpt lat="44.16776" lon="5.85213">
        <ele>526</ele>
        <time>2019-06-04T09:36:47Z</time>
      </trkpt>
      <trkpt lat="44.16772" lon="5.85223">
        <ele>526</ele>
        <time>2019-06-04T09:36:48Z</time>
      </trkpt>
      <trkpt lat="44.16767" lon="5.85233">
        <ele>526</ele>
        <time>2019-06-04T09:36:49Z</time>
      </trkpt>
      <trkpt lat="44.16762" lon="5.85243">
        <ele>526</ele>
        <time>2019-06-04T09:36:50Z</time>
      </trkpt>
      <trkpt lat="44.16756" lon="5.85253">
        <ele>525</ele>
        <time>2019-06-04T09:36:51Z</time>
      </trkpt>
      <trkpt lat="44.16751" lon="5.85263">
        <ele>525</ele>
        <time>2019-06-04T09:36:52Z</time>
      </trkpt>
      <trkpt lat="44.16745" lon="5.85273">
        <ele>525</ele>
        <time>2019-06-04T09:36:53Z</time>
      </trkpt>
      <trkpt lat="44.16741" lon="5.85284">
        <ele>525</ele>
        <time>2019-06-04T09:36:54Z</time>
      </trkpt>
      <trkpt lat="44.16737" lon="5.85295">
        <ele>524</ele>
        <time>2019-06-04T09:36:55Z</time>
      </trkpt>
      <trkpt lat="44.16734" lon="5.85308">
        <ele>524</ele>
        <time>2019-06-04T09:36:56Z</time>
      </trkpt>
      <trkpt lat="44.16732" lon="5.8532">
        <ele>524</ele>
        <time>2019-06-04T09:36:57Z</time>
      </trkpt>
      <trkpt lat="44.1673" lon="5.85333">
        <ele>524</ele>
        <time>2019-06-04T09:36:58Z</time>
      </trkpt>
      <trkpt lat="44.16728" lon="5.85346">
        <ele>524</ele>
        <time>2019-06-04T09:36:59Z</time>
      </trkpt>
      <trkpt lat="44.16727" lon="5.85359">
        <ele>524</ele>
        <time>2019-06-04T09:37:00Z</time>
      </trkpt>
      <trkpt lat="44.16725" lon="5.85371">
        <ele>524</ele>
        <time>2019-06-04T09:37:01Z</time>
      </trkpt>
      <trkpt lat="44.16724" lon="5.85384">
        <ele>523</ele>
        <time>2019-06-04T09:37:02Z</time>
      </trkpt>
      <trkpt lat="44.16723" lon="5.85396">
        <ele>523</ele>
        <time>2019-06-04T09:37:03Z</time>
      </trkpt>
      <trkpt lat="44.16721" lon="5.85409">
        <ele>523</ele>
        <time>2019-06-04T09:37:04Z</time>
      </trkpt>
      <trkpt lat="44.1672" lon="5.85422">
        <ele>522</ele>
        <time>2019-06-04T09:37:05Z</time>
      </trkpt>
      <trkpt lat="44.16719" lon="5.85434">
        <ele>522</ele>
        <time>2019-06-04T09:37:06Z</time>
      </trkpt>
      <trkpt lat="44.16717" lon="5.85448">
        <ele>521</ele>
        <time>2019-06-04T09:37:07Z</time>
      </trkpt>
      <trkpt lat="44.16716" lon="5.8546">
        <ele>521</ele>
        <time>2019-06-04T09:37:08Z</time>
      </trkpt>
      <trkpt lat="44.16714" lon="5.85473">
        <ele>521</ele>
        <time>2019-06-04T09:37:09Z</time>
      </trkpt>
      <trkpt lat="44.16713" lon="5.85486">
        <ele>521</ele>
        <time>2019-06-04T09:37:10Z</time>
      </trkpt>
      <trkpt lat="44.16712" lon="5.85498">
        <ele>521</ele>
        <time>2019-06-04T09:37:11Z</time>
      </trkpt>
      <trkpt lat="44.1671" lon="5.8551">
        <ele>521</ele>
        <time>2019-06-04T09:37:12Z</time>
      </trkpt>
      <trkpt lat="44.16709" lon="5.85523">
        <ele>520</ele>
        <time>2019-06-04T09:37:13Z</time>
      </trkpt>
      <trkpt lat="44.16708" lon="5.85535">
        <ele>520</ele>
        <time>2019-06-04T09:37:14Z</time>
      </trkpt>
      <trkpt lat="44.16708" lon="5.85547">
        <ele>520</ele>
        <time>2019-06-04T09:37:15Z</time>
      </trkpt>
      <trkpt lat="44.16708" lon="5.8556">
        <ele>520</ele>
        <time>2019-06-04T09:37:16Z</time>
      </trkpt>
      <trkpt lat="44.16709" lon="5.85573">
        <ele>520</ele>
        <time>2019-06-04T09:37:17Z</time>
      </trkpt>
      <trkpt lat="44.16709" lon="5.85585">
        <ele>520</ele>
        <time>2019-06-04T09:37:18Z</time>
      </trkpt>
      <trkpt lat="44.16709" lon="5.85599">
        <ele>520</ele>
        <time>2019-06-04T09:37:19Z</time>
      </trkpt>
      <trkpt lat="44.16708" lon="5.85611">
        <ele>519</ele>
        <time>2019-06-04T09:37:20Z</time>
      </trkpt>
      <trkpt lat="44.16706" lon="5.85625">
        <ele>519</ele>
        <time>2019-06-04T09:37:21Z</time>
      </trkpt>
      <trkpt lat="44.16703" lon="5.85637">
        <ele>519</ele>
        <time>2019-06-04T09:37:22Z</time>
      </trkpt>
      <trkpt lat="44.16701" lon="5.8565">
        <ele>519</ele>
        <time>2019-06-04T09:37:23Z</time>
      </trkpt>
      <trkpt lat="44.16698" lon="5.85663">
        <ele>519</ele>
        <time>2019-06-04T09:37:24Z</time>
      </trkpt>
      <trkpt lat="44.16695" lon="5.85675">
        <ele>519</ele>
        <time>2019-06-04T09:37:25Z</time>
      </trkpt>
      <trkpt lat="44.16692" lon="5.85688">
        <ele>519</ele>
        <time>2019-06-04T09:37:26Z</time>
      </trkpt>
      <trkpt lat="44.1669" lon="5.857">
        <ele>519</ele>
        <time>2019-06-04T09:37:27Z</time>
      </trkpt>
      <trkpt lat="44.16687" lon="5.85713">
        <ele>518</ele>
        <time>2019-06-04T09:37:28Z</time>
      </trkpt>
      <trkpt lat="44.16686" lon="5.85725">
        <ele>518</ele>
        <time>2019-06-04T09:37:29Z</time>
      </trkpt>
      <trkpt lat="44.16686" lon="5.85738">
        <ele>518</ele>
        <time>2019-06-04T09:37:30Z</time>
      </trkpt>
      <trkpt lat="44.16685" lon="5.8575">
        <ele>518</ele>
        <time>2019-06-04T09:37:31Z</time>
      </trkpt>
      <trkpt lat="44.16685" lon="5.85763">
        <ele>518</ele>
        <time>2019-06-04T09:37:32Z</time>
      </trkpt>
      <trkpt lat="44.16684" lon="5.85775">
        <ele>518</ele>
        <time>2019-06-04T09:37:33Z</time>
      </trkpt>
      <trkpt lat="44.16684" lon="5.85787">
        <ele>518</ele>
        <time>2019-06-04T09:37:34Z</time>
      </trkpt>
      <trkpt lat="44.16684" lon="5.85799">
        <ele>518</ele>
        <time>2019-06-04T09:37:35Z</time>
      </trkpt>
      <trkpt lat="44.16684" lon="5.85811">
        <ele>518</ele>
        <time>2019-06-04T09:37:36Z</time>
      </trkpt>
      <trkpt lat="44.16683" lon="5.85823">
        <ele>518</ele>
        <time>2019-06-04T09:37:37Z</time>
      </trkpt>
      <trkpt lat="44.16683" lon="5.85835">
        <ele>518</ele>
        <time>2019-06-04T09:37:38Z</time>
      </trkpt>
      <trkpt lat="44.16683" lon="5.85847">
        <ele>518</ele>
        <time>2019-06-04T09:37:39Z</time>
      </trkpt>
      <trkpt lat="44.16683" lon="5.85859">
        <ele>518</ele>
        <time>2019-06-04T09:37:40Z</time>
      </trkpt>
      <trkpt lat="44.16682" lon="5.85871">
        <ele>518</ele>
        <time>2019-06-04T09:37:41Z</time>
      </trkpt>
      <trkpt lat="44.16682" lon="5.85883">
        <ele>518</ele>
        <time>2019-06-04T09:37:42Z</time>
      </trkpt>
      <trkpt lat="44.16682" lon="5.85895">
        <ele>518</ele>
        <time>2019-06-04T09:37:43Z</time>
      </trkpt>
      <trkpt lat="44.16682" lon="5.85907">
        <ele>518</ele>
        <time>2019-06-04T09:37:44Z</time>
      </trkpt>
      <trkpt lat="44.16681" lon="5.85919">
        <ele>518</ele>
        <time>2019-06-04T09:37:45Z</time>
      </trkpt>
      <trkpt lat="44.16681" lon="5.85931">
        <ele>518</ele>
        <time>2019-06-04T09:37:46Z</time>
      </trkpt>
      <trkpt lat="44.16681" lon="5.85943">
        <ele>518</ele>
        <time>2019-06-04T09:37:47Z</time>
      </trkpt>
      <trkpt lat="44.16681" lon="5.85955">
        <ele>518</ele>
        <time>2019-06-04T09:37:48Z</time>
      </trkpt>
      <trkpt lat="44.1668" lon="5.85967">
        <ele>518</ele>
        <time>2019-06-04T09:37:49Z</time>
      </trkpt>
      <trkpt lat="44.1668" lon="5.85979">
        <ele>518</ele>
        <time>2019-06-04T09:37:50Z</time>
      </trkpt>
      <trkpt lat="44.1668" lon="5.8599">
        <ele>518</ele>
        <time>2019-06-04T09:37:51Z</time>
      </trkpt>
      <trkpt lat="44.1668" lon="5.86002">
        <ele>518</ele>
        <time>2019-06-04T09:37:52Z</time>
      </trkpt>
      <trkpt lat="44.16681" lon="5.86014">
        <ele>518</ele>
        <time>2019-06-04T09:37:53Z</time>
      </trkpt>
      <trkpt lat="44.16681" lon="5.86026">
        <ele>518</ele>
        <time>2019-06-04T09:37:54Z</time>
      </trkpt>
      <trkpt lat="44.16682" lon="5.86038">
        <ele>518</ele>
        <time>2019-06-04T09:37:55Z</time>
      </trkpt>
      <trkpt lat="44.16683" lon="5.8605">
        <ele>518</ele>
        <time>2019-06-04T09:37:56Z</time>
      </trkpt>
      <trkpt lat="44.16684" lon="5.86062">
        <ele>518</ele>
        <time>2019-06-04T09:37:57Z</time>
      </trkpt>
      <trkpt lat="44.16685" lon="5.86074">
        <ele>518</ele>
        <time>2019-06-04T09:37:58Z</time>
      </trkpt>
      <trkpt lat="44.16686" lon="5.86087">
        <ele>518</ele>
        <time>2019-06-04T09:37:59Z</time>
      </trkpt>
      <trkpt lat="44.16687" lon="5.86099">
        <ele>518</ele>
        <time>2019-06-04T09:38:00Z</time>
      </trkpt>
      <trkpt lat="44.16688" lon="5.86112">
        <ele>518</ele>
        <time>2019-06-04T09:38:01Z</time>
      </trkpt>
      <trkpt lat="44.16689" lon="5.86125">
        <ele>518</ele>
        <time>2019-06-04T09:38:02Z</time>
      </trkpt>
      <trkpt lat="44.1669" lon="5.86137">
        <ele>518</ele>
        <time>2019-06-04T09:38:03Z</time>
      </trkpt>
      <trkpt lat="44.16691" lon="5.8615">
        <ele>518</ele>
        <time>2019-06-04T09:38:04Z</time>
      </trkpt>
      <trkpt lat="44.16692" lon="5.86163">
        <ele>518</ele>
        <time>2019-06-04T09:38:05Z</time>
      </trkpt>
      <trkpt lat="44.16692" lon="5.86175">
        <ele>518</ele>
        <time>2019-06-04T09:38:06Z</time>
      </trkpt>
      <trkpt lat="44.16693" lon="5.86188">
        <ele>518</ele>
        <time>2019-06-04T09:38:07Z</time>
      </trkpt>
      <trkpt lat="44.16695" lon="5.86201">
        <ele>518</ele>
        <time>2019-06-04T09:38:08Z</time>
      </trkpt>
      <trkpt lat="44.16696" lon="5.86214">
        <ele>518</ele>
        <time>2019-06-04T09:38:09Z</time>
      </trkpt>
      <trkpt lat="44.16697" lon="5.86226">
        <ele>518</ele>
        <time>2019-06-04T09:38:10Z</time>
      </trkpt>
      <trkpt lat="44.16698" lon="5.86238">
        <ele>518</ele>
        <time>2019-06-04T09:38:11Z</time>
      </trkpt>
      <trkpt lat="44.167" lon="5.86251">
        <ele>518</ele>
        <time>2019-06-04T09:38:12Z</time>
      </trkpt>
      <trkpt lat="44.16701" lon="5.86263">
        <ele>518</ele>
        <time>2019-06-04T09:38:13Z</time>
      </trkpt>
      <trkpt lat="44.16702" lon="5.86276">
        <ele>518</ele>
        <time>2019-06-04T09:38:14Z</time>
      </trkpt>
      <trkpt lat="44.16703" lon="5.86288">
        <ele>518</ele>
        <time>2019-06-04T09:38:15Z</time>
      </trkpt>
      <trkpt lat="44.16705" lon="5.86301">
        <ele>517</ele>
        <time>2019-06-04T09:38:16Z</time>
      </trkpt>
      <trkpt lat="44.16706" lon="5.86313">
        <ele>517</ele>
        <time>2019-06-04T09:38:17Z</time>
      </trkpt>
      <trkpt lat="44.16708" lon="5.86326">
        <ele>517</ele>
        <time>2019-06-04T09:38:18Z</time>
      </trkpt>
      <trkpt lat="44.16709" lon="5.86339">
        <ele>517</ele>
        <time>2019-06-04T09:38:19Z</time>
      </trkpt>
      <trkpt lat="44.1671" lon="5.86351">
        <ele>517</ele>
        <time>2019-06-04T09:38:20Z</time>
      </trkpt>
      <trkpt lat="44.16711" lon="5.86363">
        <ele>517</ele>
        <time>2019-06-04T09:38:21Z</time>
      </trkpt>
      <trkpt lat="44.16711" lon="5.86376">
        <ele>517</ele>
        <time>2019-06-04T09:38:22Z</time>
      </trkpt>
      <trkpt lat="44.1671" lon="5.86388">
        <ele>517</ele>
        <time>2019-06-04T09:38:23Z</time>
      </trkpt>
      <trkpt lat="44.16709" lon="5.864">
        <ele>517</ele>
        <time>2019-06-04T09:38:24Z</time>
      </trkpt>
      <trkpt lat="44.16708" lon="5.86411">
        <ele>517</ele>
        <time>2019-06-04T09:38:25Z</time>
      </trkpt>
      <trkpt lat="44.16708" lon="5.86422">
        <ele>517</ele>
        <time>2019-06-04T09:38:26Z</time>
      </trkpt>
      <trkpt lat="44.16708" lon="5.86433">
        <ele>516</ele>
        <time>2019-06-04T09:38:27Z</time>
      </trkpt>
      <trkpt lat="44.16708" lon="5.86444">
        <ele>516</ele>
        <time>2019-06-04T09:38:28Z</time>
      </trkpt>
      <trkpt lat="44.16708" lon="5.86455">
        <ele>516</ele>
        <time>2019-06-04T09:38:29Z</time>
      </trkpt>
      <trkpt lat="44.16708" lon="5.86466">
        <ele>516</ele>
        <time>2019-06-04T09:38:30Z</time>
      </trkpt>
      <trkpt lat="44.16708" lon="5.86476">
        <ele>516</ele>
        <time>2019-06-04T09:38:31Z</time>
      </trkpt>
      <trkpt lat="44.16709" lon="5.86487">
        <ele>516</ele>
        <time>2019-06-04T09:38:32Z</time>
      </trkpt>
      <trkpt lat="44.16709" lon="5.86498">
        <ele>516</ele>
        <time>2019-06-04T09:38:33Z</time>
      </trkpt>
      <trkpt lat="44.16709" lon="5.8651">
        <ele>516</ele>
        <time>2019-06-04T09:38:34Z</time>
      </trkpt>
      <trkpt lat="44.1671" lon="5.86521">
        <ele>516</ele>
        <time>2019-06-04T09:38:35Z</time>
      </trkpt>
      <trkpt lat="44.1671" lon="5.86533">
        <ele>516</ele>
        <time>2019-06-04T09:38:36Z</time>
      </trkpt>
      <trkpt lat="44.1671" lon="5.86545">
        <ele>516</ele>
        <time>2019-06-04T09:38:37Z</time>
      </trkpt>
      <trkpt lat="44.1671" lon="5.86557">
        <ele>516</ele>
        <time>2019-06-04T09:38:38Z</time>
      </trkpt>
      <trkpt lat="44.1671" lon="5.86569">
        <ele>516</ele>
        <time>2019-06-04T09:38:39Z</time>
      </trkpt>
      <trkpt lat="44.16711" lon="5.8658">
        <ele>516</ele>
        <time>2019-06-04T09:38:40Z</time>
      </trkpt>
      <trkpt lat="44.16711" lon="5.86592">
        <ele>516</ele>
        <time>2019-06-04T09:38:41Z</time>
      </trkpt>
      <trkpt lat="44.16711" lon="5.86603">
        <ele>516</ele>
        <time>2019-06-04T09:38:42Z</time>
      </trkpt>
      <trkpt lat="44.16711" lon="5.86615">
        <ele>516</ele>
        <time>2019-06-04T09:38:43Z</time>
      </trkpt>
      <trkpt lat="44.16711" lon="5.86626">
        <ele>516</ele>
        <time>2019-06-04T09:38:44Z</time>
      </trkpt>
      <trkpt lat="44.16711" lon="5.86637">
        <ele>516</ele>
        <time>2019-06-04T09:38:45Z</time>
      </trkpt>
      <trkpt lat="44.16711" lon="5.86648">
        <ele>516</ele>
        <time>2019-06-04T09:38:46Z</time>
      </trkpt>
      <trkpt lat="44.16711" lon="5.86659">
        <ele>516</ele>
        <time>2019-06-04T09:38:47Z</time>
      </trkpt>
      <trkpt lat="44.16711" lon="5.86671">
        <ele>516</ele>
        <time>2019-06-04T09:38:48Z</time>
      </trkpt>
      <trkpt lat="44.16711" lon="5.86682">
        <ele>516</ele>
        <time>2019-06-04T09:38:49Z</time>
      </trkpt>
      <trkpt lat="44.16711" lon="5.86694">
        <ele>516</ele>
        <time>2019-06-04T09:38:50Z</time>
      </trkpt>
      <trkpt lat="44.16711" lon="5.86705">
        <ele>516</ele>
        <time>2019-06-04T09:38:51Z</time>
      </trkpt>
      <trkpt lat="44.16711" lon="5.86717">
        <ele>516</ele>
        <time>2019-06-04T09:38:52Z</time>
      </trkpt>
      <trkpt lat="44.16711" lon="5.86728">
        <ele>516</ele>
        <time>2019-06-04T09:38:53Z</time>
      </trkpt>
      <trkpt lat="44.16711" lon="5.86739">
        <ele>516</ele>
        <time>2019-06-04T09:38:54Z</time>
      </trkpt>
      <trkpt lat="44.16711" lon="5.86751">
        <ele>516</ele>
        <time>2019-06-04T09:38:55Z</time>
      </trkpt>
      <trkpt lat="44.16711" lon="5.86762">
        <ele>516</ele>
        <time>2019-06-04T09:38:56Z</time>
      </trkpt>
      <trkpt lat="44.16712" lon="5.86773">
        <ele>516</ele>
        <time>2019-06-04T09:38:57Z</time>
      </trkpt>
      <trkpt lat="44.16714" lon="5.86784">
        <ele>516</ele>
        <time>2019-06-04T09:38:58Z</time>
      </trkpt>
      <trkpt lat="44.16716" lon="5.86795">
        <ele>516</ele>
        <time>2019-06-04T09:38:59Z</time>
      </trkpt>
      <trkpt lat="44.16717" lon="5.86807">
        <ele>516</ele>
        <time>2019-06-04T09:39:00Z</time>
      </trkpt>
      <trkpt lat="44.16718" lon="5.86818">
        <ele>516</ele>
        <time>2019-06-04T09:39:01Z</time>
      </trkpt>
      <trkpt lat="44.16719" lon="5.86829">
        <ele>516</ele>
        <time>2019-06-04T09:39:02Z</time>
      </trkpt>
      <trkpt lat="44.1672" lon="5.8684">
        <ele>516</ele>
        <time>2019-06-04T09:39:03Z</time>
      </trkpt>
      <trkpt lat="44.1672" lon="5.86852">
        <ele>516</ele>
        <time>2019-06-04T09:39:04Z</time>
      </trkpt>
      <trkpt lat="44.16721" lon="5.86863">
        <ele>516</ele>
        <time>2019-06-04T09:39:05Z</time>
      </trkpt>
      <trkpt lat="44.16721" lon="5.86873">
        <ele>516</ele>
        <time>2019-06-04T09:39:06Z</time>
      </trkpt>
      <trkpt lat="44.16721" lon="5.86884">
        <ele>516</ele>
        <time>2019-06-04T09:39:07Z</time>
      </trkpt>
      <trkpt lat="44.16722" lon="5.86895">
        <ele>516</ele>
        <time>2019-06-04T09:39:08Z</time>
      </trkpt>
      <trkpt lat="44.16722" lon="5.86906">
        <ele>516</ele>
        <time>2019-06-04T09:39:09Z</time>
      </trkpt>
      <trkpt lat="44.16723" lon="5.86917">
        <ele>516</ele>
        <time>2019-06-04T09:39:10Z</time>
      </trkpt>
      <trkpt lat="44.16723" lon="5.86929">
        <ele>516</ele>
        <time>2019-06-04T09:39:11Z</time>
      </trkpt>
      <trkpt lat="44.16723" lon="5.8694">
        <ele>516</ele>
        <time>2019-06-04T09:39:12Z</time>
      </trkpt>
      <trkpt lat="44.16724" lon="5.86952">
        <ele>516</ele>
        <time>2019-06-04T09:39:13Z</time>
      </trkpt>
      <trkpt lat="44.16724" lon="5.86965">
        <ele>516</ele>
        <time>2019-06-04T09:39:14Z</time>
      </trkpt>
      <trkpt lat="44.16724" lon="5.86977">
        <ele>515</ele>
        <time>2019-06-04T09:39:15Z</time>
      </trkpt>
      <trkpt lat="44.16725" lon="5.8699">
        <ele>515</ele>
        <time>2019-06-04T09:39:16Z</time>
      </trkpt>
      <trkpt lat="44.16726" lon="5.87003">
        <ele>514</ele>
        <time>2019-06-04T09:39:17Z</time>
      </trkpt>
      <trkpt lat="44.16726" lon="5.87016">
        <ele>514</ele>
        <time>2019-06-04T09:39:18Z</time>
      </trkpt>
      <trkpt lat="44.16727" lon="5.8703">
        <ele>514</ele>
        <time>2019-06-04T09:39:19Z</time>
      </trkpt>
      <trkpt lat="44.16729" lon="5.87044">
        <ele>513</ele>
        <time>2019-06-04T09:39:20Z</time>
      </trkpt>
      <trkpt lat="44.16731" lon="5.87057">
        <ele>513</ele>
        <time>2019-06-04T09:39:21Z</time>
      </trkpt>
      <trkpt lat="44.16734" lon="5.87071">
        <ele>512</ele>
        <time>2019-06-04T09:39:22Z</time>
      </trkpt>
      <trkpt lat="44.16737" lon="5.87084">
        <ele>512</ele>
        <time>2019-06-04T09:39:23Z</time>
      </trkpt>
      <trkpt lat="44.16741" lon="5.87098">
        <ele>511</ele>
        <time>2019-06-04T09:39:24Z</time>
      </trkpt>
      <trkpt lat="44.16743" lon="5.87112">
        <ele>511</ele>
        <time>2019-06-04T09:39:25Z</time>
      </trkpt>
      <trkpt lat="44.16745" lon="5.87127">
        <ele>510</ele>
        <time>2019-06-04T09:39:26Z</time>
      </trkpt>
      <trkpt lat="44.16747" lon="5.87142">
        <ele>509</ele>
        <time>2019-06-04T09:39:27Z</time>
      </trkpt>
      <trkpt lat="44.16748" lon="5.87156">
        <ele>509</ele>
        <time>2019-06-04T09:39:28Z</time>
      </trkpt>
      <trkpt lat="44.1675" lon="5.87171">
        <ele>508</ele>
        <time>2019-06-04T09:39:29Z</time>
      </trkpt>
      <trkpt lat="44.16752" lon="5.87186">
        <ele>507</ele>
        <time>2019-06-04T09:39:30Z</time>
      </trkpt>
      <trkpt lat="44.16754" lon="5.87201">
        <ele>507</ele>
        <time>2019-06-04T09:39:31Z</time>
      </trkpt>
      <trkpt lat="44.16756" lon="5.87215">
        <ele>506</ele>
        <time>2019-06-04T09:39:32Z</time>
      </trkpt>
      <trkpt lat="44.16758" lon="5.8723">
        <ele>506</ele>
        <time>2019-06-04T09:39:33Z</time>
      </trkpt>
      <trkpt lat="44.1676" lon="5.87245">
        <ele>505</ele>
        <time>2019-06-04T09:39:34Z</time>
      </trkpt>
      <trkpt lat="44.16761" lon="5.87259">
        <ele>505</ele>
        <time>2019-06-04T09:39:35Z</time>
      </trkpt>
      <trkpt lat="44.16763" lon="5.87273">
        <ele>505</ele>
        <time>2019-06-04T09:39:36Z</time>
      </trkpt>
      <trkpt lat="44.16765" lon="5.87287">
        <ele>505</ele>
        <time>2019-06-04T09:39:37Z</time>
      </trkpt>
      <trkpt lat="44.16767" lon="5.87301">
        <ele>505</ele>
        <time>2019-06-04T09:39:38Z</time>
      </trkpt>
      <trkpt lat="44.16769" lon="5.87315">
        <ele>505</ele>
        <time>2019-06-04T09:39:39Z</time>
      </trkpt>
      <trkpt lat="44.1677" lon="5.87328">
        <ele>505</ele>
        <time>2019-06-04T09:39:40Z</time>
      </trkpt>
      <trkpt lat="44.16772" lon="5.87342">
        <ele>505</ele>
        <time>2019-06-04T09:39:41Z</time>
      </trkpt>
      <trkpt lat="44.16774" lon="5.87355">
        <ele>505</ele>
        <time>2019-06-04T09:39:42Z</time>
      </trkpt>
      <trkpt lat="44.16776" lon="5.87368">
        <ele>505</ele>
        <time>2019-06-04T09:39:43Z</time>
      </trkpt>
      <trkpt lat="44.16778" lon="5.8738">
        <ele>505</ele>
        <time>2019-06-04T09:39:44Z</time>
      </trkpt>
      <trkpt lat="44.1678" lon="5.87393">
        <ele>505</ele>
        <time>2019-06-04T09:39:45Z</time>
      </trkpt>
      <trkpt lat="44.16782" lon="5.87404">
        <ele>505</ele>
        <time>2019-06-04T09:39:46Z</time>
      </trkpt>
      <trkpt lat="44.16784" lon="5.87416">
        <ele>505</ele>
        <time>2019-06-04T09:39:47Z</time>
      </trkpt>
      <trkpt lat="44.16785" lon="5.87428">
        <ele>505</ele>
        <time>2019-06-04T09:39:48Z</time>
      </trkpt>
      <trkpt lat="44.16785" lon="5.87439">
        <ele>505</ele>
        <time>2019-06-04T09:39:49Z</time>
      </trkpt>
      <trkpt lat="44.16787" lon="5.87451">
        <ele>505</ele>
        <time>2019-06-04T09:39:50Z</time>
      </trkpt>
      <trkpt lat="44.16788" lon="5.87463">
        <ele>505</ele>
        <time>2019-06-04T09:39:51Z</time>
      </trkpt>
      <trkpt lat="44.1679" lon="5.87475">
        <ele>505</ele>
        <time>2019-06-04T09:39:52Z</time>
      </trkpt>
      <trkpt lat="44.16792" lon="5.87487">
        <ele>504</ele>
        <time>2019-06-04T09:39:53Z</time>
      </trkpt>
      <trkpt lat="44.16794" lon="5.87499">
        <ele>504</ele>
        <time>2019-06-04T09:39:54Z</time>
      </trkpt>
      <trkpt lat="44.16797" lon="5.87511">
        <ele>504</ele>
        <time>2019-06-04T09:39:55Z</time>
      </trkpt>
      <trkpt lat="44.168" lon="5.87524">
        <ele>504</ele>
        <time>2019-06-04T09:39:56Z</time>
      </trkpt>
      <trkpt lat="44.16803" lon="5.87536">
        <ele>503</ele>
        <time>2019-06-04T09:39:57Z</time>
      </trkpt>
      <trkpt lat="44.16806" lon="5.87549">
        <ele>503</ele>
        <time>2019-06-04T09:39:58Z</time>
      </trkpt>
      <trkpt lat="44.16808" lon="5.87562">
        <ele>503</ele>
        <time>2019-06-04T09:39:59Z</time>
      </trkpt>
      <trkpt lat="44.16811" lon="5.87575">
        <ele>502</ele>
        <time>2019-06-04T09:40:00Z</time>
      </trkpt>
      <trkpt lat="44.16813" lon="5.87588">
        <ele>502</ele>
        <time>2019-06-04T09:40:01Z</time>
      </trkpt>
      <trkpt lat="44.16815" lon="5.87601">
        <ele>502</ele>
        <time>2019-06-04T09:40:02Z</time>
      </trkpt>
      <trkpt lat="44.16817" lon="5.87614">
        <ele>502</ele>
        <time>2019-06-04T09:40:03Z</time>
      </trkpt>
      <trkpt lat="44.16819" lon="5.87627">
        <ele>502</ele>
        <time>2019-06-04T09:40:04Z</time>
      </trkpt>
      <trkpt lat="44.1682" lon="5.87639">
        <ele>501</ele>
        <time>2019-06-04T09:40:05Z</time>
      </trkpt>
      <trkpt lat="44.16822" lon="5.87651">
        <ele>501</ele>
        <time>2019-06-04T09:40:06Z</time>
      </trkpt>
      <trkpt lat="44.16824" lon="5.87663">
        <ele>501</ele>
        <time>2019-06-04T09:40:07Z</time>
      </trkpt>
      <trkpt lat="44.16826" lon="5.87674">
        <ele>501</ele>
        <time>2019-06-04T09:40:08Z</time>
      </trkpt>
      <trkpt lat="44.16828" lon="5.87685">
        <ele>501</ele>
        <time>2019-06-04T09:40:09Z</time>
      </trkpt>
      <trkpt lat="44.1683" lon="5.87697">
        <ele>501</ele>
        <time>2019-06-04T09:40:10Z</time>
      </trkpt>
      <trkpt lat="44.16832" lon="5.87709">
        <ele>501</ele>
        <time>2019-06-04T09:40:11Z</time>
      </trkpt>
      <trkpt lat="44.16834" lon="5.8772">
        <ele>501</ele>
        <time>2019-06-04T09:40:12Z</time>
      </trkpt>
      <trkpt lat="44.16835" lon="5.87731">
        <ele>501</ele>
        <time>2019-06-04T09:40:13Z</time>
      </trkpt>
      <trkpt lat="44.16837" lon="5.87742">
        <ele>501</ele>
        <time>2019-06-04T09:40:14Z</time>
      </trkpt>
      <trkpt lat="44.16839" lon="5.87753">
        <ele>501</ele>
        <time>2019-06-04T09:40:15Z</time>
      </trkpt>
      <trkpt lat="44.16841" lon="5.87764">
        <ele>501</ele>
        <time>2019-06-04T09:40:16Z</time>
      </trkpt>
      <trkpt lat="44.16843" lon="5.87774">
        <ele>501</ele>
        <time>2019-06-04T09:40:17Z</time>
      </trkpt>
      <trkpt lat="44.16844" lon="5.87784">
        <ele>501</ele>
        <time>2019-06-04T09:40:18Z</time>
      </trkpt>
      <trkpt lat="44.16846" lon="5.87795">
        <ele>501</ele>
        <time>2019-06-04T09:40:19Z</time>
      </trkpt>
      <trkpt lat="44.16848" lon="5.87805">
        <ele>501</ele>
        <time>2019-06-04T09:40:20Z</time>
      </trkpt>
      <trkpt lat="44.1685" lon="5.87815">
        <ele>501</ele>
        <time>2019-06-04T09:40:21Z</time>
      </trkpt>
      <trkpt lat="44.16851" lon="5.87825">
        <ele>501</ele>
        <time>2019-06-04T09:40:22Z</time>
      </trkpt>
      <trkpt lat="44.16853" lon="5.87835">
        <ele>501</ele>
        <time>2019-06-04T09:40:23Z</time>
      </trkpt>
      <trkpt lat="44.16854" lon="5.87845">
        <ele>501</ele>
        <time>2019-06-04T09:40:24Z</time>
      </trkpt>
      <trkpt lat="44.16856" lon="5.87855">
        <ele>501</ele>
        <time>2019-06-04T09:40:25Z</time>
      </trkpt>
      <trkpt lat="44.16858" lon="5.87865">
        <ele>501</ele>
        <time>2019-06-04T09:40:26Z</time>
      </trkpt>
      <trkpt lat="44.1686" lon="5.87875">
        <ele>501</ele>
        <time>2019-06-04T09:40:27Z</time>
      </trkpt>
      <trkpt lat="44.16861" lon="5.87886">
        <ele>501</ele>
        <time>2019-06-04T09:40:28Z</time>
      </trkpt>
      <trkpt lat="44.16863" lon="5.87896">
        <ele>501</ele>
        <time>2019-06-04T09:40:29Z</time>
      </trkpt>
      <trkpt lat="44.16865" lon="5.87906">
        <ele>501</ele>
        <time>2019-06-04T09:40:30Z</time>
      </trkpt>
      <trkpt lat="44.16867" lon="5.87916">
        <ele>501</ele>
        <time>2019-06-04T09:40:31Z</time>
      </trkpt>
      <trkpt lat="44.16868" lon="5.87926">
        <ele>501</ele>
        <time>2019-06-04T09:40:32Z</time>
      </trkpt>
      <trkpt lat="44.1687" lon="5.87936">
        <ele>501</ele>
        <time>2019-06-04T09:40:33Z</time>
      </trkpt>
      <trkpt lat="44.16871" lon="5.87946">
        <ele>501</ele>
        <time>2019-06-04T09:40:34Z</time>
      </trkpt>
      <trkpt lat="44.16873" lon="5.87956">
        <ele>501</ele>
        <time>2019-06-04T09:40:35Z</time>
      </trkpt>
      <trkpt lat="44.16874" lon="5.87966">
        <ele>501</ele>
        <time>2019-06-04T09:40:36Z</time>
      </trkpt>
      <trkpt lat="44.16876" lon="5.87976">
        <ele>501</ele>
        <time>2019-06-04T09:40:37Z</time>
      </trkpt>
      <trkpt lat="44.16878" lon="5.87986">
        <ele>501</ele>
        <time>2019-06-04T09:40:38Z</time>
      </trkpt>
      <trkpt lat="44.1688" lon="5.87997">
        <ele>501</ele>
        <time>2019-06-04T09:40:39Z</time>
      </trkpt>
      <trkpt lat="44.16881" lon="5.88007">
        <ele>501</ele>
        <time>2019-06-04T09:40:40Z</time>
      </trkpt>
      <trkpt lat="44.16883" lon="5.88018">
        <ele>501</ele>
        <time>2019-06-04T09:40:41Z</time>
      </trkpt>
      <trkpt lat="44.16885" lon="5.88028">
        <ele>501</ele>
        <time>2019-06-04T09:40:42Z</time>
      </trkpt>
      <trkpt lat="44.16887" lon="5.88038">
        <ele>501</ele>
        <time>2019-06-04T09:40:43Z</time>
      </trkpt>
      <trkpt lat="44.16888" lon="5.88049">
        <ele>501</ele>
        <time>2019-06-04T09:40:44Z</time>
      </trkpt>
      <trkpt lat="44.1689" lon="5.88059">
        <ele>501</ele>
        <time>2019-06-04T09:40:45Z</time>
      </trkpt>
      <trkpt lat="44.16892" lon="5.88069">
        <ele>501</ele>
        <time>2019-06-04T09:40:46Z</time>
      </trkpt>
      <trkpt lat="44.16894" lon="5.8808">
        <ele>501</ele>
        <time>2019-06-04T09:40:47Z</time>
      </trkpt>
      <trkpt lat="44.16895" lon="5.8809">
        <ele>501</ele>
        <time>2019-06-04T09:40:48Z</time>
      </trkpt>
      <trkpt lat="44.16897" lon="5.88099">
        <ele>501</ele>
        <time>2019-06-04T09:40:49Z</time>
      </trkpt>
      <trkpt lat="44.16899" lon="5.88109">
        <ele>501</ele>
        <time>2019-06-04T09:40:50Z</time>
      </trkpt>
      <trkpt lat="44.16901" lon="5.88119">
        <ele>501</ele>
        <time>2019-06-04T09:40:51Z</time>
      </trkpt>
      <trkpt lat="44.16903" lon="5.88128">
        <ele>501</ele>
        <time>2019-06-04T09:40:52Z</time>
      </trkpt>
      <trkpt lat="44.16905" lon="5.88137">
        <ele>501</ele>
        <time>2019-06-04T09:40:53Z</time>
      </trkpt>
      <trkpt lat="44.16908" lon="5.88146">
        <ele>501</ele>
        <time>2019-06-04T09:40:54Z</time>
      </trkpt>
      <trkpt lat="44.1691" lon="5.88155">
        <ele>501</ele>
        <time>2019-06-04T09:40:55Z</time>
      </trkpt>
      <trkpt lat="44.16913" lon="5.88163">
        <ele>501</ele>
        <time>2019-06-04T09:40:56Z</time>
      </trkpt>
      <trkpt lat="44.16916" lon="5.8817">
        <ele>501</ele>
        <time>2019-06-04T09:40:57Z</time>
      </trkpt>
      <trkpt lat="44.16919" lon="5.88178">
        <ele>501</ele>
        <time>2019-06-04T09:40:58Z</time>
      </trkpt>
      <trkpt lat="44.16922" lon="5.88186">
        <ele>501</ele>
        <time>2019-06-04T09:40:59Z</time>
      </trkpt>
      <trkpt lat="44.16925" lon="5.88193">
        <ele>501</ele>
        <time>2019-06-04T09:41:00Z</time>
      </trkpt>
      <trkpt lat="44.16928" lon="5.882">
        <ele>501</ele>
        <time>2019-06-04T09:41:01Z</time>
      </trkpt>
      <trkpt lat="44.16931" lon="5.88208">
        <ele>501</ele>
        <time>2019-06-04T09:41:02Z</time>
      </trkpt>
      <trkpt lat="44.16934" lon="5.88215">
        <ele>501</ele>
        <time>2019-06-04T09:41:03Z</time>
      </trkpt>
      <trkpt lat="44.16937" lon="5.88223">
        <ele>501</ele>
        <time>2019-06-04T09:41:04Z</time>
      </trkpt>
      <trkpt lat="44.16939" lon="5.88231">
        <ele>501</ele>
        <time>2019-06-04T09:41:05Z</time>
      </trkpt>
      <trkpt lat="44.16941" lon="5.88239">
        <ele>501</ele>
        <time>2019-06-04T09:41:06Z</time>
      </trkpt>
      <trkpt lat="44.16943" lon="5.88247">
        <ele>501</ele>
        <time>2019-06-04T09:41:07Z</time>
      </trkpt>
      <trkpt lat="44.16945" lon="5.88256">
        <ele>501</ele>
        <time>2019-06-04T09:41:08Z</time>
      </trkpt>
      <trkpt lat="44.16946" lon="5.88264">
        <ele>501</ele>
        <time>2019-06-04T09:41:09Z</time>
      </trkpt>
      <trkpt lat="44.16947" lon="5.88272">
        <ele>501</ele>
        <time>2019-06-04T09:41:10Z</time>
      </trkpt>
      <trkpt lat="44.16949" lon="5.8828">
        <ele>501</ele>
        <time>2019-06-04T09:41:11Z</time>
      </trkpt>
      <trkpt lat="44.1695" lon="5.88289">
        <ele>501</ele>
        <time>2019-06-04T09:41:12Z</time>
      </trkpt>
      <trkpt lat="44.16951" lon="5.88298">
        <ele>501</ele>
        <time>2019-06-04T09:41:13Z</time>
      </trkpt>
      <trkpt lat="44.16952" lon="5.88307">
        <ele>501</ele>
        <time>2019-06-04T09:41:14Z</time>
      </trkpt>
      <trkpt lat="44.16953" lon="5.88315">
        <ele>501</ele>
        <time>2019-06-04T09:41:15Z</time>
      </trkpt>
      <trkpt lat="44.16954" lon="5.88324">
        <ele>501</ele>
        <time>2019-06-04T09:41:16Z</time>
      </trkpt>
      <trkpt lat="44.16955" lon="5.88334">
        <ele>501</ele>
        <time>2019-06-04T09:41:17Z</time>
      </trkpt>
      <trkpt lat="44.16956" lon="5.88343">
        <ele>501</ele>
        <time>2019-06-04T09:41:18Z</time>
      </trkpt>
      <trkpt lat="44.16957" lon="5.88353">
        <ele>501</ele>
        <time>2019-06-04T09:41:19Z</time>
      </trkpt>
      <trkpt lat="44.16958" lon="5.88362">
        <ele>501</ele>
        <time>2019-06-04T09:41:20Z</time>
      </trkpt>
      <trkpt lat="44.1696" lon="5.88372">
        <ele>501</ele>
        <time>2019-06-04T09:41:21Z</time>
      </trkpt>
      <trkpt lat="44.16961" lon="5.88381">
        <ele>501</ele>
        <time>2019-06-04T09:41:22Z</time>
      </trkpt>
      <trkpt lat="44.16962" lon="5.88391">
        <ele>501</ele>
        <time>2019-06-04T09:41:23Z</time>
      </trkpt>
      <trkpt lat="44.16964" lon="5.88401">
        <ele>501</ele>
        <time>2019-06-04T09:41:24Z</time>
      </trkpt>
      <trkpt lat="44.16965" lon="5.8841">
        <ele>501</ele>
        <time>2019-06-04T09:41:25Z</time>
      </trkpt>
      <trkpt lat="44.16967" lon="5.88419">
        <ele>501</ele>
        <time>2019-06-04T09:41:26Z</time>
      </trkpt>
      <trkpt lat="44.16969" lon="5.88428">
        <ele>501</ele>
        <time>2019-06-04T09:41:27Z</time>
      </trkpt>
      <trkpt lat="44.16972" lon="5.88437">
        <ele>501</ele>
        <time>2019-06-04T09:41:28Z</time>
      </trkpt>
      <trkpt lat="44.16975" lon="5.88446">
        <ele>501</ele>
        <time>2019-06-04T09:41:29Z</time>
      </trkpt>
      <trkpt lat="44.16978" lon="5.88454">
        <ele>501</ele>
        <time>2019-06-04T09:41:30Z</time>
      </trkpt>
      <trkpt lat="44.16982" lon="5.88463">
        <ele>501</ele>
        <time>2019-06-04T09:41:31Z</time>
      </trkpt>
      <trkpt lat="44.16985" lon="5.88472">
        <ele>501</ele>
        <time>2019-06-04T09:41:32Z</time>
      </trkpt>
      <trkpt lat="44.16989" lon="5.8848">
        <ele>501</ele>
        <time>2019-06-04T09:41:33Z</time>
      </trkpt>
      <trkpt lat="44.16993" lon="5.88488">
        <ele>501</ele>
        <time>2019-06-04T09:41:34Z</time>
      </trkpt>
      <trkpt lat="44.16996" lon="5.88496">
        <ele>501</ele>
        <time>2019-06-04T09:41:35Z</time>
      </trkpt>
      <trkpt lat="44.17" lon="5.88504">
        <ele>501</ele>
        <time>2019-06-04T09:41:36Z</time>
      </trkpt>
      <trkpt lat="44.17004" lon="5.88512">
        <ele>501</ele>
        <time>2019-06-04T09:41:37Z</time>
      </trkpt>
      <trkpt lat="44.17007" lon="5.8852">
        <ele>501</ele>
        <time>2019-06-04T09:41:38Z</time>
      </trkpt>
      <trkpt lat="44.17011" lon="5.88528">
        <ele>501</ele>
        <time>2019-06-04T09:41:39Z</time>
      </trkpt>
      <trkpt lat="44.17015" lon="5.88536">
        <ele>501</ele>
        <time>2019-06-04T09:41:40Z</time>
      </trkpt>
      <trkpt lat="44.17018" lon="5.88545">
        <ele>501</ele>
        <time>2019-06-04T09:41:41Z</time>
      </trkpt>
      <trkpt lat="44.17022" lon="5.88554">
        <ele>501</ele>
        <time>2019-06-04T09:41:42Z</time>
      </trkpt>
      <trkpt lat="44.17025" lon="5.88563">
        <ele>501</ele>
        <time>2019-06-04T09:41:43Z</time>
      </trkpt>
      <trkpt lat="44.17029" lon="5.88572">
        <ele>501</ele>
        <time>2019-06-04T09:41:44Z</time>
      </trkpt>
      <trkpt lat="44.17032" lon="5.88581">
        <ele>501</ele>
        <time>2019-06-04T09:41:45Z</time>
      </trkpt>
      <trkpt lat="44.17035" lon="5.8859">
        <ele>501</ele>
        <time>2019-06-04T09:41:46Z</time>
      </trkpt>
      <trkpt lat="44.17038" lon="5.88599">
        <ele>501</ele>
        <time>2019-06-04T09:41:47Z</time>
      </trkpt>
      <trkpt lat="44.17041" lon="5.88608">
        <ele>501</ele>
        <time>2019-06-04T09:41:48Z</time>
      </trkpt>
      <trkpt lat="44.17044" lon="5.88617">
        <ele>501</ele>
        <time>2019-06-04T09:41:49Z</time>
      </trkpt>
      <trkpt lat="44.17046" lon="5.88625">
        <ele>501</ele>
        <time>2019-06-04T09:41:50Z</time>
      </trkpt>
      <trkpt lat="44.17049" lon="5.88634">
        <ele>501</ele>
        <time>2019-06-04T09:41:51Z</time>
      </trkpt>
      <trkpt lat="44.17051" lon="5.88642">
        <ele>501</ele>
        <time>2019-06-04T09:41:52Z</time>
      </trkpt>
      <trkpt lat="44.17054" lon="5.88651">
        <ele>501</ele>
        <time>2019-06-04T09:41:53Z</time>
      </trkpt>
      <trkpt lat="44.17056" lon="5.88659">
        <ele>501</ele>
        <time>2019-06-04T09:41:54Z</time>
      </trkpt>
      <trkpt lat="44.17059" lon="5.88668">
        <ele>501</ele>
        <time>2019-06-04T09:41:55Z</time>
      </trkpt>
      <trkpt lat="44.17061" lon="5.88677">
        <ele>501</ele>
        <time>2019-06-04T09:41:56Z</time>
      </trkpt>
      <trkpt lat="44.17064" lon="5.88685">
        <ele>501</ele>
        <time>2019-06-04T09:41:57Z</time>
      </trkpt>
      <trkpt lat="44.17066" lon="5.88694">
        <ele>501</ele>
        <time>2019-06-04T09:41:58Z</time>
      </trkpt>
      <trkpt lat="44.17068" lon="5.88703">
        <ele>501</ele>
        <time>2019-06-04T09:41:59Z</time>
      </trkpt>
      <trkpt lat="44.1707" lon="5.88711">
        <ele>501</ele>
        <time>2019-06-04T09:42:00Z</time>
      </trkpt>
      <trkpt lat="44.17073" lon="5.88719">
        <ele>501</ele>
        <time>2019-06-04T09:42:01Z</time>
      </trkpt>
      <trkpt lat="44.17075" lon="5.88728">
        <ele>501</ele>
        <time>2019-06-04T09:42:02Z</time>
      </trkpt>
      <trkpt lat="44.17078" lon="5.88736">
        <ele>501</ele>
        <time>2019-06-04T09:42:03Z</time>
      </trkpt>
      <trkpt lat="44.17081" lon="5.88744">
        <ele>501</ele>
        <time>2019-06-04T09:42:04Z</time>
      </trkpt>
      <trkpt lat="44.17084" lon="5.88753">
        <ele>501</ele>
        <time>2019-06-04T09:42:05Z</time>
      </trkpt>
      <trkpt lat="44.17087" lon="5.88762">
        <ele>501</ele>
        <time>2019-06-04T09:42:06Z</time>
      </trkpt>
      <trkpt lat="44.17091" lon="5.88771">
        <ele>501</ele>
        <time>2019-06-04T09:42:07Z</time>
      </trkpt>
      <trkpt lat="44.17094" lon="5.8878">
        <ele>501</ele>
        <time>2019-06-04T09:42:08Z</time>
      </trkpt>
      <trkpt lat="44.17098" lon="5.88789">
        <ele>501</ele>
        <time>2019-06-04T09:42:09Z</time>
      </trkpt>
      <trkpt lat="44.17101" lon="5.88799">
        <ele>501</ele>
        <time>2019-06-04T09:42:10Z</time>
      </trkpt>
      <trkpt lat="44.17105" lon="5.88808">
        <ele>501</ele>
        <time>2019-06-04T09:42:11Z</time>
      </trkpt>
      <trkpt lat="44.17108" lon="5.88817">
        <ele>501</ele>
        <time>2019-06-04T09:42:12Z</time>
      </trkpt>
      <trkpt lat="44.17112" lon="5.88826">
        <ele>501</ele>
        <time>2019-06-04T09:42:13Z</time>
      </trkpt>
      <trkpt lat="44.17115" lon="5.88835">
        <ele>501</ele>
        <time>2019-06-04T09:42:14Z</time>
      </trkpt>
      <trkpt lat="44.17118" lon="5.88844">
        <ele>501</ele>
        <time>2019-06-04T09:42:15Z</time>
      </trkpt>
      <trkpt lat="44.17121" lon="5.88853">
        <ele>501</ele>
        <time>2019-06-04T09:42:16Z</time>
      </trkpt>
      <trkpt lat="44.17124" lon="5.88862">
        <ele>501</ele>
        <time>2019-06-04T09:42:17Z</time>
      </trkpt>
      <trkpt lat="44.17128" lon="5.8887">
        <ele>501</ele>
        <time>2019-06-04T09:42:18Z</time>
      </trkpt>
      <trkpt lat="44.17131" lon="5.88879">
        <ele>501</ele>
        <time>2019-06-04T09:42:19Z</time>
      </trkpt>
      <trkpt lat="44.17134" lon="5.88887">
        <ele>501</ele>
        <time>2019-06-04T09:42:20Z</time>
      </trkpt>
      <trkpt lat="44.17138" lon="5.88895">
        <ele>501</ele>
        <time>2019-06-04T09:42:21Z</time>
      </trkpt>
      <trkpt lat="44.17141" lon="5.88903">
        <ele>501</ele>
        <time>2019-06-04T09:42:22Z</time>
      </trkpt>
      <trkpt lat="44.17144" lon="5.88911">
        <ele>501</ele>
        <time>2019-06-04T09:42:23Z</time>
      </trkpt>
      <trkpt lat="44.17147" lon="5.88919">
        <ele>501</ele>
        <time>2019-06-04T09:42:24Z</time>
      </trkpt>
      <trkpt lat="44.1715" lon="5.88927">
        <ele>501</ele>
        <time>2019-06-04T09:42:25Z</time>
      </trkpt>
      <trkpt lat="44.17152" lon="5.88936">
        <ele>501</ele>
        <time>2019-06-04T09:42:26Z</time>
      </trkpt>
      <trkpt lat="44.17155" lon="5.88944">
        <ele>501</ele>
        <time>2019-06-04T09:42:27Z</time>
      </trkpt>
      <trkpt lat="44.17157" lon="5.88953">
        <ele>501</ele>
        <time>2019-06-04T09:42:28Z</time>
      </trkpt>
      <trkpt lat="44.1716" lon="5.88962">
        <ele>501</ele>
        <time>2019-06-04T09:42:29Z</time>
      </trkpt>
      <trkpt lat="44.17162" lon="5.88971">
        <ele>501</ele>
        <time>2019-06-04T09:42:30Z</time>
      </trkpt>
      <trkpt lat="44.17163" lon="5.8898">
        <ele>501</ele>
        <time>2019-06-04T09:42:31Z</time>
      </trkpt>
      <trkpt lat="44.17165" lon="5.88989">
        <ele>501</ele>
        <time>2019-06-04T09:42:32Z</time>
      </trkpt>
      <trkpt lat="44.17166" lon="5.88998">
        <ele>501</ele>
        <time>2019-06-04T09:42:33Z</time>
      </trkpt>
      <trkpt lat="44.17168" lon="5.89007">
        <ele>501</ele>
        <time>2019-06-04T09:42:34Z</time>
      </trkpt>
      <trkpt lat="44.17169" lon="5.89016">
        <ele>501</ele>
        <time>2019-06-04T09:42:35Z</time>
      </trkpt>
      <trkpt lat="44.17171" lon="5.89025">
        <ele>501</ele>
        <time>2019-06-04T09:42:36Z</time>
      </trkpt>
      <trkpt lat="44.17173" lon="5.89034">
        <ele>501</ele>
        <time>2019-06-04T09:42:37Z</time>
      </trkpt>
      <trkpt lat="44.17175" lon="5.89042">
        <ele>501</ele>
        <time>2019-06-04T09:42:38Z</time>
      </trkpt>
      <trkpt lat="44.17177" lon="5.89051">
        <ele>500</ele>
        <time>2019-06-04T09:42:39Z</time>
      </trkpt>
      <trkpt lat="44.17179" lon="5.89059">
        <ele>500</ele>
        <time>2019-06-04T09:42:40Z</time>
      </trkpt>
      <trkpt lat="44.17181" lon="5.89068">
        <ele>500</ele>
        <time>2019-06-04T09:42:41Z</time>
      </trkpt>
      <trkpt lat="44.17183" lon="5.89076">
        <ele>500</ele>
        <time>2019-06-04T09:42:42Z</time>
      </trkpt>
      <trkpt lat="44.17185" lon="5.89084">
        <ele>499</ele>
        <time>2019-06-04T09:42:43Z</time>
      </trkpt>
      <trkpt lat="44.17188" lon="5.89092">
        <ele>499</ele>
        <time>2019-06-04T09:42:44Z</time>
      </trkpt>
      <trkpt lat="44.1719" lon="5.89101">
        <ele>499</ele>
        <time>2019-06-04T09:42:45Z</time>
      </trkpt>
      <trkpt lat="44.17193" lon="5.89109">
        <ele>499</ele>
        <time>2019-06-04T09:42:46Z</time>
      </trkpt>
      <trkpt lat="44.17197" lon="5.89117">
        <ele>499</ele>
        <time>2019-06-04T09:42:47Z</time>
      </trkpt>
      <trkpt lat="44.17199" lon="5.89126">
        <ele>499</ele>
        <time>2019-06-04T09:42:48Z</time>
      </trkpt>
      <trkpt lat="44.17203" lon="5.89135">
        <ele>499</ele>
        <time>2019-06-04T09:42:49Z</time>
      </trkpt>
      <trkpt lat="44.17207" lon="5.89144">
        <ele>499</ele>
        <time>2019-06-04T09:42:50Z</time>
      </trkpt>
      <trkpt lat="44.17211" lon="5.89153">
        <ele>498</ele>
        <time>2019-06-04T09:42:51Z</time>
      </trkpt>
      <trkpt lat="44.17214" lon="5.89162">
        <ele>498</ele>
        <time>2019-06-04T09:42:52Z</time>
      </trkpt>
      <trkpt lat="44.17218" lon="5.89171">
        <ele>498</ele>
        <time>2019-06-04T09:42:53Z</time>
      </trkpt>
      <trkpt lat="44.17221" lon="5.8918">
        <ele>498</ele>
        <time>2019-06-04T09:42:54Z</time>
      </trkpt>
      <trkpt lat="44.17225" lon="5.89188">
        <ele>498</ele>
        <time>2019-06-04T09:42:55Z</time>
      </trkpt>
      <trkpt lat="44.17229" lon="5.89197">
        <ele>498</ele>
        <time>2019-06-04T09:42:56Z</time>
      </trkpt>
      <trkpt lat="44.17232" lon="5.89206">
        <ele>497</ele>
        <time>2019-06-04T09:42:57Z</time>
      </trkpt>
      <trkpt lat="44.17235" lon="5.89215">
        <ele>497</ele>
        <time>2019-06-04T09:42:58Z</time>
      </trkpt>
      <trkpt lat="44.17238" lon="5.89224">
        <ele>497</ele>
        <time>2019-06-04T09:42:59Z</time>
      </trkpt>
      <trkpt lat="44.17241" lon="5.89232">
        <ele>497</ele>
        <time>2019-06-04T09:43:00Z</time>
      </trkpt>
      <trkpt lat="44.17244" lon="5.89241">
        <ele>497</ele>
        <time>2019-06-04T09:43:01Z</time>
      </trkpt>
      <trkpt lat="44.17246" lon="5.89249">
        <ele>497</ele>
        <time>2019-06-04T09:43:02Z</time>
      </trkpt>
      <trkpt lat="44.17248" lon="5.89258">
        <ele>497</ele>
        <time>2019-06-04T09:43:03Z</time>
      </trkpt>
      <trkpt lat="44.1725" lon="5.89267">
        <ele>497</ele>
        <time>2019-06-04T09:43:04Z</time>
      </trkpt>
      <trkpt lat="44.17251" lon="5.89276">
        <ele>497</ele>
        <time>2019-06-04T09:43:05Z</time>
      </trkpt>
      <trkpt lat="44.17252" lon="5.89286">
        <ele>497</ele>
        <time>2019-06-04T09:43:06Z</time>
      </trkpt>
      <trkpt lat="44.17254" lon="5.89295">
        <ele>497</ele>
        <time>2019-06-04T09:43:07Z</time>
      </trkpt>
      <trkpt lat="44.17255" lon="5.89304">
        <ele>496</ele>
        <time>2019-06-04T09:43:08Z</time>
      </trkpt>
      <trkpt lat="44.17257" lon="5.89313">
        <ele>496</ele>
        <time>2019-06-04T09:43:09Z</time>
      </trkpt>
      <trkpt lat="44.17258" lon="5.89323">
        <ele>496</ele>
        <time>2019-06-04T09:43:10Z</time>
      </trkpt>
      <trkpt lat="44.17259" lon="5.89332">
        <ele>496</ele>
        <time>2019-06-04T09:43:11Z</time>
      </trkpt>
      <trkpt lat="44.1726" lon="5.89341">
        <ele>496</ele>
        <time>2019-06-04T09:43:12Z</time>
      </trkpt>
      <trkpt lat="44.17261" lon="5.8935">
        <ele>496</ele>
        <time>2019-06-04T09:43:13Z</time>
      </trkpt>
      <trkpt lat="44.17262" lon="5.89359">
        <ele>496</ele>
        <time>2019-06-04T09:43:14Z</time>
      </trkpt>
      <trkpt lat="44.17263" lon="5.89367">
        <ele>496</ele>
        <time>2019-06-04T09:43:15Z</time>
      </trkpt>
      <trkpt lat="44.17264" lon="5.89376">
        <ele>496</ele>
        <time>2019-06-04T09:43:16Z</time>
      </trkpt>
      <trkpt lat="44.17265" lon="5.89385">
        <ele>496</ele>
        <time>2019-06-04T09:43:17Z</time>
      </trkpt>
      <trkpt lat="44.17265" lon="5.89394">
        <ele>496</ele>
        <time>2019-06-04T09:43:18Z</time>
      </trkpt>
      <trkpt lat="44.17266" lon="5.89403">
        <ele>496</ele>
        <time>2019-06-04T09:43:19Z</time>
      </trkpt>
      <trkpt lat="44.17267" lon="5.89412">
        <ele>496</ele>
        <time>2019-06-04T09:43:20Z</time>
      </trkpt>
      <trkpt lat="44.17268" lon="5.89421">
        <ele>496</ele>
        <time>2019-06-04T09:43:21Z</time>
      </trkpt>
      <trkpt lat="44.1727" lon="5.89431">
        <ele>496</ele>
        <time>2019-06-04T09:43:22Z</time>
      </trkpt>
      <trkpt lat="44.17271" lon="5.8944">
        <ele>496</ele>
        <time>2019-06-04T09:43:23Z</time>
      </trkpt>
      <trkpt lat="44.17272" lon="5.89449">
        <ele>496</ele>
        <time>2019-06-04T09:43:24Z</time>
      </trkpt>
      <trkpt lat="44.17273" lon="5.89459">
        <ele>495</ele>
        <time>2019-06-04T09:43:25Z</time>
      </trkpt>
      <trkpt lat="44.17274" lon="5.89468">
        <ele>495</ele>
        <time>2019-06-04T09:43:26Z</time>
      </trkpt>
      <trkpt lat="44.17276" lon="5.89478">
        <ele>495</ele>
        <time>2019-06-04T09:43:27Z</time>
      </trkpt>
      <trkpt lat="44.17277" lon="5.89488">
        <ele>495</ele>
        <time>2019-06-04T09:43:28Z</time>
      </trkpt>
      <trkpt lat="44.17278" lon="5.89497">
        <ele>495</ele>
        <time>2019-06-04T09:43:29Z</time>
      </trkpt>
      <trkpt lat="44.1728" lon="5.89507">
        <ele>495</ele>
        <time>2019-06-04T09:43:30Z</time>
      </trkpt>
      <trkpt lat="44.17281" lon="5.89517">
        <ele>495</ele>
        <time>2019-06-04T09:43:31Z</time>
      </trkpt>
      <trkpt lat="44.17282" lon="5.89527">
        <ele>495</ele>
        <time>2019-06-04T09:43:32Z</time>
      </trkpt>
      <trkpt lat="44.17284" lon="5.89537">
        <ele>494</ele>
        <time>2019-06-04T09:43:33Z</time>
      </trkpt>
      <trkpt lat="44.17285" lon="5.89547">
        <ele>494</ele>
        <time>2019-06-04T09:43:34Z</time>
      </trkpt>
      <trkpt lat="44.17286" lon="5.89557">
        <ele>494</ele>
        <time>2019-06-04T09:43:35Z</time>
      </trkpt>
      <trkpt lat="44.17287" lon="5.89567">
        <ele>494</ele>
        <time>2019-06-04T09:43:36Z</time>
      </trkpt>
      <trkpt lat="44.17289" lon="5.89577">
        <ele>494</ele>
        <time>2019-06-04T09:43:37Z</time>
      </trkpt>
      <trkpt lat="44.1729" lon="5.89587">
        <ele>494</ele>
        <time>2019-06-04T09:43:38Z</time>
      </trkpt>
      <trkpt lat="44.17291" lon="5.89597">
        <ele>494</ele>
        <time>2019-06-04T09:43:39Z</time>
      </trkpt>
      <trkpt lat="44.17292" lon="5.89607">
        <ele>494</ele>
        <time>2019-06-04T09:43:40Z</time>
      </trkpt>
      <trkpt lat="44.17293" lon="5.89616">
        <ele>494</ele>
        <time>2019-06-04T09:43:41Z</time>
      </trkpt>
      <trkpt lat="44.17294" lon="5.89626">
        <ele>494</ele>
        <time>2019-06-04T09:43:42Z</time>
      </trkpt>
      <trkpt lat="44.17295" lon="5.89636">
        <ele>494</ele>
        <time>2019-06-04T09:43:43Z</time>
      </trkpt>
      <trkpt lat="44.17296" lon="5.89645">
        <ele>494</ele>
        <time>2019-06-04T09:43:44Z</time>
      </trkpt>
      <trkpt lat="44.17297" lon="5.89654">
        <ele>494</ele>
        <time>2019-06-04T09:43:45Z</time>
      </trkpt>
      <trkpt lat="44.17299" lon="5.89664">
        <ele>494</ele>
        <time>2019-06-04T09:43:46Z</time>
      </trkpt>
      <trkpt lat="44.173" lon="5.89673">
        <ele>494</ele>
        <time>2019-06-04T09:43:47Z</time>
      </trkpt>
      <trkpt lat="44.17301" lon="5.89681">
        <ele>494</ele>
        <time>2019-06-04T09:43:48Z</time>
      </trkpt>
      <trkpt lat="44.17303" lon="5.8969">
        <ele>494</ele>
        <time>2019-06-04T09:43:49Z</time>
      </trkpt>
      <trkpt lat="44.17304" lon="5.89699">
        <ele>494</ele>
        <time>2019-06-04T09:43:50Z</time>
      </trkpt>
      <trkpt lat="44.17305" lon="5.89708">
        <ele>494</ele>
        <time>2019-06-04T09:43:51Z</time>
      </trkpt>
      <trkpt lat="44.17307" lon="5.89717">
        <ele>494</ele>
        <time>2019-06-04T09:43:52Z</time>
      </trkpt>
      <trkpt lat="44.17308" lon="5.89726">
        <ele>494</ele>
        <time>2019-06-04T09:43:53Z</time>
      </trkpt>
      <trkpt lat="44.1731" lon="5.89735">
        <ele>494</ele>
        <time>2019-06-04T09:43:54Z</time>
      </trkpt>
      <trkpt lat="44.17311" lon="5.89744">
        <ele>494</ele>
        <time>2019-06-04T09:43:55Z</time>
      </trkpt>
      <trkpt lat="44.17313" lon="5.89753">
        <ele>494</ele>
        <time>2019-06-04T09:43:56Z</time>
      </trkpt>
      <trkpt lat="44.17315" lon="5.89762">
        <ele>494</ele>
        <time>2019-06-04T09:43:57Z</time>
      </trkpt>
      <trkpt lat="44.17316" lon="5.89772">
        <ele>494</ele>
        <time>2019-06-04T09:43:58Z</time>
      </trkpt>
      <trkpt lat="44.17318" lon="5.89782">
        <ele>494</ele>
        <time>2019-06-04T09:43:59Z</time>
      </trkpt>
      <trkpt lat="44.1732" lon="5.89791">
        <ele>494</ele>
        <time>2019-06-04T09:44:00Z</time>
      </trkpt>
      <trkpt lat="44.17322" lon="5.89801">
        <ele>494</ele>
        <time>2019-06-04T09:44:01Z</time>
      </trkpt>
      <trkpt lat="44.17324" lon="5.8981">
        <ele>494</ele>
        <time>2019-06-04T09:44:02Z</time>
      </trkpt>
      <trkpt lat="44.17325" lon="5.89819">
        <ele>494</ele>
        <time>2019-06-04T09:44:03Z</time>
      </trkpt>
      <trkpt lat="44.17326" lon="5.89829">
        <ele>494</ele>
        <time>2019-06-04T09:44:04Z</time>
      </trkpt>
      <trkpt lat="44.17328" lon="5.89838">
        <ele>494</ele>
        <time>2019-06-04T09:44:05Z</time>
      </trkpt>
      <trkpt lat="44.1733" lon="5.89847">
        <ele>494</ele>
        <time>2019-06-04T09:44:06Z</time>
      </trkpt>
      <trkpt lat="44.17331" lon="5.89856">
        <ele>494</ele>
        <time>2019-06-04T09:44:07Z</time>
      </trkpt>
      <trkpt lat="44.17333" lon="5.89865">
        <ele>494</ele>
        <time>2019-06-04T09:44:08Z</time>
      </trkpt>
      <trkpt lat="44.17335" lon="5.89875">
        <ele>494</ele>
        <time>2019-06-04T09:44:09Z</time>
      </trkpt>
      <trkpt lat="44.17337" lon="5.89884">
        <ele>494</ele>
        <time>2019-06-04T09:44:10Z</time>
      </trkpt>
      <trkpt lat="44.17339" lon="5.89893">
        <ele>494</ele>
        <time>2019-06-04T09:44:11Z</time>
      </trkpt>
      <trkpt lat="44.1734" lon="5.89903">
        <ele>494</ele>
        <time>2019-06-04T09:44:12Z</time>
      </trkpt>
      <trkpt lat="44.17342" lon="5.89912">
        <ele>494</ele>
        <time>2019-06-04T09:44:13Z</time>
      </trkpt>
      <trkpt lat="44.17345" lon="5.89921">
        <ele>494</ele>
        <time>2019-06-04T09:44:14Z</time>
      </trkpt>
      <trkpt lat="44.17347" lon="5.89929">
        <ele>494</ele>
        <time>2019-06-04T09:44:15Z</time>
      </trkpt>
      <trkpt lat="44.1735" lon="5.89938">
        <ele>494</ele>
        <time>2019-06-04T09:44:16Z</time>
      </trkpt>
      <trkpt lat="44.17352" lon="5.89947">
        <ele>494</ele>
        <time>2019-06-04T09:44:17Z</time>
      </trkpt>
      <trkpt lat="44.17355" lon="5.89955">
        <ele>494</ele>
        <time>2019-06-04T09:44:18Z</time>
      </trkpt>
      <trkpt lat="44.17357" lon="5.89964">
        <ele>494</ele>
        <time>2019-06-04T09:44:19Z</time>
      </trkpt>
      <trkpt lat="44.1736" lon="5.89973">
        <ele>493</ele>
        <time>2019-06-04T09:44:20Z</time>
      </trkpt>
      <trkpt lat="44.17363" lon="5.89982">
        <ele>493</ele>
        <time>2019-06-04T09:44:21Z</time>
      </trkpt>
      <trkpt lat="44.17366" lon="5.89991">
        <ele>493</ele>
        <time>2019-06-04T09:44:22Z</time>
      </trkpt>
      <trkpt lat="44.17369" lon="5.9">
        <ele>493</ele>
        <time>2019-06-04T09:44:23Z</time>
      </trkpt>
      <trkpt lat="44.17371" lon="5.90009">
        <ele>493</ele>
        <time>2019-06-04T09:44:24Z</time>
      </trkpt>
      <trkpt lat="44.17374" lon="5.90019">
        <ele>493</ele>
        <time>2019-06-04T09:44:25Z</time>
      </trkpt>
      <trkpt lat="44.17376" lon="5.90029">
        <ele>493</ele>
        <time>2019-06-04T09:44:26Z</time>
      </trkpt>
      <trkpt lat="44.17379" lon="5.90039">
        <ele>492</ele>
        <time>2019-06-04T09:44:27Z</time>
      </trkpt>
      <trkpt lat="44.17382" lon="5.90049">
        <ele>492</ele>
        <time>2019-06-04T09:44:28Z</time>
      </trkpt>
      <trkpt lat="44.17384" lon="5.90059">
        <ele>492</ele>
        <time>2019-06-04T09:44:29Z</time>
      </trkpt>
      <trkpt lat="44.17386" lon="5.90069">
        <ele>492</ele>
        <time>2019-06-04T09:44:30Z</time>
      </trkpt>
      <trkpt lat="44.17388" lon="5.90079">
        <ele>492</ele>
        <time>2019-06-04T09:44:31Z</time>
      </trkpt>
      <trkpt lat="44.1739" lon="5.9009">
        <ele>492</ele>
        <time>2019-06-04T09:44:32Z</time>
      </trkpt>
      <trkpt lat="44.17391" lon="5.901">
        <ele>492</ele>
        <time>2019-06-04T09:44:33Z</time>
      </trkpt>
      <trkpt lat="44.17393" lon="5.9011">
        <ele>492</ele>
        <time>2019-06-04T09:44:34Z</time>
      </trkpt>
      <trkpt lat="44.17394" lon="5.90121">
        <ele>492</ele>
        <time>2019-06-04T09:44:35Z</time>
      </trkpt>
      <trkpt lat="44.17395" lon="5.9013">
        <ele>492</ele>
        <time>2019-06-04T09:44:36Z</time>
      </trkpt>
      <trkpt lat="44.17396" lon="5.9014">
        <ele>492</ele>
        <time>2019-06-04T09:44:37Z</time>
      </trkpt>
      <trkpt lat="44.17396" lon="5.9015">
        <ele>492</ele>
        <time>2019-06-04T09:44:38Z</time>
      </trkpt>
      <trkpt lat="44.17396" lon="5.9016">
        <ele>492</ele>
        <time>2019-06-04T09:44:39Z</time>
      </trkpt>
      <trkpt lat="44.17395" lon="5.90169">
        <ele>491</ele>
        <time>2019-06-04T09:44:40Z</time>
      </trkpt>
      <trkpt lat="44.17395" lon="5.90179">
        <ele>491</ele>
        <time>2019-06-04T09:44:41Z</time>
      </trkpt>
      <trkpt lat="44.17395" lon="5.90189">
        <ele>491</ele>
        <time>2019-06-04T09:44:42Z</time>
      </trkpt>
      <trkpt lat="44.17394" lon="5.90198">
        <ele>491</ele>
        <time>2019-06-04T09:44:43Z</time>
      </trkpt>
      <trkpt lat="44.17393" lon="5.90207">
        <ele>491</ele>
        <time>2019-06-04T09:44:44Z</time>
      </trkpt>
      <trkpt lat="44.17393" lon="5.90216">
        <ele>491</ele>
        <time>2019-06-04T09:44:45Z</time>
      </trkpt>
      <trkpt lat="44.17393" lon="5.90226">
        <ele>490</ele>
        <time>2019-06-04T09:44:46Z</time>
      </trkpt>
      <trkpt lat="44.17392" lon="5.90235">
        <ele>490</ele>
        <time>2019-06-04T09:44:47Z</time>
      </trkpt>
      <trkpt lat="44.17392" lon="5.90244">
        <ele>490</ele>
        <time>2019-06-04T09:44:48Z</time>
      </trkpt>
      <trkpt lat="44.17392" lon="5.90254">
        <ele>490</ele>
        <time>2019-06-04T09:44:49Z</time>
      </trkpt>
      <trkpt lat="44.17392" lon="5.90263">
        <ele>490</ele>
        <time>2019-06-04T09:44:50Z</time>
      </trkpt>
      <trkpt lat="44.17392" lon="5.90273">
        <ele>490</ele>
        <time>2019-06-04T09:44:51Z</time>
      </trkpt>
      <trkpt lat="44.17391" lon="5.90283">
        <ele>490</ele>
        <time>2019-06-04T09:44:52Z</time>
      </trkpt>
      <trkpt lat="44.1739" lon="5.90293">
        <ele>489</ele>
        <time>2019-06-04T09:44:53Z</time>
      </trkpt>
      <trkpt lat="44.17389" lon="5.90303">
        <ele>489</ele>
        <time>2019-06-04T09:44:54Z</time>
      </trkpt>
      <trkpt lat="44.17388" lon="5.90313">
        <ele>489</ele>
        <time>2019-06-04T09:44:55Z</time>
      </trkpt>
      <trkpt lat="44.17387" lon="5.90323">
        <ele>489</ele>
        <time>2019-06-04T09:44:56Z</time>
      </trkpt>
      <trkpt lat="44.17386" lon="5.90334">
        <ele>488</ele>
        <time>2019-06-04T09:44:57Z</time>
      </trkpt>
      <trkpt lat="44.17384" lon="5.90344">
        <ele>488</ele>
        <time>2019-06-04T09:44:58Z</time>
      </trkpt>
      <trkpt lat="44.17383" lon="5.90353">
        <ele>488</ele>
        <time>2019-06-04T09:44:59Z</time>
      </trkpt>
      <trkpt lat="44.17382" lon="5.90364">
        <ele>488</ele>
        <time>2019-06-04T09:45:00Z</time>
      </trkpt>
      <trkpt lat="44.17381" lon="5.90374">
        <ele>487</ele>
        <time>2019-06-04T09:45:01Z</time>
      </trkpt>
      <trkpt lat="44.1738" lon="5.90384">
        <ele>487</ele>
        <time>2019-06-04T09:45:02Z</time>
      </trkpt>
      <trkpt lat="44.17379" lon="5.90395">
        <ele>487</ele>
        <time>2019-06-04T09:45:03Z</time>
      </trkpt>
      <trkpt lat="44.17378" lon="5.90405">
        <ele>487</ele>
        <time>2019-06-04T09:45:04Z</time>
      </trkpt>
      <trkpt lat="44.17377" lon="5.90416">
        <ele>487</ele>
        <time>2019-06-04T09:45:05Z</time>
      </trkpt>
      <trkpt lat="44.17377" lon="5.90426">
        <ele>486</ele>
        <time>2019-06-04T09:45:06Z</time>
      </trkpt>
      <trkpt lat="44.17376" lon="5.90436">
        <ele>486</ele>
        <time>2019-06-04T09:45:07Z</time>
      </trkpt>
      <trkpt lat="44.17376" lon="5.90446">
        <ele>486</ele>
        <time>2019-06-04T09:45:08Z</time>
      </trkpt>
      <trkpt lat="44.17376" lon="5.90456">
        <ele>486</ele>
        <time>2019-06-04T09:45:09Z</time>
      </trkpt>
      <trkpt lat="44.17376" lon="5.90465">
        <ele>486</ele>
        <time>2019-06-04T09:45:10Z</time>
      </trkpt>
      <trkpt lat="44.17376" lon="5.90474">
        <ele>485</ele>
        <time>2019-06-04T09:45:11Z</time>
      </trkpt>
      <trkpt lat="44.17376" lon="5.90484">
        <ele>485</ele>
        <time>2019-06-04T09:45:12Z</time>
      </trkpt>
      <trkpt lat="44.17377" lon="5.90493">
        <ele>485</ele>
        <time>2019-06-04T09:45:13Z</time>
      </trkpt>
      <trkpt lat="44.17377" lon="5.90502">
        <ele>485</ele>
        <time>2019-06-04T09:45:14Z</time>
      </trkpt>
      <trkpt lat="44.17377" lon="5.90511">
        <ele>485</ele>
        <time>2019-06-04T09:45:15Z</time>
      </trkpt>
      <trkpt lat="44.17378" lon="5.9052">
        <ele>485</ele>
        <time>2019-06-04T09:45:16Z</time>
      </trkpt>
      <trkpt lat="44.17378" lon="5.90529">
        <ele>485</ele>
        <time>2019-06-04T09:45:17Z</time>
      </trkpt>
      <trkpt lat="44.17378" lon="5.90539">
        <ele>485</ele>
        <time>2019-06-04T09:45:18Z</time>
      </trkpt>
      <trkpt lat="44.17377" lon="5.90548">
        <ele>484</ele>
        <time>2019-06-04T09:45:19Z</time>
      </trkpt>
      <trkpt lat="44.17377" lon="5.90557">
        <ele>484</ele>
        <time>2019-06-04T09:45:20Z</time>
      </trkpt>
      <trkpt lat="44.17377" lon="5.90566">
        <ele>484</ele>
        <time>2019-06-04T09:45:21Z</time>
      </trkpt>
      <trkpt lat="44.17377" lon="5.90576">
        <ele>484</ele>
        <time>2019-06-04T09:45:22Z</time>
      </trkpt>
      <trkpt lat="44.17377" lon="5.90585">
        <ele>484</ele>
        <time>2019-06-04T09:45:23Z</time>
      </trkpt>
      <trkpt lat="44.17377" lon="5.90594">
        <ele>484</ele>
        <time>2019-06-04T09:45:24Z</time>
      </trkpt>
      <trkpt lat="44.17377" lon="5.90604">
        <ele>484</ele>
        <time>2019-06-04T09:45:25Z</time>
      </trkpt>
      <trkpt lat="44.17376" lon="5.90614">
        <ele>484</ele>
        <time>2019-06-04T09:45:26Z</time>
      </trkpt>
      <trkpt lat="44.17376" lon="5.90623">
        <ele>484</ele>
        <time>2019-06-04T09:45:27Z</time>
      </trkpt>
      <trkpt lat="44.17376" lon="5.90632">
        <ele>484</ele>
        <time>2019-06-04T09:45:28Z</time>
      </trkpt>
      <trkpt lat="44.17376" lon="5.90642">
        <ele>483</ele>
        <time>2019-06-04T09:45:29Z</time>
      </trkpt>
      <trkpt lat="44.17376" lon="5.90651">
        <ele>483</ele>
        <time>2019-06-04T09:45:30Z</time>
      </trkpt>
      <trkpt lat="44.17376" lon="5.9066">
        <ele>483</ele>
        <time>2019-06-04T09:45:31Z</time>
      </trkpt>
      <trkpt lat="44.17376" lon="5.9067">
        <ele>483</ele>
        <time>2019-06-04T09:45:32Z</time>
      </trkpt>
      <trkpt lat="44.17376" lon="5.90679">
        <ele>483</ele>
        <time>2019-06-04T09:45:33Z</time>
      </trkpt>
      <trkpt lat="44.17376" lon="5.90688">
        <ele>483</ele>
        <time>2019-06-04T09:45:34Z</time>
      </trkpt>
      <trkpt lat="44.17376" lon="5.90698">
        <ele>483</ele>
        <time>2019-06-04T09:45:35Z</time>
      </trkpt>
      <trkpt lat="44.17376" lon="5.90707">
        <ele>483</ele>
        <time>2019-06-04T09:45:36Z</time>
      </trkpt>
      <trkpt lat="44.17376" lon="5.90717">
        <ele>483</ele>
        <time>2019-06-04T09:45:37Z</time>
      </trkpt>
      <trkpt lat="44.17376" lon="5.90727">
        <ele>483</ele>
        <time>2019-06-04T09:45:38Z</time>
      </trkpt>
      <trkpt lat="44.17376" lon="5.90737">
        <ele>483</ele>
        <time>2019-06-04T09:45:39Z</time>
      </trkpt>
      <trkpt lat="44.17376" lon="5.90747">
        <ele>483</ele>
        <time>2019-06-04T09:45:40Z</time>
      </trkpt>
      <trkpt lat="44.17376" lon="5.90757">
        <ele>483</ele>
        <time>2019-06-04T09:45:41Z</time>
      </trkpt>
      <trkpt lat="44.17375" lon="5.90767">
        <ele>483</ele>
        <time>2019-06-04T09:45:42Z</time>
      </trkpt>
      <trkpt lat="44.17375" lon="5.90777">
        <ele>483</ele>
        <time>2019-06-04T09:45:43Z</time>
      </trkpt>
      <trkpt lat="44.17374" lon="5.90787">
        <ele>483</ele>
        <time>2019-06-04T09:45:44Z</time>
      </trkpt>
      <trkpt lat="44.17374" lon="5.90797">
        <ele>483</ele>
        <time>2019-06-04T09:45:45Z</time>
      </trkpt>
      <trkpt lat="44.17373" lon="5.90807">
        <ele>483</ele>
        <time>2019-06-04T09:45:46Z</time>
      </trkpt>
      <trkpt lat="44.17373" lon="5.90817">
        <ele>483</ele>
        <time>2019-06-04T09:45:47Z</time>
      </trkpt>
      <trkpt lat="44.17372" lon="5.90828">
        <ele>483</ele>
        <time>2019-06-04T09:45:48Z</time>
      </trkpt>
      <trkpt lat="44.17371" lon="5.90838">
        <ele>482</ele>
        <time>2019-06-04T09:45:49Z</time>
      </trkpt>
      <trkpt lat="44.1737" lon="5.90848">
        <ele>482</ele>
        <time>2019-06-04T09:45:50Z</time>
      </trkpt>
      <trkpt lat="44.17369" lon="5.90858">
        <ele>482</ele>
        <time>2019-06-04T09:45:51Z</time>
      </trkpt>
      <trkpt lat="44.17368" lon="5.90869">
        <ele>482</ele>
        <time>2019-06-04T09:45:52Z</time>
      </trkpt>
      <trkpt lat="44.17366" lon="5.90879">
        <ele>481</ele>
        <time>2019-06-04T09:45:53Z</time>
      </trkpt>
      <trkpt lat="44.17364" lon="5.90889">
        <ele>481</ele>
        <time>2019-06-04T09:45:54Z</time>
      </trkpt>
      <trkpt lat="44.17363" lon="5.90899">
        <ele>481</ele>
        <time>2019-06-04T09:45:55Z</time>
      </trkpt>
      <trkpt lat="44.17361" lon="5.90909">
        <ele>481</ele>
        <time>2019-06-04T09:45:56Z</time>
      </trkpt>
      <trkpt lat="44.1736" lon="5.90919">
        <ele>481</ele>
        <time>2019-06-04T09:45:57Z</time>
      </trkpt>
      <trkpt lat="44.17359" lon="5.9093">
        <ele>480</ele>
        <time>2019-06-04T09:45:58Z</time>
      </trkpt>
      <trkpt lat="44.17358" lon="5.9094">
        <ele>480</ele>
        <time>2019-06-04T09:45:59Z</time>
      </trkpt>
      <trkpt lat="44.17357" lon="5.90951">
        <ele>480</ele>
        <time>2019-06-04T09:46:00Z</time>
      </trkpt>
      <trkpt lat="44.17356" lon="5.90962">
        <ele>480</ele>
        <time>2019-06-04T09:46:01Z</time>
      </trkpt>
      <trkpt lat="44.17354" lon="5.90972">
        <ele>480</ele>
        <time>2019-06-04T09:46:02Z</time>
      </trkpt>
      <trkpt lat="44.17353" lon="5.90982">
        <ele>480</ele>
        <time>2019-06-04T09:46:03Z</time>
      </trkpt>
      <trkpt lat="44.17352" lon="5.90993">
        <ele>480</ele>
        <time>2019-06-04T09:46:04Z</time>
      </trkpt>
      <trkpt lat="44.1735" lon="5.91004">
        <ele>480</ele>
        <time>2019-06-04T09:46:05Z</time>
      </trkpt>
      <trkpt lat="44.1735" lon="5.91014">
        <ele>480</ele>
        <time>2019-06-04T09:46:06Z</time>
      </trkpt>
      <trkpt lat="44.17349" lon="5.91025">
        <ele>480</ele>
        <time>2019-06-04T09:46:07Z</time>
      </trkpt>
      <trkpt lat="44.17348" lon="5.91036">
        <ele>480</ele>
        <time>2019-06-04T09:46:08Z</time>
      </trkpt>
      <trkpt lat="44.17348" lon="5.91046">
        <ele>480</ele>
        <time>2019-06-04T09:46:09Z</time>
      </trkpt>
      <trkpt lat="44.17348" lon="5.91057">
        <ele>480</ele>
        <time>2019-06-04T09:46:10Z</time>
      </trkpt>
      <trkpt lat="44.17348" lon="5.91068">
        <ele>480</ele>
        <time>2019-06-04T09:46:11Z</time>
      </trkpt>
      <trkpt lat="44.17347" lon="5.91079">
        <ele>480</ele>
        <time>2019-06-04T09:46:12Z</time>
      </trkpt>
      <trkpt lat="44.17346" lon="5.91091">
        <ele>479</ele>
        <time>2019-06-04T09:46:13Z</time>
      </trkpt>
      <trkpt lat="44.17344" lon="5.91102">
        <ele>479</ele>
        <time>2019-06-04T09:46:14Z</time>
      </trkpt>
      <trkpt lat="44.17343" lon="5.91114">
        <ele>479</ele>
        <time>2019-06-04T09:46:15Z</time>
      </trkpt>
      <trkpt lat="44.17341" lon="5.91125">
        <ele>479</ele>
        <time>2019-06-04T09:46:16Z</time>
      </trkpt>
      <trkpt lat="44.17339" lon="5.91137">
        <ele>479</ele>
        <time>2019-06-04T09:46:17Z</time>
      </trkpt>
      <trkpt lat="44.17336" lon="5.91148">
        <ele>479</ele>
        <time>2019-06-04T09:46:18Z</time>
      </trkpt>
      <trkpt lat="44.17333" lon="5.91159">
        <ele>479</ele>
        <time>2019-06-04T09:46:19Z</time>
      </trkpt>
      <trkpt lat="44.17329" lon="5.9117">
        <ele>478</ele>
        <time>2019-06-04T09:46:20Z</time>
      </trkpt>
      <trkpt lat="44.17325" lon="5.9118">
        <ele>478</ele>
        <time>2019-06-04T09:46:21Z</time>
      </trkpt>
      <trkpt lat="44.17321" lon="5.91189">
        <ele>478</ele>
        <time>2019-06-04T09:46:22Z</time>
      </trkpt>
      <trkpt lat="44.17317" lon="5.91198">
        <ele>478</ele>
        <time>2019-06-04T09:46:23Z</time>
      </trkpt>
      <trkpt lat="44.17312" lon="5.91207">
        <ele>478</ele>
        <time>2019-06-04T09:46:24Z</time>
      </trkpt>
      <trkpt lat="44.17308" lon="5.91215">
        <ele>478</ele>
        <time>2019-06-04T09:46:25Z</time>
      </trkpt>
      <trkpt lat="44.17303" lon="5.91224">
        <ele>478</ele>
        <time>2019-06-04T09:46:26Z</time>
      </trkpt>
      <trkpt lat="44.17299" lon="5.91232">
        <ele>478</ele>
        <time>2019-06-04T09:46:27Z</time>
      </trkpt>
      <trkpt lat="44.17295" lon="5.9124">
        <ele>478</ele>
        <time>2019-06-04T09:46:28Z</time>
      </trkpt>
      <trkpt lat="44.17291" lon="5.91248">
        <ele>478</ele>
        <time>2019-06-04T09:46:29Z</time>
      </trkpt>
      <trkpt lat="44.17288" lon="5.91256">
        <ele>478</ele>
        <time>2019-06-04T09:46:30Z</time>
      </trkpt>
      <trkpt lat="44.17284" lon="5.91264">
        <ele>478</ele>
        <time>2019-06-04T09:46:31Z</time>
      </trkpt>
      <trkpt lat="44.1728" lon="5.91273">
        <ele>478</ele>
        <time>2019-06-04T09:46:32Z</time>
      </trkpt>
      <trkpt lat="44.17276" lon="5.91281">
        <ele>478</ele>
        <time>2019-06-04T09:46:33Z</time>
      </trkpt>
      <trkpt lat="44.17272" lon="5.9129">
        <ele>478</ele>
        <time>2019-06-04T09:46:34Z</time>
      </trkpt>
      <trkpt lat="44.17268" lon="5.91299">
        <ele>478</ele>
        <time>2019-06-04T09:46:35Z</time>
      </trkpt>
      <trkpt lat="44.17265" lon="5.91307">
        <ele>478</ele>
        <time>2019-06-04T09:46:36Z</time>
      </trkpt>
      <trkpt lat="44.17262" lon="5.91316">
        <ele>478</ele>
        <time>2019-06-04T09:46:37Z</time>
      </trkpt>
      <trkpt lat="44.1726" lon="5.91325">
        <ele>478</ele>
        <time>2019-06-04T09:46:38Z</time>
      </trkpt>
      <trkpt lat="44.17257" lon="5.91334">
        <ele>478</ele>
        <time>2019-06-04T09:46:39Z</time>
      </trkpt>
      <trkpt lat="44.17255" lon="5.91344">
        <ele>478</ele>
        <time>2019-06-04T09:46:40Z</time>
      </trkpt>
      <trkpt lat="44.17253" lon="5.91354">
        <ele>478</ele>
        <time>2019-06-04T09:46:41Z</time>
      </trkpt>
      <trkpt lat="44.17251" lon="5.91363">
        <ele>478</ele>
        <time>2019-06-04T09:46:42Z</time>
      </trkpt>
      <trkpt lat="44.17249" lon="5.91373">
        <ele>478</ele>
        <time>2019-06-04T09:46:43Z</time>
      </trkpt>
      <trkpt lat="44.17247" lon="5.91383">
        <ele>478</ele>
        <time>2019-06-04T09:46:44Z</time>
      </trkpt>
      <trkpt lat="44.17245" lon="5.91393">
        <ele>478</ele>
        <time>2019-06-04T09:46:45Z</time>
      </trkpt>
      <trkpt lat="44.17242" lon="5.91403">
        <ele>478</ele>
        <time>2019-06-04T09:46:46Z</time>
      </trkpt>
      <trkpt lat="44.1724" lon="5.91413">
        <ele>478</ele>
        <time>2019-06-04T09:46:47Z</time>
      </trkpt>
      <trkpt lat="44.17239" lon="5.91423">
        <ele>478</ele>
        <time>2019-06-04T09:46:48Z</time>
      </trkpt>
      <trkpt lat="44.17237" lon="5.91433">
        <ele>478</ele>
        <time>2019-06-04T09:46:49Z</time>
      </trkpt>
      <trkpt lat="44.17235" lon="5.91442">
        <ele>478</ele>
        <time>2019-06-04T09:46:50Z</time>
      </trkpt>
      <trkpt lat="44.17233" lon="5.91452">
        <ele>478</ele>
        <time>2019-06-04T09:46:51Z</time>
      </trkpt>
      <trkpt lat="44.17231" lon="5.91462">
        <ele>478</ele>
        <time>2019-06-04T09:46:52Z</time>
      </trkpt>
      <trkpt lat="44.1723" lon="5.91472">
        <ele>478</ele>
        <time>2019-06-04T09:46:53Z</time>
      </trkpt>
      <trkpt lat="44.17228" lon="5.91481">
        <ele>478</ele>
        <time>2019-06-04T09:46:54Z</time>
      </trkpt>
      <trkpt lat="44.17227" lon="5.91491">
        <ele>478</ele>
        <time>2019-06-04T09:46:55Z</time>
      </trkpt>
      <trkpt lat="44.17226" lon="5.91501">
        <ele>478</ele>
        <time>2019-06-04T09:46:56Z</time>
      </trkpt>
      <trkpt lat="44.17224" lon="5.91511">
        <ele>478</ele>
        <time>2019-06-04T09:46:57Z</time>
      </trkpt>
      <trkpt lat="44.17222" lon="5.91521">
        <ele>478</ele>
        <time>2019-06-04T09:46:58Z</time>
      </trkpt>
      <trkpt lat="44.17221" lon="5.91531">
        <ele>478</ele>
        <time>2019-06-04T09:46:59Z</time>
      </trkpt>
      <trkpt lat="44.17219" lon="5.9154">
        <ele>478</ele>
        <time>2019-06-04T09:47:00Z</time>
      </trkpt>
      <trkpt lat="44.17217" lon="5.9155">
        <ele>478</ele>
        <time>2019-06-04T09:47:01Z</time>
      </trkpt>
      <trkpt lat="44.17215" lon="5.91559">
        <ele>478</ele>
        <time>2019-06-04T09:47:02Z</time>
      </trkpt>
      <trkpt lat="44.17213" lon="5.91568">
        <ele>478</ele>
        <time>2019-06-04T09:47:03Z</time>
      </trkpt>
      <trkpt lat="44.17212" lon="5.91577">
        <ele>478</ele>
        <time>2019-06-04T09:47:04Z</time>
      </trkpt>
      <trkpt lat="44.1721" lon="5.91586">
        <ele>478</ele>
        <time>2019-06-04T09:47:05Z</time>
      </trkpt>
      <trkpt lat="44.17208" lon="5.91596">
        <ele>478</ele>
        <time>2019-06-04T09:47:06Z</time>
      </trkpt>
      <trkpt lat="44.17207" lon="5.91605">
        <ele>478</ele>
        <time>2019-06-04T09:47:07Z</time>
      </trkpt>
      <trkpt lat="44.17205" lon="5.91614">
        <ele>478</ele>
        <time>2019-06-04T09:47:08Z</time>
      </trkpt>
      <trkpt lat="44.17203" lon="5.91624">
        <ele>478</ele>
        <time>2019-06-04T09:47:09Z</time>
      </trkpt>
      <trkpt lat="44.17201" lon="5.91633">
        <ele>478</ele>
        <time>2019-06-04T09:47:10Z</time>
      </trkpt>
      <trkpt lat="44.17199" lon="5.91643">
        <ele>478</ele>
        <time>2019-06-04T09:47:11Z</time>
      </trkpt>
      <trkpt lat="44.17197" lon="5.91652">
        <ele>478</ele>
        <time>2019-06-04T09:47:12Z</time>
      </trkpt>
      <trkpt lat="44.17196" lon="5.91661">
        <ele>478</ele>
        <time>2019-06-04T09:47:13Z</time>
      </trkpt>
      <trkpt lat="44.17194" lon="5.9167">
        <ele>478</ele>
        <time>2019-06-04T09:47:14Z</time>
      </trkpt>
      <trkpt lat="44.17193" lon="5.91679">
        <ele>478</ele>
        <time>2019-06-04T09:47:15Z</time>
      </trkpt>
      <trkpt lat="44.17191" lon="5.91689">
        <ele>478</ele>
        <time>2019-06-04T09:47:16Z</time>
      </trkpt>
      <trkpt lat="44.1719" lon="5.91698">
        <ele>478</ele>
        <time>2019-06-04T09:47:17Z</time>
      </trkpt>
      <trkpt lat="44.17188" lon="5.91708">
        <ele>478</ele>
        <time>2019-06-04T09:47:18Z</time>
      </trkpt>
      <trkpt lat="44.17187" lon="5.91716">
        <ele>478</ele>
        <time>2019-06-04T09:47:19Z</time>
      </trkpt>
      <trkpt lat="44.17185" lon="5.91726">
        <ele>478</ele>
        <time>2019-06-04T09:47:20Z</time>
      </trkpt>
      <trkpt lat="44.17183" lon="5.91735">
        <ele>478</ele>
        <time>2019-06-04T09:47:21Z</time>
      </trkpt>
      <trkpt lat="44.17182" lon="5.91744">
        <ele>478</ele>
        <time>2019-06-04T09:47:22Z</time>
      </trkpt>
      <trkpt lat="44.1718" lon="5.91752">
        <ele>478</ele>
        <time>2019-06-04T09:47:23Z</time>
      </trkpt>
      <trkpt lat="44.17179" lon="5.9176">
        <ele>478</ele>
        <time>2019-06-04T09:47:24Z</time>
      </trkpt>
      <trkpt lat="44.17178" lon="5.91768">
        <ele>478</ele>
        <time>2019-06-04T09:47:25Z</time>
      </trkpt>
      <trkpt lat="44.17176" lon="5.91777">
        <ele>477</ele>
        <time>2019-06-04T09:47:26Z</time>
      </trkpt>
      <trkpt lat="44.17176" lon="5.91785">
        <ele>477</ele>
        <time>2019-06-04T09:47:27Z</time>
      </trkpt>
      <trkpt lat="44.17175" lon="5.91793">
        <ele>477</ele>
        <time>2019-06-04T09:47:28Z</time>
      </trkpt>
      <trkpt lat="44.17173" lon="5.91802">
        <ele>477</ele>
        <time>2019-06-04T09:47:29Z</time>
      </trkpt>
      <trkpt lat="44.17173" lon="5.9181">
        <ele>477</ele>
        <time>2019-06-04T09:47:30Z</time>
      </trkpt>
      <trkpt lat="44.17171" lon="5.91818">
        <ele>477</ele>
        <time>2019-06-04T09:47:31Z</time>
      </trkpt>
      <trkpt lat="44.1717" lon="5.91826">
        <ele>477</ele>
        <time>2019-06-04T09:47:32Z</time>
      </trkpt>
      <trkpt lat="44.17169" lon="5.91834">
        <ele>477</ele>
        <time>2019-06-04T09:47:33Z</time>
      </trkpt>
      <trkpt lat="44.1717" lon="5.91843">
        <ele>477</ele>
        <time>2019-06-04T09:47:34Z</time>
      </trkpt>
      <trkpt lat="44.17172" lon="5.9185">
        <ele>477</ele>
        <time>2019-06-04T09:47:35Z</time>
      </trkpt>
      <trkpt lat="44.17176" lon="5.91857">
        <ele>477</ele>
        <time>2019-06-04T09:47:36Z</time>
      </trkpt>
      <trkpt lat="44.17181" lon="5.91862">
        <ele>477</ele>
        <time>2019-06-04T09:47:37Z</time>
      </trkpt>
      <trkpt lat="44.17186" lon="5.91867">
        <ele>477</ele>
        <time>2019-06-04T09:47:38Z</time>
      </trkpt>
      <trkpt lat="44.17191" lon="5.91873">
        <ele>477</ele>
        <time>2019-06-04T09:47:39Z</time>
      </trkpt>
      <trkpt lat="44.17195" lon="5.91879">
        <ele>477</ele>
        <time>2019-06-04T09:47:40Z</time>
      </trkpt>
      <trkpt lat="44.17198" lon="5.91886">
        <ele>477</ele>
        <time>2019-06-04T09:47:41Z</time>
      </trkpt>
      <trkpt lat="44.172" lon="5.91892">
        <ele>477</ele>
        <time>2019-06-04T09:47:42Z</time>
      </trkpt>
      <trkpt lat="44.17201" lon="5.91898">
        <ele>477</ele>
        <time>2019-06-04T09:47:43Z</time>
      </trkpt>
      <trkpt lat="44.17202" lon="5.91904">
        <ele>477</ele>
        <time>2019-06-04T09:47:44Z</time>
      </trkpt>
      <trkpt lat="44.17202" lon="5.9191">
        <ele>477</ele>
        <time>2019-06-04T09:47:45Z</time>
      </trkpt>
      <trkpt lat="44.17202" lon="5.91916">
        <ele>477</ele>
        <time>2019-06-04T09:47:46Z</time>
      </trkpt>
      <trkpt lat="44.17202" lon="5.91922">
        <ele>477</ele>
        <time>2019-06-04T09:47:47Z</time>
      </trkpt>
      <trkpt lat="44.17202" lon="5.91928">
        <ele>477</ele>
        <time>2019-06-04T09:47:48Z</time>
      </trkpt>
      <trkpt lat="44.17202" lon="5.91933">
        <ele>477</ele>
        <time>2019-06-04T09:47:49Z</time>
      </trkpt>
      <trkpt lat="44.17203" lon="5.91939">
        <ele>477</ele>
        <time>2019-06-04T09:47:50Z</time>
      </trkpt>
      <trkpt lat="44.17204" lon="5.91945">
        <ele>477</ele>
        <time>2019-06-04T09:47:51Z</time>
      </trkpt>
      <trkpt lat="44.17206" lon="5.9195">
        <ele>477</ele>
        <time>2019-06-04T09:47:52Z</time>
      </trkpt>
      <trkpt lat="44.17208" lon="5.91956">
        <ele>477</ele>
        <time>2019-06-04T09:47:53Z</time>
      </trkpt>
      <trkpt lat="44.1721" lon="5.91961">
        <ele>477</ele>
        <time>2019-06-04T09:47:54Z</time>
      </trkpt>
      <trkpt lat="44.17211" lon="5.91966">
        <ele>477</ele>
        <time>2019-06-04T09:47:55Z</time>
      </trkpt>
      <trkpt lat="44.17213" lon="5.91971">
        <ele>477</ele>
        <time>2019-06-04T09:47:56Z</time>
      </trkpt>
      <trkpt lat="44.17215" lon="5.91976">
        <ele>478</ele>
        <time>2019-06-04T09:47:57Z</time>
      </trkpt>
      <trkpt lat="44.17217" lon="5.91981">
        <ele>478</ele>
        <time>2019-06-04T09:47:58Z</time>
      </trkpt>
      <trkpt lat="44.17219" lon="5.91986">
        <ele>478</ele>
        <time>2019-06-04T09:47:59Z</time>
      </trkpt>
      <trkpt lat="44.17221" lon="5.91991">
        <ele>479</ele>
        <time>2019-06-04T09:48:00Z</time>
      </trkpt>
      <trkpt lat="44.17223" lon="5.91995">
        <ele>479</ele>
        <time>2019-06-04T09:48:01Z</time>
      </trkpt>
      <trkpt lat="44.17225" lon="5.92">
        <ele>479</ele>
        <time>2019-06-04T09:48:02Z</time>
      </trkpt>
      <trkpt lat="44.17227" lon="5.92004">
        <ele>480</ele>
        <time>2019-06-04T09:48:03Z</time>
      </trkpt>
      <trkpt lat="44.17229" lon="5.92009">
        <ele>480</ele>
        <time>2019-06-04T09:48:04Z</time>
      </trkpt>
      <trkpt lat="44.17231" lon="5.92014">
        <ele>480</ele>
        <time>2019-06-04T09:48:05Z</time>
      </trkpt>
      <trkpt lat="44.17233" lon="5.92019">
        <ele>480</ele>
        <time>2019-06-04T09:48:06Z</time>
      </trkpt>
      <trkpt lat="44.17235" lon="5.92024">
        <ele>480</ele>
        <time>2019-06-04T09:48:07Z</time>
      </trkpt>
      <trkpt lat="44.17237" lon="5.92028">
        <ele>480</ele>
        <time>2019-06-04T09:48:08Z</time>
      </trkpt>
      <trkpt lat="44.17239" lon="5.92033">
        <ele>480</ele>
        <time>2019-06-04T09:48:09Z</time>
      </trkpt>
      <trkpt lat="44.17241" lon="5.92038">
        <ele>480</ele>
        <time>2019-06-04T09:48:10Z</time>
      </trkpt>
      <trkpt lat="44.17243" lon="5.92043">
        <ele>480</ele>
        <time>2019-06-04T09:48:11Z</time>
      </trkpt>
      <trkpt lat="44.17245" lon="5.92048">
        <ele>480</ele>
        <time>2019-06-04T09:48:12Z</time>
      </trkpt>
      <trkpt lat="44.17247" lon="5.92052">
        <ele>481</ele>
        <time>2019-06-04T09:48:13Z</time>
      </trkpt>
      <trkpt lat="44.17249" lon="5.92057">
        <ele>481</ele>
        <time>2019-06-04T09:48:14Z</time>
      </trkpt>
      <trkpt lat="44.17251" lon="5.92062">
        <ele>481</ele>
        <time>2019-06-04T09:48:15Z</time>
      </trkpt>
      <trkpt lat="44.17253" lon="5.92067">
        <ele>481</ele>
        <time>2019-06-04T09:48:16Z</time>
      </trkpt>
      <trkpt lat="44.17255" lon="5.92072">
        <ele>481</ele>
        <time>2019-06-04T09:48:17Z</time>
      </trkpt>
      <trkpt lat="44.17257" lon="5.92077">
        <ele>481</ele>
        <time>2019-06-04T09:48:18Z</time>
      </trkpt>
      <trkpt lat="44.17259" lon="5.92082">
        <ele>482</ele>
        <time>2019-06-04T09:48:19Z</time>
      </trkpt>
      <trkpt lat="44.17261" lon="5.92087">
        <ele>482</ele>
        <time>2019-06-04T09:48:20Z</time>
      </trkpt>
      <trkpt lat="44.17263" lon="5.92092">
        <ele>482</ele>
        <time>2019-06-04T09:48:21Z</time>
      </trkpt>
      <trkpt lat="44.17265" lon="5.92097">
        <ele>482</ele>
        <time>2019-06-04T09:48:22Z</time>
      </trkpt>
      <trkpt lat="44.17267" lon="5.92102">
        <ele>483</ele>
        <time>2019-06-04T09:48:23Z</time>
      </trkpt>
      <trkpt lat="44.17268" lon="5.92108">
        <ele>483</ele>
        <time>2019-06-04T09:48:24Z</time>
      </trkpt>
      <trkpt lat="44.17271" lon="5.92113">
        <ele>483</ele>
        <time>2019-06-04T09:48:25Z</time>
      </trkpt>
      <trkpt lat="44.17273" lon="5.92118">
        <ele>483</ele>
        <time>2019-06-04T09:48:26Z</time>
      </trkpt>
      <trkpt lat="44.17274" lon="5.92123">
        <ele>483</ele>
        <time>2019-06-04T09:48:27Z</time>
      </trkpt>
      <trkpt lat="44.17276" lon="5.92128">
        <ele>484</ele>
        <time>2019-06-04T09:48:28Z</time>
      </trkpt>
      <trkpt lat="44.17278" lon="5.92132">
        <ele>484</ele>
        <time>2019-06-04T09:48:29Z</time>
      </trkpt>
      <trkpt lat="44.17279" lon="5.92137">
        <ele>484</ele>
        <time>2019-06-04T09:48:30Z</time>
      </trkpt>
      <trkpt lat="44.17282" lon="5.92141">
        <ele>485</ele>
        <time>2019-06-04T09:48:31Z</time>
      </trkpt>
      <trkpt lat="44.17284" lon="5.92146">
        <ele>485</ele>
        <time>2019-06-04T09:48:32Z</time>
      </trkpt>
      <trkpt lat="44.17286" lon="5.9215">
        <ele>485</ele>
        <time>2019-06-04T09:48:33Z</time>
      </trkpt>
      <trkpt lat="44.17287" lon="5.92155">
        <ele>486</ele>
        <time>2019-06-04T09:48:34Z</time>
      </trkpt>
      <trkpt lat="44.17289" lon="5.9216">
        <ele>486</ele>
        <time>2019-06-04T09:48:35Z</time>
      </trkpt>
      <trkpt lat="44.17291" lon="5.92164">
        <ele>486</ele>
        <time>2019-06-04T09:48:36Z</time>
      </trkpt>
      <trkpt lat="44.17292" lon="5.92169">
        <ele>486</ele>
        <time>2019-06-04T09:48:37Z</time>
      </trkpt>
      <trkpt lat="44.17294" lon="5.92173">
        <ele>487</ele>
        <time>2019-06-04T09:48:38Z</time>
      </trkpt>
      <trkpt lat="44.17295" lon="5.92178">
        <ele>487</ele>
        <time>2019-06-04T09:48:39Z</time>
      </trkpt>
      <trkpt lat="44.17297" lon="5.92182">
        <ele>487</ele>
        <time>2019-06-04T09:48:40Z</time>
      </trkpt>
      <trkpt lat="44.17298" lon="5.92187">
        <ele>487</ele>
        <time>2019-06-04T09:48:41Z</time>
      </trkpt>
      <trkpt lat="44.17299" lon="5.92192">
        <ele>487</ele>
        <time>2019-06-04T09:48:42Z</time>
      </trkpt>
      <trkpt lat="44.173" lon="5.92196">
        <ele>487</ele>
        <time>2019-06-04T09:48:43Z</time>
      </trkpt>
      <trkpt lat="44.17301" lon="5.92201">
        <ele>487</ele>
        <time>2019-06-04T09:48:44Z</time>
      </trkpt>
      <trkpt lat="44.17302" lon="5.92205">
        <ele>487</ele>
        <time>2019-06-04T09:48:45Z</time>
      </trkpt>
      <trkpt lat="44.17303" lon="5.92209">
        <ele>487</ele>
        <time>2019-06-04T09:48:46Z</time>
      </trkpt>
      <trkpt lat="44.17304" lon="5.92214">
        <ele>487</ele>
        <time>2019-06-04T09:48:47Z</time>
      </trkpt>
      <trkpt lat="44.17305" lon="5.92218">
        <ele>487</ele>
        <time>2019-06-04T09:48:48Z</time>
      </trkpt>
      <trkpt lat="44.17306" lon="5.92223">
        <ele>487</ele>
        <time>2019-06-04T09:48:49Z</time>
      </trkpt>
      <trkpt lat="44.17307" lon="5.92228">
        <ele>487</ele>
        <time>2019-06-04T09:48:50Z</time>
      </trkpt>
      <trkpt lat="44.17309" lon="5.92233">
        <ele>487</ele>
        <time>2019-06-04T09:48:51Z</time>
      </trkpt>
      <trkpt lat="44.1731" lon="5.92237">
        <ele>487</ele>
        <time>2019-06-04T09:48:52Z</time>
      </trkpt>
      <trkpt lat="44.17312" lon="5.92241">
        <ele>487</ele>
        <time>2019-06-04T09:48:53Z</time>
      </trkpt>
      <trkpt lat="44.17313" lon="5.92246">
        <ele>487</ele>
        <time>2019-06-04T09:48:54Z</time>
      </trkpt>
      <trkpt lat="44.17315" lon="5.9225">
        <ele>487</ele>
        <time>2019-06-04T09:48:55Z</time>
      </trkpt>
      <trkpt lat="44.17316" lon="5.92255">
        <ele>487</ele>
        <time>2019-06-04T09:48:56Z</time>
      </trkpt>
      <trkpt lat="44.17318" lon="5.92259">
        <ele>487</ele>
        <time>2019-06-04T09:48:57Z</time>
      </trkpt>
      <trkpt lat="44.1732" lon="5.92264">
        <ele>487</ele>
        <time>2019-06-04T09:48:58Z</time>
      </trkpt>
      <trkpt lat="44.17322" lon="5.92268">
        <ele>487</ele>
        <time>2019-06-04T09:48:59Z</time>
      </trkpt>
      <trkpt lat="44.17323" lon="5.92273">
        <ele>487</ele>
        <time>2019-06-04T09:49:00Z</time>
      </trkpt>
      <trkpt lat="44.17325" lon="5.92277">
        <ele>488</ele>
        <time>2019-06-04T09:49:01Z</time>
      </trkpt>
      <trkpt lat="44.17327" lon="5.92282">
        <ele>488</ele>
        <time>2019-06-04T09:49:02Z</time>
      </trkpt>
      <trkpt lat="44.17329" lon="5.92286">
        <ele>488</ele>
        <time>2019-06-04T09:49:03Z</time>
      </trkpt>
      <trkpt lat="44.17331" lon="5.92291">
        <ele>488</ele>
        <time>2019-06-04T09:49:04Z</time>
      </trkpt>
      <trkpt lat="44.17333" lon="5.92295">
        <ele>488</ele>
        <time>2019-06-04T09:49:05Z</time>
      </trkpt>
      <trkpt lat="44.17334" lon="5.923">
        <ele>488</ele>
        <time>2019-06-04T09:49:06Z</time>
      </trkpt>
      <trkpt lat="44.17336" lon="5.92305">
        <ele>489</ele>
        <time>2019-06-04T09:49:07Z</time>
      </trkpt>
      <trkpt lat="44.17338" lon="5.9231">
        <ele>489</ele>
        <time>2019-06-04T09:49:08Z</time>
      </trkpt>
      <trkpt lat="44.1734" lon="5.92314">
        <ele>489</ele>
        <time>2019-06-04T09:49:09Z</time>
      </trkpt>
      <trkpt lat="44.17342" lon="5.92319">
        <ele>489</ele>
        <time>2019-06-04T09:49:10Z</time>
      </trkpt>
      <trkpt lat="44.17344" lon="5.92324">
        <ele>489</ele>
        <time>2019-06-04T09:49:11Z</time>
      </trkpt>
      <trkpt lat="44.17346" lon="5.92329">
        <ele>489</ele>
        <time>2019-06-04T09:49:12Z</time>
      </trkpt>
      <trkpt lat="44.17348" lon="5.92334">
        <ele>490</ele>
        <time>2019-06-04T09:49:13Z</time>
      </trkpt>
      <trkpt lat="44.1735" lon="5.9234">
        <ele>490</ele>
        <time>2019-06-04T09:49:14Z</time>
      </trkpt>
      <trkpt lat="44.17352" lon="5.92345">
        <ele>490</ele>
        <time>2019-06-04T09:49:15Z</time>
      </trkpt>
      <trkpt lat="44.17355" lon="5.9235">
        <ele>490</ele>
        <time>2019-06-04T09:49:16Z</time>
      </trkpt>
      <trkpt lat="44.17357" lon="5.92355">
        <ele>490</ele>
        <time>2019-06-04T09:49:17Z</time>
      </trkpt>
      <trkpt lat="44.1736" lon="5.9236">
        <ele>490</ele>
        <time>2019-06-04T09:49:18Z</time>
      </trkpt>
      <trkpt lat="44.17362" lon="5.92366">
        <ele>490</ele>
        <time>2019-06-04T09:49:19Z</time>
      </trkpt>
      <trkpt lat="44.17364" lon="5.92371">
        <ele>491</ele>
        <time>2019-06-04T09:49:20Z</time>
      </trkpt>
      <trkpt lat="44.17366" lon="5.92377">
        <ele>491</ele>
        <time>2019-06-04T09:49:21Z</time>
      </trkpt>
      <trkpt lat="44.17369" lon="5.92382">
        <ele>491</ele>
        <time>2019-06-04T09:49:22Z</time>
      </trkpt>
      <trkpt lat="44.17371" lon="5.92387">
        <ele>491</ele>
        <time>2019-06-04T09:49:23Z</time>
      </trkpt>
      <trkpt lat="44.17374" lon="5.92393">
        <ele>491</ele>
        <time>2019-06-04T09:49:24Z</time>
      </trkpt>
      <trkpt lat="44.17376" lon="5.92398">
        <ele>491</ele>
        <time>2019-06-04T09:49:25Z</time>
      </trkpt>
      <trkpt lat="44.17379" lon="5.92404">
        <ele>492</ele>
        <time>2019-06-04T09:49:26Z</time>
      </trkpt>
      <trkpt lat="44.17382" lon="5.9241">
        <ele>492</ele>
        <time>2019-06-04T09:49:27Z</time>
      </trkpt>
      <trkpt lat="44.17384" lon="5.92415">
        <ele>492</ele>
        <time>2019-06-04T09:49:28Z</time>
      </trkpt>
      <trkpt lat="44.17387" lon="5.92421">
        <ele>492</ele>
        <time>2019-06-04T09:49:29Z</time>
      </trkpt>
      <trkpt lat="44.1739" lon="5.92426">
        <ele>492</ele>
        <time>2019-06-04T09:49:30Z</time>
      </trkpt>
      <trkpt lat="44.17393" lon="5.92432">
        <ele>492</ele>
        <time>2019-06-04T09:49:31Z</time>
      </trkpt>
      <trkpt lat="44.17396" lon="5.92437">
        <ele>492</ele>
        <time>2019-06-04T09:49:32Z</time>
      </trkpt>
      <trkpt lat="44.17399" lon="5.92442">
        <ele>492</ele>
        <time>2019-06-04T09:49:33Z</time>
      </trkpt>
      <trkpt lat="44.17402" lon="5.92448">
        <ele>492</ele>
        <time>2019-06-04T09:49:34Z</time>
      </trkpt>
      <trkpt lat="44.17405" lon="5.92453">
        <ele>493</ele>
        <time>2019-06-04T09:49:35Z</time>
      </trkpt>
      <trkpt lat="44.17409" lon="5.92458">
        <ele>493</ele>
        <time>2019-06-04T09:49:36Z</time>
      </trkpt>
      <trkpt lat="44.17412" lon="5.92463">
        <ele>493</ele>
        <time>2019-06-04T09:49:37Z</time>
      </trkpt>
      <trkpt lat="44.17416" lon="5.92468">
        <ele>493</ele>
        <time>2019-06-04T09:49:38Z</time>
      </trkpt>
      <trkpt lat="44.1742" lon="5.92472">
        <ele>493</ele>
        <time>2019-06-04T09:49:39Z</time>
      </trkpt>
      <trkpt lat="44.17424" lon="5.92477">
        <ele>494</ele>
        <time>2019-06-04T09:49:40Z</time>
      </trkpt>
      <trkpt lat="44.17427" lon="5.92481">
        <ele>494</ele>
        <time>2019-06-04T09:49:41Z</time>
      </trkpt>
      <trkpt lat="44.17432" lon="5.92486">
        <ele>494</ele>
        <time>2019-06-04T09:49:42Z</time>
      </trkpt>
      <trkpt lat="44.17436" lon="5.9249">
        <ele>494</ele>
        <time>2019-06-04T09:49:43Z</time>
      </trkpt>
      <trkpt lat="44.1744" lon="5.92494">
        <ele>494</ele>
        <time>2019-06-04T09:49:44Z</time>
      </trkpt>
      <trkpt lat="44.17445" lon="5.92498">
        <ele>494</ele>
        <time>2019-06-04T09:49:45Z</time>
      </trkpt>
      <trkpt lat="44.17449" lon="5.92502">
        <ele>495</ele>
        <time>2019-06-04T09:49:46Z</time>
      </trkpt>
      <trkpt lat="44.17454" lon="5.92506">
        <ele>495</ele>
        <time>2019-06-04T09:49:47Z</time>
      </trkpt>
      <trkpt lat="44.17458" lon="5.92509">
        <ele>495</ele>
        <time>2019-06-04T09:49:48Z</time>
      </trkpt>
      <trkpt lat="44.17463" lon="5.92512">
        <ele>495</ele>
        <time>2019-06-04T09:49:49Z</time>
      </trkpt>
      <trkpt lat="44.17468" lon="5.92515">
        <ele>495</ele>
        <time>2019-06-04T09:49:50Z</time>
      </trkpt>
      <trkpt lat="44.17472" lon="5.92517">
        <ele>495</ele>
        <time>2019-06-04T09:49:51Z</time>
      </trkpt>
      <trkpt lat="44.17477" lon="5.9252">
        <ele>495</ele>
        <time>2019-06-04T09:49:52Z</time>
      </trkpt>
      <trkpt lat="44.17483" lon="5.92522">
        <ele>495</ele>
        <time>2019-06-04T09:49:53Z</time>
      </trkpt>
      <trkpt lat="44.17488" lon="5.92524">
        <ele>495</ele>
        <time>2019-06-04T09:49:54Z</time>
      </trkpt>
      <trkpt lat="44.17493" lon="5.92526">
        <ele>495</ele>
        <time>2019-06-04T09:49:55Z</time>
      </trkpt>
      <trkpt lat="44.17498" lon="5.92527">
        <ele>495</ele>
        <time>2019-06-04T09:49:56Z</time>
      </trkpt>
      <trkpt lat="44.17504" lon="5.92529">
        <ele>495</ele>
        <time>2019-06-04T09:49:57Z</time>
      </trkpt>
      <trkpt lat="44.17509" lon="5.92531">
        <ele>495</ele>
        <time>2019-06-04T09:49:58Z</time>
      </trkpt>
      <trkpt lat="44.17514" lon="5.92532">
        <ele>495</ele>
        <time>2019-06-04T09:49:59Z</time>
      </trkpt>
      <trkpt lat="44.1752" lon="5.92534">
        <ele>495</ele>
        <time>2019-06-04T09:50:00Z</time>
      </trkpt>
      <trkpt lat="44.17525" lon="5.92536">
        <ele>495</ele>
        <time>2019-06-04T09:50:01Z</time>
      </trkpt>
      <trkpt lat="44.1753" lon="5.92537">
        <ele>495</ele>
        <time>2019-06-04T09:50:02Z</time>
      </trkpt>
      <trkpt lat="44.17536" lon="5.92539">
        <ele>495</ele>
        <time>2019-06-04T09:50:03Z</time>
      </trkpt>
      <trkpt lat="44.17542" lon="5.9254">
        <ele>495</ele>
        <time>2019-06-04T09:50:04Z</time>
      </trkpt>
      <trkpt lat="44.17548" lon="5.92542">
        <ele>495</ele>
        <time>2019-06-04T09:50:05Z</time>
      </trkpt>
      <trkpt lat="44.17553" lon="5.92544">
        <ele>495</ele>
        <time>2019-06-04T09:50:06Z</time>
      </trkpt>
      <trkpt lat="44.17559" lon="5.92546">
        <ele>495</ele>
        <time>2019-06-04T09:50:07Z</time>
      </trkpt>
      <trkpt lat="44.17565" lon="5.92547">
        <ele>495</ele>
        <time>2019-06-04T09:50:08Z</time>
      </trkpt>
      <trkpt lat="44.17571" lon="5.92549">
        <ele>495</ele>
        <time>2019-06-04T09:50:09Z</time>
      </trkpt>
      <trkpt lat="44.17577" lon="5.9255">
        <ele>495</ele>
        <time>2019-06-04T09:50:10Z</time>
      </trkpt>
      <trkpt lat="44.17584" lon="5.92552">
        <ele>495</ele>
        <time>2019-06-04T09:50:11Z</time>
      </trkpt>
      <trkpt lat="44.1759" lon="5.92554">
        <ele>495</ele>
        <time>2019-06-04T09:50:12Z</time>
      </trkpt>
      <trkpt lat="44.17596" lon="5.92555">
        <ele>495</ele>
        <time>2019-06-04T09:50:13Z</time>
      </trkpt>
      <trkpt lat="44.17603" lon="5.92557">
        <ele>495</ele>
        <time>2019-06-04T09:50:14Z</time>
      </trkpt>
      <trkpt lat="44.17609" lon="5.92559">
        <ele>495</ele>
        <time>2019-06-04T09:50:15Z</time>
      </trkpt>
      <trkpt lat="44.17615" lon="5.9256">
        <ele>495</ele>
        <time>2019-06-04T09:50:16Z</time>
      </trkpt>
      <trkpt lat="44.17622" lon="5.92562">
        <ele>495</ele>
        <time>2019-06-04T09:50:17Z</time>
      </trkpt>
      <trkpt lat="44.17629" lon="5.92564">
        <ele>495</ele>
        <time>2019-06-04T09:50:18Z</time>
      </trkpt>
      <trkpt lat="44.17635" lon="5.92565">
        <ele>495</ele>
        <time>2019-06-04T09:50:19Z</time>
      </trkpt>
      <trkpt lat="44.17642" lon="5.92567">
        <ele>495</ele>
        <time>2019-06-04T09:50:20Z</time>
      </trkpt>
      <trkpt lat="44.17649" lon="5.92568">
        <ele>495</ele>
        <time>2019-06-04T09:50:21Z</time>
      </trkpt>
      <trkpt lat="44.17655" lon="5.92569">
        <ele>495</ele>
        <time>2019-06-04T09:50:22Z</time>
      </trkpt>
      <trkpt lat="44.17662" lon="5.92569">
        <ele>495</ele>
        <time>2019-06-04T09:50:23Z</time>
      </trkpt>
      <trkpt lat="44.17669" lon="5.92568">
        <ele>495</ele>
        <time>2019-06-04T09:50:24Z</time>
      </trkpt>
      <trkpt lat="44.17675" lon="5.92567">
        <ele>495</ele>
        <time>2019-06-04T09:50:25Z</time>
      </trkpt>
      <trkpt lat="44.17682" lon="5.92565">
        <ele>495</ele>
        <time>2019-06-04T09:50:26Z</time>
      </trkpt>
      <trkpt lat="44.17688" lon="5.92563">
        <ele>495</ele>
        <time>2019-06-04T09:50:27Z</time>
      </trkpt>
      <trkpt lat="44.17695" lon="5.92561">
        <ele>495</ele>
        <time>2019-06-04T09:50:28Z</time>
      </trkpt>
      <trkpt lat="44.17702" lon="5.92557">
        <ele>495</ele>
        <time>2019-06-04T09:50:29Z</time>
      </trkpt>
      <trkpt lat="44.17708" lon="5.92555">
        <ele>495</ele>
        <time>2019-06-04T09:50:30Z</time>
      </trkpt>
      <trkpt lat="44.17714" lon="5.92551">
        <ele>495</ele>
        <time>2019-06-04T09:50:31Z</time>
      </trkpt>
      <trkpt lat="44.17721" lon="5.92547">
        <ele>495</ele>
        <time>2019-06-04T09:50:32Z</time>
      </trkpt>
      <trkpt lat="44.17728" lon="5.92543">
        <ele>495</ele>
        <time>2019-06-04T09:50:33Z</time>
      </trkpt>
      <trkpt lat="44.17734" lon="5.9254">
        <ele>495</ele>
        <time>2019-06-04T09:50:34Z</time>
      </trkpt>
      <trkpt lat="44.1774" lon="5.92536">
        <ele>495</ele>
        <time>2019-06-04T09:50:35Z</time>
      </trkpt>
      <trkpt lat="44.17746" lon="5.92532">
        <ele>495</ele>
        <time>2019-06-04T09:50:36Z</time>
      </trkpt>
      <trkpt lat="44.17752" lon="5.92528">
        <ele>495</ele>
        <time>2019-06-04T09:50:37Z</time>
      </trkpt>
      <trkpt lat="44.17758" lon="5.92525">
        <ele>495</ele>
        <time>2019-06-04T09:50:38Z</time>
      </trkpt>
      <trkpt lat="44.17764" lon="5.92523">
        <ele>495</ele>
        <time>2019-06-04T09:50:39Z</time>
      </trkpt>
      <trkpt lat="44.1777" lon="5.92521">
        <ele>495</ele>
        <time>2019-06-04T09:50:40Z</time>
      </trkpt>
      <trkpt lat="44.17775" lon="5.92521">
        <ele>495</ele>
        <time>2019-06-04T09:50:41Z</time>
      </trkpt>
      <trkpt lat="44.17781" lon="5.92521">
        <ele>495</ele>
        <time>2019-06-04T09:50:42Z</time>
      </trkpt>
      <trkpt lat="44.17786" lon="5.92523">
        <ele>495</ele>
        <time>2019-06-04T09:50:43Z</time>
      </trkpt>
      <trkpt lat="44.17791" lon="5.92525">
        <ele>496</ele>
        <time>2019-06-04T09:50:44Z</time>
      </trkpt>
      <trkpt lat="44.17796" lon="5.92528">
        <ele>497</ele>
        <time>2019-06-04T09:50:45Z</time>
      </trkpt>
      <trkpt lat="44.17799" lon="5.92532">
        <ele>497</ele>
        <time>2019-06-04T09:50:46Z</time>
      </trkpt>
      <trkpt lat="44.17803" lon="5.92535">
        <ele>498</ele>
        <time>2019-06-04T09:50:47Z</time>
      </trkpt>
      <trkpt lat="44.17806" lon="5.92539">
        <ele>498</ele>
        <time>2019-06-04T09:50:48Z</time>
      </trkpt>
      <trkpt lat="44.17809" lon="5.92543">
        <ele>498</ele>
        <time>2019-06-04T09:50:49Z</time>
      </trkpt>
      <trkpt lat="44.17811" lon="5.92546">
        <ele>499</ele>
        <time>2019-06-04T09:50:50Z</time>
      </trkpt>
      <trkpt lat="44.17814" lon="5.9255">
        <ele>499</ele>
        <time>2019-06-04T09:50:51Z</time>
      </trkpt>
      <trkpt lat="44.17816" lon="5.92553">
        <ele>500</ele>
        <time>2019-06-04T09:50:52Z</time>
      </trkpt>
      <trkpt lat="44.17818" lon="5.92556">
        <ele>500</ele>
        <time>2019-06-04T09:50:53Z</time>
      </trkpt>
      <trkpt lat="44.1782" lon="5.9256">
        <ele>501</ele>
        <time>2019-06-04T09:50:54Z</time>
      </trkpt>
      <trkpt lat="44.17822" lon="5.92564">
        <ele>501</ele>
        <time>2019-06-04T09:50:55Z</time>
      </trkpt>
      <trkpt lat="44.17824" lon="5.92568">
        <ele>502</ele>
        <time>2019-06-04T09:50:56Z</time>
      </trkpt>
      <trkpt lat="44.17826" lon="5.92572">
        <ele>502</ele>
        <time>2019-06-04T09:50:57Z</time>
      </trkpt>
      <trkpt lat="44.17827" lon="5.92576">
        <ele>503</ele>
        <time>2019-06-04T09:50:58Z</time>
      </trkpt>
      <trkpt lat="44.17828" lon="5.9258">
        <ele>503</ele>
        <time>2019-06-04T09:50:59Z</time>
      </trkpt>
      <trkpt lat="44.1783" lon="5.92584">
        <ele>504</ele>
        <time>2019-06-04T09:51:00Z</time>
      </trkpt>
      <trkpt lat="44.17831" lon="5.92588">
        <ele>504</ele>
        <time>2019-06-04T09:51:01Z</time>
      </trkpt>
      <trkpt lat="44.17832" lon="5.92592">
        <ele>504</ele>
        <time>2019-06-04T09:51:02Z</time>
      </trkpt>
      <trkpt lat="44.17832" lon="5.92596">
        <ele>505</ele>
        <time>2019-06-04T09:51:03Z</time>
      </trkpt>
      <trkpt lat="44.17834" lon="5.926">
        <ele>505</ele>
        <time>2019-06-04T09:51:04Z</time>
      </trkpt>
      <trkpt lat="44.17835" lon="5.92604">
        <ele>505</ele>
        <time>2019-06-04T09:51:05Z</time>
      </trkpt>
      <trkpt lat="44.17836" lon="5.92608">
        <ele>506</ele>
        <time>2019-06-04T09:51:06Z</time>
      </trkpt>
      <trkpt lat="44.17837" lon="5.92613">
        <ele>506</ele>
        <time>2019-06-04T09:51:07Z</time>
      </trkpt>
      <trkpt lat="44.17838" lon="5.92617">
        <ele>506</ele>
        <time>2019-06-04T09:51:08Z</time>
      </trkpt>
      <trkpt lat="44.17839" lon="5.9262">
        <ele>507</ele>
        <time>2019-06-04T09:51:09Z</time>
      </trkpt>
      <trkpt lat="44.1784" lon="5.92624">
        <ele>507</ele>
        <time>2019-06-04T09:51:10Z</time>
      </trkpt>
      <trkpt lat="44.17841" lon="5.92628">
        <ele>507</ele>
        <time>2019-06-04T09:51:11Z</time>
      </trkpt>
      <trkpt lat="44.17842" lon="5.92632">
        <ele>508</ele>
        <time>2019-06-04T09:51:12Z</time>
      </trkpt>
      <trkpt lat="44.17843" lon="5.92635">
        <ele>508</ele>
        <time>2019-06-04T09:51:13Z</time>
      </trkpt>
      <trkpt lat="44.17844" lon="5.92639">
        <ele>509</ele>
        <time>2019-06-04T09:51:14Z</time>
      </trkpt>
      <trkpt lat="44.17844" lon="5.92643">
        <ele>509</ele>
        <time>2019-06-04T09:51:15Z</time>
      </trkpt>
      <trkpt lat="44.17845" lon="5.92647">
        <ele>509</ele>
        <time>2019-06-04T09:51:16Z</time>
      </trkpt>
      <trkpt lat="44.17846" lon="5.9265">
        <ele>510</ele>
        <time>2019-06-04T09:51:17Z</time>
      </trkpt>
      <trkpt lat="44.17846" lon="5.92654">
        <ele>510</ele>
        <time>2019-06-04T09:51:18Z</time>
      </trkpt>
      <trkpt lat="44.17847" lon="5.92657">
        <ele>510</ele>
        <time>2019-06-04T09:51:19Z</time>
      </trkpt>
      <trkpt lat="44.17848" lon="5.92661">
        <ele>510</ele>
        <time>2019-06-04T09:51:20Z</time>
      </trkpt>
      <trkpt lat="44.17849" lon="5.92664">
        <ele>511</ele>
        <time>2019-06-04T09:51:21Z</time>
      </trkpt>
      <trkpt lat="44.17849" lon="5.92668">
        <ele>511</ele>
        <time>2019-06-04T09:51:22Z</time>
      </trkpt>
      <trkpt lat="44.1785" lon="5.92672">
        <ele>511</ele>
        <time>2019-06-04T09:51:23Z</time>
      </trkpt>
      <trkpt lat="44.17851" lon="5.92675">
        <ele>512</ele>
        <time>2019-06-04T09:51:24Z</time>
      </trkpt>
      <trkpt lat="44.17852" lon="5.92678">
        <ele>512</ele>
        <time>2019-06-04T09:51:25Z</time>
      </trkpt>
      <trkpt lat="44.17852" lon="5.92682">
        <ele>512</ele>
        <time>2019-06-04T09:51:26Z</time>
      </trkpt>
      <trkpt lat="44.17853" lon="5.92685">
        <ele>512</ele>
        <time>2019-06-04T09:51:27Z</time>
      </trkpt>
      <trkpt lat="44.17853" lon="5.92689">
        <ele>513</ele>
        <time>2019-06-04T09:51:28Z</time>
      </trkpt>
      <trkpt lat="44.17853" lon="5.92692">
        <ele>513</ele>
        <time>2019-06-04T09:51:29Z</time>
      </trkpt>
      <trkpt lat="44.17854" lon="5.92696">
        <ele>513</ele>
        <time>2019-06-04T09:51:30Z</time>
      </trkpt>
      <trkpt lat="44.17855" lon="5.92699">
        <ele>513</ele>
        <time>2019-06-04T09:51:31Z</time>
      </trkpt>
      <trkpt lat="44.17855" lon="5.92702">
        <ele>514</ele>
        <time>2019-06-04T09:51:32Z</time>
      </trkpt>
      <trkpt lat="44.17856" lon="5.92706">
        <ele>514</ele>
        <time>2019-06-04T09:51:33Z</time>
      </trkpt>
      <trkpt lat="44.17856" lon="5.9271">
        <ele>514</ele>
        <time>2019-06-04T09:51:34Z</time>
      </trkpt>
      <trkpt lat="44.17856" lon="5.92714">
        <ele>514</ele>
        <time>2019-06-04T09:51:35Z</time>
      </trkpt>
      <trkpt lat="44.17857" lon="5.92717">
        <ele>514</ele>
        <time>2019-06-04T09:51:36Z</time>
      </trkpt>
      <trkpt lat="44.17857" lon="5.92721">
        <ele>514</ele>
        <time>2019-06-04T09:51:37Z</time>
      </trkpt>
      <trkpt lat="44.17858" lon="5.92725">
        <ele>514</ele>
        <time>2019-06-04T09:51:38Z</time>
      </trkpt>
      <trkpt lat="44.17858" lon="5.92729">
        <ele>514</ele>
        <time>2019-06-04T09:51:39Z</time>
      </trkpt>
      <trkpt lat="44.17859" lon="5.92733">
        <ele>515</ele>
        <time>2019-06-04T09:51:40Z</time>
      </trkpt>
      <trkpt lat="44.17859" lon="5.92736">
        <ele>515</ele>
        <time>2019-06-04T09:51:41Z</time>
      </trkpt>
      <trkpt lat="44.17859" lon="5.9274">
        <ele>515</ele>
        <time>2019-06-04T09:51:42Z</time>
      </trkpt>
      <trkpt lat="44.17858" lon="5.92744">
        <ele>515</ele>
        <time>2019-06-04T09:51:43Z</time>
      </trkpt>
      <trkpt lat="44.17858" lon="5.92748">
        <ele>516</ele>
        <time>2019-06-04T09:51:44Z</time>
      </trkpt>
      <trkpt lat="44.17858" lon="5.92753">
        <ele>516</ele>
        <time>2019-06-04T09:51:45Z</time>
      </trkpt>
      <trkpt lat="44.17858" lon="5.92757">
        <ele>516</ele>
        <time>2019-06-04T09:51:46Z</time>
      </trkpt>
      <trkpt lat="44.17857" lon="5.9276">
        <ele>516</ele>
        <time>2019-06-04T09:51:47Z</time>
      </trkpt>
      <trkpt lat="44.17857" lon="5.92764">
        <ele>516</ele>
        <time>2019-06-04T09:51:48Z</time>
      </trkpt>
      <trkpt lat="44.17855" lon="5.92768">
        <ele>516</ele>
        <time>2019-06-04T09:51:49Z</time>
      </trkpt>
      <trkpt lat="44.17855" lon="5.92772">
        <ele>516</ele>
        <time>2019-06-04T09:51:50Z</time>
      </trkpt>
      <trkpt lat="44.17854" lon="5.92776">
        <ele>516</ele>
        <time>2019-06-04T09:51:51Z</time>
      </trkpt>
      <trkpt lat="44.17853" lon="5.9278">
        <ele>516</ele>
        <time>2019-06-04T09:51:52Z</time>
      </trkpt>
      <trkpt lat="44.17852" lon="5.92784">
        <ele>516</ele>
        <time>2019-06-04T09:51:53Z</time>
      </trkpt>
      <trkpt lat="44.17851" lon="5.92788">
        <ele>516</ele>
        <time>2019-06-04T09:51:54Z</time>
      </trkpt>
      <trkpt lat="44.1785" lon="5.92793">
        <ele>516</ele>
        <time>2019-06-04T09:51:55Z</time>
      </trkpt>
      <trkpt lat="44.17849" lon="5.92797">
        <ele>516</ele>
        <time>2019-06-04T09:51:56Z</time>
      </trkpt>
      <trkpt lat="44.17847" lon="5.92801">
        <ele>516</ele>
        <time>2019-06-04T09:51:57Z</time>
      </trkpt>
      <trkpt lat="44.17847" lon="5.92805">
        <ele>516</ele>
        <time>2019-06-04T09:51:58Z</time>
      </trkpt>
      <trkpt lat="44.17846" lon="5.92809">
        <ele>516</ele>
        <time>2019-06-04T09:51:59Z</time>
      </trkpt>
      <trkpt lat="44.17845" lon="5.92814">
        <ele>516</ele>
        <time>2019-06-04T09:52:00Z</time>
      </trkpt>
      <trkpt lat="44.17845" lon="5.92818">
        <ele>516</ele>
        <time>2019-06-04T09:52:01Z</time>
      </trkpt>
      <trkpt lat="44.17844" lon="5.92822">
        <ele>516</ele>
        <time>2019-06-04T09:52:02Z</time>
      </trkpt>
      <trkpt lat="44.17844" lon="5.92826">
        <ele>517</ele>
        <time>2019-06-04T09:52:03Z</time>
      </trkpt>
      <trkpt lat="44.17843" lon="5.92831">
        <ele>517</ele>
        <time>2019-06-04T09:52:04Z</time>
      </trkpt>
      <trkpt lat="44.17843" lon="5.92835">
        <ele>517</ele>
        <time>2019-06-04T09:52:05Z</time>
      </trkpt>
      <trkpt lat="44.17843" lon="5.92839">
        <ele>517</ele>
        <time>2019-06-04T09:52:06Z</time>
      </trkpt>
      <trkpt lat="44.17843" lon="5.92843">
        <ele>517</ele>
        <time>2019-06-04T09:52:07Z</time>
      </trkpt>
      <trkpt lat="44.17843" lon="5.92846">
        <ele>517</ele>
        <time>2019-06-04T09:52:08Z</time>
      </trkpt>
      <trkpt lat="44.17843" lon="5.9285">
        <ele>517</ele>
        <time>2019-06-04T09:52:09Z</time>
      </trkpt>
      <trkpt lat="44.17842" lon="5.92854">
        <ele>517</ele>
        <time>2019-06-04T09:52:10Z</time>
      </trkpt>
      <trkpt lat="44.17842" lon="5.92858">
        <ele>518</ele>
        <time>2019-06-04T09:52:11Z</time>
      </trkpt>
      <trkpt lat="44.17842" lon="5.92862">
        <ele>518</ele>
        <time>2019-06-04T09:52:12Z</time>
      </trkpt>
      <trkpt lat="44.17842" lon="5.92866">
        <ele>518</ele>
        <time>2019-06-04T09:52:13Z</time>
      </trkpt>
      <trkpt lat="44.17842" lon="5.9287">
        <ele>518</ele>
        <time>2019-06-04T09:52:14Z</time>
      </trkpt>
      <trkpt lat="44.17842" lon="5.92874">
        <ele>518</ele>
        <time>2019-06-04T09:52:15Z</time>
      </trkpt>
      <trkpt lat="44.17842" lon="5.92878">
        <ele>518</ele>
        <time>2019-06-04T09:52:16Z</time>
      </trkpt>
      <trkpt lat="44.17843" lon="5.92882">
        <ele>518</ele>
        <time>2019-06-04T09:52:17Z</time>
      </trkpt>
      <trkpt lat="44.17843" lon="5.92886">
        <ele>519</ele>
        <time>2019-06-04T09:52:18Z</time>
      </trkpt>
      <trkpt lat="44.17843" lon="5.92891">
        <ele>519</ele>
        <time>2019-06-04T09:52:19Z</time>
      </trkpt>
      <trkpt lat="44.17843" lon="5.92895">
        <ele>519</ele>
        <time>2019-06-04T09:52:20Z</time>
      </trkpt>
      <trkpt lat="44.17843" lon="5.92899">
        <ele>520</ele>
        <time>2019-06-04T09:52:21Z</time>
      </trkpt>
      <trkpt lat="44.17843" lon="5.92902">
        <ele>520</ele>
        <time>2019-06-04T09:52:22Z</time>
      </trkpt>
      <trkpt lat="44.17844" lon="5.92906">
        <ele>521</ele>
        <time>2019-06-04T09:52:23Z</time>
      </trkpt>
      <trkpt lat="44.17844" lon="5.9291">
        <ele>521</ele>
        <time>2019-06-04T09:52:24Z</time>
      </trkpt>
      <trkpt lat="44.17844" lon="5.92913">
        <ele>521</ele>
        <time>2019-06-04T09:52:25Z</time>
      </trkpt>
      <trkpt lat="44.17844" lon="5.92917">
        <ele>522</ele>
        <time>2019-06-04T09:52:26Z</time>
      </trkpt>
      <trkpt lat="44.17844" lon="5.9292">
        <ele>522</ele>
        <time>2019-06-04T09:52:27Z</time>
      </trkpt>
      <trkpt lat="44.17844" lon="5.92924">
        <ele>522</ele>
        <time>2019-06-04T09:52:28Z</time>
      </trkpt>
      <trkpt lat="44.17844" lon="5.92927">
        <ele>523</ele>
        <time>2019-06-04T09:52:29Z</time>
      </trkpt>
      <trkpt lat="44.17845" lon="5.92931">
        <ele>523</ele>
        <time>2019-06-04T09:52:30Z</time>
      </trkpt>
      <trkpt lat="44.17845" lon="5.92934">
        <ele>524</ele>
        <time>2019-06-04T09:52:31Z</time>
      </trkpt>
      <trkpt lat="44.17845" lon="5.92938">
        <ele>524</ele>
        <time>2019-06-04T09:52:32Z</time>
      </trkpt>
      <trkpt lat="44.17846" lon="5.92942">
        <ele>525</ele>
        <time>2019-06-04T09:52:33Z</time>
      </trkpt>
      <trkpt lat="44.17847" lon="5.92946">
        <ele>525</ele>
        <time>2019-06-04T09:52:34Z</time>
      </trkpt>
      <trkpt lat="44.17849" lon="5.92949">
        <ele>525</ele>
        <time>2019-06-04T09:52:35Z</time>
      </trkpt>
      <trkpt lat="44.1785" lon="5.92953">
        <ele>525</ele>
        <time>2019-06-04T09:52:36Z</time>
      </trkpt>
      <trkpt lat="44.17852" lon="5.92956">
        <ele>525</ele>
        <time>2019-06-04T09:52:37Z</time>
      </trkpt>
      <trkpt lat="44.17853" lon="5.9296">
        <ele>525</ele>
        <time>2019-06-04T09:52:38Z</time>
      </trkpt>
      <trkpt lat="44.17855" lon="5.92964">
        <ele>525</ele>
        <time>2019-06-04T09:52:39Z</time>
      </trkpt>
      <trkpt lat="44.17856" lon="5.92968">
        <ele>525</ele>
        <time>2019-06-04T09:52:40Z</time>
      </trkpt>
      <trkpt lat="44.17857" lon="5.92972">
        <ele>525</ele>
        <time>2019-06-04T09:52:41Z</time>
      </trkpt>
      <trkpt lat="44.17858" lon="5.92976">
        <ele>525</ele>
        <time>2019-06-04T09:52:42Z</time>
      </trkpt>
      <trkpt lat="44.17859" lon="5.9298">
        <ele>525</ele>
        <time>2019-06-04T09:52:43Z</time>
      </trkpt>
      <trkpt lat="44.1786" lon="5.92985">
        <ele>525</ele>
        <time>2019-06-04T09:52:44Z</time>
      </trkpt>
      <trkpt lat="44.1786" lon="5.92989">
        <ele>525</ele>
        <time>2019-06-04T09:52:45Z</time>
      </trkpt>
      <trkpt lat="44.17861" lon="5.92994">
        <ele>525</ele>
        <time>2019-06-04T09:52:46Z</time>
      </trkpt>
      <trkpt lat="44.17862" lon="5.92998">
        <ele>525</ele>
        <time>2019-06-04T09:52:47Z</time>
      </trkpt>
      <trkpt lat="44.17862" lon="5.93002">
        <ele>525</ele>
        <time>2019-06-04T09:52:48Z</time>
      </trkpt>
      <trkpt lat="44.17862" lon="5.93006">
        <ele>525</ele>
        <time>2019-06-04T09:52:49Z</time>
      </trkpt>
      <trkpt lat="44.17862" lon="5.93011">
        <ele>525</ele>
        <time>2019-06-04T09:52:50Z</time>
      </trkpt>
      <trkpt lat="44.17863" lon="5.93015">
        <ele>525</ele>
        <time>2019-06-04T09:52:51Z</time>
      </trkpt>
      <trkpt lat="44.17863" lon="5.93019">
        <ele>526</ele>
        <time>2019-06-04T09:52:52Z</time>
      </trkpt>
      <trkpt lat="44.17862" lon="5.93023">
        <ele>526</ele>
        <time>2019-06-04T09:52:53Z</time>
      </trkpt>
      <trkpt lat="44.17862" lon="5.93028">
        <ele>526</ele>
        <time>2019-06-04T09:52:54Z</time>
      </trkpt>
      <trkpt lat="44.17863" lon="5.93032">
        <ele>526</ele>
        <time>2019-06-04T09:52:55Z</time>
      </trkpt>
      <trkpt lat="44.17863" lon="5.93037">
        <ele>527</ele>
        <time>2019-06-04T09:52:56Z</time>
      </trkpt>
      <trkpt lat="44.17864" lon="5.93041">
        <ele>527</ele>
        <time>2019-06-04T09:52:57Z</time>
      </trkpt>
      <trkpt lat="44.17864" lon="5.93046">
        <ele>527</ele>
        <time>2019-06-04T09:52:58Z</time>
      </trkpt>
      <trkpt lat="44.17865" lon="5.93051">
        <ele>527</ele>
        <time>2019-06-04T09:52:59Z</time>
      </trkpt>
      <trkpt lat="44.17865" lon="5.93056">
        <ele>527</ele>
        <time>2019-06-04T09:53:00Z</time>
      </trkpt>
      <trkpt lat="44.17866" lon="5.9306">
        <ele>527</ele>
        <time>2019-06-04T09:53:01Z</time>
      </trkpt>
      <trkpt lat="44.17867" lon="5.93065">
        <ele>527</ele>
        <time>2019-06-04T09:53:02Z</time>
      </trkpt>
      <trkpt lat="44.17868" lon="5.9307">
        <ele>528</ele>
        <time>2019-06-04T09:53:03Z</time>
      </trkpt>
      <trkpt lat="44.17869" lon="5.93074">
        <ele>528</ele>
        <time>2019-06-04T09:53:04Z</time>
      </trkpt>
      <trkpt lat="44.1787" lon="5.93078">
        <ele>528</ele>
        <time>2019-06-04T09:53:05Z</time>
      </trkpt>
      <trkpt lat="44.17871" lon="5.93083">
        <ele>528</ele>
        <time>2019-06-04T09:53:06Z</time>
      </trkpt>
      <trkpt lat="44.17873" lon="5.93087">
        <ele>529</ele>
        <time>2019-06-04T09:53:07Z</time>
      </trkpt>
      <trkpt lat="44.17874" lon="5.93091">
        <ele>529</ele>
        <time>2019-06-04T09:53:08Z</time>
      </trkpt>
      <trkpt lat="44.17876" lon="5.93095">
        <ele>529</ele>
        <time>2019-06-04T09:53:09Z</time>
      </trkpt>
      <trkpt lat="44.17877" lon="5.93098">
        <ele>529</ele>
        <time>2019-06-04T09:53:10Z</time>
      </trkpt>
      <trkpt lat="44.17879" lon="5.93102">
        <ele>530</ele>
        <time>2019-06-04T09:53:11Z</time>
      </trkpt>
      <trkpt lat="44.17881" lon="5.93105">
        <ele>530</ele>
        <time>2019-06-04T09:53:12Z</time>
      </trkpt>
      <trkpt lat="44.17883" lon="5.93108">
        <ele>530</ele>
        <time>2019-06-04T09:53:13Z</time>
      </trkpt>
      <trkpt lat="44.17884" lon="5.93111">
        <ele>530</ele>
        <time>2019-06-04T09:53:14Z</time>
      </trkpt>
      <trkpt lat="44.17887" lon="5.93114">
        <ele>530</ele>
        <time>2019-06-04T09:53:15Z</time>
      </trkpt>
      <trkpt lat="44.17889" lon="5.93116">
        <ele>530</ele>
        <time>2019-06-04T09:53:16Z</time>
      </trkpt>
      <trkpt lat="44.17891" lon="5.93119">
        <ele>530</ele>
        <time>2019-06-04T09:53:17Z</time>
      </trkpt>
      <trkpt lat="44.17894" lon="5.93121">
        <ele>530</ele>
        <time>2019-06-04T09:53:18Z</time>
      </trkpt>
      <trkpt lat="44.17897" lon="5.93124">
        <ele>530</ele>
        <time>2019-06-04T09:53:19Z</time>
      </trkpt>
      <trkpt lat="44.17899" lon="5.93126">
        <ele>530</ele>
        <time>2019-06-04T09:53:20Z</time>
      </trkpt>
      <trkpt lat="44.17902" lon="5.93129">
        <ele>530</ele>
        <time>2019-06-04T09:53:21Z</time>
      </trkpt>
      <trkpt lat="44.17904" lon="5.93131">
        <ele>531</ele>
        <time>2019-06-04T09:53:22Z</time>
      </trkpt>
      <trkpt lat="44.17907" lon="5.93133">
        <ele>531</ele>
        <time>2019-06-04T09:53:23Z</time>
      </trkpt>
      <trkpt lat="44.17909" lon="5.93136">
        <ele>531</ele>
        <time>2019-06-04T09:53:24Z</time>
      </trkpt>
      <trkpt lat="44.17912" lon="5.93139">
        <ele>532</ele>
        <time>2019-06-04T09:53:25Z</time>
      </trkpt>
      <trkpt lat="44.17915" lon="5.93141">
        <ele>532</ele>
        <time>2019-06-04T09:53:26Z</time>
      </trkpt>
      <trkpt lat="44.17917" lon="5.93143">
        <ele>532</ele>
        <time>2019-06-04T09:53:27Z</time>
      </trkpt>
      <trkpt lat="44.1792" lon="5.93145">
        <ele>532</ele>
        <time>2019-06-04T09:53:28Z</time>
      </trkpt>
      <trkpt lat="44.17923" lon="5.93147">
        <ele>533</ele>
        <time>2019-06-04T09:53:29Z</time>
      </trkpt>
      <trkpt lat="44.17925" lon="5.93149">
        <ele>533</ele>
        <time>2019-06-04T09:53:30Z</time>
      </trkpt>
      <trkpt lat="44.17928" lon="5.93151">
        <ele>533</ele>
        <time>2019-06-04T09:53:31Z</time>
      </trkpt>
      <trkpt lat="44.1793" lon="5.93153">
        <ele>534</ele>
        <time>2019-06-04T09:53:32Z</time>
      </trkpt>
      <trkpt lat="44.17933" lon="5.93155">
        <ele>534</ele>
        <time>2019-06-04T09:53:33Z</time>
      </trkpt>
      <trkpt lat="44.17935" lon="5.93157">
        <ele>534</ele>
        <time>2019-06-04T09:53:34Z</time>
      </trkpt>
      <trkpt lat="44.17938" lon="5.93159">
        <ele>534</ele>
        <time>2019-06-04T09:53:35Z</time>
      </trkpt>
      <trkpt lat="44.1794" lon="5.93161">
        <ele>535</ele>
        <time>2019-06-04T09:53:36Z</time>
      </trkpt>
      <trkpt lat="44.17943" lon="5.93163">
        <ele>535</ele>
        <time>2019-06-04T09:53:37Z</time>
      </trkpt>
      <trkpt lat="44.17946" lon="5.93164">
        <ele>535</ele>
        <time>2019-06-04T09:53:38Z</time>
      </trkpt>
      <trkpt lat="44.17948" lon="5.93166">
        <ele>536</ele>
        <time>2019-06-04T09:53:39Z</time>
      </trkpt>
      <trkpt lat="44.17951" lon="5.93168">
        <ele>536</ele>
        <time>2019-06-04T09:53:40Z</time>
      </trkpt>
      <trkpt lat="44.17953" lon="5.9317">
        <ele>536</ele>
        <time>2019-06-04T09:53:41Z</time>
      </trkpt>
      <trkpt lat="44.17956" lon="5.93172">
        <ele>537</ele>
        <time>2019-06-04T09:53:42Z</time>
      </trkpt>
      <trkpt lat="44.17958" lon="5.93173">
        <ele>537</ele>
        <time>2019-06-04T09:53:43Z</time>
      </trkpt>
      <trkpt lat="44.17961" lon="5.93175">
        <ele>537</ele>
        <time>2019-06-04T09:53:44Z</time>
      </trkpt>
      <trkpt lat="44.17964" lon="5.93177">
        <ele>537</ele>
        <time>2019-06-04T09:53:45Z</time>
      </trkpt>
      <trkpt lat="44.17967" lon="5.93179">
        <ele>538</ele>
        <time>2019-06-04T09:53:46Z</time>
      </trkpt>
      <trkpt lat="44.17971" lon="5.9318">
        <ele>538</ele>
        <time>2019-06-04T09:53:47Z</time>
      </trkpt>
      <trkpt lat="44.17974" lon="5.93182">
        <ele>538</ele>
        <time>2019-06-04T09:53:48Z</time>
      </trkpt>
      <trkpt lat="44.17978" lon="5.93183">
        <ele>539</ele>
        <time>2019-06-04T09:53:49Z</time>
      </trkpt>
      <trkpt lat="44.17981" lon="5.93184">
        <ele>539</ele>
        <time>2019-06-04T09:53:50Z</time>
      </trkpt>
      <trkpt lat="44.17984" lon="5.93186">
        <ele>539</ele>
        <time>2019-06-04T09:53:51Z</time>
      </trkpt>
      <trkpt lat="44.17988" lon="5.93187">
        <ele>539</ele>
        <time>2019-06-04T09:53:52Z</time>
      </trkpt>
      <trkpt lat="44.17991" lon="5.93188">
        <ele>540</ele>
        <time>2019-06-04T09:53:53Z</time>
      </trkpt>
      <trkpt lat="44.17995" lon="5.93188">
        <ele>540</ele>
        <time>2019-06-04T09:53:54Z</time>
      </trkpt>
      <trkpt lat="44.17998" lon="5.93188">
        <ele>540</ele>
        <time>2019-06-04T09:53:55Z</time>
      </trkpt>
      <trkpt lat="44.18001" lon="5.93188">
        <ele>540</ele>
        <time>2019-06-04T09:53:56Z</time>
      </trkpt>
      <trkpt lat="44.18005" lon="5.93188">
        <ele>540</ele>
        <time>2019-06-04T09:53:57Z</time>
      </trkpt>
      <trkpt lat="44.18008" lon="5.93188">
        <ele>541</ele>
        <time>2019-06-04T09:53:58Z</time>
      </trkpt>
      <trkpt lat="44.18011" lon="5.93188">
        <ele>541</ele>
        <time>2019-06-04T09:53:59Z</time>
      </trkpt>
      <trkpt lat="44.18014" lon="5.93188">
        <ele>541</ele>
        <time>2019-06-04T09:54:00Z</time>
      </trkpt>
      <trkpt lat="44.18017" lon="5.93188">
        <ele>541</ele>
        <time>2019-06-04T09:54:01Z</time>
      </trkpt>
      <trkpt lat="44.1802" lon="5.93188">
        <ele>542</ele>
        <time>2019-06-04T09:54:02Z</time>
      </trkpt>
      <trkpt lat="44.18023" lon="5.93189">
        <ele>542</ele>
        <time>2019-06-04T09:54:03Z</time>
      </trkpt>
      <trkpt lat="44.18025" lon="5.93189">
        <ele>542</ele>
        <time>2019-06-04T09:54:04Z</time>
      </trkpt>
      <trkpt lat="44.18028" lon="5.93189">
        <ele>542</ele>
        <time>2019-06-04T09:54:05Z</time>
      </trkpt>
      <trkpt lat="44.1803" lon="5.93189">
        <ele>543</ele>
        <time>2019-06-04T09:54:06Z</time>
      </trkpt>
      <trkpt lat="44.18032" lon="5.93189">
        <ele>543</ele>
        <time>2019-06-04T09:54:07Z</time>
      </trkpt>
      <trkpt lat="44.18035" lon="5.9319">
        <ele>543</ele>
        <time>2019-06-04T09:54:08Z</time>
      </trkpt>
      <trkpt lat="44.18038" lon="5.93191">
        <ele>543</ele>
        <time>2019-06-04T09:54:09Z</time>
      </trkpt>
      <trkpt lat="44.1804" lon="5.93192">
        <ele>544</ele>
        <time>2019-06-04T09:54:10Z</time>
      </trkpt>
      <trkpt lat="44.18043" lon="5.93192">
        <ele>544</ele>
        <time>2019-06-04T09:54:11Z</time>
      </trkpt>
      <trkpt lat="44.18045" lon="5.93192">
        <ele>544</ele>
        <time>2019-06-04T09:54:12Z</time>
      </trkpt>
      <trkpt lat="44.18048" lon="5.93192">
        <ele>545</ele>
        <time>2019-06-04T09:54:13Z</time>
      </trkpt>
      <trkpt lat="44.18051" lon="5.93193">
        <ele>545</ele>
        <time>2019-06-04T09:54:14Z</time>
      </trkpt>
      <trkpt lat="44.18053" lon="5.93193">
        <ele>545</ele>
        <time>2019-06-04T09:54:15Z</time>
      </trkpt>
      <trkpt lat="44.18055" lon="5.93193">
        <ele>546</ele>
        <time>2019-06-04T09:54:16Z</time>
      </trkpt>
      <trkpt lat="44.18058" lon="5.93193">
        <ele>547</ele>
        <time>2019-06-04T09:54:17Z</time>
      </trkpt>
      <trkpt lat="44.1806" lon="5.93193">
        <ele>547</ele>
        <time>2019-06-04T09:54:18Z</time>
      </trkpt>
      <trkpt lat="44.18062" lon="5.93194">
        <ele>548</ele>
        <time>2019-06-04T09:54:19Z</time>
      </trkpt>
      <trkpt lat="44.18065" lon="5.93194">
        <ele>548</ele>
        <time>2019-06-04T09:54:20Z</time>
      </trkpt>
      <trkpt lat="44.18067" lon="5.93194">
        <ele>548</ele>
        <time>2019-06-04T09:54:21Z</time>
      </trkpt>
      <trkpt lat="44.18069" lon="5.93195">
        <ele>549</ele>
        <time>2019-06-04T09:54:22Z</time>
      </trkpt>
      <trkpt lat="44.18071" lon="5.93195">
        <ele>549</ele>
        <time>2019-06-04T09:54:23Z</time>
      </trkpt>
      <trkpt lat="44.18073" lon="5.93196">
        <ele>549</ele>
        <time>2019-06-04T09:54:24Z</time>
      </trkpt>
      <trkpt lat="44.18075" lon="5.93196">
        <ele>550</ele>
        <time>2019-06-04T09:54:25Z</time>
      </trkpt>
      <trkpt lat="44.18077" lon="5.93197">
        <ele>550</ele>
        <time>2019-06-04T09:54:26Z</time>
      </trkpt>
      <trkpt lat="44.18079" lon="5.93197">
        <ele>550</ele>
        <time>2019-06-04T09:54:27Z</time>
      </trkpt>
      <trkpt lat="44.18081" lon="5.93198">
        <ele>550</ele>
        <time>2019-06-04T09:54:28Z</time>
      </trkpt>
      <trkpt lat="44.18082" lon="5.93198">
        <ele>550</ele>
        <time>2019-06-04T09:54:29Z</time>
      </trkpt>
      <trkpt lat="44.18084" lon="5.93198">
        <ele>550</ele>
        <time>2019-06-04T09:54:30Z</time>
      </trkpt>
      <trkpt lat="44.18086" lon="5.93198">
        <ele>550</ele>
        <time>2019-06-04T09:54:31Z</time>
      </trkpt>
      <trkpt lat="44.18088" lon="5.93199">
        <ele>551</ele>
        <time>2019-06-04T09:54:32Z</time>
      </trkpt>
      <trkpt lat="44.1809" lon="5.932">
        <ele>551</ele>
        <time>2019-06-04T09:54:33Z</time>
      </trkpt>
      <trkpt lat="44.18092" lon="5.932">
        <ele>551</ele>
        <time>2019-06-04T09:54:34Z</time>
      </trkpt>
      <trkpt lat="44.18093" lon="5.93201">
        <ele>551</ele>
        <time>2019-06-04T09:54:35Z</time>
      </trkpt>
      <trkpt lat="44.18095" lon="5.93202">
        <ele>551</ele>
        <time>2019-06-04T09:54:36Z</time>
      </trkpt>
      <trkpt lat="44.18098" lon="5.93202">
        <ele>551</ele>
        <time>2019-06-04T09:54:37Z</time>
      </trkpt>
      <trkpt lat="44.181" lon="5.93203">
        <ele>551</ele>
        <time>2019-06-04T09:54:38Z</time>
      </trkpt>
      <trkpt lat="44.18102" lon="5.93204">
        <ele>552</ele>
        <time>2019-06-04T09:54:39Z</time>
      </trkpt>
      <trkpt lat="44.18104" lon="5.93205">
        <ele>552</ele>
        <time>2019-06-04T09:54:40Z</time>
      </trkpt>
      <trkpt lat="44.18106" lon="5.93205">
        <ele>552</ele>
        <time>2019-06-04T09:54:41Z</time>
      </trkpt>
      <trkpt lat="44.18109" lon="5.93206">
        <ele>552</ele>
        <time>2019-06-04T09:54:42Z</time>
      </trkpt>
      <trkpt lat="44.18111" lon="5.93207">
        <ele>552</ele>
        <time>2019-06-04T09:54:43Z</time>
      </trkpt>
      <trkpt lat="44.18113" lon="5.93208">
        <ele>552</ele>
        <time>2019-06-04T09:54:44Z</time>
      </trkpt>
      <trkpt lat="44.18116" lon="5.93208">
        <ele>552</ele>
        <time>2019-06-04T09:54:45Z</time>
      </trkpt>
      <trkpt lat="44.18118" lon="5.93209">
        <ele>552</ele>
        <time>2019-06-04T09:54:46Z</time>
      </trkpt>
      <trkpt lat="44.1812" lon="5.9321">
        <ele>552</ele>
        <time>2019-06-04T09:54:47Z</time>
      </trkpt>
      <trkpt lat="44.18123" lon="5.9321">
        <ele>552</ele>
        <time>2019-06-04T09:54:48Z</time>
      </trkpt>
      <trkpt lat="44.18125" lon="5.93211">
        <ele>552</ele>
        <time>2019-06-04T09:54:49Z</time>
      </trkpt>
      <trkpt lat="44.18128" lon="5.93211">
        <ele>552</ele>
        <time>2019-06-04T09:54:50Z</time>
      </trkpt>
      <trkpt lat="44.1813" lon="5.93212">
        <ele>552</ele>
        <time>2019-06-04T09:54:51Z</time>
      </trkpt>
      <trkpt lat="44.18133" lon="5.93213">
        <ele>553</ele>
        <time>2019-06-04T09:54:52Z</time>
      </trkpt>
      <trkpt lat="44.18135" lon="5.93213">
        <ele>553</ele>
        <time>2019-06-04T09:54:53Z</time>
      </trkpt>
      <trkpt lat="44.18138" lon="5.93214">
        <ele>553</ele>
        <time>2019-06-04T09:54:54Z</time>
      </trkpt>
      <trkpt lat="44.18141" lon="5.93214">
        <ele>553</ele>
        <time>2019-06-04T09:54:55Z</time>
      </trkpt>
      <trkpt lat="44.18143" lon="5.93215">
        <ele>554</ele>
        <time>2019-06-04T09:54:56Z</time>
      </trkpt>
      <trkpt lat="44.18146" lon="5.93215">
        <ele>554</ele>
        <time>2019-06-04T09:54:57Z</time>
      </trkpt>
      <trkpt lat="44.18149" lon="5.93215">
        <ele>554</ele>
        <time>2019-06-04T09:54:58Z</time>
      </trkpt>
      <trkpt lat="44.18152" lon="5.93216">
        <ele>554</ele>
        <time>2019-06-04T09:54:59Z</time>
      </trkpt>
      <trkpt lat="44.18155" lon="5.93217">
        <ele>555</ele>
        <time>2019-06-04T09:55:00Z</time>
      </trkpt>
      <trkpt lat="44.18157" lon="5.93217">
        <ele>555</ele>
        <time>2019-06-04T09:55:01Z</time>
      </trkpt>
      <trkpt lat="44.1816" lon="5.93217">
        <ele>555</ele>
        <time>2019-06-04T09:55:02Z</time>
      </trkpt>
      <trkpt lat="44.18163" lon="5.93217">
        <ele>555</ele>
        <time>2019-06-04T09:55:03Z</time>
      </trkpt>
      <trkpt lat="44.18166" lon="5.93218">
        <ele>556</ele>
        <time>2019-06-04T09:55:04Z</time>
      </trkpt>
      <trkpt lat="44.18169" lon="5.93218">
        <ele>556</ele>
        <time>2019-06-04T09:55:05Z</time>
      </trkpt>
      <trkpt lat="44.18171" lon="5.93219">
        <ele>556</ele>
        <time>2019-06-04T09:55:06Z</time>
      </trkpt>
      <trkpt lat="44.18174" lon="5.9322">
        <ele>556</ele>
        <time>2019-06-04T09:55:07Z</time>
      </trkpt>
      <trkpt lat="44.18177" lon="5.9322">
        <ele>556</ele>
        <time>2019-06-04T09:55:08Z</time>
      </trkpt>
      <trkpt lat="44.18181" lon="5.9322">
        <ele>556</ele>
        <time>2019-06-04T09:55:09Z</time>
      </trkpt>
      <trkpt lat="44.18184" lon="5.93221">
        <ele>556</ele>
        <time>2019-06-04T09:55:10Z</time>
      </trkpt>
      <trkpt lat="44.18187" lon="5.93222">
        <ele>557</ele>
        <time>2019-06-04T09:55:11Z</time>
      </trkpt>
      <trkpt lat="44.18191" lon="5.93223">
        <ele>557</ele>
        <time>2019-06-04T09:55:12Z</time>
      </trkpt>
      <trkpt lat="44.18195" lon="5.93224">
        <ele>557</ele>
        <time>2019-06-04T09:55:13Z</time>
      </trkpt>
      <trkpt lat="44.18198" lon="5.93226">
        <ele>557</ele>
        <time>2019-06-04T09:55:14Z</time>
      </trkpt>
      <trkpt lat="44.18202" lon="5.93227">
        <ele>557</ele>
        <time>2019-06-04T09:55:15Z</time>
      </trkpt>
      <trkpt lat="44.18205" lon="5.93229">
        <ele>557</ele>
        <time>2019-06-04T09:55:16Z</time>
      </trkpt>
      <trkpt lat="44.18209" lon="5.93231">
        <ele>557</ele>
        <time>2019-06-04T09:55:17Z</time>
      </trkpt>
      <trkpt lat="44.18213" lon="5.93234">
        <ele>557</ele>
        <time>2019-06-04T09:55:18Z</time>
      </trkpt>
      <trkpt lat="44.18217" lon="5.93237">
        <ele>557</ele>
        <time>2019-06-04T09:55:19Z</time>
      </trkpt>
      <trkpt lat="44.1822" lon="5.93242">
        <ele>557</ele>
        <time>2019-06-04T09:55:20Z</time>
      </trkpt>
      <trkpt lat="44.18224" lon="5.93246">
        <ele>557</ele>
        <time>2019-06-04T09:55:21Z</time>
      </trkpt>
      <trkpt lat="44.18227" lon="5.93252">
        <ele>557</ele>
        <time>2019-06-04T09:55:22Z</time>
      </trkpt>
      <trkpt lat="44.18231" lon="5.93257">
        <ele>557</ele>
        <time>2019-06-04T09:55:23Z</time>
      </trkpt>
      <trkpt lat="44.18234" lon="5.93264">
        <ele>557</ele>
        <time>2019-06-04T09:55:24Z</time>
      </trkpt>
      <trkpt lat="44.18237" lon="5.93271">
        <ele>557</ele>
        <time>2019-06-04T09:55:25Z</time>
      </trkpt>
      <trkpt lat="44.1824" lon="5.93278">
        <ele>557</ele>
        <time>2019-06-04T09:55:26Z</time>
      </trkpt>
      <trkpt lat="44.18243" lon="5.93286">
        <ele>557</ele>
        <time>2019-06-04T09:55:27Z</time>
      </trkpt>
      <trkpt lat="44.18245" lon="5.93293">
        <ele>557</ele>
        <time>2019-06-04T09:55:28Z</time>
      </trkpt>
      <trkpt lat="44.18248" lon="5.93301">
        <ele>557</ele>
        <time>2019-06-04T09:55:29Z</time>
      </trkpt>
      <trkpt lat="44.1825" lon="5.93309">
        <ele>557</ele>
        <time>2019-06-04T09:55:30Z</time>
      </trkpt>
      <trkpt lat="44.18252" lon="5.93316">
        <ele>557</ele>
        <time>2019-06-04T09:55:31Z</time>
      </trkpt>
      <trkpt lat="44.18254" lon="5.93323">
        <ele>557</ele>
        <time>2019-06-04T09:55:32Z</time>
      </trkpt>
      <trkpt lat="44.18256" lon="5.9333">
        <ele>557</ele>
        <time>2019-06-04T09:55:33Z</time>
      </trkpt>
      <trkpt lat="44.18258" lon="5.93336">
        <ele>557</ele>
        <time>2019-06-04T09:55:34Z</time>
      </trkpt>
      <trkpt lat="44.1826" lon="5.93342">
        <ele>557</ele>
        <time>2019-06-04T09:55:35Z</time>
      </trkpt>
      <trkpt lat="44.18261" lon="5.93349">
        <ele>557</ele>
        <time>2019-06-04T09:55:36Z</time>
      </trkpt>
      <trkpt lat="44.18263" lon="5.93354">
        <ele>557</ele>
        <time>2019-06-04T09:55:37Z</time>
      </trkpt>
      <trkpt lat="44.18264" lon="5.9336">
        <ele>557</ele>
        <time>2019-06-04T09:55:38Z</time>
      </trkpt>
      <trkpt lat="44.18266" lon="5.93366">
        <ele>557</ele>
        <time>2019-06-04T09:55:39Z</time>
      </trkpt>
      <trkpt lat="44.18268" lon="5.93371">
        <ele>557</ele>
        <time>2019-06-04T09:55:40Z</time>
      </trkpt>
      <trkpt lat="44.18269" lon="5.93377">
        <ele>557</ele>
        <time>2019-06-04T09:55:41Z</time>
      </trkpt>
      <trkpt lat="44.18271" lon="5.93383">
        <ele>557</ele>
        <time>2019-06-04T09:55:42Z</time>
      </trkpt>
      <trkpt lat="44.18273" lon="5.93389">
        <ele>557</ele>
        <time>2019-06-04T09:55:43Z</time>
      </trkpt>
      <trkpt lat="44.18275" lon="5.93394">
        <ele>557</ele>
        <time>2019-06-04T09:55:44Z</time>
      </trkpt>
      <trkpt lat="44.18276" lon="5.934">
        <ele>557</ele>
        <time>2019-06-04T09:55:45Z</time>
      </trkpt>
      <trkpt lat="44.18278" lon="5.93406">
        <ele>557</ele>
        <time>2019-06-04T09:55:46Z</time>
      </trkpt>
      <trkpt lat="44.1828" lon="5.93412">
        <ele>557</ele>
        <time>2019-06-04T09:55:47Z</time>
      </trkpt>
      <trkpt lat="44.18282" lon="5.93418">
        <ele>557</ele>
        <time>2019-06-04T09:55:48Z</time>
      </trkpt>
      <trkpt lat="44.18284" lon="5.93425">
        <ele>557</ele>
        <time>2019-06-04T09:55:49Z</time>
      </trkpt>
      <trkpt lat="44.18286" lon="5.93431">
        <ele>557</ele>
        <time>2019-06-04T09:55:50Z</time>
      </trkpt>
      <trkpt lat="44.18288" lon="5.93438">
        <ele>557</ele>
        <time>2019-06-04T09:55:51Z</time>
      </trkpt>
      <trkpt lat="44.18291" lon="5.93444">
        <ele>557</ele>
        <time>2019-06-04T09:55:52Z</time>
      </trkpt>
      <trkpt lat="44.18293" lon="5.93451">
        <ele>557</ele>
        <time>2019-06-04T09:55:53Z</time>
      </trkpt>
      <trkpt lat="44.18296" lon="5.93459">
        <ele>557</ele>
        <time>2019-06-04T09:55:54Z</time>
      </trkpt>
      <trkpt lat="44.18299" lon="5.93466">
        <ele>557</ele>
        <time>2019-06-04T09:55:55Z</time>
      </trkpt>
      <trkpt lat="44.18302" lon="5.93473">
        <ele>557</ele>
        <time>2019-06-04T09:55:56Z</time>
      </trkpt>
      <trkpt lat="44.18305" lon="5.93481">
        <ele>557</ele>
        <time>2019-06-04T09:55:57Z</time>
      </trkpt>
      <trkpt lat="44.18309" lon="5.93489">
        <ele>557</ele>
        <time>2019-06-04T09:55:58Z</time>
      </trkpt>
      <trkpt lat="44.18312" lon="5.93497">
        <ele>557</ele>
        <time>2019-06-04T09:55:59Z</time>
      </trkpt>
      <trkpt lat="44.18315" lon="5.93504">
        <ele>557</ele>
        <time>2019-06-04T09:56:00Z</time>
      </trkpt>
      <trkpt lat="44.18319" lon="5.93512">
        <ele>557</ele>
        <time>2019-06-04T09:56:01Z</time>
      </trkpt>
      <trkpt lat="44.18322" lon="5.9352">
        <ele>557</ele>
        <time>2019-06-04T09:56:02Z</time>
      </trkpt>
      <trkpt lat="44.18326" lon="5.93528">
        <ele>557</ele>
        <time>2019-06-04T09:56:03Z</time>
      </trkpt>
      <trkpt lat="44.1833" lon="5.93536">
        <ele>557</ele>
        <time>2019-06-04T09:56:04Z</time>
      </trkpt>
      <trkpt lat="44.18335" lon="5.93543">
        <ele>557</ele>
        <time>2019-06-04T09:56:05Z</time>
      </trkpt>
      <trkpt lat="44.18339" lon="5.93551">
        <ele>557</ele>
        <time>2019-06-04T09:56:06Z</time>
      </trkpt>
      <trkpt lat="44.18344" lon="5.93559">
        <ele>557</ele>
        <time>2019-06-04T09:56:07Z</time>
      </trkpt>
      <trkpt lat="44.18348" lon="5.93567">
        <ele>557</ele>
        <time>2019-06-04T09:56:08Z</time>
      </trkpt>
      <trkpt lat="44.18353" lon="5.93575">
        <ele>557</ele>
        <time>2019-06-04T09:56:09Z</time>
      </trkpt>
      <trkpt lat="44.18358" lon="5.93583">
        <ele>557</ele>
        <time>2019-06-04T09:56:10Z</time>
      </trkpt>
      <trkpt lat="44.18364" lon="5.9359">
        <ele>557</ele>
        <time>2019-06-04T09:56:11Z</time>
      </trkpt>
      <trkpt lat="44.18369" lon="5.93598">
        <ele>557</ele>
        <time>2019-06-04T09:56:12Z</time>
      </trkpt>
      <trkpt lat="44.18374" lon="5.93606">
        <ele>557</ele>
        <time>2019-06-04T09:56:13Z</time>
      </trkpt>
      <trkpt lat="44.1838" lon="5.93613">
        <ele>557</ele>
        <time>2019-06-04T09:56:14Z</time>
      </trkpt>
      <trkpt lat="44.18384" lon="5.93622">
        <ele>557</ele>
        <time>2019-06-04T09:56:15Z</time>
      </trkpt>
      <trkpt lat="44.18389" lon="5.9363">
        <ele>557</ele>
        <time>2019-06-04T09:56:16Z</time>
      </trkpt>
      <trkpt lat="44.18394" lon="5.93638">
        <ele>557</ele>
        <time>2019-06-04T09:56:17Z</time>
      </trkpt>
      <trkpt lat="44.18399" lon="5.93646">
        <ele>557</ele>
        <time>2019-06-04T09:56:18Z</time>
      </trkpt>
      <trkpt lat="44.18404" lon="5.93655">
        <ele>557</ele>
        <time>2019-06-04T09:56:19Z</time>
      </trkpt>
      <trkpt lat="44.18409" lon="5.93664">
        <ele>557</ele>
        <time>2019-06-04T09:56:20Z</time>
      </trkpt>
      <trkpt lat="44.18415" lon="5.93672">
        <ele>557</ele>
        <time>2019-06-04T09:56:21Z</time>
      </trkpt>
      <trkpt lat="44.1842" lon="5.9368">
        <ele>557</ele>
        <time>2019-06-04T09:56:22Z</time>
      </trkpt>
      <trkpt lat="44.18425" lon="5.93688">
        <ele>557</ele>
        <time>2019-06-04T09:56:23Z</time>
      </trkpt>
      <trkpt lat="44.1843" lon="5.93697">
        <ele>557</ele>
        <time>2019-06-04T09:56:24Z</time>
      </trkpt>
      <trkpt lat="44.18436" lon="5.93706">
        <ele>557</ele>
        <time>2019-06-04T09:56:25Z</time>
      </trkpt>
      <trkpt lat="44.18441" lon="5.93714">
        <ele>557</ele>
        <time>2019-06-04T09:56:26Z</time>
      </trkpt>
      <trkpt lat="44.18446" lon="5.93723">
        <ele>557</ele>
        <time>2019-06-04T09:56:27Z</time>
      </trkpt>
      <trkpt lat="44.18452" lon="5.93732">
        <ele>557</ele>
        <time>2019-06-04T09:56:28Z</time>
      </trkpt>
      <trkpt lat="44.18457" lon="5.93742">
        <ele>557</ele>
        <time>2019-06-04T09:56:29Z</time>
      </trkpt>
      <trkpt lat="44.18462" lon="5.9375">
        <ele>557</ele>
        <time>2019-06-04T09:56:30Z</time>
      </trkpt>
      <trkpt lat="44.18467" lon="5.9376">
        <ele>557</ele>
        <time>2019-06-04T09:56:31Z</time>
      </trkpt>
      <trkpt lat="44.18473" lon="5.93769">
        <ele>557</ele>
        <time>2019-06-04T09:56:32Z</time>
      </trkpt>
      <trkpt lat="44.18478" lon="5.93778">
        <ele>557</ele>
        <time>2019-06-04T09:56:33Z</time>
      </trkpt>
      <trkpt lat="44.18484" lon="5.93786">
        <ele>557</ele>
        <time>2019-06-04T09:56:34Z</time>
      </trkpt>
      <trkpt lat="44.18489" lon="5.93795">
        <ele>557</ele>
        <time>2019-06-04T09:56:35Z</time>
      </trkpt>
      <trkpt lat="44.18494" lon="5.93803">
        <ele>557</ele>
        <time>2019-06-04T09:56:36Z</time>
      </trkpt>
      <trkpt lat="44.185" lon="5.93812">
        <ele>557</ele>
        <time>2019-06-04T09:56:37Z</time>
      </trkpt>
      <trkpt lat="44.18505" lon="5.93821">
        <ele>557</ele>
        <time>2019-06-04T09:56:38Z</time>
      </trkpt>
      <trkpt lat="44.1851" lon="5.9383">
        <ele>557</ele>
        <time>2019-06-04T09:56:39Z</time>
      </trkpt>
      <trkpt lat="44.18515" lon="5.93839">
        <ele>557</ele>
        <time>2019-06-04T09:56:40Z</time>
      </trkpt>
      <trkpt lat="44.18521" lon="5.93847">
        <ele>557</ele>
        <time>2019-06-04T09:56:41Z</time>
      </trkpt>
      <trkpt lat="44.18526" lon="5.93856">
        <ele>557</ele>
        <time>2019-06-04T09:56:42Z</time>
      </trkpt>
      <trkpt lat="44.18532" lon="5.93864">
        <ele>557</ele>
        <time>2019-06-04T09:56:43Z</time>
      </trkpt>
      <trkpt lat="44.18538" lon="5.93873">
        <ele>557</ele>
        <time>2019-06-04T09:56:44Z</time>
      </trkpt>
      <trkpt lat="44.18544" lon="5.93881">
        <ele>557</ele>
        <time>2019-06-04T09:56:45Z</time>
      </trkpt>
      <trkpt lat="44.1855" lon="5.9389">
        <ele>557</ele>
        <time>2019-06-04T09:56:46Z</time>
      </trkpt>
      <trkpt lat="44.18555" lon="5.93898">
        <ele>557</ele>
        <time>2019-06-04T09:56:47Z</time>
      </trkpt>
      <trkpt lat="44.18561" lon="5.93907">
        <ele>557</ele>
        <time>2019-06-04T09:56:48Z</time>
      </trkpt>
      <trkpt lat="44.18567" lon="5.93915">
        <ele>557</ele>
        <time>2019-06-04T09:56:49Z</time>
      </trkpt>
      <trkpt lat="44.18573" lon="5.93923">
        <ele>557</ele>
        <time>2019-06-04T09:56:50Z</time>
      </trkpt>
      <trkpt lat="44.18579" lon="5.93931">
        <ele>557</ele>
        <time>2019-06-04T09:56:51Z</time>
      </trkpt>
      <trkpt lat="44.18584" lon="5.93939">
        <ele>557</ele>
        <time>2019-06-04T09:56:52Z</time>
      </trkpt>
      <trkpt lat="44.1859" lon="5.93947">
        <ele>557</ele>
        <time>2019-06-04T09:56:53Z</time>
      </trkpt>
      <trkpt lat="44.18596" lon="5.93955">
        <ele>557</ele>
        <time>2019-06-04T09:56:54Z</time>
      </trkpt>
      <trkpt lat="44.186" lon="5.93963">
        <ele>557</ele>
        <time>2019-06-04T09:56:55Z</time>
      </trkpt>
      <trkpt lat="44.18604" lon="5.93973">
        <ele>557</ele>
        <time>2019-06-04T09:56:56Z</time>
      </trkpt>
      <trkpt lat="44.18607" lon="5.93982">
        <ele>557</ele>
        <time>2019-06-04T09:56:57Z</time>
      </trkpt>
      <trkpt lat="44.1861" lon="5.9399">
        <ele>557</ele>
        <time>2019-06-04T09:56:58Z</time>
      </trkpt>
      <trkpt lat="44.18616" lon="5.93994">
        <ele>557</ele>
        <time>2019-06-04T09:56:59Z</time>
      </trkpt>
      <trkpt lat="44.18622" lon="5.93995">
        <ele>557</ele>
        <time>2019-06-04T09:57:00Z</time>
      </trkpt>
      <trkpt lat="44.18628" lon="5.93995">
        <ele>557</ele>
        <time>2019-06-04T09:57:01Z</time>
      </trkpt>
      <trkpt lat="44.18634" lon="5.93996">
        <ele>557</ele>
        <time>2019-06-04T09:57:02Z</time>
      </trkpt>
      <trkpt lat="44.18641" lon="5.93998">
        <ele>557</ele>
        <time>2019-06-04T09:57:03Z</time>
      </trkpt>
      <trkpt lat="44.18647" lon="5.94002">
        <ele>557</ele>
        <time>2019-06-04T09:57:04Z</time>
      </trkpt>
      <trkpt lat="44.18652" lon="5.94006">
        <ele>557</ele>
        <time>2019-06-04T09:57:05Z</time>
      </trkpt>
      <trkpt lat="44.18657" lon="5.94012">
        <ele>557</ele>
        <time>2019-06-04T09:57:06Z</time>
      </trkpt>
      <trkpt lat="44.18661" lon="5.94018">
        <ele>557</ele>
        <time>2019-06-04T09:57:07Z</time>
      </trkpt>
      <trkpt lat="44.18665" lon="5.94023">
        <ele>557</ele>
        <time>2019-06-04T09:57:08Z</time>
      </trkpt>
      <trkpt lat="44.1867" lon="5.94029">
        <ele>557</ele>
        <time>2019-06-04T09:57:09Z</time>
      </trkpt>
      <trkpt lat="44.18674" lon="5.94034">
        <ele>557</ele>
        <time>2019-06-04T09:57:10Z</time>
      </trkpt>
      <trkpt lat="44.18679" lon="5.9404">
        <ele>557</ele>
        <time>2019-06-04T09:57:11Z</time>
      </trkpt>
      <trkpt lat="44.18683" lon="5.94045">
        <ele>557</ele>
        <time>2019-06-04T09:57:12Z</time>
      </trkpt>
      <trkpt lat="44.18688" lon="5.94051">
        <ele>557</ele>
        <time>2019-06-04T09:57:13Z</time>
      </trkpt>
      <trkpt lat="44.18692" lon="5.94057">
        <ele>557</ele>
        <time>2019-06-04T09:57:14Z</time>
      </trkpt>
      <trkpt lat="44.18697" lon="5.94062">
        <ele>557</ele>
        <time>2019-06-04T09:57:15Z</time>
      </trkpt>
      <trkpt lat="44.18702" lon="5.94067">
        <ele>557</ele>
        <time>2019-06-04T09:57:16Z</time>
      </trkpt>
      <trkpt lat="44.18707" lon="5.94072">
        <ele>557</ele>
        <time>2019-06-04T09:57:17Z</time>
      </trkpt>
      <trkpt lat="44.18712" lon="5.94078">
        <ele>557</ele>
        <time>2019-06-04T09:57:18Z</time>
      </trkpt>
      <trkpt lat="44.18717" lon="5.94083">
        <ele>557</ele>
        <time>2019-06-04T09:57:19Z</time>
      </trkpt>
      <trkpt lat="44.18723" lon="5.94088">
        <ele>557</ele>
        <time>2019-06-04T09:57:20Z</time>
      </trkpt>
      <trkpt lat="44.18728" lon="5.94094">
        <ele>557</ele>
        <time>2019-06-04T09:57:21Z</time>
      </trkpt>
      <trkpt lat="44.18734" lon="5.94099">
        <ele>557</ele>
        <time>2019-06-04T09:57:22Z</time>
      </trkpt>
      <trkpt lat="44.18739" lon="5.94104">
        <ele>557</ele>
        <time>2019-06-04T09:57:23Z</time>
      </trkpt>
      <trkpt lat="44.18745" lon="5.94109">
        <ele>557</ele>
        <time>2019-06-04T09:57:24Z</time>
      </trkpt>
      <trkpt lat="44.1875" lon="5.94115">
        <ele>557</ele>
        <time>2019-06-04T09:57:25Z</time>
      </trkpt>
      <trkpt lat="44.18755" lon="5.9412">
        <ele>557</ele>
        <time>2019-06-04T09:57:26Z</time>
      </trkpt>
      <trkpt lat="44.1876" lon="5.94125">
        <ele>557</ele>
        <time>2019-06-04T09:57:27Z</time>
      </trkpt>
      <trkpt lat="44.18766" lon="5.9413">
        <ele>557</ele>
        <time>2019-06-04T09:57:28Z</time>
      </trkpt>
      <trkpt lat="44.18771" lon="5.94134">
        <ele>557</ele>
        <time>2019-06-04T09:57:29Z</time>
      </trkpt>
      <trkpt lat="44.18777" lon="5.94139">
        <ele>557</ele>
        <time>2019-06-04T09:57:30Z</time>
      </trkpt>
      <trkpt lat="44.18782" lon="5.94144">
        <ele>557</ele>
        <time>2019-06-04T09:57:31Z</time>
      </trkpt>
      <trkpt lat="44.18788" lon="5.94149">
        <ele>557</ele>
        <time>2019-06-04T09:57:32Z</time>
      </trkpt>
      <trkpt lat="44.18793" lon="5.94154">
        <ele>557</ele>
        <time>2019-06-04T09:57:33Z</time>
      </trkpt>
      <trkpt lat="44.18799" lon="5.94158">
        <ele>557</ele>
        <time>2019-06-04T09:57:34Z</time>
      </trkpt>
      <trkpt lat="44.18805" lon="5.94163">
        <ele>557</ele>
        <time>2019-06-04T09:57:35Z</time>
      </trkpt>
      <trkpt lat="44.18811" lon="5.94167">
        <ele>557</ele>
        <time>2019-06-04T09:57:36Z</time>
      </trkpt>
      <trkpt lat="44.18817" lon="5.94171">
        <ele>557</ele>
        <time>2019-06-04T09:57:37Z</time>
      </trkpt>
      <trkpt lat="44.18823" lon="5.94174">
        <ele>557</ele>
        <time>2019-06-04T09:57:38Z</time>
      </trkpt>
      <trkpt lat="44.18829" lon="5.94177">
        <ele>557</ele>
        <time>2019-06-04T09:57:39Z</time>
      </trkpt>
      <trkpt lat="44.18835" lon="5.94181">
        <ele>557</ele>
        <time>2019-06-04T09:57:40Z</time>
      </trkpt>
      <trkpt lat="44.18842" lon="5.94184">
        <ele>557</ele>
        <time>2019-06-04T09:57:41Z</time>
      </trkpt>
      <trkpt lat="44.18849" lon="5.94187">
        <ele>557</ele>
        <time>2019-06-04T09:57:42Z</time>
      </trkpt>
      <trkpt lat="44.18856" lon="5.9419">
        <ele>556</ele>
        <time>2019-06-04T09:57:43Z</time>
      </trkpt>
      <trkpt lat="44.18863" lon="5.94192">
        <ele>556</ele>
        <time>2019-06-04T09:57:44Z</time>
      </trkpt>
      <trkpt lat="44.18871" lon="5.94194">
        <ele>555</ele>
        <time>2019-06-04T09:57:45Z</time>
      </trkpt>
      <trkpt lat="44.18878" lon="5.94194">
        <ele>555</ele>
        <time>2019-06-04T09:57:46Z</time>
      </trkpt>
      <trkpt lat="44.18887" lon="5.94194">
        <ele>555</ele>
        <time>2019-06-04T09:57:47Z</time>
      </trkpt>
      <trkpt lat="44.18895" lon="5.94193">
        <ele>555</ele>
        <time>2019-06-04T09:57:48Z</time>
      </trkpt>
      <trkpt lat="44.18903" lon="5.94194">
        <ele>554</ele>
        <time>2019-06-04T09:57:49Z</time>
      </trkpt>
      <trkpt lat="44.18912" lon="5.94196">
        <ele>554</ele>
        <time>2019-06-04T09:57:50Z</time>
      </trkpt>
      <trkpt lat="44.1892" lon="5.942">
        <ele>554</ele>
        <time>2019-06-04T09:57:51Z</time>
      </trkpt>
      <trkpt lat="44.18927" lon="5.94208">
        <ele>554</ele>
        <time>2019-06-04T09:57:52Z</time>
      </trkpt>
      <trkpt lat="44.18933" lon="5.94217">
        <ele>553</ele>
        <time>2019-06-04T09:57:53Z</time>
      </trkpt>
      <trkpt lat="44.18938" lon="5.94229">
        <ele>553</ele>
        <time>2019-06-04T09:57:54Z</time>
      </trkpt>
      <trkpt lat="44.18943" lon="5.9424">
        <ele>552</ele>
        <time>2019-06-04T09:57:55Z</time>
      </trkpt>
      <trkpt lat="44.1895" lon="5.9425">
        <ele>552</ele>
        <time>2019-06-04T09:57:56Z</time>
      </trkpt>
      <trkpt lat="44.18957" lon="5.94259">
        <ele>551</ele>
        <time>2019-06-04T09:57:57Z</time>
      </trkpt>
      <trkpt lat="44.18965" lon="5.94268">
        <ele>550</ele>
        <time>2019-06-04T09:57:58Z</time>
      </trkpt>
      <trkpt lat="44.18974" lon="5.94276">
        <ele>550</ele>
        <time>2019-06-04T09:57:59Z</time>
      </trkpt>
      <trkpt lat="44.18982" lon="5.94285">
        <ele>549</ele>
        <time>2019-06-04T09:58:00Z</time>
      </trkpt>
      <trkpt lat="44.18989" lon="5.94297">
        <ele>548</ele>
        <time>2019-06-04T09:58:01Z</time>
      </trkpt>
      <trkpt lat="44.18995" lon="5.9431">
        <ele>548</ele>
        <time>2019-06-04T09:58:02Z</time>
      </trkpt>
      <trkpt lat="44.19" lon="5.94323">
        <ele>547</ele>
        <time>2019-06-04T09:58:03Z</time>
      </trkpt>
      <trkpt lat="44.19005" lon="5.94335">
        <ele>546</ele>
        <time>2019-06-04T09:58:04Z</time>
      </trkpt>
      <trkpt lat="44.19011" lon="5.94345">
        <ele>545</ele>
        <time>2019-06-04T09:58:05Z</time>
      </trkpt>
      <trkpt lat="44.19019" lon="5.94352">
        <ele>544</ele>
        <time>2019-06-04T09:58:06Z</time>
      </trkpt>
      <trkpt lat="44.19027" lon="5.94357">
        <ele>543</ele>
        <time>2019-06-04T09:58:07Z</time>
      </trkpt>
      <trkpt lat="44.19038" lon="5.94357">
        <ele>542</ele>
        <time>2019-06-04T09:58:08Z</time>
      </trkpt>
      <trkpt lat="44.19047" lon="5.94354">
        <ele>541</ele>
        <time>2019-06-04T09:58:09Z</time>
      </trkpt>
      <trkpt lat="44.19058" lon="5.94351">
        <ele>540</ele>
        <time>2019-06-04T09:58:10Z</time>
      </trkpt>
      <trkpt lat="44.19069" lon="5.94347">
        <ele>539</ele>
        <time>2019-06-04T09:58:11Z</time>
      </trkpt>
      <trkpt lat="44.19079" lon="5.94345">
        <ele>538</ele>
        <time>2019-06-04T09:58:12Z</time>
      </trkpt>
      <trkpt lat="44.19088" lon="5.94344">
        <ele>537</ele>
        <time>2019-06-04T09:58:13Z</time>
      </trkpt>
      <trkpt lat="44.19099" lon="5.94345">
        <ele>536</ele>
        <time>2019-06-04T09:58:14Z</time>
      </trkpt>
      <trkpt lat="44.1911" lon="5.94348">
        <ele>535</ele>
        <time>2019-06-04T09:58:15Z</time>
      </trkpt>
      <trkpt lat="44.1912" lon="5.9435">
        <ele>534</ele>
        <time>2019-06-04T09:58:16Z</time>
      </trkpt>
      <trkpt lat="44.1913" lon="5.94353">
        <ele>533</ele>
        <time>2019-06-04T09:58:17Z</time>
      </trkpt>
      <trkpt lat="44.19141" lon="5.94354">
        <ele>532</ele>
        <time>2019-06-04T09:58:18Z</time>
      </trkpt>
      <trkpt lat="44.19151" lon="5.94354">
        <ele>531</ele>
        <time>2019-06-04T09:58:19Z</time>
      </trkpt>
      <trkpt lat="44.1916" lon="5.94347">
        <ele>530</ele>
        <time>2019-06-04T09:58:20Z</time>
      </trkpt>
      <trkpt lat="44.19169" lon="5.94337">
        <ele>529</ele>
        <time>2019-06-04T09:58:21Z</time>
      </trkpt>
      <trkpt lat="44.19176" lon="5.94326">
        <ele>528</ele>
        <time>2019-06-04T09:58:22Z</time>
      </trkpt>
      <trkpt lat="44.19182" lon="5.94316">
        <ele>527</ele>
        <time>2019-06-04T09:58:23Z</time>
      </trkpt>
      <trkpt lat="44.19188" lon="5.94306">
        <ele>526</ele>
        <time>2019-06-04T09:58:24Z</time>
      </trkpt>
      <trkpt lat="44.19194" lon="5.94296">
        <ele>525</ele>
        <time>2019-06-04T09:58:25Z</time>
      </trkpt>
      <trkpt lat="44.19202" lon="5.94288">
        <ele>524</ele>
        <time>2019-06-04T09:58:26Z</time>
      </trkpt>
      <trkpt lat="44.1921" lon="5.94281">
        <ele>523</ele>
        <time>2019-06-04T09:58:27Z</time>
      </trkpt>
      <trkpt lat="44.19219" lon="5.94274">
        <ele>523</ele>
        <time>2019-06-04T09:58:28Z</time>
      </trkpt>
      <trkpt lat="44.19228" lon="5.94268">
        <ele>523</ele>
        <time>2019-06-04T09:58:29Z</time>
      </trkpt>
      <trkpt lat="44.19238" lon="5.94262">
        <ele>523</ele>
        <time>2019-06-04T09:58:30Z</time>
      </trkpt>
      <trkpt lat="44.19247" lon="5.94256">
        <ele>523</ele>
        <time>2019-06-04T09:58:31Z</time>
      </trkpt>
      <trkpt lat="44.19257" lon="5.9425">
        <ele>523</ele>
        <time>2019-06-04T09:58:32Z</time>
      </trkpt>
      <trkpt lat="44.19267" lon="5.94246">
        <ele>523</ele>
        <time>2019-06-04T09:58:33Z</time>
      </trkpt>
      <trkpt lat="44.19277" lon="5.94241">
        <ele>523</ele>
        <time>2019-06-04T09:58:34Z</time>
      </trkpt>
      <trkpt lat="44.19286" lon="5.94236">
        <ele>523</ele>
        <time>2019-06-04T09:58:35Z</time>
      </trkpt>
      <trkpt lat="44.19296" lon="5.94231">
        <ele>522</ele>
        <time>2019-06-04T09:58:36Z</time>
      </trkpt>
      <trkpt lat="44.19306" lon="5.94227">
        <ele>522</ele>
        <time>2019-06-04T09:58:37Z</time>
      </trkpt>
      <trkpt lat="44.19315" lon="5.94222">
        <ele>521</ele>
        <time>2019-06-04T09:58:38Z</time>
      </trkpt>
      <trkpt lat="44.19325" lon="5.94218">
        <ele>521</ele>
        <time>2019-06-04T09:58:39Z</time>
      </trkpt>
      <trkpt lat="44.19335" lon="5.94212">
        <ele>520</ele>
        <time>2019-06-04T09:58:40Z</time>
      </trkpt>
      <trkpt lat="44.19345" lon="5.94206">
        <ele>519</ele>
        <time>2019-06-04T09:58:41Z</time>
      </trkpt>
      <trkpt lat="44.19356" lon="5.94202">
        <ele>519</ele>
        <time>2019-06-04T09:58:42Z</time>
      </trkpt>
      <trkpt lat="44.19366" lon="5.94198">
        <ele>519</ele>
        <time>2019-06-04T09:58:43Z</time>
      </trkpt>
      <trkpt lat="44.19377" lon="5.94193">
        <ele>519</ele>
        <time>2019-06-04T09:58:44Z</time>
      </trkpt>
      <trkpt lat="44.19388" lon="5.94188">
        <ele>519</ele>
        <time>2019-06-04T09:58:45Z</time>
      </trkpt>
      <trkpt lat="44.19397" lon="5.94184">
        <ele>518</ele>
        <time>2019-06-04T09:58:46Z</time>
      </trkpt>
      <trkpt lat="44.19407" lon="5.9418">
        <ele>518</ele>
        <time>2019-06-04T09:58:47Z</time>
      </trkpt>
      <trkpt lat="44.19417" lon="5.94176">
        <ele>518</ele>
        <time>2019-06-04T09:58:48Z</time>
      </trkpt>
      <trkpt lat="44.19426" lon="5.94174">
        <ele>518</ele>
        <time>2019-06-04T09:58:49Z</time>
      </trkpt>
      <trkpt lat="44.19434" lon="5.94172">
        <ele>518</ele>
        <time>2019-06-04T09:58:50Z</time>
      </trkpt>
      <trkpt lat="44.19442" lon="5.94168">
        <ele>518</ele>
        <time>2019-06-04T09:58:51Z</time>
      </trkpt>
      <trkpt lat="44.1945" lon="5.94165">
        <ele>518</ele>
        <time>2019-06-04T09:58:52Z</time>
      </trkpt>
      <trkpt lat="44.19459" lon="5.94161">
        <ele>518</ele>
        <time>2019-06-04T09:58:53Z</time>
      </trkpt>
      <trkpt lat="44.19468" lon="5.94157">
        <ele>518</ele>
        <time>2019-06-04T09:58:54Z</time>
      </trkpt>
      <trkpt lat="44.19477" lon="5.94157">
        <ele>518</ele>
        <time>2019-06-04T09:58:55Z</time>
      </trkpt>
      <trkpt lat="44.19485" lon="5.94157">
        <ele>518</ele>
        <time>2019-06-04T09:58:56Z</time>
      </trkpt>
      <trkpt lat="44.19493" lon="5.94157">
        <ele>518</ele>
        <time>2019-06-04T09:58:57Z</time>
      </trkpt>
      <trkpt lat="44.19497" lon="5.94159">
        <ele>518</ele>
        <time>2019-06-04T09:58:58Z</time>
      </trkpt>
      <trkpt lat="44.19503" lon="5.9416">
        <ele>518</ele>
        <time>2019-06-04T09:58:59Z</time>
      </trkpt>
      <trkpt lat="44.19507" lon="5.94161">
        <ele>518</ele>
        <time>2019-06-04T09:59:00Z</time>
      </trkpt>
      <trkpt lat="44.19511" lon="5.94162">
        <ele>517</ele>
        <time>2019-06-04T09:59:01Z</time>
      </trkpt>
      <trkpt lat="44.19515" lon="5.94163">
        <ele>516</ele>
        <time>2019-06-04T09:59:02Z</time>
      </trkpt>
      <trkpt lat="44.1952" lon="5.94164">
        <ele>515</ele>
        <time>2019-06-04T09:59:03Z</time>
      </trkpt>
      <trkpt lat="44.19523" lon="5.94166">
        <ele>515</ele>
        <time>2019-06-04T09:59:04Z</time>
      </trkpt>
      <trkpt lat="44.19528" lon="5.94168">
        <ele>515</ele>
        <time>2019-06-04T09:59:05Z</time>
      </trkpt>
      <trkpt lat="44.19532" lon="5.9417">
        <ele>515</ele>
        <time>2019-06-04T09:59:06Z</time>
      </trkpt>
      <trkpt lat="44.19536" lon="5.94176">
        <ele>515</ele>
        <time>2019-06-04T09:59:07Z</time>
      </trkpt>
      <trkpt lat="44.19541" lon="5.94177">
        <ele>515</ele>
        <time>2019-06-04T09:59:08Z</time>
      </trkpt>
      <trkpt lat="44.19545" lon="5.94175">
        <ele>515</ele>
        <time>2019-06-04T09:59:09Z</time>
      </trkpt>
      <trkpt lat="44.19549" lon="5.94173">
        <ele>515</ele>
        <time>2019-06-04T09:59:10Z</time>
      </trkpt>
      <trkpt lat="44.19553" lon="5.94171">
        <ele>515</ele>
        <time>2019-06-04T09:59:11Z</time>
      </trkpt>
      <trkpt lat="44.19556" lon="5.94168">
        <ele>515</ele>
        <time>2019-06-04T09:59:12Z</time>
      </trkpt>
      <trkpt lat="44.1956" lon="5.94164">
        <ele>515</ele>
        <time>2019-06-04T09:59:13Z</time>
      </trkpt>
      <trkpt lat="44.19563" lon="5.94159">
        <ele>514</ele>
        <time>2019-06-04T09:59:14Z</time>
      </trkpt>
      <trkpt lat="44.19566" lon="5.94153">
        <ele>513</ele>
        <time>2019-06-04T09:59:15Z</time>
      </trkpt>
      <trkpt lat="44.19569" lon="5.94148">
        <ele>512</ele>
        <time>2019-06-04T09:59:16Z</time>
      </trkpt>
      <trkpt lat="44.19572" lon="5.94143">
        <ele>511</ele>
        <time>2019-06-04T09:59:17Z</time>
      </trkpt>
      <trkpt lat="44.19575" lon="5.94138">
        <ele>510</ele>
        <time>2019-06-04T09:59:18Z</time>
      </trkpt>
      <trkpt lat="44.19579" lon="5.94133">
        <ele>509</ele>
        <time>2019-06-04T09:59:19Z</time>
      </trkpt>
      <trkpt lat="44.19582" lon="5.94128">
        <ele>508</ele>
        <time>2019-06-04T09:59:20Z</time>
      </trkpt>
      <trkpt lat="44.19585" lon="5.94123">
        <ele>507</ele>
        <time>2019-06-04T09:59:21Z</time>
      </trkpt>
      <trkpt lat="44.19589" lon="5.94118">
        <ele>507</ele>
        <time>2019-06-04T09:59:22Z</time>
      </trkpt>
      <trkpt lat="44.19592" lon="5.94113">
        <ele>507</ele>
        <time>2019-06-04T09:59:23Z</time>
      </trkpt>
      <trkpt lat="44.19594" lon="5.94108">
        <ele>507</ele>
        <time>2019-06-04T09:59:24Z</time>
      </trkpt>
      <trkpt lat="44.19597" lon="5.94103">
        <ele>507</ele>
        <time>2019-06-04T09:59:25Z</time>
      </trkpt>
      <trkpt lat="44.19599" lon="5.94097">
        <ele>507</ele>
        <time>2019-06-04T09:59:26Z</time>
      </trkpt>
      <trkpt lat="44.19602" lon="5.94092">
        <ele>507</ele>
        <time>2019-06-04T09:59:27Z</time>
      </trkpt>
      <trkpt lat="44.19605" lon="5.94087">
        <ele>507</ele>
        <time>2019-06-04T09:59:28Z</time>
      </trkpt>
      <trkpt lat="44.19608" lon="5.94083">
        <ele>507</ele>
        <time>2019-06-04T09:59:29Z</time>
      </trkpt>
      <trkpt lat="44.19611" lon="5.94079">
        <ele>507</ele>
        <time>2019-06-04T09:59:30Z</time>
      </trkpt>
      <trkpt lat="44.19613" lon="5.94075">
        <ele>507</ele>
        <time>2019-06-04T09:59:31Z</time>
      </trkpt>
      <trkpt lat="44.19616" lon="5.94071">
        <ele>507</ele>
        <time>2019-06-04T09:59:32Z</time>
      </trkpt>
      <trkpt lat="44.19619" lon="5.94066">
        <ele>507</ele>
        <time>2019-06-04T09:59:33Z</time>
      </trkpt>
      <trkpt lat="44.19621" lon="5.94061">
        <ele>508</ele>
        <time>2019-06-04T09:59:34Z</time>
      </trkpt>
      <trkpt lat="44.19622" lon="5.94057">
        <ele>508</ele>
        <time>2019-06-04T09:59:35Z</time>
      </trkpt>
      <trkpt lat="44.19622" lon="5.94052">
        <ele>508</ele>
        <time>2019-06-04T09:59:36Z</time>
      </trkpt>
      <trkpt lat="44.19622" lon="5.94047">
        <ele>508</ele>
        <time>2019-06-04T09:59:37Z</time>
      </trkpt>
      <trkpt lat="44.19622" lon="5.94043">
        <ele>508</ele>
        <time>2019-06-04T09:59:38Z</time>
      </trkpt>
      <trkpt lat="44.1962" lon="5.94039">
        <ele>508</ele>
        <time>2019-06-04T09:59:39Z</time>
      </trkpt>
      <trkpt lat="44.19618" lon="5.94035">
        <ele>508</ele>
        <time>2019-06-04T09:59:40Z</time>
      </trkpt>
      <trkpt lat="44.19617" lon="5.94032">
        <ele>508</ele>
        <time>2019-06-04T09:59:41Z</time>
      </trkpt>
      <trkpt lat="44.19615" lon="5.94028">
        <ele>508</ele>
        <time>2019-06-04T09:59:42Z</time>
      </trkpt>
      <trkpt lat="44.19613" lon="5.94025">
        <ele>508</ele>
        <time>2019-06-04T09:59:43Z</time>
      </trkpt>
      <trkpt lat="44.19612" lon="5.94022">
        <ele>508</ele>
        <time>2019-06-04T09:59:44Z</time>
      </trkpt>
      <trkpt lat="44.1961" lon="5.94018">
        <ele>508</ele>
        <time>2019-06-04T09:59:45Z</time>
      </trkpt>
      <trkpt lat="44.19609" lon="5.94015">
        <ele>508</ele>
        <time>2019-06-04T09:59:46Z</time>
      </trkpt>
      <trkpt lat="44.19608" lon="5.94011">
        <ele>508</ele>
        <time>2019-06-04T09:59:47Z</time>
      </trkpt>
      <trkpt lat="44.19606" lon="5.94008">
        <ele>508</ele>
        <time>2019-06-04T09:59:48Z</time>
      </trkpt>
      <trkpt lat="44.19606" lon="5.94005">
        <ele>508</ele>
        <time>2019-06-04T09:59:49Z</time>
      </trkpt>
      <trkpt lat="44.19604" lon="5.94001">
        <ele>508</ele>
        <time>2019-06-04T09:59:50Z</time>
      </trkpt>
      <trkpt lat="44.19603" lon="5.93998">
        <ele>508</ele>
        <time>2019-06-04T09:59:51Z</time>
      </trkpt>
      <trkpt lat="44.19602" lon="5.93995">
        <ele>509</ele>
        <time>2019-06-04T09:59:52Z</time>
      </trkpt>
      <trkpt lat="44.19601" lon="5.93992">
        <ele>509</ele>
        <time>2019-06-04T09:59:53Z</time>
      </trkpt>
      <trkpt lat="44.196" lon="5.93989">
        <ele>510</ele>
        <time>2019-06-04T09:59:54Z</time>
      </trkpt>
      <trkpt lat="44.19599" lon="5.93985">
        <ele>510</ele>
        <time>2019-06-04T09:59:55Z</time>
      </trkpt>
      <trkpt lat="44.19599" lon="5.93983">
        <ele>511</ele>
        <time>2019-06-04T09:59:56Z</time>
      </trkpt>
      <trkpt lat="44.19599" lon="5.9398">
        <ele>511</ele>
        <time>2019-06-04T09:59:57Z</time>
      </trkpt>
      <trkpt lat="44.19598" lon="5.93977">
        <ele>512</ele>
        <time>2019-06-04T09:59:58Z</time>
      </trkpt>
      <trkpt lat="44.19599" lon="5.93974">
        <ele>512</ele>
        <time>2019-06-04T09:59:59Z</time>
      </trkpt>
      <trkpt lat="44.19599" lon="5.93971">
        <ele>512</ele>
        <time>2019-06-04T10:00:00Z</time>
      </trkpt>
      <trkpt lat="44.196" lon="5.93968">
        <ele>512</ele>
        <time>2019-06-04T10:00:01Z</time>
      </trkpt>
      <trkpt lat="44.19601" lon="5.93966">
        <ele>513</ele>
        <time>2019-06-04T10:00:02Z</time>
      </trkpt>
      <trkpt lat="44.19601" lon="5.93963">
        <ele>513</ele>
        <time>2019-06-04T10:00:03Z</time>
      </trkpt>
      <trkpt lat="44.19602" lon="5.93961">
        <ele>513</ele>
        <time>2019-06-04T10:00:04Z</time>
      </trkpt>
      <trkpt lat="44.19603" lon="5.93958">
        <ele>513</ele>
        <time>2019-06-04T10:00:05Z</time>
      </trkpt>
      <trkpt lat="44.19604" lon="5.93955">
        <ele>513</ele>
        <time>2019-06-04T10:00:06Z</time>
      </trkpt>
      <trkpt lat="44.19605" lon="5.93952">
        <ele>513</ele>
        <time>2019-06-04T10:00:07Z</time>
      </trkpt>
      <trkpt lat="44.19605" lon="5.93949">
        <ele>513</ele>
        <time>2019-06-04T10:00:08Z</time>
      </trkpt>
      <trkpt lat="44.19606" lon="5.93947">
        <ele>513</ele>
        <time>2019-06-04T10:00:09Z</time>
      </trkpt>
      <trkpt lat="44.19607" lon="5.93944">
        <ele>513</ele>
        <time>2019-06-04T10:00:10Z</time>
      </trkpt>
      <trkpt lat="44.19608" lon="5.93941">
        <ele>513</ele>
        <time>2019-06-04T10:00:11Z</time>
      </trkpt>
      <trkpt lat="44.19609" lon="5.93938">
        <ele>513</ele>
        <time>2019-06-04T10:00:12Z</time>
      </trkpt>
      <trkpt lat="44.1961" lon="5.93935">
        <ele>513</ele>
        <time>2019-06-04T10:00:13Z</time>
      </trkpt>
      <trkpt lat="44.19611" lon="5.93932">
        <ele>513</ele>
        <time>2019-06-04T10:00:14Z</time>
      </trkpt>
      <trkpt lat="44.19611" lon="5.93929">
        <ele>513</ele>
        <time>2019-06-04T10:00:15Z</time>
      </trkpt>
      <trkpt lat="44.19612" lon="5.93927">
        <ele>513</ele>
        <time>2019-06-04T10:00:16Z</time>
      </trkpt>
      <trkpt lat="44.19613" lon="5.93924">
        <ele>513</ele>
        <time>2019-06-04T10:00:17Z</time>
      </trkpt>
      <trkpt lat="44.19614" lon="5.93921">
        <ele>513</ele>
        <time>2019-06-04T10:00:18Z</time>
      </trkpt>
      <trkpt lat="44.19614" lon="5.93918">
        <ele>513</ele>
        <time>2019-06-04T10:00:19Z</time>
      </trkpt>
      <trkpt lat="44.19614" lon="5.93916">
        <ele>513</ele>
        <time>2019-06-04T10:00:20Z</time>
      </trkpt>
      <trkpt lat="44.19615" lon="5.93913">
        <ele>513</ele>
        <time>2019-06-04T10:00:21Z</time>
      </trkpt>
      <trkpt lat="44.19615" lon="5.9391">
        <ele>513</ele>
        <time>2019-06-04T10:00:22Z</time>
      </trkpt>
      <trkpt lat="44.19616" lon="5.93906">
        <ele>513</ele>
        <time>2019-06-04T10:00:23Z</time>
      </trkpt>
      <trkpt lat="44.19617" lon="5.93903">
        <ele>513</ele>
        <time>2019-06-04T10:00:24Z</time>
      </trkpt>
      <trkpt lat="44.19618" lon="5.93901">
        <ele>513</ele>
        <time>2019-06-04T10:00:25Z</time>
      </trkpt>
      <trkpt lat="44.1962" lon="5.93899">
        <ele>513</ele>
        <time>2019-06-04T10:00:26Z</time>
      </trkpt>
      <trkpt lat="44.19621" lon="5.93896">
        <ele>513</ele>
        <time>2019-06-04T10:00:27Z</time>
      </trkpt>
      <trkpt lat="44.19622" lon="5.93893">
        <ele>513</ele>
        <time>2019-06-04T10:00:28Z</time>
      </trkpt>
      <trkpt lat="44.19623" lon="5.9389">
        <ele>513</ele>
        <time>2019-06-04T10:00:29Z</time>
      </trkpt>
      <trkpt lat="44.19624" lon="5.93888">
        <ele>513</ele>
        <time>2019-06-04T10:00:30Z</time>
      </trkpt>
      <trkpt lat="44.19624" lon="5.93885">
        <ele>513</ele>
        <time>2019-06-04T10:00:31Z</time>
      </trkpt>
      <trkpt lat="44.19624" lon="5.93883">
        <ele>513</ele>
        <time>2019-06-04T10:00:32Z</time>
      </trkpt>
      <trkpt lat="44.19625" lon="5.9388">
        <ele>513</ele>
        <time>2019-06-04T10:00:33Z</time>
      </trkpt>
      <trkpt lat="44.19626" lon="5.93878">
        <ele>513</ele>
        <time>2019-06-04T10:00:34Z</time>
      </trkpt>
      <trkpt lat="44.19627" lon="5.93875">
        <ele>513</ele>
        <time>2019-06-04T10:00:35Z</time>
      </trkpt>
      <trkpt lat="44.19628" lon="5.93872">
        <ele>513</ele>
        <time>2019-06-04T10:00:36Z</time>
      </trkpt>
      <trkpt lat="44.19628" lon="5.9387">
        <ele>513</ele>
        <time>2019-06-04T10:00:37Z</time>
      </trkpt>
      <trkpt lat="44.19629" lon="5.93867">
        <ele>513</ele>
        <time>2019-06-04T10:00:38Z</time>
      </trkpt>
      <trkpt lat="44.1963" lon="5.93865">
        <ele>513</ele>
        <time>2019-06-04T10:00:39Z</time>
      </trkpt>
      <trkpt lat="44.1963" lon="5.93862">
        <ele>513</ele>
        <time>2019-06-04T10:00:40Z</time>
      </trkpt>
      <trkpt lat="44.19631" lon="5.93859">
        <ele>513</ele>
        <time>2019-06-04T10:00:41Z</time>
      </trkpt>
      <trkpt lat="44.19632" lon="5.93856">
        <ele>513</ele>
        <time>2019-06-04T10:00:42Z</time>
      </trkpt>
      <trkpt lat="44.19633" lon="5.93854">
        <ele>513</ele>
        <time>2019-06-04T10:00:43Z</time>
      </trkpt>
      <trkpt lat="44.19633" lon="5.93851">
        <ele>513</ele>
        <time>2019-06-04T10:00:44Z</time>
      </trkpt>
      <trkpt lat="44.19634" lon="5.93848">
        <ele>513</ele>
        <time>2019-06-04T10:00:45Z</time>
      </trkpt>
      <trkpt lat="44.19635" lon="5.93846">
        <ele>513</ele>
        <time>2019-06-04T10:00:46Z</time>
      </trkpt>
      <trkpt lat="44.19636" lon="5.93843">
        <ele>513</ele>
        <time>2019-06-04T10:00:47Z</time>
      </trkpt>
      <trkpt lat="44.19637" lon="5.93839">
        <ele>513</ele>
        <time>2019-06-04T10:00:48Z</time>
      </trkpt>
      <trkpt lat="44.19638" lon="5.93836">
        <ele>513</ele>
        <time>2019-06-04T10:00:49Z</time>
      </trkpt>
      <trkpt lat="44.19639" lon="5.93834">
        <ele>513</ele>
        <time>2019-06-04T10:00:50Z</time>
      </trkpt>
      <trkpt lat="44.1964" lon="5.93831">
        <ele>513</ele>
        <time>2019-06-04T10:00:51Z</time>
      </trkpt>
      <trkpt lat="44.19641" lon="5.93828">
        <ele>513</ele>
        <time>2019-06-04T10:00:52Z</time>
      </trkpt>
      <trkpt lat="44.19642" lon="5.93826">
        <ele>513</ele>
        <time>2019-06-04T10:00:53Z</time>
      </trkpt>
      <trkpt lat="44.19643" lon="5.93823">
        <ele>513</ele>
        <time>2019-06-04T10:00:54Z</time>
      </trkpt>
      <trkpt lat="44.19644" lon="5.9382">
        <ele>513</ele>
        <time>2019-06-04T10:00:55Z</time>
      </trkpt>
      <trkpt lat="44.19645" lon="5.93818">
        <ele>513</ele>
        <time>2019-06-04T10:00:56Z</time>
      </trkpt>
      <trkpt lat="44.19646" lon="5.93815">
        <ele>513</ele>
        <time>2019-06-04T10:00:57Z</time>
      </trkpt>
      <trkpt lat="44.19647" lon="5.93811">
        <ele>513</ele>
        <time>2019-06-04T10:00:58Z</time>
      </trkpt>
      <trkpt lat="44.19648" lon="5.93808">
        <ele>513</ele>
        <time>2019-06-04T10:00:59Z</time>
      </trkpt>
      <trkpt lat="44.19649" lon="5.93804">
        <ele>513</ele>
        <time>2019-06-04T10:01:00Z</time>
      </trkpt>
      <trkpt lat="44.1965" lon="5.938">
        <ele>513</ele>
        <time>2019-06-04T10:01:01Z</time>
      </trkpt>
      <trkpt lat="44.19651" lon="5.93797">
        <ele>513</ele>
        <time>2019-06-04T10:01:02Z</time>
      </trkpt>
      <trkpt lat="44.19653" lon="5.93793">
        <ele>514</ele>
        <time>2019-06-04T10:01:03Z</time>
      </trkpt>
      <trkpt lat="44.19654" lon="5.9379">
        <ele>515</ele>
        <time>2019-06-04T10:01:04Z</time>
      </trkpt>
      <trkpt lat="44.19656" lon="5.93786">
        <ele>516</ele>
        <time>2019-06-04T10:01:05Z</time>
      </trkpt>
      <trkpt lat="44.19657" lon="5.93782">
        <ele>517</ele>
        <time>2019-06-04T10:01:06Z</time>
      </trkpt>
      <trkpt lat="44.19658" lon="5.93778">
        <ele>518</ele>
        <time>2019-06-04T10:01:07Z</time>
      </trkpt>
      <trkpt lat="44.19659" lon="5.93774">
        <ele>519</ele>
        <time>2019-06-04T10:01:08Z</time>
      </trkpt>
      <trkpt lat="44.19661" lon="5.93769">
        <ele>520</ele>
        <time>2019-06-04T10:01:09Z</time>
      </trkpt>
      <trkpt lat="44.19662" lon="5.93764">
        <ele>521</ele>
        <time>2019-06-04T10:01:10Z</time>
      </trkpt>
      <trkpt lat="44.19663" lon="5.9376">
        <ele>522</ele>
        <time>2019-06-04T10:01:11Z</time>
      </trkpt>
      <trkpt lat="44.19664" lon="5.93755">
        <ele>523</ele>
        <time>2019-06-04T10:01:12Z</time>
      </trkpt>
      <trkpt lat="44.19664" lon="5.9375">
        <ele>523</ele>
        <time>2019-06-04T10:01:13Z</time>
      </trkpt>
      <trkpt lat="44.19665" lon="5.93746">
        <ele>523</ele>
        <time>2019-06-04T10:01:14Z</time>
      </trkpt>
      <trkpt lat="44.19666" lon="5.93741">
        <ele>523</ele>
        <time>2019-06-04T10:01:15Z</time>
      </trkpt>
      <trkpt lat="44.19667" lon="5.93735">
        <ele>523</ele>
        <time>2019-06-04T10:01:16Z</time>
      </trkpt>
      <trkpt lat="44.19667" lon="5.9373">
        <ele>523</ele>
        <time>2019-06-04T10:01:17Z</time>
      </trkpt>
      <trkpt lat="44.19668" lon="5.93724">
        <ele>523</ele>
        <time>2019-06-04T10:01:18Z</time>
      </trkpt>
      <trkpt lat="44.19668" lon="5.93719">
        <ele>523</ele>
        <time>2019-06-04T10:01:19Z</time>
      </trkpt>
      <trkpt lat="44.19667" lon="5.93714">
        <ele>523</ele>
        <time>2019-06-04T10:01:20Z</time>
      </trkpt>
      <trkpt lat="44.19668" lon="5.93709">
        <ele>523</ele>
        <time>2019-06-04T10:01:21Z</time>
      </trkpt>
      <trkpt lat="44.19668" lon="5.93704">
        <ele>523</ele>
        <time>2019-06-04T10:01:22Z</time>
      </trkpt>
      <trkpt lat="44.19668" lon="5.937">
        <ele>523</ele>
        <time>2019-06-04T10:01:23Z</time>
      </trkpt>
      <trkpt lat="44.19668" lon="5.93695">
        <ele>523</ele>
        <time>2019-06-04T10:01:24Z</time>
      </trkpt>
      <trkpt lat="44.19667" lon="5.93691">
        <ele>523</ele>
        <time>2019-06-04T10:01:25Z</time>
      </trkpt>
      <trkpt lat="44.19667" lon="5.93686">
        <ele>523</ele>
        <time>2019-06-04T10:01:26Z</time>
      </trkpt>
      <trkpt lat="44.19668" lon="5.93681">
        <ele>523</ele>
        <time>2019-06-04T10:01:27Z</time>
      </trkpt>
      <trkpt lat="44.19669" lon="5.93676">
        <ele>523</ele>
        <time>2019-06-04T10:01:28Z</time>
      </trkpt>
      <trkpt lat="44.19669" lon="5.93671">
        <ele>523</ele>
        <time>2019-06-04T10:01:29Z</time>
      </trkpt>
      <trkpt lat="44.19669" lon="5.93666">
        <ele>523</ele>
        <time>2019-06-04T10:01:30Z</time>
      </trkpt>
      <trkpt lat="44.19669" lon="5.9366">
        <ele>523</ele>
        <time>2019-06-04T10:01:31Z</time>
      </trkpt>
      <trkpt lat="44.1967" lon="5.93655">
        <ele>523</ele>
        <time>2019-06-04T10:01:32Z</time>
      </trkpt>
      <trkpt lat="44.1967" lon="5.9365">
        <ele>523</ele>
        <time>2019-06-04T10:01:33Z</time>
      </trkpt>
      <trkpt lat="44.19671" lon="5.93644">
        <ele>523</ele>
        <time>2019-06-04T10:01:34Z</time>
      </trkpt>
      <trkpt lat="44.19671" lon="5.93638">
        <ele>523</ele>
        <time>2019-06-04T10:01:35Z</time>
      </trkpt>
      <trkpt lat="44.19672" lon="5.93633">
        <ele>523</ele>
        <time>2019-06-04T10:01:36Z</time>
      </trkpt>
      <trkpt lat="44.19672" lon="5.93627">
        <ele>523</ele>
        <time>2019-06-04T10:01:37Z</time>
      </trkpt>
      <trkpt lat="44.19673" lon="5.93621">
        <ele>523</ele>
        <time>2019-06-04T10:01:38Z</time>
      </trkpt>
      <trkpt lat="44.19673" lon="5.93615">
        <ele>523</ele>
        <time>2019-06-04T10:01:39Z</time>
      </trkpt>
      <trkpt lat="44.19673" lon="5.9361">
        <ele>523</ele>
        <time>2019-06-04T10:01:40Z</time>
      </trkpt>
      <trkpt lat="44.19673" lon="5.93604">
        <ele>523</ele>
        <time>2019-06-04T10:01:41Z</time>
      </trkpt>
      <trkpt lat="44.19672" lon="5.93598">
        <ele>523</ele>
        <time>2019-06-04T10:01:42Z</time>
      </trkpt>
      <trkpt lat="44.19672" lon="5.93593">
        <ele>523</ele>
        <time>2019-06-04T10:01:43Z</time>
      </trkpt>
      <trkpt lat="44.19671" lon="5.93588">
        <ele>523</ele>
        <time>2019-06-04T10:01:44Z</time>
      </trkpt>
      <trkpt lat="44.19671" lon="5.93583">
        <ele>523</ele>
        <time>2019-06-04T10:01:45Z</time>
      </trkpt>
      <trkpt lat="44.19671" lon="5.93577">
        <ele>523</ele>
        <time>2019-06-04T10:01:46Z</time>
      </trkpt>
      <trkpt lat="44.1967" lon="5.93572">
        <ele>523</ele>
        <time>2019-06-04T10:01:47Z</time>
      </trkpt>
      <trkpt lat="44.1967" lon="5.93567">
        <ele>523</ele>
        <time>2019-06-04T10:01:48Z</time>
      </trkpt>
      <trkpt lat="44.1967" lon="5.93561">
        <ele>523</ele>
        <time>2019-06-04T10:01:49Z</time>
      </trkpt>
      <trkpt lat="44.1967" lon="5.93556">
        <ele>523</ele>
        <time>2019-06-04T10:01:50Z</time>
      </trkpt>
      <trkpt lat="44.19669" lon="5.9355">
        <ele>523</ele>
        <time>2019-06-04T10:01:51Z</time>
      </trkpt>
      <trkpt lat="44.19669" lon="5.93545">
        <ele>523</ele>
        <time>2019-06-04T10:01:52Z</time>
      </trkpt>
      <trkpt lat="44.19669" lon="5.9354">
        <ele>523</ele>
        <time>2019-06-04T10:01:53Z</time>
      </trkpt>
      <trkpt lat="44.19669" lon="5.93535">
        <ele>523</ele>
        <time>2019-06-04T10:01:54Z</time>
      </trkpt>
      <trkpt lat="44.19669" lon="5.9353">
        <ele>523</ele>
        <time>2019-06-04T10:01:55Z</time>
      </trkpt>
      <trkpt lat="44.19668" lon="5.93525">
        <ele>523</ele>
        <time>2019-06-04T10:01:56Z</time>
      </trkpt>
      <trkpt lat="44.19667" lon="5.9352">
        <ele>523</ele>
        <time>2019-06-04T10:01:57Z</time>
      </trkpt>
      <trkpt lat="44.19667" lon="5.93515">
        <ele>523</ele>
        <time>2019-06-04T10:01:58Z</time>
      </trkpt>
      <trkpt lat="44.19666" lon="5.93511">
        <ele>523</ele>
        <time>2019-06-04T10:01:59Z</time>
      </trkpt>
      <trkpt lat="44.19666" lon="5.93506">
        <ele>523</ele>
        <time>2019-06-04T10:02:00Z</time>
      </trkpt>
      <trkpt lat="44.19665" lon="5.93502">
        <ele>523</ele>
        <time>2019-06-04T10:02:01Z</time>
      </trkpt>
      <trkpt lat="44.19665" lon="5.93497">
        <ele>523</ele>
        <time>2019-06-04T10:02:02Z</time>
      </trkpt>
      <trkpt lat="44.19665" lon="5.93492">
        <ele>523</ele>
        <time>2019-06-04T10:02:03Z</time>
      </trkpt>
      <trkpt lat="44.19664" lon="5.93487">
        <ele>523</ele>
        <time>2019-06-04T10:02:04Z</time>
      </trkpt>
      <trkpt lat="44.19664" lon="5.93483">
        <ele>523</ele>
        <time>2019-06-04T10:02:05Z</time>
      </trkpt>
      <trkpt lat="44.19664" lon="5.93478">
        <ele>523</ele>
        <time>2019-06-04T10:02:06Z</time>
      </trkpt>
      <trkpt lat="44.19664" lon="5.93474">
        <ele>523</ele>
        <time>2019-06-04T10:02:07Z</time>
      </trkpt>
      <trkpt lat="44.19663" lon="5.9347">
        <ele>524</ele>
        <time>2019-06-04T10:02:08Z</time>
      </trkpt>
      <trkpt lat="44.19662" lon="5.93465">
        <ele>524</ele>
        <time>2019-06-04T10:02:09Z</time>
      </trkpt>
      <trkpt lat="44.19662" lon="5.93461">
        <ele>524</ele>
        <time>2019-06-04T10:02:10Z</time>
      </trkpt>
      <trkpt lat="44.19662" lon="5.93456">
        <ele>524</ele>
        <time>2019-06-04T10:02:11Z</time>
      </trkpt>
      <trkpt lat="44.19662" lon="5.93452">
        <ele>524</ele>
        <time>2019-06-04T10:02:12Z</time>
      </trkpt>
      <trkpt lat="44.19662" lon="5.93447">
        <ele>524</ele>
        <time>2019-06-04T10:02:13Z</time>
      </trkpt>
      <trkpt lat="44.19661" lon="5.93442">
        <ele>524</ele>
        <time>2019-06-04T10:02:14Z</time>
      </trkpt>
      <trkpt lat="44.19661" lon="5.93436">
        <ele>524</ele>
        <time>2019-06-04T10:02:15Z</time>
      </trkpt>
      <trkpt lat="44.19662" lon="5.93432">
        <ele>524</ele>
        <time>2019-06-04T10:02:16Z</time>
      </trkpt>
      <trkpt lat="44.19661" lon="5.93427">
        <ele>525</ele>
        <time>2019-06-04T10:02:17Z</time>
      </trkpt>
      <trkpt lat="44.19661" lon="5.93423">
        <ele>525</ele>
        <time>2019-06-04T10:02:18Z</time>
      </trkpt>
      <trkpt lat="44.19661" lon="5.93418">
        <ele>526</ele>
        <time>2019-06-04T10:02:19Z</time>
      </trkpt>
      <trkpt lat="44.1966" lon="5.93413">
        <ele>526</ele>
        <time>2019-06-04T10:02:20Z</time>
      </trkpt>
      <trkpt lat="44.19659" lon="5.93409">
        <ele>526</ele>
        <time>2019-06-04T10:02:21Z</time>
      </trkpt>
      <trkpt lat="44.19658" lon="5.93404">
        <ele>526</ele>
        <time>2019-06-04T10:02:22Z</time>
      </trkpt>
      <trkpt lat="44.19658" lon="5.934">
        <ele>526</ele>
        <time>2019-06-04T10:02:23Z</time>
      </trkpt>
      <trkpt lat="44.19656" lon="5.93396">
        <ele>526</ele>
        <time>2019-06-04T10:02:24Z</time>
      </trkpt>
      <trkpt lat="44.19656" lon="5.93392">
        <ele>526</ele>
        <time>2019-06-04T10:02:25Z</time>
      </trkpt>
      <trkpt lat="44.19656" lon="5.93387">
        <ele>527</ele>
        <time>2019-06-04T10:02:26Z</time>
      </trkpt>
      <trkpt lat="44.19654" lon="5.93383">
        <ele>527</ele>
        <time>2019-06-04T10:02:27Z</time>
      </trkpt>
      <trkpt lat="44.19654" lon="5.93379">
        <ele>527</ele>
        <time>2019-06-04T10:02:28Z</time>
      </trkpt>
      <trkpt lat="44.19654" lon="5.93375">
        <ele>527</ele>
        <time>2019-06-04T10:02:29Z</time>
      </trkpt>
      <trkpt lat="44.19653" lon="5.93371">
        <ele>527</ele>
        <time>2019-06-04T10:02:30Z</time>
      </trkpt>
      <trkpt lat="44.19653" lon="5.93367">
        <ele>527</ele>
        <time>2019-06-04T10:02:31Z</time>
      </trkpt>
      <trkpt lat="44.19652" lon="5.93363">
        <ele>527</ele>
        <time>2019-06-04T10:02:32Z</time>
      </trkpt>
      <trkpt lat="44.19651" lon="5.93359">
        <ele>527</ele>
        <time>2019-06-04T10:02:33Z</time>
      </trkpt>
      <trkpt lat="44.19651" lon="5.93356">
        <ele>527</ele>
        <time>2019-06-04T10:02:34Z</time>
      </trkpt>
      <trkpt lat="44.1965" lon="5.93352">
        <ele>527</ele>
        <time>2019-06-04T10:02:35Z</time>
      </trkpt>
      <trkpt lat="44.19649" lon="5.93347">
        <ele>527</ele>
        <time>2019-06-04T10:02:36Z</time>
      </trkpt>
      <trkpt lat="44.19648" lon="5.93344">
        <ele>527</ele>
        <time>2019-06-04T10:02:37Z</time>
      </trkpt>
      <trkpt lat="44.19647" lon="5.9334">
        <ele>527</ele>
        <time>2019-06-04T10:02:38Z</time>
      </trkpt>
      <trkpt lat="44.19646" lon="5.93337">
        <ele>528</ele>
        <time>2019-06-04T10:02:39Z</time>
      </trkpt>
      <trkpt lat="44.19646" lon="5.93333">
        <ele>528</ele>
        <time>2019-06-04T10:02:40Z</time>
      </trkpt>
      <trkpt lat="44.19645" lon="5.93329">
        <ele>528</ele>
        <time>2019-06-04T10:02:41Z</time>
      </trkpt>
      <trkpt lat="44.19644" lon="5.93326">
        <ele>529</ele>
        <time>2019-06-04T10:02:42Z</time>
      </trkpt>
      <trkpt lat="44.19642" lon="5.93322">
        <ele>529</ele>
        <time>2019-06-04T10:02:43Z</time>
      </trkpt>
      <trkpt lat="44.19641" lon="5.93318">
        <ele>530</ele>
        <time>2019-06-04T10:02:44Z</time>
      </trkpt>
      <trkpt lat="44.1964" lon="5.93315">
        <ele>530</ele>
        <time>2019-06-04T10:02:45Z</time>
      </trkpt>
      <trkpt lat="44.19639" lon="5.93312">
        <ele>531</ele>
        <time>2019-06-04T10:02:46Z</time>
      </trkpt>
      <trkpt lat="44.19638" lon="5.93308">
        <ele>532</ele>
        <time>2019-06-04T10:02:47Z</time>
      </trkpt>
      <trkpt lat="44.19637" lon="5.93305">
        <ele>532</ele>
        <time>2019-06-04T10:02:48Z</time>
      </trkpt>
      <trkpt lat="44.19636" lon="5.93302">
        <ele>533</ele>
        <time>2019-06-04T10:02:49Z</time>
      </trkpt>
      <trkpt lat="44.19635" lon="5.93299">
        <ele>534</ele>
        <time>2019-06-04T10:02:50Z</time>
      </trkpt>
      <trkpt lat="44.19634" lon="5.93296">
        <ele>535</ele>
        <time>2019-06-04T10:02:51Z</time>
      </trkpt>
      <trkpt lat="44.19633" lon="5.93293">
        <ele>535</ele>
        <time>2019-06-04T10:02:52Z</time>
      </trkpt>
      <trkpt lat="44.19632" lon="5.93289">
        <ele>536</ele>
        <time>2019-06-04T10:02:53Z</time>
      </trkpt>
      <trkpt lat="44.19632" lon="5.93286">
        <ele>537</ele>
        <time>2019-06-04T10:02:54Z</time>
      </trkpt>
      <trkpt lat="44.19631" lon="5.93283">
        <ele>538</ele>
        <time>2019-06-04T10:02:55Z</time>
      </trkpt>
      <trkpt lat="44.1963" lon="5.9328">
        <ele>538</ele>
        <time>2019-06-04T10:02:56Z</time>
      </trkpt>
      <trkpt lat="44.19628" lon="5.93277">
        <ele>539</ele>
        <time>2019-06-04T10:02:57Z</time>
      </trkpt>
      <trkpt lat="44.19627" lon="5.93274">
        <ele>540</ele>
        <time>2019-06-04T10:02:58Z</time>
      </trkpt>
      <trkpt lat="44.19626" lon="5.93271">
        <ele>540</ele>
        <time>2019-06-04T10:02:59Z</time>
      </trkpt>
      <trkpt lat="44.19624" lon="5.93268">
        <ele>540</ele>
        <time>2019-06-04T10:03:00Z</time>
      </trkpt>
      <trkpt lat="44.19624" lon="5.93265">
        <ele>541</ele>
        <time>2019-06-04T10:03:01Z</time>
      </trkpt>
      <trkpt lat="44.19622" lon="5.93263">
        <ele>541</ele>
        <time>2019-06-04T10:03:02Z</time>
      </trkpt>
      <trkpt lat="44.19621" lon="5.9326">
        <ele>542</ele>
        <time>2019-06-04T10:03:03Z</time>
      </trkpt>
      <trkpt lat="44.19621" lon="5.93257">
        <ele>542</ele>
        <time>2019-06-04T10:03:04Z</time>
      </trkpt>
      <trkpt lat="44.1962" lon="5.93253">
        <ele>543</ele>
        <time>2019-06-04T10:03:05Z</time>
      </trkpt>
      <trkpt lat="44.1962" lon="5.9325">
        <ele>544</ele>
        <time>2019-06-04T10:03:06Z</time>
      </trkpt>
      <trkpt lat="44.19619" lon="5.93247">
        <ele>544</ele>
        <time>2019-06-04T10:03:07Z</time>
      </trkpt>
      <trkpt lat="44.19619" lon="5.93244">
        <ele>545</ele>
        <time>2019-06-04T10:03:08Z</time>
      </trkpt>
      <trkpt lat="44.19619" lon="5.93241">
        <ele>546</ele>
        <time>2019-06-04T10:03:09Z</time>
      </trkpt>
      <trkpt lat="44.19617" lon="5.93239">
        <ele>546</ele>
        <time>2019-06-04T10:03:10Z</time>
      </trkpt>
      <trkpt lat="44.19616" lon="5.93236">
        <ele>546</ele>
        <time>2019-06-04T10:03:11Z</time>
      </trkpt>
      <trkpt lat="44.19616" lon="5.93233">
        <ele>547</ele>
        <time>2019-06-04T10:03:12Z</time>
      </trkpt>
      <trkpt lat="44.19615" lon="5.9323">
        <ele>547</ele>
        <time>2019-06-04T10:03:13Z</time>
      </trkpt>
      <trkpt lat="44.19614" lon="5.93228">
        <ele>547</ele>
        <time>2019-06-04T10:03:14Z</time>
      </trkpt>
      <trkpt lat="44.19613" lon="5.93225">
        <ele>548</ele>
        <time>2019-06-04T10:03:15Z</time>
      </trkpt>
      <trkpt lat="44.19613" lon="5.93222">
        <ele>548</ele>
        <time>2019-06-04T10:03:16Z</time>
      </trkpt>
      <trkpt lat="44.19612" lon="5.93219">
        <ele>548</ele>
        <time>2019-06-04T10:03:17Z</time>
      </trkpt>
      <trkpt lat="44.19611" lon="5.93217">
        <ele>548</ele>
        <time>2019-06-04T10:03:18Z</time>
      </trkpt>
      <trkpt lat="44.1961" lon="5.93214">
        <ele>548</ele>
        <time>2019-06-04T10:03:19Z</time>
      </trkpt>
      <trkpt lat="44.19609" lon="5.93211">
        <ele>548</ele>
        <time>2019-06-04T10:03:20Z</time>
      </trkpt>
      <trkpt lat="44.19608" lon="5.93208">
        <ele>548</ele>
        <time>2019-06-04T10:03:21Z</time>
      </trkpt>
      <trkpt lat="44.19606" lon="5.93204">
        <ele>548</ele>
        <time>2019-06-04T10:03:22Z</time>
      </trkpt>
      <trkpt lat="44.19606" lon="5.93201">
        <ele>548</ele>
        <time>2019-06-04T10:03:23Z</time>
      </trkpt>
      <trkpt lat="44.19605" lon="5.93199">
        <ele>548</ele>
        <time>2019-06-04T10:03:24Z</time>
      </trkpt>
      <trkpt lat="44.19604" lon="5.93196">
        <ele>548</ele>
        <time>2019-06-04T10:03:25Z</time>
      </trkpt>
      <trkpt lat="44.19604" lon="5.93193">
        <ele>548</ele>
        <time>2019-06-04T10:03:26Z</time>
      </trkpt>
      <trkpt lat="44.19603" lon="5.9319">
        <ele>548</ele>
        <time>2019-06-04T10:03:27Z</time>
      </trkpt>
      <trkpt lat="44.19602" lon="5.93187">
        <ele>548</ele>
        <time>2019-06-04T10:03:28Z</time>
      </trkpt>
      <trkpt lat="44.19601" lon="5.93184">
        <ele>548</ele>
        <time>2019-06-04T10:03:29Z</time>
      </trkpt>
      <trkpt lat="44.196" lon="5.9318">
        <ele>548</ele>
        <time>2019-06-04T10:03:30Z</time>
      </trkpt>
      <trkpt lat="44.19599" lon="5.93177">
        <ele>548</ele>
        <time>2019-06-04T10:03:31Z</time>
      </trkpt>
      <trkpt lat="44.19598" lon="5.93173">
        <ele>548</ele>
        <time>2019-06-04T10:03:32Z</time>
      </trkpt>
      <trkpt lat="44.19597" lon="5.93169">
        <ele>548</ele>
        <time>2019-06-04T10:03:33Z</time>
      </trkpt>
      <trkpt lat="44.19596" lon="5.93166">
        <ele>548</ele>
        <time>2019-06-04T10:03:34Z</time>
      </trkpt>
      <trkpt lat="44.19595" lon="5.93162">
        <ele>548</ele>
        <time>2019-06-04T10:03:35Z</time>
      </trkpt>
      <trkpt lat="44.19595" lon="5.93158">
        <ele>548</ele>
        <time>2019-06-04T10:03:36Z</time>
      </trkpt>
      <trkpt lat="44.19594" lon="5.93154">
        <ele>547</ele>
        <time>2019-06-04T10:03:37Z</time>
      </trkpt>
      <trkpt lat="44.19593" lon="5.93149">
        <ele>547</ele>
        <time>2019-06-04T10:03:38Z</time>
      </trkpt>
      <trkpt lat="44.19593" lon="5.93144">
        <ele>547</ele>
        <time>2019-06-04T10:03:39Z</time>
      </trkpt>
      <trkpt lat="44.19593" lon="5.93139">
        <ele>547</ele>
        <time>2019-06-04T10:03:40Z</time>
      </trkpt>
      <trkpt lat="44.19593" lon="5.93134">
        <ele>547</ele>
        <time>2019-06-04T10:03:41Z</time>
      </trkpt>
      <trkpt lat="44.19592" lon="5.9313">
        <ele>547</ele>
        <time>2019-06-04T10:03:42Z</time>
      </trkpt>
      <trkpt lat="44.1959" lon="5.93126">
        <ele>547</ele>
        <time>2019-06-04T10:03:43Z</time>
      </trkpt>
      <trkpt lat="44.1959" lon="5.93121">
        <ele>547</ele>
        <time>2019-06-04T10:03:44Z</time>
      </trkpt>
      <trkpt lat="44.19589" lon="5.93115">
        <ele>547</ele>
        <time>2019-06-04T10:03:45Z</time>
      </trkpt>
      <trkpt lat="44.19589" lon="5.93109">
        <ele>547</ele>
        <time>2019-06-04T10:03:46Z</time>
      </trkpt>
      <trkpt lat="44.19589" lon="5.93103">
        <ele>547</ele>
        <time>2019-06-04T10:03:47Z</time>
      </trkpt>
      <trkpt lat="44.19589" lon="5.93097">
        <ele>547</ele>
        <time>2019-06-04T10:03:48Z</time>
      </trkpt>
      <trkpt lat="44.1959" lon="5.93091">
        <ele>547</ele>
        <time>2019-06-04T10:03:49Z</time>
      </trkpt>
      <trkpt lat="44.1959" lon="5.93085">
        <ele>547</ele>
        <time>2019-06-04T10:03:50Z</time>
      </trkpt>
      <trkpt lat="44.1959" lon="5.93079">
        <ele>547</ele>
        <time>2019-06-04T10:03:51Z</time>
      </trkpt>
      <trkpt lat="44.1959" lon="5.93073">
        <ele>547</ele>
        <time>2019-06-04T10:03:52Z</time>
      </trkpt>
      <trkpt lat="44.1959" lon="5.93067">
        <ele>547</ele>
        <time>2019-06-04T10:03:53Z</time>
      </trkpt>
      <trkpt lat="44.19591" lon="5.93061">
        <ele>547</ele>
        <time>2019-06-04T10:03:54Z</time>
      </trkpt>
      <trkpt lat="44.19591" lon="5.93055">
        <ele>547</ele>
        <time>2019-06-04T10:03:55Z</time>
      </trkpt>
      <trkpt lat="44.19592" lon="5.93049">
        <ele>547</ele>
        <time>2019-06-04T10:03:56Z</time>
      </trkpt>
      <trkpt lat="44.19592" lon="5.93043">
        <ele>547</ele>
        <time>2019-06-04T10:03:57Z</time>
      </trkpt>
      <trkpt lat="44.19593" lon="5.93037">
        <ele>548</ele>
        <time>2019-06-04T10:03:58Z</time>
      </trkpt>
      <trkpt lat="44.19594" lon="5.93031">
        <ele>548</ele>
        <time>2019-06-04T10:03:59Z</time>
      </trkpt>
      <trkpt lat="44.19595" lon="5.93025">
        <ele>548</ele>
        <time>2019-06-04T10:04:00Z</time>
      </trkpt>
      <trkpt lat="44.19596" lon="5.93019">
        <ele>548</ele>
        <time>2019-06-04T10:04:01Z</time>
      </trkpt>
      <trkpt lat="44.19597" lon="5.93013">
        <ele>549</ele>
        <time>2019-06-04T10:04:02Z</time>
      </trkpt>
      <trkpt lat="44.19598" lon="5.93006">
        <ele>549</ele>
        <time>2019-06-04T10:04:03Z</time>
      </trkpt>
      <trkpt lat="44.196" lon="5.92999">
        <ele>549</ele>
        <time>2019-06-04T10:04:04Z</time>
      </trkpt>
      <trkpt lat="44.19601" lon="5.92993">
        <ele>549</ele>
        <time>2019-06-04T10:04:05Z</time>
      </trkpt>
      <trkpt lat="44.19603" lon="5.92986">
        <ele>549</ele>
        <time>2019-06-04T10:04:06Z</time>
      </trkpt>
      <trkpt lat="44.19604" lon="5.9298">
        <ele>549</ele>
        <time>2019-06-04T10:04:07Z</time>
      </trkpt>
      <trkpt lat="44.19606" lon="5.92973">
        <ele>549</ele>
        <time>2019-06-04T10:04:08Z</time>
      </trkpt>
      <trkpt lat="44.19607" lon="5.92967">
        <ele>549</ele>
        <time>2019-06-04T10:04:09Z</time>
      </trkpt>
      <trkpt lat="44.19609" lon="5.9296">
        <ele>549</ele>
        <time>2019-06-04T10:04:10Z</time>
      </trkpt>
      <trkpt lat="44.19611" lon="5.92953">
        <ele>549</ele>
        <time>2019-06-04T10:04:11Z</time>
      </trkpt>
      <trkpt lat="44.19613" lon="5.92946">
        <ele>549</ele>
        <time>2019-06-04T10:04:12Z</time>
      </trkpt>
      <trkpt lat="44.19615" lon="5.92939">
        <ele>549</ele>
        <time>2019-06-04T10:04:13Z</time>
      </trkpt>
      <trkpt lat="44.19616" lon="5.92932">
        <ele>549</ele>
        <time>2019-06-04T10:04:14Z</time>
      </trkpt>
      <trkpt lat="44.19617" lon="5.92926">
        <ele>549</ele>
        <time>2019-06-04T10:04:15Z</time>
      </trkpt>
      <trkpt lat="44.19619" lon="5.92919">
        <ele>549</ele>
        <time>2019-06-04T10:04:16Z</time>
      </trkpt>
      <trkpt lat="44.19619" lon="5.92912">
        <ele>549</ele>
        <time>2019-06-04T10:04:17Z</time>
      </trkpt>
      <trkpt lat="44.1962" lon="5.92905">
        <ele>549</ele>
        <time>2019-06-04T10:04:18Z</time>
      </trkpt>
      <trkpt lat="44.19619" lon="5.92897">
        <ele>549</ele>
        <time>2019-06-04T10:04:19Z</time>
      </trkpt>
      <trkpt lat="44.19619" lon="5.9289">
        <ele>549</ele>
        <time>2019-06-04T10:04:20Z</time>
      </trkpt>
      <trkpt lat="44.19617" lon="5.92884">
        <ele>549</ele>
        <time>2019-06-04T10:04:21Z</time>
      </trkpt>
      <trkpt lat="44.19615" lon="5.92878">
        <ele>549</ele>
        <time>2019-06-04T10:04:22Z</time>
      </trkpt>
      <trkpt lat="44.19613" lon="5.92873">
        <ele>549</ele>
        <time>2019-06-04T10:04:23Z</time>
      </trkpt>
      <trkpt lat="44.19611" lon="5.92867">
        <ele>549</ele>
        <time>2019-06-04T10:04:24Z</time>
      </trkpt>
      <trkpt lat="44.19609" lon="5.9286">
        <ele>549</ele>
        <time>2019-06-04T10:04:25Z</time>
      </trkpt>
      <trkpt lat="44.19606" lon="5.92853">
        <ele>549</ele>
        <time>2019-06-04T10:04:26Z</time>
      </trkpt>
      <trkpt lat="44.19604" lon="5.92846">
        <ele>549</ele>
        <time>2019-06-04T10:04:27Z</time>
      </trkpt>
      <trkpt lat="44.19603" lon="5.92838">
        <ele>549</ele>
        <time>2019-06-04T10:04:28Z</time>
      </trkpt>
      <trkpt lat="44.19602" lon="5.92831">
        <ele>549</ele>
        <time>2019-06-04T10:04:29Z</time>
      </trkpt>
      <trkpt lat="44.196" lon="5.92824">
        <ele>549</ele>
        <time>2019-06-04T10:04:30Z</time>
      </trkpt>
      <trkpt lat="44.19598" lon="5.92817">
        <ele>549</ele>
        <time>2019-06-04T10:04:31Z</time>
      </trkpt>
      <trkpt lat="44.19596" lon="5.9281">
        <ele>549</ele>
        <time>2019-06-04T10:04:32Z</time>
      </trkpt>
      <trkpt lat="44.19595" lon="5.92803">
        <ele>549</ele>
        <time>2019-06-04T10:04:33Z</time>
      </trkpt>
      <trkpt lat="44.19594" lon="5.92797">
        <ele>549</ele>
        <time>2019-06-04T10:04:34Z</time>
      </trkpt>
      <trkpt lat="44.19593" lon="5.9279">
        <ele>549</ele>
        <time>2019-06-04T10:04:35Z</time>
      </trkpt>
      <trkpt lat="44.19592" lon="5.92783">
        <ele>549</ele>
        <time>2019-06-04T10:04:36Z</time>
      </trkpt>
      <trkpt lat="44.19591" lon="5.92777">
        <ele>549</ele>
        <time>2019-06-04T10:04:37Z</time>
      </trkpt>
      <trkpt lat="44.1959" lon="5.9277">
        <ele>549</ele>
        <time>2019-06-04T10:04:38Z</time>
      </trkpt>
      <trkpt lat="44.1959" lon="5.92764">
        <ele>549</ele>
        <time>2019-06-04T10:04:39Z</time>
      </trkpt>
      <trkpt lat="44.19589" lon="5.92757">
        <ele>549</ele>
        <time>2019-06-04T10:04:40Z</time>
      </trkpt>
      <trkpt lat="44.19588" lon="5.92751">
        <ele>549</ele>
        <time>2019-06-04T10:04:41Z</time>
      </trkpt>
      <trkpt lat="44.19588" lon="5.92745">
        <ele>549</ele>
        <time>2019-06-04T10:04:42Z</time>
      </trkpt>
      <trkpt lat="44.19588" lon="5.92738">
        <ele>549</ele>
        <time>2019-06-04T10:04:43Z</time>
      </trkpt>
      <trkpt lat="44.19587" lon="5.92732">
        <ele>549</ele>
        <time>2019-06-04T10:04:44Z</time>
      </trkpt>
      <trkpt lat="44.19587" lon="5.92727">
        <ele>549</ele>
        <time>2019-06-04T10:04:45Z</time>
      </trkpt>
      <trkpt lat="44.19587" lon="5.9272">
        <ele>549</ele>
        <time>2019-06-04T10:04:46Z</time>
      </trkpt>
      <trkpt lat="44.19587" lon="5.92714">
        <ele>549</ele>
        <time>2019-06-04T10:04:47Z</time>
      </trkpt>
      <trkpt lat="44.19587" lon="5.92707">
        <ele>549</ele>
        <time>2019-06-04T10:04:48Z</time>
      </trkpt>
      <trkpt lat="44.19586" lon="5.92701">
        <ele>550</ele>
        <time>2019-06-04T10:04:49Z</time>
      </trkpt>
      <trkpt lat="44.19586" lon="5.92695">
        <ele>550</ele>
        <time>2019-06-04T10:04:50Z</time>
      </trkpt>
      <trkpt lat="44.19586" lon="5.92689">
        <ele>550</ele>
        <time>2019-06-04T10:04:51Z</time>
      </trkpt>
      <trkpt lat="44.19585" lon="5.92683">
        <ele>551</ele>
        <time>2019-06-04T10:04:52Z</time>
      </trkpt>
      <trkpt lat="44.19585" lon="5.92677">
        <ele>551</ele>
        <time>2019-06-04T10:04:53Z</time>
      </trkpt>
      <trkpt lat="44.19584" lon="5.92671">
        <ele>551</ele>
        <time>2019-06-04T10:04:54Z</time>
      </trkpt>
      <trkpt lat="44.19583" lon="5.92665">
        <ele>551</ele>
        <time>2019-06-04T10:04:55Z</time>
      </trkpt>
      <trkpt lat="44.19582" lon="5.92659">
        <ele>551</ele>
        <time>2019-06-04T10:04:56Z</time>
      </trkpt>
      <trkpt lat="44.19582" lon="5.92653">
        <ele>552</ele>
        <time>2019-06-04T10:04:57Z</time>
      </trkpt>
      <trkpt lat="44.19581" lon="5.92647">
        <ele>552</ele>
        <time>2019-06-04T10:04:58Z</time>
      </trkpt>
      <trkpt lat="44.1958" lon="5.92641">
        <ele>552</ele>
        <time>2019-06-04T10:04:59Z</time>
      </trkpt>
      <trkpt lat="44.19579" lon="5.92635">
        <ele>552</ele>
        <time>2019-06-04T10:05:00Z</time>
      </trkpt>
      <trkpt lat="44.19579" lon="5.92629">
        <ele>552</ele>
        <time>2019-06-04T10:05:01Z</time>
      </trkpt>
      <trkpt lat="44.19578" lon="5.92623">
        <ele>552</ele>
        <time>2019-06-04T10:05:02Z</time>
      </trkpt>
      <trkpt lat="44.19578" lon="5.92617">
        <ele>552</ele>
        <time>2019-06-04T10:05:03Z</time>
      </trkpt>
      <trkpt lat="44.19577" lon="5.9261">
        <ele>552</ele>
        <time>2019-06-04T10:05:04Z</time>
      </trkpt>
      <trkpt lat="44.19577" lon="5.92604">
        <ele>552</ele>
        <time>2019-06-04T10:05:05Z</time>
      </trkpt>
      <trkpt lat="44.19577" lon="5.92597">
        <ele>552</ele>
        <time>2019-06-04T10:05:06Z</time>
      </trkpt>
      <trkpt lat="44.19577" lon="5.92591">
        <ele>553</ele>
        <time>2019-06-04T10:05:07Z</time>
      </trkpt>
      <trkpt lat="44.19576" lon="5.92585">
        <ele>553</ele>
        <time>2019-06-04T10:05:08Z</time>
      </trkpt>
      <trkpt lat="44.19576" lon="5.92578">
        <ele>553</ele>
        <time>2019-06-04T10:05:09Z</time>
      </trkpt>
      <trkpt lat="44.19576" lon="5.92572">
        <ele>553</ele>
        <time>2019-06-04T10:05:10Z</time>
      </trkpt>
      <trkpt lat="44.19576" lon="5.92565">
        <ele>553</ele>
        <time>2019-06-04T10:05:11Z</time>
      </trkpt>
      <trkpt lat="44.19577" lon="5.92559">
        <ele>554</ele>
        <time>2019-06-04T10:05:12Z</time>
      </trkpt>
      <trkpt lat="44.19577" lon="5.92553">
        <ele>554</ele>
        <time>2019-06-04T10:05:13Z</time>
      </trkpt>
      <trkpt lat="44.19577" lon="5.92546">
        <ele>554</ele>
        <time>2019-06-04T10:05:14Z</time>
      </trkpt>
      <trkpt lat="44.19577" lon="5.9254">
        <ele>554</ele>
        <time>2019-06-04T10:05:15Z</time>
      </trkpt>
      <trkpt lat="44.19577" lon="5.92534">
        <ele>555</ele>
        <time>2019-06-04T10:05:16Z</time>
      </trkpt>
      <trkpt lat="44.19577" lon="5.92528">
        <ele>555</ele>
        <time>2019-06-04T10:05:17Z</time>
      </trkpt>
      <trkpt lat="44.19577" lon="5.92521">
        <ele>555</ele>
        <time>2019-06-04T10:05:18Z</time>
      </trkpt>
      <trkpt lat="44.19577" lon="5.92515">
        <ele>555</ele>
        <time>2019-06-04T10:05:19Z</time>
      </trkpt>
      <trkpt lat="44.19576" lon="5.92509">
        <ele>555</ele>
        <time>2019-06-04T10:05:20Z</time>
      </trkpt>
      <trkpt lat="44.19575" lon="5.92502">
        <ele>555</ele>
        <time>2019-06-04T10:05:21Z</time>
      </trkpt>
      <trkpt lat="44.19574" lon="5.92495">
        <ele>555</ele>
        <time>2019-06-04T10:05:22Z</time>
      </trkpt>
      <trkpt lat="44.19574" lon="5.92488">
        <ele>555</ele>
        <time>2019-06-04T10:05:23Z</time>
      </trkpt>
      <trkpt lat="44.19573" lon="5.92481">
        <ele>555</ele>
        <time>2019-06-04T10:05:24Z</time>
      </trkpt>
      <trkpt lat="44.19573" lon="5.92473">
        <ele>555</ele>
        <time>2019-06-04T10:05:25Z</time>
      </trkpt>
      <trkpt lat="44.19572" lon="5.92466">
        <ele>555</ele>
        <time>2019-06-04T10:05:26Z</time>
      </trkpt>
      <trkpt lat="44.19571" lon="5.92459">
        <ele>555</ele>
        <time>2019-06-04T10:05:27Z</time>
      </trkpt>
      <trkpt lat="44.19571" lon="5.92451">
        <ele>555</ele>
        <time>2019-06-04T10:05:28Z</time>
      </trkpt>
      <trkpt lat="44.19571" lon="5.92443">
        <ele>555</ele>
        <time>2019-06-04T10:05:29Z</time>
      </trkpt>
      <trkpt lat="44.19571" lon="5.92434">
        <ele>555</ele>
        <time>2019-06-04T10:05:30Z</time>
      </trkpt>
      <trkpt lat="44.19571" lon="5.92426">
        <ele>555</ele>
        <time>2019-06-04T10:05:31Z</time>
      </trkpt>
      <trkpt lat="44.19571" lon="5.92418">
        <ele>555</ele>
        <time>2019-06-04T10:05:32Z</time>
      </trkpt>
      <trkpt lat="44.1957" lon="5.9241">
        <ele>555</ele>
        <time>2019-06-04T10:05:33Z</time>
      </trkpt>
      <trkpt lat="44.1957" lon="5.92402">
        <ele>555</ele>
        <time>2019-06-04T10:05:34Z</time>
      </trkpt>
      <trkpt lat="44.1957" lon="5.92393">
        <ele>555</ele>
        <time>2019-06-04T10:05:35Z</time>
      </trkpt>
      <trkpt lat="44.19569" lon="5.92385">
        <ele>555</ele>
        <time>2019-06-04T10:05:36Z</time>
      </trkpt>
      <trkpt lat="44.19569" lon="5.92377">
        <ele>555</ele>
        <time>2019-06-04T10:05:37Z</time>
      </trkpt>
      <trkpt lat="44.19569" lon="5.92369">
        <ele>555</ele>
        <time>2019-06-04T10:05:38Z</time>
      </trkpt>
      <trkpt lat="44.19568" lon="5.92361">
        <ele>555</ele>
        <time>2019-06-04T10:05:39Z</time>
      </trkpt>
      <trkpt lat="44.19568" lon="5.92353">
        <ele>555</ele>
        <time>2019-06-04T10:05:40Z</time>
      </trkpt>
      <trkpt lat="44.19567" lon="5.92345">
        <ele>555</ele>
        <time>2019-06-04T10:05:41Z</time>
      </trkpt>
      <trkpt lat="44.19566" lon="5.92338">
        <ele>555</ele>
        <time>2019-06-04T10:05:42Z</time>
      </trkpt>
      <trkpt lat="44.19565" lon="5.92331">
        <ele>555</ele>
        <time>2019-06-04T10:05:43Z</time>
      </trkpt>
      <trkpt lat="44.19564" lon="5.92323">
        <ele>555</ele>
        <time>2019-06-04T10:05:44Z</time>
      </trkpt>
      <trkpt lat="44.19562" lon="5.92316">
        <ele>555</ele>
        <time>2019-06-04T10:05:45Z</time>
      </trkpt>
      <trkpt lat="44.19562" lon="5.92308">
        <ele>555</ele>
        <time>2019-06-04T10:05:46Z</time>
      </trkpt>
      <trkpt lat="44.19561" lon="5.923">
        <ele>555</ele>
        <time>2019-06-04T10:05:47Z</time>
      </trkpt>
      <trkpt lat="44.19559" lon="5.92293">
        <ele>555</ele>
        <time>2019-06-04T10:05:48Z</time>
      </trkpt>
      <trkpt lat="44.1956" lon="5.92284">
        <ele>555</ele>
        <time>2019-06-04T10:05:49Z</time>
      </trkpt>
      <trkpt lat="44.19559" lon="5.92276">
        <ele>555</ele>
        <time>2019-06-04T10:05:50Z</time>
      </trkpt>
      <trkpt lat="44.1956" lon="5.92267">
        <ele>556</ele>
        <time>2019-06-04T10:05:51Z</time>
      </trkpt>
      <trkpt lat="44.1956" lon="5.92258">
        <ele>556</ele>
        <time>2019-06-04T10:05:52Z</time>
      </trkpt>
      <trkpt lat="44.1956" lon="5.92249">
        <ele>556</ele>
        <time>2019-06-04T10:05:53Z</time>
      </trkpt>
      <trkpt lat="44.19559" lon="5.92241">
        <ele>557</ele>
        <time>2019-06-04T10:05:54Z</time>
      </trkpt>
      <trkpt lat="44.19559" lon="5.92232">
        <ele>557</ele>
        <time>2019-06-04T10:05:55Z</time>
      </trkpt>
      <trkpt lat="44.19559" lon="5.92224">
        <ele>557</ele>
        <time>2019-06-04T10:05:56Z</time>
      </trkpt>
      <trkpt lat="44.19558" lon="5.92215">
        <ele>558</ele>
        <time>2019-06-04T10:05:57Z</time>
      </trkpt>
      <trkpt lat="44.19558" lon="5.92206">
        <ele>558</ele>
        <time>2019-06-04T10:05:58Z</time>
      </trkpt>
      <trkpt lat="44.19558" lon="5.92198">
        <ele>558</ele>
        <time>2019-06-04T10:05:59Z</time>
      </trkpt>
      <trkpt lat="44.19558" lon="5.9219">
        <ele>558</ele>
        <time>2019-06-04T10:06:00Z</time>
      </trkpt>
      <trkpt lat="44.19558" lon="5.92181">
        <ele>558</ele>
        <time>2019-06-04T10:06:01Z</time>
      </trkpt>
      <trkpt lat="44.19559" lon="5.92172">
        <ele>558</ele>
        <time>2019-06-04T10:06:02Z</time>
      </trkpt>
      <trkpt lat="44.1956" lon="5.92164">
        <ele>558</ele>
        <time>2019-06-04T10:06:03Z</time>
      </trkpt>
      <trkpt lat="44.19561" lon="5.92156">
        <ele>558</ele>
        <time>2019-06-04T10:06:04Z</time>
      </trkpt>
      <trkpt lat="44.19562" lon="5.92147">
        <ele>558</ele>
        <time>2019-06-04T10:06:05Z</time>
      </trkpt>
      <trkpt lat="44.19564" lon="5.92139">
        <ele>558</ele>
        <time>2019-06-04T10:06:06Z</time>
      </trkpt>
      <trkpt lat="44.19566" lon="5.9213">
        <ele>558</ele>
        <time>2019-06-04T10:06:07Z</time>
      </trkpt>
      <trkpt lat="44.19567" lon="5.92122">
        <ele>558</ele>
        <time>2019-06-04T10:06:08Z</time>
      </trkpt>
      <trkpt lat="44.19569" lon="5.92113">
        <ele>558</ele>
        <time>2019-06-04T10:06:09Z</time>
      </trkpt>
      <trkpt lat="44.19571" lon="5.92105">
        <ele>558</ele>
        <time>2019-06-04T10:06:10Z</time>
      </trkpt>
      <trkpt lat="44.19572" lon="5.92097">
        <ele>558</ele>
        <time>2019-06-04T10:06:11Z</time>
      </trkpt>
      <trkpt lat="44.19574" lon="5.92089">
        <ele>558</ele>
        <time>2019-06-04T10:06:12Z</time>
      </trkpt>
      <trkpt lat="44.19577" lon="5.9208">
        <ele>558</ele>
        <time>2019-06-04T10:06:13Z</time>
      </trkpt>
      <trkpt lat="44.1958" lon="5.92072">
        <ele>558</ele>
        <time>2019-06-04T10:06:14Z</time>
      </trkpt>
      <trkpt lat="44.19582" lon="5.92065">
        <ele>558</ele>
        <time>2019-06-04T10:06:15Z</time>
      </trkpt>
      <trkpt lat="44.19585" lon="5.92056">
        <ele>558</ele>
        <time>2019-06-04T10:06:16Z</time>
      </trkpt>
      <trkpt lat="44.19587" lon="5.92048">
        <ele>558</ele>
        <time>2019-06-04T10:06:17Z</time>
      </trkpt>
      <trkpt lat="44.1959" lon="5.9204">
        <ele>558</ele>
        <time>2019-06-04T10:06:18Z</time>
      </trkpt>
      <trkpt lat="44.19592" lon="5.92032">
        <ele>558</ele>
        <time>2019-06-04T10:06:19Z</time>
      </trkpt>
      <trkpt lat="44.19593" lon="5.92024">
        <ele>558</ele>
        <time>2019-06-04T10:06:20Z</time>
      </trkpt>
      <trkpt lat="44.19594" lon="5.92016">
        <ele>558</ele>
        <time>2019-06-04T10:06:21Z</time>
      </trkpt>
      <trkpt lat="44.19595" lon="5.92008">
        <ele>558</ele>
        <time>2019-06-04T10:06:22Z</time>
      </trkpt>
      <trkpt lat="44.19596" lon="5.92">
        <ele>558</ele>
        <time>2019-06-04T10:06:23Z</time>
      </trkpt>
      <trkpt lat="44.19597" lon="5.91992">
        <ele>558</ele>
        <time>2019-06-04T10:06:24Z</time>
      </trkpt>
      <trkpt lat="44.19598" lon="5.91984">
        <ele>558</ele>
        <time>2019-06-04T10:06:25Z</time>
      </trkpt>
      <trkpt lat="44.19599" lon="5.91976">
        <ele>558</ele>
        <time>2019-06-04T10:06:26Z</time>
      </trkpt>
      <trkpt lat="44.196" lon="5.91969">
        <ele>558</ele>
        <time>2019-06-04T10:06:27Z</time>
      </trkpt>
      <trkpt lat="44.19601" lon="5.91962">
        <ele>558</ele>
        <time>2019-06-04T10:06:28Z</time>
      </trkpt>
      <trkpt lat="44.19602" lon="5.91956">
        <ele>558</ele>
        <time>2019-06-04T10:06:29Z</time>
      </trkpt>
      <trkpt lat="44.19603" lon="5.91949">
        <ele>558</ele>
        <time>2019-06-04T10:06:30Z</time>
      </trkpt>
      <trkpt lat="44.19605" lon="5.91942">
        <ele>558</ele>
        <time>2019-06-04T10:06:31Z</time>
      </trkpt>
      <trkpt lat="44.19606" lon="5.91934">
        <ele>558</ele>
        <time>2019-06-04T10:06:32Z</time>
      </trkpt>
      <trkpt lat="44.19607" lon="5.91927">
        <ele>558</ele>
        <time>2019-06-04T10:06:33Z</time>
      </trkpt>
      <trkpt lat="44.19608" lon="5.9192">
        <ele>558</ele>
        <time>2019-06-04T10:06:34Z</time>
      </trkpt>
      <trkpt lat="44.19609" lon="5.91913">
        <ele>558</ele>
        <time>2019-06-04T10:06:35Z</time>
      </trkpt>
      <trkpt lat="44.1961" lon="5.91906">
        <ele>558</ele>
        <time>2019-06-04T10:06:36Z</time>
      </trkpt>
      <trkpt lat="44.19611" lon="5.91899">
        <ele>558</ele>
        <time>2019-06-04T10:06:37Z</time>
      </trkpt>
      <trkpt lat="44.19612" lon="5.91892">
        <ele>558</ele>
        <time>2019-06-04T10:06:38Z</time>
      </trkpt>
      <trkpt lat="44.19612" lon="5.91885">
        <ele>558</ele>
        <time>2019-06-04T10:06:39Z</time>
      </trkpt>
      <trkpt lat="44.19612" lon="5.91878">
        <ele>558</ele>
        <time>2019-06-04T10:06:40Z</time>
      </trkpt>
      <trkpt lat="44.19612" lon="5.9187">
        <ele>558</ele>
        <time>2019-06-04T10:06:41Z</time>
      </trkpt>
      <trkpt lat="44.19612" lon="5.91863">
        <ele>558</ele>
        <time>2019-06-04T10:06:42Z</time>
      </trkpt>
      <trkpt lat="44.19612" lon="5.91856">
        <ele>558</ele>
        <time>2019-06-04T10:06:43Z</time>
      </trkpt>
      <trkpt lat="44.19612" lon="5.91849">
        <ele>558</ele>
        <time>2019-06-04T10:06:44Z</time>
      </trkpt>
      <trkpt lat="44.19612" lon="5.91841">
        <ele>558</ele>
        <time>2019-06-04T10:06:45Z</time>
      </trkpt>
      <trkpt lat="44.19611" lon="5.91833">
        <ele>558</ele>
        <time>2019-06-04T10:06:46Z</time>
      </trkpt>
      <trkpt lat="44.19611" lon="5.91825">
        <ele>558</ele>
        <time>2019-06-04T10:06:47Z</time>
      </trkpt>
      <trkpt lat="44.19611" lon="5.91818">
        <ele>558</ele>
        <time>2019-06-04T10:06:48Z</time>
      </trkpt>
      <trkpt lat="44.19611" lon="5.9181">
        <ele>558</ele>
        <time>2019-06-04T10:06:49Z</time>
      </trkpt>
      <trkpt lat="44.1961" lon="5.91802">
        <ele>558</ele>
        <time>2019-06-04T10:06:50Z</time>
      </trkpt>
      <trkpt lat="44.1961" lon="5.91794">
        <ele>558</ele>
        <time>2019-06-04T10:06:51Z</time>
      </trkpt>
      <trkpt lat="44.19611" lon="5.91786">
        <ele>558</ele>
        <time>2019-06-04T10:06:52Z</time>
      </trkpt>
      <trkpt lat="44.1961" lon="5.91779">
        <ele>558</ele>
        <time>2019-06-04T10:06:53Z</time>
      </trkpt>
      <trkpt lat="44.1961" lon="5.91771">
        <ele>558</ele>
        <time>2019-06-04T10:06:54Z</time>
      </trkpt>
      <trkpt lat="44.19609" lon="5.91764">
        <ele>558</ele>
        <time>2019-06-04T10:06:55Z</time>
      </trkpt>
      <trkpt lat="44.19608" lon="5.91757">
        <ele>558</ele>
        <time>2019-06-04T10:06:56Z</time>
      </trkpt>
      <trkpt lat="44.19607" lon="5.9175">
        <ele>558</ele>
        <time>2019-06-04T10:06:57Z</time>
      </trkpt>
      <trkpt lat="44.19607" lon="5.91744">
        <ele>558</ele>
        <time>2019-06-04T10:06:58Z</time>
      </trkpt>
      <trkpt lat="44.19607" lon="5.91737">
        <ele>558</ele>
        <time>2019-06-04T10:06:59Z</time>
      </trkpt>
      <trkpt lat="44.19607" lon="5.9173">
        <ele>558</ele>
        <time>2019-06-04T10:07:00Z</time>
      </trkpt>
      <trkpt lat="44.19607" lon="5.91725">
        <ele>558</ele>
        <time>2019-06-04T10:07:01Z</time>
      </trkpt>
      <trkpt lat="44.19607" lon="5.91719">
        <ele>558</ele>
        <time>2019-06-04T10:07:02Z</time>
      </trkpt>
      <trkpt lat="44.19607" lon="5.91713">
        <ele>558</ele>
        <time>2019-06-04T10:07:03Z</time>
      </trkpt>
      <trkpt lat="44.19608" lon="5.91707">
        <ele>559</ele>
        <time>2019-06-04T10:07:04Z</time>
      </trkpt>
      <trkpt lat="44.19607" lon="5.91701">
        <ele>559</ele>
        <time>2019-06-04T10:07:05Z</time>
      </trkpt>
      <trkpt lat="44.19607" lon="5.91695">
        <ele>559</ele>
        <time>2019-06-04T10:07:06Z</time>
      </trkpt>
      <trkpt lat="44.19608" lon="5.91689">
        <ele>560</ele>
        <time>2019-06-04T10:07:07Z</time>
      </trkpt>
      <trkpt lat="44.19609" lon="5.91683">
        <ele>560</ele>
        <time>2019-06-04T10:07:08Z</time>
      </trkpt>
      <trkpt lat="44.19609" lon="5.91678">
        <ele>560</ele>
        <time>2019-06-04T10:07:09Z</time>
      </trkpt>
      <trkpt lat="44.1961" lon="5.91672">
        <ele>560</ele>
        <time>2019-06-04T10:07:10Z</time>
      </trkpt>
      <trkpt lat="44.19611" lon="5.91667">
        <ele>560</ele>
        <time>2019-06-04T10:07:11Z</time>
      </trkpt>
      <trkpt lat="44.19612" lon="5.91661">
        <ele>560</ele>
        <time>2019-06-04T10:07:12Z</time>
      </trkpt>
      <trkpt lat="44.19614" lon="5.91656">
        <ele>560</ele>
        <time>2019-06-04T10:07:13Z</time>
      </trkpt>
      <trkpt lat="44.19615" lon="5.9165">
        <ele>560</ele>
        <time>2019-06-04T10:07:14Z</time>
      </trkpt>
      <trkpt lat="44.19617" lon="5.91645">
        <ele>560</ele>
        <time>2019-06-04T10:07:15Z</time>
      </trkpt>
      <trkpt lat="44.19618" lon="5.9164">
        <ele>560</ele>
        <time>2019-06-04T10:07:16Z</time>
      </trkpt>
      <trkpt lat="44.1962" lon="5.91635">
        <ele>560</ele>
        <time>2019-06-04T10:07:17Z</time>
      </trkpt>
      <trkpt lat="44.19622" lon="5.91629">
        <ele>560</ele>
        <time>2019-06-04T10:07:18Z</time>
      </trkpt>
      <trkpt lat="44.19624" lon="5.91624">
        <ele>560</ele>
        <time>2019-06-04T10:07:19Z</time>
      </trkpt>
      <trkpt lat="44.19625" lon="5.91618">
        <ele>560</ele>
        <time>2019-06-04T10:07:20Z</time>
      </trkpt>
      <trkpt lat="44.19627" lon="5.91613">
        <ele>560</ele>
        <time>2019-06-04T10:07:21Z</time>
      </trkpt>
      <trkpt lat="44.19628" lon="5.91608">
        <ele>560</ele>
        <time>2019-06-04T10:07:22Z</time>
      </trkpt>
      <trkpt lat="44.1963" lon="5.91602">
        <ele>560</ele>
        <time>2019-06-04T10:07:23Z</time>
      </trkpt>
      <trkpt lat="44.19631" lon="5.91597">
        <ele>560</ele>
        <time>2019-06-04T10:07:24Z</time>
      </trkpt>
      <trkpt lat="44.19633" lon="5.91592">
        <ele>560</ele>
        <time>2019-06-04T10:07:25Z</time>
      </trkpt>
      <trkpt lat="44.19634" lon="5.91586">
        <ele>560</ele>
        <time>2019-06-04T10:07:26Z</time>
      </trkpt>
      <trkpt lat="44.19636" lon="5.9158">
        <ele>560</ele>
        <time>2019-06-04T10:07:27Z</time>
      </trkpt>
      <trkpt lat="44.19638" lon="5.91575">
        <ele>560</ele>
        <time>2019-06-04T10:07:28Z</time>
      </trkpt>
      <trkpt lat="44.1964" lon="5.91569">
        <ele>560</ele>
        <time>2019-06-04T10:07:29Z</time>
      </trkpt>
      <trkpt lat="44.19641" lon="5.91564">
        <ele>560</ele>
        <time>2019-06-04T10:07:30Z</time>
      </trkpt>
      <trkpt lat="44.19642" lon="5.91559">
        <ele>560</ele>
        <time>2019-06-04T10:07:31Z</time>
      </trkpt>
      <trkpt lat="44.19644" lon="5.91553">
        <ele>560</ele>
        <time>2019-06-04T10:07:32Z</time>
      </trkpt>
      <trkpt lat="44.19645" lon="5.91547">
        <ele>560</ele>
        <time>2019-06-04T10:07:33Z</time>
      </trkpt>
      <trkpt lat="44.19646" lon="5.91542">
        <ele>560</ele>
        <time>2019-06-04T10:07:34Z</time>
      </trkpt>
      <trkpt lat="44.19648" lon="5.91537">
        <ele>560</ele>
        <time>2019-06-04T10:07:35Z</time>
      </trkpt>
      <trkpt lat="44.1965" lon="5.91532">
        <ele>560</ele>
        <time>2019-06-04T10:07:36Z</time>
      </trkpt>
      <trkpt lat="44.19652" lon="5.91527">
        <ele>560</ele>
        <time>2019-06-04T10:07:37Z</time>
      </trkpt>
      <trkpt lat="44.19654" lon="5.91521">
        <ele>560</ele>
        <time>2019-06-04T10:07:38Z</time>
      </trkpt>
      <trkpt lat="44.19656" lon="5.91516">
        <ele>560</ele>
        <time>2019-06-04T10:07:39Z</time>
      </trkpt>
      <trkpt lat="44.19658" lon="5.9151">
        <ele>560</ele>
        <time>2019-06-04T10:07:40Z</time>
      </trkpt>
      <trkpt lat="44.1966" lon="5.91505">
        <ele>560</ele>
        <time>2019-06-04T10:07:41Z</time>
      </trkpt>
      <trkpt lat="44.19662" lon="5.91499">
        <ele>561</ele>
        <time>2019-06-04T10:07:42Z</time>
      </trkpt>
      <trkpt lat="44.19664" lon="5.91493">
        <ele>561</ele>
        <time>2019-06-04T10:07:43Z</time>
      </trkpt>
      <trkpt lat="44.19666" lon="5.91487">
        <ele>561</ele>
        <time>2019-06-04T10:07:44Z</time>
      </trkpt>
      <trkpt lat="44.19668" lon="5.91481">
        <ele>562</ele>
        <time>2019-06-04T10:07:45Z</time>
      </trkpt>
      <trkpt lat="44.1967" lon="5.91476">
        <ele>563</ele>
        <time>2019-06-04T10:07:46Z</time>
      </trkpt>
      <trkpt lat="44.19672" lon="5.9147">
        <ele>563</ele>
        <time>2019-06-04T10:07:47Z</time>
      </trkpt>
      <trkpt lat="44.19674" lon="5.91464">
        <ele>563</ele>
        <time>2019-06-04T10:07:48Z</time>
      </trkpt>
      <trkpt lat="44.19677" lon="5.91459">
        <ele>564</ele>
        <time>2019-06-04T10:07:49Z</time>
      </trkpt>
      <trkpt lat="44.19679" lon="5.91453">
        <ele>564</ele>
        <time>2019-06-04T10:07:50Z</time>
      </trkpt>
      <trkpt lat="44.19681" lon="5.91446">
        <ele>564</ele>
        <time>2019-06-04T10:07:51Z</time>
      </trkpt>
      <trkpt lat="44.19684" lon="5.9144">
        <ele>565</ele>
        <time>2019-06-04T10:07:52Z</time>
      </trkpt>
      <trkpt lat="44.19686" lon="5.91434">
        <ele>566</ele>
        <time>2019-06-04T10:07:53Z</time>
      </trkpt>
      <trkpt lat="44.19688" lon="5.91429">
        <ele>566</ele>
        <time>2019-06-04T10:07:54Z</time>
      </trkpt>
      <trkpt lat="44.1969" lon="5.91423">
        <ele>567</ele>
        <time>2019-06-04T10:07:55Z</time>
      </trkpt>
      <trkpt lat="44.19693" lon="5.91418">
        <ele>568</ele>
        <time>2019-06-04T10:07:56Z</time>
      </trkpt>
      <trkpt lat="44.19696" lon="5.91412">
        <ele>568</ele>
        <time>2019-06-04T10:07:57Z</time>
      </trkpt>
      <trkpt lat="44.19699" lon="5.91406">
        <ele>569</ele>
        <time>2019-06-04T10:07:58Z</time>
      </trkpt>
      <trkpt lat="44.19701" lon="5.91401">
        <ele>570</ele>
        <time>2019-06-04T10:07:59Z</time>
      </trkpt>
      <trkpt lat="44.19703" lon="5.91395">
        <ele>570</ele>
        <time>2019-06-04T10:08:00Z</time>
      </trkpt>
      <trkpt lat="44.19705" lon="5.9139">
        <ele>570</ele>
        <time>2019-06-04T10:08:01Z</time>
      </trkpt>
      <trkpt lat="44.19707" lon="5.91385">
        <ele>571</ele>
        <time>2019-06-04T10:08:02Z</time>
      </trkpt>
      <trkpt lat="44.19709" lon="5.91379">
        <ele>571</ele>
        <time>2019-06-04T10:08:03Z</time>
      </trkpt>
      <trkpt lat="44.19712" lon="5.91373">
        <ele>571</ele>
        <time>2019-06-04T10:08:04Z</time>
      </trkpt>
      <trkpt lat="44.19714" lon="5.91368">
        <ele>571</ele>
        <time>2019-06-04T10:08:05Z</time>
      </trkpt>
      <trkpt lat="44.19717" lon="5.91361">
        <ele>571</ele>
        <time>2019-06-04T10:08:06Z</time>
      </trkpt>
      <trkpt lat="44.19719" lon="5.91355">
        <ele>571</ele>
        <time>2019-06-04T10:08:07Z</time>
      </trkpt>
      <trkpt lat="44.19721" lon="5.91348">
        <ele>571</ele>
        <time>2019-06-04T10:08:08Z</time>
      </trkpt>
      <trkpt lat="44.19724" lon="5.9134">
        <ele>571</ele>
        <time>2019-06-04T10:08:09Z</time>
      </trkpt>
      <trkpt lat="44.19727" lon="5.91332">
        <ele>571</ele>
        <time>2019-06-04T10:08:10Z</time>
      </trkpt>
      <trkpt lat="44.19729" lon="5.91323">
        <ele>571</ele>
        <time>2019-06-04T10:08:11Z</time>
      </trkpt>
      <trkpt lat="44.19733" lon="5.91314">
        <ele>571</ele>
        <time>2019-06-04T10:08:12Z</time>
      </trkpt>
      <trkpt lat="44.19737" lon="5.91305">
        <ele>571</ele>
        <time>2019-06-04T10:08:13Z</time>
      </trkpt>
      <trkpt lat="44.19741" lon="5.91295">
        <ele>571</ele>
        <time>2019-06-04T10:08:14Z</time>
      </trkpt>
      <trkpt lat="44.19745" lon="5.91285">
        <ele>570</ele>
        <time>2019-06-04T10:08:15Z</time>
      </trkpt>
      <trkpt lat="44.19749" lon="5.91275">
        <ele>570</ele>
        <time>2019-06-04T10:08:16Z</time>
      </trkpt>
      <trkpt lat="44.19753" lon="5.91264">
        <ele>569</ele>
        <time>2019-06-04T10:08:17Z</time>
      </trkpt>
      <trkpt lat="44.19757" lon="5.91253">
        <ele>569</ele>
        <time>2019-06-04T10:08:18Z</time>
      </trkpt>
      <trkpt lat="44.19761" lon="5.91242">
        <ele>568</ele>
        <time>2019-06-04T10:08:19Z</time>
      </trkpt>
      <trkpt lat="44.19765" lon="5.91231">
        <ele>568</ele>
        <time>2019-06-04T10:08:20Z</time>
      </trkpt>
      <trkpt lat="44.1977" lon="5.91221">
        <ele>567</ele>
        <time>2019-06-04T10:08:21Z</time>
      </trkpt>
      <trkpt lat="44.19774" lon="5.91211">
        <ele>566</ele>
        <time>2019-06-04T10:08:22Z</time>
      </trkpt>
      <trkpt lat="44.19778" lon="5.912">
        <ele>566</ele>
        <time>2019-06-04T10:08:23Z</time>
      </trkpt>
      <trkpt lat="44.19781" lon="5.9119">
        <ele>566</ele>
        <time>2019-06-04T10:08:24Z</time>
      </trkpt>
      <trkpt lat="44.19785" lon="5.9118">
        <ele>565</ele>
        <time>2019-06-04T10:08:25Z</time>
      </trkpt>
      <trkpt lat="44.19788" lon="5.9117">
        <ele>565</ele>
        <time>2019-06-04T10:08:26Z</time>
      </trkpt>
      <trkpt lat="44.19791" lon="5.9116">
        <ele>565</ele>
        <time>2019-06-04T10:08:27Z</time>
      </trkpt>
      <trkpt lat="44.19793" lon="5.91149">
        <ele>564</ele>
        <time>2019-06-04T10:08:28Z</time>
      </trkpt>
      <trkpt lat="44.19796" lon="5.91138">
        <ele>564</ele>
        <time>2019-06-04T10:08:29Z</time>
      </trkpt>
      <trkpt lat="44.19798" lon="5.91126">
        <ele>563</ele>
        <time>2019-06-04T10:08:30Z</time>
      </trkpt>
      <trkpt lat="44.19799" lon="5.91114">
        <ele>563</ele>
        <time>2019-06-04T10:08:31Z</time>
      </trkpt>
      <trkpt lat="44.19802" lon="5.91102">
        <ele>563</ele>
        <time>2019-06-04T10:08:32Z</time>
      </trkpt>
      <trkpt lat="44.19805" lon="5.91091">
        <ele>562</ele>
        <time>2019-06-04T10:08:33Z</time>
      </trkpt>
      <trkpt lat="44.19809" lon="5.9108">
        <ele>562</ele>
        <time>2019-06-04T10:08:34Z</time>
      </trkpt>
      <trkpt lat="44.19812" lon="5.9107">
        <ele>561</ele>
        <time>2019-06-04T10:08:35Z</time>
      </trkpt>
      <trkpt lat="44.19816" lon="5.9106">
        <ele>561</ele>
        <time>2019-06-04T10:08:36Z</time>
      </trkpt>
      <trkpt lat="44.1982" lon="5.9105">
        <ele>560</ele>
        <time>2019-06-04T10:08:37Z</time>
      </trkpt>
      <trkpt lat="44.19822" lon="5.9104">
        <ele>560</ele>
        <time>2019-06-04T10:08:38Z</time>
      </trkpt>
      <trkpt lat="44.19824" lon="5.91028">
        <ele>560</ele>
        <time>2019-06-04T10:08:39Z</time>
      </trkpt>
      <trkpt lat="44.19825" lon="5.91015">
        <ele>559</ele>
        <time>2019-06-04T10:08:40Z</time>
      </trkpt>
      <trkpt lat="44.19827" lon="5.91002">
        <ele>559</ele>
        <time>2019-06-04T10:08:41Z</time>
      </trkpt>
      <trkpt lat="44.19829" lon="5.90989">
        <ele>559</ele>
        <time>2019-06-04T10:08:42Z</time>
      </trkpt>
      <trkpt lat="44.1983" lon="5.90975">
        <ele>559</ele>
        <time>2019-06-04T10:08:43Z</time>
      </trkpt>
      <trkpt lat="44.19832" lon="5.90962">
        <ele>559</ele>
        <time>2019-06-04T10:08:44Z</time>
      </trkpt>
      <trkpt lat="44.19833" lon="5.90947">
        <ele>559</ele>
        <time>2019-06-04T10:08:45Z</time>
      </trkpt>
      <trkpt lat="44.19835" lon="5.90934">
        <ele>558</ele>
        <time>2019-06-04T10:08:46Z</time>
      </trkpt>
      <trkpt lat="44.19838" lon="5.90921">
        <ele>558</ele>
        <time>2019-06-04T10:08:47Z</time>
      </trkpt>
      <trkpt lat="44.1984" lon="5.90908">
        <ele>558</ele>
        <time>2019-06-04T10:08:48Z</time>
      </trkpt>
      <trkpt lat="44.19842" lon="5.90896">
        <ele>557</ele>
        <time>2019-06-04T10:08:49Z</time>
      </trkpt>
      <trkpt lat="44.19843" lon="5.90883">
        <ele>557</ele>
        <time>2019-06-04T10:08:50Z</time>
      </trkpt>
      <trkpt lat="44.19843" lon="5.90871">
        <ele>556</ele>
        <time>2019-06-04T10:08:51Z</time>
      </trkpt>
      <trkpt lat="44.1984" lon="5.90859">
        <ele>555</ele>
        <time>2019-06-04T10:08:52Z</time>
      </trkpt>
      <trkpt lat="44.19837" lon="5.90847">
        <ele>554</ele>
        <time>2019-06-04T10:08:53Z</time>
      </trkpt>
      <trkpt lat="44.19833" lon="5.90836">
        <ele>553</ele>
        <time>2019-06-04T10:08:54Z</time>
      </trkpt>
      <trkpt lat="44.19829" lon="5.90825">
        <ele>553</ele>
        <time>2019-06-04T10:08:55Z</time>
      </trkpt>
      <trkpt lat="44.19827" lon="5.90815">
        <ele>552</ele>
        <time>2019-06-04T10:08:56Z</time>
      </trkpt>
      <trkpt lat="44.19826" lon="5.90806">
        <ele>551</ele>
        <time>2019-06-04T10:08:57Z</time>
      </trkpt>
      <trkpt lat="44.19827" lon="5.90796">
        <ele>551</ele>
        <time>2019-06-04T10:08:58Z</time>
      </trkpt>
      <trkpt lat="44.1983" lon="5.90787">
        <ele>550</ele>
        <time>2019-06-04T10:08:59Z</time>
      </trkpt>
      <trkpt lat="44.19834" lon="5.90779">
        <ele>550</ele>
        <time>2019-06-04T10:09:00Z</time>
      </trkpt>
      <trkpt lat="44.19841" lon="5.90772">
        <ele>550</ele>
        <time>2019-06-04T10:09:01Z</time>
      </trkpt>
      <trkpt lat="44.19847" lon="5.90766">
        <ele>550</ele>
        <time>2019-06-04T10:09:02Z</time>
      </trkpt>
      <trkpt lat="44.19855" lon="5.90761">
        <ele>549</ele>
        <time>2019-06-04T10:09:03Z</time>
      </trkpt>
      <trkpt lat="44.19864" lon="5.90757">
        <ele>549</ele>
        <time>2019-06-04T10:09:04Z</time>
      </trkpt>
      <trkpt lat="44.19872" lon="5.90754">
        <ele>549</ele>
        <time>2019-06-04T10:09:05Z</time>
      </trkpt>
      <trkpt lat="44.1988" lon="5.90751">
        <ele>548</ele>
        <time>2019-06-04T10:09:06Z</time>
      </trkpt>
      <trkpt lat="44.1989" lon="5.9075">
        <ele>547</ele>
        <time>2019-06-04T10:09:07Z</time>
      </trkpt>
      <trkpt lat="44.199" lon="5.90749">
        <ele>546</ele>
        <time>2019-06-04T10:09:08Z</time>
      </trkpt>
      <trkpt lat="44.1991" lon="5.90746">
        <ele>545</ele>
        <time>2019-06-04T10:09:09Z</time>
      </trkpt>
      <trkpt lat="44.19919" lon="5.90743">
        <ele>544</ele>
        <time>2019-06-04T10:09:10Z</time>
      </trkpt>
      <trkpt lat="44.19927" lon="5.90739">
        <ele>543</ele>
        <time>2019-06-04T10:09:11Z</time>
      </trkpt>
      <trkpt lat="44.19933" lon="5.90733">
        <ele>542</ele>
        <time>2019-06-04T10:09:12Z</time>
      </trkpt>
      <trkpt lat="44.1994" lon="5.90726">
        <ele>542</ele>
        <time>2019-06-04T10:09:13Z</time>
      </trkpt>
      <trkpt lat="44.19946" lon="5.90717">
        <ele>541</ele>
        <time>2019-06-04T10:09:14Z</time>
      </trkpt>
      <trkpt lat="44.19952" lon="5.90706">
        <ele>540</ele>
        <time>2019-06-04T10:09:15Z</time>
      </trkpt>
      <trkpt lat="44.19957" lon="5.90696">
        <ele>539</ele>
        <time>2019-06-04T10:09:16Z</time>
      </trkpt>
      <trkpt lat="44.19962" lon="5.90686">
        <ele>538</ele>
        <time>2019-06-04T10:09:17Z</time>
      </trkpt>
      <trkpt lat="44.19966" lon="5.90674">
        <ele>537</ele>
        <time>2019-06-04T10:09:18Z</time>
      </trkpt>
      <trkpt lat="44.1997" lon="5.90662">
        <ele>537</ele>
        <time>2019-06-04T10:09:19Z</time>
      </trkpt>
      <trkpt lat="44.19973" lon="5.9065">
        <ele>536</ele>
        <time>2019-06-04T10:09:20Z</time>
      </trkpt>
      <trkpt lat="44.19977" lon="5.90638">
        <ele>535</ele>
        <time>2019-06-04T10:09:21Z</time>
      </trkpt>
      <trkpt lat="44.19982" lon="5.90625">
        <ele>534</ele>
        <time>2019-06-04T10:09:22Z</time>
      </trkpt>
      <trkpt lat="44.19986" lon="5.90614">
        <ele>533</ele>
        <time>2019-06-04T10:09:23Z</time>
      </trkpt>
      <trkpt lat="44.19991" lon="5.90603">
        <ele>532</ele>
        <time>2019-06-04T10:09:24Z</time>
      </trkpt>
      <trkpt lat="44.19994" lon="5.90591">
        <ele>531</ele>
        <time>2019-06-04T10:09:25Z</time>
      </trkpt>
      <trkpt lat="44.19998" lon="5.90579">
        <ele>530</ele>
        <time>2019-06-04T10:09:26Z</time>
      </trkpt>
      <trkpt lat="44.20002" lon="5.90565">
        <ele>529</ele>
        <time>2019-06-04T10:09:27Z</time>
      </trkpt>
      <trkpt lat="44.20005" lon="5.90552">
        <ele>528</ele>
        <time>2019-06-04T10:09:28Z</time>
      </trkpt>
      <trkpt lat="44.20008" lon="5.90538">
        <ele>527</ele>
        <time>2019-06-04T10:09:29Z</time>
      </trkpt>
      <trkpt lat="44.2001" lon="5.90524">
        <ele>526</ele>
        <time>2019-06-04T10:09:30Z</time>
      </trkpt>
      <trkpt lat="44.2001" lon="5.90512">
        <ele>525</ele>
        <time>2019-06-04T10:09:31Z</time>
      </trkpt>
      <trkpt lat="44.20012" lon="5.905">
        <ele>524</ele>
        <time>2019-06-04T10:09:32Z</time>
      </trkpt>
      <trkpt lat="44.20014" lon="5.90488">
        <ele>523</ele>
        <time>2019-06-04T10:09:33Z</time>
      </trkpt>
      <trkpt lat="44.20018" lon="5.90477">
        <ele>522</ele>
        <time>2019-06-04T10:09:34Z</time>
      </trkpt>
      <trkpt lat="44.20021" lon="5.90467">
        <ele>521</ele>
        <time>2019-06-04T10:09:35Z</time>
      </trkpt>
      <trkpt lat="44.20025" lon="5.90456">
        <ele>520</ele>
        <time>2019-06-04T10:09:36Z</time>
      </trkpt>
      <trkpt lat="44.20029" lon="5.90444">
        <ele>519</ele>
        <time>2019-06-04T10:09:37Z</time>
      </trkpt>
      <trkpt lat="44.20031" lon="5.90432">
        <ele>518</ele>
        <time>2019-06-04T10:09:38Z</time>
      </trkpt>
      <trkpt lat="44.20033" lon="5.90419">
        <ele>517</ele>
        <time>2019-06-04T10:09:39Z</time>
      </trkpt>
      <trkpt lat="44.20034" lon="5.90406">
        <ele>516</ele>
        <time>2019-06-04T10:09:40Z</time>
      </trkpt>
      <trkpt lat="44.20035" lon="5.90394">
        <ele>515</ele>
        <time>2019-06-04T10:09:41Z</time>
      </trkpt>
      <trkpt lat="44.20036" lon="5.90383">
        <ele>514</ele>
        <time>2019-06-04T10:09:42Z</time>
      </trkpt>
      <trkpt lat="44.20039" lon="5.90373">
        <ele>513</ele>
        <time>2019-06-04T10:09:43Z</time>
      </trkpt>
      <trkpt lat="44.20043" lon="5.90363">
        <ele>512</ele>
        <time>2019-06-04T10:09:44Z</time>
      </trkpt>
      <trkpt lat="44.20049" lon="5.90353">
        <ele>511</ele>
        <time>2019-06-04T10:09:45Z</time>
      </trkpt>
      <trkpt lat="44.20054" lon="5.90344">
        <ele>510</ele>
        <time>2019-06-04T10:09:46Z</time>
      </trkpt>
      <trkpt lat="44.20059" lon="5.90334">
        <ele>509</ele>
        <time>2019-06-04T10:09:47Z</time>
      </trkpt>
      <trkpt lat="44.20065" lon="5.90324">
        <ele>508</ele>
        <time>2019-06-04T10:09:48Z</time>
      </trkpt>
      <trkpt lat="44.20071" lon="5.90314">
        <ele>507</ele>
        <time>2019-06-04T10:09:49Z</time>
      </trkpt>
      <trkpt lat="44.20076" lon="5.90305">
        <ele>507</ele>
        <time>2019-06-04T10:09:50Z</time>
      </trkpt>
      <trkpt lat="44.20081" lon="5.90295">
        <ele>506</ele>
        <time>2019-06-04T10:09:51Z</time>
      </trkpt>
      <trkpt lat="44.20086" lon="5.90284">
        <ele>506</ele>
        <time>2019-06-04T10:09:52Z</time>
      </trkpt>
      <trkpt lat="44.2009" lon="5.90273">
        <ele>505</ele>
        <time>2019-06-04T10:09:53Z</time>
      </trkpt>
      <trkpt lat="44.20095" lon="5.90263">
        <ele>505</ele>
        <time>2019-06-04T10:09:54Z</time>
      </trkpt>
      <trkpt lat="44.20102" lon="5.90253">
        <ele>505</ele>
        <time>2019-06-04T10:09:55Z</time>
      </trkpt>
      <trkpt lat="44.2011" lon="5.90246">
        <ele>504</ele>
        <time>2019-06-04T10:09:56Z</time>
      </trkpt>
      <trkpt lat="44.20118" lon="5.90241">
        <ele>504</ele>
        <time>2019-06-04T10:09:57Z</time>
      </trkpt>
      <trkpt lat="44.20127" lon="5.90237">
        <ele>503</ele>
        <time>2019-06-04T10:09:58Z</time>
      </trkpt>
      <trkpt lat="44.20136" lon="5.90231">
        <ele>502</ele>
        <time>2019-06-04T10:09:59Z</time>
      </trkpt>
      <trkpt lat="44.20145" lon="5.90225">
        <ele>501</ele>
        <time>2019-06-04T10:10:00Z</time>
      </trkpt>
      <trkpt lat="44.20153" lon="5.90219">
        <ele>501</ele>
        <time>2019-06-04T10:10:01Z</time>
      </trkpt>
      <trkpt lat="44.20162" lon="5.90214">
        <ele>500</ele>
        <time>2019-06-04T10:10:02Z</time>
      </trkpt>
      <trkpt lat="44.20171" lon="5.90209">
        <ele>500</ele>
        <time>2019-06-04T10:10:03Z</time>
      </trkpt>
      <trkpt lat="44.20179" lon="5.90205">
        <ele>500</ele>
        <time>2019-06-04T10:10:04Z</time>
      </trkpt>
      <trkpt lat="44.20186" lon="5.90199">
        <ele>499</ele>
        <time>2019-06-04T10:10:05Z</time>
      </trkpt>
      <trkpt lat="44.20193" lon="5.90194">
        <ele>498</ele>
        <time>2019-06-04T10:10:06Z</time>
      </trkpt>
      <trkpt lat="44.202" lon="5.90187">
        <ele>497</ele>
        <time>2019-06-04T10:10:07Z</time>
      </trkpt>
      <trkpt lat="44.20205" lon="5.90181">
        <ele>496</ele>
        <time>2019-06-04T10:10:08Z</time>
      </trkpt>
      <trkpt lat="44.2021" lon="5.90172">
        <ele>495</ele>
        <time>2019-06-04T10:10:09Z</time>
      </trkpt>
      <trkpt lat="44.20214" lon="5.90163">
        <ele>494</ele>
        <time>2019-06-04T10:10:10Z</time>
      </trkpt>
      <trkpt lat="44.20217" lon="5.90154">
        <ele>493</ele>
        <time>2019-06-04T10:10:11Z</time>
      </trkpt>
      <trkpt lat="44.2022" lon="5.90145">
        <ele>492</ele>
        <time>2019-06-04T10:10:12Z</time>
      </trkpt>
      <trkpt lat="44.20223" lon="5.90136">
        <ele>491</ele>
        <time>2019-06-04T10:10:13Z</time>
      </trkpt>
      <trkpt lat="44.20226" lon="5.90129">
        <ele>490</ele>
        <time>2019-06-04T10:10:14Z</time>
      </trkpt>
      <trkpt lat="44.20229" lon="5.90122">
        <ele>489</ele>
        <time>2019-06-04T10:10:15Z</time>
      </trkpt>
      <trkpt lat="44.20232" lon="5.90114">
        <ele>488</ele>
        <time>2019-06-04T10:10:16Z</time>
      </trkpt>
      <trkpt lat="44.20235" lon="5.90108">
        <ele>488</ele>
        <time>2019-06-04T10:10:17Z</time>
      </trkpt>
      <trkpt lat="44.20236" lon="5.90102">
        <ele>487</ele>
        <time>2019-06-04T10:10:18Z</time>
      </trkpt>
      <trkpt lat="44.20237" lon="5.90096">
        <ele>486</ele>
        <time>2019-06-04T10:10:19Z</time>
      </trkpt>
      <trkpt lat="44.20239" lon="5.90092">
        <ele>486</ele>
        <time>2019-06-04T10:10:20Z</time>
      </trkpt>
      <trkpt lat="44.20241" lon="5.90089">
        <ele>486</ele>
        <time>2019-06-04T10:10:21Z</time>
      </trkpt>
      <trkpt lat="44.20243" lon="5.90087">
        <ele>485</ele>
        <time>2019-06-04T10:10:22Z</time>
      </trkpt>
      <trkpt lat="44.20246" lon="5.90086">
        <ele>485</ele>
        <time>2019-06-04T10:10:23Z</time>
      </trkpt>
      <trkpt lat="44.20249" lon="5.90086">
        <ele>485</ele>
        <time>2019-06-04T10:10:24Z</time>
      </trkpt>
      <trkpt lat="44.20252" lon="5.90085">
        <ele>485</ele>
        <time>2019-06-04T10:10:25Z</time>
      </trkpt>
      <trkpt lat="44.20255" lon="5.90083">
        <ele>484</ele>
        <time>2019-06-04T10:10:26Z</time>
      </trkpt>
      <trkpt lat="44.20257" lon="5.9008">
        <ele>484</ele>
        <time>2019-06-04T10:10:27Z</time>
      </trkpt>
      <trkpt lat="44.20259" lon="5.90075">
        <ele>484</ele>
        <time>2019-06-04T10:10:28Z</time>
      </trkpt>
      <trkpt lat="44.20261" lon="5.90068">
        <ele>483</ele>
        <time>2019-06-04T10:10:29Z</time>
      </trkpt>
      <trkpt lat="44.20261" lon="5.90061">
        <ele>483</ele>
        <time>2019-06-04T10:10:30Z</time>
      </trkpt>
      <trkpt lat="44.20262" lon="5.90053">
        <ele>483</ele>
        <time>2019-06-04T10:10:31Z</time>
      </trkpt>
      <trkpt lat="44.20263" lon="5.90045">
        <ele>483</ele>
        <time>2019-06-04T10:10:32Z</time>
      </trkpt>
      <trkpt lat="44.20265" lon="5.90036">
        <ele>483</ele>
        <time>2019-06-04T10:10:33Z</time>
      </trkpt>
      <trkpt lat="44.20266" lon="5.90027">
        <ele>483</ele>
        <time>2019-06-04T10:10:34Z</time>
      </trkpt>
      <trkpt lat="44.20268" lon="5.90019">
        <ele>483</ele>
        <time>2019-06-04T10:10:35Z</time>
      </trkpt>
      <trkpt lat="44.20269" lon="5.9001">
        <ele>483</ele>
        <time>2019-06-04T10:10:36Z</time>
      </trkpt>
      <trkpt lat="44.20271" lon="5.90001">
        <ele>483</ele>
        <time>2019-06-04T10:10:37Z</time>
      </trkpt>
      <trkpt lat="44.20273" lon="5.89993">
        <ele>483</ele>
        <time>2019-06-04T10:10:38Z</time>
      </trkpt>
      <trkpt lat="44.20275" lon="5.89985">
        <ele>483</ele>
        <time>2019-06-04T10:10:39Z</time>
      </trkpt>
      <trkpt lat="44.20277" lon="5.89976">
        <ele>483</ele>
        <time>2019-06-04T10:10:40Z</time>
      </trkpt>
      <trkpt lat="44.20279" lon="5.89969">
        <ele>483</ele>
        <time>2019-06-04T10:10:41Z</time>
      </trkpt>
      <trkpt lat="44.20281" lon="5.89962">
        <ele>483</ele>
        <time>2019-06-04T10:10:42Z</time>
      </trkpt>
      <trkpt lat="44.20282" lon="5.89955">
        <ele>483</ele>
        <time>2019-06-04T10:10:43Z</time>
      </trkpt>
      <trkpt lat="44.20285" lon="5.89948">
        <ele>483</ele>
        <time>2019-06-04T10:10:44Z</time>
      </trkpt>
      <trkpt lat="44.20287" lon="5.89941">
        <ele>483</ele>
        <time>2019-06-04T10:10:45Z</time>
      </trkpt>
      <trkpt lat="44.20288" lon="5.89932">
        <ele>483</ele>
        <time>2019-06-04T10:10:46Z</time>
      </trkpt>
      <trkpt lat="44.2029" lon="5.89925">
        <ele>483</ele>
        <time>2019-06-04T10:10:47Z</time>
      </trkpt>
      <trkpt lat="44.20292" lon="5.89917">
        <ele>483</ele>
        <time>2019-06-04T10:10:48Z</time>
      </trkpt>
      <trkpt lat="44.20294" lon="5.89909">
        <ele>483</ele>
        <time>2019-06-04T10:10:49Z</time>
      </trkpt>
      <trkpt lat="44.20296" lon="5.89901">
        <ele>483</ele>
        <time>2019-06-04T10:10:50Z</time>
      </trkpt>
      <trkpt lat="44.20298" lon="5.89893">
        <ele>483</ele>
        <time>2019-06-04T10:10:51Z</time>
      </trkpt>
      <trkpt lat="44.203" lon="5.89885">
        <ele>483</ele>
        <time>2019-06-04T10:10:52Z</time>
      </trkpt>
      <trkpt lat="44.20302" lon="5.89877">
        <ele>483</ele>
        <time>2019-06-04T10:10:53Z</time>
      </trkpt>
      <trkpt lat="44.20304" lon="5.89868">
        <ele>483</ele>
        <time>2019-06-04T10:10:54Z</time>
      </trkpt>
      <trkpt lat="44.20306" lon="5.8986">
        <ele>483</ele>
        <time>2019-06-04T10:10:55Z</time>
      </trkpt>
      <trkpt lat="44.20308" lon="5.89852">
        <ele>483</ele>
        <time>2019-06-04T10:10:56Z</time>
      </trkpt>
      <trkpt lat="44.2031" lon="5.89843">
        <ele>483</ele>
        <time>2019-06-04T10:10:57Z</time>
      </trkpt>
      <trkpt lat="44.20312" lon="5.89835">
        <ele>483</ele>
        <time>2019-06-04T10:10:58Z</time>
      </trkpt>
      <trkpt lat="44.20314" lon="5.89826">
        <ele>483</ele>
        <time>2019-06-04T10:10:59Z</time>
      </trkpt>
      <trkpt lat="44.20316" lon="5.89818">
        <ele>483</ele>
        <time>2019-06-04T10:11:00Z</time>
      </trkpt>
      <trkpt lat="44.20318" lon="5.8981">
        <ele>483</ele>
        <time>2019-06-04T10:11:01Z</time>
      </trkpt>
      <trkpt lat="44.20321" lon="5.89801">
        <ele>483</ele>
        <time>2019-06-04T10:11:02Z</time>
      </trkpt>
      <trkpt lat="44.20323" lon="5.89793">
        <ele>483</ele>
        <time>2019-06-04T10:11:03Z</time>
      </trkpt>
      <trkpt lat="44.20325" lon="5.89785">
        <ele>483</ele>
        <time>2019-06-04T10:11:04Z</time>
      </trkpt>
      <trkpt lat="44.20327" lon="5.89777">
        <ele>483</ele>
        <time>2019-06-04T10:11:05Z</time>
      </trkpt>
      <trkpt lat="44.20329" lon="5.89769">
        <ele>483</ele>
        <time>2019-06-04T10:11:06Z</time>
      </trkpt>
      <trkpt lat="44.20331" lon="5.89761">
        <ele>483</ele>
        <time>2019-06-04T10:11:07Z</time>
      </trkpt>
      <trkpt lat="44.20333" lon="5.89752">
        <ele>483</ele>
        <time>2019-06-04T10:11:08Z</time>
      </trkpt>
      <trkpt lat="44.20335" lon="5.89744">
        <ele>483</ele>
        <time>2019-06-04T10:11:09Z</time>
      </trkpt>
      <trkpt lat="44.20337" lon="5.89736">
        <ele>483</ele>
        <time>2019-06-04T10:11:10Z</time>
      </trkpt>
      <trkpt lat="44.20339" lon="5.89728">
        <ele>483</ele>
        <time>2019-06-04T10:11:11Z</time>
      </trkpt>
      <trkpt lat="44.2034" lon="5.89721">
        <ele>483</ele>
        <time>2019-06-04T10:11:12Z</time>
      </trkpt>
      <trkpt lat="44.20343" lon="5.89713">
        <ele>483</ele>
        <time>2019-06-04T10:11:13Z</time>
      </trkpt>
      <trkpt lat="44.20345" lon="5.89705">
        <ele>483</ele>
        <time>2019-06-04T10:11:14Z</time>
      </trkpt>
      <trkpt lat="44.20347" lon="5.89697">
        <ele>483</ele>
        <time>2019-06-04T10:11:15Z</time>
      </trkpt>
      <trkpt lat="44.20349" lon="5.89688">
        <ele>483</ele>
        <time>2019-06-04T10:11:16Z</time>
      </trkpt>
      <trkpt lat="44.20351" lon="5.8968">
        <ele>483</ele>
        <time>2019-06-04T10:11:17Z</time>
      </trkpt>
      <trkpt lat="44.20353" lon="5.89672">
        <ele>483</ele>
        <time>2019-06-04T10:11:18Z</time>
      </trkpt>
      <trkpt lat="44.20355" lon="5.89663">
        <ele>483</ele>
        <time>2019-06-04T10:11:19Z</time>
      </trkpt>
      <trkpt lat="44.20358" lon="5.89654">
        <ele>483</ele>
        <time>2019-06-04T10:11:20Z</time>
      </trkpt>
      <trkpt lat="44.2036" lon="5.89645">
        <ele>483</ele>
        <time>2019-06-04T10:11:21Z</time>
      </trkpt>
      <trkpt lat="44.20362" lon="5.89637">
        <ele>483</ele>
        <time>2019-06-04T10:11:22Z</time>
      </trkpt>
      <trkpt lat="44.20364" lon="5.89628">
        <ele>483</ele>
        <time>2019-06-04T10:11:23Z</time>
      </trkpt>
      <trkpt lat="44.20366" lon="5.89619">
        <ele>483</ele>
        <time>2019-06-04T10:11:24Z</time>
      </trkpt>
      <trkpt lat="44.20369" lon="5.8961">
        <ele>483</ele>
        <time>2019-06-04T10:11:25Z</time>
      </trkpt>
      <trkpt lat="44.20371" lon="5.89601">
        <ele>483</ele>
        <time>2019-06-04T10:11:26Z</time>
      </trkpt>
      <trkpt lat="44.20373" lon="5.89592">
        <ele>483</ele>
        <time>2019-06-04T10:11:27Z</time>
      </trkpt>
      <trkpt lat="44.20375" lon="5.89583">
        <ele>483</ele>
        <time>2019-06-04T10:11:28Z</time>
      </trkpt>
      <trkpt lat="44.20377" lon="5.89574">
        <ele>483</ele>
        <time>2019-06-04T10:11:29Z</time>
      </trkpt>
      <trkpt lat="44.2038" lon="5.89566">
        <ele>483</ele>
        <time>2019-06-04T10:11:30Z</time>
      </trkpt>
      <trkpt lat="44.20382" lon="5.89558">
        <ele>483</ele>
        <time>2019-06-04T10:11:31Z</time>
      </trkpt>
      <trkpt lat="44.20384" lon="5.89549">
        <ele>483</ele>
        <time>2019-06-04T10:11:32Z</time>
      </trkpt>
      <trkpt lat="44.20386" lon="5.8954">
        <ele>483</ele>
        <time>2019-06-04T10:11:33Z</time>
      </trkpt>
      <trkpt lat="44.20389" lon="5.89532">
        <ele>483</ele>
        <time>2019-06-04T10:11:34Z</time>
      </trkpt>
      <trkpt lat="44.20391" lon="5.89522">
        <ele>483</ele>
        <time>2019-06-04T10:11:35Z</time>
      </trkpt>
      <trkpt lat="44.20393" lon="5.89513">
        <ele>483</ele>
        <time>2019-06-04T10:11:36Z</time>
      </trkpt>
      <trkpt lat="44.20396" lon="5.89503">
        <ele>483</ele>
        <time>2019-06-04T10:11:37Z</time>
      </trkpt>
      <trkpt lat="44.20398" lon="5.89494">
        <ele>483</ele>
        <time>2019-06-04T10:11:38Z</time>
      </trkpt>
      <trkpt lat="44.20401" lon="5.89485">
        <ele>483</ele>
        <time>2019-06-04T10:11:39Z</time>
      </trkpt>
      <trkpt lat="44.20403" lon="5.89476">
        <ele>483</ele>
        <time>2019-06-04T10:11:40Z</time>
      </trkpt>
      <trkpt lat="44.20406" lon="5.89466">
        <ele>483</ele>
        <time>2019-06-04T10:11:41Z</time>
      </trkpt>
      <trkpt lat="44.20409" lon="5.89457">
        <ele>482</ele>
        <time>2019-06-04T10:11:42Z</time>
      </trkpt>
      <trkpt lat="44.20411" lon="5.89447">
        <ele>482</ele>
        <time>2019-06-04T10:11:43Z</time>
      </trkpt>
      <trkpt lat="44.20414" lon="5.89437">
        <ele>482</ele>
        <time>2019-06-04T10:11:44Z</time>
      </trkpt>
      <trkpt lat="44.20416" lon="5.89428">
        <ele>482</ele>
        <time>2019-06-04T10:11:45Z</time>
      </trkpt>
      <trkpt lat="44.20419" lon="5.89418">
        <ele>482</ele>
        <time>2019-06-04T10:11:46Z</time>
      </trkpt>
      <trkpt lat="44.20421" lon="5.89408">
        <ele>482</ele>
        <time>2019-06-04T10:11:47Z</time>
      </trkpt>
      <trkpt lat="44.20423" lon="5.89398">
        <ele>482</ele>
        <time>2019-06-04T10:11:48Z</time>
      </trkpt>
      <trkpt lat="44.20426" lon="5.89388">
        <ele>482</ele>
        <time>2019-06-04T10:11:49Z</time>
      </trkpt>
      <trkpt lat="44.20428" lon="5.89378">
        <ele>481</ele>
        <time>2019-06-04T10:11:50Z</time>
      </trkpt>
      <trkpt lat="44.20431" lon="5.89368">
        <ele>481</ele>
        <time>2019-06-04T10:11:51Z</time>
      </trkpt>
      <trkpt lat="44.20433" lon="5.89358">
        <ele>481</ele>
        <time>2019-06-04T10:11:52Z</time>
      </trkpt>
      <trkpt lat="44.20435" lon="5.89347">
        <ele>481</ele>
        <time>2019-06-04T10:11:53Z</time>
      </trkpt>
      <trkpt lat="44.20438" lon="5.89337">
        <ele>481</ele>
        <time>2019-06-04T10:11:54Z</time>
      </trkpt>
      <trkpt lat="44.20441" lon="5.89326">
        <ele>481</ele>
        <time>2019-06-04T10:11:55Z</time>
      </trkpt>
      <trkpt lat="44.20443" lon="5.89316">
        <ele>481</ele>
        <time>2019-06-04T10:11:56Z</time>
      </trkpt>
      <trkpt lat="44.20446" lon="5.89305">
        <ele>481</ele>
        <time>2019-06-04T10:11:57Z</time>
      </trkpt>
      <trkpt lat="44.20449" lon="5.89295">
        <ele>481</ele>
        <time>2019-06-04T10:11:58Z</time>
      </trkpt>
      <trkpt lat="44.20452" lon="5.89284">
        <ele>481</ele>
        <time>2019-06-04T10:11:59Z</time>
      </trkpt>
      <trkpt lat="44.20454" lon="5.89274">
        <ele>481</ele>
        <time>2019-06-04T10:12:00Z</time>
      </trkpt>
      <trkpt lat="44.20457" lon="5.89264">
        <ele>481</ele>
        <time>2019-06-04T10:12:01Z</time>
      </trkpt>
      <trkpt lat="44.2046" lon="5.89254">
        <ele>480</ele>
        <time>2019-06-04T10:12:02Z</time>
      </trkpt>
      <trkpt lat="44.20463" lon="5.89243">
        <ele>480</ele>
        <time>2019-06-04T10:12:03Z</time>
      </trkpt>
      <trkpt lat="44.20465" lon="5.89232">
        <ele>480</ele>
        <time>2019-06-04T10:12:04Z</time>
      </trkpt>
      <trkpt lat="44.20468" lon="5.89221">
        <ele>480</ele>
        <time>2019-06-04T10:12:05Z</time>
      </trkpt>
      <trkpt lat="44.20471" lon="5.8921">
        <ele>480</ele>
        <time>2019-06-04T10:12:06Z</time>
      </trkpt>
      <trkpt lat="44.20473" lon="5.892">
        <ele>480</ele>
        <time>2019-06-04T10:12:07Z</time>
      </trkpt>
      <trkpt lat="44.20476" lon="5.89189">
        <ele>480</ele>
        <time>2019-06-04T10:12:08Z</time>
      </trkpt>
      <trkpt lat="44.20479" lon="5.89179">
        <ele>480</ele>
        <time>2019-06-04T10:12:09Z</time>
      </trkpt>
      <trkpt lat="44.20481" lon="5.89169">
        <ele>480</ele>
        <time>2019-06-04T10:12:10Z</time>
      </trkpt>
      <trkpt lat="44.20484" lon="5.89158">
        <ele>480</ele>
        <time>2019-06-04T10:12:11Z</time>
      </trkpt>
      <trkpt lat="44.20486" lon="5.89148">
        <ele>480</ele>
        <time>2019-06-04T10:12:12Z</time>
      </trkpt>
      <trkpt lat="44.20489" lon="5.89137">
        <ele>480</ele>
        <time>2019-06-04T10:12:13Z</time>
      </trkpt>
      <trkpt lat="44.20492" lon="5.89127">
        <ele>480</ele>
        <time>2019-06-04T10:12:14Z</time>
      </trkpt>
      <trkpt lat="44.20495" lon="5.89117">
        <ele>480</ele>
        <time>2019-06-04T10:12:15Z</time>
      </trkpt>
      <trkpt lat="44.20497" lon="5.89106">
        <ele>480</ele>
        <time>2019-06-04T10:12:16Z</time>
      </trkpt>
      <trkpt lat="44.20499" lon="5.89096">
        <ele>480</ele>
        <time>2019-06-04T10:12:17Z</time>
      </trkpt>
      <trkpt lat="44.20502" lon="5.89086">
        <ele>480</ele>
        <time>2019-06-04T10:12:18Z</time>
      </trkpt>
      <trkpt lat="44.20504" lon="5.89077">
        <ele>480</ele>
        <time>2019-06-04T10:12:19Z</time>
      </trkpt>
      <trkpt lat="44.20507" lon="5.89067">
        <ele>480</ele>
        <time>2019-06-04T10:12:20Z</time>
      </trkpt>
      <trkpt lat="44.20509" lon="5.89057">
        <ele>480</ele>
        <time>2019-06-04T10:12:21Z</time>
      </trkpt>
      <trkpt lat="44.20512" lon="5.89047">
        <ele>480</ele>
        <time>2019-06-04T10:12:22Z</time>
      </trkpt>
      <trkpt lat="44.20514" lon="5.89038">
        <ele>480</ele>
        <time>2019-06-04T10:12:23Z</time>
      </trkpt>
      <trkpt lat="44.20517" lon="5.89029">
        <ele>480</ele>
        <time>2019-06-04T10:12:24Z</time>
      </trkpt>
      <trkpt lat="44.20519" lon="5.89019">
        <ele>480</ele>
        <time>2019-06-04T10:12:25Z</time>
      </trkpt>
      <trkpt lat="44.20522" lon="5.8901">
        <ele>480</ele>
        <time>2019-06-04T10:12:26Z</time>
      </trkpt>
      <trkpt lat="44.20524" lon="5.89001">
        <ele>480</ele>
        <time>2019-06-04T10:12:27Z</time>
      </trkpt>
      <trkpt lat="44.20526" lon="5.88991">
        <ele>480</ele>
        <time>2019-06-04T10:12:28Z</time>
      </trkpt>
      <trkpt lat="44.20528" lon="5.88982">
        <ele>480</ele>
        <time>2019-06-04T10:12:29Z</time>
      </trkpt>
      <trkpt lat="44.2053" lon="5.88974">
        <ele>480</ele>
        <time>2019-06-04T10:12:30Z</time>
      </trkpt>
      <trkpt lat="44.20533" lon="5.88965">
        <ele>480</ele>
        <time>2019-06-04T10:12:31Z</time>
      </trkpt>
      <trkpt lat="44.20535" lon="5.88956">
        <ele>480</ele>
        <time>2019-06-04T10:12:32Z</time>
      </trkpt>
      <trkpt lat="44.20537" lon="5.88947">
        <ele>480</ele>
        <time>2019-06-04T10:12:33Z</time>
      </trkpt>
      <trkpt lat="44.20539" lon="5.88939">
        <ele>480</ele>
        <time>2019-06-04T10:12:34Z</time>
      </trkpt>
      <trkpt lat="44.20542" lon="5.88931">
        <ele>480</ele>
        <time>2019-06-04T10:12:35Z</time>
      </trkpt>
      <trkpt lat="44.20544" lon="5.88922">
        <ele>480</ele>
        <time>2019-06-04T10:12:36Z</time>
      </trkpt>
      <trkpt lat="44.20546" lon="5.88914">
        <ele>480</ele>
        <time>2019-06-04T10:12:37Z</time>
      </trkpt>
      <trkpt lat="44.20548" lon="5.88905">
        <ele>480</ele>
        <time>2019-06-04T10:12:38Z</time>
      </trkpt>
      <trkpt lat="44.2055" lon="5.88897">
        <ele>480</ele>
        <time>2019-06-04T10:12:39Z</time>
      </trkpt>
      <trkpt lat="44.20552" lon="5.88888">
        <ele>480</ele>
        <time>2019-06-04T10:12:40Z</time>
      </trkpt>
      <trkpt lat="44.20555" lon="5.8888">
        <ele>480</ele>
        <time>2019-06-04T10:12:41Z</time>
      </trkpt>
      <trkpt lat="44.20557" lon="5.88871">
        <ele>480</ele>
        <time>2019-06-04T10:12:42Z</time>
      </trkpt>
      <trkpt lat="44.20559" lon="5.88862">
        <ele>480</ele>
        <time>2019-06-04T10:12:43Z</time>
      </trkpt>
      <trkpt lat="44.20561" lon="5.88853">
        <ele>480</ele>
        <time>2019-06-04T10:12:44Z</time>
      </trkpt>
      <trkpt lat="44.20563" lon="5.88845">
        <ele>480</ele>
        <time>2019-06-04T10:12:45Z</time>
      </trkpt>
      <trkpt lat="44.20565" lon="5.88836">
        <ele>480</ele>
        <time>2019-06-04T10:12:46Z</time>
      </trkpt>
      <trkpt lat="44.20567" lon="5.88827">
        <ele>480</ele>
        <time>2019-06-04T10:12:47Z</time>
      </trkpt>
      <trkpt lat="44.2057" lon="5.88819">
        <ele>480</ele>
        <time>2019-06-04T10:12:48Z</time>
      </trkpt>
      <trkpt lat="44.20572" lon="5.8881">
        <ele>480</ele>
        <time>2019-06-04T10:12:49Z</time>
      </trkpt>
      <trkpt lat="44.20574" lon="5.88801">
        <ele>480</ele>
        <time>2019-06-04T10:12:50Z</time>
      </trkpt>
      <trkpt lat="44.20576" lon="5.88792">
        <ele>480</ele>
        <time>2019-06-04T10:12:51Z</time>
      </trkpt>
      <trkpt lat="44.20578" lon="5.88783">
        <ele>480</ele>
        <time>2019-06-04T10:12:52Z</time>
      </trkpt>
      <trkpt lat="44.20581" lon="5.88774">
        <ele>480</ele>
        <time>2019-06-04T10:12:53Z</time>
      </trkpt>
      <trkpt lat="44.20583" lon="5.88766">
        <ele>480</ele>
        <time>2019-06-04T10:12:54Z</time>
      </trkpt>
      <trkpt lat="44.20585" lon="5.88757">
        <ele>480</ele>
        <time>2019-06-04T10:12:55Z</time>
      </trkpt>
      <trkpt lat="44.20588" lon="5.88749">
        <ele>480</ele>
        <time>2019-06-04T10:12:56Z</time>
      </trkpt>
      <trkpt lat="44.2059" lon="5.8874">
        <ele>480</ele>
        <time>2019-06-04T10:12:57Z</time>
      </trkpt>
      <trkpt lat="44.20592" lon="5.88731">
        <ele>480</ele>
        <time>2019-06-04T10:12:58Z</time>
      </trkpt>
      <trkpt lat="44.20594" lon="5.88722">
        <ele>480</ele>
        <time>2019-06-04T10:12:59Z</time>
      </trkpt>
      <trkpt lat="44.20596" lon="5.88713">
        <ele>480</ele>
        <time>2019-06-04T10:13:00Z</time>
      </trkpt>
      <trkpt lat="44.20598" lon="5.88704">
        <ele>480</ele>
        <time>2019-06-04T10:13:01Z</time>
      </trkpt>
      <trkpt lat="44.20601" lon="5.88695">
        <ele>480</ele>
        <time>2019-06-04T10:13:02Z</time>
      </trkpt>
      <trkpt lat="44.20603" lon="5.88686">
        <ele>480</ele>
        <time>2019-06-04T10:13:03Z</time>
      </trkpt>
      <trkpt lat="44.20605" lon="5.88677">
        <ele>480</ele>
        <time>2019-06-04T10:13:04Z</time>
      </trkpt>
      <trkpt lat="44.20607" lon="5.88668">
        <ele>480</ele>
        <time>2019-06-04T10:13:05Z</time>
      </trkpt>
      <trkpt lat="44.2061" lon="5.88659">
        <ele>480</ele>
        <time>2019-06-04T10:13:06Z</time>
      </trkpt>
      <trkpt lat="44.20612" lon="5.88651">
        <ele>480</ele>
        <time>2019-06-04T10:13:07Z</time>
      </trkpt>
      <trkpt lat="44.20614" lon="5.88642">
        <ele>480</ele>
        <time>2019-06-04T10:13:08Z</time>
      </trkpt>
      <trkpt lat="44.20616" lon="5.88634">
        <ele>481</ele>
        <time>2019-06-04T10:13:09Z</time>
      </trkpt>
      <trkpt lat="44.20618" lon="5.88625">
        <ele>481</ele>
        <time>2019-06-04T10:13:10Z</time>
      </trkpt>
      <trkpt lat="44.20621" lon="5.88617">
        <ele>481</ele>
        <time>2019-06-04T10:13:11Z</time>
      </trkpt>
      <trkpt lat="44.20623" lon="5.88609">
        <ele>481</ele>
        <time>2019-06-04T10:13:12Z</time>
      </trkpt>
      <trkpt lat="44.20625" lon="5.88601">
        <ele>482</ele>
        <time>2019-06-04T10:13:13Z</time>
      </trkpt>
      <trkpt lat="44.20627" lon="5.88592">
        <ele>482</ele>
        <time>2019-06-04T10:13:14Z</time>
      </trkpt>
      <trkpt lat="44.20629" lon="5.88584">
        <ele>482</ele>
        <time>2019-06-04T10:13:15Z</time>
      </trkpt>
      <trkpt lat="44.20631" lon="5.88576">
        <ele>482</ele>
        <time>2019-06-04T10:13:16Z</time>
      </trkpt>
      <trkpt lat="44.20633" lon="5.88567">
        <ele>482</ele>
        <time>2019-06-04T10:13:17Z</time>
      </trkpt>
      <trkpt lat="44.20636" lon="5.88559">
        <ele>482</ele>
        <time>2019-06-04T10:13:18Z</time>
      </trkpt>
      <trkpt lat="44.20638" lon="5.88551">
        <ele>482</ele>
        <time>2019-06-04T10:13:19Z</time>
      </trkpt>
      <trkpt lat="44.2064" lon="5.88543">
        <ele>482</ele>
        <time>2019-06-04T10:13:20Z</time>
      </trkpt>
      <trkpt lat="44.20642" lon="5.88534">
        <ele>482</ele>
        <time>2019-06-04T10:13:21Z</time>
      </trkpt>
      <trkpt lat="44.20644" lon="5.88525">
        <ele>482</ele>
        <time>2019-06-04T10:13:22Z</time>
      </trkpt>
      <trkpt lat="44.20647" lon="5.88517">
        <ele>482</ele>
        <time>2019-06-04T10:13:23Z</time>
      </trkpt>
      <trkpt lat="44.20649" lon="5.88509">
        <ele>482</ele>
        <time>2019-06-04T10:13:24Z</time>
      </trkpt>
      <trkpt lat="44.20651" lon="5.88501">
        <ele>482</ele>
        <time>2019-06-04T10:13:25Z</time>
      </trkpt>
      <trkpt lat="44.20653" lon="5.88492">
        <ele>482</ele>
        <time>2019-06-04T10:13:26Z</time>
      </trkpt>
      <trkpt lat="44.20655" lon="5.88484">
        <ele>482</ele>
        <time>2019-06-04T10:13:27Z</time>
      </trkpt>
      <trkpt lat="44.20657" lon="5.88477">
        <ele>482</ele>
        <time>2019-06-04T10:13:28Z</time>
      </trkpt>
      <trkpt lat="44.20659" lon="5.88469">
        <ele>482</ele>
        <time>2019-06-04T10:13:29Z</time>
      </trkpt>
      <trkpt lat="44.20662" lon="5.8846">
        <ele>482</ele>
        <time>2019-06-04T10:13:30Z</time>
      </trkpt>
      <trkpt lat="44.20664" lon="5.88452">
        <ele>482</ele>
        <time>2019-06-04T10:13:31Z</time>
      </trkpt>
      <trkpt lat="44.20666" lon="5.88444">
        <ele>482</ele>
        <time>2019-06-04T10:13:32Z</time>
      </trkpt>
      <trkpt lat="44.20668" lon="5.88435">
        <ele>482</ele>
        <time>2019-06-04T10:13:33Z</time>
      </trkpt>
      <trkpt lat="44.2067" lon="5.88427">
        <ele>482</ele>
        <time>2019-06-04T10:13:34Z</time>
      </trkpt>
      <trkpt lat="44.20673" lon="5.88418">
        <ele>482</ele>
        <time>2019-06-04T10:13:35Z</time>
      </trkpt>
      <trkpt lat="44.20675" lon="5.8841">
        <ele>482</ele>
        <time>2019-06-04T10:13:36Z</time>
      </trkpt>
      <trkpt lat="44.20677" lon="5.88401">
        <ele>482</ele>
        <time>2019-06-04T10:13:37Z</time>
      </trkpt>
      <trkpt lat="44.20679" lon="5.88392">
        <ele>482</ele>
        <time>2019-06-04T10:13:38Z</time>
      </trkpt>
      <trkpt lat="44.20681" lon="5.88384">
        <ele>482</ele>
        <time>2019-06-04T10:13:39Z</time>
      </trkpt>
      <trkpt lat="44.20684" lon="5.88375">
        <ele>482</ele>
        <time>2019-06-04T10:13:40Z</time>
      </trkpt>
      <trkpt lat="44.20686" lon="5.88366">
        <ele>482</ele>
        <time>2019-06-04T10:13:41Z</time>
      </trkpt>
      <trkpt lat="44.20688" lon="5.88358">
        <ele>482</ele>
        <time>2019-06-04T10:13:42Z</time>
      </trkpt>
      <trkpt lat="44.20691" lon="5.88349">
        <ele>482</ele>
        <time>2019-06-04T10:13:43Z</time>
      </trkpt>
      <trkpt lat="44.20693" lon="5.88341">
        <ele>482</ele>
        <time>2019-06-04T10:13:44Z</time>
      </trkpt>
      <trkpt lat="44.20695" lon="5.88332">
        <ele>482</ele>
        <time>2019-06-04T10:13:45Z</time>
      </trkpt>
      <trkpt lat="44.20697" lon="5.88324">
        <ele>482</ele>
        <time>2019-06-04T10:13:46Z</time>
      </trkpt>
      <trkpt lat="44.20699" lon="5.88315">
        <ele>482</ele>
        <time>2019-06-04T10:13:47Z</time>
      </trkpt>
      <trkpt lat="44.20701" lon="5.88306">
        <ele>482</ele>
        <time>2019-06-04T10:13:48Z</time>
      </trkpt>
      <trkpt lat="44.20703" lon="5.88298">
        <ele>482</ele>
        <time>2019-06-04T10:13:49Z</time>
      </trkpt>
      <trkpt lat="44.20706" lon="5.88289">
        <ele>482</ele>
        <time>2019-06-04T10:13:50Z</time>
      </trkpt>
      <trkpt lat="44.20708" lon="5.8828">
        <ele>482</ele>
        <time>2019-06-04T10:13:51Z</time>
      </trkpt>
      <trkpt lat="44.2071" lon="5.88272">
        <ele>482</ele>
        <time>2019-06-04T10:13:52Z</time>
      </trkpt>
      <trkpt lat="44.20713" lon="5.88264">
        <ele>482</ele>
        <time>2019-06-04T10:13:53Z</time>
      </trkpt>
      <trkpt lat="44.20715" lon="5.88255">
        <ele>482</ele>
        <time>2019-06-04T10:13:54Z</time>
      </trkpt>
      <trkpt lat="44.20717" lon="5.88246">
        <ele>482</ele>
        <time>2019-06-04T10:13:55Z</time>
      </trkpt>
      <trkpt lat="44.20719" lon="5.88237">
        <ele>482</ele>
        <time>2019-06-04T10:13:56Z</time>
      </trkpt>
      <trkpt lat="44.20721" lon="5.88229">
        <ele>482</ele>
        <time>2019-06-04T10:13:57Z</time>
      </trkpt>
      <trkpt lat="44.20723" lon="5.8822">
        <ele>482</ele>
        <time>2019-06-04T10:13:58Z</time>
      </trkpt>
      <trkpt lat="44.20726" lon="5.88211">
        <ele>482</ele>
        <time>2019-06-04T10:13:59Z</time>
      </trkpt>
      <trkpt lat="44.20728" lon="5.88203">
        <ele>482</ele>
        <time>2019-06-04T10:14:00Z</time>
      </trkpt>
      <trkpt lat="44.20729" lon="5.88195">
        <ele>482</ele>
        <time>2019-06-04T10:14:01Z</time>
      </trkpt>
      <trkpt lat="44.20732" lon="5.88187">
        <ele>482</ele>
        <time>2019-06-04T10:14:02Z</time>
      </trkpt>
      <trkpt lat="44.20734" lon="5.88179">
        <ele>482</ele>
        <time>2019-06-04T10:14:03Z</time>
      </trkpt>
      <trkpt lat="44.20736" lon="5.8817">
        <ele>482</ele>
        <time>2019-06-04T10:14:04Z</time>
      </trkpt>
      <trkpt lat="44.20739" lon="5.88162">
        <ele>482</ele>
        <time>2019-06-04T10:14:05Z</time>
      </trkpt>
      <trkpt lat="44.20741" lon="5.88155">
        <ele>482</ele>
        <time>2019-06-04T10:14:06Z</time>
      </trkpt>
      <trkpt lat="44.20742" lon="5.88146">
        <ele>482</ele>
        <time>2019-06-04T10:14:07Z</time>
      </trkpt>
      <trkpt lat="44.20745" lon="5.88138">
        <ele>482</ele>
        <time>2019-06-04T10:14:08Z</time>
      </trkpt>
      <trkpt lat="44.20747" lon="5.8813">
        <ele>482</ele>
        <time>2019-06-04T10:14:09Z</time>
      </trkpt>
      <trkpt lat="44.20749" lon="5.88122">
        <ele>482</ele>
        <time>2019-06-04T10:14:10Z</time>
      </trkpt>
      <trkpt lat="44.20751" lon="5.88113">
        <ele>482</ele>
        <time>2019-06-04T10:14:11Z</time>
      </trkpt>
      <trkpt lat="44.20753" lon="5.88105">
        <ele>482</ele>
        <time>2019-06-04T10:14:12Z</time>
      </trkpt>
      <trkpt lat="44.20755" lon="5.88097">
        <ele>482</ele>
        <time>2019-06-04T10:14:13Z</time>
      </trkpt>
      <trkpt lat="44.20757" lon="5.88089">
        <ele>482</ele>
        <time>2019-06-04T10:14:14Z</time>
      </trkpt>
      <trkpt lat="44.20759" lon="5.8808">
        <ele>482</ele>
        <time>2019-06-04T10:14:15Z</time>
      </trkpt>
      <trkpt lat="44.20761" lon="5.88071">
        <ele>482</ele>
        <time>2019-06-04T10:14:16Z</time>
      </trkpt>
      <trkpt lat="44.20763" lon="5.88064">
        <ele>482</ele>
        <time>2019-06-04T10:14:17Z</time>
      </trkpt>
      <trkpt lat="44.20766" lon="5.88056">
        <ele>482</ele>
        <time>2019-06-04T10:14:18Z</time>
      </trkpt>
      <trkpt lat="44.20768" lon="5.88048">
        <ele>482</ele>
        <time>2019-06-04T10:14:19Z</time>
      </trkpt>
      <trkpt lat="44.2077" lon="5.8804">
        <ele>482</ele>
        <time>2019-06-04T10:14:20Z</time>
      </trkpt>
      <trkpt lat="44.20772" lon="5.88032">
        <ele>482</ele>
        <time>2019-06-04T10:14:21Z</time>
      </trkpt>
      <trkpt lat="44.20774" lon="5.88024">
        <ele>482</ele>
        <time>2019-06-04T10:14:22Z</time>
      </trkpt>
      <trkpt lat="44.20776" lon="5.88017">
        <ele>482</ele>
        <time>2019-06-04T10:14:23Z</time>
      </trkpt>
      <trkpt lat="44.20778" lon="5.88008">
        <ele>482</ele>
        <time>2019-06-04T10:14:24Z</time>
      </trkpt>
      <trkpt lat="44.20779" lon="5.88">
        <ele>482</ele>
        <time>2019-06-04T10:14:25Z</time>
      </trkpt>
      <trkpt lat="44.20781" lon="5.87992">
        <ele>482</ele>
        <time>2019-06-04T10:14:26Z</time>
      </trkpt>
      <trkpt lat="44.20783" lon="5.87983">
        <ele>482</ele>
        <time>2019-06-04T10:14:27Z</time>
      </trkpt>
      <trkpt lat="44.20785" lon="5.87975">
        <ele>482</ele>
        <time>2019-06-04T10:14:28Z</time>
      </trkpt>
      <trkpt lat="44.20787" lon="5.87967">
        <ele>482</ele>
        <time>2019-06-04T10:14:29Z</time>
      </trkpt>
      <trkpt lat="44.20789" lon="5.87959">
        <ele>482</ele>
        <time>2019-06-04T10:14:30Z</time>
      </trkpt>
      <trkpt lat="44.20792" lon="5.87951">
        <ele>482</ele>
        <time>2019-06-04T10:14:31Z</time>
      </trkpt>
      <trkpt lat="44.20794" lon="5.87943">
        <ele>482</ele>
        <time>2019-06-04T10:14:32Z</time>
      </trkpt>
      <trkpt lat="44.20796" lon="5.87935">
        <ele>482</ele>
        <time>2019-06-04T10:14:33Z</time>
      </trkpt>
      <trkpt lat="44.20798" lon="5.87928">
        <ele>483</ele>
        <time>2019-06-04T10:14:34Z</time>
      </trkpt>
      <trkpt lat="44.208" lon="5.8792">
        <ele>483</ele>
        <time>2019-06-04T10:14:35Z</time>
      </trkpt>
      <trkpt lat="44.20802" lon="5.87913">
        <ele>483</ele>
        <time>2019-06-04T10:14:36Z</time>
      </trkpt>
      <trkpt lat="44.20804" lon="5.87905">
        <ele>483</ele>
        <time>2019-06-04T10:14:37Z</time>
      </trkpt>
      <trkpt lat="44.20806" lon="5.87897">
        <ele>483</ele>
        <time>2019-06-04T10:14:38Z</time>
      </trkpt>
      <trkpt lat="44.20808" lon="5.8789">
        <ele>483</ele>
        <time>2019-06-04T10:14:39Z</time>
      </trkpt>
      <trkpt lat="44.2081" lon="5.87882">
        <ele>483</ele>
        <time>2019-06-04T10:14:40Z</time>
      </trkpt>
      <trkpt lat="44.20812" lon="5.87874">
        <ele>483</ele>
        <time>2019-06-04T10:14:41Z</time>
      </trkpt>
      <trkpt lat="44.20815" lon="5.87867">
        <ele>483</ele>
        <time>2019-06-04T10:14:42Z</time>
      </trkpt>
      <trkpt lat="44.20817" lon="5.87859">
        <ele>483</ele>
        <time>2019-06-04T10:14:43Z</time>
      </trkpt>
      <trkpt lat="44.2082" lon="5.87851">
        <ele>483</ele>
        <time>2019-06-04T10:14:44Z</time>
      </trkpt>
      <trkpt lat="44.20823" lon="5.87844">
        <ele>483</ele>
        <time>2019-06-04T10:14:45Z</time>
      </trkpt>
      <trkpt lat="44.20826" lon="5.87836">
        <ele>483</ele>
        <time>2019-06-04T10:14:46Z</time>
      </trkpt>
      <trkpt lat="44.20829" lon="5.87828">
        <ele>483</ele>
        <time>2019-06-04T10:14:47Z</time>
      </trkpt>
      <trkpt lat="44.20832" lon="5.87821">
        <ele>483</ele>
        <time>2019-06-04T10:14:48Z</time>
      </trkpt>
      <trkpt lat="44.20835" lon="5.87813">
        <ele>483</ele>
        <time>2019-06-04T10:14:49Z</time>
      </trkpt>
      <trkpt lat="44.20838" lon="5.87806">
        <ele>483</ele>
        <time>2019-06-04T10:14:50Z</time>
      </trkpt>
      <trkpt lat="44.20841" lon="5.87799">
        <ele>483</ele>
        <time>2019-06-04T10:14:51Z</time>
      </trkpt>
      <trkpt lat="44.20845" lon="5.87791">
        <ele>483</ele>
        <time>2019-06-04T10:14:52Z</time>
      </trkpt>
      <trkpt lat="44.20848" lon="5.87784">
        <ele>483</ele>
        <time>2019-06-04T10:14:53Z</time>
      </trkpt>
      <trkpt lat="44.20852" lon="5.87777">
        <ele>483</ele>
        <time>2019-06-04T10:14:54Z</time>
      </trkpt>
      <trkpt lat="44.20856" lon="5.8777">
        <ele>483</ele>
        <time>2019-06-04T10:14:55Z</time>
      </trkpt>
      <trkpt lat="44.2086" lon="5.87763">
        <ele>483</ele>
        <time>2019-06-04T10:14:56Z</time>
      </trkpt>
      <trkpt lat="44.20864" lon="5.87755">
        <ele>483</ele>
        <time>2019-06-04T10:14:57Z</time>
      </trkpt>
      <trkpt lat="44.20868" lon="5.87748">
        <ele>484</ele>
        <time>2019-06-04T10:14:58Z</time>
      </trkpt>
      <trkpt lat="44.20872" lon="5.87741">
        <ele>484</ele>
        <time>2019-06-04T10:14:59Z</time>
      </trkpt>
      <trkpt lat="44.20877" lon="5.87734">
        <ele>484</ele>
        <time>2019-06-04T10:15:00Z</time>
      </trkpt>
      <trkpt lat="44.20882" lon="5.87727">
        <ele>484</ele>
        <time>2019-06-04T10:15:01Z</time>
      </trkpt>
      <trkpt lat="44.20886" lon="5.8772">
        <ele>484</ele>
        <time>2019-06-04T10:15:02Z</time>
      </trkpt>
      <trkpt lat="44.20891" lon="5.87713">
        <ele>484</ele>
        <time>2019-06-04T10:15:03Z</time>
      </trkpt>
      <trkpt lat="44.20896" lon="5.87707">
        <ele>484</ele>
        <time>2019-06-04T10:15:04Z</time>
      </trkpt>
      <trkpt lat="44.20901" lon="5.877">
        <ele>484</ele>
        <time>2019-06-04T10:15:05Z</time>
      </trkpt>
      <trkpt lat="44.20906" lon="5.87693">
        <ele>484</ele>
        <time>2019-06-04T10:15:06Z</time>
      </trkpt>
      <trkpt lat="44.20911" lon="5.87686">
        <ele>484</ele>
        <time>2019-06-04T10:15:07Z</time>
      </trkpt>
      <trkpt lat="44.20917" lon="5.8768">
        <ele>484</ele>
        <time>2019-06-04T10:15:08Z</time>
      </trkpt>
      <trkpt lat="44.20922" lon="5.87673">
        <ele>484</ele>
        <time>2019-06-04T10:15:09Z</time>
      </trkpt>
      <trkpt lat="44.20928" lon="5.87667">
        <ele>484</ele>
        <time>2019-06-04T10:15:10Z</time>
      </trkpt>
      <trkpt lat="44.20934" lon="5.8766">
        <ele>484</ele>
        <time>2019-06-04T10:15:11Z</time>
      </trkpt>
      <trkpt lat="44.20939" lon="5.87653">
        <ele>484</ele>
        <time>2019-06-04T10:15:12Z</time>
      </trkpt>
      <trkpt lat="44.20945" lon="5.87647">
        <ele>485</ele>
        <time>2019-06-04T10:15:13Z</time>
      </trkpt>
      <trkpt lat="44.20951" lon="5.87641">
        <ele>485</ele>
        <time>2019-06-04T10:15:14Z</time>
      </trkpt>
      <trkpt lat="44.20957" lon="5.87635">
        <ele>485</ele>
        <time>2019-06-04T10:15:15Z</time>
      </trkpt>
      <trkpt lat="44.20963" lon="5.87628">
        <ele>485</ele>
        <time>2019-06-04T10:15:16Z</time>
      </trkpt>
      <trkpt lat="44.20969" lon="5.87622">
        <ele>485</ele>
        <time>2019-06-04T10:15:17Z</time>
      </trkpt>
      <trkpt lat="44.20974" lon="5.87615">
        <ele>485</ele>
        <time>2019-06-04T10:15:18Z</time>
      </trkpt>
      <trkpt lat="44.2098" lon="5.87609">
        <ele>485</ele>
        <time>2019-06-04T10:15:19Z</time>
      </trkpt>
      <trkpt lat="44.20985" lon="5.87603">
        <ele>485</ele>
        <time>2019-06-04T10:15:20Z</time>
      </trkpt>
      <trkpt lat="44.2099" lon="5.87597">
        <ele>485</ele>
        <time>2019-06-04T10:15:21Z</time>
      </trkpt>
      <trkpt lat="44.20996" lon="5.87591">
        <ele>485</ele>
        <time>2019-06-04T10:15:22Z</time>
      </trkpt>
      <trkpt lat="44.21001" lon="5.87584">
        <ele>485</ele>
        <time>2019-06-04T10:15:23Z</time>
      </trkpt>
      <trkpt lat="44.21006" lon="5.87578">
        <ele>485</ele>
        <time>2019-06-04T10:15:24Z</time>
      </trkpt>
      <trkpt lat="44.21012" lon="5.87572">
        <ele>485</ele>
        <time>2019-06-04T10:15:25Z</time>
      </trkpt>
      <trkpt lat="44.21017" lon="5.87565">
        <ele>485</ele>
        <time>2019-06-04T10:15:26Z</time>
      </trkpt>
      <trkpt lat="44.21022" lon="5.87559">
        <ele>486</ele>
        <time>2019-06-04T10:15:27Z</time>
      </trkpt>
      <trkpt lat="44.21028" lon="5.87552">
        <ele>486</ele>
        <time>2019-06-04T10:15:28Z</time>
      </trkpt>
      <trkpt lat="44.21034" lon="5.87546">
        <ele>486</ele>
        <time>2019-06-04T10:15:29Z</time>
      </trkpt>
      <trkpt lat="44.2104" lon="5.87539">
        <ele>486</ele>
        <time>2019-06-04T10:15:30Z</time>
      </trkpt>
      <trkpt lat="44.21046" lon="5.87533">
        <ele>486</ele>
        <time>2019-06-04T10:15:31Z</time>
      </trkpt>
      <trkpt lat="44.21053" lon="5.87526">
        <ele>486</ele>
        <time>2019-06-04T10:15:32Z</time>
      </trkpt>
      <trkpt lat="44.21059" lon="5.87519">
        <ele>486</ele>
        <time>2019-06-04T10:15:33Z</time>
      </trkpt>
      <trkpt lat="44.21066" lon="5.87512">
        <ele>486</ele>
        <time>2019-06-04T10:15:34Z</time>
      </trkpt>
      <trkpt lat="44.21072" lon="5.87505">
        <ele>486</ele>
        <time>2019-06-04T10:15:35Z</time>
      </trkpt>
      <trkpt lat="44.21078" lon="5.87498">
        <ele>486</ele>
        <time>2019-06-04T10:15:36Z</time>
      </trkpt>
      <trkpt lat="44.21084" lon="5.87491">
        <ele>486</ele>
        <time>2019-06-04T10:15:37Z</time>
      </trkpt>
      <trkpt lat="44.2109" lon="5.87484">
        <ele>486</ele>
        <time>2019-06-04T10:15:38Z</time>
      </trkpt>
      <trkpt lat="44.21096" lon="5.87477">
        <ele>486</ele>
        <time>2019-06-04T10:15:39Z</time>
      </trkpt>
      <trkpt lat="44.21102" lon="5.8747">
        <ele>486</ele>
        <time>2019-06-04T10:15:40Z</time>
      </trkpt>
      <trkpt lat="44.21107" lon="5.87463">
        <ele>486</ele>
        <time>2019-06-04T10:15:41Z</time>
      </trkpt>
      <trkpt lat="44.21113" lon="5.87456">
        <ele>486</ele>
        <time>2019-06-04T10:15:42Z</time>
      </trkpt>
      <trkpt lat="44.21119" lon="5.87449">
        <ele>486</ele>
        <time>2019-06-04T10:15:43Z</time>
      </trkpt>
      <trkpt lat="44.21125" lon="5.87442">
        <ele>486</ele>
        <time>2019-06-04T10:15:44Z</time>
      </trkpt>
      <trkpt lat="44.21131" lon="5.87436">
        <ele>486</ele>
        <time>2019-06-04T10:15:45Z</time>
      </trkpt>
      <trkpt lat="44.21137" lon="5.87429">
        <ele>486</ele>
        <time>2019-06-04T10:15:46Z</time>
      </trkpt>
      <trkpt lat="44.21143" lon="5.87422">
        <ele>486</ele>
        <time>2019-06-04T10:15:47Z</time>
      </trkpt>
      <trkpt lat="44.21149" lon="5.87416">
        <ele>486</ele>
        <time>2019-06-04T10:15:48Z</time>
      </trkpt>
      <trkpt lat="44.21155" lon="5.87408">
        <ele>486</ele>
        <time>2019-06-04T10:15:49Z</time>
      </trkpt>
      <trkpt lat="44.21161" lon="5.87402">
        <ele>486</ele>
        <time>2019-06-04T10:15:50Z</time>
      </trkpt>
      <trkpt lat="44.21167" lon="5.87395">
        <ele>486</ele>
        <time>2019-06-04T10:15:51Z</time>
      </trkpt>
      <trkpt lat="44.21173" lon="5.87388">
        <ele>486</ele>
        <time>2019-06-04T10:15:52Z</time>
      </trkpt>
      <trkpt lat="44.2118" lon="5.87381">
        <ele>486</ele>
        <time>2019-06-04T10:15:53Z</time>
      </trkpt>
      <trkpt lat="44.21186" lon="5.87374">
        <ele>486</ele>
        <time>2019-06-04T10:15:54Z</time>
      </trkpt>
      <trkpt lat="44.21192" lon="5.87367">
        <ele>486</ele>
        <time>2019-06-04T10:15:55Z</time>
      </trkpt>
      <trkpt lat="44.21197" lon="5.87361">
        <ele>486</ele>
        <time>2019-06-04T10:15:56Z</time>
      </trkpt>
      <trkpt lat="44.21203" lon="5.87354">
        <ele>486</ele>
        <time>2019-06-04T10:15:57Z</time>
      </trkpt>
      <trkpt lat="44.21209" lon="5.87348">
        <ele>486</ele>
        <time>2019-06-04T10:15:58Z</time>
      </trkpt>
      <trkpt lat="44.21214" lon="5.87342">
        <ele>486</ele>
        <time>2019-06-04T10:15:59Z</time>
      </trkpt>
      <trkpt lat="44.2122" lon="5.87336">
        <ele>486</ele>
        <time>2019-06-04T10:16:00Z</time>
      </trkpt>
      <trkpt lat="44.21225" lon="5.8733">
        <ele>486</ele>
        <time>2019-06-04T10:16:01Z</time>
      </trkpt>
      <trkpt lat="44.2123" lon="5.87324">
        <ele>486</ele>
        <time>2019-06-04T10:16:02Z</time>
      </trkpt>
      <trkpt lat="44.21235" lon="5.87318">
        <ele>486</ele>
        <time>2019-06-04T10:16:03Z</time>
      </trkpt>
      <trkpt lat="44.2124" lon="5.87312">
        <ele>486</ele>
        <time>2019-06-04T10:16:04Z</time>
      </trkpt>
      <trkpt lat="44.21246" lon="5.87306">
        <ele>486</ele>
        <time>2019-06-04T10:16:05Z</time>
      </trkpt>
      <trkpt lat="44.21251" lon="5.87301">
        <ele>486</ele>
        <time>2019-06-04T10:16:06Z</time>
      </trkpt>
      <trkpt lat="44.21256" lon="5.87295">
        <ele>486</ele>
        <time>2019-06-04T10:16:07Z</time>
      </trkpt>
      <trkpt lat="44.21261" lon="5.87289">
        <ele>486</ele>
        <time>2019-06-04T10:16:08Z</time>
      </trkpt>
      <trkpt lat="44.21266" lon="5.87283">
        <ele>486</ele>
        <time>2019-06-04T10:16:09Z</time>
      </trkpt>
      <trkpt lat="44.21272" lon="5.87277">
        <ele>486</ele>
        <time>2019-06-04T10:16:10Z</time>
      </trkpt>
      <trkpt lat="44.21277" lon="5.87272">
        <ele>486</ele>
        <time>2019-06-04T10:16:11Z</time>
      </trkpt>
      <trkpt lat="44.21282" lon="5.87266">
        <ele>486</ele>
        <time>2019-06-04T10:16:12Z</time>
      </trkpt>
      <trkpt lat="44.21287" lon="5.8726">
        <ele>486</ele>
        <time>2019-06-04T10:16:13Z</time>
      </trkpt>
      <trkpt lat="44.21292" lon="5.87255">
        <ele>486</ele>
        <time>2019-06-04T10:16:14Z</time>
      </trkpt>
      <trkpt lat="44.21297" lon="5.87249">
        <ele>486</ele>
        <time>2019-06-04T10:16:15Z</time>
      </trkpt>
      <trkpt lat="44.21302" lon="5.87243">
        <ele>486</ele>
        <time>2019-06-04T10:16:16Z</time>
      </trkpt>
      <trkpt lat="44.21307" lon="5.87238">
        <ele>486</ele>
        <time>2019-06-04T10:16:17Z</time>
      </trkpt>
      <trkpt lat="44.21312" lon="5.87232">
        <ele>486</ele>
        <time>2019-06-04T10:16:18Z</time>
      </trkpt>
      <trkpt lat="44.21317" lon="5.87227">
        <ele>486</ele>
        <time>2019-06-04T10:16:19Z</time>
      </trkpt>
      <trkpt lat="44.21321" lon="5.87221">
        <ele>486</ele>
        <time>2019-06-04T10:16:20Z</time>
      </trkpt>
      <trkpt lat="44.21326" lon="5.87216">
        <ele>486</ele>
        <time>2019-06-04T10:16:21Z</time>
      </trkpt>
      <trkpt lat="44.21331" lon="5.8721">
        <ele>486</ele>
        <time>2019-06-04T10:16:22Z</time>
      </trkpt>
      <trkpt lat="44.21336" lon="5.87205">
        <ele>486</ele>
        <time>2019-06-04T10:16:23Z</time>
      </trkpt>
      <trkpt lat="44.2134" lon="5.87199">
        <ele>486</ele>
        <time>2019-06-04T10:16:24Z</time>
      </trkpt>
      <trkpt lat="44.21345" lon="5.87194">
        <ele>486</ele>
        <time>2019-06-04T10:16:25Z</time>
      </trkpt>
      <trkpt lat="44.2135" lon="5.87188">
        <ele>486</ele>
        <time>2019-06-04T10:16:26Z</time>
      </trkpt>
      <trkpt lat="44.21355" lon="5.87183">
        <ele>486</ele>
        <time>2019-06-04T10:16:27Z</time>
      </trkpt>
      <trkpt lat="44.2136" lon="5.87178">
        <ele>486</ele>
        <time>2019-06-04T10:16:28Z</time>
      </trkpt>
      <trkpt lat="44.21364" lon="5.87172">
        <ele>486</ele>
        <time>2019-06-04T10:16:29Z</time>
      </trkpt>
      <trkpt lat="44.21369" lon="5.87167">
        <ele>486</ele>
        <time>2019-06-04T10:16:30Z</time>
      </trkpt>
      <trkpt lat="44.21373" lon="5.87161">
        <ele>486</ele>
        <time>2019-06-04T10:16:31Z</time>
      </trkpt>
      <trkpt lat="44.21378" lon="5.87156">
        <ele>486</ele>
        <time>2019-06-04T10:16:32Z</time>
      </trkpt>
      <trkpt lat="44.21382" lon="5.87151">
        <ele>487</ele>
        <time>2019-06-04T10:16:33Z</time>
      </trkpt>
      <trkpt lat="44.21386" lon="5.87146">
        <ele>487</ele>
        <time>2019-06-04T10:16:34Z</time>
      </trkpt>
      <trkpt lat="44.21391" lon="5.87141">
        <ele>487</ele>
        <time>2019-06-04T10:16:35Z</time>
      </trkpt>
      <trkpt lat="44.21395" lon="5.87136">
        <ele>488</ele>
        <time>2019-06-04T10:16:36Z</time>
      </trkpt>
      <trkpt lat="44.21399" lon="5.8713">
        <ele>488</ele>
        <time>2019-06-04T10:16:37Z</time>
      </trkpt>
      <trkpt lat="44.21404" lon="5.87125">
        <ele>488</ele>
        <time>2019-06-04T10:16:38Z</time>
      </trkpt>
      <trkpt lat="44.21408" lon="5.8712">
        <ele>488</ele>
        <time>2019-06-04T10:16:39Z</time>
      </trkpt>
      <trkpt lat="44.21412" lon="5.87115">
        <ele>489</ele>
        <time>2019-06-04T10:16:40Z</time>
      </trkpt>
      <trkpt lat="44.21417" lon="5.8711">
        <ele>489</ele>
        <time>2019-06-04T10:16:41Z</time>
      </trkpt>
      <trkpt lat="44.21421" lon="5.87105">
        <ele>489</ele>
        <time>2019-06-04T10:16:42Z</time>
      </trkpt>
      <trkpt lat="44.21426" lon="5.871">
        <ele>489</ele>
        <time>2019-06-04T10:16:43Z</time>
      </trkpt>
      <trkpt lat="44.2143" lon="5.87095">
        <ele>490</ele>
        <time>2019-06-04T10:16:44Z</time>
      </trkpt>
      <trkpt lat="44.21434" lon="5.8709">
        <ele>490</ele>
        <time>2019-06-04T10:16:45Z</time>
      </trkpt>
      <trkpt lat="44.21439" lon="5.87084">
        <ele>490</ele>
        <time>2019-06-04T10:16:46Z</time>
      </trkpt>
      <trkpt lat="44.21443" lon="5.87079">
        <ele>490</ele>
        <time>2019-06-04T10:16:47Z</time>
      </trkpt>
      <trkpt lat="44.21448" lon="5.87074">
        <ele>490</ele>
        <time>2019-06-04T10:16:48Z</time>
      </trkpt>
      <trkpt lat="44.21453" lon="5.87069">
        <ele>490</ele>
        <time>2019-06-04T10:16:49Z</time>
      </trkpt>
      <trkpt lat="44.21458" lon="5.87064">
        <ele>490</ele>
        <time>2019-06-04T10:16:50Z</time>
      </trkpt>
      <trkpt lat="44.21463" lon="5.87059">
        <ele>490</ele>
        <time>2019-06-04T10:16:51Z</time>
      </trkpt>
      <trkpt lat="44.21467" lon="5.87053">
        <ele>490</ele>
        <time>2019-06-04T10:16:52Z</time>
      </trkpt>
      <trkpt lat="44.21471" lon="5.87048">
        <ele>490</ele>
        <time>2019-06-04T10:16:53Z</time>
      </trkpt>
      <trkpt lat="44.21476" lon="5.87043">
        <ele>491</ele>
        <time>2019-06-04T10:16:54Z</time>
      </trkpt>
      <trkpt lat="44.21481" lon="5.87037">
        <ele>491</ele>
        <time>2019-06-04T10:16:55Z</time>
      </trkpt>
      <trkpt lat="44.21486" lon="5.87031">
        <ele>491</ele>
        <time>2019-06-04T10:16:56Z</time>
      </trkpt>
      <trkpt lat="44.21491" lon="5.87026">
        <ele>491</ele>
        <time>2019-06-04T10:16:57Z</time>
      </trkpt>
      <trkpt lat="44.21496" lon="5.8702">
        <ele>491</ele>
        <time>2019-06-04T10:16:58Z</time>
      </trkpt>
      <trkpt lat="44.21501" lon="5.87015">
        <ele>491</ele>
        <time>2019-06-04T10:16:59Z</time>
      </trkpt>
      <trkpt lat="44.21506" lon="5.87009">
        <ele>491</ele>
        <time>2019-06-04T10:17:00Z</time>
      </trkpt>
      <trkpt lat="44.21511" lon="5.87003">
        <ele>491</ele>
        <time>2019-06-04T10:17:01Z</time>
      </trkpt>
      <trkpt lat="44.21516" lon="5.86997">
        <ele>491</ele>
        <time>2019-06-04T10:17:02Z</time>
      </trkpt>
      <trkpt lat="44.21521" lon="5.86992">
        <ele>491</ele>
        <time>2019-06-04T10:17:03Z</time>
      </trkpt>
      <trkpt lat="44.21526" lon="5.86986">
        <ele>491</ele>
        <time>2019-06-04T10:17:04Z</time>
      </trkpt>
      <trkpt lat="44.21531" lon="5.8698">
        <ele>491</ele>
        <time>2019-06-04T10:17:05Z</time>
      </trkpt>
      <trkpt lat="44.21537" lon="5.86975">
        <ele>491</ele>
        <time>2019-06-04T10:17:06Z</time>
      </trkpt>
      <trkpt lat="44.21542" lon="5.86969">
        <ele>492</ele>
        <time>2019-06-04T10:17:07Z</time>
      </trkpt>
      <trkpt lat="44.21546" lon="5.86963">
        <ele>492</ele>
        <time>2019-06-04T10:17:08Z</time>
      </trkpt>
      <trkpt lat="44.21551" lon="5.86958">
        <ele>492</ele>
        <time>2019-06-04T10:17:09Z</time>
      </trkpt>
      <trkpt lat="44.21556" lon="5.86952">
        <ele>492</ele>
        <time>2019-06-04T10:17:10Z</time>
      </trkpt>
      <trkpt lat="44.21561" lon="5.86946">
        <ele>492</ele>
        <time>2019-06-04T10:17:11Z</time>
      </trkpt>
      <trkpt lat="44.21566" lon="5.86941">
        <ele>492</ele>
        <time>2019-06-04T10:17:12Z</time>
      </trkpt>
      <trkpt lat="44.21571" lon="5.86935">
        <ele>492</ele>
        <time>2019-06-04T10:17:13Z</time>
      </trkpt>
      <trkpt lat="44.21576" lon="5.8693">
        <ele>492</ele>
        <time>2019-06-04T10:17:14Z</time>
      </trkpt>
      <trkpt lat="44.21581" lon="5.86925">
        <ele>492</ele>
        <time>2019-06-04T10:17:15Z</time>
      </trkpt>
      <trkpt lat="44.21585" lon="5.86919">
        <ele>493</ele>
        <time>2019-06-04T10:17:16Z</time>
      </trkpt>
      <trkpt lat="44.2159" lon="5.86914">
        <ele>493</ele>
        <time>2019-06-04T10:17:17Z</time>
      </trkpt>
      <trkpt lat="44.21595" lon="5.86908">
        <ele>493</ele>
        <time>2019-06-04T10:17:18Z</time>
      </trkpt>
      <trkpt lat="44.21599" lon="5.86903">
        <ele>493</ele>
        <time>2019-06-04T10:17:19Z</time>
      </trkpt>
      <trkpt lat="44.21604" lon="5.86897">
        <ele>493</ele>
        <time>2019-06-04T10:17:20Z</time>
      </trkpt>
      <trkpt lat="44.21609" lon="5.86892">
        <ele>493</ele>
        <time>2019-06-04T10:17:21Z</time>
      </trkpt>
      <trkpt lat="44.21613" lon="5.86887">
        <ele>494</ele>
        <time>2019-06-04T10:17:22Z</time>
      </trkpt>
      <trkpt lat="44.21618" lon="5.86882">
        <ele>494</ele>
        <time>2019-06-04T10:17:23Z</time>
      </trkpt>
      <trkpt lat="44.21622" lon="5.86877">
        <ele>494</ele>
        <time>2019-06-04T10:17:24Z</time>
      </trkpt>
      <trkpt lat="44.21627" lon="5.86871">
        <ele>494</ele>
        <time>2019-06-04T10:17:25Z</time>
      </trkpt>
      <trkpt lat="44.2163" lon="5.86866">
        <ele>495</ele>
        <time>2019-06-04T10:17:26Z</time>
      </trkpt>
      <trkpt lat="44.21635" lon="5.86861">
        <ele>495</ele>
        <time>2019-06-04T10:17:27Z</time>
      </trkpt>
      <trkpt lat="44.21639" lon="5.86856">
        <ele>495</ele>
        <time>2019-06-04T10:17:28Z</time>
      </trkpt>
      <trkpt lat="44.21643" lon="5.86851">
        <ele>495</ele>
        <time>2019-06-04T10:17:29Z</time>
      </trkpt>
      <trkpt lat="44.21648" lon="5.86845">
        <ele>496</ele>
        <time>2019-06-04T10:17:30Z</time>
      </trkpt>
      <trkpt lat="44.21652" lon="5.8684">
        <ele>496</ele>
        <time>2019-06-04T10:17:31Z</time>
      </trkpt>
      <trkpt lat="44.21656" lon="5.86834">
        <ele>496</ele>
        <time>2019-06-04T10:17:32Z</time>
      </trkpt>
      <trkpt lat="44.2166" lon="5.86829">
        <ele>496</ele>
        <time>2019-06-04T10:17:33Z</time>
      </trkpt>
      <trkpt lat="44.21664" lon="5.86823">
        <ele>496</ele>
        <time>2019-06-04T10:17:34Z</time>
      </trkpt>
      <trkpt lat="44.21667" lon="5.86817">
        <ele>496</ele>
        <time>2019-06-04T10:17:35Z</time>
      </trkpt>
      <trkpt lat="44.21671" lon="5.86812">
        <ele>496</ele>
        <time>2019-06-04T10:17:36Z</time>
      </trkpt>
      <trkpt lat="44.21675" lon="5.86806">
        <ele>496</ele>
        <time>2019-06-04T10:17:37Z</time>
      </trkpt>
      <trkpt lat="44.21679" lon="5.868">
        <ele>497</ele>
        <time>2019-06-04T10:17:38Z</time>
      </trkpt>
      <trkpt lat="44.21682" lon="5.86794">
        <ele>497</ele>
        <time>2019-06-04T10:17:39Z</time>
      </trkpt>
      <trkpt lat="44.21685" lon="5.86788">
        <ele>497</ele>
        <time>2019-06-04T10:17:40Z</time>
      </trkpt>
      <trkpt lat="44.21689" lon="5.86781">
        <ele>497</ele>
        <time>2019-06-04T10:17:41Z</time>
      </trkpt>
      <trkpt lat="44.21693" lon="5.86775">
        <ele>497</ele>
        <time>2019-06-04T10:17:42Z</time>
      </trkpt>
      <trkpt lat="44.21696" lon="5.86769">
        <ele>497</ele>
        <time>2019-06-04T10:17:43Z</time>
      </trkpt>
      <trkpt lat="44.217" lon="5.86763">
        <ele>498</ele>
        <time>2019-06-04T10:17:44Z</time>
      </trkpt>
      <trkpt lat="44.21703" lon="5.86757">
        <ele>498</ele>
        <time>2019-06-04T10:17:45Z</time>
      </trkpt>
      <trkpt lat="44.21706" lon="5.8675">
        <ele>498</ele>
        <time>2019-06-04T10:17:46Z</time>
      </trkpt>
      <trkpt lat="44.2171" lon="5.86744">
        <ele>498</ele>
        <time>2019-06-04T10:17:47Z</time>
      </trkpt>
      <trkpt lat="44.21713" lon="5.86738">
        <ele>498</ele>
        <time>2019-06-04T10:17:48Z</time>
      </trkpt>
      <trkpt lat="44.21716" lon="5.86732">
        <ele>498</ele>
        <time>2019-06-04T10:17:49Z</time>
      </trkpt>
      <trkpt lat="44.21719" lon="5.86726">
        <ele>499</ele>
        <time>2019-06-04T10:17:50Z</time>
      </trkpt>
      <trkpt lat="44.21722" lon="5.86721">
        <ele>499</ele>
        <time>2019-06-04T10:17:51Z</time>
      </trkpt>
      <trkpt lat="44.21725" lon="5.86715">
        <ele>499</ele>
        <time>2019-06-04T10:17:52Z</time>
      </trkpt>
      <trkpt lat="44.21728" lon="5.86709">
        <ele>499</ele>
        <time>2019-06-04T10:17:53Z</time>
      </trkpt>
      <trkpt lat="44.21731" lon="5.86704">
        <ele>499</ele>
        <time>2019-06-04T10:17:54Z</time>
      </trkpt>
      <trkpt lat="44.21734" lon="5.86698">
        <ele>499</ele>
        <time>2019-06-04T10:17:55Z</time>
      </trkpt>
      <trkpt lat="44.21737" lon="5.86693">
        <ele>499</ele>
        <time>2019-06-04T10:17:56Z</time>
      </trkpt>
      <trkpt lat="44.2174" lon="5.86688">
        <ele>499</ele>
        <time>2019-06-04T10:17:57Z</time>
      </trkpt>
      <trkpt lat="44.21743" lon="5.86682">
        <ele>499</ele>
        <time>2019-06-04T10:17:58Z</time>
      </trkpt>
      <trkpt lat="44.21746" lon="5.86676">
        <ele>500</ele>
        <time>2019-06-04T10:17:59Z</time>
      </trkpt>
      <trkpt lat="44.2175" lon="5.8667">
        <ele>500</ele>
        <time>2019-06-04T10:18:00Z</time>
      </trkpt>
      <trkpt lat="44.21753" lon="5.86665">
        <ele>500</ele>
        <time>2019-06-04T10:18:01Z</time>
      </trkpt>
      <trkpt lat="44.21756" lon="5.86659">
        <ele>500</ele>
        <time>2019-06-04T10:18:02Z</time>
      </trkpt>
      <trkpt lat="44.21759" lon="5.86654">
        <ele>501</ele>
        <time>2019-06-04T10:18:03Z</time>
      </trkpt>
      <trkpt lat="44.21763" lon="5.86649">
        <ele>501</ele>
        <time>2019-06-04T10:18:04Z</time>
      </trkpt>
      <trkpt lat="44.21766" lon="5.86643">
        <ele>501</ele>
        <time>2019-06-04T10:18:05Z</time>
      </trkpt>
      <trkpt lat="44.21769" lon="5.86638">
        <ele>501</ele>
        <time>2019-06-04T10:18:06Z</time>
      </trkpt>
      <trkpt lat="44.21772" lon="5.86633">
        <ele>502</ele>
        <time>2019-06-04T10:18:07Z</time>
      </trkpt>
      <trkpt lat="44.21776" lon="5.86628">
        <ele>502</ele>
        <time>2019-06-04T10:18:08Z</time>
      </trkpt>
      <trkpt lat="44.21779" lon="5.86624">
        <ele>502</ele>
        <time>2019-06-04T10:18:09Z</time>
      </trkpt>
      <trkpt lat="44.21783" lon="5.8662">
        <ele>502</ele>
        <time>2019-06-04T10:18:10Z</time>
      </trkpt>
      <trkpt lat="44.21786" lon="5.86615">
        <ele>502</ele>
        <time>2019-06-04T10:18:11Z</time>
      </trkpt>
      <trkpt lat="44.21789" lon="5.86611">
        <ele>502</ele>
        <time>2019-06-04T10:18:12Z</time>
      </trkpt>
      <trkpt lat="44.21793" lon="5.86606">
        <ele>502</ele>
        <time>2019-06-04T10:18:13Z</time>
      </trkpt>
      <trkpt lat="44.21796" lon="5.86602">
        <ele>502</ele>
        <time>2019-06-04T10:18:14Z</time>
      </trkpt>
      <trkpt lat="44.218" lon="5.86597">
        <ele>502</ele>
        <time>2019-06-04T10:18:15Z</time>
      </trkpt>
      <trkpt lat="44.21804" lon="5.86593">
        <ele>502</ele>
        <time>2019-06-04T10:18:16Z</time>
      </trkpt>
      <trkpt lat="44.21807" lon="5.86588">
        <ele>502</ele>
        <time>2019-06-04T10:18:17Z</time>
      </trkpt>
      <trkpt lat="44.21811" lon="5.86583">
        <ele>502</ele>
        <time>2019-06-04T10:18:18Z</time>
      </trkpt>
      <trkpt lat="44.21814" lon="5.86578">
        <ele>502</ele>
        <time>2019-06-04T10:18:19Z</time>
      </trkpt>
      <trkpt lat="44.21817" lon="5.86573">
        <ele>502</ele>
        <time>2019-06-04T10:18:20Z</time>
      </trkpt>
      <trkpt lat="44.21821" lon="5.86569">
        <ele>502</ele>
        <time>2019-06-04T10:18:21Z</time>
      </trkpt>
      <trkpt lat="44.21825" lon="5.86564">
        <ele>502</ele>
        <time>2019-06-04T10:18:22Z</time>
      </trkpt>
      <trkpt lat="44.21828" lon="5.86559">
        <ele>502</ele>
        <time>2019-06-04T10:18:23Z</time>
      </trkpt>
      <trkpt lat="44.21832" lon="5.86553">
        <ele>502</ele>
        <time>2019-06-04T10:18:24Z</time>
      </trkpt>
      <trkpt lat="44.21835" lon="5.86549">
        <ele>502</ele>
        <time>2019-06-04T10:18:25Z</time>
      </trkpt>
      <trkpt lat="44.21839" lon="5.86544">
        <ele>502</ele>
        <time>2019-06-04T10:18:26Z</time>
      </trkpt>
      <trkpt lat="44.21843" lon="5.86539">
        <ele>503</ele>
        <time>2019-06-04T10:18:27Z</time>
      </trkpt>
      <trkpt lat="44.21846" lon="5.86534">
        <ele>503</ele>
        <time>2019-06-04T10:18:28Z</time>
      </trkpt>
      <trkpt lat="44.21849" lon="5.8653">
        <ele>503</ele>
        <time>2019-06-04T10:18:29Z</time>
      </trkpt>
      <trkpt lat="44.21853" lon="5.86526">
        <ele>503</ele>
        <time>2019-06-04T10:18:30Z</time>
      </trkpt>
      <trkpt lat="44.21857" lon="5.86521">
        <ele>504</ele>
        <time>2019-06-04T10:18:31Z</time>
      </trkpt>
      <trkpt lat="44.2186" lon="5.86517">
        <ele>504</ele>
        <time>2019-06-04T10:18:32Z</time>
      </trkpt>
      <trkpt lat="44.21864" lon="5.86512">
        <ele>504</ele>
        <time>2019-06-04T10:18:33Z</time>
      </trkpt>
      <trkpt lat="44.21867" lon="5.86507">
        <ele>504</ele>
        <time>2019-06-04T10:18:34Z</time>
      </trkpt>
      <trkpt lat="44.21871" lon="5.86502">
        <ele>504</ele>
        <time>2019-06-04T10:18:35Z</time>
      </trkpt>
      <trkpt lat="44.21875" lon="5.86497">
        <ele>504</ele>
        <time>2019-06-04T10:18:36Z</time>
      </trkpt>
      <trkpt lat="44.21878" lon="5.86493">
        <ele>505</ele>
        <time>2019-06-04T10:18:37Z</time>
      </trkpt>
      <trkpt lat="44.21881" lon="5.86488">
        <ele>505</ele>
        <time>2019-06-04T10:18:38Z</time>
      </trkpt>
      <trkpt lat="44.21885" lon="5.86483">
        <ele>505</ele>
        <time>2019-06-04T10:18:39Z</time>
      </trkpt>
      <trkpt lat="44.21888" lon="5.86479">
        <ele>505</ele>
        <time>2019-06-04T10:18:40Z</time>
      </trkpt>
      <trkpt lat="44.21892" lon="5.86474">
        <ele>505</ele>
        <time>2019-06-04T10:18:41Z</time>
      </trkpt>
      <trkpt lat="44.21896" lon="5.86469">
        <ele>506</ele>
        <time>2019-06-04T10:18:42Z</time>
      </trkpt>
      <trkpt lat="44.21899" lon="5.86464">
        <ele>506</ele>
        <time>2019-06-04T10:18:43Z</time>
      </trkpt>
      <trkpt lat="44.21903" lon="5.86459">
        <ele>506</ele>
        <time>2019-06-04T10:18:44Z</time>
      </trkpt>
      <trkpt lat="44.21906" lon="5.86454">
        <ele>506</ele>
        <time>2019-06-04T10:18:45Z</time>
      </trkpt>
      <trkpt lat="44.2191" lon="5.86449">
        <ele>507</ele>
        <time>2019-06-04T10:18:46Z</time>
      </trkpt>
      <trkpt lat="44.21914" lon="5.86444">
        <ele>507</ele>
        <time>2019-06-04T10:18:47Z</time>
      </trkpt>
      <trkpt lat="44.21917" lon="5.86439">
        <ele>507</ele>
        <time>2019-06-04T10:18:48Z</time>
      </trkpt>
      <trkpt lat="44.21921" lon="5.86434">
        <ele>507</ele>
        <time>2019-06-04T10:18:49Z</time>
      </trkpt>
      <trkpt lat="44.21925" lon="5.86429">
        <ele>507</ele>
        <time>2019-06-04T10:18:50Z</time>
      </trkpt>
      <trkpt lat="44.21929" lon="5.86423">
        <ele>507</ele>
        <time>2019-06-04T10:18:51Z</time>
      </trkpt>
      <trkpt lat="44.21933" lon="5.86418">
        <ele>507</ele>
        <time>2019-06-04T10:18:52Z</time>
      </trkpt>
      <trkpt lat="44.21937" lon="5.86413">
        <ele>508</ele>
        <time>2019-06-04T10:18:53Z</time>
      </trkpt>
      <trkpt lat="44.21941" lon="5.86408">
        <ele>508</ele>
        <time>2019-06-04T10:18:54Z</time>
      </trkpt>
      <trkpt lat="44.21944" lon="5.86402">
        <ele>508</ele>
        <time>2019-06-04T10:18:55Z</time>
      </trkpt>
      <trkpt lat="44.21948" lon="5.86397">
        <ele>508</ele>
        <time>2019-06-04T10:18:56Z</time>
      </trkpt>
      <trkpt lat="44.21952" lon="5.86391">
        <ele>508</ele>
        <time>2019-06-04T10:18:57Z</time>
      </trkpt>
      <trkpt lat="44.21956" lon="5.86386">
        <ele>508</ele>
        <time>2019-06-04T10:18:58Z</time>
      </trkpt>
      <trkpt lat="44.2196" lon="5.8638">
        <ele>508</ele>
        <time>2019-06-04T10:18:59Z</time>
      </trkpt>
      <trkpt lat="44.21964" lon="5.86375">
        <ele>509</ele>
        <time>2019-06-04T10:19:00Z</time>
      </trkpt>
      <trkpt lat="44.21968" lon="5.8637">
        <ele>509</ele>
        <time>2019-06-04T10:19:01Z</time>
      </trkpt>
      <trkpt lat="44.21972" lon="5.86365">
        <ele>509</ele>
        <time>2019-06-04T10:19:02Z</time>
      </trkpt>
      <trkpt lat="44.21976" lon="5.86359">
        <ele>509</ele>
        <time>2019-06-04T10:19:03Z</time>
      </trkpt>
      <trkpt lat="44.2198" lon="5.86354">
        <ele>509</ele>
        <time>2019-06-04T10:19:04Z</time>
      </trkpt>
      <trkpt lat="44.21984" lon="5.86348">
        <ele>509</ele>
        <time>2019-06-04T10:19:05Z</time>
      </trkpt>
      <trkpt lat="44.21988" lon="5.86343">
        <ele>509</ele>
        <time>2019-06-04T10:19:06Z</time>
      </trkpt>
      <trkpt lat="44.21992" lon="5.86338">
        <ele>509</ele>
        <time>2019-06-04T10:19:07Z</time>
      </trkpt>
      <trkpt lat="44.21996" lon="5.86332">
        <ele>510</ele>
        <time>2019-06-04T10:19:08Z</time>
      </trkpt>
      <trkpt lat="44.22" lon="5.86327">
        <ele>510</ele>
        <time>2019-06-04T10:19:09Z</time>
      </trkpt>
      <trkpt lat="44.22004" lon="5.86322">
        <ele>510</ele>
        <time>2019-06-04T10:19:10Z</time>
      </trkpt>
      <trkpt lat="44.22008" lon="5.86316">
        <ele>510</ele>
        <time>2019-06-04T10:19:11Z</time>
      </trkpt>
      <trkpt lat="44.22012" lon="5.86311">
        <ele>510</ele>
        <time>2019-06-04T10:19:12Z</time>
      </trkpt>
      <trkpt lat="44.22015" lon="5.86306">
        <ele>510</ele>
        <time>2019-06-04T10:19:13Z</time>
      </trkpt>
      <trkpt lat="44.2202" lon="5.86302">
        <ele>510</ele>
        <time>2019-06-04T10:19:14Z</time>
      </trkpt>
      <trkpt lat="44.22023" lon="5.86296">
        <ele>510</ele>
        <time>2019-06-04T10:19:15Z</time>
      </trkpt>
      <trkpt lat="44.22027" lon="5.86291">
        <ele>510</ele>
        <time>2019-06-04T10:19:16Z</time>
      </trkpt>
      <trkpt lat="44.22031" lon="5.86286">
        <ele>510</ele>
        <time>2019-06-04T10:19:17Z</time>
      </trkpt>
      <trkpt lat="44.22035" lon="5.8628">
        <ele>510</ele>
        <time>2019-06-04T10:19:18Z</time>
      </trkpt>
      <trkpt lat="44.22039" lon="5.86275">
        <ele>510</ele>
        <time>2019-06-04T10:19:19Z</time>
      </trkpt>
      <trkpt lat="44.22043" lon="5.8627">
        <ele>510</ele>
        <time>2019-06-04T10:19:20Z</time>
      </trkpt>
      <trkpt lat="44.22047" lon="5.86264">
        <ele>510</ele>
        <time>2019-06-04T10:19:21Z</time>
      </trkpt>
      <trkpt lat="44.22051" lon="5.86259">
        <ele>510</ele>
        <time>2019-06-04T10:19:22Z</time>
      </trkpt>
      <trkpt lat="44.22055" lon="5.86253">
        <ele>510</ele>
        <time>2019-06-04T10:19:23Z</time>
      </trkpt>
      <trkpt lat="44.2206" lon="5.86248">
        <ele>510</ele>
        <time>2019-06-04T10:19:24Z</time>
      </trkpt>
      <trkpt lat="44.22063" lon="5.86243">
        <ele>510</ele>
        <time>2019-06-04T10:19:25Z</time>
      </trkpt>
      <trkpt lat="44.22067" lon="5.86237">
        <ele>510</ele>
        <time>2019-06-04T10:19:26Z</time>
      </trkpt>
      <trkpt lat="44.22071" lon="5.86231">
        <ele>510</ele>
        <time>2019-06-04T10:19:27Z</time>
      </trkpt>
      <trkpt lat="44.22075" lon="5.86226">
        <ele>510</ele>
        <time>2019-06-04T10:19:28Z</time>
      </trkpt>
      <trkpt lat="44.22079" lon="5.8622">
        <ele>511</ele>
        <time>2019-06-04T10:19:29Z</time>
      </trkpt>
      <trkpt lat="44.22083" lon="5.86215">
        <ele>511</ele>
        <time>2019-06-04T10:19:30Z</time>
      </trkpt>
      <trkpt lat="44.22087" lon="5.8621">
        <ele>511</ele>
        <time>2019-06-04T10:19:31Z</time>
      </trkpt>
      <trkpt lat="44.22091" lon="5.86205">
        <ele>512</ele>
        <time>2019-06-04T10:19:32Z</time>
      </trkpt>
      <trkpt lat="44.22095" lon="5.86201">
        <ele>512</ele>
        <time>2019-06-04T10:19:33Z</time>
      </trkpt>
      <trkpt lat="44.221" lon="5.86197">
        <ele>512</ele>
        <time>2019-06-04T10:19:34Z</time>
      </trkpt>
      <trkpt lat="44.22104" lon="5.86193">
        <ele>512</ele>
        <time>2019-06-04T10:19:35Z</time>
      </trkpt>
      <trkpt lat="44.22108" lon="5.86188">
        <ele>512</ele>
        <time>2019-06-04T10:19:36Z</time>
      </trkpt>
      <trkpt lat="44.22112" lon="5.86184">
        <ele>513</ele>
        <time>2019-06-04T10:19:37Z</time>
      </trkpt>
      <trkpt lat="44.22117" lon="5.86181">
        <ele>513</ele>
        <time>2019-06-04T10:19:38Z</time>
      </trkpt>
      <trkpt lat="44.22122" lon="5.86177">
        <ele>513</ele>
        <time>2019-06-04T10:19:39Z</time>
      </trkpt>
      <trkpt lat="44.22127" lon="5.86174">
        <ele>514</ele>
        <time>2019-06-04T10:19:40Z</time>
      </trkpt>
      <trkpt lat="44.22132" lon="5.86171">
        <ele>514</ele>
        <time>2019-06-04T10:19:41Z</time>
      </trkpt>
      <trkpt lat="44.22137" lon="5.86169">
        <ele>514</ele>
        <time>2019-06-04T10:19:42Z</time>
      </trkpt>
      <trkpt lat="44.22142" lon="5.86166">
        <ele>514</ele>
        <time>2019-06-04T10:19:43Z</time>
      </trkpt>
      <trkpt lat="44.22148" lon="5.86163">
        <ele>514</ele>
        <time>2019-06-04T10:19:44Z</time>
      </trkpt>
      <trkpt lat="44.22153" lon="5.8616">
        <ele>514</ele>
        <time>2019-06-04T10:19:45Z</time>
      </trkpt>
      <trkpt lat="44.22158" lon="5.86158">
        <ele>514</ele>
        <time>2019-06-04T10:19:46Z</time>
      </trkpt>
      <trkpt lat="44.22164" lon="5.86155">
        <ele>514</ele>
        <time>2019-06-04T10:19:47Z</time>
      </trkpt>
      <trkpt lat="44.22169" lon="5.86153">
        <ele>514</ele>
        <time>2019-06-04T10:19:48Z</time>
      </trkpt>
      <trkpt lat="44.22175" lon="5.8615">
        <ele>514</ele>
        <time>2019-06-04T10:19:49Z</time>
      </trkpt>
      <trkpt lat="44.2218" lon="5.86147">
        <ele>514</ele>
        <time>2019-06-04T10:19:50Z</time>
      </trkpt>
      <trkpt lat="44.22185" lon="5.86144">
        <ele>514</ele>
        <time>2019-06-04T10:19:51Z</time>
      </trkpt>
      <trkpt lat="44.22191" lon="5.86141">
        <ele>514</ele>
        <time>2019-06-04T10:19:52Z</time>
      </trkpt>
      <trkpt lat="44.22196" lon="5.86138">
        <ele>514</ele>
        <time>2019-06-04T10:19:53Z</time>
      </trkpt>
      <trkpt lat="44.22202" lon="5.86136">
        <ele>514</ele>
        <time>2019-06-04T10:19:54Z</time>
      </trkpt>
      <trkpt lat="44.22207" lon="5.86133">
        <ele>514</ele>
        <time>2019-06-04T10:19:55Z</time>
      </trkpt>
      <trkpt lat="44.22213" lon="5.86131">
        <ele>514</ele>
        <time>2019-06-04T10:19:56Z</time>
      </trkpt>
      <trkpt lat="44.22218" lon="5.86129">
        <ele>514</ele>
        <time>2019-06-04T10:19:57Z</time>
      </trkpt>
      <trkpt lat="44.22223" lon="5.86127">
        <ele>514</ele>
        <time>2019-06-04T10:19:58Z</time>
      </trkpt>
      <trkpt lat="44.22229" lon="5.86125">
        <ele>514</ele>
        <time>2019-06-04T10:19:59Z</time>
      </trkpt>
      <trkpt lat="44.22234" lon="5.86122">
        <ele>514</ele>
        <time>2019-06-04T10:20:00Z</time>
      </trkpt>
      <trkpt lat="44.22239" lon="5.8612">
        <ele>514</ele>
        <time>2019-06-04T10:20:01Z</time>
      </trkpt>
      <trkpt lat="44.22245" lon="5.86118">
        <ele>514</ele>
        <time>2019-06-04T10:20:02Z</time>
      </trkpt>
      <trkpt lat="44.2225" lon="5.86115">
        <ele>514</ele>
        <time>2019-06-04T10:20:03Z</time>
      </trkpt>
      <trkpt lat="44.22255" lon="5.86112">
        <ele>514</ele>
        <time>2019-06-04T10:20:04Z</time>
      </trkpt>
      <trkpt lat="44.22261" lon="5.86109">
        <ele>514</ele>
        <time>2019-06-04T10:20:05Z</time>
      </trkpt>
      <trkpt lat="44.22267" lon="5.86106">
        <ele>514</ele>
        <time>2019-06-04T10:20:06Z</time>
      </trkpt>
      <trkpt lat="44.22272" lon="5.86103">
        <ele>514</ele>
        <time>2019-06-04T10:20:07Z</time>
      </trkpt>
      <trkpt lat="44.22279" lon="5.86101">
        <ele>514</ele>
        <time>2019-06-04T10:20:08Z</time>
      </trkpt>
      <trkpt lat="44.22285" lon="5.86098">
        <ele>514</ele>
        <time>2019-06-04T10:20:09Z</time>
      </trkpt>
      <trkpt lat="44.2229" lon="5.86095">
        <ele>514</ele>
        <time>2019-06-04T10:20:10Z</time>
      </trkpt>
      <trkpt lat="44.22296" lon="5.86092">
        <ele>514</ele>
        <time>2019-06-04T10:20:11Z</time>
      </trkpt>
      <trkpt lat="44.22302" lon="5.86088">
        <ele>514</ele>
        <time>2019-06-04T10:20:12Z</time>
      </trkpt>
      <trkpt lat="44.22308" lon="5.86085">
        <ele>514</ele>
        <time>2019-06-04T10:20:13Z</time>
      </trkpt>
      <trkpt lat="44.22314" lon="5.86082">
        <ele>514</ele>
        <time>2019-06-04T10:20:14Z</time>
      </trkpt>
      <trkpt lat="44.2232" lon="5.86079">
        <ele>514</ele>
        <time>2019-06-04T10:20:15Z</time>
      </trkpt>
      <trkpt lat="44.22326" lon="5.86076">
        <ele>514</ele>
        <time>2019-06-04T10:20:16Z</time>
      </trkpt>
      <trkpt lat="44.22332" lon="5.86073">
        <ele>514</ele>
        <time>2019-06-04T10:20:17Z</time>
      </trkpt>
      <trkpt lat="44.22337" lon="5.8607">
        <ele>514</ele>
        <time>2019-06-04T10:20:18Z</time>
      </trkpt>
      <trkpt lat="44.22343" lon="5.86067">
        <ele>514</ele>
        <time>2019-06-04T10:20:19Z</time>
      </trkpt>
      <trkpt lat="44.22348" lon="5.86064">
        <ele>514</ele>
        <time>2019-06-04T10:20:20Z</time>
      </trkpt>
      <trkpt lat="44.22354" lon="5.86061">
        <ele>514</ele>
        <time>2019-06-04T10:20:21Z</time>
      </trkpt>
      <trkpt lat="44.2236" lon="5.86059">
        <ele>514</ele>
        <time>2019-06-04T10:20:22Z</time>
      </trkpt>
      <trkpt lat="44.22366" lon="5.86057">
        <ele>514</ele>
        <time>2019-06-04T10:20:23Z</time>
      </trkpt>
      <trkpt lat="44.22371" lon="5.86056">
        <ele>514</ele>
        <time>2019-06-04T10:20:24Z</time>
      </trkpt>
      <trkpt lat="44.22377" lon="5.86053">
        <ele>514</ele>
        <time>2019-06-04T10:20:25Z</time>
      </trkpt>
      <trkpt lat="44.22382" lon="5.86051">
        <ele>514</ele>
        <time>2019-06-04T10:20:26Z</time>
      </trkpt>
      <trkpt lat="44.22388" lon="5.86049">
        <ele>514</ele>
        <time>2019-06-04T10:20:27Z</time>
      </trkpt>
      <trkpt lat="44.22393" lon="5.86046">
        <ele>514</ele>
        <time>2019-06-04T10:20:28Z</time>
      </trkpt>
      <trkpt lat="44.22399" lon="5.86044">
        <ele>514</ele>
        <time>2019-06-04T10:20:29Z</time>
      </trkpt>
      <trkpt lat="44.22404" lon="5.86041">
        <ele>514</ele>
        <time>2019-06-04T10:20:30Z</time>
      </trkpt>
      <trkpt lat="44.2241" lon="5.86038">
        <ele>514</ele>
        <time>2019-06-04T10:20:31Z</time>
      </trkpt>
      <trkpt lat="44.22416" lon="5.86035">
        <ele>515</ele>
        <time>2019-06-04T10:20:32Z</time>
      </trkpt>
      <trkpt lat="44.22422" lon="5.86032">
        <ele>516</ele>
        <time>2019-06-04T10:20:33Z</time>
      </trkpt>
      <trkpt lat="44.22427" lon="5.8603">
        <ele>516</ele>
        <time>2019-06-04T10:20:34Z</time>
      </trkpt>
      <trkpt lat="44.22433" lon="5.86026">
        <ele>517</ele>
        <time>2019-06-04T10:20:35Z</time>
      </trkpt>
      <trkpt lat="44.22439" lon="5.86024">
        <ele>517</ele>
        <time>2019-06-04T10:20:36Z</time>
      </trkpt>
      <trkpt lat="44.22445" lon="5.8602">
        <ele>517</ele>
        <time>2019-06-04T10:20:37Z</time>
      </trkpt>
      <trkpt lat="44.22451" lon="5.86018">
        <ele>517</ele>
        <time>2019-06-04T10:20:38Z</time>
      </trkpt>
      <trkpt lat="44.22457" lon="5.86015">
        <ele>518</ele>
        <time>2019-06-04T10:20:39Z</time>
      </trkpt>
      <trkpt lat="44.22463" lon="5.86012">
        <ele>518</ele>
        <time>2019-06-04T10:20:40Z</time>
      </trkpt>
      <trkpt lat="44.22469" lon="5.86009">
        <ele>518</ele>
        <time>2019-06-04T10:20:41Z</time>
      </trkpt>
      <trkpt lat="44.22475" lon="5.86006">
        <ele>518</ele>
        <time>2019-06-04T10:20:42Z</time>
      </trkpt>
      <trkpt lat="44.2248" lon="5.86003">
        <ele>518</ele>
        <time>2019-06-04T10:20:43Z</time>
      </trkpt>
      <trkpt lat="44.22486" lon="5.86">
        <ele>518</ele>
        <time>2019-06-04T10:20:44Z</time>
      </trkpt>
      <trkpt lat="44.22492" lon="5.85997">
        <ele>518</ele>
        <time>2019-06-04T10:20:45Z</time>
      </trkpt>
      <trkpt lat="44.22498" lon="5.85994">
        <ele>518</ele>
        <time>2019-06-04T10:20:46Z</time>
      </trkpt>
      <trkpt lat="44.22504" lon="5.85991">
        <ele>519</ele>
        <time>2019-06-04T10:20:47Z</time>
      </trkpt>
      <trkpt lat="44.22509" lon="5.85988">
        <ele>519</ele>
        <time>2019-06-04T10:20:48Z</time>
      </trkpt>
      <trkpt lat="44.22515" lon="5.85985">
        <ele>519</ele>
        <time>2019-06-04T10:20:49Z</time>
      </trkpt>
      <trkpt lat="44.22522" lon="5.85982">
        <ele>519</ele>
        <time>2019-06-04T10:20:50Z</time>
      </trkpt>
      <trkpt lat="44.22528" lon="5.8598">
        <ele>519</ele>
        <time>2019-06-04T10:20:51Z</time>
      </trkpt>
      <trkpt lat="44.22534" lon="5.85977">
        <ele>519</ele>
        <time>2019-06-04T10:20:52Z</time>
      </trkpt>
      <trkpt lat="44.2254" lon="5.85973">
        <ele>520</ele>
        <time>2019-06-04T10:20:53Z</time>
      </trkpt>
      <trkpt lat="44.22546" lon="5.8597">
        <ele>520</ele>
        <time>2019-06-04T10:20:54Z</time>
      </trkpt>
      <trkpt lat="44.22552" lon="5.85967">
        <ele>520</ele>
        <time>2019-06-04T10:20:55Z</time>
      </trkpt>
      <trkpt lat="44.22558" lon="5.85964">
        <ele>520</ele>
        <time>2019-06-04T10:20:56Z</time>
      </trkpt>
      <trkpt lat="44.22564" lon="5.85961">
        <ele>520</ele>
        <time>2019-06-04T10:20:57Z</time>
      </trkpt>
      <trkpt lat="44.22569" lon="5.85958">
        <ele>521</ele>
        <time>2019-06-04T10:20:58Z</time>
      </trkpt>
      <trkpt lat="44.22575" lon="5.85955">
        <ele>521</ele>
        <time>2019-06-04T10:20:59Z</time>
      </trkpt>
      <trkpt lat="44.2258" lon="5.85952">
        <ele>521</ele>
        <time>2019-06-04T10:21:00Z</time>
      </trkpt>
      <trkpt lat="44.22586" lon="5.85949">
        <ele>521</ele>
        <time>2019-06-04T10:21:01Z</time>
      </trkpt>
      <trkpt lat="44.22591" lon="5.85946">
        <ele>521</ele>
        <time>2019-06-04T10:21:02Z</time>
      </trkpt>
      <trkpt lat="44.22596" lon="5.85943">
        <ele>521</ele>
        <time>2019-06-04T10:21:03Z</time>
      </trkpt>
      <trkpt lat="44.22602" lon="5.85939">
        <ele>521</ele>
        <time>2019-06-04T10:21:04Z</time>
      </trkpt>
      <trkpt lat="44.22608" lon="5.85936">
        <ele>521</ele>
        <time>2019-06-04T10:21:05Z</time>
      </trkpt>
      <trkpt lat="44.22613" lon="5.85933">
        <ele>521</ele>
        <time>2019-06-04T10:21:06Z</time>
      </trkpt>
      <trkpt lat="44.22618" lon="5.8593">
        <ele>521</ele>
        <time>2019-06-04T10:21:07Z</time>
      </trkpt>
      <trkpt lat="44.22624" lon="5.85927">
        <ele>521</ele>
        <time>2019-06-04T10:21:08Z</time>
      </trkpt>
      <trkpt lat="44.2263" lon="5.85925">
        <ele>521</ele>
        <time>2019-06-04T10:21:09Z</time>
      </trkpt>
      <trkpt lat="44.22635" lon="5.85922">
        <ele>522</ele>
        <time>2019-06-04T10:21:10Z</time>
      </trkpt>
      <trkpt lat="44.22641" lon="5.8592">
        <ele>522</ele>
        <time>2019-06-04T10:21:11Z</time>
      </trkpt>
      <trkpt lat="44.22646" lon="5.85918">
        <ele>522</ele>
        <time>2019-06-04T10:21:12Z</time>
      </trkpt>
      <trkpt lat="44.22651" lon="5.85915">
        <ele>522</ele>
        <time>2019-06-04T10:21:13Z</time>
      </trkpt>
      <trkpt lat="44.22656" lon="5.85912">
        <ele>522</ele>
        <time>2019-06-04T10:21:14Z</time>
      </trkpt>
      <trkpt lat="44.22662" lon="5.85909">
        <ele>522</ele>
        <time>2019-06-04T10:21:15Z</time>
      </trkpt>
      <trkpt lat="44.22667" lon="5.85906">
        <ele>522</ele>
        <time>2019-06-04T10:21:16Z</time>
      </trkpt>
      <trkpt lat="44.22673" lon="5.85904">
        <ele>522</ele>
        <time>2019-06-04T10:21:17Z</time>
      </trkpt>
      <trkpt lat="44.22678" lon="5.85901">
        <ele>522</ele>
        <time>2019-06-04T10:21:18Z</time>
      </trkpt>
      <trkpt lat="44.22684" lon="5.85898">
        <ele>522</ele>
        <time>2019-06-04T10:21:19Z</time>
      </trkpt>
      <trkpt lat="44.2269" lon="5.85895">
        <ele>522</ele>
        <time>2019-06-04T10:21:20Z</time>
      </trkpt>
      <trkpt lat="44.22695" lon="5.85892">
        <ele>522</ele>
        <time>2019-06-04T10:21:21Z</time>
      </trkpt>
      <trkpt lat="44.22701" lon="5.85889">
        <ele>522</ele>
        <time>2019-06-04T10:21:22Z</time>
      </trkpt>
      <trkpt lat="44.22706" lon="5.85886">
        <ele>523</ele>
        <time>2019-06-04T10:21:23Z</time>
      </trkpt>
      <trkpt lat="44.2271" lon="5.85883">
        <ele>523</ele>
        <time>2019-06-04T10:21:24Z</time>
      </trkpt>
      <trkpt lat="44.22715" lon="5.8588">
        <ele>523</ele>
        <time>2019-06-04T10:21:25Z</time>
      </trkpt>
      <trkpt lat="44.2272" lon="5.85878">
        <ele>524</ele>
        <time>2019-06-04T10:21:26Z</time>
      </trkpt>
      <trkpt lat="44.22726" lon="5.85875">
        <ele>524</ele>
        <time>2019-06-04T10:21:27Z</time>
      </trkpt>
      <trkpt lat="44.22731" lon="5.85873">
        <ele>524</ele>
        <time>2019-06-04T10:21:28Z</time>
      </trkpt>
      <trkpt lat="44.22735" lon="5.85871">
        <ele>524</ele>
        <time>2019-06-04T10:21:29Z</time>
      </trkpt>
      <trkpt lat="44.2274" lon="5.85869">
        <ele>524</ele>
        <time>2019-06-04T10:21:30Z</time>
      </trkpt>
      <trkpt lat="44.22745" lon="5.85866">
        <ele>524</ele>
        <time>2019-06-04T10:21:31Z</time>
      </trkpt>
      <trkpt lat="44.2275" lon="5.85863">
        <ele>524</ele>
        <time>2019-06-04T10:21:32Z</time>
      </trkpt>
      <trkpt lat="44.22756" lon="5.8586">
        <ele>524</ele>
        <time>2019-06-04T10:21:33Z</time>
      </trkpt>
      <trkpt lat="44.22761" lon="5.85858">
        <ele>524</ele>
        <time>2019-06-04T10:21:34Z</time>
      </trkpt>
      <trkpt lat="44.22766" lon="5.85855">
        <ele>524</ele>
        <time>2019-06-04T10:21:35Z</time>
      </trkpt>
      <trkpt lat="44.22771" lon="5.85853">
        <ele>524</ele>
        <time>2019-06-04T10:21:36Z</time>
      </trkpt>
      <trkpt lat="44.22776" lon="5.85851">
        <ele>524</ele>
        <time>2019-06-04T10:21:37Z</time>
      </trkpt>
      <trkpt lat="44.22781" lon="5.85848">
        <ele>524</ele>
        <time>2019-06-04T10:21:38Z</time>
      </trkpt>
      <trkpt lat="44.22786" lon="5.85846">
        <ele>524</ele>
        <time>2019-06-04T10:21:39Z</time>
      </trkpt>
      <trkpt lat="44.22792" lon="5.85845">
        <ele>524</ele>
        <time>2019-06-04T10:21:40Z</time>
      </trkpt>
      <trkpt lat="44.22797" lon="5.85842">
        <ele>524</ele>
        <time>2019-06-04T10:21:41Z</time>
      </trkpt>
      <trkpt lat="44.22802" lon="5.85839">
        <ele>524</ele>
        <time>2019-06-04T10:21:42Z</time>
      </trkpt>
      <trkpt lat="44.22807" lon="5.85837">
        <ele>524</ele>
        <time>2019-06-04T10:21:43Z</time>
      </trkpt>
      <trkpt lat="44.22812" lon="5.85835">
        <ele>524</ele>
        <time>2019-06-04T10:21:44Z</time>
      </trkpt>
      <trkpt lat="44.22816" lon="5.85832">
        <ele>524</ele>
        <time>2019-06-04T10:21:45Z</time>
      </trkpt>
      <trkpt lat="44.2282" lon="5.8583">
        <ele>525</ele>
        <time>2019-06-04T10:21:46Z</time>
      </trkpt>
      <trkpt lat="44.22824" lon="5.85828">
        <ele>525</ele>
        <time>2019-06-04T10:21:47Z</time>
      </trkpt>
      <trkpt lat="44.22829" lon="5.85826">
        <ele>525</ele>
        <time>2019-06-04T10:21:48Z</time>
      </trkpt>
      <trkpt lat="44.22833" lon="5.85824">
        <ele>526</ele>
        <time>2019-06-04T10:21:49Z</time>
      </trkpt>
      <trkpt lat="44.22837" lon="5.85822">
        <ele>526</ele>
        <time>2019-06-04T10:21:50Z</time>
      </trkpt>
      <trkpt lat="44.22841" lon="5.8582">
        <ele>526</ele>
        <time>2019-06-04T10:21:51Z</time>
      </trkpt>
      <trkpt lat="44.22845" lon="5.85818">
        <ele>526</ele>
        <time>2019-06-04T10:21:52Z</time>
      </trkpt>
      <trkpt lat="44.22849" lon="5.85817">
        <ele>526</ele>
        <time>2019-06-04T10:21:53Z</time>
      </trkpt>
      <trkpt lat="44.22853" lon="5.85815">
        <ele>526</ele>
        <time>2019-06-04T10:21:54Z</time>
      </trkpt>
      <trkpt lat="44.22857" lon="5.85812">
        <ele>526</ele>
        <time>2019-06-04T10:21:55Z</time>
      </trkpt>
      <trkpt lat="44.22862" lon="5.8581">
        <ele>526</ele>
        <time>2019-06-04T10:21:56Z</time>
      </trkpt>
      <trkpt lat="44.22866" lon="5.85808">
        <ele>526</ele>
        <time>2019-06-04T10:21:57Z</time>
      </trkpt>
      <trkpt lat="44.22871" lon="5.85805">
        <ele>526</ele>
        <time>2019-06-04T10:21:58Z</time>
      </trkpt>
      <trkpt lat="44.22876" lon="5.85803">
        <ele>526</ele>
        <time>2019-06-04T10:21:59Z</time>
      </trkpt>
      <trkpt lat="44.22881" lon="5.85801">
        <ele>526</ele>
        <time>2019-06-04T10:22:00Z</time>
      </trkpt>
      <trkpt lat="44.22885" lon="5.85799">
        <ele>526</ele>
        <time>2019-06-04T10:22:01Z</time>
      </trkpt>
      <trkpt lat="44.2289" lon="5.85796">
        <ele>526</ele>
        <time>2019-06-04T10:22:02Z</time>
      </trkpt>
      <trkpt lat="44.22895" lon="5.85794">
        <ele>526</ele>
        <time>2019-06-04T10:22:03Z</time>
      </trkpt>
      <trkpt lat="44.229" lon="5.85791">
        <ele>526</ele>
        <time>2019-06-04T10:22:04Z</time>
      </trkpt>
      <trkpt lat="44.22905" lon="5.85789">
        <ele>526</ele>
        <time>2019-06-04T10:22:05Z</time>
      </trkpt>
      <trkpt lat="44.22909" lon="5.85785">
        <ele>526</ele>
        <time>2019-06-04T10:22:06Z</time>
      </trkpt>
      <trkpt lat="44.22913" lon="5.85783">
        <ele>526</ele>
        <time>2019-06-04T10:22:07Z</time>
      </trkpt>
      <trkpt lat="44.22918" lon="5.85781">
        <ele>526</ele>
        <time>2019-06-04T10:22:08Z</time>
      </trkpt>
      <trkpt lat="44.22922" lon="5.85779">
        <ele>526</ele>
        <time>2019-06-04T10:22:09Z</time>
      </trkpt>
      <trkpt lat="44.22926" lon="5.85777">
        <ele>526</ele>
        <time>2019-06-04T10:22:10Z</time>
      </trkpt>
      <trkpt lat="44.22931" lon="5.85775">
        <ele>526</ele>
        <time>2019-06-04T10:22:11Z</time>
      </trkpt>
      <trkpt lat="44.22936" lon="5.85773">
        <ele>526</ele>
        <time>2019-06-04T10:22:12Z</time>
      </trkpt>
      <trkpt lat="44.2294" lon="5.8577">
        <ele>526</ele>
        <time>2019-06-04T10:22:13Z</time>
      </trkpt>
      <trkpt lat="44.22945" lon="5.85768">
        <ele>526</ele>
        <time>2019-06-04T10:22:14Z</time>
      </trkpt>
      <trkpt lat="44.2295" lon="5.85765">
        <ele>526</ele>
        <time>2019-06-04T10:22:15Z</time>
      </trkpt>
      <trkpt lat="44.22954" lon="5.85763">
        <ele>526</ele>
        <time>2019-06-04T10:22:16Z</time>
      </trkpt>
      <trkpt lat="44.22958" lon="5.8576">
        <ele>526</ele>
        <time>2019-06-04T10:22:17Z</time>
      </trkpt>
      <trkpt lat="44.22962" lon="5.85758">
        <ele>527</ele>
        <time>2019-06-04T10:22:18Z</time>
      </trkpt>
      <trkpt lat="44.22966" lon="5.85756">
        <ele>527</ele>
        <time>2019-06-04T10:22:19Z</time>
      </trkpt>
      <trkpt lat="44.22971" lon="5.85753">
        <ele>527</ele>
        <time>2019-06-04T10:22:20Z</time>
      </trkpt>
      <trkpt lat="44.22976" lon="5.85751">
        <ele>528</ele>
        <time>2019-06-04T10:22:21Z</time>
      </trkpt>
      <trkpt lat="44.2298" lon="5.85748">
        <ele>528</ele>
        <time>2019-06-04T10:22:22Z</time>
      </trkpt>
      <trkpt lat="44.22985" lon="5.85744">
        <ele>529</ele>
        <time>2019-06-04T10:22:23Z</time>
      </trkpt>
      <trkpt lat="44.22989" lon="5.8574">
        <ele>529</ele>
        <time>2019-06-04T10:22:24Z</time>
      </trkpt>
      <trkpt lat="44.22993" lon="5.85736">
        <ele>530</ele>
        <time>2019-06-04T10:22:25Z</time>
      </trkpt>
      <trkpt lat="44.22998" lon="5.85733">
        <ele>531</ele>
        <time>2019-06-04T10:22:26Z</time>
      </trkpt>
      <trkpt lat="44.23002" lon="5.85729">
        <ele>532</ele>
        <time>2019-06-04T10:22:27Z</time>
      </trkpt>
      <trkpt lat="44.23006" lon="5.85725">
        <ele>533</ele>
        <time>2019-06-04T10:22:28Z</time>
      </trkpt>
      <trkpt lat="44.23011" lon="5.85722">
        <ele>533</ele>
        <time>2019-06-04T10:22:29Z</time>
      </trkpt>
      <trkpt lat="44.23015" lon="5.85719">
        <ele>533</ele>
        <time>2019-06-04T10:22:30Z</time>
      </trkpt>
      <trkpt lat="44.2302" lon="5.85716">
        <ele>534</ele>
        <time>2019-06-04T10:22:31Z</time>
      </trkpt>
      <trkpt lat="44.23024" lon="5.85713">
        <ele>534</ele>
        <time>2019-06-04T10:22:32Z</time>
      </trkpt>
      <trkpt lat="44.23029" lon="5.8571">
        <ele>534</ele>
        <time>2019-06-04T10:22:33Z</time>
      </trkpt>
      <trkpt lat="44.23034" lon="5.85707">
        <ele>534</ele>
        <time>2019-06-04T10:22:34Z</time>
      </trkpt>
      <trkpt lat="44.23038" lon="5.85703">
        <ele>534</ele>
        <time>2019-06-04T10:22:35Z</time>
      </trkpt>
      <trkpt lat="44.23043" lon="5.857">
        <ele>534</ele>
        <time>2019-06-04T10:22:36Z</time>
      </trkpt>
      <trkpt lat="44.23048" lon="5.85697">
        <ele>534</ele>
        <time>2019-06-04T10:22:37Z</time>
      </trkpt>
      <trkpt lat="44.23051" lon="5.85694">
        <ele>534</ele>
        <time>2019-06-04T10:22:38Z</time>
      </trkpt>
      <trkpt lat="44.23055" lon="5.85691">
        <ele>534</ele>
        <time>2019-06-04T10:22:39Z</time>
      </trkpt>
      <trkpt lat="44.2306" lon="5.85689">
        <ele>534</ele>
        <time>2019-06-04T10:22:40Z</time>
      </trkpt>
      <trkpt lat="44.23065" lon="5.85687">
        <ele>534</ele>
        <time>2019-06-04T10:22:41Z</time>
      </trkpt>
      <trkpt lat="44.2307" lon="5.85684">
        <ele>534</ele>
        <time>2019-06-04T10:22:42Z</time>
      </trkpt>
      <trkpt lat="44.23074" lon="5.8568">
        <ele>534</ele>
        <time>2019-06-04T10:22:43Z</time>
      </trkpt>
      <trkpt lat="44.23079" lon="5.85676">
        <ele>534</ele>
        <time>2019-06-04T10:22:44Z</time>
      </trkpt>
      <trkpt lat="44.23084" lon="5.85672">
        <ele>534</ele>
        <time>2019-06-04T10:22:45Z</time>
      </trkpt>
      <trkpt lat="44.2309" lon="5.85668">
        <ele>534</ele>
        <time>2019-06-04T10:22:46Z</time>
      </trkpt>
      <trkpt lat="44.23097" lon="5.85665">
        <ele>534</ele>
        <time>2019-06-04T10:22:47Z</time>
      </trkpt>
      <trkpt lat="44.23103" lon="5.85661">
        <ele>534</ele>
        <time>2019-06-04T10:22:48Z</time>
      </trkpt>
      <trkpt lat="44.23109" lon="5.85657">
        <ele>534</ele>
        <time>2019-06-04T10:22:49Z</time>
      </trkpt>
      <trkpt lat="44.23114" lon="5.85653">
        <ele>534</ele>
        <time>2019-06-04T10:22:50Z</time>
      </trkpt>
      <trkpt lat="44.23118" lon="5.85649">
        <ele>534</ele>
        <time>2019-06-04T10:22:51Z</time>
      </trkpt>
      <trkpt lat="44.23122" lon="5.85644">
        <ele>534</ele>
        <time>2019-06-04T10:22:52Z</time>
      </trkpt>
      <trkpt lat="44.23127" lon="5.85639">
        <ele>534</ele>
        <time>2019-06-04T10:22:53Z</time>
      </trkpt>
      <trkpt lat="44.23131" lon="5.85635">
        <ele>534</ele>
        <time>2019-06-04T10:22:54Z</time>
      </trkpt>
      <trkpt lat="44.23135" lon="5.85631">
        <ele>534</ele>
        <time>2019-06-04T10:22:55Z</time>
      </trkpt>
      <trkpt lat="44.2314" lon="5.85626">
        <ele>534</ele>
        <time>2019-06-04T10:22:56Z</time>
      </trkpt>
      <trkpt lat="44.23143" lon="5.85621">
        <ele>534</ele>
        <time>2019-06-04T10:22:57Z</time>
      </trkpt>
      <trkpt lat="44.23147" lon="5.85617">
        <ele>534</ele>
        <time>2019-06-04T10:22:58Z</time>
      </trkpt>
      <trkpt lat="44.23151" lon="5.85613">
        <ele>533</ele>
        <time>2019-06-04T10:22:59Z</time>
      </trkpt>
      <trkpt lat="44.23155" lon="5.85609">
        <ele>533</ele>
        <time>2019-06-04T10:23:00Z</time>
      </trkpt>
      <trkpt lat="44.23159" lon="5.85604">
        <ele>532</ele>
        <time>2019-06-04T10:23:01Z</time>
      </trkpt>
      <trkpt lat="44.23164" lon="5.85599">
        <ele>531</ele>
        <time>2019-06-04T10:23:02Z</time>
      </trkpt>
      <trkpt lat="44.23169" lon="5.85593">
        <ele>530</ele>
        <time>2019-06-04T10:23:03Z</time>
      </trkpt>
      <trkpt lat="44.23174" lon="5.85587">
        <ele>529</ele>
        <time>2019-06-04T10:23:04Z</time>
      </trkpt>
      <trkpt lat="44.23177" lon="5.8558">
        <ele>529</ele>
        <time>2019-06-04T10:23:05Z</time>
      </trkpt>
      <trkpt lat="44.23181" lon="5.85572">
        <ele>529</ele>
        <time>2019-06-04T10:23:06Z</time>
      </trkpt>
      <trkpt lat="44.23185" lon="5.85564">
        <ele>528</ele>
        <time>2019-06-04T10:23:07Z</time>
      </trkpt>
      <trkpt lat="44.2319" lon="5.85557">
        <ele>528</ele>
        <time>2019-06-04T10:23:08Z</time>
      </trkpt>
      <trkpt lat="44.23195" lon="5.85549">
        <ele>527</ele>
        <time>2019-06-04T10:23:09Z</time>
      </trkpt>
      <trkpt lat="44.232" lon="5.85541">
        <ele>527</ele>
        <time>2019-06-04T10:23:10Z</time>
      </trkpt>
      <trkpt lat="44.23206" lon="5.85534">
        <ele>526</ele>
        <time>2019-06-04T10:23:11Z</time>
      </trkpt>
      <trkpt lat="44.23213" lon="5.85527">
        <ele>526</ele>
        <time>2019-06-04T10:23:12Z</time>
      </trkpt>
      <trkpt lat="44.2322" lon="5.85521">
        <ele>526</ele>
        <time>2019-06-04T10:23:13Z</time>
      </trkpt>
      <trkpt lat="44.23228" lon="5.85516">
        <ele>525</ele>
        <time>2019-06-04T10:23:14Z</time>
      </trkpt>
      <trkpt lat="44.23236" lon="5.85513">
        <ele>525</ele>
        <time>2019-06-04T10:23:15Z</time>
      </trkpt>
      <trkpt lat="44.23244" lon="5.8551">
        <ele>525</ele>
        <time>2019-06-04T10:23:16Z</time>
      </trkpt>
      <trkpt lat="44.23252" lon="5.85508">
        <ele>525</ele>
        <time>2019-06-04T10:23:17Z</time>
      </trkpt>
      <trkpt lat="44.2326" lon="5.85506">
        <ele>525</ele>
        <time>2019-06-04T10:23:18Z</time>
      </trkpt>
      <trkpt lat="44.23269" lon="5.85505">
        <ele>525</ele>
        <time>2019-06-04T10:23:19Z</time>
      </trkpt>
      <trkpt lat="44.23277" lon="5.85504">
        <ele>525</ele>
        <time>2019-06-04T10:23:20Z</time>
      </trkpt>
      <trkpt lat="44.23285" lon="5.85503">
        <ele>525</ele>
        <time>2019-06-04T10:23:21Z</time>
      </trkpt>
      <trkpt lat="44.23292" lon="5.85502">
        <ele>525</ele>
        <time>2019-06-04T10:23:22Z</time>
      </trkpt>
      <trkpt lat="44.23299" lon="5.85501">
        <ele>525</ele>
        <time>2019-06-04T10:23:23Z</time>
      </trkpt>
      <trkpt lat="44.23307" lon="5.85501">
        <ele>524</ele>
        <time>2019-06-04T10:23:24Z</time>
      </trkpt>
      <trkpt lat="44.23314" lon="5.85501">
        <ele>524</ele>
        <time>2019-06-04T10:23:25Z</time>
      </trkpt>
      <trkpt lat="44.2332" lon="5.85501">
        <ele>524</ele>
        <time>2019-06-04T10:23:26Z</time>
      </trkpt>
      <trkpt lat="44.23327" lon="5.855">
        <ele>524</ele>
        <time>2019-06-04T10:23:27Z</time>
      </trkpt>
      <trkpt lat="44.23334" lon="5.85501">
        <ele>524</ele>
        <time>2019-06-04T10:23:28Z</time>
      </trkpt>
      <trkpt lat="44.2334" lon="5.85501">
        <ele>524</ele>
        <time>2019-06-04T10:23:29Z</time>
      </trkpt>
      <trkpt lat="44.23346" lon="5.85501">
        <ele>524</ele>
        <time>2019-06-04T10:23:30Z</time>
      </trkpt>
      <trkpt lat="44.23352" lon="5.85501">
        <ele>524</ele>
        <time>2019-06-04T10:23:31Z</time>
      </trkpt>
      <trkpt lat="44.23359" lon="5.85502">
        <ele>524</ele>
        <time>2019-06-04T10:23:32Z</time>
      </trkpt>
      <trkpt lat="44.23365" lon="5.85503">
        <ele>524</ele>
        <time>2019-06-04T10:23:33Z</time>
      </trkpt>
      <trkpt lat="44.23371" lon="5.85503">
        <ele>524</ele>
        <time>2019-06-04T10:23:34Z</time>
      </trkpt>
      <trkpt lat="44.23377" lon="5.85504">
        <ele>524</ele>
        <time>2019-06-04T10:23:35Z</time>
      </trkpt>
      <trkpt lat="44.23383" lon="5.85505">
        <ele>524</ele>
        <time>2019-06-04T10:23:36Z</time>
      </trkpt>
      <trkpt lat="44.23389" lon="5.85505">
        <ele>524</ele>
        <time>2019-06-04T10:23:37Z</time>
      </trkpt>
      <trkpt lat="44.23394" lon="5.85506">
        <ele>524</ele>
        <time>2019-06-04T10:23:38Z</time>
      </trkpt>
      <trkpt lat="44.234" lon="5.85506">
        <ele>524</ele>
        <time>2019-06-04T10:23:39Z</time>
      </trkpt>
      <trkpt lat="44.23405" lon="5.85506">
        <ele>524</ele>
        <time>2019-06-04T10:23:40Z</time>
      </trkpt>
      <trkpt lat="44.23411" lon="5.85506">
        <ele>524</ele>
        <time>2019-06-04T10:23:41Z</time>
      </trkpt>
      <trkpt lat="44.23417" lon="5.85506">
        <ele>524</ele>
        <time>2019-06-04T10:23:42Z</time>
      </trkpt>
      <trkpt lat="44.23423" lon="5.85505">
        <ele>524</ele>
        <time>2019-06-04T10:23:43Z</time>
      </trkpt>
      <trkpt lat="44.23429" lon="5.85504">
        <ele>524</ele>
        <time>2019-06-04T10:23:44Z</time>
      </trkpt>
      <trkpt lat="44.23434" lon="5.85503">
        <ele>524</ele>
        <time>2019-06-04T10:23:45Z</time>
      </trkpt>
      <trkpt lat="44.2344" lon="5.85502">
        <ele>524</ele>
        <time>2019-06-04T10:23:46Z</time>
      </trkpt>
      <trkpt lat="44.23445" lon="5.85502">
        <ele>524</ele>
        <time>2019-06-04T10:23:47Z</time>
      </trkpt>
      <trkpt lat="44.23451" lon="5.85501">
        <ele>524</ele>
        <time>2019-06-04T10:23:48Z</time>
      </trkpt>
      <trkpt lat="44.23456" lon="5.855">
        <ele>524</ele>
        <time>2019-06-04T10:23:49Z</time>
      </trkpt>
      <trkpt lat="44.23461" lon="5.85498">
        <ele>524</ele>
        <time>2019-06-04T10:23:50Z</time>
      </trkpt>
      <trkpt lat="44.23465" lon="5.85497">
        <ele>524</ele>
        <time>2019-06-04T10:23:51Z</time>
      </trkpt>
      <trkpt lat="44.23471" lon="5.85496">
        <ele>524</ele>
        <time>2019-06-04T10:23:52Z</time>
      </trkpt>
      <trkpt lat="44.23475" lon="5.85495">
        <ele>524</ele>
        <time>2019-06-04T10:23:53Z</time>
      </trkpt>
      <trkpt lat="44.2348" lon="5.85493">
        <ele>524</ele>
        <time>2019-06-04T10:23:54Z</time>
      </trkpt>
      <trkpt lat="44.23485" lon="5.85491">
        <ele>524</ele>
        <time>2019-06-04T10:23:55Z</time>
      </trkpt>
      <trkpt lat="44.23489" lon="5.85489">
        <ele>524</ele>
        <time>2019-06-04T10:23:56Z</time>
      </trkpt>
      <trkpt lat="44.23494" lon="5.85486">
        <ele>524</ele>
        <time>2019-06-04T10:23:57Z</time>
      </trkpt>
      <trkpt lat="44.23499" lon="5.85483">
        <ele>524</ele>
        <time>2019-06-04T10:23:58Z</time>
      </trkpt>
      <trkpt lat="44.23503" lon="5.8548">
        <ele>524</ele>
        <time>2019-06-04T10:23:59Z</time>
      </trkpt>
      <trkpt lat="44.23508" lon="5.85476">
        <ele>524</ele>
        <time>2019-06-04T10:24:00Z</time>
      </trkpt>
      <trkpt lat="44.23513" lon="5.85472">
        <ele>524</ele>
        <time>2019-06-04T10:24:01Z</time>
      </trkpt>
      <trkpt lat="44.23517" lon="5.85468">
        <ele>524</ele>
        <time>2019-06-04T10:24:02Z</time>
      </trkpt>
      <trkpt lat="44.23522" lon="5.85463">
        <ele>524</ele>
        <time>2019-06-04T10:24:03Z</time>
      </trkpt>
      <trkpt lat="44.23526" lon="5.85458">
        <ele>524</ele>
        <time>2019-06-04T10:24:04Z</time>
      </trkpt>
      <trkpt lat="44.23531" lon="5.85453">
        <ele>524</ele>
        <time>2019-06-04T10:24:05Z</time>
      </trkpt>
      <trkpt lat="44.23535" lon="5.85447">
        <ele>524</ele>
        <time>2019-06-04T10:24:06Z</time>
      </trkpt>
      <trkpt lat="44.23539" lon="5.85441">
        <ele>524</ele>
        <time>2019-06-04T10:24:07Z</time>
      </trkpt>
      <trkpt lat="44.23543" lon="5.85434">
        <ele>524</ele>
        <time>2019-06-04T10:24:08Z</time>
      </trkpt>
      <trkpt lat="44.23546" lon="5.85427">
        <ele>524</ele>
        <time>2019-06-04T10:24:09Z</time>
      </trkpt>
      <trkpt lat="44.2355" lon="5.8542">
        <ele>524</ele>
        <time>2019-06-04T10:24:10Z</time>
      </trkpt>
      <trkpt lat="44.23553" lon="5.85413">
        <ele>524</ele>
        <time>2019-06-04T10:24:11Z</time>
      </trkpt>
      <trkpt lat="44.23557" lon="5.85405">
        <ele>524</ele>
        <time>2019-06-04T10:24:12Z</time>
      </trkpt>
      <trkpt lat="44.2356" lon="5.85397">
        <ele>524</ele>
        <time>2019-06-04T10:24:13Z</time>
      </trkpt>
      <trkpt lat="44.23562" lon="5.85389">
        <ele>524</ele>
        <time>2019-06-04T10:24:14Z</time>
      </trkpt>
      <trkpt lat="44.23564" lon="5.8538">
        <ele>524</ele>
        <time>2019-06-04T10:24:15Z</time>
      </trkpt>
      <trkpt lat="44.23567" lon="5.85372">
        <ele>524</ele>
        <time>2019-06-04T10:24:16Z</time>
      </trkpt>
      <trkpt lat="44.23569" lon="5.85363">
        <ele>524</ele>
        <time>2019-06-04T10:24:17Z</time>
      </trkpt>
      <trkpt lat="44.23571" lon="5.85354">
        <ele>524</ele>
        <time>2019-06-04T10:24:18Z</time>
      </trkpt>
      <trkpt lat="44.23573" lon="5.85345">
        <ele>524</ele>
        <time>2019-06-04T10:24:19Z</time>
      </trkpt>
      <trkpt lat="44.23575" lon="5.85336">
        <ele>524</ele>
        <time>2019-06-04T10:24:20Z</time>
      </trkpt>
      <trkpt lat="44.23577" lon="5.85326">
        <ele>524</ele>
        <time>2019-06-04T10:24:21Z</time>
      </trkpt>
      <trkpt lat="44.23579" lon="5.85317">
        <ele>524</ele>
        <time>2019-06-04T10:24:22Z</time>
      </trkpt>
      <trkpt lat="44.23581" lon="5.85307">
        <ele>524</ele>
        <time>2019-06-04T10:24:23Z</time>
      </trkpt>
      <trkpt lat="44.23584" lon="5.85297">
        <ele>524</ele>
        <time>2019-06-04T10:24:24Z</time>
      </trkpt>
      <trkpt lat="44.23586" lon="5.85287">
        <ele>524</ele>
        <time>2019-06-04T10:24:25Z</time>
      </trkpt>
      <trkpt lat="44.23588" lon="5.85277">
        <ele>524</ele>
        <time>2019-06-04T10:24:26Z</time>
      </trkpt>
      <trkpt lat="44.2359" lon="5.85267">
        <ele>524</ele>
        <time>2019-06-04T10:24:27Z</time>
      </trkpt>
      <trkpt lat="44.23592" lon="5.85257">
        <ele>524</ele>
        <time>2019-06-04T10:24:28Z</time>
      </trkpt>
      <trkpt lat="44.23595" lon="5.85247">
        <ele>524</ele>
        <time>2019-06-04T10:24:29Z</time>
      </trkpt>
      <trkpt lat="44.23597" lon="5.85236">
        <ele>524</ele>
        <time>2019-06-04T10:24:30Z</time>
      </trkpt>
      <trkpt lat="44.236" lon="5.85226">
        <ele>524</ele>
        <time>2019-06-04T10:24:31Z</time>
      </trkpt>
      <trkpt lat="44.23602" lon="5.85216">
        <ele>524</ele>
        <time>2019-06-04T10:24:32Z</time>
      </trkpt>
      <trkpt lat="44.23604" lon="5.85206">
        <ele>524</ele>
        <time>2019-06-04T10:24:33Z</time>
      </trkpt>
      <trkpt lat="44.23606" lon="5.85196">
        <ele>524</ele>
        <time>2019-06-04T10:24:34Z</time>
      </trkpt>
      <trkpt lat="44.23608" lon="5.85186">
        <ele>524</ele>
        <time>2019-06-04T10:24:35Z</time>
      </trkpt>
      <trkpt lat="44.23611" lon="5.85176">
        <ele>524</ele>
        <time>2019-06-04T10:24:36Z</time>
      </trkpt>
      <trkpt lat="44.23613" lon="5.85165">
        <ele>524</ele>
        <time>2019-06-04T10:24:37Z</time>
      </trkpt>
      <trkpt lat="44.23616" lon="5.85155">
        <ele>524</ele>
        <time>2019-06-04T10:24:38Z</time>
      </trkpt>
      <trkpt lat="44.23618" lon="5.85146">
        <ele>524</ele>
        <time>2019-06-04T10:24:39Z</time>
      </trkpt>
      <trkpt lat="44.23621" lon="5.85136">
        <ele>524</ele>
        <time>2019-06-04T10:24:40Z</time>
      </trkpt>
      <trkpt lat="44.23624" lon="5.85126">
        <ele>524</ele>
        <time>2019-06-04T10:24:41Z</time>
      </trkpt>
      <trkpt lat="44.23628" lon="5.85116">
        <ele>524</ele>
        <time>2019-06-04T10:24:42Z</time>
      </trkpt>
      <trkpt lat="44.23632" lon="5.85107">
        <ele>524</ele>
        <time>2019-06-04T10:24:43Z</time>
      </trkpt>
      <trkpt lat="44.23637" lon="5.85097">
        <ele>524</ele>
        <time>2019-06-04T10:24:44Z</time>
      </trkpt>
      <trkpt lat="44.23642" lon="5.85088">
        <ele>524</ele>
        <time>2019-06-04T10:24:45Z</time>
      </trkpt>
      <trkpt lat="44.23647" lon="5.85079">
        <ele>524</ele>
        <time>2019-06-04T10:24:46Z</time>
      </trkpt>
      <trkpt lat="44.23654" lon="5.85071">
        <ele>524</ele>
        <time>2019-06-04T10:24:47Z</time>
      </trkpt>
      <trkpt lat="44.23661" lon="5.85064">
        <ele>524</ele>
        <time>2019-06-04T10:24:48Z</time>
      </trkpt>
      <trkpt lat="44.23668" lon="5.85058">
        <ele>524</ele>
        <time>2019-06-04T10:24:49Z</time>
      </trkpt>
      <trkpt lat="44.23675" lon="5.85052">
        <ele>524</ele>
        <time>2019-06-04T10:24:50Z</time>
      </trkpt>
      <trkpt lat="44.23682" lon="5.85046">
        <ele>524</ele>
        <time>2019-06-04T10:24:51Z</time>
      </trkpt>
      <trkpt lat="44.23689" lon="5.8504">
        <ele>524</ele>
        <time>2019-06-04T10:24:52Z</time>
      </trkpt>
      <trkpt lat="44.23696" lon="5.85034">
        <ele>524</ele>
        <time>2019-06-04T10:24:53Z</time>
      </trkpt>
      <trkpt lat="44.23703" lon="5.85029">
        <ele>524</ele>
        <time>2019-06-04T10:24:54Z</time>
      </trkpt>
      <trkpt lat="44.2371" lon="5.85023">
        <ele>525</ele>
        <time>2019-06-04T10:24:55Z</time>
      </trkpt>
      <trkpt lat="44.23717" lon="5.85017">
        <ele>525</ele>
        <time>2019-06-04T10:24:56Z</time>
      </trkpt>
      <trkpt lat="44.23724" lon="5.85012">
        <ele>525</ele>
        <time>2019-06-04T10:24:57Z</time>
      </trkpt>
      <trkpt lat="44.23731" lon="5.85006">
        <ele>525</ele>
        <time>2019-06-04T10:24:58Z</time>
      </trkpt>
      <trkpt lat="44.23738" lon="5.85">
        <ele>525</ele>
        <time>2019-06-04T10:24:59Z</time>
      </trkpt>
      <trkpt lat="44.23746" lon="5.84995">
        <ele>525</ele>
        <time>2019-06-04T10:25:00Z</time>
      </trkpt>
      <trkpt lat="44.23753" lon="5.84989">
        <ele>525</ele>
        <time>2019-06-04T10:25:01Z</time>
      </trkpt>
      <trkpt lat="44.2376" lon="5.84983">
        <ele>525</ele>
        <time>2019-06-04T10:25:02Z</time>
      </trkpt>
      <trkpt lat="44.23767" lon="5.84977">
        <ele>525</ele>
        <time>2019-06-04T10:25:03Z</time>
      </trkpt>
      <trkpt lat="44.23774" lon="5.84972">
        <ele>525</ele>
        <time>2019-06-04T10:25:04Z</time>
      </trkpt>
      <trkpt lat="44.23781" lon="5.84966">
        <ele>525</ele>
        <time>2019-06-04T10:25:05Z</time>
      </trkpt>
      <trkpt lat="44.23788" lon="5.84961">
        <ele>525</ele>
        <time>2019-06-04T10:25:06Z</time>
      </trkpt>
      <trkpt lat="44.23795" lon="5.84955">
        <ele>525</ele>
        <time>2019-06-04T10:25:07Z</time>
      </trkpt>
      <trkpt lat="44.23802" lon="5.84949">
        <ele>525</ele>
        <time>2019-06-04T10:25:08Z</time>
      </trkpt>
      <trkpt lat="44.23809" lon="5.84944">
        <ele>525</ele>
        <time>2019-06-04T10:25:09Z</time>
      </trkpt>
      <trkpt lat="44.23816" lon="5.84938">
        <ele>525</ele>
        <time>2019-06-04T10:25:10Z</time>
      </trkpt>
      <trkpt lat="44.23822" lon="5.84933">
        <ele>525</ele>
        <time>2019-06-04T10:25:11Z</time>
      </trkpt>
      <trkpt lat="44.23829" lon="5.84928">
        <ele>525</ele>
        <time>2019-06-04T10:25:12Z</time>
      </trkpt>
      <trkpt lat="44.23836" lon="5.84923">
        <ele>525</ele>
        <time>2019-06-04T10:25:13Z</time>
      </trkpt>
      <trkpt lat="44.23842" lon="5.84917">
        <ele>525</ele>
        <time>2019-06-04T10:25:14Z</time>
      </trkpt>
      <trkpt lat="44.23849" lon="5.84912">
        <ele>525</ele>
        <time>2019-06-04T10:25:15Z</time>
      </trkpt>
      <trkpt lat="44.23855" lon="5.84907">
        <ele>525</ele>
        <time>2019-06-04T10:25:16Z</time>
      </trkpt>
      <trkpt lat="44.23861" lon="5.84902">
        <ele>525</ele>
        <time>2019-06-04T10:25:17Z</time>
      </trkpt>
      <trkpt lat="44.23868" lon="5.84897">
        <ele>526</ele>
        <time>2019-06-04T10:25:18Z</time>
      </trkpt>
      <trkpt lat="44.23874" lon="5.84892">
        <ele>526</ele>
        <time>2019-06-04T10:25:19Z</time>
      </trkpt>
      <trkpt lat="44.2388" lon="5.84887">
        <ele>526</ele>
        <time>2019-06-04T10:25:20Z</time>
      </trkpt>
      <trkpt lat="44.23886" lon="5.84882">
        <ele>526</ele>
        <time>2019-06-04T10:25:21Z</time>
      </trkpt>
      <trkpt lat="44.23893" lon="5.84877">
        <ele>526</ele>
        <time>2019-06-04T10:25:22Z</time>
      </trkpt>
      <trkpt lat="44.23899" lon="5.84872">
        <ele>526</ele>
        <time>2019-06-04T10:25:23Z</time>
      </trkpt>
      <trkpt lat="44.23905" lon="5.84867">
        <ele>526</ele>
        <time>2019-06-04T10:25:24Z</time>
      </trkpt>
      <trkpt lat="44.23911" lon="5.84862">
        <ele>526</ele>
        <time>2019-06-04T10:25:25Z</time>
      </trkpt>
      <trkpt lat="44.23917" lon="5.84857">
        <ele>526</ele>
        <time>2019-06-04T10:25:26Z</time>
      </trkpt>
      <trkpt lat="44.23924" lon="5.84852">
        <ele>526</ele>
        <time>2019-06-04T10:25:27Z</time>
      </trkpt>
      <trkpt lat="44.2393" lon="5.84847">
        <ele>526</ele>
        <time>2019-06-04T10:25:28Z</time>
      </trkpt>
      <trkpt lat="44.23936" lon="5.84842">
        <ele>526</ele>
        <time>2019-06-04T10:25:29Z</time>
      </trkpt>
      <trkpt lat="44.23943" lon="5.84837">
        <ele>526</ele>
        <time>2019-06-04T10:25:30Z</time>
      </trkpt>
      <trkpt lat="44.23949" lon="5.84832">
        <ele>527</ele>
        <time>2019-06-04T10:25:31Z</time>
      </trkpt>
      <trkpt lat="44.23955" lon="5.84828">
        <ele>527</ele>
        <time>2019-06-04T10:25:32Z</time>
      </trkpt>
      <trkpt lat="44.23962" lon="5.84823">
        <ele>527</ele>
        <time>2019-06-04T10:25:33Z</time>
      </trkpt>
      <trkpt lat="44.23968" lon="5.84818">
        <ele>527</ele>
        <time>2019-06-04T10:25:34Z</time>
      </trkpt>
      <trkpt lat="44.23974" lon="5.84813">
        <ele>527</ele>
        <time>2019-06-04T10:25:35Z</time>
      </trkpt>
      <trkpt lat="44.2398" lon="5.84808">
        <ele>527</ele>
        <time>2019-06-04T10:25:36Z</time>
      </trkpt>
      <trkpt lat="44.23986" lon="5.84803">
        <ele>527</ele>
        <time>2019-06-04T10:25:37Z</time>
      </trkpt>
      <trkpt lat="44.23992" lon="5.84798">
        <ele>527</ele>
        <time>2019-06-04T10:25:38Z</time>
      </trkpt>
      <trkpt lat="44.23999" lon="5.84793">
        <ele>528</ele>
        <time>2019-06-04T10:25:39Z</time>
      </trkpt>
      <trkpt lat="44.24004" lon="5.84788">
        <ele>528</ele>
        <time>2019-06-04T10:25:40Z</time>
      </trkpt>
      <trkpt lat="44.24011" lon="5.84784">
        <ele>528</ele>
        <time>2019-06-04T10:25:41Z</time>
      </trkpt>
      <trkpt lat="44.24017" lon="5.84779">
        <ele>528</ele>
        <time>2019-06-04T10:25:42Z</time>
      </trkpt>
      <trkpt lat="44.24023" lon="5.84774">
        <ele>528</ele>
        <time>2019-06-04T10:25:43Z</time>
      </trkpt>
      <trkpt lat="44.24029" lon="5.84769">
        <ele>528</ele>
        <time>2019-06-04T10:25:44Z</time>
      </trkpt>
      <trkpt lat="44.24035" lon="5.84763">
        <ele>529</ele>
        <time>2019-06-04T10:25:45Z</time>
      </trkpt>
      <trkpt lat="44.24041" lon="5.84758">
        <ele>529</ele>
        <time>2019-06-04T10:25:46Z</time>
      </trkpt>
      <trkpt lat="44.24047" lon="5.84754">
        <ele>529</ele>
        <time>2019-06-04T10:25:47Z</time>
      </trkpt>
      <trkpt lat="44.24054" lon="5.84749">
        <ele>529</ele>
        <time>2019-06-04T10:25:48Z</time>
      </trkpt>
      <trkpt lat="44.2406" lon="5.84744">
        <ele>529</ele>
        <time>2019-06-04T10:25:49Z</time>
      </trkpt>
      <trkpt lat="44.24066" lon="5.84739">
        <ele>529</ele>
        <time>2019-06-04T10:25:50Z</time>
      </trkpt>
      <trkpt lat="44.24072" lon="5.84734">
        <ele>529</ele>
        <time>2019-06-04T10:25:51Z</time>
      </trkpt>
      <trkpt lat="44.24078" lon="5.84729">
        <ele>529</ele>
        <time>2019-06-04T10:25:52Z</time>
      </trkpt>
      <trkpt lat="44.24084" lon="5.84724">
        <ele>530</ele>
        <time>2019-06-04T10:25:53Z</time>
      </trkpt>
      <trkpt lat="44.2409" lon="5.84719">
        <ele>530</ele>
        <time>2019-06-04T10:25:54Z</time>
      </trkpt>
      <trkpt lat="44.24096" lon="5.84714">
        <ele>530</ele>
        <time>2019-06-04T10:25:55Z</time>
      </trkpt>
      <trkpt lat="44.24102" lon="5.84709">
        <ele>530</ele>
        <time>2019-06-04T10:25:56Z</time>
      </trkpt>
      <trkpt lat="44.24108" lon="5.84704">
        <ele>530</ele>
        <time>2019-06-04T10:25:57Z</time>
      </trkpt>
      <trkpt lat="44.24114" lon="5.847">
        <ele>530</ele>
        <time>2019-06-04T10:25:58Z</time>
      </trkpt>
      <trkpt lat="44.2412" lon="5.84695">
        <ele>531</ele>
        <time>2019-06-04T10:25:59Z</time>
      </trkpt>
      <trkpt lat="44.24126" lon="5.8469">
        <ele>531</ele>
        <time>2019-06-04T10:26:00Z</time>
      </trkpt>
      <trkpt lat="44.24132" lon="5.84686">
        <ele>531</ele>
        <time>2019-06-04T10:26:01Z</time>
      </trkpt>
      <trkpt lat="44.24137" lon="5.84681">
        <ele>531</ele>
        <time>2019-06-04T10:26:02Z</time>
      </trkpt>
      <trkpt lat="44.24143" lon="5.84676">
        <ele>532</ele>
        <time>2019-06-04T10:26:03Z</time>
      </trkpt>
      <trkpt lat="44.24149" lon="5.84671">
        <ele>532</ele>
        <time>2019-06-04T10:26:04Z</time>
      </trkpt>
      <trkpt lat="44.24155" lon="5.84666">
        <ele>532</ele>
        <time>2019-06-04T10:26:05Z</time>
      </trkpt>
      <trkpt lat="44.2416" lon="5.84661">
        <ele>532</ele>
        <time>2019-06-04T10:26:06Z</time>
      </trkpt>
      <trkpt lat="44.24166" lon="5.84657">
        <ele>532</ele>
        <time>2019-06-04T10:26:07Z</time>
      </trkpt>
      <trkpt lat="44.24172" lon="5.84653">
        <ele>532</ele>
        <time>2019-06-04T10:26:08Z</time>
      </trkpt>
      <trkpt lat="44.24178" lon="5.84648">
        <ele>533</ele>
        <time>2019-06-04T10:26:09Z</time>
      </trkpt>
      <trkpt lat="44.24183" lon="5.84643">
        <ele>533</ele>
        <time>2019-06-04T10:26:10Z</time>
      </trkpt>
      <trkpt lat="44.24189" lon="5.84639">
        <ele>533</ele>
        <time>2019-06-04T10:26:11Z</time>
      </trkpt>
      <trkpt lat="44.24194" lon="5.84634">
        <ele>533</ele>
        <time>2019-06-04T10:26:12Z</time>
      </trkpt>
      <trkpt lat="44.242" lon="5.8463">
        <ele>533</ele>
        <time>2019-06-04T10:26:13Z</time>
      </trkpt>
      <trkpt lat="44.24205" lon="5.84625">
        <ele>534</ele>
        <time>2019-06-04T10:26:14Z</time>
      </trkpt>
      <trkpt lat="44.2421" lon="5.84621">
        <ele>534</ele>
        <time>2019-06-04T10:26:15Z</time>
      </trkpt>
      <trkpt lat="44.24216" lon="5.84617">
        <ele>534</ele>
        <time>2019-06-04T10:26:16Z</time>
      </trkpt>
      <trkpt lat="44.24221" lon="5.84612">
        <ele>534</ele>
        <time>2019-06-04T10:26:17Z</time>
      </trkpt>
      <trkpt lat="44.24226" lon="5.84608">
        <ele>534</ele>
        <time>2019-06-04T10:26:18Z</time>
      </trkpt>
      <trkpt lat="44.24231" lon="5.84604">
        <ele>534</ele>
        <time>2019-06-04T10:26:19Z</time>
      </trkpt>
      <trkpt lat="44.24237" lon="5.846">
        <ele>535</ele>
        <time>2019-06-04T10:26:20Z</time>
      </trkpt>
      <trkpt lat="44.24242" lon="5.84596">
        <ele>535</ele>
        <time>2019-06-04T10:26:21Z</time>
      </trkpt>
      <trkpt lat="44.24247" lon="5.84592">
        <ele>535</ele>
        <time>2019-06-04T10:26:22Z</time>
      </trkpt>
      <trkpt lat="44.24252" lon="5.84587">
        <ele>535</ele>
        <time>2019-06-04T10:26:23Z</time>
      </trkpt>
      <trkpt lat="44.24257" lon="5.84583">
        <ele>535</ele>
        <time>2019-06-04T10:26:24Z</time>
      </trkpt>
      <trkpt lat="44.24262" lon="5.84579">
        <ele>535</ele>
        <time>2019-06-04T10:26:25Z</time>
      </trkpt>
      <trkpt lat="44.24268" lon="5.84575">
        <ele>536</ele>
        <time>2019-06-04T10:26:26Z</time>
      </trkpt>
      <trkpt lat="44.24273" lon="5.84571">
        <ele>536</ele>
        <time>2019-06-04T10:26:27Z</time>
      </trkpt>
      <trkpt lat="44.24278" lon="5.84567">
        <ele>536</ele>
        <time>2019-06-04T10:26:28Z</time>
      </trkpt>
      <trkpt lat="44.24283" lon="5.84563">
        <ele>536</ele>
        <time>2019-06-04T10:26:29Z</time>
      </trkpt>
      <trkpt lat="44.24288" lon="5.84559">
        <ele>536</ele>
        <time>2019-06-04T10:26:30Z</time>
      </trkpt>
      <trkpt lat="44.24294" lon="5.84555">
        <ele>537</ele>
        <time>2019-06-04T10:26:31Z</time>
      </trkpt>
      <trkpt lat="44.24299" lon="5.84551">
        <ele>537</ele>
        <time>2019-06-04T10:26:32Z</time>
      </trkpt>
      <trkpt lat="44.24304" lon="5.84546">
        <ele>537</ele>
        <time>2019-06-04T10:26:33Z</time>
      </trkpt>
      <trkpt lat="44.24309" lon="5.84542">
        <ele>537</ele>
        <time>2019-06-04T10:26:34Z</time>
      </trkpt>
      <trkpt lat="44.24314" lon="5.84538">
        <ele>537</ele>
        <time>2019-06-04T10:26:35Z</time>
      </trkpt>
      <trkpt lat="44.24319" lon="5.84534">
        <ele>537</ele>
        <time>2019-06-04T10:26:36Z</time>
      </trkpt>
      <trkpt lat="44.24325" lon="5.8453">
        <ele>538</ele>
        <time>2019-06-04T10:26:37Z</time>
      </trkpt>
      <trkpt lat="44.2433" lon="5.84526">
        <ele>538</ele>
        <time>2019-06-04T10:26:38Z</time>
      </trkpt>
      <trkpt lat="44.24335" lon="5.84522">
        <ele>538</ele>
        <time>2019-06-04T10:26:39Z</time>
      </trkpt>
      <trkpt lat="44.2434" lon="5.84518">
        <ele>538</ele>
        <time>2019-06-04T10:26:40Z</time>
      </trkpt>
      <trkpt lat="44.24345" lon="5.84514">
        <ele>538</ele>
        <time>2019-06-04T10:26:41Z</time>
      </trkpt>
      <trkpt lat="44.24351" lon="5.84509">
        <ele>538</ele>
        <time>2019-06-04T10:26:42Z</time>
      </trkpt>
      <trkpt lat="44.24356" lon="5.84505">
        <ele>539</ele>
        <time>2019-06-04T10:26:43Z</time>
      </trkpt>
      <trkpt lat="44.24361" lon="5.845">
        <ele>539</ele>
        <time>2019-06-04T10:26:44Z</time>
      </trkpt>
      <trkpt lat="44.24366" lon="5.84496">
        <ele>539</ele>
        <time>2019-06-04T10:26:45Z</time>
      </trkpt>
      <trkpt lat="44.24371" lon="5.84492">
        <ele>539</ele>
        <time>2019-06-04T10:26:46Z</time>
      </trkpt>
      <trkpt lat="44.24377" lon="5.84487">
        <ele>540</ele>
        <time>2019-06-04T10:26:47Z</time>
      </trkpt>
      <trkpt lat="44.24382" lon="5.84483">
        <ele>540</ele>
        <time>2019-06-04T10:26:48Z</time>
      </trkpt>
      <trkpt lat="44.24387" lon="5.84479">
        <ele>540</ele>
        <time>2019-06-04T10:26:49Z</time>
      </trkpt>
      <trkpt lat="44.24392" lon="5.84475">
        <ele>540</ele>
        <time>2019-06-04T10:26:50Z</time>
      </trkpt>
      <trkpt lat="44.24398" lon="5.84471">
        <ele>541</ele>
        <time>2019-06-04T10:26:51Z</time>
      </trkpt>
      <trkpt lat="44.24403" lon="5.84467">
        <ele>541</ele>
        <time>2019-06-04T10:26:52Z</time>
      </trkpt>
      <trkpt lat="44.24408" lon="5.84463">
        <ele>541</ele>
        <time>2019-06-04T10:26:53Z</time>
      </trkpt>
      <trkpt lat="44.24413" lon="5.84458">
        <ele>541</ele>
        <time>2019-06-04T10:26:54Z</time>
      </trkpt>
      <trkpt lat="44.24419" lon="5.84454">
        <ele>541</ele>
        <time>2019-06-04T10:26:55Z</time>
      </trkpt>
      <trkpt lat="44.24424" lon="5.8445">
        <ele>541</ele>
        <time>2019-06-04T10:26:56Z</time>
      </trkpt>
      <trkpt lat="44.24429" lon="5.84446">
        <ele>541</ele>
        <time>2019-06-04T10:26:57Z</time>
      </trkpt>
      <trkpt lat="44.24434" lon="5.84442">
        <ele>542</ele>
        <time>2019-06-04T10:26:58Z</time>
      </trkpt>
      <trkpt lat="44.2444" lon="5.84438">
        <ele>542</ele>
        <time>2019-06-04T10:26:59Z</time>
      </trkpt>
      <trkpt lat="44.24445" lon="5.84433">
        <ele>542</ele>
        <time>2019-06-04T10:27:00Z</time>
      </trkpt>
      <trkpt lat="44.2445" lon="5.84429">
        <ele>542</ele>
        <time>2019-06-04T10:27:01Z</time>
      </trkpt>
      <trkpt lat="44.24456" lon="5.84425">
        <ele>542</ele>
        <time>2019-06-04T10:27:02Z</time>
      </trkpt>
      <trkpt lat="44.24461" lon="5.84421">
        <ele>542</ele>
        <time>2019-06-04T10:27:03Z</time>
      </trkpt>
      <trkpt lat="44.24466" lon="5.84417">
        <ele>542</ele>
        <time>2019-06-04T10:27:04Z</time>
      </trkpt>
      <trkpt lat="44.24472" lon="5.84413">
        <ele>542</ele>
        <time>2019-06-04T10:27:05Z</time>
      </trkpt>
      <trkpt lat="44.24477" lon="5.84409">
        <ele>542</ele>
        <time>2019-06-04T10:27:06Z</time>
      </trkpt>
      <trkpt lat="44.24482" lon="5.84405">
        <ele>542</ele>
        <time>2019-06-04T10:27:07Z</time>
      </trkpt>
      <trkpt lat="44.24488" lon="5.84401">
        <ele>542</ele>
        <time>2019-06-04T10:27:08Z</time>
      </trkpt>
      <trkpt lat="44.24493" lon="5.84397">
        <ele>542</ele>
        <time>2019-06-04T10:27:09Z</time>
      </trkpt>
      <trkpt lat="44.24499" lon="5.84392">
        <ele>542</ele>
        <time>2019-06-04T10:27:10Z</time>
      </trkpt>
      <trkpt lat="44.24504" lon="5.84388">
        <ele>542</ele>
        <time>2019-06-04T10:27:11Z</time>
      </trkpt>
      <trkpt lat="44.24509" lon="5.84384">
        <ele>542</ele>
        <time>2019-06-04T10:27:12Z</time>
      </trkpt>
      <trkpt lat="44.24515" lon="5.8438">
        <ele>542</ele>
        <time>2019-06-04T10:27:13Z</time>
      </trkpt>
      <trkpt lat="44.2452" lon="5.84375">
        <ele>542</ele>
        <time>2019-06-04T10:27:14Z</time>
      </trkpt>
      <trkpt lat="44.24525" lon="5.84371">
        <ele>542</ele>
        <time>2019-06-04T10:27:15Z</time>
      </trkpt>
      <trkpt lat="44.24531" lon="5.84367">
        <ele>542</ele>
        <time>2019-06-04T10:27:16Z</time>
      </trkpt>
      <trkpt lat="44.24536" lon="5.84363">
        <ele>542</ele>
        <time>2019-06-04T10:27:17Z</time>
      </trkpt>
      <trkpt lat="44.24542" lon="5.84359">
        <ele>542</ele>
        <time>2019-06-04T10:27:18Z</time>
      </trkpt>
      <trkpt lat="44.24547" lon="5.84354">
        <ele>542</ele>
        <time>2019-06-04T10:27:19Z</time>
      </trkpt>
      <trkpt lat="44.24552" lon="5.8435">
        <ele>542</ele>
        <time>2019-06-04T10:27:20Z</time>
      </trkpt>
      <trkpt lat="44.24558" lon="5.84346">
        <ele>542</ele>
        <time>2019-06-04T10:27:21Z</time>
      </trkpt>
      <trkpt lat="44.24563" lon="5.84341">
        <ele>542</ele>
        <time>2019-06-04T10:27:22Z</time>
      </trkpt>
      <trkpt lat="44.24568" lon="5.84337">
        <ele>542</ele>
        <time>2019-06-04T10:27:23Z</time>
      </trkpt>
      <trkpt lat="44.24573" lon="5.84333">
        <ele>542</ele>
        <time>2019-06-04T10:27:24Z</time>
      </trkpt>
      <trkpt lat="44.24579" lon="5.84328">
        <ele>542</ele>
        <time>2019-06-04T10:27:25Z</time>
      </trkpt>
      <trkpt lat="44.24584" lon="5.84324">
        <ele>542</ele>
        <time>2019-06-04T10:27:26Z</time>
      </trkpt>
      <trkpt lat="44.2459" lon="5.8432">
        <ele>542</ele>
        <time>2019-06-04T10:27:27Z</time>
      </trkpt>
      <trkpt lat="44.24595" lon="5.84315">
        <ele>542</ele>
        <time>2019-06-04T10:27:28Z</time>
      </trkpt>
      <trkpt lat="44.246" lon="5.84311">
        <ele>543</ele>
        <time>2019-06-04T10:27:29Z</time>
      </trkpt>
      <trkpt lat="44.24606" lon="5.84306">
        <ele>543</ele>
        <time>2019-06-04T10:27:30Z</time>
      </trkpt>
      <trkpt lat="44.24611" lon="5.84302">
        <ele>543</ele>
        <time>2019-06-04T10:27:31Z</time>
      </trkpt>
      <trkpt lat="44.24617" lon="5.84298">
        <ele>543</ele>
        <time>2019-06-04T10:27:32Z</time>
      </trkpt>
      <trkpt lat="44.24622" lon="5.84294">
        <ele>543</ele>
        <time>2019-06-04T10:27:33Z</time>
      </trkpt>
      <trkpt lat="44.24628" lon="5.84289">
        <ele>543</ele>
        <time>2019-06-04T10:27:34Z</time>
      </trkpt>
      <trkpt lat="44.24633" lon="5.84285">
        <ele>543</ele>
        <time>2019-06-04T10:27:35Z</time>
      </trkpt>
      <trkpt lat="44.24639" lon="5.8428">
        <ele>543</ele>
        <time>2019-06-04T10:27:36Z</time>
      </trkpt>
      <trkpt lat="44.24645" lon="5.84276">
        <ele>543</ele>
        <time>2019-06-04T10:27:37Z</time>
      </trkpt>
      <trkpt lat="44.24651" lon="5.84271">
        <ele>543</ele>
        <time>2019-06-04T10:27:38Z</time>
      </trkpt>
      <trkpt lat="44.24656" lon="5.84267">
        <ele>543</ele>
        <time>2019-06-04T10:27:39Z</time>
      </trkpt>
      <trkpt lat="44.24662" lon="5.84262">
        <ele>543</ele>
        <time>2019-06-04T10:27:40Z</time>
      </trkpt>
      <trkpt lat="44.24668" lon="5.84258">
        <ele>543</ele>
        <time>2019-06-04T10:27:41Z</time>
      </trkpt>
      <trkpt lat="44.24674" lon="5.84253">
        <ele>543</ele>
        <time>2019-06-04T10:27:42Z</time>
      </trkpt>
      <trkpt lat="44.2468" lon="5.84248">
        <ele>543</ele>
        <time>2019-06-04T10:27:43Z</time>
      </trkpt>
      <trkpt lat="44.24685" lon="5.84243">
        <ele>543</ele>
        <time>2019-06-04T10:27:44Z</time>
      </trkpt>
      <trkpt lat="44.24691" lon="5.84239">
        <ele>543</ele>
        <time>2019-06-04T10:27:45Z</time>
      </trkpt>
      <trkpt lat="44.24696" lon="5.84234">
        <ele>543</ele>
        <time>2019-06-04T10:27:46Z</time>
      </trkpt>
      <trkpt lat="44.24702" lon="5.8423">
        <ele>543</ele>
        <time>2019-06-04T10:27:47Z</time>
      </trkpt>
      <trkpt lat="44.24708" lon="5.84225">
        <ele>543</ele>
        <time>2019-06-04T10:27:48Z</time>
      </trkpt>
      <trkpt lat="44.24714" lon="5.84221">
        <ele>543</ele>
        <time>2019-06-04T10:27:49Z</time>
      </trkpt>
      <trkpt lat="44.2472" lon="5.84215">
        <ele>543</ele>
        <time>2019-06-04T10:27:50Z</time>
      </trkpt>
      <trkpt lat="44.24726" lon="5.8421">
        <ele>543</ele>
        <time>2019-06-04T10:27:51Z</time>
      </trkpt>
      <trkpt lat="44.24732" lon="5.84205">
        <ele>543</ele>
        <time>2019-06-04T10:27:52Z</time>
      </trkpt>
      <trkpt lat="44.24738" lon="5.842">
        <ele>543</ele>
        <time>2019-06-04T10:27:53Z</time>
      </trkpt>
      <trkpt lat="44.24744" lon="5.84196">
        <ele>543</ele>
        <time>2019-06-04T10:27:54Z</time>
      </trkpt>
      <trkpt lat="44.2475" lon="5.84192">
        <ele>543</ele>
        <time>2019-06-04T10:27:55Z</time>
      </trkpt>
      <trkpt lat="44.24756" lon="5.84187">
        <ele>543</ele>
        <time>2019-06-04T10:27:56Z</time>
      </trkpt>
      <trkpt lat="44.24762" lon="5.84182">
        <ele>543</ele>
        <time>2019-06-04T10:27:57Z</time>
      </trkpt>
      <trkpt lat="44.24768" lon="5.84177">
        <ele>543</ele>
        <time>2019-06-04T10:27:58Z</time>
      </trkpt>
      <trkpt lat="44.24773" lon="5.84172">
        <ele>543</ele>
        <time>2019-06-04T10:27:59Z</time>
      </trkpt>
      <trkpt lat="44.2478" lon="5.84167">
        <ele>543</ele>
        <time>2019-06-04T10:28:00Z</time>
      </trkpt>
      <trkpt lat="44.24785" lon="5.84163">
        <ele>543</ele>
        <time>2019-06-04T10:28:01Z</time>
      </trkpt>
      <trkpt lat="44.24791" lon="5.84158">
        <ele>543</ele>
        <time>2019-06-04T10:28:02Z</time>
      </trkpt>
      <trkpt lat="44.24797" lon="5.84153">
        <ele>543</ele>
        <time>2019-06-04T10:28:03Z</time>
      </trkpt>
      <trkpt lat="44.24804" lon="5.84149">
        <ele>543</ele>
        <time>2019-06-04T10:28:04Z</time>
      </trkpt>
      <trkpt lat="44.2481" lon="5.84144">
        <ele>543</ele>
        <time>2019-06-04T10:28:05Z</time>
      </trkpt>
      <trkpt lat="44.24816" lon="5.84139">
        <ele>543</ele>
        <time>2019-06-04T10:28:06Z</time>
      </trkpt>
      <trkpt lat="44.24822" lon="5.84134">
        <ele>543</ele>
        <time>2019-06-04T10:28:07Z</time>
      </trkpt>
      <trkpt lat="44.24828" lon="5.84129">
        <ele>543</ele>
        <time>2019-06-04T10:28:08Z</time>
      </trkpt>
      <trkpt lat="44.24834" lon="5.84124">
        <ele>543</ele>
        <time>2019-06-04T10:28:09Z</time>
      </trkpt>
      <trkpt lat="44.2484" lon="5.84119">
        <ele>543</ele>
        <time>2019-06-04T10:28:10Z</time>
      </trkpt>
      <trkpt lat="44.24847" lon="5.84114">
        <ele>543</ele>
        <time>2019-06-04T10:28:11Z</time>
      </trkpt>
      <trkpt lat="44.24853" lon="5.84109">
        <ele>543</ele>
        <time>2019-06-04T10:28:12Z</time>
      </trkpt>
      <trkpt lat="44.24859" lon="5.84104">
        <ele>543</ele>
        <time>2019-06-04T10:28:13Z</time>
      </trkpt>
      <trkpt lat="44.24865" lon="5.84099">
        <ele>543</ele>
        <time>2019-06-04T10:28:14Z</time>
      </trkpt>
      <trkpt lat="44.24872" lon="5.84094">
        <ele>543</ele>
        <time>2019-06-04T10:28:15Z</time>
      </trkpt>
      <trkpt lat="44.24878" lon="5.84088">
        <ele>543</ele>
        <time>2019-06-04T10:28:16Z</time>
      </trkpt>
      <trkpt lat="44.24885" lon="5.84083">
        <ele>543</ele>
        <time>2019-06-04T10:28:17Z</time>
      </trkpt>
      <trkpt lat="44.24891" lon="5.84078">
        <ele>543</ele>
        <time>2019-06-04T10:28:18Z</time>
      </trkpt>
      <trkpt lat="44.24898" lon="5.84072">
        <ele>543</ele>
        <time>2019-06-04T10:28:19Z</time>
      </trkpt>
      <trkpt lat="44.24905" lon="5.84067">
        <ele>543</ele>
        <time>2019-06-04T10:28:20Z</time>
      </trkpt>
      <trkpt lat="44.24912" lon="5.84061">
        <ele>543</ele>
        <time>2019-06-04T10:28:21Z</time>
      </trkpt>
      <trkpt lat="44.24918" lon="5.84056">
        <ele>543</ele>
        <time>2019-06-04T10:28:22Z</time>
      </trkpt>
      <trkpt lat="44.24925" lon="5.8405">
        <ele>543</ele>
        <time>2019-06-04T10:28:23Z</time>
      </trkpt>
      <trkpt lat="44.24932" lon="5.84044">
        <ele>543</ele>
        <time>2019-06-04T10:28:24Z</time>
      </trkpt>
      <trkpt lat="44.24939" lon="5.84038">
        <ele>543</ele>
        <time>2019-06-04T10:28:25Z</time>
      </trkpt>
      <trkpt lat="44.24946" lon="5.84032">
        <ele>543</ele>
        <time>2019-06-04T10:28:26Z</time>
      </trkpt>
      <trkpt lat="44.24953" lon="5.84026">
        <ele>543</ele>
        <time>2019-06-04T10:28:27Z</time>
      </trkpt>
      <trkpt lat="44.24959" lon="5.8402">
        <ele>543</ele>
        <time>2019-06-04T10:28:28Z</time>
      </trkpt>
      <trkpt lat="44.24966" lon="5.84013">
        <ele>543</ele>
        <time>2019-06-04T10:28:29Z</time>
      </trkpt>
      <trkpt lat="44.24971" lon="5.84005">
        <ele>543</ele>
        <time>2019-06-04T10:28:30Z</time>
      </trkpt>
      <trkpt lat="44.24977" lon="5.83996">
        <ele>543</ele>
        <time>2019-06-04T10:28:31Z</time>
      </trkpt>
      <trkpt lat="44.24983" lon="5.83987">
        <ele>543</ele>
        <time>2019-06-04T10:28:32Z</time>
      </trkpt>
      <trkpt lat="44.24988" lon="5.83977">
        <ele>543</ele>
        <time>2019-06-04T10:28:33Z</time>
      </trkpt>
      <trkpt lat="44.24992" lon="5.83966">
        <ele>543</ele>
        <time>2019-06-04T10:28:34Z</time>
      </trkpt>
      <trkpt lat="44.24997" lon="5.83955">
        <ele>543</ele>
        <time>2019-06-04T10:28:35Z</time>
      </trkpt>
      <trkpt lat="44.25" lon="5.83943">
        <ele>543</ele>
        <time>2019-06-04T10:28:36Z</time>
      </trkpt>
      <trkpt lat="44.25004" lon="5.83931">
        <ele>543</ele>
        <time>2019-06-04T10:28:37Z</time>
      </trkpt>
      <trkpt lat="44.25006" lon="5.83919">
        <ele>543</ele>
        <time>2019-06-04T10:28:38Z</time>
      </trkpt>
      <trkpt lat="44.25009" lon="5.83907">
        <ele>542</ele>
        <time>2019-06-04T10:28:39Z</time>
      </trkpt>
      <trkpt lat="44.25012" lon="5.83894">
        <ele>542</ele>
        <time>2019-06-04T10:28:40Z</time>
      </trkpt>
      <trkpt lat="44.25014" lon="5.83881">
        <ele>542</ele>
        <time>2019-06-04T10:28:41Z</time>
      </trkpt>
      <trkpt lat="44.25017" lon="5.83869">
        <ele>542</ele>
        <time>2019-06-04T10:28:42Z</time>
      </trkpt>
      <trkpt lat="44.2502" lon="5.83856">
        <ele>542</ele>
        <time>2019-06-04T10:28:43Z</time>
      </trkpt>
      <trkpt lat="44.25023" lon="5.83843">
        <ele>541</ele>
        <time>2019-06-04T10:28:44Z</time>
      </trkpt>
      <trkpt lat="44.25025" lon="5.8383">
        <ele>541</ele>
        <time>2019-06-04T10:28:45Z</time>
      </trkpt>
      <trkpt lat="44.25028" lon="5.83816">
        <ele>541</ele>
        <time>2019-06-04T10:28:46Z</time>
      </trkpt>
      <trkpt lat="44.2503" lon="5.83803">
        <ele>541</ele>
        <time>2019-06-04T10:28:47Z</time>
      </trkpt>
      <trkpt lat="44.25033" lon="5.83789">
        <ele>541</ele>
        <time>2019-06-04T10:28:48Z</time>
      </trkpt>
      <trkpt lat="44.25036" lon="5.83776">
        <ele>541</ele>
        <time>2019-06-04T10:28:49Z</time>
      </trkpt>
      <trkpt lat="44.25039" lon="5.83762">
        <ele>540</ele>
        <time>2019-06-04T10:28:50Z</time>
      </trkpt>
      <trkpt lat="44.25041" lon="5.83748">
        <ele>540</ele>
        <time>2019-06-04T10:28:51Z</time>
      </trkpt>
      <trkpt lat="44.25044" lon="5.83734">
        <ele>540</ele>
        <time>2019-06-04T10:28:52Z</time>
      </trkpt>
      <trkpt lat="44.25047" lon="5.8372">
        <ele>540</ele>
        <time>2019-06-04T10:28:53Z</time>
      </trkpt>
      <trkpt lat="44.25049" lon="5.83707">
        <ele>540</ele>
        <time>2019-06-04T10:28:54Z</time>
      </trkpt>
      <trkpt lat="44.25052" lon="5.83693">
        <ele>539</ele>
        <time>2019-06-04T10:28:55Z</time>
      </trkpt>
      <trkpt lat="44.25055" lon="5.8368">
        <ele>539</ele>
        <time>2019-06-04T10:28:56Z</time>
      </trkpt>
      <trkpt lat="44.25057" lon="5.83667">
        <ele>539</ele>
        <time>2019-06-04T10:28:57Z</time>
      </trkpt>
      <trkpt lat="44.2506" lon="5.83654">
        <ele>539</ele>
        <time>2019-06-04T10:28:58Z</time>
      </trkpt>
      <trkpt lat="44.25062" lon="5.83642">
        <ele>539</ele>
        <time>2019-06-04T10:28:59Z</time>
      </trkpt>
      <trkpt lat="44.25064" lon="5.83629">
        <ele>539</ele>
        <time>2019-06-04T10:29:00Z</time>
      </trkpt>
      <trkpt lat="44.25067" lon="5.83616">
        <ele>539</ele>
        <time>2019-06-04T10:29:01Z</time>
      </trkpt>
      <trkpt lat="44.25069" lon="5.83604">
        <ele>539</ele>
        <time>2019-06-04T10:29:02Z</time>
      </trkpt>
      <trkpt lat="44.25072" lon="5.83591">
        <ele>538</ele>
        <time>2019-06-04T10:29:03Z</time>
      </trkpt>
      <trkpt lat="44.25074" lon="5.83579">
        <ele>538</ele>
        <time>2019-06-04T10:29:04Z</time>
      </trkpt>
      <trkpt lat="44.25077" lon="5.83567">
        <ele>538</ele>
        <time>2019-06-04T10:29:05Z</time>
      </trkpt>
      <trkpt lat="44.25079" lon="5.83555">
        <ele>538</ele>
        <time>2019-06-04T10:29:06Z</time>
      </trkpt>
      <trkpt lat="44.25082" lon="5.83542">
        <ele>537</ele>
        <time>2019-06-04T10:29:07Z</time>
      </trkpt>
      <trkpt lat="44.25085" lon="5.8353">
        <ele>537</ele>
        <time>2019-06-04T10:29:08Z</time>
      </trkpt>
      <trkpt lat="44.25087" lon="5.83518">
        <ele>537</ele>
        <time>2019-06-04T10:29:09Z</time>
      </trkpt>
      <trkpt lat="44.25091" lon="5.83506">
        <ele>536</ele>
        <time>2019-06-04T10:29:10Z</time>
      </trkpt>
      <trkpt lat="44.25095" lon="5.83494">
        <ele>536</ele>
        <time>2019-06-04T10:29:11Z</time>
      </trkpt>
      <trkpt lat="44.25099" lon="5.83482">
        <ele>536</ele>
        <time>2019-06-04T10:29:12Z</time>
      </trkpt>
      <trkpt lat="44.25103" lon="5.8347">
        <ele>536</ele>
        <time>2019-06-04T10:29:13Z</time>
      </trkpt>
      <trkpt lat="44.25108" lon="5.83459">
        <ele>536</ele>
        <time>2019-06-04T10:29:14Z</time>
      </trkpt>
      <trkpt lat="44.25114" lon="5.83449">
        <ele>535</ele>
        <time>2019-06-04T10:29:15Z</time>
      </trkpt>
      <trkpt lat="44.25119" lon="5.83438">
        <ele>535</ele>
        <time>2019-06-04T10:29:16Z</time>
      </trkpt>
      <trkpt lat="44.25126" lon="5.83427">
        <ele>535</ele>
        <time>2019-06-04T10:29:17Z</time>
      </trkpt>
      <trkpt lat="44.25132" lon="5.83417">
        <ele>535</ele>
        <time>2019-06-04T10:29:18Z</time>
      </trkpt>
      <trkpt lat="44.25139" lon="5.83407">
        <ele>535</ele>
        <time>2019-06-04T10:29:19Z</time>
      </trkpt>
      <trkpt lat="44.25146" lon="5.83398">
        <ele>535</ele>
        <time>2019-06-04T10:29:20Z</time>
      </trkpt>
      <trkpt lat="44.25153" lon="5.83389">
        <ele>535</ele>
        <time>2019-06-04T10:29:21Z</time>
      </trkpt>
      <trkpt lat="44.25161" lon="5.83381">
        <ele>535</ele>
        <time>2019-06-04T10:29:22Z</time>
      </trkpt>
      <trkpt lat="44.25169" lon="5.83373">
        <ele>534</ele>
        <time>2019-06-04T10:29:23Z</time>
      </trkpt>
      <trkpt lat="44.25177" lon="5.83366">
        <ele>534</ele>
        <time>2019-06-04T10:29:24Z</time>
      </trkpt>
      <trkpt lat="44.25185" lon="5.83358">
        <ele>534</ele>
        <time>2019-06-04T10:29:25Z</time>
      </trkpt>
      <trkpt lat="44.25194" lon="5.83351">
        <ele>534</ele>
        <time>2019-06-04T10:29:26Z</time>
      </trkpt>
      <trkpt lat="44.25203" lon="5.83344">
        <ele>534</ele>
        <time>2019-06-04T10:29:27Z</time>
      </trkpt>
      <trkpt lat="44.25212" lon="5.83337">
        <ele>534</ele>
        <time>2019-06-04T10:29:28Z</time>
      </trkpt>
      <trkpt lat="44.25222" lon="5.8333">
        <ele>534</ele>
        <time>2019-06-04T10:29:29Z</time>
      </trkpt>
      <trkpt lat="44.25231" lon="5.83323">
        <ele>533</ele>
        <time>2019-06-04T10:29:30Z</time>
      </trkpt>
      <trkpt lat="44.25241" lon="5.83316">
        <ele>533</ele>
        <time>2019-06-04T10:29:31Z</time>
      </trkpt>
      <trkpt lat="44.25251" lon="5.83307">
        <ele>533</ele>
        <time>2019-06-04T10:29:32Z</time>
      </trkpt>
      <trkpt lat="44.25261" lon="5.83299">
        <ele>532</ele>
        <time>2019-06-04T10:29:33Z</time>
      </trkpt>
      <trkpt lat="44.2527" lon="5.83291">
        <ele>532</ele>
        <time>2019-06-04T10:29:34Z</time>
      </trkpt>
      <trkpt lat="44.25279" lon="5.83283">
        <ele>531</ele>
        <time>2019-06-04T10:29:35Z</time>
      </trkpt>
      <trkpt lat="44.25289" lon="5.83274">
        <ele>530</ele>
        <time>2019-06-04T10:29:36Z</time>
      </trkpt>
      <trkpt lat="44.25298" lon="5.83265">
        <ele>530</ele>
        <time>2019-06-04T10:29:37Z</time>
      </trkpt>
      <trkpt lat="44.25307" lon="5.83256">
        <ele>529</ele>
        <time>2019-06-04T10:29:38Z</time>
      </trkpt>
      <trkpt lat="44.25316" lon="5.83247">
        <ele>528</ele>
        <time>2019-06-04T10:29:39Z</time>
      </trkpt>
      <trkpt lat="44.25325" lon="5.83238">
        <ele>528</ele>
        <time>2019-06-04T10:29:40Z</time>
      </trkpt>
      <trkpt lat="44.25334" lon="5.83229">
        <ele>528</ele>
        <time>2019-06-04T10:29:41Z</time>
      </trkpt>
      <trkpt lat="44.25343" lon="5.83221">
        <ele>527</ele>
        <time>2019-06-04T10:29:42Z</time>
      </trkpt>
      <trkpt lat="44.25352" lon="5.83212">
        <ele>527</ele>
        <time>2019-06-04T10:29:43Z</time>
      </trkpt>
      <trkpt lat="44.2536" lon="5.83204">
        <ele>527</ele>
        <time>2019-06-04T10:29:44Z</time>
      </trkpt>
      <trkpt lat="44.25369" lon="5.83195">
        <ele>527</ele>
        <time>2019-06-04T10:29:45Z</time>
      </trkpt>
      <trkpt lat="44.25377" lon="5.83187">
        <ele>526</ele>
        <time>2019-06-04T10:29:46Z</time>
      </trkpt>
      <trkpt lat="44.25385" lon="5.83178">
        <ele>526</ele>
        <time>2019-06-04T10:29:47Z</time>
      </trkpt>
      <trkpt lat="44.25393" lon="5.8317">
        <ele>526</ele>
        <time>2019-06-04T10:29:48Z</time>
      </trkpt>
      <trkpt lat="44.25401" lon="5.83161">
        <ele>526</ele>
        <time>2019-06-04T10:29:49Z</time>
      </trkpt>
      <trkpt lat="44.25408" lon="5.83151">
        <ele>526</ele>
        <time>2019-06-04T10:29:50Z</time>
      </trkpt>
      <trkpt lat="44.25415" lon="5.83142">
        <ele>525</ele>
        <time>2019-06-04T10:29:51Z</time>
      </trkpt>
      <trkpt lat="44.25422" lon="5.83133">
        <ele>525</ele>
        <time>2019-06-04T10:29:52Z</time>
      </trkpt>
      <trkpt lat="44.25428" lon="5.83123">
        <ele>525</ele>
        <time>2019-06-04T10:29:53Z</time>
      </trkpt>
      <trkpt lat="44.25434" lon="5.83113">
        <ele>524</ele>
        <time>2019-06-04T10:29:54Z</time>
      </trkpt>
      <trkpt lat="44.2544" lon="5.83103">
        <ele>524</ele>
        <time>2019-06-04T10:29:55Z</time>
      </trkpt>
      <trkpt lat="44.25446" lon="5.83092">
        <ele>524</ele>
        <time>2019-06-04T10:29:56Z</time>
      </trkpt>
      <trkpt lat="44.25451" lon="5.83081">
        <ele>524</ele>
        <time>2019-06-04T10:29:57Z</time>
      </trkpt>
      <trkpt lat="44.25456" lon="5.8307">
        <ele>524</ele>
        <time>2019-06-04T10:29:58Z</time>
      </trkpt>
      <trkpt lat="44.25461" lon="5.83058">
        <ele>524</ele>
        <time>2019-06-04T10:29:59Z</time>
      </trkpt>
      <trkpt lat="44.25466" lon="5.83047">
        <ele>524</ele>
        <time>2019-06-04T10:30:00Z</time>
      </trkpt>
      <trkpt lat="44.2547" lon="5.83036">
        <ele>524</ele>
        <time>2019-06-04T10:30:01Z</time>
      </trkpt>
      <trkpt lat="44.25475" lon="5.83024">
        <ele>524</ele>
        <time>2019-06-04T10:30:02Z</time>
      </trkpt>
      <trkpt lat="44.25479" lon="5.83012">
        <ele>524</ele>
        <time>2019-06-04T10:30:03Z</time>
      </trkpt>
      <trkpt lat="44.25483" lon="5.83">
        <ele>524</ele>
        <time>2019-06-04T10:30:04Z</time>
      </trkpt>
      <trkpt lat="44.25486" lon="5.82987">
        <ele>524</ele>
        <time>2019-06-04T10:30:05Z</time>
      </trkpt>
      <trkpt lat="44.25489" lon="5.82975">
        <ele>524</ele>
        <time>2019-06-04T10:30:06Z</time>
      </trkpt>
      <trkpt lat="44.25492" lon="5.82963">
        <ele>524</ele>
        <time>2019-06-04T10:30:07Z</time>
      </trkpt>
      <trkpt lat="44.25495" lon="5.8295">
        <ele>524</ele>
        <time>2019-06-04T10:30:08Z</time>
      </trkpt>
      <trkpt lat="44.25498" lon="5.82938">
        <ele>524</ele>
        <time>2019-06-04T10:30:09Z</time>
      </trkpt>
      <trkpt lat="44.25501" lon="5.82927">
        <ele>524</ele>
        <time>2019-06-04T10:30:10Z</time>
      </trkpt>
      <trkpt lat="44.25504" lon="5.82915">
        <ele>524</ele>
        <time>2019-06-04T10:30:11Z</time>
      </trkpt>
      <trkpt lat="44.25507" lon="5.82904">
        <ele>524</ele>
        <time>2019-06-04T10:30:12Z</time>
      </trkpt>
      <trkpt lat="44.2551" lon="5.82893">
        <ele>524</ele>
        <time>2019-06-04T10:30:13Z</time>
      </trkpt>
      <trkpt lat="44.25512" lon="5.82883">
        <ele>524</ele>
        <time>2019-06-04T10:30:14Z</time>
      </trkpt>
      <trkpt lat="44.25515" lon="5.82872">
        <ele>524</ele>
        <time>2019-06-04T10:30:15Z</time>
      </trkpt>
      <trkpt lat="44.25517" lon="5.82862">
        <ele>524</ele>
        <time>2019-06-04T10:30:16Z</time>
      </trkpt>
      <trkpt lat="44.2552" lon="5.82852">
        <ele>524</ele>
        <time>2019-06-04T10:30:17Z</time>
      </trkpt>
      <trkpt lat="44.25522" lon="5.82842">
        <ele>524</ele>
        <time>2019-06-04T10:30:18Z</time>
      </trkpt>
      <trkpt lat="44.25525" lon="5.82832">
        <ele>524</ele>
        <time>2019-06-04T10:30:19Z</time>
      </trkpt>
      <trkpt lat="44.25528" lon="5.82823">
        <ele>524</ele>
        <time>2019-06-04T10:30:20Z</time>
      </trkpt>
      <trkpt lat="44.2553" lon="5.82813">
        <ele>524</ele>
        <time>2019-06-04T10:30:21Z</time>
      </trkpt>
      <trkpt lat="44.25533" lon="5.82804">
        <ele>524</ele>
        <time>2019-06-04T10:30:22Z</time>
      </trkpt>
      <trkpt lat="44.25536" lon="5.82795">
        <ele>524</ele>
        <time>2019-06-04T10:30:23Z</time>
      </trkpt>
      <trkpt lat="44.25539" lon="5.82786">
        <ele>524</ele>
        <time>2019-06-04T10:30:24Z</time>
      </trkpt>
      <trkpt lat="44.25542" lon="5.82777">
        <ele>524</ele>
        <time>2019-06-04T10:30:25Z</time>
      </trkpt>
      <trkpt lat="44.25545" lon="5.82768">
        <ele>524</ele>
        <time>2019-06-04T10:30:26Z</time>
      </trkpt>
      <trkpt lat="44.25548" lon="5.8276">
        <ele>524</ele>
        <time>2019-06-04T10:30:27Z</time>
      </trkpt>
      <trkpt lat="44.25551" lon="5.82752">
        <ele>524</ele>
        <time>2019-06-04T10:30:28Z</time>
      </trkpt>
      <trkpt lat="44.25554" lon="5.82744">
        <ele>524</ele>
        <time>2019-06-04T10:30:29Z</time>
      </trkpt>
      <trkpt lat="44.25557" lon="5.82736">
        <ele>524</ele>
        <time>2019-06-04T10:30:30Z</time>
      </trkpt>
      <trkpt lat="44.2556" lon="5.82728">
        <ele>524</ele>
        <time>2019-06-04T10:30:31Z</time>
      </trkpt>
      <trkpt lat="44.25563" lon="5.8272">
        <ele>524</ele>
        <time>2019-06-04T10:30:32Z</time>
      </trkpt>
      <trkpt lat="44.25566" lon="5.82712">
        <ele>524</ele>
        <time>2019-06-04T10:30:33Z</time>
      </trkpt>
      <trkpt lat="44.25569" lon="5.82705">
        <ele>524</ele>
        <time>2019-06-04T10:30:34Z</time>
      </trkpt>
      <trkpt lat="44.25573" lon="5.82697">
        <ele>524</ele>
        <time>2019-06-04T10:30:35Z</time>
      </trkpt>
      <trkpt lat="44.25576" lon="5.8269">
        <ele>524</ele>
        <time>2019-06-04T10:30:36Z</time>
      </trkpt>
      <trkpt lat="44.25579" lon="5.82683">
        <ele>524</ele>
        <time>2019-06-04T10:30:37Z</time>
      </trkpt>
      <trkpt lat="44.25583" lon="5.82676">
        <ele>524</ele>
        <time>2019-06-04T10:30:38Z</time>
      </trkpt>
      <trkpt lat="44.25586" lon="5.82668">
        <ele>524</ele>
        <time>2019-06-04T10:30:39Z</time>
      </trkpt>
      <trkpt lat="44.2559" lon="5.82661">
        <ele>524</ele>
        <time>2019-06-04T10:30:40Z</time>
      </trkpt>
      <trkpt lat="44.25594" lon="5.82654">
        <ele>524</ele>
        <time>2019-06-04T10:30:41Z</time>
      </trkpt>
      <trkpt lat="44.25597" lon="5.82646">
        <ele>524</ele>
        <time>2019-06-04T10:30:42Z</time>
      </trkpt>
      <trkpt lat="44.25602" lon="5.82639">
        <ele>524</ele>
        <time>2019-06-04T10:30:43Z</time>
      </trkpt>
      <trkpt lat="44.25605" lon="5.82632">
        <ele>524</ele>
        <time>2019-06-04T10:30:44Z</time>
      </trkpt>
      <trkpt lat="44.2561" lon="5.82625">
        <ele>524</ele>
        <time>2019-06-04T10:30:45Z</time>
      </trkpt>
      <trkpt lat="44.25614" lon="5.82618">
        <ele>524</ele>
        <time>2019-06-04T10:30:46Z</time>
      </trkpt>
      <trkpt lat="44.25618" lon="5.82611">
        <ele>524</ele>
        <time>2019-06-04T10:30:47Z</time>
      </trkpt>
      <trkpt lat="44.25623" lon="5.82604">
        <ele>524</ele>
        <time>2019-06-04T10:30:48Z</time>
      </trkpt>
      <trkpt lat="44.25627" lon="5.82597">
        <ele>524</ele>
        <time>2019-06-04T10:30:49Z</time>
      </trkpt>
      <trkpt lat="44.25631" lon="5.8259">
        <ele>524</ele>
        <time>2019-06-04T10:30:50Z</time>
      </trkpt>
      <trkpt lat="44.25635" lon="5.82584">
        <ele>524</ele>
        <time>2019-06-04T10:30:51Z</time>
      </trkpt>
      <trkpt lat="44.25639" lon="5.82577">
        <ele>524</ele>
        <time>2019-06-04T10:30:52Z</time>
      </trkpt>
      <trkpt lat="44.25642" lon="5.8257">
        <ele>524</ele>
        <time>2019-06-04T10:30:53Z</time>
      </trkpt>
      <trkpt lat="44.25647" lon="5.82564">
        <ele>524</ele>
        <time>2019-06-04T10:30:54Z</time>
      </trkpt>
      <trkpt lat="44.25651" lon="5.82558">
        <ele>524</ele>
        <time>2019-06-04T10:30:55Z</time>
      </trkpt>
      <trkpt lat="44.25655" lon="5.82552">
        <ele>524</ele>
        <time>2019-06-04T10:30:56Z</time>
      </trkpt>
      <trkpt lat="44.25659" lon="5.82546">
        <ele>524</ele>
        <time>2019-06-04T10:30:57Z</time>
      </trkpt>
      <trkpt lat="44.25663" lon="5.8254">
        <ele>524</ele>
        <time>2019-06-04T10:30:58Z</time>
      </trkpt>
      <trkpt lat="44.25667" lon="5.82535">
        <ele>524</ele>
        <time>2019-06-04T10:30:59Z</time>
      </trkpt>
      <trkpt lat="44.25672" lon="5.82529">
        <ele>524</ele>
        <time>2019-06-04T10:31:00Z</time>
      </trkpt>
      <trkpt lat="44.25676" lon="5.82524">
        <ele>524</ele>
        <time>2019-06-04T10:31:01Z</time>
      </trkpt>
      <trkpt lat="44.2568" lon="5.82518">
        <ele>524</ele>
        <time>2019-06-04T10:31:02Z</time>
      </trkpt>
      <trkpt lat="44.25684" lon="5.82513">
        <ele>524</ele>
        <time>2019-06-04T10:31:03Z</time>
      </trkpt>
      <trkpt lat="44.25689" lon="5.82508">
        <ele>524</ele>
        <time>2019-06-04T10:31:04Z</time>
      </trkpt>
      <trkpt lat="44.25694" lon="5.82503">
        <ele>525</ele>
        <time>2019-06-04T10:31:05Z</time>
      </trkpt>
      <trkpt lat="44.25699" lon="5.82498">
        <ele>525</ele>
        <time>2019-06-04T10:31:06Z</time>
      </trkpt>
      <trkpt lat="44.25704" lon="5.82493">
        <ele>525</ele>
        <time>2019-06-04T10:31:07Z</time>
      </trkpt>
      <trkpt lat="44.25709" lon="5.82488">
        <ele>525</ele>
        <time>2019-06-04T10:31:08Z</time>
      </trkpt>
      <trkpt lat="44.25714" lon="5.82483">
        <ele>525</ele>
        <time>2019-06-04T10:31:09Z</time>
      </trkpt>
      <trkpt lat="44.25719" lon="5.82479">
        <ele>525</ele>
        <time>2019-06-04T10:31:10Z</time>
      </trkpt>
      <trkpt lat="44.25723" lon="5.82474">
        <ele>525</ele>
        <time>2019-06-04T10:31:11Z</time>
      </trkpt>
      <trkpt lat="44.25727" lon="5.8247">
        <ele>525</ele>
        <time>2019-06-04T10:31:12Z</time>
      </trkpt>
      <trkpt lat="44.25732" lon="5.82465">
        <ele>525</ele>
        <time>2019-06-04T10:31:13Z</time>
      </trkpt>
      <trkpt lat="44.25737" lon="5.8246">
        <ele>525</ele>
        <time>2019-06-04T10:31:14Z</time>
      </trkpt>
      <trkpt lat="44.25741" lon="5.82456">
        <ele>526</ele>
        <time>2019-06-04T10:31:15Z</time>
      </trkpt>
      <trkpt lat="44.25745" lon="5.82451">
        <ele>526</ele>
        <time>2019-06-04T10:31:16Z</time>
      </trkpt>
      <trkpt lat="44.2575" lon="5.82446">
        <ele>526</ele>
        <time>2019-06-04T10:31:17Z</time>
      </trkpt>
      <trkpt lat="44.25755" lon="5.82442">
        <ele>526</ele>
        <time>2019-06-04T10:31:18Z</time>
      </trkpt>
      <trkpt lat="44.25759" lon="5.82437">
        <ele>526</ele>
        <time>2019-06-04T10:31:19Z</time>
      </trkpt>
      <trkpt lat="44.25764" lon="5.82433">
        <ele>526</ele>
        <time>2019-06-04T10:31:20Z</time>
      </trkpt>
      <trkpt lat="44.25769" lon="5.82428">
        <ele>526</ele>
        <time>2019-06-04T10:31:21Z</time>
      </trkpt>
      <trkpt lat="44.25774" lon="5.82423">
        <ele>526</ele>
        <time>2019-06-04T10:31:22Z</time>
      </trkpt>
      <trkpt lat="44.25779" lon="5.82419">
        <ele>527</ele>
        <time>2019-06-04T10:31:23Z</time>
      </trkpt>
      <trkpt lat="44.25783" lon="5.82414">
        <ele>527</ele>
        <time>2019-06-04T10:31:24Z</time>
      </trkpt>
      <trkpt lat="44.25789" lon="5.8241">
        <ele>527</ele>
        <time>2019-06-04T10:31:25Z</time>
      </trkpt>
      <trkpt lat="44.25794" lon="5.82406">
        <ele>528</ele>
        <time>2019-06-04T10:31:26Z</time>
      </trkpt>
      <trkpt lat="44.25799" lon="5.82402">
        <ele>528</ele>
        <time>2019-06-04T10:31:27Z</time>
      </trkpt>
      <trkpt lat="44.25804" lon="5.82398">
        <ele>528</ele>
        <time>2019-06-04T10:31:28Z</time>
      </trkpt>
      <trkpt lat="44.25809" lon="5.82395">
        <ele>529</ele>
        <time>2019-06-04T10:31:29Z</time>
      </trkpt>
      <trkpt lat="44.25814" lon="5.82391">
        <ele>529</ele>
        <time>2019-06-04T10:31:30Z</time>
      </trkpt>
      <trkpt lat="44.25819" lon="5.82388">
        <ele>529</ele>
        <time>2019-06-04T10:31:31Z</time>
      </trkpt>
      <trkpt lat="44.25824" lon="5.82384">
        <ele>529</ele>
        <time>2019-06-04T10:31:32Z</time>
      </trkpt>
      <trkpt lat="44.2583" lon="5.82381">
        <ele>529</ele>
        <time>2019-06-04T10:31:33Z</time>
      </trkpt>
      <trkpt lat="44.25835" lon="5.82378">
        <ele>529</ele>
        <time>2019-06-04T10:31:34Z</time>
      </trkpt>
      <trkpt lat="44.25839" lon="5.82374">
        <ele>529</ele>
        <time>2019-06-04T10:31:35Z</time>
      </trkpt>
      <trkpt lat="44.25845" lon="5.82372">
        <ele>529</ele>
        <time>2019-06-04T10:31:36Z</time>
      </trkpt>
      <trkpt lat="44.2585" lon="5.82369">
        <ele>530</ele>
        <time>2019-06-04T10:31:37Z</time>
      </trkpt>
      <trkpt lat="44.25856" lon="5.82366">
        <ele>530</ele>
        <time>2019-06-04T10:31:38Z</time>
      </trkpt>
      <trkpt lat="44.25861" lon="5.82364">
        <ele>531</ele>
        <time>2019-06-04T10:31:39Z</time>
      </trkpt>
      <trkpt lat="44.25868" lon="5.82363">
        <ele>531</ele>
        <time>2019-06-04T10:31:40Z</time>
      </trkpt>
      <trkpt lat="44.25874" lon="5.82361">
        <ele>531</ele>
        <time>2019-06-04T10:31:41Z</time>
      </trkpt>
      <trkpt lat="44.25879" lon="5.82359">
        <ele>531</ele>
        <time>2019-06-04T10:31:42Z</time>
      </trkpt>
      <trkpt lat="44.25886" lon="5.82357">
        <ele>531</ele>
        <time>2019-06-04T10:31:43Z</time>
      </trkpt>
      <trkpt lat="44.25892" lon="5.82356">
        <ele>531</ele>
        <time>2019-06-04T10:31:44Z</time>
      </trkpt>
      <trkpt lat="44.25899" lon="5.82354">
        <ele>532</ele>
        <time>2019-06-04T10:31:45Z</time>
      </trkpt>
      <trkpt lat="44.25906" lon="5.82353">
        <ele>532</ele>
        <time>2019-06-04T10:31:46Z</time>
      </trkpt>
      <trkpt lat="44.25914" lon="5.82352">
        <ele>533</ele>
        <time>2019-06-04T10:31:47Z</time>
      </trkpt>
      <trkpt lat="44.2592" lon="5.82351">
        <ele>534</ele>
        <time>2019-06-04T10:31:48Z</time>
      </trkpt>
      <trkpt lat="44.25927" lon="5.8235">
        <ele>535</ele>
        <time>2019-06-04T10:31:49Z</time>
      </trkpt>
      <trkpt lat="44.25933" lon="5.8235">
        <ele>536</ele>
        <time>2019-06-04T10:31:50Z</time>
      </trkpt>
      <trkpt lat="44.2594" lon="5.8235">
        <ele>537</ele>
        <time>2019-06-04T10:31:51Z</time>
      </trkpt>
      <trkpt lat="44.25945" lon="5.82349">
        <ele>537</ele>
        <time>2019-06-04T10:31:52Z</time>
      </trkpt>
      <trkpt lat="44.25951" lon="5.82349">
        <ele>537</ele>
        <time>2019-06-04T10:31:53Z</time>
      </trkpt>
      <trkpt lat="44.25956" lon="5.82348">
        <ele>537</ele>
        <time>2019-06-04T10:31:54Z</time>
      </trkpt>
      <trkpt lat="44.25963" lon="5.82349">
        <ele>537</ele>
        <time>2019-06-04T10:31:55Z</time>
      </trkpt>
      <trkpt lat="44.2597" lon="5.82348">
        <ele>537</ele>
        <time>2019-06-04T10:31:56Z</time>
      </trkpt>
      <trkpt lat="44.25977" lon="5.82349">
        <ele>537</ele>
        <time>2019-06-04T10:31:57Z</time>
      </trkpt>
      <trkpt lat="44.25983" lon="5.82348">
        <ele>537</ele>
        <time>2019-06-04T10:31:58Z</time>
      </trkpt>
      <trkpt lat="44.2599" lon="5.82347">
        <ele>537</ele>
        <time>2019-06-04T10:31:59Z</time>
      </trkpt>
      <trkpt lat="44.25996" lon="5.82345">
        <ele>537</ele>
        <time>2019-06-04T10:32:00Z</time>
      </trkpt>
      <trkpt lat="44.26002" lon="5.82344">
        <ele>537</ele>
        <time>2019-06-04T10:32:01Z</time>
      </trkpt>
      <trkpt lat="44.26008" lon="5.82343">
        <ele>537</ele>
        <time>2019-06-04T10:32:02Z</time>
      </trkpt>
      <trkpt lat="44.26014" lon="5.82342">
        <ele>537</ele>
        <time>2019-06-04T10:32:03Z</time>
      </trkpt>
      <trkpt lat="44.2602" lon="5.8234">
        <ele>537</ele>
        <time>2019-06-04T10:32:04Z</time>
      </trkpt>
      <trkpt lat="44.26027" lon="5.82339">
        <ele>537</ele>
        <time>2019-06-04T10:32:05Z</time>
      </trkpt>
      <trkpt lat="44.26034" lon="5.82337">
        <ele>537</ele>
        <time>2019-06-04T10:32:06Z</time>
      </trkpt>
      <trkpt lat="44.26041" lon="5.82337">
        <ele>537</ele>
        <time>2019-06-04T10:32:07Z</time>
      </trkpt>
      <trkpt lat="44.26048" lon="5.82336">
        <ele>537</ele>
        <time>2019-06-04T10:32:08Z</time>
      </trkpt>
      <trkpt lat="44.26054" lon="5.82335">
        <ele>537</ele>
        <time>2019-06-04T10:32:09Z</time>
      </trkpt>
      <trkpt lat="44.26061" lon="5.82334">
        <ele>537</ele>
        <time>2019-06-04T10:32:10Z</time>
      </trkpt>
      <trkpt lat="44.26068" lon="5.82333">
        <ele>537</ele>
        <time>2019-06-04T10:32:11Z</time>
      </trkpt>
      <trkpt lat="44.26074" lon="5.82332">
        <ele>537</ele>
        <time>2019-06-04T10:32:12Z</time>
      </trkpt>
      <trkpt lat="44.2608" lon="5.8233">
        <ele>537</ele>
        <time>2019-06-04T10:32:13Z</time>
      </trkpt>
      <trkpt lat="44.26087" lon="5.82327">
        <ele>537</ele>
        <time>2019-06-04T10:32:14Z</time>
      </trkpt>
      <trkpt lat="44.26094" lon="5.82324">
        <ele>537</ele>
        <time>2019-06-04T10:32:15Z</time>
      </trkpt>
      <trkpt lat="44.26101" lon="5.82321">
        <ele>537</ele>
        <time>2019-06-04T10:32:16Z</time>
      </trkpt>
      <trkpt lat="44.26109" lon="5.82318">
        <ele>537</ele>
        <time>2019-06-04T10:32:17Z</time>
      </trkpt>
      <trkpt lat="44.26116" lon="5.82314">
        <ele>537</ele>
        <time>2019-06-04T10:32:18Z</time>
      </trkpt>
      <trkpt lat="44.26123" lon="5.82311">
        <ele>537</ele>
        <time>2019-06-04T10:32:19Z</time>
      </trkpt>
      <trkpt lat="44.26131" lon="5.82306">
        <ele>537</ele>
        <time>2019-06-04T10:32:20Z</time>
      </trkpt>
      <trkpt lat="44.26138" lon="5.82303">
        <ele>537</ele>
        <time>2019-06-04T10:32:21Z</time>
      </trkpt>
      <trkpt lat="44.26146" lon="5.82299">
        <ele>537</ele>
        <time>2019-06-04T10:32:22Z</time>
      </trkpt>
      <trkpt lat="44.26153" lon="5.82296">
        <ele>536</ele>
        <time>2019-06-04T10:32:23Z</time>
      </trkpt>
      <trkpt lat="44.2616" lon="5.82292">
        <ele>536</ele>
        <time>2019-06-04T10:32:24Z</time>
      </trkpt>
      <trkpt lat="44.26167" lon="5.82289">
        <ele>535</ele>
        <time>2019-06-04T10:32:25Z</time>
      </trkpt>
      <trkpt lat="44.26174" lon="5.82285">
        <ele>534</ele>
        <time>2019-06-04T10:32:26Z</time>
      </trkpt>
      <trkpt lat="44.2618" lon="5.82281">
        <ele>534</ele>
        <time>2019-06-04T10:32:27Z</time>
      </trkpt>
      <trkpt lat="44.26187" lon="5.82277">
        <ele>533</ele>
        <time>2019-06-04T10:32:28Z</time>
      </trkpt>
      <trkpt lat="44.26194" lon="5.82274">
        <ele>532</ele>
        <time>2019-06-04T10:32:29Z</time>
      </trkpt>
      <trkpt lat="44.26201" lon="5.8227">
        <ele>531</ele>
        <time>2019-06-04T10:32:30Z</time>
      </trkpt>
      <trkpt lat="44.26209" lon="5.82267">
        <ele>530</ele>
        <time>2019-06-04T10:32:31Z</time>
      </trkpt>
      <trkpt lat="44.26216" lon="5.82263">
        <ele>530</ele>
        <time>2019-06-04T10:32:32Z</time>
      </trkpt>
      <trkpt lat="44.26223" lon="5.82259">
        <ele>529</ele>
        <time>2019-06-04T10:32:33Z</time>
      </trkpt>
      <trkpt lat="44.26231" lon="5.82256">
        <ele>529</ele>
        <time>2019-06-04T10:32:34Z</time>
      </trkpt>
      <trkpt lat="44.26239" lon="5.82252">
        <ele>529</ele>
        <time>2019-06-04T10:32:35Z</time>
      </trkpt>
      <trkpt lat="44.26246" lon="5.82248">
        <ele>528</ele>
        <time>2019-06-04T10:32:36Z</time>
      </trkpt>
      <trkpt lat="44.26253" lon="5.82244">
        <ele>528</ele>
        <time>2019-06-04T10:32:37Z</time>
      </trkpt>
      <trkpt lat="44.2626" lon="5.8224">
        <ele>528</ele>
        <time>2019-06-04T10:32:38Z</time>
      </trkpt>
      <trkpt lat="44.26268" lon="5.82236">
        <ele>528</ele>
        <time>2019-06-04T10:32:39Z</time>
      </trkpt>
      <trkpt lat="44.26275" lon="5.82232">
        <ele>528</ele>
        <time>2019-06-04T10:32:40Z</time>
      </trkpt>
      <trkpt lat="44.26283" lon="5.82228">
        <ele>528</ele>
        <time>2019-06-04T10:32:41Z</time>
      </trkpt>
      <trkpt lat="44.2629" lon="5.82224">
        <ele>527</ele>
        <time>2019-06-04T10:32:42Z</time>
      </trkpt>
      <trkpt lat="44.26297" lon="5.8222">
        <ele>527</ele>
        <time>2019-06-04T10:32:43Z</time>
      </trkpt>
      <trkpt lat="44.26304" lon="5.82216">
        <ele>527</ele>
        <time>2019-06-04T10:32:44Z</time>
      </trkpt>
      <trkpt lat="44.26311" lon="5.82211">
        <ele>527</ele>
        <time>2019-06-04T10:32:45Z</time>
      </trkpt>
      <trkpt lat="44.26318" lon="5.82207">
        <ele>527</ele>
        <time>2019-06-04T10:32:46Z</time>
      </trkpt>
      <trkpt lat="44.26325" lon="5.82203">
        <ele>527</ele>
        <time>2019-06-04T10:32:47Z</time>
      </trkpt>
      <trkpt lat="44.26332" lon="5.822">
        <ele>527</ele>
        <time>2019-06-04T10:32:48Z</time>
      </trkpt>
      <trkpt lat="44.26339" lon="5.82196">
        <ele>527</ele>
        <time>2019-06-04T10:32:49Z</time>
      </trkpt>
      <trkpt lat="44.26346" lon="5.82192">
        <ele>527</ele>
        <time>2019-06-04T10:32:50Z</time>
      </trkpt>
      <trkpt lat="44.26353" lon="5.82188">
        <ele>527</ele>
        <time>2019-06-04T10:32:51Z</time>
      </trkpt>
      <trkpt lat="44.26361" lon="5.82185">
        <ele>527</ele>
        <time>2019-06-04T10:32:52Z</time>
      </trkpt>
      <trkpt lat="44.26368" lon="5.82182">
        <ele>527</ele>
        <time>2019-06-04T10:32:53Z</time>
      </trkpt>
      <trkpt lat="44.26376" lon="5.82179">
        <ele>527</ele>
        <time>2019-06-04T10:32:54Z</time>
      </trkpt>
      <trkpt lat="44.26384" lon="5.82175">
        <ele>527</ele>
        <time>2019-06-04T10:32:55Z</time>
      </trkpt>
      <trkpt lat="44.26391" lon="5.82172">
        <ele>527</ele>
        <time>2019-06-04T10:32:56Z</time>
      </trkpt>
      <trkpt lat="44.26399" lon="5.82169">
        <ele>527</ele>
        <time>2019-06-04T10:32:57Z</time>
      </trkpt>
      <trkpt lat="44.26406" lon="5.82167">
        <ele>526</ele>
        <time>2019-06-04T10:32:58Z</time>
      </trkpt>
      <trkpt lat="44.26413" lon="5.82164">
        <ele>526</ele>
        <time>2019-06-04T10:32:59Z</time>
      </trkpt>
      <trkpt lat="44.26421" lon="5.82162">
        <ele>526</ele>
        <time>2019-06-04T10:33:00Z</time>
      </trkpt>
      <trkpt lat="44.26428" lon="5.8216">
        <ele>525</ele>
        <time>2019-06-04T10:33:01Z</time>
      </trkpt>
      <trkpt lat="44.26435" lon="5.82157">
        <ele>525</ele>
        <time>2019-06-04T10:33:02Z</time>
      </trkpt>
      <trkpt lat="44.26442" lon="5.82155">
        <ele>525</ele>
        <time>2019-06-04T10:33:03Z</time>
      </trkpt>
      <trkpt lat="44.26449" lon="5.82153">
        <ele>525</ele>
        <time>2019-06-04T10:33:04Z</time>
      </trkpt>
      <trkpt lat="44.26456" lon="5.82151">
        <ele>525</ele>
        <time>2019-06-04T10:33:05Z</time>
      </trkpt>
      <trkpt lat="44.26463" lon="5.82149">
        <ele>525</ele>
        <time>2019-06-04T10:33:06Z</time>
      </trkpt>
      <trkpt lat="44.26469" lon="5.82147">
        <ele>525</ele>
        <time>2019-06-04T10:33:07Z</time>
      </trkpt>
      <trkpt lat="44.26476" lon="5.82144">
        <ele>525</ele>
        <time>2019-06-04T10:33:08Z</time>
      </trkpt>
      <trkpt lat="44.26482" lon="5.82142">
        <ele>525</ele>
        <time>2019-06-04T10:33:09Z</time>
      </trkpt>
      <trkpt lat="44.26488" lon="5.8214">
        <ele>525</ele>
        <time>2019-06-04T10:33:10Z</time>
      </trkpt>
      <trkpt lat="44.26495" lon="5.82138">
        <ele>525</ele>
        <time>2019-06-04T10:33:11Z</time>
      </trkpt>
      <trkpt lat="44.26501" lon="5.82136">
        <ele>525</ele>
        <time>2019-06-04T10:33:12Z</time>
      </trkpt>
      <trkpt lat="44.26507" lon="5.82134">
        <ele>525</ele>
        <time>2019-06-04T10:33:13Z</time>
      </trkpt>
      <trkpt lat="44.26513" lon="5.82131">
        <ele>525</ele>
        <time>2019-06-04T10:33:14Z</time>
      </trkpt>
      <trkpt lat="44.26519" lon="5.82129">
        <ele>525</ele>
        <time>2019-06-04T10:33:15Z</time>
      </trkpt>
      <trkpt lat="44.26525" lon="5.82127">
        <ele>525</ele>
        <time>2019-06-04T10:33:16Z</time>
      </trkpt>
      <trkpt lat="44.26531" lon="5.82125">
        <ele>525</ele>
        <time>2019-06-04T10:33:17Z</time>
      </trkpt>
      <trkpt lat="44.26537" lon="5.82122">
        <ele>525</ele>
        <time>2019-06-04T10:33:18Z</time>
      </trkpt>
      <trkpt lat="44.26543" lon="5.8212">
        <ele>525</ele>
        <time>2019-06-04T10:33:19Z</time>
      </trkpt>
      <trkpt lat="44.26549" lon="5.82118">
        <ele>525</ele>
        <time>2019-06-04T10:33:20Z</time>
      </trkpt>
      <trkpt lat="44.26555" lon="5.82116">
        <ele>525</ele>
        <time>2019-06-04T10:33:21Z</time>
      </trkpt>
      <trkpt lat="44.26561" lon="5.82114">
        <ele>525</ele>
        <time>2019-06-04T10:33:22Z</time>
      </trkpt>
      <trkpt lat="44.26566" lon="5.82112">
        <ele>525</ele>
        <time>2019-06-04T10:33:23Z</time>
      </trkpt>
      <trkpt lat="44.26572" lon="5.8211">
        <ele>525</ele>
        <time>2019-06-04T10:33:24Z</time>
      </trkpt>
      <trkpt lat="44.26577" lon="5.82107">
        <ele>525</ele>
        <time>2019-06-04T10:33:25Z</time>
      </trkpt>
      <trkpt lat="44.26582" lon="5.82105">
        <ele>525</ele>
        <time>2019-06-04T10:33:26Z</time>
      </trkpt>
      <trkpt lat="44.26588" lon="5.82103">
        <ele>525</ele>
        <time>2019-06-04T10:33:27Z</time>
      </trkpt>
      <trkpt lat="44.26594" lon="5.82101">
        <ele>525</ele>
        <time>2019-06-04T10:33:28Z</time>
      </trkpt>
      <trkpt lat="44.26599" lon="5.82099">
        <ele>525</ele>
        <time>2019-06-04T10:33:29Z</time>
      </trkpt>
      <trkpt lat="44.26605" lon="5.82097">
        <ele>525</ele>
        <time>2019-06-04T10:33:30Z</time>
      </trkpt>
      <trkpt lat="44.26611" lon="5.82095">
        <ele>525</ele>
        <time>2019-06-04T10:33:31Z</time>
      </trkpt>
      <trkpt lat="44.26616" lon="5.82092">
        <ele>525</ele>
        <time>2019-06-04T10:33:32Z</time>
      </trkpt>
      <trkpt lat="44.26622" lon="5.82091">
        <ele>525</ele>
        <time>2019-06-04T10:33:33Z</time>
      </trkpt>
      <trkpt lat="44.26627" lon="5.82089">
        <ele>525</ele>
        <time>2019-06-04T10:33:34Z</time>
      </trkpt>
      <trkpt lat="44.26632" lon="5.82087">
        <ele>525</ele>
        <time>2019-06-04T10:33:35Z</time>
      </trkpt>
      <trkpt lat="44.26637" lon="5.82085">
        <ele>525</ele>
        <time>2019-06-04T10:33:36Z</time>
      </trkpt>
      <trkpt lat="44.26643" lon="5.82083">
        <ele>525</ele>
        <time>2019-06-04T10:33:37Z</time>
      </trkpt>
      <trkpt lat="44.26648" lon="5.82081">
        <ele>525</ele>
        <time>2019-06-04T10:33:38Z</time>
      </trkpt>
      <trkpt lat="44.26654" lon="5.82079">
        <ele>525</ele>
        <time>2019-06-04T10:33:39Z</time>
      </trkpt>
      <trkpt lat="44.26659" lon="5.82077">
        <ele>526</ele>
        <time>2019-06-04T10:33:40Z</time>
      </trkpt>
      <trkpt lat="44.26665" lon="5.82074">
        <ele>526</ele>
        <time>2019-06-04T10:33:41Z</time>
      </trkpt>
      <trkpt lat="44.2667" lon="5.82073">
        <ele>527</ele>
        <time>2019-06-04T10:33:42Z</time>
      </trkpt>
      <trkpt lat="44.26676" lon="5.8207">
        <ele>527</ele>
        <time>2019-06-04T10:33:43Z</time>
      </trkpt>
      <trkpt lat="44.26681" lon="5.82068">
        <ele>527</ele>
        <time>2019-06-04T10:33:44Z</time>
      </trkpt>
      <trkpt lat="44.26687" lon="5.82066">
        <ele>527</ele>
        <time>2019-06-04T10:33:45Z</time>
      </trkpt>
      <trkpt lat="44.26692" lon="5.82063">
        <ele>527</ele>
        <time>2019-06-04T10:33:46Z</time>
      </trkpt>
      <trkpt lat="44.26698" lon="5.82061">
        <ele>527</ele>
        <time>2019-06-04T10:33:47Z</time>
      </trkpt>
      <trkpt lat="44.26704" lon="5.8206">
        <ele>527</ele>
        <time>2019-06-04T10:33:48Z</time>
      </trkpt>
      <trkpt lat="44.26709" lon="5.82058">
        <ele>527</ele>
        <time>2019-06-04T10:33:49Z</time>
      </trkpt>
      <trkpt lat="44.26715" lon="5.82056">
        <ele>527</ele>
        <time>2019-06-04T10:33:50Z</time>
      </trkpt>
      <trkpt lat="44.2672" lon="5.82054">
        <ele>527</ele>
        <time>2019-06-04T10:33:51Z</time>
      </trkpt>
      <trkpt lat="44.26726" lon="5.82052">
        <ele>527</ele>
        <time>2019-06-04T10:33:52Z</time>
      </trkpt>
      <trkpt lat="44.26731" lon="5.8205">
        <ele>527</ele>
        <time>2019-06-04T10:33:53Z</time>
      </trkpt>
      <trkpt lat="44.26736" lon="5.82047">
        <ele>527</ele>
        <time>2019-06-04T10:33:54Z</time>
      </trkpt>
      <trkpt lat="44.26742" lon="5.82045">
        <ele>527</ele>
        <time>2019-06-04T10:33:55Z</time>
      </trkpt>
      <trkpt lat="44.26748" lon="5.82043">
        <ele>527</ele>
        <time>2019-06-04T10:33:56Z</time>
      </trkpt>
      <trkpt lat="44.26753" lon="5.82041">
        <ele>527</ele>
        <time>2019-06-04T10:33:57Z</time>
      </trkpt>
      <trkpt lat="44.26758" lon="5.82038">
        <ele>527</ele>
        <time>2019-06-04T10:33:58Z</time>
      </trkpt>
      <trkpt lat="44.26764" lon="5.82036">
        <ele>527</ele>
        <time>2019-06-04T10:33:59Z</time>
      </trkpt>
      <trkpt lat="44.26769" lon="5.82034">
        <ele>527</ele>
        <time>2019-06-04T10:34:00Z</time>
      </trkpt>
      <trkpt lat="44.26775" lon="5.82032">
        <ele>527</ele>
        <time>2019-06-04T10:34:01Z</time>
      </trkpt>
      <trkpt lat="44.2678" lon="5.8203">
        <ele>527</ele>
        <time>2019-06-04T10:34:02Z</time>
      </trkpt>
      <trkpt lat="44.26786" lon="5.82028">
        <ele>527</ele>
        <time>2019-06-04T10:34:03Z</time>
      </trkpt>
      <trkpt lat="44.26792" lon="5.82026">
        <ele>527</ele>
        <time>2019-06-04T10:34:04Z</time>
      </trkpt>
      <trkpt lat="44.26797" lon="5.82024">
        <ele>527</ele>
        <time>2019-06-04T10:34:05Z</time>
      </trkpt>
      <trkpt lat="44.26803" lon="5.82022">
        <ele>527</ele>
        <time>2019-06-04T10:34:06Z</time>
      </trkpt>
      <trkpt lat="44.26809" lon="5.8202">
        <ele>527</ele>
        <time>2019-06-04T10:34:07Z</time>
      </trkpt>
      <trkpt lat="44.26814" lon="5.82018">
        <ele>527</ele>
        <time>2019-06-04T10:34:08Z</time>
      </trkpt>
      <trkpt lat="44.2682" lon="5.82015">
        <ele>527</ele>
        <time>2019-06-04T10:34:09Z</time>
      </trkpt>
      <trkpt lat="44.26825" lon="5.82013">
        <ele>527</ele>
        <time>2019-06-04T10:34:10Z</time>
      </trkpt>
      <trkpt lat="44.26831" lon="5.82011">
        <ele>527</ele>
        <time>2019-06-04T10:34:11Z</time>
      </trkpt>
      <trkpt lat="44.26836" lon="5.82009">
        <ele>527</ele>
        <time>2019-06-04T10:34:12Z</time>
      </trkpt>
      <trkpt lat="44.26841" lon="5.82008">
        <ele>527</ele>
        <time>2019-06-04T10:34:13Z</time>
      </trkpt>
      <trkpt lat="44.26847" lon="5.82006">
        <ele>527</ele>
        <time>2019-06-04T10:34:14Z</time>
      </trkpt>
      <trkpt lat="44.26852" lon="5.82003">
        <ele>527</ele>
        <time>2019-06-04T10:34:15Z</time>
      </trkpt>
      <trkpt lat="44.26858" lon="5.82001">
        <ele>527</ele>
        <time>2019-06-04T10:34:16Z</time>
      </trkpt>
      <trkpt lat="44.26863" lon="5.81999">
        <ele>527</ele>
        <time>2019-06-04T10:34:17Z</time>
      </trkpt>
      <trkpt lat="44.26869" lon="5.81997">
        <ele>527</ele>
        <time>2019-06-04T10:34:18Z</time>
      </trkpt>
      <trkpt lat="44.26874" lon="5.81995">
        <ele>527</ele>
        <time>2019-06-04T10:34:19Z</time>
      </trkpt>
      <trkpt lat="44.2688" lon="5.81993">
        <ele>527</ele>
        <time>2019-06-04T10:34:20Z</time>
      </trkpt>
      <trkpt lat="44.26886" lon="5.81991">
        <ele>527</ele>
        <time>2019-06-04T10:34:21Z</time>
      </trkpt>
      <trkpt lat="44.26891" lon="5.81988">
        <ele>527</ele>
        <time>2019-06-04T10:34:22Z</time>
      </trkpt>
      <trkpt lat="44.26897" lon="5.81986">
        <ele>527</ele>
        <time>2019-06-04T10:34:23Z</time>
      </trkpt>
      <trkpt lat="44.26902" lon="5.81984">
        <ele>527</ele>
        <time>2019-06-04T10:34:24Z</time>
      </trkpt>
      <trkpt lat="44.26908" lon="5.81981">
        <ele>527</ele>
        <time>2019-06-04T10:34:25Z</time>
      </trkpt>
      <trkpt lat="44.26914" lon="5.81979">
        <ele>527</ele>
        <time>2019-06-04T10:34:26Z</time>
      </trkpt>
      <trkpt lat="44.26919" lon="5.81977">
        <ele>527</ele>
        <time>2019-06-04T10:34:27Z</time>
      </trkpt>
      <trkpt lat="44.26925" lon="5.81974">
        <ele>527</ele>
        <time>2019-06-04T10:34:28Z</time>
      </trkpt>
      <trkpt lat="44.2693" lon="5.81972">
        <ele>527</ele>
        <time>2019-06-04T10:34:29Z</time>
      </trkpt>
      <trkpt lat="44.26936" lon="5.81969">
        <ele>527</ele>
        <time>2019-06-04T10:34:30Z</time>
      </trkpt>
      <trkpt lat="44.26942" lon="5.81967">
        <ele>527</ele>
        <time>2019-06-04T10:34:31Z</time>
      </trkpt>
      <trkpt lat="44.26947" lon="5.81964">
        <ele>527</ele>
        <time>2019-06-04T10:34:32Z</time>
      </trkpt>
      <trkpt lat="44.26953" lon="5.81962">
        <ele>527</ele>
        <time>2019-06-04T10:34:33Z</time>
      </trkpt>
      <trkpt lat="44.26959" lon="5.81959">
        <ele>527</ele>
        <time>2019-06-04T10:34:34Z</time>
      </trkpt>
      <trkpt lat="44.26965" lon="5.81957">
        <ele>527</ele>
        <time>2019-06-04T10:34:35Z</time>
      </trkpt>
      <trkpt lat="44.2697" lon="5.81955">
        <ele>527</ele>
        <time>2019-06-04T10:34:36Z</time>
      </trkpt>
      <trkpt lat="44.26976" lon="5.81952">
        <ele>527</ele>
        <time>2019-06-04T10:34:37Z</time>
      </trkpt>
      <trkpt lat="44.26982" lon="5.8195">
        <ele>527</ele>
        <time>2019-06-04T10:34:38Z</time>
      </trkpt>
      <trkpt lat="44.26987" lon="5.81947">
        <ele>528</ele>
        <time>2019-06-04T10:34:39Z</time>
      </trkpt>
      <trkpt lat="44.26993" lon="5.81945">
        <ele>528</ele>
        <time>2019-06-04T10:34:40Z</time>
      </trkpt>
      <trkpt lat="44.26999" lon="5.81943">
        <ele>528</ele>
        <time>2019-06-04T10:34:41Z</time>
      </trkpt>
      <trkpt lat="44.27005" lon="5.8194">
        <ele>528</ele>
        <time>2019-06-04T10:34:42Z</time>
      </trkpt>
      <trkpt lat="44.2701" lon="5.81938">
        <ele>528</ele>
        <time>2019-06-04T10:34:43Z</time>
      </trkpt>
      <trkpt lat="44.27016" lon="5.81936">
        <ele>528</ele>
        <time>2019-06-04T10:34:44Z</time>
      </trkpt>
      <trkpt lat="44.27022" lon="5.81933">
        <ele>528</ele>
        <time>2019-06-04T10:34:45Z</time>
      </trkpt>
      <trkpt lat="44.27027" lon="5.8193">
        <ele>528</ele>
        <time>2019-06-04T10:34:46Z</time>
      </trkpt>
      <trkpt lat="44.27033" lon="5.81928">
        <ele>528</ele>
        <time>2019-06-04T10:34:47Z</time>
      </trkpt>
      <trkpt lat="44.27039" lon="5.81926">
        <ele>528</ele>
        <time>2019-06-04T10:34:48Z</time>
      </trkpt>
      <trkpt lat="44.27045" lon="5.81923">
        <ele>528</ele>
        <time>2019-06-04T10:34:49Z</time>
      </trkpt>
      <trkpt lat="44.27051" lon="5.81921">
        <ele>529</ele>
        <time>2019-06-04T10:34:50Z</time>
      </trkpt>
      <trkpt lat="44.27057" lon="5.81919">
        <ele>529</ele>
        <time>2019-06-04T10:34:51Z</time>
      </trkpt>
      <trkpt lat="44.27063" lon="5.81916">
        <ele>529</ele>
        <time>2019-06-04T10:34:52Z</time>
      </trkpt>
      <trkpt lat="44.27069" lon="5.81914">
        <ele>529</ele>
        <time>2019-06-04T10:34:53Z</time>
      </trkpt>
      <trkpt lat="44.27075" lon="5.81912">
        <ele>529</ele>
        <time>2019-06-04T10:34:54Z</time>
      </trkpt>
      <trkpt lat="44.27081" lon="5.81909">
        <ele>529</ele>
        <time>2019-06-04T10:34:55Z</time>
      </trkpt>
      <trkpt lat="44.27087" lon="5.81907">
        <ele>529</ele>
        <time>2019-06-04T10:34:56Z</time>
      </trkpt>
      <trkpt lat="44.27094" lon="5.81905">
        <ele>529</ele>
        <time>2019-06-04T10:34:57Z</time>
      </trkpt>
      <trkpt lat="44.271" lon="5.81902">
        <ele>529</ele>
        <time>2019-06-04T10:34:58Z</time>
      </trkpt>
      <trkpt lat="44.27105" lon="5.81899">
        <ele>529</ele>
        <time>2019-06-04T10:34:59Z</time>
      </trkpt>
      <trkpt lat="44.27111" lon="5.81897">
        <ele>529</ele>
        <time>2019-06-04T10:35:00Z</time>
      </trkpt>
      <trkpt lat="44.27118" lon="5.81894">
        <ele>529</ele>
        <time>2019-06-04T10:35:01Z</time>
      </trkpt>
      <trkpt lat="44.27124" lon="5.81892">
        <ele>529</ele>
        <time>2019-06-04T10:35:02Z</time>
      </trkpt>
      <trkpt lat="44.2713" lon="5.81889">
        <ele>529</ele>
        <time>2019-06-04T10:35:03Z</time>
      </trkpt>
      <trkpt lat="44.27136" lon="5.81887">
        <ele>530</ele>
        <time>2019-06-04T10:35:04Z</time>
      </trkpt>
      <trkpt lat="44.27142" lon="5.81884">
        <ele>530</ele>
        <time>2019-06-04T10:35:05Z</time>
      </trkpt>
      <trkpt lat="44.27148" lon="5.81882">
        <ele>530</ele>
        <time>2019-06-04T10:35:06Z</time>
      </trkpt>
      <trkpt lat="44.27155" lon="5.8188">
        <ele>530</ele>
        <time>2019-06-04T10:35:07Z</time>
      </trkpt>
      <trkpt lat="44.27161" lon="5.81877">
        <ele>530</ele>
        <time>2019-06-04T10:35:08Z</time>
      </trkpt>
      <trkpt lat="44.27167" lon="5.81875">
        <ele>531</ele>
        <time>2019-06-04T10:35:09Z</time>
      </trkpt>
      <trkpt lat="44.27173" lon="5.81873">
        <ele>531</ele>
        <time>2019-06-04T10:35:10Z</time>
      </trkpt>
      <trkpt lat="44.27179" lon="5.8187">
        <ele>531</ele>
        <time>2019-06-04T10:35:11Z</time>
      </trkpt>
      <trkpt lat="44.27186" lon="5.81867">
        <ele>531</ele>
        <time>2019-06-04T10:35:12Z</time>
      </trkpt>
      <trkpt lat="44.27192" lon="5.81865">
        <ele>531</ele>
        <time>2019-06-04T10:35:13Z</time>
      </trkpt>
      <trkpt lat="44.27198" lon="5.81862">
        <ele>531</ele>
        <time>2019-06-04T10:35:14Z</time>
      </trkpt>
      <trkpt lat="44.27204" lon="5.8186">
        <ele>532</ele>
        <time>2019-06-04T10:35:15Z</time>
      </trkpt>
      <trkpt lat="44.27211" lon="5.81858">
        <ele>532</ele>
        <time>2019-06-04T10:35:16Z</time>
      </trkpt>
      <trkpt lat="44.27217" lon="5.81855">
        <ele>532</ele>
        <time>2019-06-04T10:35:17Z</time>
      </trkpt>
      <trkpt lat="44.27223" lon="5.81853">
        <ele>532</ele>
        <time>2019-06-04T10:35:18Z</time>
      </trkpt>
      <trkpt lat="44.27229" lon="5.8185">
        <ele>532</ele>
        <time>2019-06-04T10:35:19Z</time>
      </trkpt>
      <trkpt lat="44.27236" lon="5.81848">
        <ele>532</ele>
        <time>2019-06-04T10:35:20Z</time>
      </trkpt>
      <trkpt lat="44.27242" lon="5.81845">
        <ele>532</ele>
        <time>2019-06-04T10:35:21Z</time>
      </trkpt>
      <trkpt lat="44.27249" lon="5.81842">
        <ele>532</ele>
        <time>2019-06-04T10:35:22Z</time>
      </trkpt>
      <trkpt lat="44.27256" lon="5.8184">
        <ele>532</ele>
        <time>2019-06-04T10:35:23Z</time>
      </trkpt>
      <trkpt lat="44.27262" lon="5.81837">
        <ele>532</ele>
        <time>2019-06-04T10:35:24Z</time>
      </trkpt>
      <trkpt lat="44.27269" lon="5.81835">
        <ele>532</ele>
        <time>2019-06-04T10:35:25Z</time>
      </trkpt>
      <trkpt lat="44.27275" lon="5.81832">
        <ele>532</ele>
        <time>2019-06-04T10:35:26Z</time>
      </trkpt>
      <trkpt lat="44.27282" lon="5.8183">
        <ele>532</ele>
        <time>2019-06-04T10:35:27Z</time>
      </trkpt>
      <trkpt lat="44.27288" lon="5.81827">
        <ele>532</ele>
        <time>2019-06-04T10:35:28Z</time>
      </trkpt>
      <trkpt lat="44.27294" lon="5.81825">
        <ele>532</ele>
        <time>2019-06-04T10:35:29Z</time>
      </trkpt>
      <trkpt lat="44.273" lon="5.81822">
        <ele>532</ele>
        <time>2019-06-04T10:35:30Z</time>
      </trkpt>
      <trkpt lat="44.27306" lon="5.8182">
        <ele>532</ele>
        <time>2019-06-04T10:35:31Z</time>
      </trkpt>
      <trkpt lat="44.27313" lon="5.81818">
        <ele>532</ele>
        <time>2019-06-04T10:35:32Z</time>
      </trkpt>
      <trkpt lat="44.27319" lon="5.81815">
        <ele>532</ele>
        <time>2019-06-04T10:35:33Z</time>
      </trkpt>
      <trkpt lat="44.27325" lon="5.81812">
        <ele>532</ele>
        <time>2019-06-04T10:35:34Z</time>
      </trkpt>
      <trkpt lat="44.27331" lon="5.8181">
        <ele>532</ele>
        <time>2019-06-04T10:35:35Z</time>
      </trkpt>
      <trkpt lat="44.27338" lon="5.81808">
        <ele>532</ele>
        <time>2019-06-04T10:35:36Z</time>
      </trkpt>
      <trkpt lat="44.27344" lon="5.81805">
        <ele>532</ele>
        <time>2019-06-04T10:35:37Z</time>
      </trkpt>
      <trkpt lat="44.2735" lon="5.81803">
        <ele>532</ele>
        <time>2019-06-04T10:35:38Z</time>
      </trkpt>
      <trkpt lat="44.27356" lon="5.81801">
        <ele>532</ele>
        <time>2019-06-04T10:35:39Z</time>
      </trkpt>
      <trkpt lat="44.27362" lon="5.81798">
        <ele>532</ele>
        <time>2019-06-04T10:35:40Z</time>
      </trkpt>
      <trkpt lat="44.27369" lon="5.81796">
        <ele>532</ele>
        <time>2019-06-04T10:35:41Z</time>
      </trkpt>
      <trkpt lat="44.27375" lon="5.81793">
        <ele>532</ele>
        <time>2019-06-04T10:35:42Z</time>
      </trkpt>
      <trkpt lat="44.27381" lon="5.81791">
        <ele>532</ele>
        <time>2019-06-04T10:35:43Z</time>
      </trkpt>
      <trkpt lat="44.27387" lon="5.81788">
        <ele>532</ele>
        <time>2019-06-04T10:35:44Z</time>
      </trkpt>
      <trkpt lat="44.27393" lon="5.81786">
        <ele>532</ele>
        <time>2019-06-04T10:35:45Z</time>
      </trkpt>
      <trkpt lat="44.27399" lon="5.81783">
        <ele>532</ele>
        <time>2019-06-04T10:35:46Z</time>
      </trkpt>
      <trkpt lat="44.27406" lon="5.81781">
        <ele>532</ele>
        <time>2019-06-04T10:35:47Z</time>
      </trkpt>
      <trkpt lat="44.27412" lon="5.81779">
        <ele>532</ele>
        <time>2019-06-04T10:35:48Z</time>
      </trkpt>
      <trkpt lat="44.27418" lon="5.81776">
        <ele>532</ele>
        <time>2019-06-04T10:35:49Z</time>
      </trkpt>
      <trkpt lat="44.27424" lon="5.81774">
        <ele>532</ele>
        <time>2019-06-04T10:35:50Z</time>
      </trkpt>
      <trkpt lat="44.2743" lon="5.81772">
        <ele>532</ele>
        <time>2019-06-04T10:35:51Z</time>
      </trkpt>
      <trkpt lat="44.27437" lon="5.81769">
        <ele>532</ele>
        <time>2019-06-04T10:35:52Z</time>
      </trkpt>
      <trkpt lat="44.27443" lon="5.81767">
        <ele>532</ele>
        <time>2019-06-04T10:35:53Z</time>
      </trkpt>
      <trkpt lat="44.27449" lon="5.81764">
        <ele>532</ele>
        <time>2019-06-04T10:35:54Z</time>
      </trkpt>
      <trkpt lat="44.27455" lon="5.81762">
        <ele>532</ele>
        <time>2019-06-04T10:35:55Z</time>
      </trkpt>
      <trkpt lat="44.27461" lon="5.8176">
        <ele>532</ele>
        <time>2019-06-04T10:35:56Z</time>
      </trkpt>
      <trkpt lat="44.27467" lon="5.81757">
        <ele>532</ele>
        <time>2019-06-04T10:35:57Z</time>
      </trkpt>
      <trkpt lat="44.27473" lon="5.81755">
        <ele>533</ele>
        <time>2019-06-04T10:35:58Z</time>
      </trkpt>
      <trkpt lat="44.2748" lon="5.81753">
        <ele>533</ele>
        <time>2019-06-04T10:35:59Z</time>
      </trkpt>
      <trkpt lat="44.27486" lon="5.8175">
        <ele>533</ele>
        <time>2019-06-04T10:36:00Z</time>
      </trkpt>
      <trkpt lat="44.27492" lon="5.81748">
        <ele>533</ele>
        <time>2019-06-04T10:36:01Z</time>
      </trkpt>
      <trkpt lat="44.27498" lon="5.81745">
        <ele>533</ele>
        <time>2019-06-04T10:36:02Z</time>
      </trkpt>
      <trkpt lat="44.27504" lon="5.81743">
        <ele>533</ele>
        <time>2019-06-04T10:36:03Z</time>
      </trkpt>
      <trkpt lat="44.2751" lon="5.8174">
        <ele>533</ele>
        <time>2019-06-04T10:36:04Z</time>
      </trkpt>
      <trkpt lat="44.27516" lon="5.81738">
        <ele>533</ele>
        <time>2019-06-04T10:36:05Z</time>
      </trkpt>
      <trkpt lat="44.27522" lon="5.81736">
        <ele>533</ele>
        <time>2019-06-04T10:36:06Z</time>
      </trkpt>
      <trkpt lat="44.27528" lon="5.81734">
        <ele>533</ele>
        <time>2019-06-04T10:36:07Z</time>
      </trkpt>
      <trkpt lat="44.27534" lon="5.81731">
        <ele>533</ele>
        <time>2019-06-04T10:36:08Z</time>
      </trkpt>
      <trkpt lat="44.2754" lon="5.81729">
        <ele>534</ele>
        <time>2019-06-04T10:36:09Z</time>
      </trkpt>
      <trkpt lat="44.27546" lon="5.81727">
        <ele>534</ele>
        <time>2019-06-04T10:36:10Z</time>
      </trkpt>
      <trkpt lat="44.27552" lon="5.81725">
        <ele>534</ele>
        <time>2019-06-04T10:36:11Z</time>
      </trkpt>
      <trkpt lat="44.27558" lon="5.81722">
        <ele>534</ele>
        <time>2019-06-04T10:36:12Z</time>
      </trkpt>
      <trkpt lat="44.27564" lon="5.8172">
        <ele>534</ele>
        <time>2019-06-04T10:36:13Z</time>
      </trkpt>
      <trkpt lat="44.2757" lon="5.81718">
        <ele>534</ele>
        <time>2019-06-04T10:36:14Z</time>
      </trkpt>
      <trkpt lat="44.27576" lon="5.81715">
        <ele>534</ele>
        <time>2019-06-04T10:36:15Z</time>
      </trkpt>
      <trkpt lat="44.27581" lon="5.81713">
        <ele>534</ele>
        <time>2019-06-04T10:36:16Z</time>
      </trkpt>
      <trkpt lat="44.27587" lon="5.8171">
        <ele>534</ele>
        <time>2019-06-04T10:36:17Z</time>
      </trkpt>
      <trkpt lat="44.27593" lon="5.81708">
        <ele>534</ele>
        <time>2019-06-04T10:36:18Z</time>
      </trkpt>
      <trkpt lat="44.27599" lon="5.81705">
        <ele>534</ele>
        <time>2019-06-04T10:36:19Z</time>
      </trkpt>
      <trkpt lat="44.27605" lon="5.81703">
        <ele>535</ele>
        <time>2019-06-04T10:36:20Z</time>
      </trkpt>
      <trkpt lat="44.27611" lon="5.817">
        <ele>535</ele>
        <time>2019-06-04T10:36:21Z</time>
      </trkpt>
      <trkpt lat="44.27617" lon="5.81698">
        <ele>535</ele>
        <time>2019-06-04T10:36:22Z</time>
      </trkpt>
      <trkpt lat="44.27623" lon="5.81695">
        <ele>535</ele>
        <time>2019-06-04T10:36:23Z</time>
      </trkpt>
      <trkpt lat="44.2763" lon="5.81693">
        <ele>535</ele>
        <time>2019-06-04T10:36:24Z</time>
      </trkpt>
      <trkpt lat="44.27636" lon="5.81691">
        <ele>535</ele>
        <time>2019-06-04T10:36:25Z</time>
      </trkpt>
      <trkpt lat="44.27642" lon="5.81688">
        <ele>535</ele>
        <time>2019-06-04T10:36:26Z</time>
      </trkpt>
      <trkpt lat="44.27649" lon="5.81686">
        <ele>535</ele>
        <time>2019-06-04T10:36:27Z</time>
      </trkpt>
      <trkpt lat="44.27655" lon="5.81684">
        <ele>535</ele>
        <time>2019-06-04T10:36:28Z</time>
      </trkpt>
      <trkpt lat="44.27662" lon="5.81682">
        <ele>535</ele>
        <time>2019-06-04T10:36:29Z</time>
      </trkpt>
      <trkpt lat="44.27668" lon="5.81681">
        <ele>535</ele>
        <time>2019-06-04T10:36:30Z</time>
      </trkpt>
      <trkpt lat="44.27674" lon="5.8168">
        <ele>535</ele>
        <time>2019-06-04T10:36:31Z</time>
      </trkpt>
      <trkpt lat="44.27681" lon="5.81681">
        <ele>535</ele>
        <time>2019-06-04T10:36:32Z</time>
      </trkpt>
      <trkpt lat="44.27687" lon="5.81681">
        <ele>535</ele>
        <time>2019-06-04T10:36:33Z</time>
      </trkpt>
      <trkpt lat="44.27693" lon="5.81682">
        <ele>535</ele>
        <time>2019-06-04T10:36:34Z</time>
      </trkpt>
      <trkpt lat="44.27699" lon="5.81683">
        <ele>535</ele>
        <time>2019-06-04T10:36:35Z</time>
      </trkpt>
      <trkpt lat="44.27705" lon="5.81684">
        <ele>535</ele>
        <time>2019-06-04T10:36:36Z</time>
      </trkpt>
      <trkpt lat="44.27711" lon="5.81686">
        <ele>535</ele>
        <time>2019-06-04T10:36:37Z</time>
      </trkpt>
      <trkpt lat="44.27716" lon="5.81689">
        <ele>535</ele>
        <time>2019-06-04T10:36:38Z</time>
      </trkpt>
      <trkpt lat="44.27722" lon="5.81692">
        <ele>535</ele>
        <time>2019-06-04T10:36:39Z</time>
      </trkpt>
      <trkpt lat="44.27727" lon="5.81695">
        <ele>535</ele>
        <time>2019-06-04T10:36:40Z</time>
      </trkpt>
      <trkpt lat="44.27733" lon="5.81698">
        <ele>535</ele>
        <time>2019-06-04T10:36:41Z</time>
      </trkpt>
      <trkpt lat="44.27738" lon="5.81701">
        <ele>535</ele>
        <time>2019-06-04T10:36:42Z</time>
      </trkpt>
      <trkpt lat="44.27744" lon="5.81705">
        <ele>536</ele>
        <time>2019-06-04T10:36:43Z</time>
      </trkpt>
      <trkpt lat="44.27749" lon="5.81709">
        <ele>536</ele>
        <time>2019-06-04T10:36:44Z</time>
      </trkpt>
      <trkpt lat="44.27754" lon="5.81712">
        <ele>536</ele>
        <time>2019-06-04T10:36:45Z</time>
      </trkpt>
      <trkpt lat="44.2776" lon="5.81716">
        <ele>536</ele>
        <time>2019-06-04T10:36:46Z</time>
      </trkpt>
      <trkpt lat="44.27765" lon="5.8172">
        <ele>536</ele>
        <time>2019-06-04T10:36:47Z</time>
      </trkpt>
      <trkpt lat="44.2777" lon="5.81723">
        <ele>536</ele>
        <time>2019-06-04T10:36:48Z</time>
      </trkpt>
      <trkpt lat="44.27775" lon="5.81727">
        <ele>536</ele>
        <time>2019-06-04T10:36:49Z</time>
      </trkpt>
      <trkpt lat="44.27781" lon="5.8173">
        <ele>536</ele>
        <time>2019-06-04T10:36:50Z</time>
      </trkpt>
      <trkpt lat="44.27786" lon="5.81734">
        <ele>536</ele>
        <time>2019-06-04T10:36:51Z</time>
      </trkpt>
      <trkpt lat="44.27791" lon="5.81738">
        <ele>536</ele>
        <time>2019-06-04T10:36:52Z</time>
      </trkpt>
      <trkpt lat="44.27797" lon="5.81741">
        <ele>536</ele>
        <time>2019-06-04T10:36:53Z</time>
      </trkpt>
      <trkpt lat="44.27802" lon="5.81745">
        <ele>536</ele>
        <time>2019-06-04T10:36:54Z</time>
      </trkpt>
      <trkpt lat="44.27807" lon="5.81749">
        <ele>536</ele>
        <time>2019-06-04T10:36:55Z</time>
      </trkpt>
      <trkpt lat="44.27812" lon="5.81752">
        <ele>536</ele>
        <time>2019-06-04T10:36:56Z</time>
      </trkpt>
      <trkpt lat="44.27818" lon="5.81756">
        <ele>536</ele>
        <time>2019-06-04T10:36:57Z</time>
      </trkpt>
      <trkpt lat="44.27823" lon="5.8176">
        <ele>536</ele>
        <time>2019-06-04T10:36:58Z</time>
      </trkpt>
      <trkpt lat="44.27828" lon="5.81763">
        <ele>536</ele>
        <time>2019-06-04T10:36:59Z</time>
      </trkpt>
      <trkpt lat="44.27833" lon="5.81766">
        <ele>537</ele>
        <time>2019-06-04T10:37:00Z</time>
      </trkpt>
      <trkpt lat="44.27839" lon="5.8177">
        <ele>537</ele>
        <time>2019-06-04T10:37:01Z</time>
      </trkpt>
      <trkpt lat="44.27843" lon="5.81773">
        <ele>537</ele>
        <time>2019-06-04T10:37:02Z</time>
      </trkpt>
      <trkpt lat="44.27849" lon="5.81776">
        <ele>537</ele>
        <time>2019-06-04T10:37:03Z</time>
      </trkpt>
      <trkpt lat="44.27855" lon="5.8178">
        <ele>537</ele>
        <time>2019-06-04T10:37:04Z</time>
      </trkpt>
      <trkpt lat="44.2786" lon="5.81783">
        <ele>537</ele>
        <time>2019-06-04T10:37:05Z</time>
      </trkpt>
      <trkpt lat="44.27865" lon="5.81787">
        <ele>537</ele>
        <time>2019-06-04T10:37:06Z</time>
      </trkpt>
      <trkpt lat="44.27871" lon="5.8179">
        <ele>537</ele>
        <time>2019-06-04T10:37:07Z</time>
      </trkpt>
      <trkpt lat="44.27876" lon="5.81794">
        <ele>537</ele>
        <time>2019-06-04T10:37:08Z</time>
      </trkpt>
      <trkpt lat="44.27882" lon="5.81797">
        <ele>537</ele>
        <time>2019-06-04T10:37:09Z</time>
      </trkpt>
      <trkpt lat="44.27887" lon="5.81801">
        <ele>538</ele>
        <time>2019-06-04T10:37:10Z</time>
      </trkpt>
      <trkpt lat="44.27893" lon="5.81805">
        <ele>538</ele>
        <time>2019-06-04T10:37:11Z</time>
      </trkpt>
      <trkpt lat="44.27898" lon="5.81808">
        <ele>538</ele>
        <time>2019-06-04T10:37:12Z</time>
      </trkpt>
      <trkpt lat="44.27904" lon="5.81812">
        <ele>538</ele>
        <time>2019-06-04T10:37:13Z</time>
      </trkpt>
      <trkpt lat="44.2791" lon="5.81816">
        <ele>538</ele>
        <time>2019-06-04T10:37:14Z</time>
      </trkpt>
      <trkpt lat="44.27915" lon="5.81819">
        <ele>538</ele>
        <time>2019-06-04T10:37:15Z</time>
      </trkpt>
      <trkpt lat="44.27921" lon="5.81822">
        <ele>538</ele>
        <time>2019-06-04T10:37:16Z</time>
      </trkpt>
      <trkpt lat="44.27927" lon="5.81826">
        <ele>539</ele>
        <time>2019-06-04T10:37:17Z</time>
      </trkpt>
      <trkpt lat="44.27932" lon="5.81829">
        <ele>539</ele>
        <time>2019-06-04T10:37:18Z</time>
      </trkpt>
      <trkpt lat="44.27938" lon="5.81833">
        <ele>539</ele>
        <time>2019-06-04T10:37:19Z</time>
      </trkpt>
      <trkpt lat="44.27943" lon="5.81837">
        <ele>539</ele>
        <time>2019-06-04T10:37:20Z</time>
      </trkpt>
      <trkpt lat="44.27949" lon="5.81841">
        <ele>539</ele>
        <time>2019-06-04T10:37:21Z</time>
      </trkpt>
      <trkpt lat="44.27955" lon="5.81844">
        <ele>539</ele>
        <time>2019-06-04T10:37:22Z</time>
      </trkpt>
      <trkpt lat="44.27961" lon="5.81848">
        <ele>539</ele>
        <time>2019-06-04T10:37:23Z</time>
      </trkpt>
      <trkpt lat="44.27967" lon="5.81852">
        <ele>539</ele>
        <time>2019-06-04T10:37:24Z</time>
      </trkpt>
      <trkpt lat="44.27972" lon="5.81855">
        <ele>539</ele>
        <time>2019-06-04T10:37:25Z</time>
      </trkpt>
      <trkpt lat="44.27978" lon="5.81859">
        <ele>539</ele>
        <time>2019-06-04T10:37:26Z</time>
      </trkpt>
      <trkpt lat="44.27984" lon="5.81863">
        <ele>539</ele>
        <time>2019-06-04T10:37:27Z</time>
      </trkpt>
      <trkpt lat="44.2799" lon="5.81866">
        <ele>539</ele>
        <time>2019-06-04T10:37:28Z</time>
      </trkpt>
      <trkpt lat="44.27996" lon="5.8187">
        <ele>539</ele>
        <time>2019-06-04T10:37:29Z</time>
      </trkpt>
      <trkpt lat="44.28002" lon="5.81874">
        <ele>539</ele>
        <time>2019-06-04T10:37:30Z</time>
      </trkpt>
      <trkpt lat="44.28008" lon="5.81878">
        <ele>539</ele>
        <time>2019-06-04T10:37:31Z</time>
      </trkpt>
      <trkpt lat="44.28014" lon="5.81882">
        <ele>539</ele>
        <time>2019-06-04T10:37:32Z</time>
      </trkpt>
      <trkpt lat="44.2802" lon="5.81886">
        <ele>539</ele>
        <time>2019-06-04T10:37:33Z</time>
      </trkpt>
      <trkpt lat="44.28027" lon="5.81889">
        <ele>539</ele>
        <time>2019-06-04T10:37:34Z</time>
      </trkpt>
      <trkpt lat="44.28033" lon="5.81893">
        <ele>539</ele>
        <time>2019-06-04T10:37:35Z</time>
      </trkpt>
      <trkpt lat="44.28039" lon="5.81897">
        <ele>540</ele>
        <time>2019-06-04T10:37:36Z</time>
      </trkpt>
      <trkpt lat="44.28045" lon="5.81901">
        <ele>540</ele>
        <time>2019-06-04T10:37:37Z</time>
      </trkpt>
      <trkpt lat="44.28051" lon="5.81905">
        <ele>540</ele>
        <time>2019-06-04T10:37:38Z</time>
      </trkpt>
      <trkpt lat="44.28057" lon="5.81909">
        <ele>540</ele>
        <time>2019-06-04T10:37:39Z</time>
      </trkpt>
      <trkpt lat="44.28064" lon="5.81913">
        <ele>540</ele>
        <time>2019-06-04T10:37:40Z</time>
      </trkpt>
      <trkpt lat="44.2807" lon="5.81917">
        <ele>540</ele>
        <time>2019-06-04T10:37:41Z</time>
      </trkpt>
      <trkpt lat="44.28076" lon="5.81921">
        <ele>540</ele>
        <time>2019-06-04T10:37:42Z</time>
      </trkpt>
      <trkpt lat="44.28082" lon="5.81924">
        <ele>540</ele>
        <time>2019-06-04T10:37:43Z</time>
      </trkpt>
      <trkpt lat="44.28088" lon="5.81928">
        <ele>540</ele>
        <time>2019-06-04T10:37:44Z</time>
      </trkpt>
      <trkpt lat="44.28093" lon="5.81932">
        <ele>540</ele>
        <time>2019-06-04T10:37:45Z</time>
      </trkpt>
      <trkpt lat="44.28099" lon="5.81936">
        <ele>540</ele>
        <time>2019-06-04T10:37:46Z</time>
      </trkpt>
      <trkpt lat="44.28105" lon="5.8194">
        <ele>540</ele>
        <time>2019-06-04T10:37:47Z</time>
      </trkpt>
      <trkpt lat="44.28111" lon="5.81943">
        <ele>540</ele>
        <time>2019-06-04T10:37:48Z</time>
      </trkpt>
      <trkpt lat="44.28116" lon="5.81947">
        <ele>540</ele>
        <time>2019-06-04T10:37:49Z</time>
      </trkpt>
      <trkpt lat="44.28122" lon="5.81951">
        <ele>540</ele>
        <time>2019-06-04T10:37:50Z</time>
      </trkpt>
      <trkpt lat="44.28127" lon="5.81954">
        <ele>540</ele>
        <time>2019-06-04T10:37:51Z</time>
      </trkpt>
      <trkpt lat="44.28133" lon="5.81958">
        <ele>540</ele>
        <time>2019-06-04T10:37:52Z</time>
      </trkpt>
      <trkpt lat="44.28138" lon="5.81962">
        <ele>540</ele>
        <time>2019-06-04T10:37:53Z</time>
      </trkpt>
      <trkpt lat="44.28144" lon="5.81965">
        <ele>540</ele>
        <time>2019-06-04T10:37:54Z</time>
      </trkpt>
      <trkpt lat="44.28149" lon="5.81969">
        <ele>540</ele>
        <time>2019-06-04T10:37:55Z</time>
      </trkpt>
      <trkpt lat="44.28154" lon="5.81972">
        <ele>540</ele>
        <time>2019-06-04T10:37:56Z</time>
      </trkpt>
      <trkpt lat="44.2816" lon="5.81976">
        <ele>540</ele>
        <time>2019-06-04T10:37:57Z</time>
      </trkpt>
      <trkpt lat="44.28166" lon="5.81979">
        <ele>540</ele>
        <time>2019-06-04T10:37:58Z</time>
      </trkpt>
      <trkpt lat="44.28172" lon="5.81983">
        <ele>540</ele>
        <time>2019-06-04T10:37:59Z</time>
      </trkpt>
      <trkpt lat="44.28178" lon="5.81987">
        <ele>541</ele>
        <time>2019-06-04T10:38:00Z</time>
      </trkpt>
      <trkpt lat="44.28184" lon="5.8199">
        <ele>541</ele>
        <time>2019-06-04T10:38:01Z</time>
      </trkpt>
      <trkpt lat="44.2819" lon="5.81994">
        <ele>541</ele>
        <time>2019-06-04T10:38:02Z</time>
      </trkpt>
      <trkpt lat="44.28196" lon="5.81997">
        <ele>541</ele>
        <time>2019-06-04T10:38:03Z</time>
      </trkpt>
      <trkpt lat="44.28202" lon="5.82001">
        <ele>541</ele>
        <time>2019-06-04T10:38:04Z</time>
      </trkpt>
      <trkpt lat="44.28209" lon="5.82004">
        <ele>541</ele>
        <time>2019-06-04T10:38:05Z</time>
      </trkpt>
      <trkpt lat="44.28215" lon="5.82007">
        <ele>541</ele>
        <time>2019-06-04T10:38:06Z</time>
      </trkpt>
      <trkpt lat="44.2822" lon="5.82011">
        <ele>541</ele>
        <time>2019-06-04T10:38:07Z</time>
      </trkpt>
      <trkpt lat="44.28227" lon="5.82013">
        <ele>542</ele>
        <time>2019-06-04T10:38:08Z</time>
      </trkpt>
      <trkpt lat="44.28233" lon="5.82016">
        <ele>542</ele>
        <time>2019-06-04T10:38:09Z</time>
      </trkpt>
      <trkpt lat="44.28239" lon="5.82019">
        <ele>542</ele>
        <time>2019-06-04T10:38:10Z</time>
      </trkpt>
      <trkpt lat="44.28245" lon="5.82021">
        <ele>542</ele>
        <time>2019-06-04T10:38:11Z</time>
      </trkpt>
      <trkpt lat="44.28251" lon="5.82022">
        <ele>543</ele>
        <time>2019-06-04T10:38:12Z</time>
      </trkpt>
      <trkpt lat="44.28257" lon="5.82023">
        <ele>543</ele>
        <time>2019-06-04T10:38:13Z</time>
      </trkpt>
      <trkpt lat="44.28263" lon="5.82024">
        <ele>543</ele>
        <time>2019-06-04T10:38:14Z</time>
      </trkpt>
      <trkpt lat="44.2827" lon="5.82025">
        <ele>543</ele>
        <time>2019-06-04T10:38:15Z</time>
      </trkpt>
      <trkpt lat="44.28276" lon="5.82025">
        <ele>543</ele>
        <time>2019-06-04T10:38:16Z</time>
      </trkpt>
      <trkpt lat="44.28282" lon="5.82025">
        <ele>543</ele>
        <time>2019-06-04T10:38:17Z</time>
      </trkpt>
      <trkpt lat="44.28288" lon="5.82025">
        <ele>543</ele>
        <time>2019-06-04T10:38:18Z</time>
      </trkpt>
      <trkpt lat="44.28294" lon="5.82025">
        <ele>544</ele>
        <time>2019-06-04T10:38:19Z</time>
      </trkpt>
      <trkpt lat="44.28299" lon="5.82025">
        <ele>544</ele>
        <time>2019-06-04T10:38:20Z</time>
      </trkpt>
      <trkpt lat="44.28306" lon="5.82024">
        <ele>544</ele>
        <time>2019-06-04T10:38:21Z</time>
      </trkpt>
      <trkpt lat="44.28313" lon="5.82024">
        <ele>545</ele>
        <time>2019-06-04T10:38:22Z</time>
      </trkpt>
      <trkpt lat="44.28319" lon="5.82024">
        <ele>545</ele>
        <time>2019-06-04T10:38:23Z</time>
      </trkpt>
      <trkpt lat="44.28326" lon="5.82024">
        <ele>545</ele>
        <time>2019-06-04T10:38:24Z</time>
      </trkpt>
      <trkpt lat="44.28332" lon="5.82024">
        <ele>546</ele>
        <time>2019-06-04T10:38:25Z</time>
      </trkpt>
      <trkpt lat="44.28339" lon="5.82024">
        <ele>546</ele>
        <time>2019-06-04T10:38:26Z</time>
      </trkpt>
      <trkpt lat="44.28345" lon="5.82024">
        <ele>546</ele>
        <time>2019-06-04T10:38:27Z</time>
      </trkpt>
      <trkpt lat="44.28351" lon="5.82024">
        <ele>546</ele>
        <time>2019-06-04T10:38:28Z</time>
      </trkpt>
      <trkpt lat="44.28357" lon="5.82024">
        <ele>547</ele>
        <time>2019-06-04T10:38:29Z</time>
      </trkpt>
      <trkpt lat="44.28364" lon="5.82024">
        <ele>547</ele>
        <time>2019-06-04T10:38:30Z</time>
      </trkpt>
      <trkpt lat="44.28371" lon="5.82024">
        <ele>547</ele>
        <time>2019-06-04T10:38:31Z</time>
      </trkpt>
      <trkpt lat="44.28378" lon="5.82024">
        <ele>548</ele>
        <time>2019-06-04T10:38:32Z</time>
      </trkpt>
      <trkpt lat="44.28384" lon="5.82025">
        <ele>548</ele>
        <time>2019-06-04T10:38:33Z</time>
      </trkpt>
      <trkpt lat="44.28391" lon="5.82026">
        <ele>548</ele>
        <time>2019-06-04T10:38:34Z</time>
      </trkpt>
      <trkpt lat="44.28397" lon="5.82027">
        <ele>548</ele>
        <time>2019-06-04T10:38:35Z</time>
      </trkpt>
      <trkpt lat="44.28404" lon="5.82028">
        <ele>548</ele>
        <time>2019-06-04T10:38:36Z</time>
      </trkpt>
      <trkpt lat="44.2841" lon="5.8203">
        <ele>548</ele>
        <time>2019-06-04T10:38:37Z</time>
      </trkpt>
      <trkpt lat="44.28417" lon="5.82031">
        <ele>548</ele>
        <time>2019-06-04T10:38:38Z</time>
      </trkpt>
      <trkpt lat="44.28423" lon="5.82033">
        <ele>548</ele>
        <time>2019-06-04T10:38:39Z</time>
      </trkpt>
      <trkpt lat="44.28429" lon="5.82035">
        <ele>548</ele>
        <time>2019-06-04T10:38:40Z</time>
      </trkpt>
      <trkpt lat="44.28436" lon="5.82036">
        <ele>548</ele>
        <time>2019-06-04T10:38:41Z</time>
      </trkpt>
      <trkpt lat="44.28442" lon="5.82038">
        <ele>548</ele>
        <time>2019-06-04T10:38:42Z</time>
      </trkpt>
      <trkpt lat="44.28448" lon="5.82041">
        <ele>548</ele>
        <time>2019-06-04T10:38:43Z</time>
      </trkpt>
      <trkpt lat="44.28454" lon="5.82043">
        <ele>548</ele>
        <time>2019-06-04T10:38:44Z</time>
      </trkpt>
      <trkpt lat="44.2846" lon="5.82045">
        <ele>548</ele>
        <time>2019-06-04T10:38:45Z</time>
      </trkpt>
      <trkpt lat="44.28466" lon="5.82048">
        <ele>548</ele>
        <time>2019-06-04T10:38:46Z</time>
      </trkpt>
      <trkpt lat="44.28471" lon="5.82051">
        <ele>548</ele>
        <time>2019-06-04T10:38:47Z</time>
      </trkpt>
      <trkpt lat="44.28477" lon="5.82053">
        <ele>548</ele>
        <time>2019-06-04T10:38:48Z</time>
      </trkpt>
      <trkpt lat="44.28483" lon="5.82056">
        <ele>548</ele>
        <time>2019-06-04T10:38:49Z</time>
      </trkpt>
      <trkpt lat="44.28489" lon="5.82059">
        <ele>548</ele>
        <time>2019-06-04T10:38:50Z</time>
      </trkpt>
      <trkpt lat="44.28494" lon="5.82062">
        <ele>548</ele>
        <time>2019-06-04T10:38:51Z</time>
      </trkpt>
      <trkpt lat="44.285" lon="5.82065">
        <ele>548</ele>
        <time>2019-06-04T10:38:52Z</time>
      </trkpt>
      <trkpt lat="44.28506" lon="5.82068">
        <ele>548</ele>
        <time>2019-06-04T10:38:53Z</time>
      </trkpt>
      <trkpt lat="44.28511" lon="5.82071">
        <ele>548</ele>
        <time>2019-06-04T10:38:54Z</time>
      </trkpt>
      <trkpt lat="44.28517" lon="5.82074">
        <ele>548</ele>
        <time>2019-06-04T10:38:55Z</time>
      </trkpt>
      <trkpt lat="44.28522" lon="5.82077">
        <ele>548</ele>
        <time>2019-06-04T10:38:56Z</time>
      </trkpt>
      <trkpt lat="44.28527" lon="5.82079">
        <ele>548</ele>
        <time>2019-06-04T10:38:57Z</time>
      </trkpt>
      <trkpt lat="44.28533" lon="5.82082">
        <ele>548</ele>
        <time>2019-06-04T10:38:58Z</time>
      </trkpt>
      <trkpt lat="44.28538" lon="5.82085">
        <ele>548</ele>
        <time>2019-06-04T10:38:59Z</time>
      </trkpt>
      <trkpt lat="44.28543" lon="5.82087">
        <ele>549</ele>
        <time>2019-06-04T10:39:00Z</time>
      </trkpt>
      <trkpt lat="44.28548" lon="5.8209">
        <ele>549</ele>
        <time>2019-06-04T10:39:01Z</time>
      </trkpt>
      <trkpt lat="44.28553" lon="5.82093">
        <ele>549</ele>
        <time>2019-06-04T10:39:02Z</time>
      </trkpt>
      <trkpt lat="44.28558" lon="5.82095">
        <ele>549</ele>
        <time>2019-06-04T10:39:03Z</time>
      </trkpt>
      <trkpt lat="44.28563" lon="5.82098">
        <ele>549</ele>
        <time>2019-06-04T10:39:04Z</time>
      </trkpt>
      <trkpt lat="44.28568" lon="5.821">
        <ele>549</ele>
        <time>2019-06-04T10:39:05Z</time>
      </trkpt>
      <trkpt lat="44.28572" lon="5.82102">
        <ele>549</ele>
        <time>2019-06-04T10:39:06Z</time>
      </trkpt>
      <trkpt lat="44.28577" lon="5.82105">
        <ele>549</ele>
        <time>2019-06-04T10:39:07Z</time>
      </trkpt>
      <trkpt lat="44.28582" lon="5.82107">
        <ele>550</ele>
        <time>2019-06-04T10:39:08Z</time>
      </trkpt>
      <trkpt lat="44.28586" lon="5.82109">
        <ele>550</ele>
        <time>2019-06-04T10:39:09Z</time>
      </trkpt>
      <trkpt lat="44.28591" lon="5.82112">
        <ele>550</ele>
        <time>2019-06-04T10:39:10Z</time>
      </trkpt>
      <trkpt lat="44.28596" lon="5.82114">
        <ele>550</ele>
        <time>2019-06-04T10:39:11Z</time>
      </trkpt>
      <trkpt lat="44.286" lon="5.82116">
        <ele>550</ele>
        <time>2019-06-04T10:39:12Z</time>
      </trkpt>
      <trkpt lat="44.28605" lon="5.82118">
        <ele>550</ele>
        <time>2019-06-04T10:39:13Z</time>
      </trkpt>
      <trkpt lat="44.28609" lon="5.8212">
        <ele>551</ele>
        <time>2019-06-04T10:39:14Z</time>
      </trkpt>
      <trkpt lat="44.28614" lon="5.82121">
        <ele>551</ele>
        <time>2019-06-04T10:39:15Z</time>
      </trkpt>
      <trkpt lat="44.28619" lon="5.82123">
        <ele>551</ele>
        <time>2019-06-04T10:39:16Z</time>
      </trkpt>
      <trkpt lat="44.28623" lon="5.82124">
        <ele>551</ele>
        <time>2019-06-04T10:39:17Z</time>
      </trkpt>
      <trkpt lat="44.28627" lon="5.82126">
        <ele>551</ele>
        <time>2019-06-04T10:39:18Z</time>
      </trkpt>
      <trkpt lat="44.28632" lon="5.82127">
        <ele>552</ele>
        <time>2019-06-04T10:39:19Z</time>
      </trkpt>
      <trkpt lat="44.28637" lon="5.82128">
        <ele>552</ele>
        <time>2019-06-04T10:39:20Z</time>
      </trkpt>
      <trkpt lat="44.28641" lon="5.8213">
        <ele>552</ele>
        <time>2019-06-04T10:39:21Z</time>
      </trkpt>
      <trkpt lat="44.28645" lon="5.82131">
        <ele>552</ele>
        <time>2019-06-04T10:39:22Z</time>
      </trkpt>
      <trkpt lat="44.28649" lon="5.82132">
        <ele>553</ele>
        <time>2019-06-04T10:39:23Z</time>
      </trkpt>
      <trkpt lat="44.28653" lon="5.82133">
        <ele>553</ele>
        <time>2019-06-04T10:39:24Z</time>
      </trkpt>
      <trkpt lat="44.28658" lon="5.82135">
        <ele>553</ele>
        <time>2019-06-04T10:39:25Z</time>
      </trkpt>
      <trkpt lat="44.28662" lon="5.82136">
        <ele>554</ele>
        <time>2019-06-04T10:39:26Z</time>
      </trkpt>
      <trkpt lat="44.28666" lon="5.82137">
        <ele>554</ele>
        <time>2019-06-04T10:39:27Z</time>
      </trkpt>
      <trkpt lat="44.2867" lon="5.82139">
        <ele>554</ele>
        <time>2019-06-04T10:39:28Z</time>
      </trkpt>
      <trkpt lat="44.28674" lon="5.8214">
        <ele>555</ele>
        <time>2019-06-04T10:39:29Z</time>
      </trkpt>
      <trkpt lat="44.28679" lon="5.82141">
        <ele>555</ele>
        <time>2019-06-04T10:39:30Z</time>
      </trkpt>
      <trkpt lat="44.28682" lon="5.82142">
        <ele>555</ele>
        <time>2019-06-04T10:39:31Z</time>
      </trkpt>
      <trkpt lat="44.28687" lon="5.82144">
        <ele>555</ele>
        <time>2019-06-04T10:39:32Z</time>
      </trkpt>
      <trkpt lat="44.28691" lon="5.82145">
        <ele>555</ele>
        <time>2019-06-04T10:39:33Z</time>
      </trkpt>
      <trkpt lat="44.28695" lon="5.82147">
        <ele>555</ele>
        <time>2019-06-04T10:39:34Z</time>
      </trkpt>
      <trkpt lat="44.28699" lon="5.82148">
        <ele>555</ele>
        <time>2019-06-04T10:39:35Z</time>
      </trkpt>
      <trkpt lat="44.28704" lon="5.82149">
        <ele>555</ele>
        <time>2019-06-04T10:39:36Z</time>
      </trkpt>
      <trkpt lat="44.28708" lon="5.82151">
        <ele>555</ele>
        <time>2019-06-04T10:39:37Z</time>
      </trkpt>
      <trkpt lat="44.28712" lon="5.82153">
        <ele>555</ele>
        <time>2019-06-04T10:39:38Z</time>
      </trkpt>
      <trkpt lat="44.28716" lon="5.82154">
        <ele>555</ele>
        <time>2019-06-04T10:39:39Z</time>
      </trkpt>
      <trkpt lat="44.2872" lon="5.82156">
        <ele>556</ele>
        <time>2019-06-04T10:39:40Z</time>
      </trkpt>
      <trkpt lat="44.28725" lon="5.82157">
        <ele>556</ele>
        <time>2019-06-04T10:39:41Z</time>
      </trkpt>
      <trkpt lat="44.28729" lon="5.82159">
        <ele>556</ele>
        <time>2019-06-04T10:39:42Z</time>
      </trkpt>
      <trkpt lat="44.28733" lon="5.82161">
        <ele>556</ele>
        <time>2019-06-04T10:39:43Z</time>
      </trkpt>
      <trkpt lat="44.28737" lon="5.82163">
        <ele>556</ele>
        <time>2019-06-04T10:39:44Z</time>
      </trkpt>
      <trkpt lat="44.28741" lon="5.82165">
        <ele>556</ele>
        <time>2019-06-04T10:39:45Z</time>
      </trkpt>
      <trkpt lat="44.28746" lon="5.82168">
        <ele>556</ele>
        <time>2019-06-04T10:39:46Z</time>
      </trkpt>
      <trkpt lat="44.2875" lon="5.8217">
        <ele>556</ele>
        <time>2019-06-04T10:39:47Z</time>
      </trkpt>
      <trkpt lat="44.28754" lon="5.82172">
        <ele>556</ele>
        <time>2019-06-04T10:39:48Z</time>
      </trkpt>
      <trkpt lat="44.28758" lon="5.82175">
        <ele>556</ele>
        <time>2019-06-04T10:39:49Z</time>
      </trkpt>
      <trkpt lat="44.28762" lon="5.82177">
        <ele>557</ele>
        <time>2019-06-04T10:39:50Z</time>
      </trkpt>
      <trkpt lat="44.28766" lon="5.82179">
        <ele>557</ele>
        <time>2019-06-04T10:39:51Z</time>
      </trkpt>
      <trkpt lat="44.2877" lon="5.82182">
        <ele>557</ele>
        <time>2019-06-04T10:39:52Z</time>
      </trkpt>
      <trkpt lat="44.28775" lon="5.82184">
        <ele>557</ele>
        <time>2019-06-04T10:39:53Z</time>
      </trkpt>
      <trkpt lat="44.28779" lon="5.82187">
        <ele>558</ele>
        <time>2019-06-04T10:39:54Z</time>
      </trkpt>
      <trkpt lat="44.28783" lon="5.8219">
        <ele>558</ele>
        <time>2019-06-04T10:39:55Z</time>
      </trkpt>
      <trkpt lat="44.28787" lon="5.82192">
        <ele>558</ele>
        <time>2019-06-04T10:39:56Z</time>
      </trkpt>
      <trkpt lat="44.28791" lon="5.82195">
        <ele>558</ele>
        <time>2019-06-04T10:39:57Z</time>
      </trkpt>
      <trkpt lat="44.28795" lon="5.82198">
        <ele>559</ele>
        <time>2019-06-04T10:39:58Z</time>
      </trkpt>
      <trkpt lat="44.28799" lon="5.82201">
        <ele>559</ele>
        <time>2019-06-04T10:39:59Z</time>
      </trkpt>
      <trkpt lat="44.28804" lon="5.82204">
        <ele>559</ele>
        <time>2019-06-04T10:40:00Z</time>
      </trkpt>
      <trkpt lat="44.28808" lon="5.82207">
        <ele>559</ele>
        <time>2019-06-04T10:40:01Z</time>
      </trkpt>
      <trkpt lat="44.28812" lon="5.8221">
        <ele>559</ele>
        <time>2019-06-04T10:40:02Z</time>
      </trkpt>
      <trkpt lat="44.28817" lon="5.82213">
        <ele>559</ele>
        <time>2019-06-04T10:40:03Z</time>
      </trkpt>
      <trkpt lat="44.28821" lon="5.82217">
        <ele>560</ele>
        <time>2019-06-04T10:40:04Z</time>
      </trkpt>
      <trkpt lat="44.28825" lon="5.8222">
        <ele>560</ele>
        <time>2019-06-04T10:40:05Z</time>
      </trkpt>
      <trkpt lat="44.28829" lon="5.82224">
        <ele>560</ele>
        <time>2019-06-04T10:40:06Z</time>
      </trkpt>
      <trkpt lat="44.28833" lon="5.82228">
        <ele>560</ele>
        <time>2019-06-04T10:40:07Z</time>
      </trkpt>
      <trkpt lat="44.28838" lon="5.82232">
        <ele>561</ele>
        <time>2019-06-04T10:40:08Z</time>
      </trkpt>
      <trkpt lat="44.28842" lon="5.82236">
        <ele>561</ele>
        <time>2019-06-04T10:40:09Z</time>
      </trkpt>
      <trkpt lat="44.28847" lon="5.8224">
        <ele>561</ele>
        <time>2019-06-04T10:40:10Z</time>
      </trkpt>
      <trkpt lat="44.28851" lon="5.82244">
        <ele>561</ele>
        <time>2019-06-04T10:40:11Z</time>
      </trkpt>
      <trkpt lat="44.28856" lon="5.82249">
        <ele>561</ele>
        <time>2019-06-04T10:40:12Z</time>
      </trkpt>
      <trkpt lat="44.2886" lon="5.82253">
        <ele>562</ele>
        <time>2019-06-04T10:40:13Z</time>
      </trkpt>
      <trkpt lat="44.28865" lon="5.82257">
        <ele>562</ele>
        <time>2019-06-04T10:40:14Z</time>
      </trkpt>
      <trkpt lat="44.28869" lon="5.82261">
        <ele>562</ele>
        <time>2019-06-04T10:40:15Z</time>
      </trkpt>
      <trkpt lat="44.28874" lon="5.82266">
        <ele>562</ele>
        <time>2019-06-04T10:40:16Z</time>
      </trkpt>
      <trkpt lat="44.28879" lon="5.8227">
        <ele>562</ele>
        <time>2019-06-04T10:40:17Z</time>
      </trkpt>
      <trkpt lat="44.28884" lon="5.82274">
        <ele>562</ele>
        <time>2019-06-04T10:40:18Z</time>
      </trkpt>
      <trkpt lat="44.28889" lon="5.82277">
        <ele>562</ele>
        <time>2019-06-04T10:40:19Z</time>
      </trkpt>
      <trkpt lat="44.28895" lon="5.82281">
        <ele>562</ele>
        <time>2019-06-04T10:40:20Z</time>
      </trkpt>
      <trkpt lat="44.28901" lon="5.82284">
        <ele>562</ele>
        <time>2019-06-04T10:40:21Z</time>
      </trkpt>
      <trkpt lat="44.28907" lon="5.82287">
        <ele>562</ele>
        <time>2019-06-04T10:40:22Z</time>
      </trkpt>
      <trkpt lat="44.28913" lon="5.82289">
        <ele>562</ele>
        <time>2019-06-04T10:40:23Z</time>
      </trkpt>
      <trkpt lat="44.28919" lon="5.8229">
        <ele>562</ele>
        <time>2019-06-04T10:40:24Z</time>
      </trkpt>
      <trkpt lat="44.28926" lon="5.82291">
        <ele>562</ele>
        <time>2019-06-04T10:40:25Z</time>
      </trkpt>
      <trkpt lat="44.28933" lon="5.82291">
        <ele>562</ele>
        <time>2019-06-04T10:40:26Z</time>
      </trkpt>
      <trkpt lat="44.2894" lon="5.82292">
        <ele>562</ele>
        <time>2019-06-04T10:40:27Z</time>
      </trkpt>
      <trkpt lat="44.28948" lon="5.82291">
        <ele>562</ele>
        <time>2019-06-04T10:40:28Z</time>
      </trkpt>
      <trkpt lat="44.28955" lon="5.82291">
        <ele>562</ele>
        <time>2019-06-04T10:40:29Z</time>
      </trkpt>
      <trkpt lat="44.28963" lon="5.82291">
        <ele>562</ele>
        <time>2019-06-04T10:40:30Z</time>
      </trkpt>
      <trkpt lat="44.28971" lon="5.8229">
        <ele>562</ele>
        <time>2019-06-04T10:40:31Z</time>
      </trkpt>
      <trkpt lat="44.28979" lon="5.8229">
        <ele>562</ele>
        <time>2019-06-04T10:40:32Z</time>
      </trkpt>
      <trkpt lat="44.28987" lon="5.82289">
        <ele>562</ele>
        <time>2019-06-04T10:40:33Z</time>
      </trkpt>
      <trkpt lat="44.28995" lon="5.82288">
        <ele>562</ele>
        <time>2019-06-04T10:40:34Z</time>
      </trkpt>
      <trkpt lat="44.29004" lon="5.82287">
        <ele>562</ele>
        <time>2019-06-04T10:40:35Z</time>
      </trkpt>
      <trkpt lat="44.29013" lon="5.82286">
        <ele>562</ele>
        <time>2019-06-04T10:40:36Z</time>
      </trkpt>
      <trkpt lat="44.29022" lon="5.82286">
        <ele>562</ele>
        <time>2019-06-04T10:40:37Z</time>
      </trkpt>
      <trkpt lat="44.29031" lon="5.82285">
        <ele>562</ele>
        <time>2019-06-04T10:40:38Z</time>
      </trkpt>
      <trkpt lat="44.2904" lon="5.82284">
        <ele>562</ele>
        <time>2019-06-04T10:40:39Z</time>
      </trkpt>
      <trkpt lat="44.29049" lon="5.82284">
        <ele>562</ele>
        <time>2019-06-04T10:40:40Z</time>
      </trkpt>
      <trkpt lat="44.29058" lon="5.82283">
        <ele>562</ele>
        <time>2019-06-04T10:40:41Z</time>
      </trkpt>
      <trkpt lat="44.29068" lon="5.82281">
        <ele>562</ele>
        <time>2019-06-04T10:40:42Z</time>
      </trkpt>
      <trkpt lat="44.29078" lon="5.8228">
        <ele>562</ele>
        <time>2019-06-04T10:40:43Z</time>
      </trkpt>
      <trkpt lat="44.29087" lon="5.82279">
        <ele>562</ele>
        <time>2019-06-04T10:40:44Z</time>
      </trkpt>
      <trkpt lat="44.29096" lon="5.82278">
        <ele>562</ele>
        <time>2019-06-04T10:40:45Z</time>
      </trkpt>
      <trkpt lat="44.29105" lon="5.82277">
        <ele>562</ele>
        <time>2019-06-04T10:40:46Z</time>
      </trkpt>
      <trkpt lat="44.29115" lon="5.82276">
        <ele>562</ele>
        <time>2019-06-04T10:40:47Z</time>
      </trkpt>
      <trkpt lat="44.29124" lon="5.82274">
        <ele>562</ele>
        <time>2019-06-04T10:40:48Z</time>
      </trkpt>
      <trkpt lat="44.29132" lon="5.82273">
        <ele>562</ele>
        <time>2019-06-04T10:40:49Z</time>
      </trkpt>
      <trkpt lat="44.29141" lon="5.82273">
        <ele>562</ele>
        <time>2019-06-04T10:40:50Z</time>
      </trkpt>
      <trkpt lat="44.2915" lon="5.82272">
        <ele>562</ele>
        <time>2019-06-04T10:40:51Z</time>
      </trkpt>
      <trkpt lat="44.29159" lon="5.8227">
        <ele>562</ele>
        <time>2019-06-04T10:40:52Z</time>
      </trkpt>
      <trkpt lat="44.29168" lon="5.8227">
        <ele>562</ele>
        <time>2019-06-04T10:40:53Z</time>
      </trkpt>
      <trkpt lat="44.29177" lon="5.82269">
        <ele>562</ele>
        <time>2019-06-04T10:40:54Z</time>
      </trkpt>
      <trkpt lat="44.29187" lon="5.82268">
        <ele>562</ele>
        <time>2019-06-04T10:40:55Z</time>
      </trkpt>
      <trkpt lat="44.29196" lon="5.82268">
        <ele>562</ele>
        <time>2019-06-04T10:40:56Z</time>
      </trkpt>
      <trkpt lat="44.29205" lon="5.82267">
        <ele>562</ele>
        <time>2019-06-04T10:40:57Z</time>
      </trkpt>
      <trkpt lat="44.29214" lon="5.82266">
        <ele>562</ele>
        <time>2019-06-04T10:40:58Z</time>
      </trkpt>
      <trkpt lat="44.29223" lon="5.82264">
        <ele>562</ele>
        <time>2019-06-04T10:40:59Z</time>
      </trkpt>
      <trkpt lat="44.29232" lon="5.82263">
        <ele>562</ele>
        <time>2019-06-04T10:41:00Z</time>
      </trkpt>
      <trkpt lat="44.29241" lon="5.82261">
        <ele>562</ele>
        <time>2019-06-04T10:41:01Z</time>
      </trkpt>
      <trkpt lat="44.29249" lon="5.8226">
        <ele>562</ele>
        <time>2019-06-04T10:41:02Z</time>
      </trkpt>
      <trkpt lat="44.29258" lon="5.82258">
        <ele>562</ele>
        <time>2019-06-04T10:41:03Z</time>
      </trkpt>
      <trkpt lat="44.29266" lon="5.82255">
        <ele>562</ele>
        <time>2019-06-04T10:41:04Z</time>
      </trkpt>
      <trkpt lat="44.29275" lon="5.82252">
        <ele>562</ele>
        <time>2019-06-04T10:41:05Z</time>
      </trkpt>
      <trkpt lat="44.29284" lon="5.82248">
        <ele>562</ele>
        <time>2019-06-04T10:41:06Z</time>
      </trkpt>
      <trkpt lat="44.29292" lon="5.82245">
        <ele>562</ele>
        <time>2019-06-04T10:41:07Z</time>
      </trkpt>
      <trkpt lat="44.293" lon="5.82241">
        <ele>562</ele>
        <time>2019-06-04T10:41:08Z</time>
      </trkpt>
      <trkpt lat="44.29308" lon="5.82238">
        <ele>562</ele>
        <time>2019-06-04T10:41:09Z</time>
      </trkpt>
      <trkpt lat="44.29316" lon="5.82234">
        <ele>562</ele>
        <time>2019-06-04T10:41:10Z</time>
      </trkpt>
      <trkpt lat="44.29324" lon="5.82231">
        <ele>562</ele>
        <time>2019-06-04T10:41:11Z</time>
      </trkpt>
      <trkpt lat="44.29333" lon="5.82227">
        <ele>562</ele>
        <time>2019-06-04T10:41:12Z</time>
      </trkpt>
      <trkpt lat="44.29341" lon="5.82224">
        <ele>562</ele>
        <time>2019-06-04T10:41:13Z</time>
      </trkpt>
      <trkpt lat="44.29348" lon="5.8222">
        <ele>562</ele>
        <time>2019-06-04T10:41:14Z</time>
      </trkpt>
      <trkpt lat="44.29356" lon="5.82216">
        <ele>562</ele>
        <time>2019-06-04T10:41:15Z</time>
      </trkpt>
      <trkpt lat="44.29364" lon="5.82211">
        <ele>562</ele>
        <time>2019-06-04T10:41:16Z</time>
      </trkpt>
      <trkpt lat="44.29372" lon="5.82205">
        <ele>562</ele>
        <time>2019-06-04T10:41:17Z</time>
      </trkpt>
      <trkpt lat="44.29379" lon="5.82199">
        <ele>562</ele>
        <time>2019-06-04T10:41:18Z</time>
      </trkpt>
      <trkpt lat="44.29386" lon="5.82192">
        <ele>562</ele>
        <time>2019-06-04T10:41:19Z</time>
      </trkpt>
      <trkpt lat="44.29393" lon="5.82185">
        <ele>562</ele>
        <time>2019-06-04T10:41:20Z</time>
      </trkpt>
      <trkpt lat="44.294" lon="5.82177">
        <ele>562</ele>
        <time>2019-06-04T10:41:21Z</time>
      </trkpt>
      <trkpt lat="44.29407" lon="5.8217">
        <ele>562</ele>
        <time>2019-06-04T10:41:22Z</time>
      </trkpt>
      <trkpt lat="44.29414" lon="5.82162">
        <ele>562</ele>
        <time>2019-06-04T10:41:23Z</time>
      </trkpt>
      <trkpt lat="44.29421" lon="5.82155">
        <ele>562</ele>
        <time>2019-06-04T10:41:24Z</time>
      </trkpt>
      <trkpt lat="44.29429" lon="5.82147">
        <ele>562</ele>
        <time>2019-06-04T10:41:25Z</time>
      </trkpt>
      <trkpt lat="44.29436" lon="5.82139">
        <ele>562</ele>
        <time>2019-06-04T10:41:26Z</time>
      </trkpt>
      <trkpt lat="44.29443" lon="5.82131">
        <ele>562</ele>
        <time>2019-06-04T10:41:27Z</time>
      </trkpt>
      <trkpt lat="44.29451" lon="5.82125">
        <ele>562</ele>
        <time>2019-06-04T10:41:28Z</time>
      </trkpt>
      <trkpt lat="44.29458" lon="5.82119">
        <ele>562</ele>
        <time>2019-06-04T10:41:29Z</time>
      </trkpt>
      <trkpt lat="44.29466" lon="5.82114">
        <ele>562</ele>
        <time>2019-06-04T10:41:30Z</time>
      </trkpt>
      <trkpt lat="44.29474" lon="5.8211">
        <ele>562</ele>
        <time>2019-06-04T10:41:31Z</time>
      </trkpt>
      <trkpt lat="44.29482" lon="5.82107">
        <ele>562</ele>
        <time>2019-06-04T10:41:32Z</time>
      </trkpt>
      <trkpt lat="44.29491" lon="5.82104">
        <ele>562</ele>
        <time>2019-06-04T10:41:33Z</time>
      </trkpt>
      <trkpt lat="44.29499" lon="5.82103">
        <ele>562</ele>
        <time>2019-06-04T10:41:34Z</time>
      </trkpt>
      <trkpt lat="44.29507" lon="5.82103">
        <ele>562</ele>
        <time>2019-06-04T10:41:35Z</time>
      </trkpt>
      <trkpt lat="44.29516" lon="5.82103">
        <ele>562</ele>
        <time>2019-06-04T10:41:36Z</time>
      </trkpt>
      <trkpt lat="44.29524" lon="5.82104">
        <ele>562</ele>
        <time>2019-06-04T10:41:37Z</time>
      </trkpt>
      <trkpt lat="44.29533" lon="5.82105">
        <ele>562</ele>
        <time>2019-06-04T10:41:38Z</time>
      </trkpt>
      <trkpt lat="44.29541" lon="5.82106">
        <ele>562</ele>
        <time>2019-06-04T10:41:39Z</time>
      </trkpt>
      <trkpt lat="44.2955" lon="5.82108">
        <ele>562</ele>
        <time>2019-06-04T10:41:40Z</time>
      </trkpt>
      <trkpt lat="44.29558" lon="5.8211">
        <ele>562</ele>
        <time>2019-06-04T10:41:41Z</time>
      </trkpt>
      <trkpt lat="44.29567" lon="5.82113">
        <ele>562</ele>
        <time>2019-06-04T10:41:42Z</time>
      </trkpt>
      <trkpt lat="44.29575" lon="5.82116">
        <ele>562</ele>
        <time>2019-06-04T10:41:43Z</time>
      </trkpt>
      <trkpt lat="44.29583" lon="5.82119">
        <ele>562</ele>
        <time>2019-06-04T10:41:44Z</time>
      </trkpt>
      <trkpt lat="44.29591" lon="5.82123">
        <ele>562</ele>
        <time>2019-06-04T10:41:45Z</time>
      </trkpt>
      <trkpt lat="44.296" lon="5.82127">
        <ele>562</ele>
        <time>2019-06-04T10:41:46Z</time>
      </trkpt>
      <trkpt lat="44.29608" lon="5.82131">
        <ele>562</ele>
        <time>2019-06-04T10:41:47Z</time>
      </trkpt>
      <trkpt lat="44.29616" lon="5.82136">
        <ele>562</ele>
        <time>2019-06-04T10:41:48Z</time>
      </trkpt>
      <trkpt lat="44.29624" lon="5.82142">
        <ele>562</ele>
        <time>2019-06-04T10:41:49Z</time>
      </trkpt>
      <trkpt lat="44.29632" lon="5.82148">
        <ele>562</ele>
        <time>2019-06-04T10:41:50Z</time>
      </trkpt>
      <trkpt lat="44.2964" lon="5.82155">
        <ele>562</ele>
        <time>2019-06-04T10:41:51Z</time>
      </trkpt>
      <trkpt lat="44.29647" lon="5.82161">
        <ele>562</ele>
        <time>2019-06-04T10:41:52Z</time>
      </trkpt>
      <trkpt lat="44.29654" lon="5.82169">
        <ele>562</ele>
        <time>2019-06-04T10:41:53Z</time>
      </trkpt>
      <trkpt lat="44.29661" lon="5.82177">
        <ele>562</ele>
        <time>2019-06-04T10:41:54Z</time>
      </trkpt>
      <trkpt lat="44.29668" lon="5.82184">
        <ele>562</ele>
        <time>2019-06-04T10:41:55Z</time>
      </trkpt>
      <trkpt lat="44.29675" lon="5.82192">
        <ele>562</ele>
        <time>2019-06-04T10:41:56Z</time>
      </trkpt>
      <trkpt lat="44.29681" lon="5.82199">
        <ele>562</ele>
        <time>2019-06-04T10:41:57Z</time>
      </trkpt>
      <trkpt lat="44.29688" lon="5.82205">
        <ele>562</ele>
        <time>2019-06-04T10:41:58Z</time>
      </trkpt>
      <trkpt lat="44.29694" lon="5.82211">
        <ele>562</ele>
        <time>2019-06-04T10:41:59Z</time>
      </trkpt>
      <trkpt lat="44.29701" lon="5.82217">
        <ele>562</ele>
        <time>2019-06-04T10:42:00Z</time>
      </trkpt>
      <trkpt lat="44.29707" lon="5.82222">
        <ele>562</ele>
        <time>2019-06-04T10:42:01Z</time>
      </trkpt>
      <trkpt lat="44.29713" lon="5.82226">
        <ele>562</ele>
        <time>2019-06-04T10:42:02Z</time>
      </trkpt>
      <trkpt lat="44.2972" lon="5.82231">
        <ele>562</ele>
        <time>2019-06-04T10:42:03Z</time>
      </trkpt>
      <trkpt lat="44.29727" lon="5.82234">
        <ele>562</ele>
        <time>2019-06-04T10:42:04Z</time>
      </trkpt>
      <trkpt lat="44.29733" lon="5.82238">
        <ele>562</ele>
        <time>2019-06-04T10:42:05Z</time>
      </trkpt>
      <trkpt lat="44.2974" lon="5.82241">
        <ele>562</ele>
        <time>2019-06-04T10:42:06Z</time>
      </trkpt>
      <trkpt lat="44.29747" lon="5.82244">
        <ele>562</ele>
        <time>2019-06-04T10:42:07Z</time>
      </trkpt>
      <trkpt lat="44.29754" lon="5.82246">
        <ele>562</ele>
        <time>2019-06-04T10:42:08Z</time>
      </trkpt>
      <trkpt lat="44.29761" lon="5.82249">
        <ele>562</ele>
        <time>2019-06-04T10:42:09Z</time>
      </trkpt>
      <trkpt lat="44.29768" lon="5.82251">
        <ele>562</ele>
        <time>2019-06-04T10:42:10Z</time>
      </trkpt>
      <trkpt lat="44.29775" lon="5.82253">
        <ele>561</ele>
        <time>2019-06-04T10:42:11Z</time>
      </trkpt>
      <trkpt lat="44.29783" lon="5.82254">
        <ele>561</ele>
        <time>2019-06-04T10:42:12Z</time>
      </trkpt>
      <trkpt lat="44.2979" lon="5.82255">
        <ele>561</ele>
        <time>2019-06-04T10:42:13Z</time>
      </trkpt>
      <trkpt lat="44.29799" lon="5.82256">
        <ele>560</ele>
        <time>2019-06-04T10:42:14Z</time>
      </trkpt>
      <trkpt lat="44.29807" lon="5.82257">
        <ele>560</ele>
        <time>2019-06-04T10:42:15Z</time>
      </trkpt>
      <trkpt lat="44.29815" lon="5.82258">
        <ele>559</ele>
        <time>2019-06-04T10:42:16Z</time>
      </trkpt>
      <trkpt lat="44.29823" lon="5.8226">
        <ele>559</ele>
        <time>2019-06-04T10:42:17Z</time>
      </trkpt>
      <trkpt lat="44.29832" lon="5.82262">
        <ele>559</ele>
        <time>2019-06-04T10:42:18Z</time>
      </trkpt>
      <trkpt lat="44.2984" lon="5.82264">
        <ele>558</ele>
        <time>2019-06-04T10:42:19Z</time>
      </trkpt>
      <trkpt lat="44.29848" lon="5.82266">
        <ele>558</ele>
        <time>2019-06-04T10:42:20Z</time>
      </trkpt>
      <trkpt lat="44.29857" lon="5.82269">
        <ele>558</ele>
        <time>2019-06-04T10:42:21Z</time>
      </trkpt>
      <trkpt lat="44.29865" lon="5.82273">
        <ele>558</ele>
        <time>2019-06-04T10:42:22Z</time>
      </trkpt>
      <trkpt lat="44.29873" lon="5.82277">
        <ele>558</ele>
        <time>2019-06-04T10:42:23Z</time>
      </trkpt>
      <trkpt lat="44.29881" lon="5.82281">
        <ele>557</ele>
        <time>2019-06-04T10:42:24Z</time>
      </trkpt>
      <trkpt lat="44.29888" lon="5.82285">
        <ele>557</ele>
        <time>2019-06-04T10:42:25Z</time>
      </trkpt>
      <trkpt lat="44.29896" lon="5.8229">
        <ele>557</ele>
        <time>2019-06-04T10:42:26Z</time>
      </trkpt>
      <trkpt lat="44.29904" lon="5.82294">
        <ele>557</ele>
        <time>2019-06-04T10:42:27Z</time>
      </trkpt>
      <trkpt lat="44.29912" lon="5.82299">
        <ele>557</ele>
        <time>2019-06-04T10:42:28Z</time>
      </trkpt>
      <trkpt lat="44.29919" lon="5.82303">
        <ele>557</ele>
        <time>2019-06-04T10:42:29Z</time>
      </trkpt>
      <trkpt lat="44.29927" lon="5.82307">
        <ele>557</ele>
        <time>2019-06-04T10:42:30Z</time>
      </trkpt>
      <trkpt lat="44.29934" lon="5.82311">
        <ele>557</ele>
        <time>2019-06-04T10:42:31Z</time>
      </trkpt>
      <trkpt lat="44.29942" lon="5.82314">
        <ele>557</ele>
        <time>2019-06-04T10:42:32Z</time>
      </trkpt>
      <trkpt lat="44.29949" lon="5.82318">
        <ele>557</ele>
        <time>2019-06-04T10:42:33Z</time>
      </trkpt>
      <trkpt lat="44.29956" lon="5.82321">
        <ele>557</ele>
        <time>2019-06-04T10:42:34Z</time>
      </trkpt>
      <trkpt lat="44.29964" lon="5.82324">
        <ele>557</ele>
        <time>2019-06-04T10:42:35Z</time>
      </trkpt>
      <trkpt lat="44.29971" lon="5.82327">
        <ele>557</ele>
        <time>2019-06-04T10:42:36Z</time>
      </trkpt>
      <trkpt lat="44.29979" lon="5.8233">
        <ele>557</ele>
        <time>2019-06-04T10:42:37Z</time>
      </trkpt>
      <trkpt lat="44.29986" lon="5.82333">
        <ele>557</ele>
        <time>2019-06-04T10:42:38Z</time>
      </trkpt>
      <trkpt lat="44.29993" lon="5.82335">
        <ele>557</ele>
        <time>2019-06-04T10:42:39Z</time>
      </trkpt>
      <trkpt lat="44.3" lon="5.82337">
        <ele>557</ele>
        <time>2019-06-04T10:42:40Z</time>
      </trkpt>
      <trkpt lat="44.30007" lon="5.82339">
        <ele>557</ele>
        <time>2019-06-04T10:42:41Z</time>
      </trkpt>
      <trkpt lat="44.30015" lon="5.82341">
        <ele>557</ele>
        <time>2019-06-04T10:42:42Z</time>
      </trkpt>
      <trkpt lat="44.30022" lon="5.82342">
        <ele>557</ele>
        <time>2019-06-04T10:42:43Z</time>
      </trkpt>
      <trkpt lat="44.3003" lon="5.82344">
        <ele>557</ele>
        <time>2019-06-04T10:42:44Z</time>
      </trkpt>
      <trkpt lat="44.30037" lon="5.82345">
        <ele>557</ele>
        <time>2019-06-04T10:42:45Z</time>
      </trkpt>
      <trkpt lat="44.30044" lon="5.82347">
        <ele>557</ele>
        <time>2019-06-04T10:42:46Z</time>
      </trkpt>
      <trkpt lat="44.30052" lon="5.82348">
        <ele>557</ele>
        <time>2019-06-04T10:42:47Z</time>
      </trkpt>
      <trkpt lat="44.3006" lon="5.82349">
        <ele>557</ele>
        <time>2019-06-04T10:42:48Z</time>
      </trkpt>
      <trkpt lat="44.30068" lon="5.8235">
        <ele>557</ele>
        <time>2019-06-04T10:42:49Z</time>
      </trkpt>
      <trkpt lat="44.30076" lon="5.82351">
        <ele>557</ele>
        <time>2019-06-04T10:42:50Z</time>
      </trkpt>
      <trkpt lat="44.30084" lon="5.82351">
        <ele>557</ele>
        <time>2019-06-04T10:42:51Z</time>
      </trkpt>
      <trkpt lat="44.30093" lon="5.82351">
        <ele>557</ele>
        <time>2019-06-04T10:42:52Z</time>
      </trkpt>
      <trkpt lat="44.30101" lon="5.82351">
        <ele>557</ele>
        <time>2019-06-04T10:42:53Z</time>
      </trkpt>
      <trkpt lat="44.3011" lon="5.82351">
        <ele>557</ele>
        <time>2019-06-04T10:42:54Z</time>
      </trkpt>
      <trkpt lat="44.30118" lon="5.82352">
        <ele>557</ele>
        <time>2019-06-04T10:42:55Z</time>
      </trkpt>
      <trkpt lat="44.30127" lon="5.82352">
        <ele>556</ele>
        <time>2019-06-04T10:42:56Z</time>
      </trkpt>
      <trkpt lat="44.30135" lon="5.82353">
        <ele>556</ele>
        <time>2019-06-04T10:42:57Z</time>
      </trkpt>
      <trkpt lat="44.30144" lon="5.82353">
        <ele>556</ele>
        <time>2019-06-04T10:42:58Z</time>
      </trkpt>
      <trkpt lat="44.30153" lon="5.82354">
        <ele>556</ele>
        <time>2019-06-04T10:42:59Z</time>
      </trkpt>
      <trkpt lat="44.30162" lon="5.82354">
        <ele>556</ele>
        <time>2019-06-04T10:43:00Z</time>
      </trkpt>
      <trkpt lat="44.30172" lon="5.82355">
        <ele>556</ele>
        <time>2019-06-04T10:43:01Z</time>
      </trkpt>
      <trkpt lat="44.30181" lon="5.82355">
        <ele>556</ele>
        <time>2019-06-04T10:43:02Z</time>
      </trkpt>
      <trkpt lat="44.30191" lon="5.82356">
        <ele>556</ele>
        <time>2019-06-04T10:43:03Z</time>
      </trkpt>
      <trkpt lat="44.302" lon="5.82357">
        <ele>556</ele>
        <time>2019-06-04T10:43:04Z</time>
      </trkpt>
      <trkpt lat="44.3021" lon="5.82357">
        <ele>556</ele>
        <time>2019-06-04T10:43:05Z</time>
      </trkpt>
      <trkpt lat="44.30219" lon="5.82357">
        <ele>556</ele>
        <time>2019-06-04T10:43:06Z</time>
      </trkpt>
      <trkpt lat="44.30227" lon="5.82357">
        <ele>556</ele>
        <time>2019-06-04T10:43:07Z</time>
      </trkpt>
      <trkpt lat="44.30236" lon="5.82357">
        <ele>556</ele>
        <time>2019-06-04T10:43:08Z</time>
      </trkpt>
      <trkpt lat="44.30246" lon="5.82356">
        <ele>556</ele>
        <time>2019-06-04T10:43:09Z</time>
      </trkpt>
      <trkpt lat="44.30254" lon="5.82354">
        <ele>556</ele>
        <time>2019-06-04T10:43:10Z</time>
      </trkpt>
      <trkpt lat="44.30263" lon="5.82353">
        <ele>556</ele>
        <time>2019-06-04T10:43:11Z</time>
      </trkpt>
      <trkpt lat="44.30272" lon="5.82352">
        <ele>556</ele>
        <time>2019-06-04T10:43:12Z</time>
      </trkpt>
      <trkpt lat="44.30281" lon="5.8235">
        <ele>556</ele>
        <time>2019-06-04T10:43:13Z</time>
      </trkpt>
      <trkpt lat="44.30289" lon="5.82348">
        <ele>556</ele>
        <time>2019-06-04T10:43:14Z</time>
      </trkpt>
      <trkpt lat="44.30298" lon="5.82346">
        <ele>556</ele>
        <time>2019-06-04T10:43:15Z</time>
      </trkpt>
      <trkpt lat="44.30307" lon="5.82345">
        <ele>556</ele>
        <time>2019-06-04T10:43:16Z</time>
      </trkpt>
      <trkpt lat="44.30316" lon="5.82343">
        <ele>556</ele>
        <time>2019-06-04T10:43:17Z</time>
      </trkpt>
      <trkpt lat="44.30325" lon="5.82341">
        <ele>556</ele>
        <time>2019-06-04T10:43:18Z</time>
      </trkpt>
      <trkpt lat="44.30333" lon="5.82339">
        <ele>556</ele>
        <time>2019-06-04T10:43:19Z</time>
      </trkpt>
      <trkpt lat="44.30342" lon="5.82338">
        <ele>556</ele>
        <time>2019-06-04T10:43:20Z</time>
      </trkpt>
      <trkpt lat="44.30351" lon="5.82336">
        <ele>556</ele>
        <time>2019-06-04T10:43:21Z</time>
      </trkpt>
      <trkpt lat="44.3036" lon="5.82334">
        <ele>556</ele>
        <time>2019-06-04T10:43:22Z</time>
      </trkpt>
      <trkpt lat="44.30369" lon="5.82332">
        <ele>556</ele>
        <time>2019-06-04T10:43:23Z</time>
      </trkpt>
      <trkpt lat="44.30378" lon="5.82331">
        <ele>556</ele>
        <time>2019-06-04T10:43:24Z</time>
      </trkpt>
      <trkpt lat="44.30386" lon="5.82329">
        <ele>556</ele>
        <time>2019-06-04T10:43:25Z</time>
      </trkpt>
      <trkpt lat="44.30395" lon="5.82328">
        <ele>555</ele>
        <time>2019-06-04T10:43:26Z</time>
      </trkpt>
      <trkpt lat="44.30403" lon="5.82327">
        <ele>555</ele>
        <time>2019-06-04T10:43:27Z</time>
      </trkpt>
      <trkpt lat="44.30412" lon="5.82326">
        <ele>555</ele>
        <time>2019-06-04T10:43:28Z</time>
      </trkpt>
      <trkpt lat="44.30421" lon="5.82325">
        <ele>555</ele>
        <time>2019-06-04T10:43:29Z</time>
      </trkpt>
      <trkpt lat="44.3043" lon="5.82325">
        <ele>555</ele>
        <time>2019-06-04T10:43:30Z</time>
      </trkpt>
      <trkpt lat="44.30439" lon="5.82324">
        <ele>555</ele>
        <time>2019-06-04T10:43:31Z</time>
      </trkpt>
      <trkpt lat="44.30448" lon="5.82325">
        <ele>555</ele>
        <time>2019-06-04T10:43:32Z</time>
      </trkpt>
      <trkpt lat="44.30457" lon="5.82325">
        <ele>555</ele>
        <time>2019-06-04T10:43:33Z</time>
      </trkpt>
      <trkpt lat="44.30466" lon="5.82325">
        <ele>555</ele>
        <time>2019-06-04T10:43:34Z</time>
      </trkpt>
      <trkpt lat="44.30474" lon="5.82325">
        <ele>555</ele>
        <time>2019-06-04T10:43:35Z</time>
      </trkpt>
      <trkpt lat="44.30483" lon="5.82324">
        <ele>555</ele>
        <time>2019-06-04T10:43:36Z</time>
      </trkpt>
      <trkpt lat="44.30492" lon="5.82324">
        <ele>555</ele>
        <time>2019-06-04T10:43:37Z</time>
      </trkpt>
      <trkpt lat="44.30501" lon="5.82324">
        <ele>555</ele>
        <time>2019-06-04T10:43:38Z</time>
      </trkpt>
      <trkpt lat="44.3051" lon="5.82323">
        <ele>555</ele>
        <time>2019-06-04T10:43:39Z</time>
      </trkpt>
      <trkpt lat="44.30519" lon="5.82322">
        <ele>555</ele>
        <time>2019-06-04T10:43:40Z</time>
      </trkpt>
      <trkpt lat="44.30527" lon="5.82321">
        <ele>555</ele>
        <time>2019-06-04T10:43:41Z</time>
      </trkpt>
      <trkpt lat="44.30536" lon="5.82319">
        <ele>555</ele>
        <time>2019-06-04T10:43:42Z</time>
      </trkpt>
      <trkpt lat="44.30544" lon="5.82318">
        <ele>555</ele>
        <time>2019-06-04T10:43:43Z</time>
      </trkpt>
      <trkpt lat="44.30553" lon="5.82317">
        <ele>555</ele>
        <time>2019-06-04T10:43:44Z</time>
      </trkpt>
      <trkpt lat="44.30561" lon="5.82316">
        <ele>555</ele>
        <time>2019-06-04T10:43:45Z</time>
      </trkpt>
      <trkpt lat="44.3057" lon="5.82315">
        <ele>555</ele>
        <time>2019-06-04T10:43:46Z</time>
      </trkpt>
      <trkpt lat="44.30578" lon="5.82313">
        <ele>555</ele>
        <time>2019-06-04T10:43:47Z</time>
      </trkpt>
      <trkpt lat="44.30587" lon="5.82312">
        <ele>555</ele>
        <time>2019-06-04T10:43:48Z</time>
      </trkpt>
      <trkpt lat="44.30595" lon="5.82311">
        <ele>555</ele>
        <time>2019-06-04T10:43:49Z</time>
      </trkpt>
      <trkpt lat="44.30603" lon="5.8231">
        <ele>555</ele>
        <time>2019-06-04T10:43:50Z</time>
      </trkpt>
      <trkpt lat="44.30611" lon="5.82308">
        <ele>555</ele>
        <time>2019-06-04T10:43:51Z</time>
      </trkpt>
      <trkpt lat="44.30619" lon="5.82306">
        <ele>555</ele>
        <time>2019-06-04T10:43:52Z</time>
      </trkpt>
      <trkpt lat="44.30627" lon="5.82303">
        <ele>555</ele>
        <time>2019-06-04T10:43:53Z</time>
      </trkpt>
      <trkpt lat="44.30635" lon="5.823">
        <ele>555</ele>
        <time>2019-06-04T10:43:54Z</time>
      </trkpt>
      <trkpt lat="44.30642" lon="5.82296">
        <ele>555</ele>
        <time>2019-06-04T10:43:55Z</time>
      </trkpt>
      <trkpt lat="44.3065" lon="5.82291">
        <ele>555</ele>
        <time>2019-06-04T10:43:56Z</time>
      </trkpt>
      <trkpt lat="44.30658" lon="5.82287">
        <ele>555</ele>
        <time>2019-06-04T10:43:57Z</time>
      </trkpt>
      <trkpt lat="44.30665" lon="5.82281">
        <ele>555</ele>
        <time>2019-06-04T10:43:58Z</time>
      </trkpt>
      <trkpt lat="44.30672" lon="5.82275">
        <ele>555</ele>
        <time>2019-06-04T10:43:59Z</time>
      </trkpt>
      <trkpt lat="44.30679" lon="5.82269">
        <ele>555</ele>
        <time>2019-06-04T10:44:00Z</time>
      </trkpt>
      <trkpt lat="44.30685" lon="5.82262">
        <ele>555</ele>
        <time>2019-06-04T10:44:01Z</time>
      </trkpt>
      <trkpt lat="44.30691" lon="5.82255">
        <ele>555</ele>
        <time>2019-06-04T10:44:02Z</time>
      </trkpt>
      <trkpt lat="44.30697" lon="5.82247">
        <ele>555</ele>
        <time>2019-06-04T10:44:03Z</time>
      </trkpt>
      <trkpt lat="44.30702" lon="5.82238">
        <ele>555</ele>
        <time>2019-06-04T10:44:04Z</time>
      </trkpt>
      <trkpt lat="44.30708" lon="5.8223">
        <ele>555</ele>
        <time>2019-06-04T10:44:05Z</time>
      </trkpt>
      <trkpt lat="44.30713" lon="5.82221">
        <ele>555</ele>
        <time>2019-06-04T10:44:06Z</time>
      </trkpt>
      <trkpt lat="44.30718" lon="5.82211">
        <ele>555</ele>
        <time>2019-06-04T10:44:07Z</time>
      </trkpt>
      <trkpt lat="44.30722" lon="5.822">
        <ele>555</ele>
        <time>2019-06-04T10:44:08Z</time>
      </trkpt>
      <trkpt lat="44.30726" lon="5.8219">
        <ele>555</ele>
        <time>2019-06-04T10:44:09Z</time>
      </trkpt>
      <trkpt lat="44.3073" lon="5.82178">
        <ele>555</ele>
        <time>2019-06-04T10:44:10Z</time>
      </trkpt>
      <trkpt lat="44.30734" lon="5.82167">
        <ele>555</ele>
        <time>2019-06-04T10:44:11Z</time>
      </trkpt>
      <trkpt lat="44.30738" lon="5.82155">
        <ele>555</ele>
        <time>2019-06-04T10:44:12Z</time>
      </trkpt>
      <trkpt lat="44.30742" lon="5.82143">
        <ele>555</ele>
        <time>2019-06-04T10:44:13Z</time>
      </trkpt>
      <trkpt lat="44.30746" lon="5.82132">
        <ele>555</ele>
        <time>2019-06-04T10:44:14Z</time>
      </trkpt>
      <trkpt lat="44.30751" lon="5.8212">
        <ele>555</ele>
        <time>2019-06-04T10:44:15Z</time>
      </trkpt>
      <trkpt lat="44.30756" lon="5.82109">
        <ele>555</ele>
        <time>2019-06-04T10:44:16Z</time>
      </trkpt>
      <trkpt lat="44.30761" lon="5.82099">
        <ele>555</ele>
        <time>2019-06-04T10:44:17Z</time>
      </trkpt>
      <trkpt lat="44.30768" lon="5.82091">
        <ele>555</ele>
        <time>2019-06-04T10:44:18Z</time>
      </trkpt>
      <trkpt lat="44.30776" lon="5.82085">
        <ele>555</ele>
        <time>2019-06-04T10:44:19Z</time>
      </trkpt>
      <trkpt lat="44.30785" lon="5.82081">
        <ele>555</ele>
        <time>2019-06-04T10:44:20Z</time>
      </trkpt>
      <trkpt lat="44.30794" lon="5.82077">
        <ele>555</ele>
        <time>2019-06-04T10:44:21Z</time>
      </trkpt>
      <trkpt lat="44.30802" lon="5.82075">
        <ele>555</ele>
        <time>2019-06-04T10:44:22Z</time>
      </trkpt>
      <trkpt lat="44.30811" lon="5.82073">
        <ele>555</ele>
        <time>2019-06-04T10:44:23Z</time>
      </trkpt>
      <trkpt lat="44.30819" lon="5.82071">
        <ele>555</ele>
        <time>2019-06-04T10:44:24Z</time>
      </trkpt>
      <trkpt lat="44.30827" lon="5.82069">
        <ele>555</ele>
        <time>2019-06-04T10:44:25Z</time>
      </trkpt>
      <trkpt lat="44.30835" lon="5.82067">
        <ele>555</ele>
        <time>2019-06-04T10:44:26Z</time>
      </trkpt>
      <trkpt lat="44.30843" lon="5.82065">
        <ele>555</ele>
        <time>2019-06-04T10:44:27Z</time>
      </trkpt>
      <trkpt lat="44.30851" lon="5.82063">
        <ele>555</ele>
        <time>2019-06-04T10:44:28Z</time>
      </trkpt>
      <trkpt lat="44.30859" lon="5.82061">
        <ele>555</ele>
        <time>2019-06-04T10:44:29Z</time>
      </trkpt>
      <trkpt lat="44.30867" lon="5.82058">
        <ele>555</ele>
        <time>2019-06-04T10:44:30Z</time>
      </trkpt>
      <trkpt lat="44.30874" lon="5.82056">
        <ele>555</ele>
        <time>2019-06-04T10:44:31Z</time>
      </trkpt>
      <trkpt lat="44.30881" lon="5.82053">
        <ele>555</ele>
        <time>2019-06-04T10:44:32Z</time>
      </trkpt>
      <trkpt lat="44.30888" lon="5.82051">
        <ele>555</ele>
        <time>2019-06-04T10:44:33Z</time>
      </trkpt>
      <trkpt lat="44.30894" lon="5.82049">
        <ele>555</ele>
        <time>2019-06-04T10:44:34Z</time>
      </trkpt>
      <trkpt lat="44.309" lon="5.82046">
        <ele>555</ele>
        <time>2019-06-04T10:44:35Z</time>
      </trkpt>
      <trkpt lat="44.30906" lon="5.82044">
        <ele>555</ele>
        <time>2019-06-04T10:44:36Z</time>
      </trkpt>
      <trkpt lat="44.30912" lon="5.82042">
        <ele>555</ele>
        <time>2019-06-04T10:44:37Z</time>
      </trkpt>
      <trkpt lat="44.30917" lon="5.82041">
        <ele>555</ele>
        <time>2019-06-04T10:44:38Z</time>
      </trkpt>
      <trkpt lat="44.30923" lon="5.8204">
        <ele>555</ele>
        <time>2019-06-04T10:44:39Z</time>
      </trkpt>
      <trkpt lat="44.30929" lon="5.82039">
        <ele>555</ele>
        <time>2019-06-04T10:44:40Z</time>
      </trkpt>
      <trkpt lat="44.30935" lon="5.82039">
        <ele>555</ele>
        <time>2019-06-04T10:44:41Z</time>
      </trkpt>
      <trkpt lat="44.30941" lon="5.8204">
        <ele>555</ele>
        <time>2019-06-04T10:44:42Z</time>
      </trkpt>
      <trkpt lat="44.30948" lon="5.82042">
        <ele>555</ele>
        <time>2019-06-04T10:44:43Z</time>
      </trkpt>
      <trkpt lat="44.30954" lon="5.82045">
        <ele>555</ele>
        <time>2019-06-04T10:44:44Z</time>
      </trkpt>
      <trkpt lat="44.30961" lon="5.8205">
        <ele>555</ele>
        <time>2019-06-04T10:44:45Z</time>
      </trkpt>
      <trkpt lat="44.30967" lon="5.82054">
        <ele>555</ele>
        <time>2019-06-04T10:44:46Z</time>
      </trkpt>
      <trkpt lat="44.30973" lon="5.82058">
        <ele>555</ele>
        <time>2019-06-04T10:44:47Z</time>
      </trkpt>
      <trkpt lat="44.30979" lon="5.82063">
        <ele>555</ele>
        <time>2019-06-04T10:44:48Z</time>
      </trkpt>
      <trkpt lat="44.30985" lon="5.82067">
        <ele>555</ele>
        <time>2019-06-04T10:44:49Z</time>
      </trkpt>
      <trkpt lat="44.3099" lon="5.82073">
        <ele>555</ele>
        <time>2019-06-04T10:44:50Z</time>
      </trkpt>
      <trkpt lat="44.30995" lon="5.82078">
        <ele>555</ele>
        <time>2019-06-04T10:44:51Z</time>
      </trkpt>
      <trkpt lat="44.31001" lon="5.82084">
        <ele>555</ele>
        <time>2019-06-04T10:44:52Z</time>
      </trkpt>
      <trkpt lat="44.31005" lon="5.8209">
        <ele>555</ele>
        <time>2019-06-04T10:44:53Z</time>
      </trkpt>
      <trkpt lat="44.3101" lon="5.82096">
        <ele>555</ele>
        <time>2019-06-04T10:44:54Z</time>
      </trkpt>
      <trkpt lat="44.31015" lon="5.82102">
        <ele>555</ele>
        <time>2019-06-04T10:44:55Z</time>
      </trkpt>
      <trkpt lat="44.3102" lon="5.82108">
        <ele>555</ele>
        <time>2019-06-04T10:44:56Z</time>
      </trkpt>
      <trkpt lat="44.31024" lon="5.82115">
        <ele>555</ele>
        <time>2019-06-04T10:44:57Z</time>
      </trkpt>
      <trkpt lat="44.31029" lon="5.82121">
        <ele>555</ele>
        <time>2019-06-04T10:44:58Z</time>
      </trkpt>
      <trkpt lat="44.31034" lon="5.82127">
        <ele>555</ele>
        <time>2019-06-04T10:44:59Z</time>
      </trkpt>
      <trkpt lat="44.31039" lon="5.82134">
        <ele>555</ele>
        <time>2019-06-04T10:45:00Z</time>
      </trkpt>
      <trkpt lat="44.31044" lon="5.8214">
        <ele>555</ele>
        <time>2019-06-04T10:45:01Z</time>
      </trkpt>
      <trkpt lat="44.31048" lon="5.82146">
        <ele>555</ele>
        <time>2019-06-04T10:45:02Z</time>
      </trkpt>
      <trkpt lat="44.31053" lon="5.82152">
        <ele>555</ele>
        <time>2019-06-04T10:45:03Z</time>
      </trkpt>
      <trkpt lat="44.31057" lon="5.82158">
        <ele>555</ele>
        <time>2019-06-04T10:45:04Z</time>
      </trkpt>
      <trkpt lat="44.31062" lon="5.82163">
        <ele>555</ele>
        <time>2019-06-04T10:45:05Z</time>
      </trkpt>
      <trkpt lat="44.31067" lon="5.82168">
        <ele>555</ele>
        <time>2019-06-04T10:45:06Z</time>
      </trkpt>
      <trkpt lat="44.31072" lon="5.82174">
        <ele>555</ele>
        <time>2019-06-04T10:45:07Z</time>
      </trkpt>
      <trkpt lat="44.31076" lon="5.8218">
        <ele>555</ele>
        <time>2019-06-04T10:45:08Z</time>
      </trkpt>
      <trkpt lat="44.31079" lon="5.82186">
        <ele>555</ele>
        <time>2019-06-04T10:45:09Z</time>
      </trkpt>
      <trkpt lat="44.31084" lon="5.82193">
        <ele>555</ele>
        <time>2019-06-04T10:45:10Z</time>
      </trkpt>
      <trkpt lat="44.31089" lon="5.82199">
        <ele>555</ele>
        <time>2019-06-04T10:45:11Z</time>
      </trkpt>
      <trkpt lat="44.31093" lon="5.82205">
        <ele>555</ele>
        <time>2019-06-04T10:45:12Z</time>
      </trkpt>
      <trkpt lat="44.31098" lon="5.8221">
        <ele>555</ele>
        <time>2019-06-04T10:45:13Z</time>
      </trkpt>
      <trkpt lat="44.31102" lon="5.82215">
        <ele>555</ele>
        <time>2019-06-04T10:45:14Z</time>
      </trkpt>
      <trkpt lat="44.31106" lon="5.82221">
        <ele>555</ele>
        <time>2019-06-04T10:45:15Z</time>
      </trkpt>
      <trkpt lat="44.3111" lon="5.82227">
        <ele>555</ele>
        <time>2019-06-04T10:45:16Z</time>
      </trkpt>
      <trkpt lat="44.31114" lon="5.82232">
        <ele>555</ele>
        <time>2019-06-04T10:45:17Z</time>
      </trkpt>
      <trkpt lat="44.31118" lon="5.82237">
        <ele>555</ele>
        <time>2019-06-04T10:45:18Z</time>
      </trkpt>
      <trkpt lat="44.31122" lon="5.82242">
        <ele>555</ele>
        <time>2019-06-04T10:45:19Z</time>
      </trkpt>
      <trkpt lat="44.31125" lon="5.82246">
        <ele>555</ele>
        <time>2019-06-04T10:45:20Z</time>
      </trkpt>
      <trkpt lat="44.31129" lon="5.82251">
        <ele>555</ele>
        <time>2019-06-04T10:45:21Z</time>
      </trkpt>
      <trkpt lat="44.31132" lon="5.82256">
        <ele>555</ele>
        <time>2019-06-04T10:45:22Z</time>
      </trkpt>
      <trkpt lat="44.31136" lon="5.8226">
        <ele>555</ele>
        <time>2019-06-04T10:45:23Z</time>
      </trkpt>
      <trkpt lat="44.31139" lon="5.82263">
        <ele>555</ele>
        <time>2019-06-04T10:45:24Z</time>
      </trkpt>
      <trkpt lat="44.31142" lon="5.82267">
        <ele>555</ele>
        <time>2019-06-04T10:45:25Z</time>
      </trkpt>
      <trkpt lat="44.31145" lon="5.82271">
        <ele>555</ele>
        <time>2019-06-04T10:45:26Z</time>
      </trkpt>
      <trkpt lat="44.31148" lon="5.82275">
        <ele>555</ele>
        <time>2019-06-04T10:45:27Z</time>
      </trkpt>
      <trkpt lat="44.3115" lon="5.8228">
        <ele>555</ele>
        <time>2019-06-04T10:45:28Z</time>
      </trkpt>
      <trkpt lat="44.3115" lon="5.82286">
        <ele>555</ele>
        <time>2019-06-04T10:45:29Z</time>
      </trkpt>
      <trkpt lat="44.3115" lon="5.82291">
        <ele>555</ele>
        <time>2019-06-04T10:45:30Z</time>
      </trkpt>
      <trkpt lat="44.3115" lon="5.82297">
        <ele>555</ele>
        <time>2019-06-04T10:45:31Z</time>
      </trkpt>
      <trkpt lat="44.31148" lon="5.82302">
        <ele>555</ele>
        <time>2019-06-04T10:45:32Z</time>
      </trkpt>
      <trkpt lat="44.31146" lon="5.82307">
        <ele>555</ele>
        <time>2019-06-04T10:45:33Z</time>
      </trkpt>
      <trkpt lat="44.31142" lon="5.82312">
        <ele>555</ele>
        <time>2019-06-04T10:45:34Z</time>
      </trkpt>
      <trkpt lat="44.31138" lon="5.82317">
        <ele>555</ele>
        <time>2019-06-04T10:45:35Z</time>
      </trkpt>
      <trkpt lat="44.31134" lon="5.82322">
        <ele>555</ele>
        <time>2019-06-04T10:45:36Z</time>
      </trkpt>
      <trkpt lat="44.31131" lon="5.82327">
        <ele>555</ele>
        <time>2019-06-04T10:45:37Z</time>
      </trkpt>
      <trkpt lat="44.31127" lon="5.82332">
        <ele>555</ele>
        <time>2019-06-04T10:45:38Z</time>
      </trkpt>
      <trkpt lat="44.31124" lon="5.82338">
        <ele>556</ele>
        <time>2019-06-04T10:45:39Z</time>
      </trkpt>
      <trkpt lat="44.3112" lon="5.82343">
        <ele>556</ele>
        <time>2019-06-04T10:45:40Z</time>
      </trkpt>
      <trkpt lat="44.31117" lon="5.82348">
        <ele>556</ele>
        <time>2019-06-04T10:45:41Z</time>
      </trkpt>
      <trkpt lat="44.31115" lon="5.82353">
        <ele>556</ele>
        <time>2019-06-04T10:45:42Z</time>
      </trkpt>
      <trkpt lat="44.31111" lon="5.82358">
        <ele>556</ele>
        <time>2019-06-04T10:45:43Z</time>
      </trkpt>
      <trkpt lat="44.31109" lon="5.82364">
        <ele>556</ele>
        <time>2019-06-04T10:45:44Z</time>
      </trkpt>
      <trkpt lat="44.31107" lon="5.82371">
        <ele>556</ele>
        <time>2019-06-04T10:45:45Z</time>
      </trkpt>
      <trkpt lat="44.31107" lon="5.82377">
        <ele>556</ele>
        <time>2019-06-04T10:45:46Z</time>
      </trkpt>
      <trkpt lat="44.31107" lon="5.82384">
        <ele>556</ele>
        <time>2019-06-04T10:45:47Z</time>
      </trkpt>
      <trkpt lat="44.31107" lon="5.8239">
        <ele>556</ele>
        <time>2019-06-04T10:45:48Z</time>
      </trkpt>
      <trkpt lat="44.31107" lon="5.82397">
        <ele>556</ele>
        <time>2019-06-04T10:45:49Z</time>
      </trkpt>
      <trkpt lat="44.31106" lon="5.82404">
        <ele>556</ele>
        <time>2019-06-04T10:45:50Z</time>
      </trkpt>
      <trkpt lat="44.31105" lon="5.82409">
        <ele>556</ele>
        <time>2019-06-04T10:45:51Z</time>
      </trkpt>
      <trkpt lat="44.31103" lon="5.82414">
        <ele>556</ele>
        <time>2019-06-04T10:45:52Z</time>
      </trkpt>
      <trkpt lat="44.311" lon="5.82419">
        <ele>556</ele>
        <time>2019-06-04T10:45:53Z</time>
      </trkpt>
      <trkpt lat="44.31099" lon="5.82425">
        <ele>556</ele>
        <time>2019-06-04T10:45:54Z</time>
      </trkpt>
      <trkpt lat="44.31096" lon="5.8243">
        <ele>556</ele>
        <time>2019-06-04T10:45:55Z</time>
      </trkpt>
      <trkpt lat="44.31094" lon="5.82434">
        <ele>556</ele>
        <time>2019-06-04T10:45:56Z</time>
      </trkpt>
      <trkpt lat="44.31092" lon="5.82438">
        <ele>556</ele>
        <time>2019-06-04T10:45:57Z</time>
      </trkpt>
      <trkpt lat="44.3109" lon="5.82443">
        <ele>556</ele>
        <time>2019-06-04T10:45:58Z</time>
      </trkpt>
      <trkpt lat="44.31087" lon="5.82449">
        <ele>556</ele>
        <time>2019-06-04T10:45:59Z</time>
      </trkpt>
      <trkpt lat="44.31083" lon="5.82454">
        <ele>556</ele>
        <time>2019-06-04T10:46:00Z</time>
      </trkpt>
      <trkpt lat="44.31081" lon="5.8246">
        <ele>556</ele>
        <time>2019-06-04T10:46:01Z</time>
      </trkpt>
      <trkpt lat="44.31079" lon="5.82466">
        <ele>557</ele>
        <time>2019-06-04T10:46:02Z</time>
      </trkpt>
      <trkpt lat="44.31076" lon="5.82473">
        <ele>557</ele>
        <time>2019-06-04T10:46:03Z</time>
      </trkpt>
      <trkpt lat="44.31073" lon="5.8248">
        <ele>557</ele>
        <time>2019-06-04T10:46:04Z</time>
      </trkpt>
      <trkpt lat="44.31072" lon="5.82489">
        <ele>557</ele>
        <time>2019-06-04T10:46:05Z</time>
      </trkpt>
      <trkpt lat="44.31071" lon="5.82498">
        <ele>557</ele>
        <time>2019-06-04T10:46:06Z</time>
      </trkpt>
      <trkpt lat="44.31072" lon="5.82506">
        <ele>557</ele>
        <time>2019-06-04T10:46:07Z</time>
      </trkpt>
      <trkpt lat="44.31075" lon="5.82513">
        <ele>557</ele>
        <time>2019-06-04T10:46:08Z</time>
      </trkpt>
      <trkpt lat="44.31078" lon="5.8252">
        <ele>557</ele>
        <time>2019-06-04T10:46:09Z</time>
      </trkpt>
      <trkpt lat="44.31082" lon="5.82526">
        <ele>557</ele>
        <time>2019-06-04T10:46:10Z</time>
      </trkpt>
      <trkpt lat="44.31087" lon="5.82531">
        <ele>557</ele>
        <time>2019-06-04T10:46:11Z</time>
      </trkpt>
      <trkpt lat="44.31092" lon="5.82535">
        <ele>557</ele>
        <time>2019-06-04T10:46:12Z</time>
      </trkpt>
      <trkpt lat="44.31098" lon="5.82539">
        <ele>557</ele>
        <time>2019-06-04T10:46:13Z</time>
      </trkpt>
      <trkpt lat="44.31104" lon="5.82543">
        <ele>557</ele>
        <time>2019-06-04T10:46:14Z</time>
      </trkpt>
      <trkpt lat="44.31109" lon="5.82546">
        <ele>557</ele>
        <time>2019-06-04T10:46:15Z</time>
      </trkpt>
      <trkpt lat="44.31115" lon="5.82549">
        <ele>557</ele>
        <time>2019-06-04T10:46:16Z</time>
      </trkpt>
      <trkpt lat="44.31121" lon="5.82552">
        <ele>557</ele>
        <time>2019-06-04T10:46:17Z</time>
      </trkpt>
      <trkpt lat="44.31127" lon="5.82555">
        <ele>557</ele>
        <time>2019-06-04T10:46:18Z</time>
      </trkpt>
      <trkpt lat="44.31133" lon="5.82558">
        <ele>557</ele>
        <time>2019-06-04T10:46:19Z</time>
      </trkpt>
      <trkpt lat="44.31138" lon="5.82561">
        <ele>557</ele>
        <time>2019-06-04T10:46:20Z</time>
      </trkpt>
      <trkpt lat="44.31144" lon="5.82564">
        <ele>557</ele>
        <time>2019-06-04T10:46:21Z</time>
      </trkpt>
      <trkpt lat="44.3115" lon="5.82567">
        <ele>557</ele>
        <time>2019-06-04T10:46:22Z</time>
      </trkpt>
      <trkpt lat="44.31155" lon="5.8257">
        <ele>557</ele>
        <time>2019-06-04T10:46:23Z</time>
      </trkpt>
      <trkpt lat="44.31161" lon="5.82573">
        <ele>557</ele>
        <time>2019-06-04T10:46:24Z</time>
      </trkpt>
      <trkpt lat="44.31166" lon="5.82575">
        <ele>557</ele>
        <time>2019-06-04T10:46:25Z</time>
      </trkpt>
      <trkpt lat="44.31172" lon="5.82579">
        <ele>557</ele>
        <time>2019-06-04T10:46:26Z</time>
      </trkpt>
      <trkpt lat="44.31178" lon="5.82582">
        <ele>557</ele>
        <time>2019-06-04T10:46:27Z</time>
      </trkpt>
      <trkpt lat="44.31183" lon="5.82585">
        <ele>557</ele>
        <time>2019-06-04T10:46:28Z</time>
      </trkpt>
      <trkpt lat="44.31188" lon="5.82588">
        <ele>557</ele>
        <time>2019-06-04T10:46:29Z</time>
      </trkpt>
      <trkpt lat="44.31194" lon="5.82591">
        <ele>557</ele>
        <time>2019-06-04T10:46:30Z</time>
      </trkpt>
      <trkpt lat="44.312" lon="5.82593">
        <ele>557</ele>
        <time>2019-06-04T10:46:31Z</time>
      </trkpt>
      <trkpt lat="44.31205" lon="5.82596">
        <ele>557</ele>
        <time>2019-06-04T10:46:32Z</time>
      </trkpt>
      <trkpt lat="44.31211" lon="5.82599">
        <ele>557</ele>
        <time>2019-06-04T10:46:33Z</time>
      </trkpt>
      <trkpt lat="44.31216" lon="5.82602">
        <ele>557</ele>
        <time>2019-06-04T10:46:34Z</time>
      </trkpt>
      <trkpt lat="44.31222" lon="5.82605">
        <ele>558</ele>
        <time>2019-06-04T10:46:35Z</time>
      </trkpt>
      <trkpt lat="44.31227" lon="5.82608">
        <ele>558</ele>
        <time>2019-06-04T10:46:36Z</time>
      </trkpt>
      <trkpt lat="44.31232" lon="5.82611">
        <ele>558</ele>
        <time>2019-06-04T10:46:37Z</time>
      </trkpt>
      <trkpt lat="44.31237" lon="5.82613">
        <ele>558</ele>
        <time>2019-06-04T10:46:38Z</time>
      </trkpt>
      <trkpt lat="44.31242" lon="5.82616">
        <ele>558</ele>
        <time>2019-06-04T10:46:39Z</time>
      </trkpt>
      <trkpt lat="44.31247" lon="5.82619">
        <ele>559</ele>
        <time>2019-06-04T10:46:40Z</time>
      </trkpt>
      <trkpt lat="44.31252" lon="5.82621">
        <ele>559</ele>
        <time>2019-06-04T10:46:41Z</time>
      </trkpt>
      <trkpt lat="44.31257" lon="5.82624">
        <ele>559</ele>
        <time>2019-06-04T10:46:42Z</time>
      </trkpt>
      <trkpt lat="44.31262" lon="5.82627">
        <ele>560</ele>
        <time>2019-06-04T10:46:43Z</time>
      </trkpt>
      <trkpt lat="44.31266" lon="5.8263">
        <ele>560</ele>
        <time>2019-06-04T10:46:44Z</time>
      </trkpt>
      <trkpt lat="44.31271" lon="5.82633">
        <ele>561</ele>
        <time>2019-06-04T10:46:45Z</time>
      </trkpt>
      <trkpt lat="44.31275" lon="5.82636">
        <ele>561</ele>
        <time>2019-06-04T10:46:46Z</time>
      </trkpt>
      <trkpt lat="44.3128" lon="5.82639">
        <ele>561</ele>
        <time>2019-06-04T10:46:47Z</time>
      </trkpt>
      <trkpt lat="44.31285" lon="5.82641">
        <ele>561</ele>
        <time>2019-06-04T10:46:48Z</time>
      </trkpt>
      <trkpt lat="44.3129" lon="5.82644">
        <ele>562</ele>
        <time>2019-06-04T10:46:49Z</time>
      </trkpt>
      <trkpt lat="44.31294" lon="5.82647">
        <ele>562</ele>
        <time>2019-06-04T10:46:50Z</time>
      </trkpt>
      <trkpt lat="44.31299" lon="5.8265">
        <ele>562</ele>
        <time>2019-06-04T10:46:51Z</time>
      </trkpt>
      <trkpt lat="44.31303" lon="5.82653">
        <ele>562</ele>
        <time>2019-06-04T10:46:52Z</time>
      </trkpt>
      <trkpt lat="44.31307" lon="5.82656">
        <ele>562</ele>
        <time>2019-06-04T10:46:53Z</time>
      </trkpt>
      <trkpt lat="44.31311" lon="5.82659">
        <ele>562</ele>
        <time>2019-06-04T10:46:54Z</time>
      </trkpt>
      <trkpt lat="44.31315" lon="5.82661">
        <ele>563</ele>
        <time>2019-06-04T10:46:55Z</time>
      </trkpt>
      <trkpt lat="44.31319" lon="5.82663">
        <ele>563</ele>
        <time>2019-06-04T10:46:56Z</time>
      </trkpt>
      <trkpt lat="44.31322" lon="5.82666">
        <ele>563</ele>
        <time>2019-06-04T10:46:57Z</time>
      </trkpt>
      <trkpt lat="44.31324" lon="5.82668">
        <ele>564</ele>
        <time>2019-06-04T10:46:58Z</time>
      </trkpt>
      <trkpt lat="44.31327" lon="5.82669">
        <ele>564</ele>
        <time>2019-06-04T10:46:59Z</time>
      </trkpt>
      <trkpt lat="44.31329" lon="5.82671">
        <ele>564</ele>
        <time>2019-06-04T10:47:00Z</time>
      </trkpt>
      <trkpt lat="44.31331" lon="5.82672">
        <ele>564</ele>
        <time>2019-06-04T10:47:01Z</time>
      </trkpt>
      <trkpt lat="44.31333" lon="5.82673">
        <ele>565</ele>
        <time>2019-06-04T10:47:02Z</time>
      </trkpt>
      <trkpt lat="44.31335" lon="5.82675">
        <ele>565</ele>
        <time>2019-06-04T10:47:03Z</time>
      </trkpt>
      <trkpt lat="44.31337" lon="5.82677">
        <ele>565</ele>
        <time>2019-06-04T10:47:04Z</time>
      </trkpt>
      <trkpt lat="44.31338" lon="5.82678">
        <ele>565</ele>
        <time>2019-06-04T10:47:05Z</time>
      </trkpt>
      <trkpt lat="44.3134" lon="5.8268">
        <ele>565</ele>
        <time>2019-06-04T10:47:07Z</time>
      </trkpt>
      <trkpt lat="44.31342" lon="5.8268">
        <ele>565</ele>
        <time>2019-06-04T10:47:09Z</time>
      </trkpt>
      <trkpt lat="44.31343" lon="5.82681">
        <ele>565</ele>
        <time>2019-06-04T10:47:11Z</time>
      </trkpt>
      <trkpt lat="44.31342" lon="5.82681">
        <ele>566</ele>
        <time>2019-06-04T10:47:30Z</time>
      </trkpt>
      <trkpt lat="44.31342" lon="5.82683">
        <ele>567</ele>
        <time>2019-06-04T10:47:53Z</time>
      </trkpt>
      <trkpt lat="44.31343" lon="5.82682">
        <ele>562</ele>
        <time>2019-06-04T10:48:48Z</time>
      </trkpt>
      <trkpt lat="44.31344" lon="5.82683">
        <ele>555</ele>
        <time>2019-06-04T10:49:05Z</time>
      </trkpt>
      <trkpt lat="44.31344" lon="5.82685">
        <ele>555</ele>
        <time>2019-06-04T10:49:08Z</time>
      </trkpt>
      <trkpt lat="44.31343" lon="5.82686">
        <ele>562</ele>
        <time>2019-06-04T10:49:32Z</time>
      </trkpt>
      <trkpt lat="44.31343" lon="5.82684">
        <ele>563</ele>
        <time>2019-06-04T10:49:44Z</time>
      </trkpt>
      <trkpt lat="44.31343" lon="5.82683">
        <ele>563</ele>
        <time>2019-06-04T10:49:59Z</time>
      </trkpt>
      <trkpt lat="44.31342" lon="5.82681">
        <ele>563</ele>
        <time>2019-06-04T10:50:45Z</time>
      </trkpt>
      <trkpt lat="44.31344" lon="5.8268">
        <ele>563</ele>
        <time>2019-06-04T10:50:48Z</time>
      </trkpt>
      <trkpt lat="44.31345" lon="5.8268">
        <ele>563</ele>
        <time>2019-06-04T10:50:49Z</time>
      </trkpt>
      <trkpt lat="44.31347" lon="5.8268">
        <ele>563</ele>
        <time>2019-06-04T10:50:51Z</time>
      </trkpt>
      <trkpt lat="44.31348" lon="5.8268">
        <ele>563</ele>
        <time>2019-06-04T10:50:53Z</time>
      </trkpt>
      <trkpt lat="44.3135" lon="5.82681">
        <ele>563</ele>
        <time>2019-06-04T10:50:56Z</time>
      </trkpt>
      <trkpt lat="44.31351" lon="5.82681">
        <ele>564</ele>
        <time>2019-06-04T10:50:58Z</time>
      </trkpt>
      <trkpt lat="44.31352" lon="5.82682">
        <ele>564</ele>
        <time>2019-06-04T10:51:00Z</time>
      </trkpt>
      <trkpt lat="44.31354" lon="5.82683">
        <ele>564</ele>
        <time>2019-06-04T10:51:04Z</time>
      </trkpt>
      <trkpt lat="44.31354" lon="5.82685">
        <ele>564</ele>
        <time>2019-06-04T10:51:05Z</time>
      </trkpt>
      <trkpt lat="44.31355" lon="5.82686">
        <ele>564</ele>
        <time>2019-06-04T10:51:06Z</time>
      </trkpt>
      <trkpt lat="44.31355" lon="5.82688">
        <ele>564</ele>
        <time>2019-06-04T10:51:07Z</time>
      </trkpt>
      <trkpt lat="44.31356" lon="5.8269">
        <ele>564</ele>
        <time>2019-06-04T10:51:08Z</time>
      </trkpt>
      <trkpt lat="44.31357" lon="5.82691">
        <ele>564</ele>
        <time>2019-06-04T10:51:09Z</time>
      </trkpt>
      <trkpt lat="44.31358" lon="5.82693">
        <ele>564</ele>
        <time>2019-06-04T10:51:10Z</time>
      </trkpt>
      <trkpt lat="44.31359" lon="5.82696">
        <ele>564</ele>
        <time>2019-06-04T10:51:11Z</time>
      </trkpt>
      <trkpt lat="44.31361" lon="5.82699">
        <ele>564</ele>
        <time>2019-06-04T10:51:12Z</time>
      </trkpt>
      <trkpt lat="44.31363" lon="5.82702">
        <ele>564</ele>
        <time>2019-06-04T10:51:13Z</time>
      </trkpt>
      <trkpt lat="44.31364" lon="5.82705">
        <ele>564</ele>
        <time>2019-06-04T10:51:14Z</time>
      </trkpt>
      <trkpt lat="44.31366" lon="5.82708">
        <ele>564</ele>
        <time>2019-06-04T10:51:15Z</time>
      </trkpt>
      <trkpt lat="44.31369" lon="5.82712">
        <ele>564</ele>
        <time>2019-06-04T10:51:16Z</time>
      </trkpt>
      <trkpt lat="44.31372" lon="5.82716">
        <ele>564</ele>
        <time>2019-06-04T10:51:17Z</time>
      </trkpt>
      <trkpt lat="44.31374" lon="5.8272">
        <ele>564</ele>
        <time>2019-06-04T10:51:18Z</time>
      </trkpt>
      <trkpt lat="44.31376" lon="5.82726">
        <ele>564</ele>
        <time>2019-06-04T10:51:19Z</time>
      </trkpt>
      <trkpt lat="44.31376" lon="5.82733">
        <ele>564</ele>
        <time>2019-06-04T10:51:20Z</time>
      </trkpt>
      <trkpt lat="44.31375" lon="5.82739">
        <ele>564</ele>
        <time>2019-06-04T10:51:21Z</time>
      </trkpt>
      <trkpt lat="44.31375" lon="5.82746">
        <ele>564</ele>
        <time>2019-06-04T10:51:22Z</time>
      </trkpt>
      <trkpt lat="44.31375" lon="5.82752">
        <ele>564</ele>
        <time>2019-06-04T10:51:23Z</time>
      </trkpt>
      <trkpt lat="44.31376" lon="5.82758">
        <ele>564</ele>
        <time>2019-06-04T10:51:24Z</time>
      </trkpt>
      <trkpt lat="44.31376" lon="5.82765">
        <ele>564</ele>
        <time>2019-06-04T10:51:25Z</time>
      </trkpt>
      <trkpt lat="44.31376" lon="5.82771">
        <ele>564</ele>
        <time>2019-06-04T10:51:26Z</time>
      </trkpt>
      <trkpt lat="44.31376" lon="5.82777">
        <ele>564</ele>
        <time>2019-06-04T10:51:27Z</time>
      </trkpt>
      <trkpt lat="44.31376" lon="5.82784">
        <ele>564</ele>
        <time>2019-06-04T10:51:28Z</time>
      </trkpt>
      <trkpt lat="44.31376" lon="5.8279">
        <ele>564</ele>
        <time>2019-06-04T10:51:29Z</time>
      </trkpt>
      <trkpt lat="44.31375" lon="5.82796">
        <ele>564</ele>
        <time>2019-06-04T10:51:30Z</time>
      </trkpt>
      <trkpt lat="44.31374" lon="5.82803">
        <ele>564</ele>
        <time>2019-06-04T10:51:31Z</time>
      </trkpt>
      <trkpt lat="44.31374" lon="5.82809">
        <ele>564</ele>
        <time>2019-06-04T10:51:32Z</time>
      </trkpt>
      <trkpt lat="44.31373" lon="5.82815">
        <ele>564</ele>
        <time>2019-06-04T10:51:33Z</time>
      </trkpt>
      <trkpt lat="44.31372" lon="5.82821">
        <ele>564</ele>
        <time>2019-06-04T10:51:34Z</time>
      </trkpt>
      <trkpt lat="44.31371" lon="5.82828">
        <ele>564</ele>
        <time>2019-06-04T10:51:35Z</time>
      </trkpt>
      <trkpt lat="44.31371" lon="5.82834">
        <ele>564</ele>
        <time>2019-06-04T10:51:36Z</time>
      </trkpt>
      <trkpt lat="44.3137" lon="5.8284">
        <ele>564</ele>
        <time>2019-06-04T10:51:37Z</time>
      </trkpt>
      <trkpt lat="44.31369" lon="5.82847">
        <ele>564</ele>
        <time>2019-06-04T10:51:38Z</time>
      </trkpt>
      <trkpt lat="44.31369" lon="5.82853">
        <ele>564</ele>
        <time>2019-06-04T10:51:39Z</time>
      </trkpt>
      <trkpt lat="44.31369" lon="5.8286">
        <ele>564</ele>
        <time>2019-06-04T10:51:40Z</time>
      </trkpt>
      <trkpt lat="44.31368" lon="5.82866">
        <ele>564</ele>
        <time>2019-06-04T10:51:41Z</time>
      </trkpt>
      <trkpt lat="44.31368" lon="5.82872">
        <ele>564</ele>
        <time>2019-06-04T10:51:42Z</time>
      </trkpt>
      <trkpt lat="44.31367" lon="5.82879">
        <ele>565</ele>
        <time>2019-06-04T10:51:43Z</time>
      </trkpt>
      <trkpt lat="44.31367" lon="5.82885">
        <ele>565</ele>
        <time>2019-06-04T10:51:44Z</time>
      </trkpt>
      <trkpt lat="44.31366" lon="5.82892">
        <ele>565</ele>
        <time>2019-06-04T10:51:45Z</time>
      </trkpt>
      <trkpt lat="44.31365" lon="5.82898">
        <ele>565</ele>
        <time>2019-06-04T10:51:46Z</time>
      </trkpt>
      <trkpt lat="44.31364" lon="5.82905">
        <ele>565</ele>
        <time>2019-06-04T10:51:47Z</time>
      </trkpt>
      <trkpt lat="44.31363" lon="5.82911">
        <ele>565</ele>
        <time>2019-06-04T10:51:48Z</time>
      </trkpt>
      <trkpt lat="44.31363" lon="5.82917">
        <ele>565</ele>
        <time>2019-06-04T10:51:49Z</time>
      </trkpt>
      <trkpt lat="44.31361" lon="5.82924">
        <ele>565</ele>
        <time>2019-06-04T10:51:50Z</time>
      </trkpt>
      <trkpt lat="44.31361" lon="5.8293">
        <ele>565</ele>
        <time>2019-06-04T10:51:51Z</time>
      </trkpt>
      <trkpt lat="44.3136" lon="5.82937">
        <ele>565</ele>
        <time>2019-06-04T10:51:52Z</time>
      </trkpt>
      <trkpt lat="44.3136" lon="5.82943">
        <ele>565</ele>
        <time>2019-06-04T10:51:53Z</time>
      </trkpt>
      <trkpt lat="44.31359" lon="5.8295">
        <ele>565</ele>
        <time>2019-06-04T10:51:54Z</time>
      </trkpt>
      <trkpt lat="44.31358" lon="5.82956">
        <ele>566</ele>
        <time>2019-06-04T10:51:55Z</time>
      </trkpt>
      <trkpt lat="44.31357" lon="5.82962">
        <ele>566</ele>
        <time>2019-06-04T10:51:56Z</time>
      </trkpt>
      <trkpt lat="44.31357" lon="5.82968">
        <ele>566</ele>
        <time>2019-06-04T10:51:57Z</time>
      </trkpt>
      <trkpt lat="44.31356" lon="5.82975">
        <ele>566</ele>
        <time>2019-06-04T10:51:58Z</time>
      </trkpt>
      <trkpt lat="44.31355" lon="5.82981">
        <ele>567</ele>
        <time>2019-06-04T10:51:59Z</time>
      </trkpt>
      <trkpt lat="44.31355" lon="5.82987">
        <ele>567</ele>
        <time>2019-06-04T10:52:00Z</time>
      </trkpt>
      <trkpt lat="44.31353" lon="5.82993">
        <ele>567</ele>
        <time>2019-06-04T10:52:01Z</time>
      </trkpt>
      <trkpt lat="44.31353" lon="5.82998">
        <ele>567</ele>
        <time>2019-06-04T10:52:02Z</time>
      </trkpt>
      <trkpt lat="44.31352" lon="5.83003">
        <ele>568</ele>
        <time>2019-06-04T10:52:03Z</time>
      </trkpt>
      <trkpt lat="44.31351" lon="5.83008">
        <ele>568</ele>
        <time>2019-06-04T10:52:04Z</time>
      </trkpt>
      <trkpt lat="44.3135" lon="5.83013">
        <ele>568</ele>
        <time>2019-06-04T10:52:05Z</time>
      </trkpt>
      <trkpt lat="44.3135" lon="5.83019">
        <ele>568</ele>
        <time>2019-06-04T10:52:06Z</time>
      </trkpt>
      <trkpt lat="44.31348" lon="5.83024">
        <ele>568</ele>
        <time>2019-06-04T10:52:07Z</time>
      </trkpt>
      <trkpt lat="44.31348" lon="5.83029">
        <ele>568</ele>
        <time>2019-06-04T10:52:08Z</time>
      </trkpt>
      <trkpt lat="44.31347" lon="5.83034">
        <ele>568</ele>
        <time>2019-06-04T10:52:09Z</time>
      </trkpt>
      <trkpt lat="44.31346" lon="5.83039">
        <ele>568</ele>
        <time>2019-06-04T10:52:10Z</time>
      </trkpt>
      <trkpt lat="44.31346" lon="5.83045">
        <ele>568</ele>
        <time>2019-06-04T10:52:11Z</time>
      </trkpt>
      <trkpt lat="44.31345" lon="5.83051">
        <ele>569</ele>
        <time>2019-06-04T10:52:12Z</time>
      </trkpt>
      <trkpt lat="44.31345" lon="5.83056">
        <ele>569</ele>
        <time>2019-06-04T10:52:13Z</time>
      </trkpt>
      <trkpt lat="44.31344" lon="5.83062">
        <ele>569</ele>
        <time>2019-06-04T10:52:14Z</time>
      </trkpt>
      <trkpt lat="44.31343" lon="5.83068">
        <ele>569</ele>
        <time>2019-06-04T10:52:15Z</time>
      </trkpt>
      <trkpt lat="44.31343" lon="5.83074">
        <ele>569</ele>
        <time>2019-06-04T10:52:16Z</time>
      </trkpt>
      <trkpt lat="44.31342" lon="5.83079">
        <ele>569</ele>
        <time>2019-06-04T10:52:17Z</time>
      </trkpt>
      <trkpt lat="44.31342" lon="5.83085">
        <ele>569</ele>
        <time>2019-06-04T10:52:18Z</time>
      </trkpt>
      <trkpt lat="44.31342" lon="5.8309">
        <ele>569</ele>
        <time>2019-06-04T10:52:19Z</time>
      </trkpt>
      <trkpt lat="44.31342" lon="5.83096">
        <ele>569</ele>
        <time>2019-06-04T10:52:20Z</time>
      </trkpt>
      <trkpt lat="44.31342" lon="5.83101">
        <ele>569</ele>
        <time>2019-06-04T10:52:21Z</time>
      </trkpt>
      <trkpt lat="44.31343" lon="5.83105">
        <ele>569</ele>
        <time>2019-06-04T10:52:22Z</time>
      </trkpt>
      <trkpt lat="44.31345" lon="5.83107">
        <ele>569</ele>
        <time>2019-06-04T10:52:23Z</time>
      </trkpt>
      <trkpt lat="44.31348" lon="5.83107">
        <ele>569</ele>
        <time>2019-06-04T10:52:24Z</time>
      </trkpt>
      <trkpt lat="44.3135" lon="5.83104">
        <ele>570</ele>
        <time>2019-06-04T10:52:25Z</time>
      </trkpt>
      <trkpt lat="44.31353" lon="5.83099">
        <ele>570</ele>
        <time>2019-06-04T10:52:26Z</time>
      </trkpt>
      <trkpt lat="44.31355" lon="5.83095">
        <ele>570</ele>
        <time>2019-06-04T10:52:27Z</time>
      </trkpt>
      <trkpt lat="44.31358" lon="5.8309">
        <ele>570</ele>
        <time>2019-06-04T10:52:28Z</time>
      </trkpt>
      <trkpt lat="44.3136" lon="5.83084">
        <ele>570</ele>
        <time>2019-06-04T10:52:29Z</time>
      </trkpt>
      <trkpt lat="44.31362" lon="5.83079">
        <ele>570</ele>
        <time>2019-06-04T10:52:30Z</time>
      </trkpt>
      <trkpt lat="44.31364" lon="5.83075">
        <ele>570</ele>
        <time>2019-06-04T10:52:31Z</time>
      </trkpt>
      <trkpt lat="44.31367" lon="5.8307">
        <ele>570</ele>
        <time>2019-06-04T10:52:32Z</time>
      </trkpt>
      <trkpt lat="44.3137" lon="5.83065">
        <ele>570</ele>
        <time>2019-06-04T10:52:33Z</time>
      </trkpt>
      <trkpt lat="44.31372" lon="5.8306">
        <ele>570</ele>
        <time>2019-06-04T10:52:34Z</time>
      </trkpt>
      <trkpt lat="44.31375" lon="5.83055">
        <ele>570</ele>
        <time>2019-06-04T10:52:35Z</time>
      </trkpt>
      <trkpt lat="44.31378" lon="5.8305">
        <ele>570</ele>
        <time>2019-06-04T10:52:36Z</time>
      </trkpt>
      <trkpt lat="44.31382" lon="5.83044">
        <ele>570</ele>
        <time>2019-06-04T10:52:37Z</time>
      </trkpt>
      <trkpt lat="44.31385" lon="5.83039">
        <ele>570</ele>
        <time>2019-06-04T10:52:38Z</time>
      </trkpt>
      <trkpt lat="44.31389" lon="5.83033">
        <ele>570</ele>
        <time>2019-06-04T10:52:39Z</time>
      </trkpt>
      <trkpt lat="44.31393" lon="5.83028">
        <ele>569</ele>
        <time>2019-06-04T10:52:40Z</time>
      </trkpt>
      <trkpt lat="44.31397" lon="5.83022">
        <ele>569</ele>
        <time>2019-06-04T10:52:41Z</time>
      </trkpt>
      <trkpt lat="44.31401" lon="5.83017">
        <ele>569</ele>
        <time>2019-06-04T10:52:42Z</time>
      </trkpt>
      <trkpt lat="44.31405" lon="5.83012">
        <ele>568</ele>
        <time>2019-06-04T10:52:43Z</time>
      </trkpt>
      <trkpt lat="44.31408" lon="5.83006">
        <ele>568</ele>
        <time>2019-06-04T10:52:44Z</time>
      </trkpt>
      <trkpt lat="44.31412" lon="5.83">
        <ele>567</ele>
        <time>2019-06-04T10:52:45Z</time>
      </trkpt>
      <trkpt lat="44.31416" lon="5.82995">
        <ele>567</ele>
        <time>2019-06-04T10:52:46Z</time>
      </trkpt>
      <trkpt lat="44.31419" lon="5.82989">
        <ele>567</ele>
        <time>2019-06-04T10:52:47Z</time>
      </trkpt>
      <trkpt lat="44.31423" lon="5.82983">
        <ele>567</ele>
        <time>2019-06-04T10:52:48Z</time>
      </trkpt>
      <trkpt lat="44.31427" lon="5.82978">
        <ele>567</ele>
        <time>2019-06-04T10:52:49Z</time>
      </trkpt>
      <trkpt lat="44.31431" lon="5.82973">
        <ele>567</ele>
        <time>2019-06-04T10:52:50Z</time>
      </trkpt>
      <trkpt lat="44.31435" lon="5.82968">
        <ele>567</ele>
        <time>2019-06-04T10:52:51Z</time>
      </trkpt>
      <trkpt lat="44.31438" lon="5.82962">
        <ele>567</ele>
        <time>2019-06-04T10:52:52Z</time>
      </trkpt>
      <trkpt lat="44.31442" lon="5.82957">
        <ele>567</ele>
        <time>2019-06-04T10:52:53Z</time>
      </trkpt>
      <trkpt lat="44.31445" lon="5.82952">
        <ele>567</ele>
        <time>2019-06-04T10:52:54Z</time>
      </trkpt>
      <trkpt lat="44.31449" lon="5.82947">
        <ele>567</ele>
        <time>2019-06-04T10:52:55Z</time>
      </trkpt>
      <trkpt lat="44.31452" lon="5.82942">
        <ele>567</ele>
        <time>2019-06-04T10:52:56Z</time>
      </trkpt>
      <trkpt lat="44.31456" lon="5.82936">
        <ele>567</ele>
        <time>2019-06-04T10:52:57Z</time>
      </trkpt>
      <trkpt lat="44.31459" lon="5.82931">
        <ele>567</ele>
        <time>2019-06-04T10:52:58Z</time>
      </trkpt>
      <trkpt lat="44.31463" lon="5.82926">
        <ele>567</ele>
        <time>2019-06-04T10:52:59Z</time>
      </trkpt>
      <trkpt lat="44.31467" lon="5.82921">
        <ele>566</ele>
        <time>2019-06-04T10:53:00Z</time>
      </trkpt>
      <trkpt lat="44.3147" lon="5.82916">
        <ele>566</ele>
        <time>2019-06-04T10:53:01Z</time>
      </trkpt>
      <trkpt lat="44.31473" lon="5.82911">
        <ele>566</ele>
        <time>2019-06-04T10:53:02Z</time>
      </trkpt>
      <trkpt lat="44.31477" lon="5.82905">
        <ele>566</ele>
        <time>2019-06-04T10:53:03Z</time>
      </trkpt>
      <trkpt lat="44.31481" lon="5.829">
        <ele>566</ele>
        <time>2019-06-04T10:53:04Z</time>
      </trkpt>
      <trkpt lat="44.31484" lon="5.82894">
        <ele>566</ele>
        <time>2019-06-04T10:53:05Z</time>
      </trkpt>
      <trkpt lat="44.31488" lon="5.82888">
        <ele>566</ele>
        <time>2019-06-04T10:53:06Z</time>
      </trkpt>
      <trkpt lat="44.31491" lon="5.82882">
        <ele>566</ele>
        <time>2019-06-04T10:53:07Z</time>
      </trkpt>
      <trkpt lat="44.31495" lon="5.82878">
        <ele>566</ele>
        <time>2019-06-04T10:53:08Z</time>
      </trkpt>
      <trkpt lat="44.315" lon="5.82874">
        <ele>566</ele>
        <time>2019-06-04T10:53:09Z</time>
      </trkpt>
      <trkpt lat="44.31505" lon="5.82872">
        <ele>566</ele>
        <time>2019-06-04T10:53:10Z</time>
      </trkpt>
      <trkpt lat="44.31509" lon="5.82874">
        <ele>566</ele>
        <time>2019-06-04T10:53:11Z</time>
      </trkpt>
      <trkpt lat="44.31513" lon="5.82877">
        <ele>566</ele>
        <time>2019-06-04T10:53:12Z</time>
      </trkpt>
      <trkpt lat="44.31517" lon="5.82881">
        <ele>566</ele>
        <time>2019-06-04T10:53:13Z</time>
      </trkpt>
      <trkpt lat="44.3152" lon="5.82886">
        <ele>566</ele>
        <time>2019-06-04T10:53:14Z</time>
      </trkpt>
      <trkpt lat="44.31524" lon="5.8289">
        <ele>566</ele>
        <time>2019-06-04T10:53:15Z</time>
      </trkpt>
      <trkpt lat="44.31527" lon="5.82892">
        <ele>566</ele>
        <time>2019-06-04T10:53:16Z</time>
      </trkpt>
      <trkpt lat="44.31531" lon="5.82895">
        <ele>566</ele>
        <time>2019-06-04T10:53:17Z</time>
      </trkpt>
      <trkpt lat="44.31534" lon="5.82898">
        <ele>566</ele>
        <time>2019-06-04T10:53:18Z</time>
      </trkpt>
      <trkpt lat="44.31538" lon="5.82901">
        <ele>566</ele>
        <time>2019-06-04T10:53:19Z</time>
      </trkpt>
      <trkpt lat="44.31541" lon="5.82905">
        <ele>566</ele>
        <time>2019-06-04T10:53:20Z</time>
      </trkpt>
      <trkpt lat="44.31545" lon="5.82908">
        <ele>566</ele>
        <time>2019-06-04T10:53:21Z</time>
      </trkpt>
      <trkpt lat="44.31549" lon="5.82911">
        <ele>566</ele>
        <time>2019-06-04T10:53:22Z</time>
      </trkpt>
      <trkpt lat="44.31553" lon="5.82913">
        <ele>566</ele>
        <time>2019-06-04T10:53:23Z</time>
      </trkpt>
      <trkpt lat="44.31557" lon="5.82916">
        <ele>566</ele>
        <time>2019-06-04T10:53:24Z</time>
      </trkpt>
      <trkpt lat="44.31561" lon="5.82918">
        <ele>566</ele>
        <time>2019-06-04T10:53:25Z</time>
      </trkpt>
      <trkpt lat="44.31564" lon="5.82921">
        <ele>566</ele>
        <time>2019-06-04T10:53:26Z</time>
      </trkpt>
      <trkpt lat="44.31568" lon="5.82924">
        <ele>566</ele>
        <time>2019-06-04T10:53:27Z</time>
      </trkpt>
      <trkpt lat="44.31572" lon="5.82927">
        <ele>566</ele>
        <time>2019-06-04T10:53:28Z</time>
      </trkpt>
      <trkpt lat="44.31575" lon="5.82929">
        <ele>566</ele>
        <time>2019-06-04T10:53:29Z</time>
      </trkpt>
      <trkpt lat="44.31578" lon="5.82931">
        <ele>566</ele>
        <time>2019-06-04T10:53:30Z</time>
      </trkpt>
      <trkpt lat="44.31581" lon="5.82933">
        <ele>566</ele>
        <time>2019-06-04T10:53:31Z</time>
      </trkpt>
      <trkpt lat="44.31585" lon="5.82935">
        <ele>566</ele>
        <time>2019-06-04T10:53:32Z</time>
      </trkpt>
      <trkpt lat="44.31587" lon="5.82938">
        <ele>566</ele>
        <time>2019-06-04T10:53:33Z</time>
      </trkpt>
      <trkpt lat="44.3159" lon="5.8294">
        <ele>566</ele>
        <time>2019-06-04T10:53:34Z</time>
      </trkpt>
      <trkpt lat="44.31592" lon="5.82943">
        <ele>566</ele>
        <time>2019-06-04T10:53:35Z</time>
      </trkpt>
      <trkpt lat="44.31594" lon="5.82944">
        <ele>566</ele>
        <time>2019-06-04T10:53:36Z</time>
      </trkpt>
      <trkpt lat="44.31596" lon="5.82945">
        <ele>566</ele>
        <time>2019-06-04T10:53:37Z</time>
      </trkpt>
      <trkpt lat="44.31598" lon="5.82946">
        <ele>566</ele>
        <time>2019-06-04T10:53:38Z</time>
      </trkpt>
      <trkpt lat="44.316" lon="5.82948">
        <ele>566</ele>
        <time>2019-06-04T10:53:39Z</time>
      </trkpt>
      <trkpt lat="44.31601" lon="5.8295">
        <ele>567</ele>
        <time>2019-06-04T10:53:40Z</time>
      </trkpt>
      <trkpt lat="44.31603" lon="5.82952">
        <ele>567</ele>
        <time>2019-06-04T10:53:41Z</time>
      </trkpt>
      <trkpt lat="44.31603" lon="5.82955">
        <ele>568</ele>
        <time>2019-06-04T10:53:42Z</time>
      </trkpt>
      <trkpt lat="44.31604" lon="5.82956">
        <ele>568</ele>
        <time>2019-06-04T10:53:43Z</time>
      </trkpt>
      <trkpt lat="44.31605" lon="5.82958">
        <ele>570</ele>
        <time>2019-06-04T10:53:47Z</time>
      </trkpt>
      <trkpt lat="44.31607" lon="5.82959">
        <ele>570</ele>
        <time>2019-06-04T10:53:50Z</time>
      </trkpt>
      <trkpt lat="44.31605" lon="5.82958">
        <ele>570</ele>
        <time>2019-06-04T10:53:56Z</time>
      </trkpt>
      <trkpt lat="44.31605" lon="5.8296">
        <ele>570</ele>
        <time>2019-06-04T10:54:00Z</time>
      </trkpt>
      <trkpt lat="44.31604" lon="5.8296">
        <ele>571</ele>
        <time>2019-06-04T10:54:03Z</time>
      </trkpt>
      <trkpt lat="44.31604" lon="5.82961">
        <ele>576</ele>
        <time>2019-06-04T10:54:15Z</time>
      </trkpt>
      <trkpt lat="44.31605" lon="5.82962">
        <ele>576</ele>
        <time>2019-06-04T10:54:21Z</time>
      </trkpt>
      <trkpt lat="44.31607" lon="5.82962">
        <ele>576</ele>
        <time>2019-06-04T10:54:28Z</time>
      </trkpt>
      <trkpt lat="44.31606" lon="5.8296">
        <ele>576</ele>
        <time>2019-06-04T10:54:31Z</time>
      </trkpt>
      <trkpt lat="44.31615" lon="5.82974">
        <ele>564</ele>
        <time>2019-06-04T10:54:38Z</time>
      </trkpt>
      <trkpt lat="44.31614" lon="5.82974">
        <ele>565</ele>
        <time>2019-06-04T10:54:39Z</time>
      </trkpt>
      <trkpt lat="44.31615" lon="5.82972">
        <ele>566</ele>
        <time>2019-06-04T10:54:41Z</time>
      </trkpt>
      <trkpt lat="44.31617" lon="5.82972">
        <ele>566</ele>
        <time>2019-06-04T10:54:42Z</time>
      </trkpt>
      <trkpt lat="44.31618" lon="5.82971">
        <ele>567</ele>
        <time>2019-06-04T10:54:43Z</time>
      </trkpt>
      <trkpt lat="44.3162" lon="5.82971">
        <ele>569</ele>
        <time>2019-06-04T10:54:48Z</time>
      </trkpt>
    </trkseg>
  </trk>
</gpx>